<?xml version="1.0" encoding="UTF-8" standalone="no" ?>
<gpx xmlns="http://www.topografix.com/GPX/1/1" xmlns:xsi="http://www.w3.org/2001/XMLSchema-instance" xsi:schemaLocation="http://www.topografix.com/GPX/1/1 http://www.topografix.com/GPX/1/1/gpx.xsd" version="1.1" creator="VisuGPX - https://www.visugpx.com">
  <metadata>
    <name>St Martin d'Ardèche</name>
    <desc><![CDATA[Très décevant. 
Journée vraiment trop chaude et trop de monde. 
A oublier]]></desc>
  </metadata>
  <trk>
    <name><![CDATA[St Martin d'Ardèche]]></name>
    <trkseg>
      <trkpt lat="44.42839" lon="4.3578">
        <ele>101.5</ele>
        <time>2022-06-11T07:55:35Z</time>
      </trkpt>
      <trkpt lat="44.4284" lon="4.3578">
        <ele>101.5</ele>
        <time>2022-06-11T07:55:36Z</time>
      </trkpt>
      <trkpt lat="44.4284" lon="4.3578">
        <ele>101.5</ele>
        <time>2022-06-11T07:55:37Z</time>
      </trkpt>
      <trkpt lat="44.42841" lon="4.35781">
        <ele>101.5</ele>
        <time>2022-06-11T07:55:38Z</time>
      </trkpt>
      <trkpt lat="44.42841" lon="4.35782">
        <ele>101.5</ele>
        <time>2022-06-11T07:55:39Z</time>
      </trkpt>
      <trkpt lat="44.42841" lon="4.35782">
        <ele>101.5</ele>
        <time>2022-06-11T07:55:40Z</time>
      </trkpt>
      <trkpt lat="44.42841" lon="4.35783">
        <ele>101.5</ele>
        <time>2022-06-11T07:55:41Z</time>
      </trkpt>
      <trkpt lat="44.42841" lon="4.35783">
        <ele>101.5</ele>
        <time>2022-06-11T07:55:42Z</time>
      </trkpt>
      <trkpt lat="44.42842" lon="4.35783">
        <ele>101.5</ele>
        <time>2022-06-11T07:55:43Z</time>
      </trkpt>
      <trkpt lat="44.42841" lon="4.35783">
        <ele>101.5</ele>
        <time>2022-06-11T07:55:44Z</time>
      </trkpt>
      <trkpt lat="44.42841" lon="4.35783">
        <ele>101.5</ele>
        <time>2022-06-11T07:55:45Z</time>
      </trkpt>
      <trkpt lat="44.42841" lon="4.35783">
        <ele>101.5</ele>
        <time>2022-06-11T07:55:46Z</time>
      </trkpt>
      <trkpt lat="44.42841" lon="4.35783">
        <ele>101.5</ele>
        <time>2022-06-11T07:55:47Z</time>
      </trkpt>
      <trkpt lat="44.42841" lon="4.35783">
        <ele>101.5</ele>
        <time>2022-06-11T07:55:48Z</time>
      </trkpt>
      <trkpt lat="44.42841" lon="4.35783">
        <ele>101.5</ele>
        <time>2022-06-11T07:55:49Z</time>
      </trkpt>
      <trkpt lat="44.42841" lon="4.35783">
        <ele>101.5</ele>
        <time>2022-06-11T07:55:50Z</time>
      </trkpt>
      <trkpt lat="44.42841" lon="4.35783">
        <ele>101.5</ele>
        <time>2022-06-11T07:55:59Z</time>
      </trkpt>
      <trkpt lat="44.42841" lon="4.35783">
        <ele>101.5</ele>
        <time>2022-06-11T07:56:00Z</time>
      </trkpt>
      <trkpt lat="44.42841" lon="4.35783">
        <ele>101.5</ele>
        <time>2022-06-11T07:56:01Z</time>
      </trkpt>
      <trkpt lat="44.4284" lon="4.35783">
        <ele>101.5</ele>
        <time>2022-06-11T07:56:02Z</time>
      </trkpt>
      <trkpt lat="44.4284" lon="4.35783">
        <ele>101.5</ele>
        <time>2022-06-11T07:56:03Z</time>
      </trkpt>
      <trkpt lat="44.4284" lon="4.35783">
        <ele>101.5</ele>
        <time>2022-06-11T07:56:04Z</time>
      </trkpt>
      <trkpt lat="44.4284" lon="4.35783">
        <ele>101.5</ele>
        <time>2022-06-11T07:56:05Z</time>
      </trkpt>
      <trkpt lat="44.4284" lon="4.35783">
        <ele>101.5</ele>
        <time>2022-06-11T07:56:06Z</time>
      </trkpt>
      <trkpt lat="44.4284" lon="4.35783">
        <ele>101.5</ele>
        <time>2022-06-11T07:56:07Z</time>
      </trkpt>
      <trkpt lat="44.4284" lon="4.35783">
        <ele>101.5</ele>
        <time>2022-06-11T07:56:08Z</time>
      </trkpt>
      <trkpt lat="44.4284" lon="4.35783">
        <ele>101.5</ele>
        <time>2022-06-11T07:56:09Z</time>
      </trkpt>
      <trkpt lat="44.4284" lon="4.35783">
        <ele>101.5</ele>
        <time>2022-06-11T07:56:10Z</time>
      </trkpt>
      <trkpt lat="44.4284" lon="4.35783">
        <ele>101.5</ele>
        <time>2022-06-11T07:59:37Z</time>
      </trkpt>
      <trkpt lat="44.42839" lon="4.35783">
        <ele>101.5</ele>
        <time>2022-06-11T07:59:38Z</time>
      </trkpt>
      <trkpt lat="44.42839" lon="4.35783">
        <ele>101.5</ele>
        <time>2022-06-11T07:59:39Z</time>
      </trkpt>
      <trkpt lat="44.42835" lon="4.35782">
        <ele>101.4</ele>
        <time>2022-06-11T07:59:40Z</time>
      </trkpt>
      <trkpt lat="44.42834" lon="4.35782">
        <ele>101.4</ele>
        <time>2022-06-11T07:59:41Z</time>
      </trkpt>
      <trkpt lat="44.42831" lon="4.35781">
        <ele>101.4</ele>
        <time>2022-06-11T07:59:42Z</time>
      </trkpt>
      <trkpt lat="44.42828" lon="4.35781">
        <ele>101.4</ele>
        <time>2022-06-11T07:59:43Z</time>
      </trkpt>
      <trkpt lat="44.42825" lon="4.35779">
        <ele>101.4</ele>
        <time>2022-06-11T07:59:44Z</time>
      </trkpt>
      <trkpt lat="44.42821" lon="4.35778">
        <ele>101.4</ele>
        <time>2022-06-11T07:59:45Z</time>
      </trkpt>
      <trkpt lat="44.42818" lon="4.35777">
        <ele>101.4</ele>
        <time>2022-06-11T07:59:46Z</time>
      </trkpt>
      <trkpt lat="44.42815" lon="4.35776">
        <ele>101.4</ele>
        <time>2022-06-11T07:59:47Z</time>
      </trkpt>
      <trkpt lat="44.4281" lon="4.35775">
        <ele>101.4</ele>
        <time>2022-06-11T07:59:48Z</time>
      </trkpt>
      <trkpt lat="44.42803" lon="4.35772">
        <ele>101.3</ele>
        <time>2022-06-11T07:59:50Z</time>
      </trkpt>
      <trkpt lat="44.42795" lon="4.3577">
        <ele>101.3</ele>
        <time>2022-06-11T07:59:51Z</time>
      </trkpt>
      <trkpt lat="44.42791" lon="4.35768">
        <ele>101.3</ele>
        <time>2022-06-11T07:59:52Z</time>
      </trkpt>
      <trkpt lat="44.42786" lon="4.35767">
        <ele>101.3</ele>
        <time>2022-06-11T07:59:53Z</time>
      </trkpt>
      <trkpt lat="44.42782" lon="4.35766">
        <ele>101.3</ele>
        <time>2022-06-11T07:59:54Z</time>
      </trkpt>
      <trkpt lat="44.42772" lon="4.35763">
        <ele>101.3</ele>
        <time>2022-06-11T07:59:56Z</time>
      </trkpt>
      <trkpt lat="44.42769" lon="4.35761">
        <ele>101.3</ele>
        <time>2022-06-11T07:59:58Z</time>
      </trkpt>
      <trkpt lat="44.42765" lon="4.35759">
        <ele>101.2</ele>
        <time>2022-06-11T07:59:59Z</time>
      </trkpt>
      <trkpt lat="44.42761" lon="4.35757">
        <ele>101.2</ele>
        <time>2022-06-11T08:00:00Z</time>
      </trkpt>
      <trkpt lat="44.42757" lon="4.35753">
        <ele>101.2</ele>
        <time>2022-06-11T08:00:01Z</time>
      </trkpt>
      <trkpt lat="44.42753" lon="4.3575">
        <ele>101.2</ele>
        <time>2022-06-11T08:00:02Z</time>
      </trkpt>
      <trkpt lat="44.42749" lon="4.35747">
        <ele>101.2</ele>
        <time>2022-06-11T08:00:03Z</time>
      </trkpt>
      <trkpt lat="44.42745" lon="4.35744">
        <ele>101.2</ele>
        <time>2022-06-11T08:00:04Z</time>
      </trkpt>
      <trkpt lat="44.4274" lon="4.35739">
        <ele>101.2</ele>
        <time>2022-06-11T08:00:05Z</time>
      </trkpt>
      <trkpt lat="44.42736" lon="4.35736">
        <ele>101.2</ele>
        <time>2022-06-11T08:00:06Z</time>
      </trkpt>
      <trkpt lat="44.42732" lon="4.35733">
        <ele>101.2</ele>
        <time>2022-06-11T08:00:07Z</time>
      </trkpt>
      <trkpt lat="44.42728" lon="4.35729">
        <ele>101.2</ele>
        <time>2022-06-11T08:00:08Z</time>
      </trkpt>
      <trkpt lat="44.42726" lon="4.35728">
        <ele>101.2</ele>
        <time>2022-06-11T08:00:09Z</time>
      </trkpt>
      <trkpt lat="44.42721" lon="4.35724">
        <ele>101.2</ele>
        <time>2022-06-11T08:00:10Z</time>
      </trkpt>
      <trkpt lat="44.42717" lon="4.3572">
        <ele>101.3</ele>
        <time>2022-06-11T08:00:11Z</time>
      </trkpt>
      <trkpt lat="44.42713" lon="4.35716">
        <ele>101.3</ele>
        <time>2022-06-11T08:00:12Z</time>
      </trkpt>
      <trkpt lat="44.42709" lon="4.35713">
        <ele>101.3</ele>
        <time>2022-06-11T08:00:13Z</time>
      </trkpt>
      <trkpt lat="44.42705" lon="4.35709">
        <ele>101.3</ele>
        <time>2022-06-11T08:00:14Z</time>
      </trkpt>
      <trkpt lat="44.42701" lon="4.35705">
        <ele>101.4</ele>
        <time>2022-06-11T08:00:15Z</time>
      </trkpt>
      <trkpt lat="44.42697" lon="4.35701">
        <ele>101.4</ele>
        <time>2022-06-11T08:00:16Z</time>
      </trkpt>
      <trkpt lat="44.42693" lon="4.35697">
        <ele>101.5</ele>
        <time>2022-06-11T08:00:17Z</time>
      </trkpt>
      <trkpt lat="44.42689" lon="4.35692">
        <ele>101.5</ele>
        <time>2022-06-11T08:00:18Z</time>
      </trkpt>
      <trkpt lat="44.42686" lon="4.35687">
        <ele>101.6</ele>
        <time>2022-06-11T08:00:19Z</time>
      </trkpt>
      <trkpt lat="44.42682" lon="4.35683">
        <ele>101.7</ele>
        <time>2022-06-11T08:00:20Z</time>
      </trkpt>
      <trkpt lat="44.42679" lon="4.35678">
        <ele>101.7</ele>
        <time>2022-06-11T08:00:21Z</time>
      </trkpt>
      <trkpt lat="44.42677" lon="4.35674">
        <ele>101.8</ele>
        <time>2022-06-11T08:00:22Z</time>
      </trkpt>
      <trkpt lat="44.42672" lon="4.35665">
        <ele>101.9</ele>
        <time>2022-06-11T08:00:24Z</time>
      </trkpt>
      <trkpt lat="44.42669" lon="4.3566">
        <ele>101.9</ele>
        <time>2022-06-11T08:00:25Z</time>
      </trkpt>
      <trkpt lat="44.42666" lon="4.35656">
        <ele>102</ele>
        <time>2022-06-11T08:00:26Z</time>
      </trkpt>
      <trkpt lat="44.42661" lon="4.35648">
        <ele>102.1</ele>
        <time>2022-06-11T08:00:27Z</time>
      </trkpt>
      <trkpt lat="44.42658" lon="4.35644">
        <ele>102.2</ele>
        <time>2022-06-11T08:00:29Z</time>
      </trkpt>
      <trkpt lat="44.42653" lon="4.35636">
        <ele>102.3</ele>
        <time>2022-06-11T08:00:30Z</time>
      </trkpt>
      <trkpt lat="44.42649" lon="4.3563">
        <ele>102.4</ele>
        <time>2022-06-11T08:00:32Z</time>
      </trkpt>
      <trkpt lat="44.42646" lon="4.35626">
        <ele>102.5</ele>
        <time>2022-06-11T08:00:33Z</time>
      </trkpt>
      <trkpt lat="44.42643" lon="4.35623">
        <ele>102.5</ele>
        <time>2022-06-11T08:00:34Z</time>
      </trkpt>
      <trkpt lat="44.4264" lon="4.35619">
        <ele>102.6</ele>
        <time>2022-06-11T08:00:35Z</time>
      </trkpt>
      <trkpt lat="44.42636" lon="4.35615">
        <ele>102.7</ele>
        <time>2022-06-11T08:00:36Z</time>
      </trkpt>
      <trkpt lat="44.42632" lon="4.35611">
        <ele>102.8</ele>
        <time>2022-06-11T08:00:38Z</time>
      </trkpt>
      <trkpt lat="44.42628" lon="4.35608">
        <ele>102.9</ele>
        <time>2022-06-11T08:00:39Z</time>
      </trkpt>
      <trkpt lat="44.42625" lon="4.35605">
        <ele>103</ele>
        <time>2022-06-11T08:00:40Z</time>
      </trkpt>
      <trkpt lat="44.42622" lon="4.35603">
        <ele>103.1</ele>
        <time>2022-06-11T08:00:41Z</time>
      </trkpt>
      <trkpt lat="44.42619" lon="4.35601">
        <ele>103.2</ele>
        <time>2022-06-11T08:00:42Z</time>
      </trkpt>
      <trkpt lat="44.42615" lon="4.35599">
        <ele>103.3</ele>
        <time>2022-06-11T08:00:43Z</time>
      </trkpt>
      <trkpt lat="44.42611" lon="4.35597">
        <ele>103.3</ele>
        <time>2022-06-11T08:00:44Z</time>
      </trkpt>
      <trkpt lat="44.42607" lon="4.35596">
        <ele>103.4</ele>
        <time>2022-06-11T08:00:45Z</time>
      </trkpt>
      <trkpt lat="44.42603" lon="4.35595">
        <ele>103.5</ele>
        <time>2022-06-11T08:00:46Z</time>
      </trkpt>
      <trkpt lat="44.426" lon="4.35593">
        <ele>103.6</ele>
        <time>2022-06-11T08:00:47Z</time>
      </trkpt>
      <trkpt lat="44.42596" lon="4.3559">
        <ele>103.7</ele>
        <time>2022-06-11T08:00:48Z</time>
      </trkpt>
      <trkpt lat="44.42592" lon="4.35588">
        <ele>103.8</ele>
        <time>2022-06-11T08:00:49Z</time>
      </trkpt>
      <trkpt lat="44.42588" lon="4.35586">
        <ele>103.9</ele>
        <time>2022-06-11T08:00:50Z</time>
      </trkpt>
      <trkpt lat="44.42584" lon="4.35584">
        <ele>104</ele>
        <time>2022-06-11T08:00:51Z</time>
      </trkpt>
      <trkpt lat="44.4258" lon="4.35582">
        <ele>104</ele>
        <time>2022-06-11T08:00:52Z</time>
      </trkpt>
      <trkpt lat="44.42577" lon="4.3558">
        <ele>104.1</ele>
        <time>2022-06-11T08:00:53Z</time>
      </trkpt>
      <trkpt lat="44.42573" lon="4.35578">
        <ele>104.2</ele>
        <time>2022-06-11T08:00:54Z</time>
      </trkpt>
      <trkpt lat="44.4257" lon="4.35576">
        <ele>104.3</ele>
        <time>2022-06-11T08:00:55Z</time>
      </trkpt>
      <trkpt lat="44.42566" lon="4.35574">
        <ele>104.3</ele>
        <time>2022-06-11T08:00:56Z</time>
      </trkpt>
      <trkpt lat="44.42563" lon="4.35571">
        <ele>104.4</ele>
        <time>2022-06-11T08:00:57Z</time>
      </trkpt>
      <trkpt lat="44.4256" lon="4.35569">
        <ele>104.5</ele>
        <time>2022-06-11T08:00:58Z</time>
      </trkpt>
      <trkpt lat="44.42556" lon="4.35566">
        <ele>104.5</ele>
        <time>2022-06-11T08:00:59Z</time>
      </trkpt>
      <trkpt lat="44.42553" lon="4.35563">
        <ele>104.6</ele>
        <time>2022-06-11T08:01:00Z</time>
      </trkpt>
      <trkpt lat="44.42549" lon="4.35561">
        <ele>104.7</ele>
        <time>2022-06-11T08:01:01Z</time>
      </trkpt>
      <trkpt lat="44.42546" lon="4.35558">
        <ele>104.8</ele>
        <time>2022-06-11T08:01:02Z</time>
      </trkpt>
      <trkpt lat="44.42542" lon="4.35555">
        <ele>104.8</ele>
        <time>2022-06-11T08:01:03Z</time>
      </trkpt>
      <trkpt lat="44.42539" lon="4.35553">
        <ele>104.9</ele>
        <time>2022-06-11T08:01:04Z</time>
      </trkpt>
      <trkpt lat="44.42536" lon="4.3555">
        <ele>105</ele>
        <time>2022-06-11T08:01:05Z</time>
      </trkpt>
      <trkpt lat="44.42532" lon="4.35547">
        <ele>105.1</ele>
        <time>2022-06-11T08:01:06Z</time>
      </trkpt>
      <trkpt lat="44.42529" lon="4.35544">
        <ele>105.2</ele>
        <time>2022-06-11T08:01:07Z</time>
      </trkpt>
      <trkpt lat="44.42526" lon="4.35542">
        <ele>105.3</ele>
        <time>2022-06-11T08:01:08Z</time>
      </trkpt>
      <trkpt lat="44.42522" lon="4.35539">
        <ele>105.3</ele>
        <time>2022-06-11T08:01:09Z</time>
      </trkpt>
      <trkpt lat="44.42519" lon="4.35536">
        <ele>105.4</ele>
        <time>2022-06-11T08:01:10Z</time>
      </trkpt>
      <trkpt lat="44.42516" lon="4.35533">
        <ele>105.5</ele>
        <time>2022-06-11T08:01:11Z</time>
      </trkpt>
      <trkpt lat="44.42513" lon="4.35531">
        <ele>105.5</ele>
        <time>2022-06-11T08:01:12Z</time>
      </trkpt>
      <trkpt lat="44.42509" lon="4.35528">
        <ele>105.6</ele>
        <time>2022-06-11T08:01:13Z</time>
      </trkpt>
      <trkpt lat="44.42506" lon="4.35525">
        <ele>105.7</ele>
        <time>2022-06-11T08:01:14Z</time>
      </trkpt>
      <trkpt lat="44.42503" lon="4.35522">
        <ele>105.7</ele>
        <time>2022-06-11T08:01:15Z</time>
      </trkpt>
      <trkpt lat="44.42499" lon="4.35519">
        <ele>105.8</ele>
        <time>2022-06-11T08:01:16Z</time>
      </trkpt>
      <trkpt lat="44.42496" lon="4.35517">
        <ele>105.9</ele>
        <time>2022-06-11T08:01:17Z</time>
      </trkpt>
      <trkpt lat="44.42493" lon="4.35514">
        <ele>106</ele>
        <time>2022-06-11T08:01:18Z</time>
      </trkpt>
      <trkpt lat="44.4249" lon="4.35511">
        <ele>106</ele>
        <time>2022-06-11T08:01:19Z</time>
      </trkpt>
      <trkpt lat="44.42487" lon="4.35508">
        <ele>106.1</ele>
        <time>2022-06-11T08:01:20Z</time>
      </trkpt>
      <trkpt lat="44.42484" lon="4.35505">
        <ele>106.2</ele>
        <time>2022-06-11T08:01:21Z</time>
      </trkpt>
      <trkpt lat="44.42481" lon="4.35503">
        <ele>106.3</ele>
        <time>2022-06-11T08:01:22Z</time>
      </trkpt>
      <trkpt lat="44.42478" lon="4.355">
        <ele>106.4</ele>
        <time>2022-06-11T08:01:23Z</time>
      </trkpt>
      <trkpt lat="44.42475" lon="4.35498">
        <ele>106.4</ele>
        <time>2022-06-11T08:01:24Z</time>
      </trkpt>
      <trkpt lat="44.42472" lon="4.35495">
        <ele>106.5</ele>
        <time>2022-06-11T08:01:25Z</time>
      </trkpt>
      <trkpt lat="44.42469" lon="4.35493">
        <ele>106.6</ele>
        <time>2022-06-11T08:01:26Z</time>
      </trkpt>
      <trkpt lat="44.42466" lon="4.3549">
        <ele>106.7</ele>
        <time>2022-06-11T08:01:27Z</time>
      </trkpt>
      <trkpt lat="44.4246" lon="4.35486">
        <ele>106.8</ele>
        <time>2022-06-11T08:01:29Z</time>
      </trkpt>
      <trkpt lat="44.42457" lon="4.35485">
        <ele>106.9</ele>
        <time>2022-06-11T08:01:30Z</time>
      </trkpt>
      <trkpt lat="44.42454" lon="4.35483">
        <ele>106.9</ele>
        <time>2022-06-11T08:01:31Z</time>
      </trkpt>
      <trkpt lat="44.42451" lon="4.35481">
        <ele>107</ele>
        <time>2022-06-11T08:01:32Z</time>
      </trkpt>
      <trkpt lat="44.42448" lon="4.35479">
        <ele>107.1</ele>
        <time>2022-06-11T08:01:33Z</time>
      </trkpt>
      <trkpt lat="44.42445" lon="4.35477">
        <ele>107.2</ele>
        <time>2022-06-11T08:01:34Z</time>
      </trkpt>
      <trkpt lat="44.4244" lon="4.35473">
        <ele>107.3</ele>
        <time>2022-06-11T08:01:35Z</time>
      </trkpt>
      <trkpt lat="44.42435" lon="4.35469">
        <ele>107.5</ele>
        <time>2022-06-11T08:01:37Z</time>
      </trkpt>
      <trkpt lat="44.42432" lon="4.35468">
        <ele>107.5</ele>
        <time>2022-06-11T08:01:38Z</time>
      </trkpt>
      <trkpt lat="44.42429" lon="4.35465">
        <ele>107.6</ele>
        <time>2022-06-11T08:01:39Z</time>
      </trkpt>
      <trkpt lat="44.42426" lon="4.35464">
        <ele>107.7</ele>
        <time>2022-06-11T08:01:40Z</time>
      </trkpt>
      <trkpt lat="44.42423" lon="4.35462">
        <ele>107.8</ele>
        <time>2022-06-11T08:01:41Z</time>
      </trkpt>
      <trkpt lat="44.42419" lon="4.3546">
        <ele>107.8</ele>
        <time>2022-06-11T08:01:42Z</time>
      </trkpt>
      <trkpt lat="44.42416" lon="4.35457">
        <ele>107.9</ele>
        <time>2022-06-11T08:01:43Z</time>
      </trkpt>
      <trkpt lat="44.42413" lon="4.35455">
        <ele>108</ele>
        <time>2022-06-11T08:01:44Z</time>
      </trkpt>
      <trkpt lat="44.42409" lon="4.35452">
        <ele>108</ele>
        <time>2022-06-11T08:01:45Z</time>
      </trkpt>
      <trkpt lat="44.42406" lon="4.3545">
        <ele>108.1</ele>
        <time>2022-06-11T08:01:46Z</time>
      </trkpt>
      <trkpt lat="44.42402" lon="4.35448">
        <ele>108.2</ele>
        <time>2022-06-11T08:01:47Z</time>
      </trkpt>
      <trkpt lat="44.42399" lon="4.35446">
        <ele>108.2</ele>
        <time>2022-06-11T08:01:48Z</time>
      </trkpt>
      <trkpt lat="44.42395" lon="4.35443">
        <ele>108.3</ele>
        <time>2022-06-11T08:01:49Z</time>
      </trkpt>
      <trkpt lat="44.42392" lon="4.35441">
        <ele>108.4</ele>
        <time>2022-06-11T08:01:50Z</time>
      </trkpt>
      <trkpt lat="44.42388" lon="4.35439">
        <ele>108.4</ele>
        <time>2022-06-11T08:01:51Z</time>
      </trkpt>
      <trkpt lat="44.42385" lon="4.35437">
        <ele>108.5</ele>
        <time>2022-06-11T08:01:52Z</time>
      </trkpt>
      <trkpt lat="44.42381" lon="4.35435">
        <ele>108.5</ele>
        <time>2022-06-11T08:01:53Z</time>
      </trkpt>
      <trkpt lat="44.42376" lon="4.35431">
        <ele>108.6</ele>
        <time>2022-06-11T08:01:54Z</time>
      </trkpt>
      <trkpt lat="44.42371" lon="4.35428">
        <ele>108.7</ele>
        <time>2022-06-11T08:01:56Z</time>
      </trkpt>
      <trkpt lat="44.42367" lon="4.35424">
        <ele>108.8</ele>
        <time>2022-06-11T08:01:57Z</time>
      </trkpt>
      <trkpt lat="44.42359" lon="4.3542">
        <ele>109</ele>
        <time>2022-06-11T08:01:59Z</time>
      </trkpt>
      <trkpt lat="44.42352" lon="4.35416">
        <ele>109.1</ele>
        <time>2022-06-11T08:02:01Z</time>
      </trkpt>
      <trkpt lat="44.42349" lon="4.35413">
        <ele>109.2</ele>
        <time>2022-06-11T08:02:02Z</time>
      </trkpt>
      <trkpt lat="44.42346" lon="4.35411">
        <ele>109.3</ele>
        <time>2022-06-11T08:02:03Z</time>
      </trkpt>
      <trkpt lat="44.42342" lon="4.35409">
        <ele>109.3</ele>
        <time>2022-06-11T08:02:04Z</time>
      </trkpt>
      <trkpt lat="44.42339" lon="4.35407">
        <ele>109.4</ele>
        <time>2022-06-11T08:02:05Z</time>
      </trkpt>
      <trkpt lat="44.42336" lon="4.35405">
        <ele>109.5</ele>
        <time>2022-06-11T08:02:06Z</time>
      </trkpt>
      <trkpt lat="44.42333" lon="4.35403">
        <ele>109.6</ele>
        <time>2022-06-11T08:02:07Z</time>
      </trkpt>
      <trkpt lat="44.4233" lon="4.35401">
        <ele>109.7</ele>
        <time>2022-06-11T08:02:08Z</time>
      </trkpt>
      <trkpt lat="44.42326" lon="4.35399">
        <ele>109.8</ele>
        <time>2022-06-11T08:02:09Z</time>
      </trkpt>
      <trkpt lat="44.42323" lon="4.35397">
        <ele>109.8</ele>
        <time>2022-06-11T08:02:10Z</time>
      </trkpt>
      <trkpt lat="44.4232" lon="4.35395">
        <ele>109.9</ele>
        <time>2022-06-11T08:02:11Z</time>
      </trkpt>
      <trkpt lat="44.42317" lon="4.35393">
        <ele>110</ele>
        <time>2022-06-11T08:02:12Z</time>
      </trkpt>
      <trkpt lat="44.42313" lon="4.35391">
        <ele>110.1</ele>
        <time>2022-06-11T08:02:13Z</time>
      </trkpt>
      <trkpt lat="44.42309" lon="4.35389">
        <ele>110.1</ele>
        <time>2022-06-11T08:02:14Z</time>
      </trkpt>
      <trkpt lat="44.42306" lon="4.35386">
        <ele>110.2</ele>
        <time>2022-06-11T08:02:15Z</time>
      </trkpt>
      <trkpt lat="44.42303" lon="4.35383">
        <ele>110.3</ele>
        <time>2022-06-11T08:02:16Z</time>
      </trkpt>
      <trkpt lat="44.42299" lon="4.35381">
        <ele>110.3</ele>
        <time>2022-06-11T08:02:17Z</time>
      </trkpt>
      <trkpt lat="44.42294" lon="4.35377">
        <ele>110.5</ele>
        <time>2022-06-11T08:02:18Z</time>
      </trkpt>
      <trkpt lat="44.4229" lon="4.35375">
        <ele>110.6</ele>
        <time>2022-06-11T08:02:20Z</time>
      </trkpt>
      <trkpt lat="44.42287" lon="4.35373">
        <ele>110.6</ele>
        <time>2022-06-11T08:02:21Z</time>
      </trkpt>
      <trkpt lat="44.42283" lon="4.35371">
        <ele>110.7</ele>
        <time>2022-06-11T08:02:22Z</time>
      </trkpt>
      <trkpt lat="44.42277" lon="4.35366">
        <ele>110.9</ele>
        <time>2022-06-11T08:02:23Z</time>
      </trkpt>
      <trkpt lat="44.42274" lon="4.35363">
        <ele>111</ele>
        <time>2022-06-11T08:02:24Z</time>
      </trkpt>
      <trkpt lat="44.4227" lon="4.3536">
        <ele>111.1</ele>
        <time>2022-06-11T08:02:26Z</time>
      </trkpt>
      <trkpt lat="44.42264" lon="4.35356">
        <ele>111.2</ele>
        <time>2022-06-11T08:02:28Z</time>
      </trkpt>
      <trkpt lat="44.42261" lon="4.35354">
        <ele>111.3</ele>
        <time>2022-06-11T08:02:29Z</time>
      </trkpt>
      <trkpt lat="44.42257" lon="4.35352">
        <ele>111.4</ele>
        <time>2022-06-11T08:02:30Z</time>
      </trkpt>
      <trkpt lat="44.42254" lon="4.35349">
        <ele>111.5</ele>
        <time>2022-06-11T08:02:31Z</time>
      </trkpt>
      <trkpt lat="44.42251" lon="4.35347">
        <ele>111.6</ele>
        <time>2022-06-11T08:02:32Z</time>
      </trkpt>
      <trkpt lat="44.42244" lon="4.35343">
        <ele>111.7</ele>
        <time>2022-06-11T08:02:33Z</time>
      </trkpt>
      <trkpt lat="44.42241" lon="4.3534">
        <ele>111.8</ele>
        <time>2022-06-11T08:02:34Z</time>
      </trkpt>
      <trkpt lat="44.42237" lon="4.35338">
        <ele>111.9</ele>
        <time>2022-06-11T08:02:36Z</time>
      </trkpt>
      <trkpt lat="44.42233" lon="4.35335">
        <ele>112</ele>
        <time>2022-06-11T08:02:37Z</time>
      </trkpt>
      <trkpt lat="44.42228" lon="4.35332">
        <ele>112.1</ele>
        <time>2022-06-11T08:02:38Z</time>
      </trkpt>
      <trkpt lat="44.42221" lon="4.35328">
        <ele>112.2</ele>
        <time>2022-06-11T08:02:40Z</time>
      </trkpt>
      <trkpt lat="44.42218" lon="4.35325">
        <ele>112.2</ele>
        <time>2022-06-11T08:02:42Z</time>
      </trkpt>
      <trkpt lat="44.42214" lon="4.35323">
        <ele>112.3</ele>
        <time>2022-06-11T08:02:43Z</time>
      </trkpt>
      <trkpt lat="44.42211" lon="4.35321">
        <ele>112.3</ele>
        <time>2022-06-11T08:02:44Z</time>
      </trkpt>
      <trkpt lat="44.42205" lon="4.35318">
        <ele>112.5</ele>
        <time>2022-06-11T08:02:45Z</time>
      </trkpt>
      <trkpt lat="44.42201" lon="4.35315">
        <ele>112.5</ele>
        <time>2022-06-11T08:02:47Z</time>
      </trkpt>
      <trkpt lat="44.42197" lon="4.35313">
        <ele>112.6</ele>
        <time>2022-06-11T08:02:48Z</time>
      </trkpt>
      <trkpt lat="44.42194" lon="4.35311">
        <ele>112.7</ele>
        <time>2022-06-11T08:02:49Z</time>
      </trkpt>
      <trkpt lat="44.42191" lon="4.35309">
        <ele>112.7</ele>
        <time>2022-06-11T08:02:50Z</time>
      </trkpt>
      <trkpt lat="44.42188" lon="4.35306">
        <ele>112.8</ele>
        <time>2022-06-11T08:02:51Z</time>
      </trkpt>
      <trkpt lat="44.42184" lon="4.35305">
        <ele>112.9</ele>
        <time>2022-06-11T08:02:52Z</time>
      </trkpt>
      <trkpt lat="44.42181" lon="4.35303">
        <ele>112.9</ele>
        <time>2022-06-11T08:02:53Z</time>
      </trkpt>
      <trkpt lat="44.42177" lon="4.35301">
        <ele>113</ele>
        <time>2022-06-11T08:02:54Z</time>
      </trkpt>
      <trkpt lat="44.42174" lon="4.35299">
        <ele>113.1</ele>
        <time>2022-06-11T08:02:55Z</time>
      </trkpt>
      <trkpt lat="44.42171" lon="4.35297">
        <ele>113.2</ele>
        <time>2022-06-11T08:02:56Z</time>
      </trkpt>
      <trkpt lat="44.42168" lon="4.35295">
        <ele>113.3</ele>
        <time>2022-06-11T08:02:57Z</time>
      </trkpt>
      <trkpt lat="44.42161" lon="4.35291">
        <ele>113.4</ele>
        <time>2022-06-11T08:02:58Z</time>
      </trkpt>
      <trkpt lat="44.42158" lon="4.35289">
        <ele>113.5</ele>
        <time>2022-06-11T08:03:00Z</time>
      </trkpt>
      <trkpt lat="44.42154" lon="4.35287">
        <ele>113.6</ele>
        <time>2022-06-11T08:03:01Z</time>
      </trkpt>
      <trkpt lat="44.42148" lon="4.35284">
        <ele>113.8</ele>
        <time>2022-06-11T08:03:02Z</time>
      </trkpt>
      <trkpt lat="44.42144" lon="4.35282">
        <ele>113.9</ele>
        <time>2022-06-11T08:03:03Z</time>
      </trkpt>
      <trkpt lat="44.42141" lon="4.3528">
        <ele>114</ele>
        <time>2022-06-11T08:03:05Z</time>
      </trkpt>
      <trkpt lat="44.42138" lon="4.35279">
        <ele>114.1</ele>
        <time>2022-06-11T08:03:06Z</time>
      </trkpt>
      <trkpt lat="44.42135" lon="4.35277">
        <ele>114.2</ele>
        <time>2022-06-11T08:03:07Z</time>
      </trkpt>
      <trkpt lat="44.42131" lon="4.35275">
        <ele>114.2</ele>
        <time>2022-06-11T08:03:08Z</time>
      </trkpt>
      <trkpt lat="44.42128" lon="4.35273">
        <ele>114.3</ele>
        <time>2022-06-11T08:03:09Z</time>
      </trkpt>
      <trkpt lat="44.42124" lon="4.35271">
        <ele>114.4</ele>
        <time>2022-06-11T08:03:10Z</time>
      </trkpt>
      <trkpt lat="44.42121" lon="4.35269">
        <ele>114.5</ele>
        <time>2022-06-11T08:03:11Z</time>
      </trkpt>
      <trkpt lat="44.42117" lon="4.35268">
        <ele>114.6</ele>
        <time>2022-06-11T08:03:12Z</time>
      </trkpt>
      <trkpt lat="44.42114" lon="4.35267">
        <ele>114.6</ele>
        <time>2022-06-11T08:03:13Z</time>
      </trkpt>
      <trkpt lat="44.4211" lon="4.35265">
        <ele>114.7</ele>
        <time>2022-06-11T08:03:14Z</time>
      </trkpt>
      <trkpt lat="44.42106" lon="4.35263">
        <ele>114.8</ele>
        <time>2022-06-11T08:03:15Z</time>
      </trkpt>
      <trkpt lat="44.42103" lon="4.35261">
        <ele>114.8</ele>
        <time>2022-06-11T08:03:16Z</time>
      </trkpt>
      <trkpt lat="44.42099" lon="4.35259">
        <ele>114.9</ele>
        <time>2022-06-11T08:03:17Z</time>
      </trkpt>
      <trkpt lat="44.42096" lon="4.35257">
        <ele>115</ele>
        <time>2022-06-11T08:03:18Z</time>
      </trkpt>
      <trkpt lat="44.42089" lon="4.35254">
        <ele>115.1</ele>
        <time>2022-06-11T08:03:19Z</time>
      </trkpt>
      <trkpt lat="44.42086" lon="4.35253">
        <ele>115.2</ele>
        <time>2022-06-11T08:03:21Z</time>
      </trkpt>
      <trkpt lat="44.42082" lon="4.35251">
        <ele>115.3</ele>
        <time>2022-06-11T08:03:22Z</time>
      </trkpt>
      <trkpt lat="44.42079" lon="4.3525">
        <ele>115.3</ele>
        <time>2022-06-11T08:03:23Z</time>
      </trkpt>
      <trkpt lat="44.42076" lon="4.35248">
        <ele>115.4</ele>
        <time>2022-06-11T08:03:24Z</time>
      </trkpt>
      <trkpt lat="44.42069" lon="4.35245">
        <ele>115.5</ele>
        <time>2022-06-11T08:03:26Z</time>
      </trkpt>
      <trkpt lat="44.42066" lon="4.35243">
        <ele>115.6</ele>
        <time>2022-06-11T08:03:27Z</time>
      </trkpt>
      <trkpt lat="44.42059" lon="4.35241">
        <ele>115.7</ele>
        <time>2022-06-11T08:03:29Z</time>
      </trkpt>
      <trkpt lat="44.42056" lon="4.35238">
        <ele>115.8</ele>
        <time>2022-06-11T08:03:30Z</time>
      </trkpt>
      <trkpt lat="44.42052" lon="4.35236">
        <ele>115.9</ele>
        <time>2022-06-11T08:03:31Z</time>
      </trkpt>
      <trkpt lat="44.42049" lon="4.35235">
        <ele>116</ele>
        <time>2022-06-11T08:03:32Z</time>
      </trkpt>
      <trkpt lat="44.42046" lon="4.35233">
        <ele>116</ele>
        <time>2022-06-11T08:03:33Z</time>
      </trkpt>
      <trkpt lat="44.42042" lon="4.35231">
        <ele>116.1</ele>
        <time>2022-06-11T08:03:34Z</time>
      </trkpt>
      <trkpt lat="44.42037" lon="4.35229">
        <ele>116.3</ele>
        <time>2022-06-11T08:03:35Z</time>
      </trkpt>
      <trkpt lat="44.42031" lon="4.35226">
        <ele>116.4</ele>
        <time>2022-06-11T08:03:37Z</time>
      </trkpt>
      <trkpt lat="44.42028" lon="4.35225">
        <ele>116.5</ele>
        <time>2022-06-11T08:03:38Z</time>
      </trkpt>
      <trkpt lat="44.42025" lon="4.35223">
        <ele>116.6</ele>
        <time>2022-06-11T08:03:39Z</time>
      </trkpt>
      <trkpt lat="44.42022" lon="4.35221">
        <ele>116.7</ele>
        <time>2022-06-11T08:03:40Z</time>
      </trkpt>
      <trkpt lat="44.42019" lon="4.3522">
        <ele>116.8</ele>
        <time>2022-06-11T08:03:41Z</time>
      </trkpt>
      <trkpt lat="44.42014" lon="4.35217">
        <ele>117</ele>
        <time>2022-06-11T08:03:42Z</time>
      </trkpt>
      <trkpt lat="44.42011" lon="4.35215">
        <ele>117.1</ele>
        <time>2022-06-11T08:03:43Z</time>
      </trkpt>
      <trkpt lat="44.42006" lon="4.35212">
        <ele>117.3</ele>
        <time>2022-06-11T08:03:45Z</time>
      </trkpt>
      <trkpt lat="44.42003" lon="4.3521">
        <ele>117.4</ele>
        <time>2022-06-11T08:03:46Z</time>
      </trkpt>
      <trkpt lat="44.41999" lon="4.35208">
        <ele>117.6</ele>
        <time>2022-06-11T08:03:47Z</time>
      </trkpt>
      <trkpt lat="44.41996" lon="4.35206">
        <ele>117.7</ele>
        <time>2022-06-11T08:03:48Z</time>
      </trkpt>
      <trkpt lat="44.41993" lon="4.35204">
        <ele>117.8</ele>
        <time>2022-06-11T08:03:49Z</time>
      </trkpt>
      <trkpt lat="44.41989" lon="4.35202">
        <ele>117.9</ele>
        <time>2022-06-11T08:03:50Z</time>
      </trkpt>
      <trkpt lat="44.41986" lon="4.35201">
        <ele>118</ele>
        <time>2022-06-11T08:03:51Z</time>
      </trkpt>
      <trkpt lat="44.41982" lon="4.35199">
        <ele>118.1</ele>
        <time>2022-06-11T08:03:52Z</time>
      </trkpt>
      <trkpt lat="44.41979" lon="4.35197">
        <ele>118.3</ele>
        <time>2022-06-11T08:03:53Z</time>
      </trkpt>
      <trkpt lat="44.41975" lon="4.35195">
        <ele>118.4</ele>
        <time>2022-06-11T08:03:54Z</time>
      </trkpt>
      <trkpt lat="44.41969" lon="4.35191">
        <ele>118.6</ele>
        <time>2022-06-11T08:03:56Z</time>
      </trkpt>
      <trkpt lat="44.41962" lon="4.3519">
        <ele>118.8</ele>
        <time>2022-06-11T08:03:57Z</time>
      </trkpt>
      <trkpt lat="44.41959" lon="4.35189">
        <ele>118.9</ele>
        <time>2022-06-11T08:03:59Z</time>
      </trkpt>
      <trkpt lat="44.41955" lon="4.35188">
        <ele>119</ele>
        <time>2022-06-11T08:04:00Z</time>
      </trkpt>
      <trkpt lat="44.41952" lon="4.35187">
        <ele>119.1</ele>
        <time>2022-06-11T08:04:01Z</time>
      </trkpt>
      <trkpt lat="44.41949" lon="4.35188">
        <ele>119.2</ele>
        <time>2022-06-11T08:04:02Z</time>
      </trkpt>
      <trkpt lat="44.41945" lon="4.35188">
        <ele>119.2</ele>
        <time>2022-06-11T08:04:03Z</time>
      </trkpt>
      <trkpt lat="44.41942" lon="4.35189">
        <ele>119.3</ele>
        <time>2022-06-11T08:04:04Z</time>
      </trkpt>
      <trkpt lat="44.41938" lon="4.3519">
        <ele>119.4</ele>
        <time>2022-06-11T08:04:05Z</time>
      </trkpt>
      <trkpt lat="44.41934" lon="4.35191">
        <ele>119.5</ele>
        <time>2022-06-11T08:04:06Z</time>
      </trkpt>
      <trkpt lat="44.4193" lon="4.35192">
        <ele>119.6</ele>
        <time>2022-06-11T08:04:07Z</time>
      </trkpt>
      <trkpt lat="44.41927" lon="4.35195">
        <ele>119.6</ele>
        <time>2022-06-11T08:04:08Z</time>
      </trkpt>
      <trkpt lat="44.41923" lon="4.35198">
        <ele>119.7</ele>
        <time>2022-06-11T08:04:09Z</time>
      </trkpt>
      <trkpt lat="44.4192" lon="4.35201">
        <ele>119.8</ele>
        <time>2022-06-11T08:04:10Z</time>
      </trkpt>
      <trkpt lat="44.41917" lon="4.35205">
        <ele>119.8</ele>
        <time>2022-06-11T08:04:11Z</time>
      </trkpt>
      <trkpt lat="44.41915" lon="4.35207">
        <ele>119.9</ele>
        <time>2022-06-11T08:04:12Z</time>
      </trkpt>
      <trkpt lat="44.41912" lon="4.35211">
        <ele>120</ele>
        <time>2022-06-11T08:04:13Z</time>
      </trkpt>
      <trkpt lat="44.4191" lon="4.35215">
        <ele>120.1</ele>
        <time>2022-06-11T08:04:14Z</time>
      </trkpt>
      <trkpt lat="44.41907" lon="4.35218">
        <ele>120.1</ele>
        <time>2022-06-11T08:04:15Z</time>
      </trkpt>
      <trkpt lat="44.41905" lon="4.35223">
        <ele>120.3</ele>
        <time>2022-06-11T08:04:16Z</time>
      </trkpt>
      <trkpt lat="44.41903" lon="4.35227">
        <ele>120.4</ele>
        <time>2022-06-11T08:04:17Z</time>
      </trkpt>
      <trkpt lat="44.41901" lon="4.35232">
        <ele>120.5</ele>
        <time>2022-06-11T08:04:18Z</time>
      </trkpt>
      <trkpt lat="44.41899" lon="4.35237">
        <ele>120.6</ele>
        <time>2022-06-11T08:04:19Z</time>
      </trkpt>
      <trkpt lat="44.41898" lon="4.35241">
        <ele>120.6</ele>
        <time>2022-06-11T08:04:20Z</time>
      </trkpt>
      <trkpt lat="44.41896" lon="4.35245">
        <ele>120.7</ele>
        <time>2022-06-11T08:04:21Z</time>
      </trkpt>
      <trkpt lat="44.41895" lon="4.3525">
        <ele>120.8</ele>
        <time>2022-06-11T08:04:22Z</time>
      </trkpt>
      <trkpt lat="44.41894" lon="4.35257">
        <ele>120.8</ele>
        <time>2022-06-11T08:04:23Z</time>
      </trkpt>
      <trkpt lat="44.41893" lon="4.35265">
        <ele>120.9</ele>
        <time>2022-06-11T08:04:25Z</time>
      </trkpt>
      <trkpt lat="44.41892" lon="4.35275">
        <ele>120.9</ele>
        <time>2022-06-11T08:04:26Z</time>
      </trkpt>
      <trkpt lat="44.41892" lon="4.35281">
        <ele>120.9</ele>
        <time>2022-06-11T08:04:28Z</time>
      </trkpt>
      <trkpt lat="44.41891" lon="4.35287">
        <ele>120.9</ele>
        <time>2022-06-11T08:04:29Z</time>
      </trkpt>
      <trkpt lat="44.4189" lon="4.35297">
        <ele>121</ele>
        <time>2022-06-11T08:04:30Z</time>
      </trkpt>
      <trkpt lat="44.41889" lon="4.35305">
        <ele>121</ele>
        <time>2022-06-11T08:04:32Z</time>
      </trkpt>
      <trkpt lat="44.41888" lon="4.35315">
        <ele>121.1</ele>
        <time>2022-06-11T08:04:33Z</time>
      </trkpt>
      <trkpt lat="44.41887" lon="4.35322">
        <ele>121.2</ele>
        <time>2022-06-11T08:04:35Z</time>
      </trkpt>
      <trkpt lat="44.41886" lon="4.35333">
        <ele>121.3</ele>
        <time>2022-06-11T08:04:36Z</time>
      </trkpt>
      <trkpt lat="44.41885" lon="4.35339">
        <ele>121.3</ele>
        <time>2022-06-11T08:04:38Z</time>
      </trkpt>
      <trkpt lat="44.41885" lon="4.35344">
        <ele>121.4</ele>
        <time>2022-06-11T08:04:39Z</time>
      </trkpt>
      <trkpt lat="44.41884" lon="4.35349">
        <ele>121.5</ele>
        <time>2022-06-11T08:04:40Z</time>
      </trkpt>
      <trkpt lat="44.41883" lon="4.35354">
        <ele>121.5</ele>
        <time>2022-06-11T08:04:41Z</time>
      </trkpt>
      <trkpt lat="44.41883" lon="4.35359">
        <ele>121.6</ele>
        <time>2022-06-11T08:04:42Z</time>
      </trkpt>
      <trkpt lat="44.41882" lon="4.35365">
        <ele>121.6</ele>
        <time>2022-06-11T08:04:43Z</time>
      </trkpt>
      <trkpt lat="44.41882" lon="4.3537">
        <ele>121.7</ele>
        <time>2022-06-11T08:04:44Z</time>
      </trkpt>
      <trkpt lat="44.41881" lon="4.35378">
        <ele>121.8</ele>
        <time>2022-06-11T08:04:45Z</time>
      </trkpt>
      <trkpt lat="44.41881" lon="4.35383">
        <ele>121.8</ele>
        <time>2022-06-11T08:04:46Z</time>
      </trkpt>
      <trkpt lat="44.41879" lon="4.35392">
        <ele>121.9</ele>
        <time>2022-06-11T08:04:48Z</time>
      </trkpt>
      <trkpt lat="44.41879" lon="4.35399">
        <ele>122</ele>
        <time>2022-06-11T08:04:49Z</time>
      </trkpt>
      <trkpt lat="44.41878" lon="4.35406">
        <ele>122</ele>
        <time>2022-06-11T08:04:50Z</time>
      </trkpt>
      <trkpt lat="44.41878" lon="4.35413">
        <ele>122.1</ele>
        <time>2022-06-11T08:04:52Z</time>
      </trkpt>
      <trkpt lat="44.41877" lon="4.35418">
        <ele>122.2</ele>
        <time>2022-06-11T08:04:53Z</time>
      </trkpt>
      <trkpt lat="44.41877" lon="4.35423">
        <ele>122.2</ele>
        <time>2022-06-11T08:04:54Z</time>
      </trkpt>
      <trkpt lat="44.41876" lon="4.35433">
        <ele>122.3</ele>
        <time>2022-06-11T08:04:55Z</time>
      </trkpt>
      <trkpt lat="44.41875" lon="4.35439">
        <ele>122.3</ele>
        <time>2022-06-11T08:04:57Z</time>
      </trkpt>
      <trkpt lat="44.41875" lon="4.35444">
        <ele>122.4</ele>
        <time>2022-06-11T08:04:58Z</time>
      </trkpt>
      <trkpt lat="44.41874" lon="4.35449">
        <ele>122.5</ele>
        <time>2022-06-11T08:04:59Z</time>
      </trkpt>
      <trkpt lat="44.41874" lon="4.35454">
        <ele>122.6</ele>
        <time>2022-06-11T08:05:00Z</time>
      </trkpt>
      <trkpt lat="44.41873" lon="4.35459">
        <ele>122.7</ele>
        <time>2022-06-11T08:05:01Z</time>
      </trkpt>
      <trkpt lat="44.41873" lon="4.35464">
        <ele>122.7</ele>
        <time>2022-06-11T08:05:02Z</time>
      </trkpt>
      <trkpt lat="44.41872" lon="4.35469">
        <ele>122.8</ele>
        <time>2022-06-11T08:05:03Z</time>
      </trkpt>
      <trkpt lat="44.41872" lon="4.35474">
        <ele>122.9</ele>
        <time>2022-06-11T08:05:04Z</time>
      </trkpt>
      <trkpt lat="44.41871" lon="4.35482">
        <ele>123</ele>
        <time>2022-06-11T08:05:05Z</time>
      </trkpt>
      <trkpt lat="44.4187" lon="4.35489">
        <ele>123.1</ele>
        <time>2022-06-11T08:05:07Z</time>
      </trkpt>
      <trkpt lat="44.41869" lon="4.35494">
        <ele>123.2</ele>
        <time>2022-06-11T08:05:08Z</time>
      </trkpt>
      <trkpt lat="44.41868" lon="4.35499">
        <ele>123.3</ele>
        <time>2022-06-11T08:05:09Z</time>
      </trkpt>
      <trkpt lat="44.41868" lon="4.35504">
        <ele>123.3</ele>
        <time>2022-06-11T08:05:10Z</time>
      </trkpt>
      <trkpt lat="44.41868" lon="4.35509">
        <ele>123.4</ele>
        <time>2022-06-11T08:05:11Z</time>
      </trkpt>
      <trkpt lat="44.41867" lon="4.35519">
        <ele>123.5</ele>
        <time>2022-06-11T08:05:12Z</time>
      </trkpt>
      <trkpt lat="44.41866" lon="4.35524">
        <ele>123.6</ele>
        <time>2022-06-11T08:05:14Z</time>
      </trkpt>
      <trkpt lat="44.41866" lon="4.3553">
        <ele>123.6</ele>
        <time>2022-06-11T08:05:15Z</time>
      </trkpt>
      <trkpt lat="44.41865" lon="4.35535">
        <ele>123.7</ele>
        <time>2022-06-11T08:05:16Z</time>
      </trkpt>
      <trkpt lat="44.41863" lon="4.35545">
        <ele>123.7</ele>
        <time>2022-06-11T08:05:17Z</time>
      </trkpt>
      <trkpt lat="44.41863" lon="4.35552">
        <ele>123.8</ele>
        <time>2022-06-11T08:05:19Z</time>
      </trkpt>
      <trkpt lat="44.41862" lon="4.35557">
        <ele>123.8</ele>
        <time>2022-06-11T08:05:20Z</time>
      </trkpt>
      <trkpt lat="44.41862" lon="4.35563">
        <ele>123.8</ele>
        <time>2022-06-11T08:05:21Z</time>
      </trkpt>
      <trkpt lat="44.41862" lon="4.35568">
        <ele>123.8</ele>
        <time>2022-06-11T08:05:22Z</time>
      </trkpt>
      <trkpt lat="44.41861" lon="4.35574">
        <ele>123.8</ele>
        <time>2022-06-11T08:05:23Z</time>
      </trkpt>
      <trkpt lat="44.4186" lon="4.35585">
        <ele>123.8</ele>
        <time>2022-06-11T08:05:24Z</time>
      </trkpt>
      <trkpt lat="44.41859" lon="4.35592">
        <ele>123.8</ele>
        <time>2022-06-11T08:05:26Z</time>
      </trkpt>
      <trkpt lat="44.41859" lon="4.35598">
        <ele>123.8</ele>
        <time>2022-06-11T08:05:27Z</time>
      </trkpt>
      <trkpt lat="44.41858" lon="4.35604">
        <ele>123.8</ele>
        <time>2022-06-11T08:05:28Z</time>
      </trkpt>
      <trkpt lat="44.41858" lon="4.3561">
        <ele>123.8</ele>
        <time>2022-06-11T08:05:29Z</time>
      </trkpt>
      <trkpt lat="44.41857" lon="4.35615">
        <ele>123.8</ele>
        <time>2022-06-11T08:05:30Z</time>
      </trkpt>
      <trkpt lat="44.41857" lon="4.35622">
        <ele>123.8</ele>
        <time>2022-06-11T08:05:31Z</time>
      </trkpt>
      <trkpt lat="44.41856" lon="4.35628">
        <ele>123.8</ele>
        <time>2022-06-11T08:05:32Z</time>
      </trkpt>
      <trkpt lat="44.41856" lon="4.35634">
        <ele>123.8</ele>
        <time>2022-06-11T08:05:33Z</time>
      </trkpt>
      <trkpt lat="44.41855" lon="4.35642">
        <ele>123.8</ele>
        <time>2022-06-11T08:05:34Z</time>
      </trkpt>
      <trkpt lat="44.41855" lon="4.35649">
        <ele>123.8</ele>
        <time>2022-06-11T08:05:35Z</time>
      </trkpt>
      <trkpt lat="44.41854" lon="4.35655">
        <ele>123.8</ele>
        <time>2022-06-11T08:05:36Z</time>
      </trkpt>
      <trkpt lat="44.41853" lon="4.35661">
        <ele>123.8</ele>
        <time>2022-06-11T08:05:37Z</time>
      </trkpt>
      <trkpt lat="44.41853" lon="4.35667">
        <ele>123.8</ele>
        <time>2022-06-11T08:05:38Z</time>
      </trkpt>
      <trkpt lat="44.41852" lon="4.35674">
        <ele>123.7</ele>
        <time>2022-06-11T08:05:39Z</time>
      </trkpt>
      <trkpt lat="44.41851" lon="4.35681">
        <ele>123.7</ele>
        <time>2022-06-11T08:05:40Z</time>
      </trkpt>
      <trkpt lat="44.41851" lon="4.35688">
        <ele>123.7</ele>
        <time>2022-06-11T08:05:41Z</time>
      </trkpt>
      <trkpt lat="44.4185" lon="4.35694">
        <ele>123.7</ele>
        <time>2022-06-11T08:05:42Z</time>
      </trkpt>
      <trkpt lat="44.41849" lon="4.35701">
        <ele>123.6</ele>
        <time>2022-06-11T08:05:43Z</time>
      </trkpt>
      <trkpt lat="44.41849" lon="4.35708">
        <ele>123.6</ele>
        <time>2022-06-11T08:05:44Z</time>
      </trkpt>
      <trkpt lat="44.41848" lon="4.35715">
        <ele>123.6</ele>
        <time>2022-06-11T08:05:45Z</time>
      </trkpt>
      <trkpt lat="44.41847" lon="4.35722">
        <ele>123.6</ele>
        <time>2022-06-11T08:05:46Z</time>
      </trkpt>
      <trkpt lat="44.41846" lon="4.35729">
        <ele>123.5</ele>
        <time>2022-06-11T08:05:47Z</time>
      </trkpt>
      <trkpt lat="44.41846" lon="4.35735">
        <ele>123.5</ele>
        <time>2022-06-11T08:05:48Z</time>
      </trkpt>
      <trkpt lat="44.41845" lon="4.35742">
        <ele>123.5</ele>
        <time>2022-06-11T08:05:49Z</time>
      </trkpt>
      <trkpt lat="44.41844" lon="4.35749">
        <ele>123.5</ele>
        <time>2022-06-11T08:05:50Z</time>
      </trkpt>
      <trkpt lat="44.41844" lon="4.35756">
        <ele>123.5</ele>
        <time>2022-06-11T08:05:51Z</time>
      </trkpt>
      <trkpt lat="44.41843" lon="4.35763">
        <ele>123.4</ele>
        <time>2022-06-11T08:05:52Z</time>
      </trkpt>
      <trkpt lat="44.41842" lon="4.3577">
        <ele>123.4</ele>
        <time>2022-06-11T08:05:53Z</time>
      </trkpt>
      <trkpt lat="44.41842" lon="4.35777">
        <ele>123.4</ele>
        <time>2022-06-11T08:05:54Z</time>
      </trkpt>
      <trkpt lat="44.41841" lon="4.35785">
        <ele>123.3</ele>
        <time>2022-06-11T08:05:55Z</time>
      </trkpt>
      <trkpt lat="44.4184" lon="4.35792">
        <ele>123.2</ele>
        <time>2022-06-11T08:05:56Z</time>
      </trkpt>
      <trkpt lat="44.41839" lon="4.35799">
        <ele>123.1</ele>
        <time>2022-06-11T08:05:57Z</time>
      </trkpt>
      <trkpt lat="44.41838" lon="4.35806">
        <ele>123</ele>
        <time>2022-06-11T08:05:58Z</time>
      </trkpt>
      <trkpt lat="44.41838" lon="4.35814">
        <ele>123</ele>
        <time>2022-06-11T08:05:59Z</time>
      </trkpt>
      <trkpt lat="44.41837" lon="4.35821">
        <ele>122.9</ele>
        <time>2022-06-11T08:06:00Z</time>
      </trkpt>
      <trkpt lat="44.41836" lon="4.35828">
        <ele>122.8</ele>
        <time>2022-06-11T08:06:01Z</time>
      </trkpt>
      <trkpt lat="44.41836" lon="4.35835">
        <ele>122.7</ele>
        <time>2022-06-11T08:06:02Z</time>
      </trkpt>
      <trkpt lat="44.41835" lon="4.35843">
        <ele>122.6</ele>
        <time>2022-06-11T08:06:03Z</time>
      </trkpt>
      <trkpt lat="44.41834" lon="4.35851">
        <ele>122.5</ele>
        <time>2022-06-11T08:06:04Z</time>
      </trkpt>
      <trkpt lat="44.41834" lon="4.35859">
        <ele>122.4</ele>
        <time>2022-06-11T08:06:05Z</time>
      </trkpt>
      <trkpt lat="44.41833" lon="4.35866">
        <ele>122.3</ele>
        <time>2022-06-11T08:06:06Z</time>
      </trkpt>
      <trkpt lat="44.41832" lon="4.35874">
        <ele>122.2</ele>
        <time>2022-06-11T08:06:07Z</time>
      </trkpt>
      <trkpt lat="44.41831" lon="4.35882">
        <ele>122.1</ele>
        <time>2022-06-11T08:06:08Z</time>
      </trkpt>
      <trkpt lat="44.4183" lon="4.3589">
        <ele>122</ele>
        <time>2022-06-11T08:06:09Z</time>
      </trkpt>
      <trkpt lat="44.4183" lon="4.35898">
        <ele>121.9</ele>
        <time>2022-06-11T08:06:10Z</time>
      </trkpt>
      <trkpt lat="44.41829" lon="4.35907">
        <ele>121.8</ele>
        <time>2022-06-11T08:06:11Z</time>
      </trkpt>
      <trkpt lat="44.41828" lon="4.35915">
        <ele>121.8</ele>
        <time>2022-06-11T08:06:12Z</time>
      </trkpt>
      <trkpt lat="44.41827" lon="4.35923">
        <ele>121.7</ele>
        <time>2022-06-11T08:06:13Z</time>
      </trkpt>
      <trkpt lat="44.41826" lon="4.35932">
        <ele>121.6</ele>
        <time>2022-06-11T08:06:14Z</time>
      </trkpt>
      <trkpt lat="44.41826" lon="4.3594">
        <ele>121.5</ele>
        <time>2022-06-11T08:06:15Z</time>
      </trkpt>
      <trkpt lat="44.41825" lon="4.35949">
        <ele>121.5</ele>
        <time>2022-06-11T08:06:16Z</time>
      </trkpt>
      <trkpt lat="44.41824" lon="4.35957">
        <ele>121.4</ele>
        <time>2022-06-11T08:06:17Z</time>
      </trkpt>
      <trkpt lat="44.41823" lon="4.35966">
        <ele>121.3</ele>
        <time>2022-06-11T08:06:18Z</time>
      </trkpt>
      <trkpt lat="44.41822" lon="4.35975">
        <ele>121.2</ele>
        <time>2022-06-11T08:06:19Z</time>
      </trkpt>
      <trkpt lat="44.41822" lon="4.35983">
        <ele>121.1</ele>
        <time>2022-06-11T08:06:20Z</time>
      </trkpt>
      <trkpt lat="44.41821" lon="4.35992">
        <ele>121</ele>
        <time>2022-06-11T08:06:21Z</time>
      </trkpt>
      <trkpt lat="44.4182" lon="4.36001">
        <ele>120.9</ele>
        <time>2022-06-11T08:06:22Z</time>
      </trkpt>
      <trkpt lat="44.41819" lon="4.36009">
        <ele>120.8</ele>
        <time>2022-06-11T08:06:23Z</time>
      </trkpt>
      <trkpt lat="44.41818" lon="4.36017">
        <ele>120.7</ele>
        <time>2022-06-11T08:06:24Z</time>
      </trkpt>
      <trkpt lat="44.41817" lon="4.36025">
        <ele>120.6</ele>
        <time>2022-06-11T08:06:25Z</time>
      </trkpt>
      <trkpt lat="44.41816" lon="4.36033">
        <ele>120.5</ele>
        <time>2022-06-11T08:06:26Z</time>
      </trkpt>
      <trkpt lat="44.41814" lon="4.36041">
        <ele>120.4</ele>
        <time>2022-06-11T08:06:27Z</time>
      </trkpt>
      <trkpt lat="44.41812" lon="4.3605">
        <ele>120.3</ele>
        <time>2022-06-11T08:06:28Z</time>
      </trkpt>
      <trkpt lat="44.4181" lon="4.36058">
        <ele>120.2</ele>
        <time>2022-06-11T08:06:29Z</time>
      </trkpt>
      <trkpt lat="44.41809" lon="4.36067">
        <ele>120.1</ele>
        <time>2022-06-11T08:06:30Z</time>
      </trkpt>
      <trkpt lat="44.41807" lon="4.36075">
        <ele>119.9</ele>
        <time>2022-06-11T08:06:31Z</time>
      </trkpt>
      <trkpt lat="44.41805" lon="4.36083">
        <ele>119.8</ele>
        <time>2022-06-11T08:06:32Z</time>
      </trkpt>
      <trkpt lat="44.41803" lon="4.36092">
        <ele>119.7</ele>
        <time>2022-06-11T08:06:33Z</time>
      </trkpt>
      <trkpt lat="44.41801" lon="4.361">
        <ele>119.5</ele>
        <time>2022-06-11T08:06:34Z</time>
      </trkpt>
      <trkpt lat="44.41798" lon="4.36108">
        <ele>119.4</ele>
        <time>2022-06-11T08:06:35Z</time>
      </trkpt>
      <trkpt lat="44.41796" lon="4.36116">
        <ele>119.3</ele>
        <time>2022-06-11T08:06:36Z</time>
      </trkpt>
      <trkpt lat="44.41794" lon="4.36124">
        <ele>119.2</ele>
        <time>2022-06-11T08:06:37Z</time>
      </trkpt>
      <trkpt lat="44.41791" lon="4.36132">
        <ele>119.1</ele>
        <time>2022-06-11T08:06:38Z</time>
      </trkpt>
      <trkpt lat="44.41788" lon="4.3614">
        <ele>119</ele>
        <time>2022-06-11T08:06:39Z</time>
      </trkpt>
      <trkpt lat="44.41786" lon="4.36147">
        <ele>118.9</ele>
        <time>2022-06-11T08:06:40Z</time>
      </trkpt>
      <trkpt lat="44.41783" lon="4.36155">
        <ele>118.8</ele>
        <time>2022-06-11T08:06:41Z</time>
      </trkpt>
      <trkpt lat="44.4178" lon="4.36162">
        <ele>118.7</ele>
        <time>2022-06-11T08:06:42Z</time>
      </trkpt>
      <trkpt lat="44.41777" lon="4.36169">
        <ele>118.7</ele>
        <time>2022-06-11T08:06:43Z</time>
      </trkpt>
      <trkpt lat="44.41775" lon="4.36176">
        <ele>118.6</ele>
        <time>2022-06-11T08:06:44Z</time>
      </trkpt>
      <trkpt lat="44.41771" lon="4.36184">
        <ele>118.5</ele>
        <time>2022-06-11T08:06:45Z</time>
      </trkpt>
      <trkpt lat="44.41768" lon="4.36191">
        <ele>118.4</ele>
        <time>2022-06-11T08:06:46Z</time>
      </trkpt>
      <trkpt lat="44.41764" lon="4.36199">
        <ele>118.2</ele>
        <time>2022-06-11T08:06:47Z</time>
      </trkpt>
      <trkpt lat="44.41761" lon="4.36206">
        <ele>118.1</ele>
        <time>2022-06-11T08:06:48Z</time>
      </trkpt>
      <trkpt lat="44.41758" lon="4.36214">
        <ele>118</ele>
        <time>2022-06-11T08:06:49Z</time>
      </trkpt>
      <trkpt lat="44.41755" lon="4.36221">
        <ele>117.9</ele>
        <time>2022-06-11T08:06:50Z</time>
      </trkpt>
      <trkpt lat="44.41751" lon="4.36229">
        <ele>117.8</ele>
        <time>2022-06-11T08:06:51Z</time>
      </trkpt>
      <trkpt lat="44.41749" lon="4.36237">
        <ele>117.7</ele>
        <time>2022-06-11T08:06:52Z</time>
      </trkpt>
      <trkpt lat="44.41746" lon="4.36245">
        <ele>117.6</ele>
        <time>2022-06-11T08:06:53Z</time>
      </trkpt>
      <trkpt lat="44.41743" lon="4.36253">
        <ele>117.5</ele>
        <time>2022-06-11T08:06:54Z</time>
      </trkpt>
      <trkpt lat="44.41739" lon="4.36261">
        <ele>117.4</ele>
        <time>2022-06-11T08:06:55Z</time>
      </trkpt>
      <trkpt lat="44.41736" lon="4.36269">
        <ele>117.3</ele>
        <time>2022-06-11T08:06:56Z</time>
      </trkpt>
      <trkpt lat="44.41733" lon="4.36277">
        <ele>117.2</ele>
        <time>2022-06-11T08:06:57Z</time>
      </trkpt>
      <trkpt lat="44.4173" lon="4.36285">
        <ele>117.1</ele>
        <time>2022-06-11T08:06:58Z</time>
      </trkpt>
      <trkpt lat="44.41727" lon="4.36293">
        <ele>117</ele>
        <time>2022-06-11T08:06:59Z</time>
      </trkpt>
      <trkpt lat="44.41724" lon="4.36301">
        <ele>116.9</ele>
        <time>2022-06-11T08:07:00Z</time>
      </trkpt>
      <trkpt lat="44.4172" lon="4.36309">
        <ele>116.8</ele>
        <time>2022-06-11T08:07:01Z</time>
      </trkpt>
      <trkpt lat="44.41717" lon="4.36317">
        <ele>116.8</ele>
        <time>2022-06-11T08:07:02Z</time>
      </trkpt>
      <trkpt lat="44.41713" lon="4.36325">
        <ele>116.7</ele>
        <time>2022-06-11T08:07:03Z</time>
      </trkpt>
      <trkpt lat="44.4171" lon="4.36333">
        <ele>116.6</ele>
        <time>2022-06-11T08:07:04Z</time>
      </trkpt>
      <trkpt lat="44.41706" lon="4.36341">
        <ele>116.5</ele>
        <time>2022-06-11T08:07:05Z</time>
      </trkpt>
      <trkpt lat="44.41702" lon="4.36348">
        <ele>116.5</ele>
        <time>2022-06-11T08:07:06Z</time>
      </trkpt>
      <trkpt lat="44.41697" lon="4.36354">
        <ele>116.5</ele>
        <time>2022-06-11T08:07:07Z</time>
      </trkpt>
      <trkpt lat="44.41691" lon="4.3636">
        <ele>116.5</ele>
        <time>2022-06-11T08:07:08Z</time>
      </trkpt>
      <trkpt lat="44.41687" lon="4.36368">
        <ele>116.4</ele>
        <time>2022-06-11T08:07:09Z</time>
      </trkpt>
      <trkpt lat="44.41685" lon="4.36376">
        <ele>116.3</ele>
        <time>2022-06-11T08:07:10Z</time>
      </trkpt>
      <trkpt lat="44.41684" lon="4.36386">
        <ele>116.3</ele>
        <time>2022-06-11T08:07:11Z</time>
      </trkpt>
      <trkpt lat="44.41682" lon="4.36394">
        <ele>116.2</ele>
        <time>2022-06-11T08:07:12Z</time>
      </trkpt>
      <trkpt lat="44.4168" lon="4.36403">
        <ele>116.1</ele>
        <time>2022-06-11T08:07:13Z</time>
      </trkpt>
      <trkpt lat="44.41677" lon="4.3641">
        <ele>115.9</ele>
        <time>2022-06-11T08:07:14Z</time>
      </trkpt>
      <trkpt lat="44.41674" lon="4.36418">
        <ele>115.8</ele>
        <time>2022-06-11T08:07:15Z</time>
      </trkpt>
      <trkpt lat="44.4167" lon="4.36426">
        <ele>115.7</ele>
        <time>2022-06-11T08:07:16Z</time>
      </trkpt>
      <trkpt lat="44.41668" lon="4.36434">
        <ele>115.6</ele>
        <time>2022-06-11T08:07:17Z</time>
      </trkpt>
      <trkpt lat="44.41665" lon="4.36442">
        <ele>115.5</ele>
        <time>2022-06-11T08:07:18Z</time>
      </trkpt>
      <trkpt lat="44.41662" lon="4.3645">
        <ele>115.4</ele>
        <time>2022-06-11T08:07:19Z</time>
      </trkpt>
      <trkpt lat="44.41658" lon="4.36458">
        <ele>115.3</ele>
        <time>2022-06-11T08:07:20Z</time>
      </trkpt>
      <trkpt lat="44.41655" lon="4.36465">
        <ele>115.2</ele>
        <time>2022-06-11T08:07:21Z</time>
      </trkpt>
      <trkpt lat="44.41652" lon="4.36473">
        <ele>115</ele>
        <time>2022-06-11T08:07:22Z</time>
      </trkpt>
      <trkpt lat="44.41649" lon="4.36481">
        <ele>114.9</ele>
        <time>2022-06-11T08:07:23Z</time>
      </trkpt>
      <trkpt lat="44.41646" lon="4.36489">
        <ele>114.8</ele>
        <time>2022-06-11T08:07:24Z</time>
      </trkpt>
      <trkpt lat="44.41643" lon="4.36497">
        <ele>114.7</ele>
        <time>2022-06-11T08:07:25Z</time>
      </trkpt>
      <trkpt lat="44.4164" lon="4.36505">
        <ele>114.6</ele>
        <time>2022-06-11T08:07:26Z</time>
      </trkpt>
      <trkpt lat="44.41637" lon="4.36513">
        <ele>114.5</ele>
        <time>2022-06-11T08:07:27Z</time>
      </trkpt>
      <trkpt lat="44.41634" lon="4.36521">
        <ele>114.4</ele>
        <time>2022-06-11T08:07:28Z</time>
      </trkpt>
      <trkpt lat="44.41631" lon="4.36529">
        <ele>114.3</ele>
        <time>2022-06-11T08:07:29Z</time>
      </trkpt>
      <trkpt lat="44.41628" lon="4.36536">
        <ele>114.2</ele>
        <time>2022-06-11T08:07:30Z</time>
      </trkpt>
      <trkpt lat="44.41625" lon="4.36544">
        <ele>114.2</ele>
        <time>2022-06-11T08:07:31Z</time>
      </trkpt>
      <trkpt lat="44.41622" lon="4.36552">
        <ele>114.1</ele>
        <time>2022-06-11T08:07:32Z</time>
      </trkpt>
      <trkpt lat="44.41619" lon="4.36559">
        <ele>114</ele>
        <time>2022-06-11T08:07:33Z</time>
      </trkpt>
      <trkpt lat="44.41616" lon="4.36567">
        <ele>113.9</ele>
        <time>2022-06-11T08:07:34Z</time>
      </trkpt>
      <trkpt lat="44.41613" lon="4.36575">
        <ele>113.8</ele>
        <time>2022-06-11T08:07:35Z</time>
      </trkpt>
      <trkpt lat="44.4161" lon="4.36582">
        <ele>113.7</ele>
        <time>2022-06-11T08:07:36Z</time>
      </trkpt>
      <trkpt lat="44.41607" lon="4.3659">
        <ele>113.6</ele>
        <time>2022-06-11T08:07:37Z</time>
      </trkpt>
      <trkpt lat="44.41604" lon="4.36597">
        <ele>113.5</ele>
        <time>2022-06-11T08:07:38Z</time>
      </trkpt>
      <trkpt lat="44.41601" lon="4.36604">
        <ele>113.4</ele>
        <time>2022-06-11T08:07:39Z</time>
      </trkpt>
      <trkpt lat="44.41598" lon="4.36611">
        <ele>113.3</ele>
        <time>2022-06-11T08:07:40Z</time>
      </trkpt>
      <trkpt lat="44.41595" lon="4.36619">
        <ele>113.3</ele>
        <time>2022-06-11T08:07:41Z</time>
      </trkpt>
      <trkpt lat="44.41593" lon="4.36626">
        <ele>113.2</ele>
        <time>2022-06-11T08:07:42Z</time>
      </trkpt>
      <trkpt lat="44.4159" lon="4.36633">
        <ele>113.1</ele>
        <time>2022-06-11T08:07:43Z</time>
      </trkpt>
      <trkpt lat="44.41587" lon="4.36641">
        <ele>113</ele>
        <time>2022-06-11T08:07:44Z</time>
      </trkpt>
      <trkpt lat="44.41584" lon="4.36648">
        <ele>112.9</ele>
        <time>2022-06-11T08:07:45Z</time>
      </trkpt>
      <trkpt lat="44.41581" lon="4.36656">
        <ele>112.8</ele>
        <time>2022-06-11T08:07:46Z</time>
      </trkpt>
      <trkpt lat="44.41579" lon="4.36663">
        <ele>112.7</ele>
        <time>2022-06-11T08:07:47Z</time>
      </trkpt>
      <trkpt lat="44.41576" lon="4.36671">
        <ele>112.6</ele>
        <time>2022-06-11T08:07:48Z</time>
      </trkpt>
      <trkpt lat="44.41573" lon="4.36679">
        <ele>112.5</ele>
        <time>2022-06-11T08:07:49Z</time>
      </trkpt>
      <trkpt lat="44.41569" lon="4.36687">
        <ele>112.4</ele>
        <time>2022-06-11T08:07:50Z</time>
      </trkpt>
      <trkpt lat="44.41566" lon="4.36694">
        <ele>112.3</ele>
        <time>2022-06-11T08:07:51Z</time>
      </trkpt>
      <trkpt lat="44.41563" lon="4.36702">
        <ele>112.2</ele>
        <time>2022-06-11T08:07:52Z</time>
      </trkpt>
      <trkpt lat="44.41561" lon="4.3671">
        <ele>112.1</ele>
        <time>2022-06-11T08:07:53Z</time>
      </trkpt>
      <trkpt lat="44.41558" lon="4.36717">
        <ele>112.1</ele>
        <time>2022-06-11T08:07:54Z</time>
      </trkpt>
      <trkpt lat="44.41555" lon="4.36725">
        <ele>112</ele>
        <time>2022-06-11T08:07:55Z</time>
      </trkpt>
      <trkpt lat="44.41552" lon="4.36732">
        <ele>111.9</ele>
        <time>2022-06-11T08:07:56Z</time>
      </trkpt>
      <trkpt lat="44.41549" lon="4.3674">
        <ele>111.8</ele>
        <time>2022-06-11T08:07:57Z</time>
      </trkpt>
      <trkpt lat="44.41546" lon="4.36748">
        <ele>111.7</ele>
        <time>2022-06-11T08:07:58Z</time>
      </trkpt>
      <trkpt lat="44.41543" lon="4.36756">
        <ele>111.6</ele>
        <time>2022-06-11T08:07:59Z</time>
      </trkpt>
      <trkpt lat="44.4154" lon="4.36763">
        <ele>111.5</ele>
        <time>2022-06-11T08:08:00Z</time>
      </trkpt>
      <trkpt lat="44.41537" lon="4.36771">
        <ele>111.4</ele>
        <time>2022-06-11T08:08:01Z</time>
      </trkpt>
      <trkpt lat="44.41535" lon="4.36778">
        <ele>111.3</ele>
        <time>2022-06-11T08:08:02Z</time>
      </trkpt>
      <trkpt lat="44.41531" lon="4.36785">
        <ele>111.2</ele>
        <time>2022-06-11T08:08:03Z</time>
      </trkpt>
      <trkpt lat="44.41529" lon="4.36792">
        <ele>111.2</ele>
        <time>2022-06-11T08:08:04Z</time>
      </trkpt>
      <trkpt lat="44.41526" lon="4.368">
        <ele>111.1</ele>
        <time>2022-06-11T08:08:05Z</time>
      </trkpt>
      <trkpt lat="44.41523" lon="4.36807">
        <ele>111</ele>
        <time>2022-06-11T08:08:06Z</time>
      </trkpt>
      <trkpt lat="44.4152" lon="4.36814">
        <ele>110.9</ele>
        <time>2022-06-11T08:08:07Z</time>
      </trkpt>
      <trkpt lat="44.41517" lon="4.36822">
        <ele>110.8</ele>
        <time>2022-06-11T08:08:08Z</time>
      </trkpt>
      <trkpt lat="44.41514" lon="4.36829">
        <ele>110.7</ele>
        <time>2022-06-11T08:08:09Z</time>
      </trkpt>
      <trkpt lat="44.41512" lon="4.36837">
        <ele>110.6</ele>
        <time>2022-06-11T08:08:10Z</time>
      </trkpt>
      <trkpt lat="44.41509" lon="4.36845">
        <ele>110.5</ele>
        <time>2022-06-11T08:08:11Z</time>
      </trkpt>
      <trkpt lat="44.41505" lon="4.36852">
        <ele>110.4</ele>
        <time>2022-06-11T08:08:12Z</time>
      </trkpt>
      <trkpt lat="44.41502" lon="4.3686">
        <ele>110.3</ele>
        <time>2022-06-11T08:08:13Z</time>
      </trkpt>
      <trkpt lat="44.41499" lon="4.36868">
        <ele>110.2</ele>
        <time>2022-06-11T08:08:14Z</time>
      </trkpt>
      <trkpt lat="44.41497" lon="4.36875">
        <ele>110.1</ele>
        <time>2022-06-11T08:08:15Z</time>
      </trkpt>
      <trkpt lat="44.41494" lon="4.36882">
        <ele>110</ele>
        <time>2022-06-11T08:08:16Z</time>
      </trkpt>
      <trkpt lat="44.41491" lon="4.36889">
        <ele>109.9</ele>
        <time>2022-06-11T08:08:17Z</time>
      </trkpt>
      <trkpt lat="44.41488" lon="4.36897">
        <ele>109.8</ele>
        <time>2022-06-11T08:08:18Z</time>
      </trkpt>
      <trkpt lat="44.41485" lon="4.36904">
        <ele>109.7</ele>
        <time>2022-06-11T08:08:19Z</time>
      </trkpt>
      <trkpt lat="44.41482" lon="4.36912">
        <ele>109.6</ele>
        <time>2022-06-11T08:08:20Z</time>
      </trkpt>
      <trkpt lat="44.4148" lon="4.36919">
        <ele>109.5</ele>
        <time>2022-06-11T08:08:21Z</time>
      </trkpt>
      <trkpt lat="44.41477" lon="4.36926">
        <ele>109.5</ele>
        <time>2022-06-11T08:08:22Z</time>
      </trkpt>
      <trkpt lat="44.41474" lon="4.36933">
        <ele>109.4</ele>
        <time>2022-06-11T08:08:23Z</time>
      </trkpt>
      <trkpt lat="44.41471" lon="4.36941">
        <ele>109.3</ele>
        <time>2022-06-11T08:08:24Z</time>
      </trkpt>
      <trkpt lat="44.41468" lon="4.36948">
        <ele>109.2</ele>
        <time>2022-06-11T08:08:25Z</time>
      </trkpt>
      <trkpt lat="44.41465" lon="4.36955">
        <ele>109.1</ele>
        <time>2022-06-11T08:08:26Z</time>
      </trkpt>
      <trkpt lat="44.41462" lon="4.36962">
        <ele>109</ele>
        <time>2022-06-11T08:08:27Z</time>
      </trkpt>
      <trkpt lat="44.41459" lon="4.36969">
        <ele>108.9</ele>
        <time>2022-06-11T08:08:28Z</time>
      </trkpt>
      <trkpt lat="44.41456" lon="4.36977">
        <ele>108.8</ele>
        <time>2022-06-11T08:08:29Z</time>
      </trkpt>
      <trkpt lat="44.41453" lon="4.36984">
        <ele>108.7</ele>
        <time>2022-06-11T08:08:30Z</time>
      </trkpt>
      <trkpt lat="44.4145" lon="4.36992">
        <ele>108.6</ele>
        <time>2022-06-11T08:08:31Z</time>
      </trkpt>
      <trkpt lat="44.41447" lon="4.37">
        <ele>108.5</ele>
        <time>2022-06-11T08:08:32Z</time>
      </trkpt>
      <trkpt lat="44.41444" lon="4.37007">
        <ele>108.4</ele>
        <time>2022-06-11T08:08:33Z</time>
      </trkpt>
      <trkpt lat="44.41441" lon="4.37015">
        <ele>108.4</ele>
        <time>2022-06-11T08:08:34Z</time>
      </trkpt>
      <trkpt lat="44.41438" lon="4.37023">
        <ele>108.3</ele>
        <time>2022-06-11T08:08:35Z</time>
      </trkpt>
      <trkpt lat="44.41435" lon="4.3703">
        <ele>108.2</ele>
        <time>2022-06-11T08:08:36Z</time>
      </trkpt>
      <trkpt lat="44.41432" lon="4.37038">
        <ele>108.1</ele>
        <time>2022-06-11T08:08:37Z</time>
      </trkpt>
      <trkpt lat="44.4143" lon="4.37046">
        <ele>108</ele>
        <time>2022-06-11T08:08:38Z</time>
      </trkpt>
      <trkpt lat="44.41427" lon="4.37053">
        <ele>107.9</ele>
        <time>2022-06-11T08:08:39Z</time>
      </trkpt>
      <trkpt lat="44.41424" lon="4.37061">
        <ele>107.8</ele>
        <time>2022-06-11T08:08:40Z</time>
      </trkpt>
      <trkpt lat="44.4142" lon="4.37068">
        <ele>107.7</ele>
        <time>2022-06-11T08:08:41Z</time>
      </trkpt>
      <trkpt lat="44.41417" lon="4.37076">
        <ele>107.6</ele>
        <time>2022-06-11T08:08:42Z</time>
      </trkpt>
      <trkpt lat="44.41415" lon="4.37084">
        <ele>107.5</ele>
        <time>2022-06-11T08:08:43Z</time>
      </trkpt>
      <trkpt lat="44.41412" lon="4.37092">
        <ele>107.4</ele>
        <time>2022-06-11T08:08:44Z</time>
      </trkpt>
      <trkpt lat="44.41409" lon="4.371">
        <ele>107.3</ele>
        <time>2022-06-11T08:08:45Z</time>
      </trkpt>
      <trkpt lat="44.41407" lon="4.37108">
        <ele>107.2</ele>
        <time>2022-06-11T08:08:46Z</time>
      </trkpt>
      <trkpt lat="44.41404" lon="4.37116">
        <ele>107.1</ele>
        <time>2022-06-11T08:08:47Z</time>
      </trkpt>
      <trkpt lat="44.414" lon="4.37124">
        <ele>107</ele>
        <time>2022-06-11T08:08:48Z</time>
      </trkpt>
      <trkpt lat="44.41396" lon="4.37131">
        <ele>107</ele>
        <time>2022-06-11T08:08:49Z</time>
      </trkpt>
      <trkpt lat="44.41393" lon="4.37139">
        <ele>107.1</ele>
        <time>2022-06-11T08:08:50Z</time>
      </trkpt>
      <trkpt lat="44.41389" lon="4.37146">
        <ele>107.1</ele>
        <time>2022-06-11T08:08:51Z</time>
      </trkpt>
      <trkpt lat="44.41386" lon="4.37154">
        <ele>107</ele>
        <time>2022-06-11T08:08:52Z</time>
      </trkpt>
      <trkpt lat="44.41384" lon="4.37163">
        <ele>106.9</ele>
        <time>2022-06-11T08:08:53Z</time>
      </trkpt>
      <trkpt lat="44.41381" lon="4.37171">
        <ele>106.8</ele>
        <time>2022-06-11T08:08:54Z</time>
      </trkpt>
      <trkpt lat="44.41378" lon="4.3718">
        <ele>106.6</ele>
        <time>2022-06-11T08:08:55Z</time>
      </trkpt>
      <trkpt lat="44.41375" lon="4.37188">
        <ele>106.4</ele>
        <time>2022-06-11T08:08:56Z</time>
      </trkpt>
      <trkpt lat="44.41371" lon="4.37197">
        <ele>106.3</ele>
        <time>2022-06-11T08:08:57Z</time>
      </trkpt>
      <trkpt lat="44.41368" lon="4.37206">
        <ele>106.1</ele>
        <time>2022-06-11T08:08:58Z</time>
      </trkpt>
      <trkpt lat="44.41365" lon="4.37215">
        <ele>106</ele>
        <time>2022-06-11T08:08:59Z</time>
      </trkpt>
      <trkpt lat="44.41361" lon="4.37224">
        <ele>105.9</ele>
        <time>2022-06-11T08:09:00Z</time>
      </trkpt>
      <trkpt lat="44.41358" lon="4.37233">
        <ele>105.7</ele>
        <time>2022-06-11T08:09:01Z</time>
      </trkpt>
      <trkpt lat="44.41354" lon="4.37242">
        <ele>105.6</ele>
        <time>2022-06-11T08:09:02Z</time>
      </trkpt>
      <trkpt lat="44.41351" lon="4.37252">
        <ele>105.5</ele>
        <time>2022-06-11T08:09:03Z</time>
      </trkpt>
      <trkpt lat="44.41347" lon="4.3726">
        <ele>105.4</ele>
        <time>2022-06-11T08:09:04Z</time>
      </trkpt>
      <trkpt lat="44.41344" lon="4.3727">
        <ele>105.2</ele>
        <time>2022-06-11T08:09:05Z</time>
      </trkpt>
      <trkpt lat="44.41341" lon="4.37279">
        <ele>105.1</ele>
        <time>2022-06-11T08:09:06Z</time>
      </trkpt>
      <trkpt lat="44.41337" lon="4.37288">
        <ele>104.9</ele>
        <time>2022-06-11T08:09:07Z</time>
      </trkpt>
      <trkpt lat="44.41334" lon="4.37297">
        <ele>104.8</ele>
        <time>2022-06-11T08:09:08Z</time>
      </trkpt>
      <trkpt lat="44.4133" lon="4.37306">
        <ele>104.7</ele>
        <time>2022-06-11T08:09:09Z</time>
      </trkpt>
      <trkpt lat="44.41326" lon="4.37315">
        <ele>104.6</ele>
        <time>2022-06-11T08:09:10Z</time>
      </trkpt>
      <trkpt lat="44.41323" lon="4.37324">
        <ele>104.5</ele>
        <time>2022-06-11T08:09:11Z</time>
      </trkpt>
      <trkpt lat="44.41319" lon="4.37333">
        <ele>104.4</ele>
        <time>2022-06-11T08:09:12Z</time>
      </trkpt>
      <trkpt lat="44.41316" lon="4.37342">
        <ele>104.3</ele>
        <time>2022-06-11T08:09:13Z</time>
      </trkpt>
      <trkpt lat="44.41313" lon="4.3735">
        <ele>104.2</ele>
        <time>2022-06-11T08:09:14Z</time>
      </trkpt>
      <trkpt lat="44.41309" lon="4.37359">
        <ele>104.1</ele>
        <time>2022-06-11T08:09:15Z</time>
      </trkpt>
      <trkpt lat="44.41306" lon="4.37367">
        <ele>104</ele>
        <time>2022-06-11T08:09:16Z</time>
      </trkpt>
      <trkpt lat="44.41303" lon="4.37375">
        <ele>103.9</ele>
        <time>2022-06-11T08:09:17Z</time>
      </trkpt>
      <trkpt lat="44.413" lon="4.37383">
        <ele>103.9</ele>
        <time>2022-06-11T08:09:18Z</time>
      </trkpt>
      <trkpt lat="44.41297" lon="4.37391">
        <ele>103.8</ele>
        <time>2022-06-11T08:09:19Z</time>
      </trkpt>
      <trkpt lat="44.41294" lon="4.37398">
        <ele>103.7</ele>
        <time>2022-06-11T08:09:20Z</time>
      </trkpt>
      <trkpt lat="44.41291" lon="4.37407">
        <ele>103.7</ele>
        <time>2022-06-11T08:09:21Z</time>
      </trkpt>
      <trkpt lat="44.41287" lon="4.37415">
        <ele>103.6</ele>
        <time>2022-06-11T08:09:22Z</time>
      </trkpt>
      <trkpt lat="44.41284" lon="4.37423">
        <ele>103.5</ele>
        <time>2022-06-11T08:09:23Z</time>
      </trkpt>
      <trkpt lat="44.41281" lon="4.37431">
        <ele>103.4</ele>
        <time>2022-06-11T08:09:24Z</time>
      </trkpt>
      <trkpt lat="44.41278" lon="4.37438">
        <ele>103.3</ele>
        <time>2022-06-11T08:09:25Z</time>
      </trkpt>
      <trkpt lat="44.41275" lon="4.37446">
        <ele>103.1</ele>
        <time>2022-06-11T08:09:26Z</time>
      </trkpt>
      <trkpt lat="44.41272" lon="4.37454">
        <ele>103</ele>
        <time>2022-06-11T08:09:27Z</time>
      </trkpt>
      <trkpt lat="44.41269" lon="4.37463">
        <ele>102.9</ele>
        <time>2022-06-11T08:09:28Z</time>
      </trkpt>
      <trkpt lat="44.41266" lon="4.37471">
        <ele>102.8</ele>
        <time>2022-06-11T08:09:29Z</time>
      </trkpt>
      <trkpt lat="44.41263" lon="4.37479">
        <ele>102.7</ele>
        <time>2022-06-11T08:09:30Z</time>
      </trkpt>
      <trkpt lat="44.41259" lon="4.37487">
        <ele>102.6</ele>
        <time>2022-06-11T08:09:31Z</time>
      </trkpt>
      <trkpt lat="44.41256" lon="4.37495">
        <ele>102.5</ele>
        <time>2022-06-11T08:09:32Z</time>
      </trkpt>
      <trkpt lat="44.41253" lon="4.37503">
        <ele>102.4</ele>
        <time>2022-06-11T08:09:33Z</time>
      </trkpt>
      <trkpt lat="44.4125" lon="4.37511">
        <ele>102.3</ele>
        <time>2022-06-11T08:09:34Z</time>
      </trkpt>
      <trkpt lat="44.41247" lon="4.3752">
        <ele>102.2</ele>
        <time>2022-06-11T08:09:35Z</time>
      </trkpt>
      <trkpt lat="44.41244" lon="4.37528">
        <ele>102.1</ele>
        <time>2022-06-11T08:09:36Z</time>
      </trkpt>
      <trkpt lat="44.41241" lon="4.37536">
        <ele>101.9</ele>
        <time>2022-06-11T08:09:37Z</time>
      </trkpt>
      <trkpt lat="44.41237" lon="4.37544">
        <ele>101.8</ele>
        <time>2022-06-11T08:09:38Z</time>
      </trkpt>
      <trkpt lat="44.41234" lon="4.37552">
        <ele>101.7</ele>
        <time>2022-06-11T08:09:39Z</time>
      </trkpt>
      <trkpt lat="44.41231" lon="4.37561">
        <ele>101.6</ele>
        <time>2022-06-11T08:09:40Z</time>
      </trkpt>
      <trkpt lat="44.41228" lon="4.37569">
        <ele>101.5</ele>
        <time>2022-06-11T08:09:41Z</time>
      </trkpt>
      <trkpt lat="44.41225" lon="4.37577">
        <ele>101.4</ele>
        <time>2022-06-11T08:09:42Z</time>
      </trkpt>
      <trkpt lat="44.41221" lon="4.37584">
        <ele>101.3</ele>
        <time>2022-06-11T08:09:43Z</time>
      </trkpt>
      <trkpt lat="44.41218" lon="4.37592">
        <ele>101.2</ele>
        <time>2022-06-11T08:09:44Z</time>
      </trkpt>
      <trkpt lat="44.41215" lon="4.376">
        <ele>101.1</ele>
        <time>2022-06-11T08:09:45Z</time>
      </trkpt>
      <trkpt lat="44.41212" lon="4.37608">
        <ele>101</ele>
        <time>2022-06-11T08:09:46Z</time>
      </trkpt>
      <trkpt lat="44.41209" lon="4.37616">
        <ele>100.9</ele>
        <time>2022-06-11T08:09:47Z</time>
      </trkpt>
      <trkpt lat="44.41206" lon="4.37624">
        <ele>100.8</ele>
        <time>2022-06-11T08:09:48Z</time>
      </trkpt>
      <trkpt lat="44.41203" lon="4.37632">
        <ele>100.8</ele>
        <time>2022-06-11T08:09:49Z</time>
      </trkpt>
      <trkpt lat="44.41199" lon="4.3764">
        <ele>100.7</ele>
        <time>2022-06-11T08:09:50Z</time>
      </trkpt>
      <trkpt lat="44.41197" lon="4.37648">
        <ele>100.6</ele>
        <time>2022-06-11T08:09:51Z</time>
      </trkpt>
      <trkpt lat="44.41194" lon="4.37655">
        <ele>100.6</ele>
        <time>2022-06-11T08:09:52Z</time>
      </trkpt>
      <trkpt lat="44.4119" lon="4.37664">
        <ele>100.5</ele>
        <time>2022-06-11T08:09:53Z</time>
      </trkpt>
      <trkpt lat="44.41187" lon="4.37671">
        <ele>100.5</ele>
        <time>2022-06-11T08:09:54Z</time>
      </trkpt>
      <trkpt lat="44.41185" lon="4.37679">
        <ele>100.4</ele>
        <time>2022-06-11T08:09:55Z</time>
      </trkpt>
      <trkpt lat="44.41182" lon="4.37687">
        <ele>100.4</ele>
        <time>2022-06-11T08:09:56Z</time>
      </trkpt>
      <trkpt lat="44.41179" lon="4.37695">
        <ele>100.3</ele>
        <time>2022-06-11T08:09:57Z</time>
      </trkpt>
      <trkpt lat="44.41175" lon="4.37703">
        <ele>100.3</ele>
        <time>2022-06-11T08:09:58Z</time>
      </trkpt>
      <trkpt lat="44.41172" lon="4.3771">
        <ele>100.3</ele>
        <time>2022-06-11T08:09:59Z</time>
      </trkpt>
      <trkpt lat="44.41167" lon="4.37717">
        <ele>100.2</ele>
        <time>2022-06-11T08:10:00Z</time>
      </trkpt>
      <trkpt lat="44.41162" lon="4.37722">
        <ele>100.1</ele>
        <time>2022-06-11T08:10:01Z</time>
      </trkpt>
      <trkpt lat="44.41157" lon="4.37728">
        <ele>100</ele>
        <time>2022-06-11T08:10:02Z</time>
      </trkpt>
      <trkpt lat="44.41152" lon="4.37734">
        <ele>100</ele>
        <time>2022-06-11T08:10:03Z</time>
      </trkpt>
      <trkpt lat="44.41149" lon="4.37741">
        <ele>99.9</ele>
        <time>2022-06-11T08:10:04Z</time>
      </trkpt>
      <trkpt lat="44.41146" lon="4.37749">
        <ele>99.8</ele>
        <time>2022-06-11T08:10:05Z</time>
      </trkpt>
      <trkpt lat="44.41145" lon="4.37757">
        <ele>99.7</ele>
        <time>2022-06-11T08:10:06Z</time>
      </trkpt>
      <trkpt lat="44.41145" lon="4.37766">
        <ele>99.6</ele>
        <time>2022-06-11T08:10:07Z</time>
      </trkpt>
      <trkpt lat="44.41143" lon="4.37773">
        <ele>99.5</ele>
        <time>2022-06-11T08:10:08Z</time>
      </trkpt>
      <trkpt lat="44.41141" lon="4.37779">
        <ele>99.5</ele>
        <time>2022-06-11T08:10:09Z</time>
      </trkpt>
      <trkpt lat="44.41139" lon="4.37786">
        <ele>99.4</ele>
        <time>2022-06-11T08:10:10Z</time>
      </trkpt>
      <trkpt lat="44.41139" lon="4.37791">
        <ele>99.3</ele>
        <time>2022-06-11T08:10:11Z</time>
      </trkpt>
      <trkpt lat="44.41138" lon="4.37797">
        <ele>99.3</ele>
        <time>2022-06-11T08:10:12Z</time>
      </trkpt>
      <trkpt lat="44.41137" lon="4.378">
        <ele>99.2</ele>
        <time>2022-06-11T08:10:13Z</time>
      </trkpt>
      <trkpt lat="44.41135" lon="4.37804">
        <ele>99.2</ele>
        <time>2022-06-11T08:10:14Z</time>
      </trkpt>
      <trkpt lat="44.41133" lon="4.3781">
        <ele>99.1</ele>
        <time>2022-06-11T08:10:15Z</time>
      </trkpt>
      <trkpt lat="44.41131" lon="4.37815">
        <ele>99.1</ele>
        <time>2022-06-11T08:10:16Z</time>
      </trkpt>
      <trkpt lat="44.41129" lon="4.37821">
        <ele>99.1</ele>
        <time>2022-06-11T08:10:17Z</time>
      </trkpt>
      <trkpt lat="44.41127" lon="4.37825">
        <ele>99</ele>
        <time>2022-06-11T08:10:18Z</time>
      </trkpt>
      <trkpt lat="44.41125" lon="4.37832">
        <ele>99</ele>
        <time>2022-06-11T08:10:19Z</time>
      </trkpt>
      <trkpt lat="44.41122" lon="4.37839">
        <ele>99</ele>
        <time>2022-06-11T08:10:20Z</time>
      </trkpt>
      <trkpt lat="44.41119" lon="4.37844">
        <ele>99</ele>
        <time>2022-06-11T08:10:21Z</time>
      </trkpt>
      <trkpt lat="44.41117" lon="4.3785">
        <ele>99</ele>
        <time>2022-06-11T08:10:22Z</time>
      </trkpt>
      <trkpt lat="44.41115" lon="4.37857">
        <ele>99</ele>
        <time>2022-06-11T08:10:23Z</time>
      </trkpt>
      <trkpt lat="44.41112" lon="4.37863">
        <ele>99</ele>
        <time>2022-06-11T08:10:24Z</time>
      </trkpt>
      <trkpt lat="44.4111" lon="4.3787">
        <ele>99</ele>
        <time>2022-06-11T08:10:25Z</time>
      </trkpt>
      <trkpt lat="44.41107" lon="4.37876">
        <ele>99</ele>
        <time>2022-06-11T08:10:26Z</time>
      </trkpt>
      <trkpt lat="44.41105" lon="4.37882">
        <ele>99</ele>
        <time>2022-06-11T08:10:27Z</time>
      </trkpt>
      <trkpt lat="44.41102" lon="4.37888">
        <ele>98.9</ele>
        <time>2022-06-11T08:10:28Z</time>
      </trkpt>
      <trkpt lat="44.411" lon="4.37894">
        <ele>98.9</ele>
        <time>2022-06-11T08:10:29Z</time>
      </trkpt>
      <trkpt lat="44.41097" lon="4.37901">
        <ele>98.9</ele>
        <time>2022-06-11T08:10:30Z</time>
      </trkpt>
      <trkpt lat="44.41095" lon="4.37907">
        <ele>98.9</ele>
        <time>2022-06-11T08:10:31Z</time>
      </trkpt>
      <trkpt lat="44.41092" lon="4.37913">
        <ele>98.9</ele>
        <time>2022-06-11T08:10:32Z</time>
      </trkpt>
      <trkpt lat="44.4109" lon="4.37919">
        <ele>98.8</ele>
        <time>2022-06-11T08:10:33Z</time>
      </trkpt>
      <trkpt lat="44.41087" lon="4.37926">
        <ele>98.8</ele>
        <time>2022-06-11T08:10:34Z</time>
      </trkpt>
      <trkpt lat="44.41085" lon="4.37932">
        <ele>98.8</ele>
        <time>2022-06-11T08:10:35Z</time>
      </trkpt>
      <trkpt lat="44.41082" lon="4.37938">
        <ele>98.7</ele>
        <time>2022-06-11T08:10:36Z</time>
      </trkpt>
      <trkpt lat="44.4108" lon="4.37945">
        <ele>98.7</ele>
        <time>2022-06-11T08:10:37Z</time>
      </trkpt>
      <trkpt lat="44.41077" lon="4.37951">
        <ele>98.7</ele>
        <time>2022-06-11T08:10:38Z</time>
      </trkpt>
      <trkpt lat="44.41075" lon="4.37958">
        <ele>98.6</ele>
        <time>2022-06-11T08:10:39Z</time>
      </trkpt>
      <trkpt lat="44.41073" lon="4.37964">
        <ele>98.6</ele>
        <time>2022-06-11T08:10:40Z</time>
      </trkpt>
      <trkpt lat="44.4107" lon="4.3797">
        <ele>98.6</ele>
        <time>2022-06-11T08:10:41Z</time>
      </trkpt>
      <trkpt lat="44.41067" lon="4.37977">
        <ele>98.6</ele>
        <time>2022-06-11T08:10:42Z</time>
      </trkpt>
      <trkpt lat="44.41065" lon="4.37983">
        <ele>98.6</ele>
        <time>2022-06-11T08:10:43Z</time>
      </trkpt>
      <trkpt lat="44.41062" lon="4.3799">
        <ele>98.5</ele>
        <time>2022-06-11T08:10:44Z</time>
      </trkpt>
      <trkpt lat="44.4106" lon="4.37996">
        <ele>98.5</ele>
        <time>2022-06-11T08:10:45Z</time>
      </trkpt>
      <trkpt lat="44.41057" lon="4.38002">
        <ele>98.5</ele>
        <time>2022-06-11T08:10:46Z</time>
      </trkpt>
      <trkpt lat="44.41055" lon="4.38008">
        <ele>98.5</ele>
        <time>2022-06-11T08:10:47Z</time>
      </trkpt>
      <trkpt lat="44.41052" lon="4.38015">
        <ele>98.5</ele>
        <time>2022-06-11T08:10:48Z</time>
      </trkpt>
      <trkpt lat="44.4105" lon="4.38022">
        <ele>98.5</ele>
        <time>2022-06-11T08:10:49Z</time>
      </trkpt>
      <trkpt lat="44.41047" lon="4.38028">
        <ele>98.5</ele>
        <time>2022-06-11T08:10:50Z</time>
      </trkpt>
      <trkpt lat="44.41044" lon="4.38035">
        <ele>98.5</ele>
        <time>2022-06-11T08:10:51Z</time>
      </trkpt>
      <trkpt lat="44.41041" lon="4.38042">
        <ele>98.5</ele>
        <time>2022-06-11T08:10:52Z</time>
      </trkpt>
      <trkpt lat="44.41039" lon="4.38049">
        <ele>98.5</ele>
        <time>2022-06-11T08:10:53Z</time>
      </trkpt>
      <trkpt lat="44.41036" lon="4.38056">
        <ele>98.5</ele>
        <time>2022-06-11T08:10:54Z</time>
      </trkpt>
      <trkpt lat="44.41034" lon="4.38062">
        <ele>98.5</ele>
        <time>2022-06-11T08:10:55Z</time>
      </trkpt>
      <trkpt lat="44.41031" lon="4.38069">
        <ele>98.5</ele>
        <time>2022-06-11T08:10:56Z</time>
      </trkpt>
      <trkpt lat="44.41028" lon="4.38076">
        <ele>98.5</ele>
        <time>2022-06-11T08:10:57Z</time>
      </trkpt>
      <trkpt lat="44.41026" lon="4.38082">
        <ele>98.5</ele>
        <time>2022-06-11T08:10:58Z</time>
      </trkpt>
      <trkpt lat="44.41024" lon="4.38089">
        <ele>98.5</ele>
        <time>2022-06-11T08:10:59Z</time>
      </trkpt>
      <trkpt lat="44.41021" lon="4.38095">
        <ele>98.5</ele>
        <time>2022-06-11T08:11:00Z</time>
      </trkpt>
      <trkpt lat="44.41018" lon="4.38103">
        <ele>98.5</ele>
        <time>2022-06-11T08:11:01Z</time>
      </trkpt>
      <trkpt lat="44.41015" lon="4.38109">
        <ele>98.5</ele>
        <time>2022-06-11T08:11:02Z</time>
      </trkpt>
      <trkpt lat="44.41013" lon="4.38116">
        <ele>98.5</ele>
        <time>2022-06-11T08:11:03Z</time>
      </trkpt>
      <trkpt lat="44.4101" lon="4.38123">
        <ele>98.5</ele>
        <time>2022-06-11T08:11:04Z</time>
      </trkpt>
      <trkpt lat="44.41007" lon="4.3813">
        <ele>98.5</ele>
        <time>2022-06-11T08:11:05Z</time>
      </trkpt>
      <trkpt lat="44.41004" lon="4.38137">
        <ele>98.5</ele>
        <time>2022-06-11T08:11:06Z</time>
      </trkpt>
      <trkpt lat="44.41002" lon="4.38143">
        <ele>98.6</ele>
        <time>2022-06-11T08:11:07Z</time>
      </trkpt>
      <trkpt lat="44.40999" lon="4.3815">
        <ele>98.6</ele>
        <time>2022-06-11T08:11:08Z</time>
      </trkpt>
      <trkpt lat="44.40996" lon="4.38157">
        <ele>98.6</ele>
        <time>2022-06-11T08:11:09Z</time>
      </trkpt>
      <trkpt lat="44.40994" lon="4.38163">
        <ele>98.6</ele>
        <time>2022-06-11T08:11:10Z</time>
      </trkpt>
      <trkpt lat="44.40991" lon="4.3817">
        <ele>98.6</ele>
        <time>2022-06-11T08:11:11Z</time>
      </trkpt>
      <trkpt lat="44.40989" lon="4.38177">
        <ele>98.7</ele>
        <time>2022-06-11T08:11:12Z</time>
      </trkpt>
      <trkpt lat="44.40986" lon="4.38184">
        <ele>98.7</ele>
        <time>2022-06-11T08:11:13Z</time>
      </trkpt>
      <trkpt lat="44.40983" lon="4.38191">
        <ele>98.7</ele>
        <time>2022-06-11T08:11:14Z</time>
      </trkpt>
      <trkpt lat="44.4098" lon="4.38198">
        <ele>98.7</ele>
        <time>2022-06-11T08:11:15Z</time>
      </trkpt>
      <trkpt lat="44.40978" lon="4.38205">
        <ele>98.7</ele>
        <time>2022-06-11T08:11:16Z</time>
      </trkpt>
      <trkpt lat="44.40975" lon="4.38212">
        <ele>98.7</ele>
        <time>2022-06-11T08:11:17Z</time>
      </trkpt>
      <trkpt lat="44.40973" lon="4.3822">
        <ele>98.6</ele>
        <time>2022-06-11T08:11:18Z</time>
      </trkpt>
      <trkpt lat="44.4097" lon="4.38228">
        <ele>98.6</ele>
        <time>2022-06-11T08:11:19Z</time>
      </trkpt>
      <trkpt lat="44.40967" lon="4.38235">
        <ele>98.6</ele>
        <time>2022-06-11T08:11:20Z</time>
      </trkpt>
      <trkpt lat="44.40965" lon="4.38242">
        <ele>98.6</ele>
        <time>2022-06-11T08:11:21Z</time>
      </trkpt>
      <trkpt lat="44.40961" lon="4.38249">
        <ele>98.6</ele>
        <time>2022-06-11T08:11:22Z</time>
      </trkpt>
      <trkpt lat="44.40958" lon="4.38256">
        <ele>98.6</ele>
        <time>2022-06-11T08:11:23Z</time>
      </trkpt>
      <trkpt lat="44.40953" lon="4.38261">
        <ele>98.6</ele>
        <time>2022-06-11T08:11:24Z</time>
      </trkpt>
      <trkpt lat="44.40949" lon="4.38266">
        <ele>98.6</ele>
        <time>2022-06-11T08:11:25Z</time>
      </trkpt>
      <trkpt lat="44.40947" lon="4.38273">
        <ele>98.6</ele>
        <time>2022-06-11T08:11:26Z</time>
      </trkpt>
      <trkpt lat="44.40945" lon="4.38281">
        <ele>98.5</ele>
        <time>2022-06-11T08:11:27Z</time>
      </trkpt>
      <trkpt lat="44.40945" lon="4.38289">
        <ele>98.5</ele>
        <time>2022-06-11T08:11:28Z</time>
      </trkpt>
      <trkpt lat="44.40943" lon="4.38297">
        <ele>98.4</ele>
        <time>2022-06-11T08:11:29Z</time>
      </trkpt>
      <trkpt lat="44.40941" lon="4.38304">
        <ele>98.3</ele>
        <time>2022-06-11T08:11:30Z</time>
      </trkpt>
      <trkpt lat="44.40938" lon="4.38312">
        <ele>98.2</ele>
        <time>2022-06-11T08:11:31Z</time>
      </trkpt>
      <trkpt lat="44.40935" lon="4.3832">
        <ele>98.1</ele>
        <time>2022-06-11T08:11:32Z</time>
      </trkpt>
      <trkpt lat="44.40932" lon="4.38328">
        <ele>98.1</ele>
        <time>2022-06-11T08:11:33Z</time>
      </trkpt>
      <trkpt lat="44.40929" lon="4.38335">
        <ele>98</ele>
        <time>2022-06-11T08:11:34Z</time>
      </trkpt>
      <trkpt lat="44.40926" lon="4.38343">
        <ele>97.9</ele>
        <time>2022-06-11T08:11:35Z</time>
      </trkpt>
      <trkpt lat="44.40923" lon="4.38351">
        <ele>97.9</ele>
        <time>2022-06-11T08:11:36Z</time>
      </trkpt>
      <trkpt lat="44.4092" lon="4.38359">
        <ele>97.8</ele>
        <time>2022-06-11T08:11:37Z</time>
      </trkpt>
      <trkpt lat="44.40917" lon="4.38367">
        <ele>97.8</ele>
        <time>2022-06-11T08:11:38Z</time>
      </trkpt>
      <trkpt lat="44.40914" lon="4.38375">
        <ele>97.8</ele>
        <time>2022-06-11T08:11:39Z</time>
      </trkpt>
      <trkpt lat="44.40911" lon="4.38382">
        <ele>97.8</ele>
        <time>2022-06-11T08:11:40Z</time>
      </trkpt>
      <trkpt lat="44.40908" lon="4.38389">
        <ele>97.8</ele>
        <time>2022-06-11T08:11:41Z</time>
      </trkpt>
      <trkpt lat="44.40904" lon="4.38397">
        <ele>97.8</ele>
        <time>2022-06-11T08:11:42Z</time>
      </trkpt>
      <trkpt lat="44.40901" lon="4.38405">
        <ele>97.7</ele>
        <time>2022-06-11T08:11:43Z</time>
      </trkpt>
      <trkpt lat="44.40899" lon="4.38412">
        <ele>97.7</ele>
        <time>2022-06-11T08:11:44Z</time>
      </trkpt>
      <trkpt lat="44.40896" lon="4.3842">
        <ele>97.7</ele>
        <time>2022-06-11T08:11:45Z</time>
      </trkpt>
      <trkpt lat="44.40893" lon="4.38428">
        <ele>97.7</ele>
        <time>2022-06-11T08:11:46Z</time>
      </trkpt>
      <trkpt lat="44.4089" lon="4.38435">
        <ele>97.7</ele>
        <time>2022-06-11T08:11:47Z</time>
      </trkpt>
      <trkpt lat="44.40887" lon="4.38442">
        <ele>97.7</ele>
        <time>2022-06-11T08:11:48Z</time>
      </trkpt>
      <trkpt lat="44.40885" lon="4.3845">
        <ele>97.7</ele>
        <time>2022-06-11T08:11:49Z</time>
      </trkpt>
      <trkpt lat="44.40882" lon="4.38457">
        <ele>97.7</ele>
        <time>2022-06-11T08:11:50Z</time>
      </trkpt>
      <trkpt lat="44.40878" lon="4.38465">
        <ele>97.7</ele>
        <time>2022-06-11T08:11:51Z</time>
      </trkpt>
      <trkpt lat="44.40876" lon="4.38471">
        <ele>97.7</ele>
        <time>2022-06-11T08:11:52Z</time>
      </trkpt>
      <trkpt lat="44.40873" lon="4.38479">
        <ele>97.8</ele>
        <time>2022-06-11T08:11:53Z</time>
      </trkpt>
      <trkpt lat="44.40871" lon="4.38486">
        <ele>97.8</ele>
        <time>2022-06-11T08:11:54Z</time>
      </trkpt>
      <trkpt lat="44.40868" lon="4.38493">
        <ele>97.8</ele>
        <time>2022-06-11T08:11:55Z</time>
      </trkpt>
      <trkpt lat="44.40865" lon="4.38501">
        <ele>97.8</ele>
        <time>2022-06-11T08:11:56Z</time>
      </trkpt>
      <trkpt lat="44.40862" lon="4.38508">
        <ele>97.7</ele>
        <time>2022-06-11T08:11:57Z</time>
      </trkpt>
      <trkpt lat="44.40859" lon="4.38515">
        <ele>97.7</ele>
        <time>2022-06-11T08:11:58Z</time>
      </trkpt>
      <trkpt lat="44.40856" lon="4.38522">
        <ele>97.7</ele>
        <time>2022-06-11T08:11:59Z</time>
      </trkpt>
      <trkpt lat="44.40854" lon="4.38529">
        <ele>97.7</ele>
        <time>2022-06-11T08:12:00Z</time>
      </trkpt>
      <trkpt lat="44.40851" lon="4.38536">
        <ele>97.7</ele>
        <time>2022-06-11T08:12:01Z</time>
      </trkpt>
      <trkpt lat="44.40848" lon="4.38543">
        <ele>97.7</ele>
        <time>2022-06-11T08:12:02Z</time>
      </trkpt>
      <trkpt lat="44.40846" lon="4.38551">
        <ele>97.7</ele>
        <time>2022-06-11T08:12:03Z</time>
      </trkpt>
      <trkpt lat="44.40842" lon="4.38559">
        <ele>97.7</ele>
        <time>2022-06-11T08:12:04Z</time>
      </trkpt>
      <trkpt lat="44.40839" lon="4.38566">
        <ele>97.7</ele>
        <time>2022-06-11T08:12:05Z</time>
      </trkpt>
      <trkpt lat="44.40836" lon="4.38574">
        <ele>97.7</ele>
        <time>2022-06-11T08:12:06Z</time>
      </trkpt>
      <trkpt lat="44.40833" lon="4.38581">
        <ele>97.7</ele>
        <time>2022-06-11T08:12:07Z</time>
      </trkpt>
      <trkpt lat="44.40831" lon="4.38589">
        <ele>97.6</ele>
        <time>2022-06-11T08:12:08Z</time>
      </trkpt>
      <trkpt lat="44.40827" lon="4.38596">
        <ele>97.6</ele>
        <time>2022-06-11T08:12:09Z</time>
      </trkpt>
      <trkpt lat="44.40824" lon="4.38604">
        <ele>97.6</ele>
        <time>2022-06-11T08:12:10Z</time>
      </trkpt>
      <trkpt lat="44.40821" lon="4.38611">
        <ele>97.5</ele>
        <time>2022-06-11T08:12:11Z</time>
      </trkpt>
      <trkpt lat="44.40818" lon="4.38619">
        <ele>97.5</ele>
        <time>2022-06-11T08:12:12Z</time>
      </trkpt>
      <trkpt lat="44.40815" lon="4.38626">
        <ele>97.4</ele>
        <time>2022-06-11T08:12:13Z</time>
      </trkpt>
      <trkpt lat="44.40812" lon="4.38633">
        <ele>97.4</ele>
        <time>2022-06-11T08:12:14Z</time>
      </trkpt>
      <trkpt lat="44.40809" lon="4.3864">
        <ele>97.4</ele>
        <time>2022-06-11T08:12:15Z</time>
      </trkpt>
      <trkpt lat="44.40806" lon="4.38647">
        <ele>97.4</ele>
        <time>2022-06-11T08:12:16Z</time>
      </trkpt>
      <trkpt lat="44.40802" lon="4.38655">
        <ele>97.4</ele>
        <time>2022-06-11T08:12:17Z</time>
      </trkpt>
      <trkpt lat="44.40799" lon="4.38662">
        <ele>97.4</ele>
        <time>2022-06-11T08:12:18Z</time>
      </trkpt>
      <trkpt lat="44.40796" lon="4.3867">
        <ele>97.4</ele>
        <time>2022-06-11T08:12:19Z</time>
      </trkpt>
      <trkpt lat="44.40793" lon="4.38677">
        <ele>97.4</ele>
        <time>2022-06-11T08:12:20Z</time>
      </trkpt>
      <trkpt lat="44.4079" lon="4.38684">
        <ele>97.5</ele>
        <time>2022-06-11T08:12:21Z</time>
      </trkpt>
      <trkpt lat="44.40787" lon="4.3869">
        <ele>97.5</ele>
        <time>2022-06-11T08:12:22Z</time>
      </trkpt>
      <trkpt lat="44.40784" lon="4.38697">
        <ele>97.6</ele>
        <time>2022-06-11T08:12:23Z</time>
      </trkpt>
      <trkpt lat="44.40781" lon="4.38703">
        <ele>97.6</ele>
        <time>2022-06-11T08:12:24Z</time>
      </trkpt>
      <trkpt lat="44.40777" lon="4.38708">
        <ele>97.6</ele>
        <time>2022-06-11T08:12:25Z</time>
      </trkpt>
      <trkpt lat="44.40774" lon="4.38713">
        <ele>97.7</ele>
        <time>2022-06-11T08:12:26Z</time>
      </trkpt>
      <trkpt lat="44.4077" lon="4.38716">
        <ele>97.7</ele>
        <time>2022-06-11T08:12:27Z</time>
      </trkpt>
      <trkpt lat="44.40769" lon="4.38717">
        <ele>97.7</ele>
        <time>2022-06-11T08:12:28Z</time>
      </trkpt>
      <trkpt lat="44.40766" lon="4.38717">
        <ele>97.7</ele>
        <time>2022-06-11T08:12:29Z</time>
      </trkpt>
      <trkpt lat="44.40765" lon="4.38717">
        <ele>97.7</ele>
        <time>2022-06-11T08:12:30Z</time>
      </trkpt>
      <trkpt lat="44.40761" lon="4.38719">
        <ele>97.6</ele>
        <time>2022-06-11T08:12:31Z</time>
      </trkpt>
      <trkpt lat="44.40758" lon="4.3872">
        <ele>97.6</ele>
        <time>2022-06-11T08:12:32Z</time>
      </trkpt>
      <trkpt lat="44.40756" lon="4.38723">
        <ele>97.6</ele>
        <time>2022-06-11T08:12:33Z</time>
      </trkpt>
      <trkpt lat="44.40754" lon="4.38726">
        <ele>97.6</ele>
        <time>2022-06-11T08:12:34Z</time>
      </trkpt>
      <trkpt lat="44.40752" lon="4.38732">
        <ele>97.5</ele>
        <time>2022-06-11T08:12:35Z</time>
      </trkpt>
      <trkpt lat="44.4075" lon="4.38744">
        <ele>97.7</ele>
        <time>2022-06-11T08:12:36Z</time>
      </trkpt>
      <trkpt lat="44.40751" lon="4.3875">
        <ele>97.8</ele>
        <time>2022-06-11T08:12:37Z</time>
      </trkpt>
      <trkpt lat="44.40754" lon="4.38755">
        <ele>97.9</ele>
        <time>2022-06-11T08:12:39Z</time>
      </trkpt>
      <trkpt lat="44.40757" lon="4.3876">
        <ele>98.1</ele>
        <time>2022-06-11T08:12:40Z</time>
      </trkpt>
      <trkpt lat="44.40761" lon="4.38769">
        <ele>98.3</ele>
        <time>2022-06-11T08:12:41Z</time>
      </trkpt>
      <trkpt lat="44.40762" lon="4.38776">
        <ele>98.4</ele>
        <time>2022-06-11T08:12:43Z</time>
      </trkpt>
      <trkpt lat="44.40762" lon="4.38786">
        <ele>98.6</ele>
        <time>2022-06-11T08:12:45Z</time>
      </trkpt>
      <trkpt lat="44.40761" lon="4.38791">
        <ele>98.7</ele>
        <time>2022-06-11T08:12:46Z</time>
      </trkpt>
      <trkpt lat="44.4076" lon="4.38796">
        <ele>98.7</ele>
        <time>2022-06-11T08:12:47Z</time>
      </trkpt>
      <trkpt lat="44.40757" lon="4.38803">
        <ele>98.8</ele>
        <time>2022-06-11T08:12:48Z</time>
      </trkpt>
      <trkpt lat="44.40753" lon="4.3881">
        <ele>98.9</ele>
        <time>2022-06-11T08:12:49Z</time>
      </trkpt>
      <trkpt lat="44.40752" lon="4.38815">
        <ele>99</ele>
        <time>2022-06-11T08:12:51Z</time>
      </trkpt>
      <trkpt lat="44.40748" lon="4.38824">
        <ele>99.2</ele>
        <time>2022-06-11T08:12:52Z</time>
      </trkpt>
      <trkpt lat="44.40746" lon="4.38828">
        <ele>99.2</ele>
        <time>2022-06-11T08:12:54Z</time>
      </trkpt>
      <trkpt lat="44.40744" lon="4.38833">
        <ele>99.3</ele>
        <time>2022-06-11T08:12:55Z</time>
      </trkpt>
      <trkpt lat="44.40742" lon="4.38839">
        <ele>99.4</ele>
        <time>2022-06-11T08:12:56Z</time>
      </trkpt>
      <trkpt lat="44.40739" lon="4.38845">
        <ele>99.5</ele>
        <time>2022-06-11T08:12:57Z</time>
      </trkpt>
      <trkpt lat="44.40737" lon="4.3885">
        <ele>99.6</ele>
        <time>2022-06-11T08:12:59Z</time>
      </trkpt>
      <trkpt lat="44.40735" lon="4.38854">
        <ele>99.7</ele>
        <time>2022-06-11T08:13:00Z</time>
      </trkpt>
      <trkpt lat="44.40733" lon="4.38859">
        <ele>99.7</ele>
        <time>2022-06-11T08:13:01Z</time>
      </trkpt>
      <trkpt lat="44.40731" lon="4.38863">
        <ele>99.8</ele>
        <time>2022-06-11T08:13:02Z</time>
      </trkpt>
      <trkpt lat="44.40729" lon="4.38867">
        <ele>99.8</ele>
        <time>2022-06-11T08:13:03Z</time>
      </trkpt>
      <trkpt lat="44.40727" lon="4.38872">
        <ele>99.9</ele>
        <time>2022-06-11T08:13:04Z</time>
      </trkpt>
      <trkpt lat="44.40726" lon="4.38877">
        <ele>100</ele>
        <time>2022-06-11T08:13:05Z</time>
      </trkpt>
      <trkpt lat="44.40724" lon="4.38882">
        <ele>100</ele>
        <time>2022-06-11T08:13:06Z</time>
      </trkpt>
      <trkpt lat="44.40722" lon="4.38886">
        <ele>100.1</ele>
        <time>2022-06-11T08:13:07Z</time>
      </trkpt>
      <trkpt lat="44.40718" lon="4.38896">
        <ele>100.3</ele>
        <time>2022-06-11T08:13:08Z</time>
      </trkpt>
      <trkpt lat="44.40714" lon="4.38906">
        <ele>100.5</ele>
        <time>2022-06-11T08:13:10Z</time>
      </trkpt>
      <trkpt lat="44.40712" lon="4.38911">
        <ele>100.5</ele>
        <time>2022-06-11T08:13:12Z</time>
      </trkpt>
      <trkpt lat="44.40707" lon="4.38921">
        <ele>100.7</ele>
        <time>2022-06-11T08:13:14Z</time>
      </trkpt>
      <trkpt lat="44.40705" lon="4.38927">
        <ele>100.8</ele>
        <time>2022-06-11T08:13:15Z</time>
      </trkpt>
      <trkpt lat="44.40703" lon="4.38932">
        <ele>100.9</ele>
        <time>2022-06-11T08:13:16Z</time>
      </trkpt>
      <trkpt lat="44.40701" lon="4.38937">
        <ele>100.9</ele>
        <time>2022-06-11T08:13:17Z</time>
      </trkpt>
      <trkpt lat="44.40699" lon="4.38942">
        <ele>101</ele>
        <time>2022-06-11T08:13:18Z</time>
      </trkpt>
      <trkpt lat="44.40698" lon="4.38947">
        <ele>101</ele>
        <time>2022-06-11T08:13:19Z</time>
      </trkpt>
      <trkpt lat="44.40696" lon="4.38951">
        <ele>101.1</ele>
        <time>2022-06-11T08:13:20Z</time>
      </trkpt>
      <trkpt lat="44.40694" lon="4.38956">
        <ele>101.1</ele>
        <time>2022-06-11T08:13:21Z</time>
      </trkpt>
      <trkpt lat="44.40693" lon="4.38961">
        <ele>101.2</ele>
        <time>2022-06-11T08:13:22Z</time>
      </trkpt>
      <trkpt lat="44.40691" lon="4.38966">
        <ele>101.2</ele>
        <time>2022-06-11T08:13:23Z</time>
      </trkpt>
      <trkpt lat="44.40688" lon="4.38975">
        <ele>101.4</ele>
        <time>2022-06-11T08:13:24Z</time>
      </trkpt>
      <trkpt lat="44.40686" lon="4.38981">
        <ele>101.4</ele>
        <time>2022-06-11T08:13:26Z</time>
      </trkpt>
      <trkpt lat="44.40684" lon="4.38986">
        <ele>101.5</ele>
        <time>2022-06-11T08:13:27Z</time>
      </trkpt>
      <trkpt lat="44.40683" lon="4.38991">
        <ele>101.6</ele>
        <time>2022-06-11T08:13:28Z</time>
      </trkpt>
      <trkpt lat="44.40681" lon="4.38995">
        <ele>101.6</ele>
        <time>2022-06-11T08:13:29Z</time>
      </trkpt>
      <trkpt lat="44.40679" lon="4.38999">
        <ele>101.7</ele>
        <time>2022-06-11T08:13:30Z</time>
      </trkpt>
      <trkpt lat="44.40677" lon="4.39003">
        <ele>101.7</ele>
        <time>2022-06-11T08:13:31Z</time>
      </trkpt>
      <trkpt lat="44.40673" lon="4.39012">
        <ele>101.9</ele>
        <time>2022-06-11T08:13:32Z</time>
      </trkpt>
      <trkpt lat="44.40671" lon="4.39017">
        <ele>101.9</ele>
        <time>2022-06-11T08:13:34Z</time>
      </trkpt>
      <trkpt lat="44.4067" lon="4.39021">
        <ele>102</ele>
        <time>2022-06-11T08:13:35Z</time>
      </trkpt>
      <trkpt lat="44.40668" lon="4.39025">
        <ele>102</ele>
        <time>2022-06-11T08:13:36Z</time>
      </trkpt>
      <trkpt lat="44.40667" lon="4.3903">
        <ele>102.1</ele>
        <time>2022-06-11T08:13:37Z</time>
      </trkpt>
      <trkpt lat="44.40665" lon="4.39034">
        <ele>102.1</ele>
        <time>2022-06-11T08:13:38Z</time>
      </trkpt>
      <trkpt lat="44.40662" lon="4.3904">
        <ele>102.2</ele>
        <time>2022-06-11T08:13:39Z</time>
      </trkpt>
      <trkpt lat="44.40661" lon="4.39046">
        <ele>102.3</ele>
        <time>2022-06-11T08:13:40Z</time>
      </trkpt>
      <trkpt lat="44.4066" lon="4.3905">
        <ele>102.4</ele>
        <time>2022-06-11T08:13:41Z</time>
      </trkpt>
      <trkpt lat="44.40661" lon="4.39057">
        <ele>102.5</ele>
        <time>2022-06-11T08:13:43Z</time>
      </trkpt>
      <trkpt lat="44.40661" lon="4.39059">
        <ele>102.6</ele>
        <time>2022-06-11T08:13:44Z</time>
      </trkpt>
      <trkpt lat="44.4066" lon="4.39061">
        <ele>102.6</ele>
        <time>2022-06-11T08:13:45Z</time>
      </trkpt>
      <trkpt lat="44.40658" lon="4.39064">
        <ele>102.7</ele>
        <time>2022-06-11T08:13:46Z</time>
      </trkpt>
      <trkpt lat="44.40656" lon="4.39068">
        <ele>102.8</ele>
        <time>2022-06-11T08:13:47Z</time>
      </trkpt>
      <trkpt lat="44.40655" lon="4.3907">
        <ele>102.8</ele>
        <time>2022-06-11T08:13:48Z</time>
      </trkpt>
      <trkpt lat="44.40652" lon="4.39075">
        <ele>103</ele>
        <time>2022-06-11T08:13:49Z</time>
      </trkpt>
      <trkpt lat="44.40651" lon="4.39077">
        <ele>103</ele>
        <time>2022-06-11T08:13:50Z</time>
      </trkpt>
      <trkpt lat="44.40649" lon="4.3908">
        <ele>103.1</ele>
        <time>2022-06-11T08:13:52Z</time>
      </trkpt>
      <trkpt lat="44.40648" lon="4.39084">
        <ele>103.2</ele>
        <time>2022-06-11T08:13:53Z</time>
      </trkpt>
      <trkpt lat="44.40647" lon="4.39088">
        <ele>103.3</ele>
        <time>2022-06-11T08:13:54Z</time>
      </trkpt>
      <trkpt lat="44.40645" lon="4.39091">
        <ele>103.4</ele>
        <time>2022-06-11T08:13:55Z</time>
      </trkpt>
      <trkpt lat="44.40643" lon="4.39095">
        <ele>103.5</ele>
        <time>2022-06-11T08:13:56Z</time>
      </trkpt>
      <trkpt lat="44.40642" lon="4.39098">
        <ele>103.6</ele>
        <time>2022-06-11T08:13:57Z</time>
      </trkpt>
      <trkpt lat="44.4064" lon="4.39103">
        <ele>103.7</ele>
        <time>2022-06-11T08:13:58Z</time>
      </trkpt>
      <trkpt lat="44.4064" lon="4.39105">
        <ele>103.8</ele>
        <time>2022-06-11T08:13:59Z</time>
      </trkpt>
      <trkpt lat="44.40638" lon="4.39109">
        <ele>103.9</ele>
        <time>2022-06-11T08:14:00Z</time>
      </trkpt>
      <trkpt lat="44.40637" lon="4.3911">
        <ele>104</ele>
        <time>2022-06-11T08:14:01Z</time>
      </trkpt>
      <trkpt lat="44.40637" lon="4.39115">
        <ele>104.1</ele>
        <time>2022-06-11T08:14:02Z</time>
      </trkpt>
      <trkpt lat="44.40637" lon="4.39116">
        <ele>104.2</ele>
        <time>2022-06-11T08:14:03Z</time>
      </trkpt>
      <trkpt lat="44.40634" lon="4.39121">
        <ele>104.3</ele>
        <time>2022-06-11T08:14:04Z</time>
      </trkpt>
      <trkpt lat="44.40633" lon="4.39122">
        <ele>104.4</ele>
        <time>2022-06-11T08:14:05Z</time>
      </trkpt>
      <trkpt lat="44.40632" lon="4.39126">
        <ele>104.6</ele>
        <time>2022-06-11T08:14:06Z</time>
      </trkpt>
      <trkpt lat="44.4063" lon="4.39129">
        <ele>104.7</ele>
        <time>2022-06-11T08:14:07Z</time>
      </trkpt>
      <trkpt lat="44.40629" lon="4.39133">
        <ele>104.8</ele>
        <time>2022-06-11T08:14:08Z</time>
      </trkpt>
      <trkpt lat="44.40627" lon="4.39137">
        <ele>105</ele>
        <time>2022-06-11T08:14:09Z</time>
      </trkpt>
      <trkpt lat="44.40626" lon="4.39139">
        <ele>105.1</ele>
        <time>2022-06-11T08:14:10Z</time>
      </trkpt>
      <trkpt lat="44.40625" lon="4.39142">
        <ele>105.3</ele>
        <time>2022-06-11T08:14:11Z</time>
      </trkpt>
      <trkpt lat="44.40623" lon="4.39147">
        <ele>105.5</ele>
        <time>2022-06-11T08:14:12Z</time>
      </trkpt>
      <trkpt lat="44.40622" lon="4.39148">
        <ele>105.6</ele>
        <time>2022-06-11T08:14:13Z</time>
      </trkpt>
      <trkpt lat="44.4062" lon="4.39153">
        <ele>105.8</ele>
        <time>2022-06-11T08:14:14Z</time>
      </trkpt>
      <trkpt lat="44.40619" lon="4.39154">
        <ele>105.8</ele>
        <time>2022-06-11T08:14:15Z</time>
      </trkpt>
      <trkpt lat="44.40617" lon="4.39159">
        <ele>106</ele>
        <time>2022-06-11T08:14:16Z</time>
      </trkpt>
      <trkpt lat="44.40617" lon="4.3916">
        <ele>106.1</ele>
        <time>2022-06-11T08:14:17Z</time>
      </trkpt>
      <trkpt lat="44.40615" lon="4.39165">
        <ele>106.3</ele>
        <time>2022-06-11T08:14:18Z</time>
      </trkpt>
      <trkpt lat="44.40615" lon="4.39167">
        <ele>106.4</ele>
        <time>2022-06-11T08:14:19Z</time>
      </trkpt>
      <trkpt lat="44.40614" lon="4.39171">
        <ele>106.6</ele>
        <time>2022-06-11T08:14:20Z</time>
      </trkpt>
      <trkpt lat="44.40613" lon="4.39173">
        <ele>106.6</ele>
        <time>2022-06-11T08:14:21Z</time>
      </trkpt>
      <trkpt lat="44.40612" lon="4.39177">
        <ele>106.8</ele>
        <time>2022-06-11T08:14:22Z</time>
      </trkpt>
      <trkpt lat="44.40611" lon="4.39178">
        <ele>106.9</ele>
        <time>2022-06-11T08:14:23Z</time>
      </trkpt>
      <trkpt lat="44.4061" lon="4.39182">
        <ele>107</ele>
        <time>2022-06-11T08:14:24Z</time>
      </trkpt>
      <trkpt lat="44.4061" lon="4.39184">
        <ele>107.1</ele>
        <time>2022-06-11T08:14:25Z</time>
      </trkpt>
      <trkpt lat="44.40608" lon="4.39189">
        <ele>107.3</ele>
        <time>2022-06-11T08:14:26Z</time>
      </trkpt>
      <trkpt lat="44.40607" lon="4.3919">
        <ele>107.4</ele>
        <time>2022-06-11T08:14:27Z</time>
      </trkpt>
      <trkpt lat="44.40605" lon="4.39194">
        <ele>107.6</ele>
        <time>2022-06-11T08:14:28Z</time>
      </trkpt>
      <trkpt lat="44.40604" lon="4.39195">
        <ele>107.6</ele>
        <time>2022-06-11T08:14:29Z</time>
      </trkpt>
      <trkpt lat="44.40603" lon="4.39199">
        <ele>107.8</ele>
        <time>2022-06-11T08:14:30Z</time>
      </trkpt>
      <trkpt lat="44.40602" lon="4.39201">
        <ele>107.8</ele>
        <time>2022-06-11T08:14:31Z</time>
      </trkpt>
      <trkpt lat="44.40602" lon="4.39205">
        <ele>107.8</ele>
        <time>2022-06-11T08:14:32Z</time>
      </trkpt>
      <trkpt lat="44.40602" lon="4.39207">
        <ele>107.9</ele>
        <time>2022-06-11T08:14:33Z</time>
      </trkpt>
      <trkpt lat="44.40602" lon="4.39209">
        <ele>107.9</ele>
        <time>2022-06-11T08:14:34Z</time>
      </trkpt>
      <trkpt lat="44.40602" lon="4.39212">
        <ele>107.9</ele>
        <time>2022-06-11T08:14:35Z</time>
      </trkpt>
      <trkpt lat="44.40602" lon="4.39215">
        <ele>108</ele>
        <time>2022-06-11T08:14:36Z</time>
      </trkpt>
      <trkpt lat="44.40601" lon="4.39217">
        <ele>108</ele>
        <time>2022-06-11T08:14:37Z</time>
      </trkpt>
      <trkpt lat="44.40601" lon="4.39221">
        <ele>108.1</ele>
        <time>2022-06-11T08:14:38Z</time>
      </trkpt>
      <trkpt lat="44.40601" lon="4.39222">
        <ele>108.1</ele>
        <time>2022-06-11T08:14:39Z</time>
      </trkpt>
      <trkpt lat="44.406" lon="4.39227">
        <ele>108.1</ele>
        <time>2022-06-11T08:14:40Z</time>
      </trkpt>
      <trkpt lat="44.406" lon="4.39229">
        <ele>108.2</ele>
        <time>2022-06-11T08:14:41Z</time>
      </trkpt>
      <trkpt lat="44.40598" lon="4.39233">
        <ele>108.2</ele>
        <time>2022-06-11T08:14:43Z</time>
      </trkpt>
      <trkpt lat="44.40597" lon="4.39232">
        <ele>108.3</ele>
        <time>2022-06-11T08:14:45Z</time>
      </trkpt>
      <trkpt lat="44.40596" lon="4.39232">
        <ele>108.3</ele>
        <time>2022-06-11T08:14:46Z</time>
      </trkpt>
      <trkpt lat="44.40595" lon="4.3923">
        <ele>108.3</ele>
        <time>2022-06-11T08:14:47Z</time>
      </trkpt>
      <trkpt lat="44.40594" lon="4.39228">
        <ele>108.3</ele>
        <time>2022-06-11T08:14:48Z</time>
      </trkpt>
      <trkpt lat="44.40596" lon="4.39225">
        <ele>108.4</ele>
        <time>2022-06-11T08:14:49Z</time>
      </trkpt>
      <trkpt lat="44.40597" lon="4.39224">
        <ele>108.4</ele>
        <time>2022-06-11T08:14:50Z</time>
      </trkpt>
      <trkpt lat="44.40597" lon="4.39222">
        <ele>108.4</ele>
        <time>2022-06-11T08:14:51Z</time>
      </trkpt>
      <trkpt lat="44.40598" lon="4.39222">
        <ele>108.4</ele>
        <time>2022-06-11T08:14:52Z</time>
      </trkpt>
      <trkpt lat="44.40598" lon="4.39221">
        <ele>108.5</ele>
        <time>2022-06-11T08:14:53Z</time>
      </trkpt>
      <trkpt lat="44.40598" lon="4.39221">
        <ele>108.5</ele>
        <time>2022-06-11T08:14:54Z</time>
      </trkpt>
      <trkpt lat="44.40598" lon="4.39221">
        <ele>108.5</ele>
        <time>2022-06-11T08:14:55Z</time>
      </trkpt>
      <trkpt lat="44.40598" lon="4.39221">
        <ele>108.5</ele>
        <time>2022-06-11T08:14:56Z</time>
      </trkpt>
      <trkpt lat="44.40598" lon="4.39221">
        <ele>108.5</ele>
        <time>2022-06-11T08:14:57Z</time>
      </trkpt>
      <trkpt lat="44.40598" lon="4.39221">
        <ele>108.5</ele>
        <time>2022-06-11T08:14:58Z</time>
      </trkpt>
      <trkpt lat="44.40598" lon="4.39221">
        <ele>108.5</ele>
        <time>2022-06-11T08:14:59Z</time>
      </trkpt>
      <trkpt lat="44.40598" lon="4.39221">
        <ele>108.5</ele>
        <time>2022-06-11T08:15:00Z</time>
      </trkpt>
      <trkpt lat="44.40598" lon="4.39221">
        <ele>108.5</ele>
        <time>2022-06-11T08:15:01Z</time>
      </trkpt>
      <trkpt lat="44.40598" lon="4.39221">
        <ele>108.5</ele>
        <time>2022-06-11T08:15:02Z</time>
      </trkpt>
      <trkpt lat="44.40599" lon="4.39221">
        <ele>108.5</ele>
        <time>2022-06-11T08:15:03Z</time>
      </trkpt>
      <trkpt lat="44.40599" lon="4.39219">
        <ele>108.5</ele>
        <time>2022-06-11T08:15:05Z</time>
      </trkpt>
      <trkpt lat="44.40599" lon="4.39219">
        <ele>108.5</ele>
        <time>2022-06-11T08:15:06Z</time>
      </trkpt>
      <trkpt lat="44.40599" lon="4.39219">
        <ele>108.5</ele>
        <time>2022-06-11T08:15:07Z</time>
      </trkpt>
      <trkpt lat="44.40599" lon="4.39218">
        <ele>108.5</ele>
        <time>2022-06-11T08:15:08Z</time>
      </trkpt>
      <trkpt lat="44.40599" lon="4.39218">
        <ele>108.5</ele>
        <time>2022-06-11T08:15:09Z</time>
      </trkpt>
      <trkpt lat="44.40599" lon="4.39218">
        <ele>108.5</ele>
        <time>2022-06-11T08:15:10Z</time>
      </trkpt>
      <trkpt lat="44.40599" lon="4.39218">
        <ele>108.5</ele>
        <time>2022-06-11T08:15:11Z</time>
      </trkpt>
      <trkpt lat="44.40599" lon="4.39218">
        <ele>108.5</ele>
        <time>2022-06-11T08:15:12Z</time>
      </trkpt>
      <trkpt lat="44.40599" lon="4.39218">
        <ele>108.5</ele>
        <time>2022-06-11T08:15:13Z</time>
      </trkpt>
      <trkpt lat="44.40599" lon="4.39218">
        <ele>108.5</ele>
        <time>2022-06-11T08:15:14Z</time>
      </trkpt>
      <trkpt lat="44.40599" lon="4.39218">
        <ele>108.5</ele>
        <time>2022-06-11T08:15:15Z</time>
      </trkpt>
      <trkpt lat="44.40598" lon="4.39225">
        <ele>108.6</ele>
        <time>2022-06-11T08:17:55Z</time>
      </trkpt>
      <trkpt lat="44.40597" lon="4.39227">
        <ele>108.7</ele>
        <time>2022-06-11T08:17:56Z</time>
      </trkpt>
      <trkpt lat="44.40597" lon="4.39229">
        <ele>108.7</ele>
        <time>2022-06-11T08:17:57Z</time>
      </trkpt>
      <trkpt lat="44.40598" lon="4.39231">
        <ele>108.7</ele>
        <time>2022-06-11T08:17:58Z</time>
      </trkpt>
      <trkpt lat="44.40599" lon="4.39236">
        <ele>108.9</ele>
        <time>2022-06-11T08:17:59Z</time>
      </trkpt>
      <trkpt lat="44.406" lon="4.39242">
        <ele>109.2</ele>
        <time>2022-06-11T08:18:02Z</time>
      </trkpt>
      <trkpt lat="44.40599" lon="4.39244">
        <ele>109.3</ele>
        <time>2022-06-11T08:18:03Z</time>
      </trkpt>
      <trkpt lat="44.40599" lon="4.39246">
        <ele>109.4</ele>
        <time>2022-06-11T08:18:04Z</time>
      </trkpt>
      <trkpt lat="44.406" lon="4.3925">
        <ele>109.6</ele>
        <time>2022-06-11T08:18:05Z</time>
      </trkpt>
      <trkpt lat="44.406" lon="4.39251">
        <ele>109.6</ele>
        <time>2022-06-11T08:18:06Z</time>
      </trkpt>
      <trkpt lat="44.40601" lon="4.39253">
        <ele>109.7</ele>
        <time>2022-06-11T08:18:07Z</time>
      </trkpt>
      <trkpt lat="44.40602" lon="4.39255">
        <ele>109.9</ele>
        <time>2022-06-11T08:18:08Z</time>
      </trkpt>
      <trkpt lat="44.40602" lon="4.39259">
        <ele>110.1</ele>
        <time>2022-06-11T08:18:09Z</time>
      </trkpt>
      <trkpt lat="44.40602" lon="4.39261">
        <ele>110.2</ele>
        <time>2022-06-11T08:18:10Z</time>
      </trkpt>
      <trkpt lat="44.40603" lon="4.39264">
        <ele>110.4</ele>
        <time>2022-06-11T08:18:11Z</time>
      </trkpt>
      <trkpt lat="44.40603" lon="4.39266">
        <ele>110.4</ele>
        <time>2022-06-11T08:18:12Z</time>
      </trkpt>
      <trkpt lat="44.40604" lon="4.39268">
        <ele>110.6</ele>
        <time>2022-06-11T08:18:13Z</time>
      </trkpt>
      <trkpt lat="44.40605" lon="4.3927">
        <ele>110.7</ele>
        <time>2022-06-11T08:18:14Z</time>
      </trkpt>
      <trkpt lat="44.40606" lon="4.39274">
        <ele>110.9</ele>
        <time>2022-06-11T08:18:15Z</time>
      </trkpt>
      <trkpt lat="44.40607" lon="4.39275">
        <ele>111</ele>
        <time>2022-06-11T08:18:16Z</time>
      </trkpt>
      <trkpt lat="44.40608" lon="4.39278">
        <ele>111.2</ele>
        <time>2022-06-11T08:18:17Z</time>
      </trkpt>
      <trkpt lat="44.40609" lon="4.39279">
        <ele>111.3</ele>
        <time>2022-06-11T08:18:18Z</time>
      </trkpt>
      <trkpt lat="44.40611" lon="4.39282">
        <ele>111.5</ele>
        <time>2022-06-11T08:18:19Z</time>
      </trkpt>
      <trkpt lat="44.40611" lon="4.39284">
        <ele>111.6</ele>
        <time>2022-06-11T08:18:20Z</time>
      </trkpt>
      <trkpt lat="44.40613" lon="4.39288">
        <ele>111.8</ele>
        <time>2022-06-11T08:18:21Z</time>
      </trkpt>
      <trkpt lat="44.40613" lon="4.39289">
        <ele>111.9</ele>
        <time>2022-06-11T08:18:22Z</time>
      </trkpt>
      <trkpt lat="44.40614" lon="4.39291">
        <ele>112</ele>
        <time>2022-06-11T08:18:23Z</time>
      </trkpt>
      <trkpt lat="44.40615" lon="4.39292">
        <ele>112.1</ele>
        <time>2022-06-11T08:18:24Z</time>
      </trkpt>
      <trkpt lat="44.40617" lon="4.39295">
        <ele>112.3</ele>
        <time>2022-06-11T08:18:25Z</time>
      </trkpt>
      <trkpt lat="44.40617" lon="4.39296">
        <ele>112.4</ele>
        <time>2022-06-11T08:18:26Z</time>
      </trkpt>
      <trkpt lat="44.40618" lon="4.39298">
        <ele>112.5</ele>
        <time>2022-06-11T08:18:27Z</time>
      </trkpt>
      <trkpt lat="44.4062" lon="4.393">
        <ele>112.7</ele>
        <time>2022-06-11T08:18:28Z</time>
      </trkpt>
      <trkpt lat="44.40621" lon="4.39303">
        <ele>112.9</ele>
        <time>2022-06-11T08:18:29Z</time>
      </trkpt>
      <trkpt lat="44.40622" lon="4.39304">
        <ele>113</ele>
        <time>2022-06-11T08:18:30Z</time>
      </trkpt>
      <trkpt lat="44.40622" lon="4.39307">
        <ele>113.1</ele>
        <time>2022-06-11T08:18:31Z</time>
      </trkpt>
      <trkpt lat="44.40623" lon="4.39308">
        <ele>113.2</ele>
        <time>2022-06-11T08:18:32Z</time>
      </trkpt>
      <trkpt lat="44.40623" lon="4.39311">
        <ele>113.3</ele>
        <time>2022-06-11T08:18:33Z</time>
      </trkpt>
      <trkpt lat="44.40624" lon="4.39312">
        <ele>113.4</ele>
        <time>2022-06-11T08:18:34Z</time>
      </trkpt>
      <trkpt lat="44.40624" lon="4.39313">
        <ele>113.5</ele>
        <time>2022-06-11T08:18:35Z</time>
      </trkpt>
      <trkpt lat="44.40625" lon="4.39315">
        <ele>113.6</ele>
        <time>2022-06-11T08:18:36Z</time>
      </trkpt>
      <trkpt lat="44.40626" lon="4.39317">
        <ele>113.7</ele>
        <time>2022-06-11T08:18:37Z</time>
      </trkpt>
      <trkpt lat="44.40627" lon="4.39318">
        <ele>113.8</ele>
        <time>2022-06-11T08:18:38Z</time>
      </trkpt>
      <trkpt lat="44.4063" lon="4.39321">
        <ele>114</ele>
        <time>2022-06-11T08:18:39Z</time>
      </trkpt>
      <trkpt lat="44.40631" lon="4.39323">
        <ele>114.1</ele>
        <time>2022-06-11T08:18:40Z</time>
      </trkpt>
      <trkpt lat="44.40634" lon="4.39325">
        <ele>114.2</ele>
        <time>2022-06-11T08:18:42Z</time>
      </trkpt>
      <trkpt lat="44.40634" lon="4.39326">
        <ele>114.2</ele>
        <time>2022-06-11T08:18:43Z</time>
      </trkpt>
      <trkpt lat="44.40636" lon="4.39328">
        <ele>114.3</ele>
        <time>2022-06-11T08:18:44Z</time>
      </trkpt>
      <trkpt lat="44.40637" lon="4.3933">
        <ele>114.3</ele>
        <time>2022-06-11T08:18:45Z</time>
      </trkpt>
      <trkpt lat="44.40638" lon="4.39334">
        <ele>114.5</ele>
        <time>2022-06-11T08:18:46Z</time>
      </trkpt>
      <trkpt lat="44.40639" lon="4.3934">
        <ele>114.7</ele>
        <time>2022-06-11T08:18:48Z</time>
      </trkpt>
      <trkpt lat="44.40639" lon="4.39343">
        <ele>114.8</ele>
        <time>2022-06-11T08:18:49Z</time>
      </trkpt>
      <trkpt lat="44.4064" lon="4.39346">
        <ele>114.9</ele>
        <time>2022-06-11T08:18:51Z</time>
      </trkpt>
      <trkpt lat="44.40641" lon="4.39351">
        <ele>115</ele>
        <time>2022-06-11T08:18:52Z</time>
      </trkpt>
      <trkpt lat="44.40642" lon="4.39354">
        <ele>115.1</ele>
        <time>2022-06-11T08:18:53Z</time>
      </trkpt>
      <trkpt lat="44.40642" lon="4.39357">
        <ele>115.2</ele>
        <time>2022-06-11T08:18:55Z</time>
      </trkpt>
      <trkpt lat="44.40642" lon="4.3936">
        <ele>115.3</ele>
        <time>2022-06-11T08:18:56Z</time>
      </trkpt>
      <trkpt lat="44.40642" lon="4.39362">
        <ele>115.4</ele>
        <time>2022-06-11T08:18:57Z</time>
      </trkpt>
      <trkpt lat="44.40643" lon="4.39364">
        <ele>115.5</ele>
        <time>2022-06-11T08:18:58Z</time>
      </trkpt>
      <trkpt lat="44.40643" lon="4.39366">
        <ele>115.5</ele>
        <time>2022-06-11T08:18:59Z</time>
      </trkpt>
      <trkpt lat="44.40643" lon="4.39368">
        <ele>115.5</ele>
        <time>2022-06-11T08:19:00Z</time>
      </trkpt>
      <trkpt lat="44.40643" lon="4.3937">
        <ele>115.6</ele>
        <time>2022-06-11T08:19:01Z</time>
      </trkpt>
      <trkpt lat="44.40641" lon="4.39375">
        <ele>115.7</ele>
        <time>2022-06-11T08:19:02Z</time>
      </trkpt>
      <trkpt lat="44.4064" lon="4.39377">
        <ele>115.7</ele>
        <time>2022-06-11T08:19:03Z</time>
      </trkpt>
      <trkpt lat="44.40639" lon="4.3938">
        <ele>115.7</ele>
        <time>2022-06-11T08:19:04Z</time>
      </trkpt>
      <trkpt lat="44.40638" lon="4.39382">
        <ele>115.8</ele>
        <time>2022-06-11T08:19:06Z</time>
      </trkpt>
      <trkpt lat="44.40637" lon="4.39387">
        <ele>115.8</ele>
        <time>2022-06-11T08:19:08Z</time>
      </trkpt>
      <trkpt lat="44.40637" lon="4.39388">
        <ele>115.8</ele>
        <time>2022-06-11T08:19:09Z</time>
      </trkpt>
      <trkpt lat="44.40637" lon="4.39387">
        <ele>115.8</ele>
        <time>2022-06-11T08:19:10Z</time>
      </trkpt>
      <trkpt lat="44.40637" lon="4.39387">
        <ele>115.8</ele>
        <time>2022-06-11T08:19:11Z</time>
      </trkpt>
      <trkpt lat="44.40637" lon="4.39386">
        <ele>115.8</ele>
        <time>2022-06-11T08:19:12Z</time>
      </trkpt>
      <trkpt lat="44.40636" lon="4.39386">
        <ele>115.8</ele>
        <time>2022-06-11T08:19:13Z</time>
      </trkpt>
      <trkpt lat="44.40636" lon="4.39386">
        <ele>115.9</ele>
        <time>2022-06-11T08:19:14Z</time>
      </trkpt>
      <trkpt lat="44.40636" lon="4.39386">
        <ele>115.9</ele>
        <time>2022-06-11T08:19:15Z</time>
      </trkpt>
      <trkpt lat="44.40636" lon="4.39385">
        <ele>115.9</ele>
        <time>2022-06-11T08:19:16Z</time>
      </trkpt>
      <trkpt lat="44.40636" lon="4.39385">
        <ele>115.9</ele>
        <time>2022-06-11T08:19:17Z</time>
      </trkpt>
      <trkpt lat="44.40636" lon="4.39385">
        <ele>115.9</ele>
        <time>2022-06-11T08:19:18Z</time>
      </trkpt>
      <trkpt lat="44.40636" lon="4.39385">
        <ele>115.9</ele>
        <time>2022-06-11T08:19:19Z</time>
      </trkpt>
      <trkpt lat="44.40638" lon="4.39382">
        <ele>115.9</ele>
        <time>2022-06-11T08:22:37Z</time>
      </trkpt>
      <trkpt lat="44.40638" lon="4.39382">
        <ele>115.9</ele>
        <time>2022-06-11T08:22:38Z</time>
      </trkpt>
      <trkpt lat="44.40638" lon="4.39384">
        <ele>115.9</ele>
        <time>2022-06-11T08:22:39Z</time>
      </trkpt>
      <trkpt lat="44.40638" lon="4.39385">
        <ele>115.9</ele>
        <time>2022-06-11T08:22:40Z</time>
      </trkpt>
      <trkpt lat="44.40637" lon="4.39385">
        <ele>115.9</ele>
        <time>2022-06-11T08:22:41Z</time>
      </trkpt>
      <trkpt lat="44.40637" lon="4.39386">
        <ele>115.9</ele>
        <time>2022-06-11T08:22:42Z</time>
      </trkpt>
      <trkpt lat="44.40637" lon="4.39386">
        <ele>115.9</ele>
        <time>2022-06-11T08:22:43Z</time>
      </trkpt>
      <trkpt lat="44.40637" lon="4.39386">
        <ele>115.9</ele>
        <time>2022-06-11T08:22:44Z</time>
      </trkpt>
      <trkpt lat="44.40637" lon="4.39386">
        <ele>115.9</ele>
        <time>2022-06-11T08:22:45Z</time>
      </trkpt>
      <trkpt lat="44.40637" lon="4.39386">
        <ele>115.9</ele>
        <time>2022-06-11T08:22:46Z</time>
      </trkpt>
      <trkpt lat="44.40637" lon="4.39386">
        <ele>115.9</ele>
        <time>2022-06-11T08:22:47Z</time>
      </trkpt>
      <trkpt lat="44.40637" lon="4.39386">
        <ele>115.9</ele>
        <time>2022-06-11T08:22:48Z</time>
      </trkpt>
      <trkpt lat="44.40638" lon="4.39386">
        <ele>115.9</ele>
        <time>2022-06-11T08:22:49Z</time>
      </trkpt>
      <trkpt lat="44.40638" lon="4.39386">
        <ele>115.9</ele>
        <time>2022-06-11T08:22:50Z</time>
      </trkpt>
      <trkpt lat="44.40638" lon="4.39386">
        <ele>116</ele>
        <time>2022-06-11T08:22:51Z</time>
      </trkpt>
      <trkpt lat="44.40636" lon="4.39389">
        <ele>116</ele>
        <time>2022-06-11T08:22:57Z</time>
      </trkpt>
      <trkpt lat="44.40635" lon="4.39391">
        <ele>116</ele>
        <time>2022-06-11T08:22:58Z</time>
      </trkpt>
      <trkpt lat="44.40634" lon="4.39392">
        <ele>116</ele>
        <time>2022-06-11T08:22:59Z</time>
      </trkpt>
      <trkpt lat="44.40634" lon="4.39394">
        <ele>116</ele>
        <time>2022-06-11T08:23:00Z</time>
      </trkpt>
      <trkpt lat="44.40633" lon="4.39395">
        <ele>116.1</ele>
        <time>2022-06-11T08:23:01Z</time>
      </trkpt>
      <trkpt lat="44.40633" lon="4.39397">
        <ele>116.1</ele>
        <time>2022-06-11T08:23:02Z</time>
      </trkpt>
      <trkpt lat="44.40632" lon="4.39399">
        <ele>116.1</ele>
        <time>2022-06-11T08:23:03Z</time>
      </trkpt>
      <trkpt lat="44.40631" lon="4.394">
        <ele>116.1</ele>
        <time>2022-06-11T08:23:04Z</time>
      </trkpt>
      <trkpt lat="44.40631" lon="4.39401">
        <ele>116.1</ele>
        <time>2022-06-11T08:23:05Z</time>
      </trkpt>
      <trkpt lat="44.4063" lon="4.39402">
        <ele>116.1</ele>
        <time>2022-06-11T08:23:06Z</time>
      </trkpt>
      <trkpt lat="44.40629" lon="4.39404">
        <ele>116.2</ele>
        <time>2022-06-11T08:23:07Z</time>
      </trkpt>
      <trkpt lat="44.40629" lon="4.39405">
        <ele>116.2</ele>
        <time>2022-06-11T08:23:08Z</time>
      </trkpt>
      <trkpt lat="44.40629" lon="4.39406">
        <ele>116.2</ele>
        <time>2022-06-11T08:23:09Z</time>
      </trkpt>
      <trkpt lat="44.40628" lon="4.39407">
        <ele>116.2</ele>
        <time>2022-06-11T08:23:10Z</time>
      </trkpt>
      <trkpt lat="44.40628" lon="4.39408">
        <ele>116.2</ele>
        <time>2022-06-11T08:23:11Z</time>
      </trkpt>
      <trkpt lat="44.40628" lon="4.39409">
        <ele>116.2</ele>
        <time>2022-06-11T08:23:12Z</time>
      </trkpt>
      <trkpt lat="44.40628" lon="4.39409">
        <ele>116.2</ele>
        <time>2022-06-11T08:23:13Z</time>
      </trkpt>
      <trkpt lat="44.40627" lon="4.3941">
        <ele>116.2</ele>
        <time>2022-06-11T08:23:14Z</time>
      </trkpt>
      <trkpt lat="44.40627" lon="4.3941">
        <ele>116.2</ele>
        <time>2022-06-11T08:23:15Z</time>
      </trkpt>
      <trkpt lat="44.40627" lon="4.39409">
        <ele>116.2</ele>
        <time>2022-06-11T08:23:16Z</time>
      </trkpt>
      <trkpt lat="44.40626" lon="4.39409">
        <ele>116.2</ele>
        <time>2022-06-11T08:23:17Z</time>
      </trkpt>
      <trkpt lat="44.40626" lon="4.39409">
        <ele>116.3</ele>
        <time>2022-06-11T08:23:18Z</time>
      </trkpt>
      <trkpt lat="44.40626" lon="4.39409">
        <ele>116.3</ele>
        <time>2022-06-11T08:23:19Z</time>
      </trkpt>
      <trkpt lat="44.40626" lon="4.39409">
        <ele>116.3</ele>
        <time>2022-06-11T08:23:20Z</time>
      </trkpt>
      <trkpt lat="44.40626" lon="4.39409">
        <ele>116.3</ele>
        <time>2022-06-11T08:23:21Z</time>
      </trkpt>
      <trkpt lat="44.40626" lon="4.39409">
        <ele>116.3</ele>
        <time>2022-06-11T08:23:22Z</time>
      </trkpt>
      <trkpt lat="44.40626" lon="4.39409">
        <ele>116.3</ele>
        <time>2022-06-11T08:23:23Z</time>
      </trkpt>
      <trkpt lat="44.40626" lon="4.39409">
        <ele>116.3</ele>
        <time>2022-06-11T08:23:24Z</time>
      </trkpt>
      <trkpt lat="44.40625" lon="4.39411">
        <ele>116.3</ele>
        <time>2022-06-11T08:23:47Z</time>
      </trkpt>
      <trkpt lat="44.40625" lon="4.39411">
        <ele>116.3</ele>
        <time>2022-06-11T08:23:48Z</time>
      </trkpt>
      <trkpt lat="44.40624" lon="4.39412">
        <ele>116.3</ele>
        <time>2022-06-11T08:23:49Z</time>
      </trkpt>
      <trkpt lat="44.40624" lon="4.39413">
        <ele>116.3</ele>
        <time>2022-06-11T08:23:50Z</time>
      </trkpt>
      <trkpt lat="44.40625" lon="4.39414">
        <ele>116.3</ele>
        <time>2022-06-11T08:23:51Z</time>
      </trkpt>
      <trkpt lat="44.40625" lon="4.39415">
        <ele>116.3</ele>
        <time>2022-06-11T08:23:52Z</time>
      </trkpt>
      <trkpt lat="44.40625" lon="4.39415">
        <ele>116.3</ele>
        <time>2022-06-11T08:23:53Z</time>
      </trkpt>
      <trkpt lat="44.40625" lon="4.39415">
        <ele>116.3</ele>
        <time>2022-06-11T08:23:54Z</time>
      </trkpt>
      <trkpt lat="44.40626" lon="4.39416">
        <ele>116.3</ele>
        <time>2022-06-11T08:23:55Z</time>
      </trkpt>
      <trkpt lat="44.40626" lon="4.39417">
        <ele>116.5</ele>
        <time>2022-06-11T08:23:56Z</time>
      </trkpt>
      <trkpt lat="44.40626" lon="4.39417">
        <ele>116.5</ele>
        <time>2022-06-11T08:23:57Z</time>
      </trkpt>
      <trkpt lat="44.40627" lon="4.39417">
        <ele>116.5</ele>
        <time>2022-06-11T08:23:58Z</time>
      </trkpt>
      <trkpt lat="44.40627" lon="4.39417">
        <ele>116.5</ele>
        <time>2022-06-11T08:23:59Z</time>
      </trkpt>
      <trkpt lat="44.40628" lon="4.39417">
        <ele>116.5</ele>
        <time>2022-06-11T08:24:00Z</time>
      </trkpt>
      <trkpt lat="44.40629" lon="4.39419">
        <ele>116.5</ele>
        <time>2022-06-11T08:24:01Z</time>
      </trkpt>
      <trkpt lat="44.40629" lon="4.3942">
        <ele>116.5</ele>
        <time>2022-06-11T08:24:03Z</time>
      </trkpt>
      <trkpt lat="44.40629" lon="4.39421">
        <ele>116.5</ele>
        <time>2022-06-11T08:24:04Z</time>
      </trkpt>
      <trkpt lat="44.40629" lon="4.39425">
        <ele>116.6</ele>
        <time>2022-06-11T08:24:05Z</time>
      </trkpt>
      <trkpt lat="44.4063" lon="4.39427">
        <ele>116.6</ele>
        <time>2022-06-11T08:24:06Z</time>
      </trkpt>
      <trkpt lat="44.40632" lon="4.3943">
        <ele>116.6</ele>
        <time>2022-06-11T08:24:07Z</time>
      </trkpt>
      <trkpt lat="44.40635" lon="4.39433">
        <ele>116.7</ele>
        <time>2022-06-11T08:24:08Z</time>
      </trkpt>
      <trkpt lat="44.40638" lon="4.39436">
        <ele>116.8</ele>
        <time>2022-06-11T08:24:09Z</time>
      </trkpt>
      <trkpt lat="44.4064" lon="4.3944">
        <ele>116.8</ele>
        <time>2022-06-11T08:24:11Z</time>
      </trkpt>
      <trkpt lat="44.40641" lon="4.39441">
        <ele>116.8</ele>
        <time>2022-06-11T08:24:12Z</time>
      </trkpt>
      <trkpt lat="44.40644" lon="4.39446">
        <ele>116.9</ele>
        <time>2022-06-11T08:24:13Z</time>
      </trkpt>
      <trkpt lat="44.40645" lon="4.39448">
        <ele>117</ele>
        <time>2022-06-11T08:24:14Z</time>
      </trkpt>
      <trkpt lat="44.40647" lon="4.3945">
        <ele>117.1</ele>
        <time>2022-06-11T08:24:15Z</time>
      </trkpt>
      <trkpt lat="44.40651" lon="4.39453">
        <ele>117.2</ele>
        <time>2022-06-11T08:24:17Z</time>
      </trkpt>
      <trkpt lat="44.40652" lon="4.39454">
        <ele>117.2</ele>
        <time>2022-06-11T08:24:18Z</time>
      </trkpt>
      <trkpt lat="44.40653" lon="4.39454">
        <ele>117.3</ele>
        <time>2022-06-11T08:24:19Z</time>
      </trkpt>
      <trkpt lat="44.40656" lon="4.39456">
        <ele>117.3</ele>
        <time>2022-06-11T08:24:20Z</time>
      </trkpt>
      <trkpt lat="44.40657" lon="4.39457">
        <ele>117.4</ele>
        <time>2022-06-11T08:24:21Z</time>
      </trkpt>
      <trkpt lat="44.40659" lon="4.39459">
        <ele>117.4</ele>
        <time>2022-06-11T08:24:22Z</time>
      </trkpt>
      <trkpt lat="44.4066" lon="4.3946">
        <ele>117.4</ele>
        <time>2022-06-11T08:24:23Z</time>
      </trkpt>
      <trkpt lat="44.40662" lon="4.39461">
        <ele>117.5</ele>
        <time>2022-06-11T08:24:24Z</time>
      </trkpt>
      <trkpt lat="44.40665" lon="4.39464">
        <ele>117.6</ele>
        <time>2022-06-11T08:24:26Z</time>
      </trkpt>
      <trkpt lat="44.40666" lon="4.39465">
        <ele>117.6</ele>
        <time>2022-06-11T08:24:27Z</time>
      </trkpt>
      <trkpt lat="44.40667" lon="4.39466">
        <ele>117.6</ele>
        <time>2022-06-11T08:24:28Z</time>
      </trkpt>
      <trkpt lat="44.40671" lon="4.39463">
        <ele>117.7</ele>
        <time>2022-06-11T08:24:30Z</time>
      </trkpt>
      <trkpt lat="44.40671" lon="4.39463">
        <ele>117.7</ele>
        <time>2022-06-11T08:24:31Z</time>
      </trkpt>
      <trkpt lat="44.4067" lon="4.39463">
        <ele>117.7</ele>
        <time>2022-06-11T08:24:32Z</time>
      </trkpt>
      <trkpt lat="44.4067" lon="4.39464">
        <ele>117.7</ele>
        <time>2022-06-11T08:24:33Z</time>
      </trkpt>
      <trkpt lat="44.4067" lon="4.39464">
        <ele>117.7</ele>
        <time>2022-06-11T08:24:34Z</time>
      </trkpt>
      <trkpt lat="44.4067" lon="4.39464">
        <ele>117.7</ele>
        <time>2022-06-11T08:24:35Z</time>
      </trkpt>
      <trkpt lat="44.4067" lon="4.39464">
        <ele>117.7</ele>
        <time>2022-06-11T08:24:36Z</time>
      </trkpt>
      <trkpt lat="44.4067" lon="4.39464">
        <ele>117.7</ele>
        <time>2022-06-11T08:24:37Z</time>
      </trkpt>
      <trkpt lat="44.40669" lon="4.39464">
        <ele>117.7</ele>
        <time>2022-06-11T08:24:38Z</time>
      </trkpt>
      <trkpt lat="44.40669" lon="4.39464">
        <ele>117.7</ele>
        <time>2022-06-11T08:24:39Z</time>
      </trkpt>
      <trkpt lat="44.40669" lon="4.39464">
        <ele>117.7</ele>
        <time>2022-06-11T08:24:40Z</time>
      </trkpt>
      <trkpt lat="44.40669" lon="4.39465">
        <ele>117.7</ele>
        <time>2022-06-11T08:24:41Z</time>
      </trkpt>
      <trkpt lat="44.40669" lon="4.39465">
        <ele>117.7</ele>
        <time>2022-06-11T08:24:42Z</time>
      </trkpt>
      <trkpt lat="44.40668" lon="4.39465">
        <ele>117.7</ele>
        <time>2022-06-11T08:24:43Z</time>
      </trkpt>
      <trkpt lat="44.40668" lon="4.39465">
        <ele>117.8</ele>
        <time>2022-06-11T08:24:44Z</time>
      </trkpt>
      <trkpt lat="44.40668" lon="4.39465">
        <ele>117.8</ele>
        <time>2022-06-11T08:24:45Z</time>
      </trkpt>
      <trkpt lat="44.40671" lon="4.39468">
        <ele>117.8</ele>
        <time>2022-06-11T08:28:50Z</time>
      </trkpt>
      <trkpt lat="44.40671" lon="4.39468">
        <ele>117.8</ele>
        <time>2022-06-11T08:28:51Z</time>
      </trkpt>
      <trkpt lat="44.40672" lon="4.39469">
        <ele>117.9</ele>
        <time>2022-06-11T08:28:52Z</time>
      </trkpt>
      <trkpt lat="44.40673" lon="4.39469">
        <ele>117.9</ele>
        <time>2022-06-11T08:28:53Z</time>
      </trkpt>
      <trkpt lat="44.40673" lon="4.39469">
        <ele>117.9</ele>
        <time>2022-06-11T08:28:54Z</time>
      </trkpt>
      <trkpt lat="44.40674" lon="4.39469">
        <ele>117.9</ele>
        <time>2022-06-11T08:28:55Z</time>
      </trkpt>
      <trkpt lat="44.40675" lon="4.3947">
        <ele>117.9</ele>
        <time>2022-06-11T08:28:56Z</time>
      </trkpt>
      <trkpt lat="44.40675" lon="4.3947">
        <ele>117.9</ele>
        <time>2022-06-11T08:28:57Z</time>
      </trkpt>
      <trkpt lat="44.40675" lon="4.3947">
        <ele>117.9</ele>
        <time>2022-06-11T08:28:58Z</time>
      </trkpt>
      <trkpt lat="44.40676" lon="4.3947">
        <ele>117.9</ele>
        <time>2022-06-11T08:28:59Z</time>
      </trkpt>
      <trkpt lat="44.40677" lon="4.39471">
        <ele>118</ele>
        <time>2022-06-11T08:29:00Z</time>
      </trkpt>
      <trkpt lat="44.40678" lon="4.39473">
        <ele>118</ele>
        <time>2022-06-11T08:29:01Z</time>
      </trkpt>
      <trkpt lat="44.4068" lon="4.39475">
        <ele>118.1</ele>
        <time>2022-06-11T08:29:02Z</time>
      </trkpt>
      <trkpt lat="44.40683" lon="4.3948">
        <ele>118.2</ele>
        <time>2022-06-11T08:29:04Z</time>
      </trkpt>
      <trkpt lat="44.40683" lon="4.39481">
        <ele>118.2</ele>
        <time>2022-06-11T08:29:06Z</time>
      </trkpt>
      <trkpt lat="44.40684" lon="4.39482">
        <ele>118.2</ele>
        <time>2022-06-11T08:29:07Z</time>
      </trkpt>
      <trkpt lat="44.40685" lon="4.39483">
        <ele>118.2</ele>
        <time>2022-06-11T08:29:08Z</time>
      </trkpt>
      <trkpt lat="44.40685" lon="4.39484">
        <ele>118.3</ele>
        <time>2022-06-11T08:29:09Z</time>
      </trkpt>
      <trkpt lat="44.40686" lon="4.39485">
        <ele>118.3</ele>
        <time>2022-06-11T08:29:10Z</time>
      </trkpt>
      <trkpt lat="44.40686" lon="4.39486">
        <ele>118.3</ele>
        <time>2022-06-11T08:29:12Z</time>
      </trkpt>
      <trkpt lat="44.40685" lon="4.39486">
        <ele>118.3</ele>
        <time>2022-06-11T08:29:13Z</time>
      </trkpt>
      <trkpt lat="44.40685" lon="4.39486">
        <ele>118.3</ele>
        <time>2022-06-11T08:29:14Z</time>
      </trkpt>
      <trkpt lat="44.40685" lon="4.39486">
        <ele>118.3</ele>
        <time>2022-06-11T08:29:15Z</time>
      </trkpt>
      <trkpt lat="44.40685" lon="4.39486">
        <ele>118.3</ele>
        <time>2022-06-11T08:29:16Z</time>
      </trkpt>
      <trkpt lat="44.40685" lon="4.39486">
        <ele>118.3</ele>
        <time>2022-06-11T08:29:17Z</time>
      </trkpt>
      <trkpt lat="44.40685" lon="4.39486">
        <ele>118.3</ele>
        <time>2022-06-11T08:29:19Z</time>
      </trkpt>
      <trkpt lat="44.40686" lon="4.3949">
        <ele>118.4</ele>
        <time>2022-06-11T08:30:54Z</time>
      </trkpt>
      <trkpt lat="44.40687" lon="4.3949">
        <ele>118.4</ele>
        <time>2022-06-11T08:30:55Z</time>
      </trkpt>
      <trkpt lat="44.40689" lon="4.3949">
        <ele>118.4</ele>
        <time>2022-06-11T08:30:56Z</time>
      </trkpt>
      <trkpt lat="44.4069" lon="4.39489">
        <ele>118.5</ele>
        <time>2022-06-11T08:30:57Z</time>
      </trkpt>
      <trkpt lat="44.4069" lon="4.39488">
        <ele>118.5</ele>
        <time>2022-06-11T08:30:58Z</time>
      </trkpt>
      <trkpt lat="44.40691" lon="4.39487">
        <ele>118.5</ele>
        <time>2022-06-11T08:30:59Z</time>
      </trkpt>
      <trkpt lat="44.40691" lon="4.39487">
        <ele>118.5</ele>
        <time>2022-06-11T08:31:00Z</time>
      </trkpt>
      <trkpt lat="44.40692" lon="4.39487">
        <ele>118.5</ele>
        <time>2022-06-11T08:31:01Z</time>
      </trkpt>
      <trkpt lat="44.40692" lon="4.39487">
        <ele>118.7</ele>
        <time>2022-06-11T08:31:02Z</time>
      </trkpt>
      <trkpt lat="44.40692" lon="4.39487">
        <ele>118.7</ele>
        <time>2022-06-11T08:31:03Z</time>
      </trkpt>
      <trkpt lat="44.40693" lon="4.39487">
        <ele>118.8</ele>
        <time>2022-06-11T08:31:04Z</time>
      </trkpt>
      <trkpt lat="44.40693" lon="4.39487">
        <ele>118.8</ele>
        <time>2022-06-11T08:31:05Z</time>
      </trkpt>
      <trkpt lat="44.40694" lon="4.39486">
        <ele>118.8</ele>
        <time>2022-06-11T08:31:06Z</time>
      </trkpt>
      <trkpt lat="44.40695" lon="4.39486">
        <ele>118.8</ele>
        <time>2022-06-11T08:31:07Z</time>
      </trkpt>
      <trkpt lat="44.40696" lon="4.39485">
        <ele>118.9</ele>
        <time>2022-06-11T08:31:08Z</time>
      </trkpt>
      <trkpt lat="44.40697" lon="4.39484">
        <ele>118.9</ele>
        <time>2022-06-11T08:31:09Z</time>
      </trkpt>
      <trkpt lat="44.40697" lon="4.39483">
        <ele>118.9</ele>
        <time>2022-06-11T08:31:10Z</time>
      </trkpt>
      <trkpt lat="44.40698" lon="4.39482">
        <ele>118.9</ele>
        <time>2022-06-11T08:31:11Z</time>
      </trkpt>
      <trkpt lat="44.40698" lon="4.39481">
        <ele>118.9</ele>
        <time>2022-06-11T08:31:12Z</time>
      </trkpt>
      <trkpt lat="44.40699" lon="4.3948">
        <ele>119</ele>
        <time>2022-06-11T08:31:13Z</time>
      </trkpt>
      <trkpt lat="44.407" lon="4.39479">
        <ele>119</ele>
        <time>2022-06-11T08:31:14Z</time>
      </trkpt>
      <trkpt lat="44.40701" lon="4.39477">
        <ele>119</ele>
        <time>2022-06-11T08:31:15Z</time>
      </trkpt>
      <trkpt lat="44.40702" lon="4.39475">
        <ele>119</ele>
        <time>2022-06-11T08:31:17Z</time>
      </trkpt>
      <trkpt lat="44.40703" lon="4.39474">
        <ele>119.1</ele>
        <time>2022-06-11T08:31:18Z</time>
      </trkpt>
      <trkpt lat="44.40704" lon="4.39472">
        <ele>119.1</ele>
        <time>2022-06-11T08:31:19Z</time>
      </trkpt>
      <trkpt lat="44.40705" lon="4.3947">
        <ele>119.1</ele>
        <time>2022-06-11T08:31:21Z</time>
      </trkpt>
      <trkpt lat="44.40706" lon="4.39469">
        <ele>119.2</ele>
        <time>2022-06-11T08:31:22Z</time>
      </trkpt>
      <trkpt lat="44.40707" lon="4.39468">
        <ele>119.2</ele>
        <time>2022-06-11T08:31:23Z</time>
      </trkpt>
      <trkpt lat="44.40708" lon="4.39467">
        <ele>119.2</ele>
        <time>2022-06-11T08:31:24Z</time>
      </trkpt>
      <trkpt lat="44.40709" lon="4.39463">
        <ele>119.2</ele>
        <time>2022-06-11T08:31:25Z</time>
      </trkpt>
      <trkpt lat="44.4071" lon="4.39462">
        <ele>119.2</ele>
        <time>2022-06-11T08:31:27Z</time>
      </trkpt>
      <trkpt lat="44.40711" lon="4.3946">
        <ele>119.3</ele>
        <time>2022-06-11T08:31:28Z</time>
      </trkpt>
      <trkpt lat="44.40712" lon="4.39459">
        <ele>119.3</ele>
        <time>2022-06-11T08:31:29Z</time>
      </trkpt>
      <trkpt lat="44.40713" lon="4.39455">
        <ele>119.3</ele>
        <time>2022-06-11T08:31:30Z</time>
      </trkpt>
      <trkpt lat="44.40713" lon="4.39454">
        <ele>119.3</ele>
        <time>2022-06-11T08:31:32Z</time>
      </trkpt>
      <trkpt lat="44.40714" lon="4.39451">
        <ele>119.3</ele>
        <time>2022-06-11T08:31:34Z</time>
      </trkpt>
      <trkpt lat="44.40715" lon="4.3945">
        <ele>119.4</ele>
        <time>2022-06-11T08:31:35Z</time>
      </trkpt>
      <trkpt lat="44.40715" lon="4.39448">
        <ele>119.4</ele>
        <time>2022-06-11T08:31:36Z</time>
      </trkpt>
      <trkpt lat="44.40715" lon="4.39447">
        <ele>119.4</ele>
        <time>2022-06-11T08:31:37Z</time>
      </trkpt>
      <trkpt lat="44.40716" lon="4.39445">
        <ele>119.4</ele>
        <time>2022-06-11T08:31:38Z</time>
      </trkpt>
      <trkpt lat="44.40716" lon="4.39443">
        <ele>119.4</ele>
        <time>2022-06-11T08:31:39Z</time>
      </trkpt>
      <trkpt lat="44.40716" lon="4.3944">
        <ele>119.4</ele>
        <time>2022-06-11T08:31:40Z</time>
      </trkpt>
      <trkpt lat="44.40716" lon="4.39438">
        <ele>119.4</ele>
        <time>2022-06-11T08:31:41Z</time>
      </trkpt>
      <trkpt lat="44.40716" lon="4.39437">
        <ele>119.4</ele>
        <time>2022-06-11T08:31:43Z</time>
      </trkpt>
      <trkpt lat="44.40715" lon="4.39436">
        <ele>119.4</ele>
        <time>2022-06-11T08:31:44Z</time>
      </trkpt>
      <trkpt lat="44.40715" lon="4.39436">
        <ele>119.4</ele>
        <time>2022-06-11T08:31:45Z</time>
      </trkpt>
      <trkpt lat="44.40715" lon="4.39437">
        <ele>119.4</ele>
        <time>2022-06-11T08:31:46Z</time>
      </trkpt>
      <trkpt lat="44.40715" lon="4.39437">
        <ele>119.4</ele>
        <time>2022-06-11T08:31:47Z</time>
      </trkpt>
      <trkpt lat="44.40715" lon="4.39438">
        <ele>119.4</ele>
        <time>2022-06-11T08:31:48Z</time>
      </trkpt>
      <trkpt lat="44.40715" lon="4.39438">
        <ele>119.4</ele>
        <time>2022-06-11T08:31:49Z</time>
      </trkpt>
      <trkpt lat="44.40715" lon="4.39438">
        <ele>119.4</ele>
        <time>2022-06-11T08:31:50Z</time>
      </trkpt>
      <trkpt lat="44.40715" lon="4.39438">
        <ele>119.4</ele>
        <time>2022-06-11T08:31:51Z</time>
      </trkpt>
      <trkpt lat="44.40715" lon="4.39438">
        <ele>119.4</ele>
        <time>2022-06-11T08:31:52Z</time>
      </trkpt>
      <trkpt lat="44.40715" lon="4.39438">
        <ele>119.4</ele>
        <time>2022-06-11T08:31:53Z</time>
      </trkpt>
      <trkpt lat="44.40715" lon="4.39438">
        <ele>119.4</ele>
        <time>2022-06-11T08:31:54Z</time>
      </trkpt>
      <trkpt lat="44.40712" lon="4.39439">
        <ele>119.5</ele>
        <time>2022-06-11T08:32:21Z</time>
      </trkpt>
      <trkpt lat="44.40711" lon="4.39437">
        <ele>119.5</ele>
        <time>2022-06-11T08:32:22Z</time>
      </trkpt>
      <trkpt lat="44.40709" lon="4.39436">
        <ele>119.5</ele>
        <time>2022-06-11T08:32:24Z</time>
      </trkpt>
      <trkpt lat="44.40709" lon="4.39433">
        <ele>119.6</ele>
        <time>2022-06-11T08:32:25Z</time>
      </trkpt>
      <trkpt lat="44.40709" lon="4.39432">
        <ele>119.6</ele>
        <time>2022-06-11T08:32:26Z</time>
      </trkpt>
      <trkpt lat="44.40709" lon="4.39431">
        <ele>119.6</ele>
        <time>2022-06-11T08:32:27Z</time>
      </trkpt>
      <trkpt lat="44.40709" lon="4.39431">
        <ele>119.6</ele>
        <time>2022-06-11T08:32:28Z</time>
      </trkpt>
      <trkpt lat="44.40709" lon="4.39431">
        <ele>119.6</ele>
        <time>2022-06-11T08:32:29Z</time>
      </trkpt>
      <trkpt lat="44.40709" lon="4.3943">
        <ele>119.6</ele>
        <time>2022-06-11T08:32:30Z</time>
      </trkpt>
      <trkpt lat="44.4071" lon="4.3943">
        <ele>119.6</ele>
        <time>2022-06-11T08:32:31Z</time>
      </trkpt>
      <trkpt lat="44.4071" lon="4.3943">
        <ele>119.6</ele>
        <time>2022-06-11T08:32:32Z</time>
      </trkpt>
      <trkpt lat="44.4071" lon="4.3943">
        <ele>119.6</ele>
        <time>2022-06-11T08:32:33Z</time>
      </trkpt>
      <trkpt lat="44.4071" lon="4.3943">
        <ele>119.6</ele>
        <time>2022-06-11T08:32:34Z</time>
      </trkpt>
      <trkpt lat="44.40708" lon="4.39433">
        <ele>119.6</ele>
        <time>2022-06-11T09:00:03Z</time>
      </trkpt>
      <trkpt lat="44.40707" lon="4.39434">
        <ele>119.6</ele>
        <time>2022-06-11T09:00:04Z</time>
      </trkpt>
      <trkpt lat="44.40706" lon="4.39435">
        <ele>119.6</ele>
        <time>2022-06-11T09:00:05Z</time>
      </trkpt>
      <trkpt lat="44.40706" lon="4.39436">
        <ele>119.6</ele>
        <time>2022-06-11T09:00:06Z</time>
      </trkpt>
      <trkpt lat="44.40706" lon="4.39436">
        <ele>119.6</ele>
        <time>2022-06-11T09:00:07Z</time>
      </trkpt>
      <trkpt lat="44.40705" lon="4.39437">
        <ele>119.6</ele>
        <time>2022-06-11T09:00:08Z</time>
      </trkpt>
      <trkpt lat="44.40705" lon="4.39437">
        <ele>119.6</ele>
        <time>2022-06-11T09:00:09Z</time>
      </trkpt>
      <trkpt lat="44.40705" lon="4.39438">
        <ele>119.6</ele>
        <time>2022-06-11T09:00:10Z</time>
      </trkpt>
      <trkpt lat="44.40704" lon="4.39439">
        <ele>119.6</ele>
        <time>2022-06-11T09:00:11Z</time>
      </trkpt>
      <trkpt lat="44.40703" lon="4.3944">
        <ele>119.6</ele>
        <time>2022-06-11T09:00:12Z</time>
      </trkpt>
      <trkpt lat="44.40702" lon="4.3944">
        <ele>119.6</ele>
        <time>2022-06-11T09:00:13Z</time>
      </trkpt>
      <trkpt lat="44.40701" lon="4.39439">
        <ele>119.6</ele>
        <time>2022-06-11T09:00:14Z</time>
      </trkpt>
      <trkpt lat="44.40701" lon="4.39438">
        <ele>119.6</ele>
        <time>2022-06-11T09:00:15Z</time>
      </trkpt>
      <trkpt lat="44.40702" lon="4.39436">
        <ele>119.6</ele>
        <time>2022-06-11T09:00:16Z</time>
      </trkpt>
      <trkpt lat="44.40702" lon="4.39435">
        <ele>119.6</ele>
        <time>2022-06-11T09:00:17Z</time>
      </trkpt>
      <trkpt lat="44.40702" lon="4.39433">
        <ele>119.6</ele>
        <time>2022-06-11T09:00:18Z</time>
      </trkpt>
      <trkpt lat="44.40702" lon="4.39432">
        <ele>119.6</ele>
        <time>2022-06-11T09:00:19Z</time>
      </trkpt>
      <trkpt lat="44.40703" lon="4.39431">
        <ele>119.6</ele>
        <time>2022-06-11T09:00:20Z</time>
      </trkpt>
      <trkpt lat="44.40703" lon="4.39429">
        <ele>119.6</ele>
        <time>2022-06-11T09:00:21Z</time>
      </trkpt>
      <trkpt lat="44.40703" lon="4.39428">
        <ele>119.6</ele>
        <time>2022-06-11T09:00:22Z</time>
      </trkpt>
      <trkpt lat="44.40704" lon="4.39428">
        <ele>119.6</ele>
        <time>2022-06-11T09:00:23Z</time>
      </trkpt>
      <trkpt lat="44.40704" lon="4.39428">
        <ele>119.6</ele>
        <time>2022-06-11T09:00:24Z</time>
      </trkpt>
      <trkpt lat="44.40705" lon="4.39428">
        <ele>119.6</ele>
        <time>2022-06-11T09:00:25Z</time>
      </trkpt>
      <trkpt lat="44.40705" lon="4.39429">
        <ele>119.6</ele>
        <time>2022-06-11T09:00:26Z</time>
      </trkpt>
      <trkpt lat="44.40706" lon="4.39429">
        <ele>119.6</ele>
        <time>2022-06-11T09:00:27Z</time>
      </trkpt>
      <trkpt lat="44.40706" lon="4.3943">
        <ele>119.6</ele>
        <time>2022-06-11T09:00:28Z</time>
      </trkpt>
      <trkpt lat="44.40707" lon="4.3943">
        <ele>119.6</ele>
        <time>2022-06-11T09:00:29Z</time>
      </trkpt>
      <trkpt lat="44.40707" lon="4.3943">
        <ele>119.6</ele>
        <time>2022-06-11T09:00:30Z</time>
      </trkpt>
      <trkpt lat="44.40708" lon="4.39431">
        <ele>119.6</ele>
        <time>2022-06-11T09:00:31Z</time>
      </trkpt>
      <trkpt lat="44.40708" lon="4.39431">
        <ele>119.6</ele>
        <time>2022-06-11T09:00:32Z</time>
      </trkpt>
      <trkpt lat="44.40709" lon="4.39431">
        <ele>119.6</ele>
        <time>2022-06-11T09:00:33Z</time>
      </trkpt>
      <trkpt lat="44.40709" lon="4.39432">
        <ele>119.6</ele>
        <time>2022-06-11T09:00:34Z</time>
      </trkpt>
      <trkpt lat="44.4071" lon="4.39432">
        <ele>119.6</ele>
        <time>2022-06-11T09:00:35Z</time>
      </trkpt>
      <trkpt lat="44.4071" lon="4.39433">
        <ele>119.6</ele>
        <time>2022-06-11T09:00:36Z</time>
      </trkpt>
      <trkpt lat="44.40711" lon="4.39433">
        <ele>119.6</ele>
        <time>2022-06-11T09:00:37Z</time>
      </trkpt>
      <trkpt lat="44.40711" lon="4.39433">
        <ele>119.6</ele>
        <time>2022-06-11T09:01:21Z</time>
      </trkpt>
      <trkpt lat="44.40712" lon="4.39434">
        <ele>119.6</ele>
        <time>2022-06-11T09:01:22Z</time>
      </trkpt>
      <trkpt lat="44.40714" lon="4.39435">
        <ele>119.6</ele>
        <time>2022-06-11T09:01:23Z</time>
      </trkpt>
      <trkpt lat="44.40714" lon="4.39435">
        <ele>119.6</ele>
        <time>2022-06-11T09:01:24Z</time>
      </trkpt>
      <trkpt lat="44.40715" lon="4.39435">
        <ele>119.6</ele>
        <time>2022-06-11T09:01:25Z</time>
      </trkpt>
      <trkpt lat="44.40716" lon="4.39436">
        <ele>119.6</ele>
        <time>2022-06-11T09:01:26Z</time>
      </trkpt>
      <trkpt lat="44.40718" lon="4.39437">
        <ele>119.7</ele>
        <time>2022-06-11T09:01:27Z</time>
      </trkpt>
      <trkpt lat="44.40718" lon="4.39436">
        <ele>119.6</ele>
        <time>2022-06-11T09:01:29Z</time>
      </trkpt>
      <trkpt lat="44.40719" lon="4.39436">
        <ele>119.6</ele>
        <time>2022-06-11T09:01:30Z</time>
      </trkpt>
      <trkpt lat="44.4072" lon="4.39436">
        <ele>119.5</ele>
        <time>2022-06-11T09:01:31Z</time>
      </trkpt>
      <trkpt lat="44.40721" lon="4.39436">
        <ele>119.5</ele>
        <time>2022-06-11T09:01:32Z</time>
      </trkpt>
      <trkpt lat="44.40722" lon="4.39436">
        <ele>119.5</ele>
        <time>2022-06-11T09:01:33Z</time>
      </trkpt>
      <trkpt lat="44.40722" lon="4.39437">
        <ele>119.5</ele>
        <time>2022-06-11T09:01:35Z</time>
      </trkpt>
      <trkpt lat="44.40721" lon="4.39438">
        <ele>119.5</ele>
        <time>2022-06-11T09:01:36Z</time>
      </trkpt>
      <trkpt lat="44.4072" lon="4.39438">
        <ele>119.5</ele>
        <time>2022-06-11T09:01:37Z</time>
      </trkpt>
      <trkpt lat="44.40719" lon="4.39439">
        <ele>119.4</ele>
        <time>2022-06-11T09:01:38Z</time>
      </trkpt>
      <trkpt lat="44.40719" lon="4.39439">
        <ele>119.4</ele>
        <time>2022-06-11T09:01:39Z</time>
      </trkpt>
      <trkpt lat="44.40719" lon="4.39439">
        <ele>119.4</ele>
        <time>2022-06-11T09:01:40Z</time>
      </trkpt>
      <trkpt lat="44.40718" lon="4.3944">
        <ele>119.4</ele>
        <time>2022-06-11T09:01:41Z</time>
      </trkpt>
      <trkpt lat="44.40718" lon="4.3944">
        <ele>119.4</ele>
        <time>2022-06-11T09:01:42Z</time>
      </trkpt>
      <trkpt lat="44.40717" lon="4.3944">
        <ele>119.4</ele>
        <time>2022-06-11T09:01:43Z</time>
      </trkpt>
      <trkpt lat="44.40717" lon="4.3944">
        <ele>119.4</ele>
        <time>2022-06-11T09:01:44Z</time>
      </trkpt>
      <trkpt lat="44.40717" lon="4.3944">
        <ele>119.4</ele>
        <time>2022-06-11T09:01:45Z</time>
      </trkpt>
      <trkpt lat="44.40717" lon="4.3944">
        <ele>119.4</ele>
        <time>2022-06-11T09:01:46Z</time>
      </trkpt>
      <trkpt lat="44.40714" lon="4.39441">
        <ele>119.3</ele>
        <time>2022-06-11T09:02:34Z</time>
      </trkpt>
      <trkpt lat="44.40713" lon="4.39441">
        <ele>119.3</ele>
        <time>2022-06-11T09:02:35Z</time>
      </trkpt>
      <trkpt lat="44.40713" lon="4.39441">
        <ele>119.3</ele>
        <time>2022-06-11T09:02:36Z</time>
      </trkpt>
      <trkpt lat="44.40713" lon="4.39441">
        <ele>119.3</ele>
        <time>2022-06-11T09:02:37Z</time>
      </trkpt>
      <trkpt lat="44.40713" lon="4.39441">
        <ele>119.3</ele>
        <time>2022-06-11T09:02:38Z</time>
      </trkpt>
      <trkpt lat="44.40712" lon="4.39441">
        <ele>119.3</ele>
        <time>2022-06-11T09:02:39Z</time>
      </trkpt>
      <trkpt lat="44.40712" lon="4.39441">
        <ele>119.3</ele>
        <time>2022-06-11T09:02:40Z</time>
      </trkpt>
      <trkpt lat="44.40712" lon="4.39441">
        <ele>119.3</ele>
        <time>2022-06-11T09:02:41Z</time>
      </trkpt>
      <trkpt lat="44.40712" lon="4.39441">
        <ele>119.3</ele>
        <time>2022-06-11T09:02:42Z</time>
      </trkpt>
      <trkpt lat="44.40713" lon="4.39441">
        <ele>119.3</ele>
        <time>2022-06-11T09:02:43Z</time>
      </trkpt>
      <trkpt lat="44.40714" lon="4.39441">
        <ele>119.3</ele>
        <time>2022-06-11T09:02:44Z</time>
      </trkpt>
      <trkpt lat="44.40714" lon="4.39442">
        <ele>119.3</ele>
        <time>2022-06-11T09:02:45Z</time>
      </trkpt>
      <trkpt lat="44.40713" lon="4.39439">
        <ele>119.3</ele>
        <time>2022-06-11T09:02:46Z</time>
      </trkpt>
      <trkpt lat="44.40714" lon="4.39439">
        <ele>119.3</ele>
        <time>2022-06-11T09:02:47Z</time>
      </trkpt>
      <trkpt lat="44.40714" lon="4.39439">
        <ele>119.2</ele>
        <time>2022-06-11T09:02:48Z</time>
      </trkpt>
      <trkpt lat="44.40714" lon="4.39438">
        <ele>119.2</ele>
        <time>2022-06-11T09:02:49Z</time>
      </trkpt>
      <trkpt lat="44.40715" lon="4.39438">
        <ele>119.2</ele>
        <time>2022-06-11T09:02:50Z</time>
      </trkpt>
      <trkpt lat="44.40714" lon="4.39439">
        <ele>119.2</ele>
        <time>2022-06-11T09:02:52Z</time>
      </trkpt>
      <trkpt lat="44.40715" lon="4.39438">
        <ele>119.2</ele>
        <time>2022-06-11T09:02:53Z</time>
      </trkpt>
      <trkpt lat="44.40717" lon="4.39438">
        <ele>119.2</ele>
        <time>2022-06-11T09:02:54Z</time>
      </trkpt>
      <trkpt lat="44.40719" lon="4.39439">
        <ele>119.2</ele>
        <time>2022-06-11T09:02:55Z</time>
      </trkpt>
      <trkpt lat="44.4072" lon="4.39437">
        <ele>119.2</ele>
        <time>2022-06-11T09:02:56Z</time>
      </trkpt>
      <trkpt lat="44.4072" lon="4.39435">
        <ele>119.1</ele>
        <time>2022-06-11T09:02:57Z</time>
      </trkpt>
      <trkpt lat="44.40721" lon="4.39436">
        <ele>119.1</ele>
        <time>2022-06-11T09:02:58Z</time>
      </trkpt>
      <trkpt lat="44.40721" lon="4.39435">
        <ele>119.1</ele>
        <time>2022-06-11T09:02:59Z</time>
      </trkpt>
      <trkpt lat="44.40722" lon="4.39435">
        <ele>119.1</ele>
        <time>2022-06-11T09:03:00Z</time>
      </trkpt>
      <trkpt lat="44.40723" lon="4.39435">
        <ele>119.1</ele>
        <time>2022-06-11T09:03:01Z</time>
      </trkpt>
      <trkpt lat="44.40723" lon="4.39434">
        <ele>119.1</ele>
        <time>2022-06-11T09:03:02Z</time>
      </trkpt>
      <trkpt lat="44.40724" lon="4.39434">
        <ele>119.1</ele>
        <time>2022-06-11T09:03:03Z</time>
      </trkpt>
      <trkpt lat="44.40725" lon="4.39433">
        <ele>119.1</ele>
        <time>2022-06-11T09:03:04Z</time>
      </trkpt>
      <trkpt lat="44.40725" lon="4.39433">
        <ele>119.1</ele>
        <time>2022-06-11T09:03:05Z</time>
      </trkpt>
      <trkpt lat="44.40726" lon="4.39433">
        <ele>119.1</ele>
        <time>2022-06-11T09:03:06Z</time>
      </trkpt>
      <trkpt lat="44.40726" lon="4.39434">
        <ele>119.1</ele>
        <time>2022-06-11T09:03:07Z</time>
      </trkpt>
      <trkpt lat="44.40726" lon="4.39435">
        <ele>119.1</ele>
        <time>2022-06-11T09:03:08Z</time>
      </trkpt>
      <trkpt lat="44.40726" lon="4.39435">
        <ele>119.1</ele>
        <time>2022-06-11T09:03:09Z</time>
      </trkpt>
      <trkpt lat="44.40725" lon="4.39435">
        <ele>119.1</ele>
        <time>2022-06-11T09:03:10Z</time>
      </trkpt>
      <trkpt lat="44.40725" lon="4.39436">
        <ele>119.1</ele>
        <time>2022-06-11T09:03:11Z</time>
      </trkpt>
      <trkpt lat="44.40724" lon="4.39436">
        <ele>119.1</ele>
        <time>2022-06-11T09:03:12Z</time>
      </trkpt>
      <trkpt lat="44.40723" lon="4.39437">
        <ele>119.1</ele>
        <time>2022-06-11T09:03:13Z</time>
      </trkpt>
      <trkpt lat="44.40722" lon="4.39437">
        <ele>119</ele>
        <time>2022-06-11T09:03:14Z</time>
      </trkpt>
      <trkpt lat="44.40719" lon="4.39442">
        <ele>119</ele>
        <time>2022-06-11T09:03:15Z</time>
      </trkpt>
      <trkpt lat="44.40718" lon="4.39445">
        <ele>119</ele>
        <time>2022-06-11T09:03:16Z</time>
      </trkpt>
      <trkpt lat="44.40714" lon="4.39451">
        <ele>119</ele>
        <time>2022-06-11T09:03:17Z</time>
      </trkpt>
      <trkpt lat="44.40712" lon="4.39455">
        <ele>118.9</ele>
        <time>2022-06-11T09:03:18Z</time>
      </trkpt>
      <trkpt lat="44.40708" lon="4.3946">
        <ele>118.9</ele>
        <time>2022-06-11T09:03:19Z</time>
      </trkpt>
      <trkpt lat="44.40706" lon="4.39464">
        <ele>118.9</ele>
        <time>2022-06-11T09:03:20Z</time>
      </trkpt>
      <trkpt lat="44.40704" lon="4.39469">
        <ele>118.9</ele>
        <time>2022-06-11T09:03:21Z</time>
      </trkpt>
      <trkpt lat="44.40701" lon="4.39474">
        <ele>118.9</ele>
        <time>2022-06-11T09:03:22Z</time>
      </trkpt>
      <trkpt lat="44.40699" lon="4.39478">
        <ele>118.8</ele>
        <time>2022-06-11T09:03:23Z</time>
      </trkpt>
      <trkpt lat="44.40696" lon="4.3948">
        <ele>118.8</ele>
        <time>2022-06-11T09:03:24Z</time>
      </trkpt>
      <trkpt lat="44.40694" lon="4.39481">
        <ele>118.8</ele>
        <time>2022-06-11T09:03:25Z</time>
      </trkpt>
      <trkpt lat="44.40693" lon="4.39482">
        <ele>118.8</ele>
        <time>2022-06-11T09:03:26Z</time>
      </trkpt>
      <trkpt lat="44.40692" lon="4.39483">
        <ele>118.6</ele>
        <time>2022-06-11T09:03:27Z</time>
      </trkpt>
      <trkpt lat="44.40691" lon="4.39483">
        <ele>118.6</ele>
        <time>2022-06-11T09:03:28Z</time>
      </trkpt>
      <trkpt lat="44.4069" lon="4.39485">
        <ele>118.6</ele>
        <time>2022-06-11T09:03:29Z</time>
      </trkpt>
      <trkpt lat="44.40689" lon="4.39484">
        <ele>118.4</ele>
        <time>2022-06-11T09:03:30Z</time>
      </trkpt>
      <trkpt lat="44.40689" lon="4.39484">
        <ele>118.4</ele>
        <time>2022-06-11T09:03:31Z</time>
      </trkpt>
      <trkpt lat="44.40688" lon="4.39484">
        <ele>118.4</ele>
        <time>2022-06-11T09:03:32Z</time>
      </trkpt>
      <trkpt lat="44.40687" lon="4.39484">
        <ele>118.4</ele>
        <time>2022-06-11T09:03:34Z</time>
      </trkpt>
      <trkpt lat="44.40686" lon="4.39483">
        <ele>118.4</ele>
        <time>2022-06-11T09:03:35Z</time>
      </trkpt>
      <trkpt lat="44.40686" lon="4.39483">
        <ele>118.3</ele>
        <time>2022-06-11T09:03:36Z</time>
      </trkpt>
      <trkpt lat="44.40683" lon="4.3948">
        <ele>118.2</ele>
        <time>2022-06-11T09:03:38Z</time>
      </trkpt>
      <trkpt lat="44.4068" lon="4.39476">
        <ele>118.1</ele>
        <time>2022-06-11T09:03:39Z</time>
      </trkpt>
      <trkpt lat="44.40678" lon="4.39473">
        <ele>118</ele>
        <time>2022-06-11T09:03:41Z</time>
      </trkpt>
      <trkpt lat="44.40676" lon="4.39469">
        <ele>117.9</ele>
        <time>2022-06-11T09:03:42Z</time>
      </trkpt>
      <trkpt lat="44.40674" lon="4.39465">
        <ele>117.8</ele>
        <time>2022-06-11T09:03:43Z</time>
      </trkpt>
      <trkpt lat="44.40672" lon="4.39461">
        <ele>117.7</ele>
        <time>2022-06-11T09:03:44Z</time>
      </trkpt>
      <trkpt lat="44.40668" lon="4.39458">
        <ele>117.6</ele>
        <time>2022-06-11T09:03:45Z</time>
      </trkpt>
      <trkpt lat="44.40665" lon="4.39455">
        <ele>117.5</ele>
        <time>2022-06-11T09:03:46Z</time>
      </trkpt>
      <trkpt lat="44.40662" lon="4.39451">
        <ele>117.4</ele>
        <time>2022-06-11T09:03:47Z</time>
      </trkpt>
      <trkpt lat="44.40659" lon="4.39447">
        <ele>117.3</ele>
        <time>2022-06-11T09:03:48Z</time>
      </trkpt>
      <trkpt lat="44.40656" lon="4.39442">
        <ele>117.2</ele>
        <time>2022-06-11T09:03:49Z</time>
      </trkpt>
      <trkpt lat="44.4065" lon="4.39436">
        <ele>117</ele>
        <time>2022-06-11T09:03:50Z</time>
      </trkpt>
      <trkpt lat="44.40644" lon="4.39428">
        <ele>116.8</ele>
        <time>2022-06-11T09:03:52Z</time>
      </trkpt>
      <trkpt lat="44.4064" lon="4.39425">
        <ele>116.7</ele>
        <time>2022-06-11T09:03:54Z</time>
      </trkpt>
      <trkpt lat="44.40635" lon="4.39422">
        <ele>116.6</ele>
        <time>2022-06-11T09:03:55Z</time>
      </trkpt>
      <trkpt lat="44.40631" lon="4.3942">
        <ele>116.6</ele>
        <time>2022-06-11T09:03:56Z</time>
      </trkpt>
      <trkpt lat="44.40628" lon="4.39417">
        <ele>116.5</ele>
        <time>2022-06-11T09:03:57Z</time>
      </trkpt>
      <trkpt lat="44.40625" lon="4.39414">
        <ele>116.4</ele>
        <time>2022-06-11T09:03:58Z</time>
      </trkpt>
      <trkpt lat="44.40623" lon="4.39412">
        <ele>116.4</ele>
        <time>2022-06-11T09:03:59Z</time>
      </trkpt>
      <trkpt lat="44.4062" lon="4.3941">
        <ele>116.4</ele>
        <time>2022-06-11T09:04:00Z</time>
      </trkpt>
      <trkpt lat="44.40616" lon="4.39409">
        <ele>116.4</ele>
        <time>2022-06-11T09:04:01Z</time>
      </trkpt>
      <trkpt lat="44.40613" lon="4.39408">
        <ele>116.4</ele>
        <time>2022-06-11T09:04:02Z</time>
      </trkpt>
      <trkpt lat="44.4061" lon="4.39406">
        <ele>116.3</ele>
        <time>2022-06-11T09:04:03Z</time>
      </trkpt>
      <trkpt lat="44.40608" lon="4.39406">
        <ele>116.3</ele>
        <time>2022-06-11T09:04:04Z</time>
      </trkpt>
      <trkpt lat="44.40605" lon="4.39404">
        <ele>116.3</ele>
        <time>2022-06-11T09:04:05Z</time>
      </trkpt>
      <trkpt lat="44.40601" lon="4.39403">
        <ele>116.3</ele>
        <time>2022-06-11T09:04:06Z</time>
      </trkpt>
      <trkpt lat="44.40599" lon="4.39401">
        <ele>116.3</ele>
        <time>2022-06-11T09:04:08Z</time>
      </trkpt>
      <trkpt lat="44.40596" lon="4.39395">
        <ele>116.4</ele>
        <time>2022-06-11T09:04:09Z</time>
      </trkpt>
      <trkpt lat="44.40593" lon="4.39394">
        <ele>116.4</ele>
        <time>2022-06-11T09:04:10Z</time>
      </trkpt>
      <trkpt lat="44.40589" lon="4.39393">
        <ele>116.4</ele>
        <time>2022-06-11T09:04:12Z</time>
      </trkpt>
      <trkpt lat="44.40585" lon="4.39392">
        <ele>116.4</ele>
        <time>2022-06-11T09:04:13Z</time>
      </trkpt>
      <trkpt lat="44.40581" lon="4.39388">
        <ele>116.4</ele>
        <time>2022-06-11T09:04:14Z</time>
      </trkpt>
      <trkpt lat="44.40577" lon="4.39386">
        <ele>116.4</ele>
        <time>2022-06-11T09:04:16Z</time>
      </trkpt>
      <trkpt lat="44.40573" lon="4.39384">
        <ele>116.5</ele>
        <time>2022-06-11T09:04:17Z</time>
      </trkpt>
      <trkpt lat="44.40569" lon="4.39382">
        <ele>116.5</ele>
        <time>2022-06-11T09:04:18Z</time>
      </trkpt>
      <trkpt lat="44.40566" lon="4.39379">
        <ele>116.5</ele>
        <time>2022-06-11T09:04:20Z</time>
      </trkpt>
      <trkpt lat="44.40563" lon="4.39376">
        <ele>116.5</ele>
        <time>2022-06-11T09:04:21Z</time>
      </trkpt>
      <trkpt lat="44.40559" lon="4.39374">
        <ele>116.5</ele>
        <time>2022-06-11T09:04:22Z</time>
      </trkpt>
      <trkpt lat="44.40556" lon="4.39372">
        <ele>116.5</ele>
        <time>2022-06-11T09:04:24Z</time>
      </trkpt>
      <trkpt lat="44.40555" lon="4.39371">
        <ele>116.5</ele>
        <time>2022-06-11T09:04:25Z</time>
      </trkpt>
      <trkpt lat="44.40551" lon="4.39369">
        <ele>116.5</ele>
        <time>2022-06-11T09:04:26Z</time>
      </trkpt>
      <trkpt lat="44.40551" lon="4.39368">
        <ele>116.5</ele>
        <time>2022-06-11T09:04:27Z</time>
      </trkpt>
      <trkpt lat="44.4055" lon="4.39363">
        <ele>116.4</ele>
        <time>2022-06-11T09:04:28Z</time>
      </trkpt>
      <trkpt lat="44.40549" lon="4.39361">
        <ele>116.4</ele>
        <time>2022-06-11T09:04:29Z</time>
      </trkpt>
      <trkpt lat="44.40545" lon="4.39358">
        <ele>116.4</ele>
        <time>2022-06-11T09:04:30Z</time>
      </trkpt>
      <trkpt lat="44.40542" lon="4.39357">
        <ele>116.3</ele>
        <time>2022-06-11T09:04:32Z</time>
      </trkpt>
      <trkpt lat="44.40539" lon="4.39356">
        <ele>116.3</ele>
        <time>2022-06-11T09:04:33Z</time>
      </trkpt>
      <trkpt lat="44.40536" lon="4.39355">
        <ele>116.3</ele>
        <time>2022-06-11T09:04:34Z</time>
      </trkpt>
      <trkpt lat="44.40532" lon="4.39354">
        <ele>116.3</ele>
        <time>2022-06-11T09:04:35Z</time>
      </trkpt>
      <trkpt lat="44.40526" lon="4.3935">
        <ele>116.2</ele>
        <time>2022-06-11T09:04:36Z</time>
      </trkpt>
      <trkpt lat="44.40522" lon="4.39348">
        <ele>116.2</ele>
        <time>2022-06-11T09:04:38Z</time>
      </trkpt>
      <trkpt lat="44.40517" lon="4.39345">
        <ele>116.1</ele>
        <time>2022-06-11T09:04:39Z</time>
      </trkpt>
      <trkpt lat="44.40513" lon="4.39343">
        <ele>116.1</ele>
        <time>2022-06-11T09:04:40Z</time>
      </trkpt>
      <trkpt lat="44.40508" lon="4.39341">
        <ele>116.1</ele>
        <time>2022-06-11T09:04:42Z</time>
      </trkpt>
      <trkpt lat="44.40505" lon="4.39339">
        <ele>116</ele>
        <time>2022-06-11T09:04:43Z</time>
      </trkpt>
      <trkpt lat="44.40501" lon="4.39337">
        <ele>116</ele>
        <time>2022-06-11T09:04:44Z</time>
      </trkpt>
      <trkpt lat="44.40498" lon="4.39335">
        <ele>116</ele>
        <time>2022-06-11T09:04:45Z</time>
      </trkpt>
      <trkpt lat="44.40494" lon="4.39332">
        <ele>116</ele>
        <time>2022-06-11T09:04:46Z</time>
      </trkpt>
      <trkpt lat="44.40491" lon="4.3933">
        <ele>115.9</ele>
        <time>2022-06-11T09:04:47Z</time>
      </trkpt>
      <trkpt lat="44.40487" lon="4.39327">
        <ele>115.9</ele>
        <time>2022-06-11T09:04:48Z</time>
      </trkpt>
      <trkpt lat="44.40483" lon="4.39325">
        <ele>115.9</ele>
        <time>2022-06-11T09:04:49Z</time>
      </trkpt>
      <trkpt lat="44.40479" lon="4.39324">
        <ele>115.8</ele>
        <time>2022-06-11T09:04:50Z</time>
      </trkpt>
      <trkpt lat="44.40476" lon="4.39322">
        <ele>115.8</ele>
        <time>2022-06-11T09:04:51Z</time>
      </trkpt>
      <trkpt lat="44.40473" lon="4.3932">
        <ele>115.8</ele>
        <time>2022-06-11T09:04:52Z</time>
      </trkpt>
      <trkpt lat="44.40469" lon="4.39318">
        <ele>115.7</ele>
        <time>2022-06-11T09:04:53Z</time>
      </trkpt>
      <trkpt lat="44.40466" lon="4.39316">
        <ele>115.7</ele>
        <time>2022-06-11T09:04:54Z</time>
      </trkpt>
      <trkpt lat="44.40463" lon="4.39314">
        <ele>115.7</ele>
        <time>2022-06-11T09:04:55Z</time>
      </trkpt>
      <trkpt lat="44.4046" lon="4.39313">
        <ele>115.7</ele>
        <time>2022-06-11T09:04:56Z</time>
      </trkpt>
      <trkpt lat="44.40458" lon="4.39311">
        <ele>115.7</ele>
        <time>2022-06-11T09:04:57Z</time>
      </trkpt>
      <trkpt lat="44.40455" lon="4.3931">
        <ele>115.6</ele>
        <time>2022-06-11T09:04:58Z</time>
      </trkpt>
      <trkpt lat="44.40452" lon="4.39308">
        <ele>115.6</ele>
        <time>2022-06-11T09:04:59Z</time>
      </trkpt>
      <trkpt lat="44.40446" lon="4.39305">
        <ele>115.6</ele>
        <time>2022-06-11T09:05:00Z</time>
      </trkpt>
      <trkpt lat="44.40442" lon="4.39302">
        <ele>115.6</ele>
        <time>2022-06-11T09:05:01Z</time>
      </trkpt>
      <trkpt lat="44.40439" lon="4.39299">
        <ele>115.5</ele>
        <time>2022-06-11T09:05:02Z</time>
      </trkpt>
      <trkpt lat="44.40436" lon="4.39297">
        <ele>115.5</ele>
        <time>2022-06-11T09:05:04Z</time>
      </trkpt>
      <trkpt lat="44.40433" lon="4.39294">
        <ele>115.5</ele>
        <time>2022-06-11T09:05:05Z</time>
      </trkpt>
      <trkpt lat="44.4043" lon="4.39292">
        <ele>115.5</ele>
        <time>2022-06-11T09:05:06Z</time>
      </trkpt>
      <trkpt lat="44.40426" lon="4.3929">
        <ele>115.5</ele>
        <time>2022-06-11T09:05:07Z</time>
      </trkpt>
      <trkpt lat="44.40422" lon="4.39288">
        <ele>115.4</ele>
        <time>2022-06-11T09:05:08Z</time>
      </trkpt>
      <trkpt lat="44.40418" lon="4.39286">
        <ele>115.4</ele>
        <time>2022-06-11T09:05:09Z</time>
      </trkpt>
      <trkpt lat="44.40415" lon="4.39284">
        <ele>115.4</ele>
        <time>2022-06-11T09:05:10Z</time>
      </trkpt>
      <trkpt lat="44.40411" lon="4.39282">
        <ele>115.3</ele>
        <time>2022-06-11T09:05:11Z</time>
      </trkpt>
      <trkpt lat="44.40408" lon="4.3928">
        <ele>115.3</ele>
        <time>2022-06-11T09:05:12Z</time>
      </trkpt>
      <trkpt lat="44.40404" lon="4.39278">
        <ele>115.3</ele>
        <time>2022-06-11T09:05:13Z</time>
      </trkpt>
      <trkpt lat="44.40399" lon="4.39277">
        <ele>115.3</ele>
        <time>2022-06-11T09:05:14Z</time>
      </trkpt>
      <trkpt lat="44.40396" lon="4.39275">
        <ele>115.3</ele>
        <time>2022-06-11T09:05:15Z</time>
      </trkpt>
      <trkpt lat="44.40392" lon="4.39274">
        <ele>115.3</ele>
        <time>2022-06-11T09:05:16Z</time>
      </trkpt>
      <trkpt lat="44.40385" lon="4.3927">
        <ele>115.3</ele>
        <time>2022-06-11T09:05:17Z</time>
      </trkpt>
      <trkpt lat="44.40381" lon="4.39268">
        <ele>115.3</ele>
        <time>2022-06-11T09:05:19Z</time>
      </trkpt>
      <trkpt lat="44.40378" lon="4.39266">
        <ele>115.3</ele>
        <time>2022-06-11T09:05:20Z</time>
      </trkpt>
      <trkpt lat="44.40375" lon="4.39265">
        <ele>115.3</ele>
        <time>2022-06-11T09:05:21Z</time>
      </trkpt>
      <trkpt lat="44.4037" lon="4.39263">
        <ele>115.3</ele>
        <time>2022-06-11T09:05:22Z</time>
      </trkpt>
      <trkpt lat="44.40366" lon="4.3926">
        <ele>115.3</ele>
        <time>2022-06-11T09:05:23Z</time>
      </trkpt>
      <trkpt lat="44.40362" lon="4.39257">
        <ele>115.3</ele>
        <time>2022-06-11T09:05:24Z</time>
      </trkpt>
      <trkpt lat="44.40358" lon="4.39255">
        <ele>115.4</ele>
        <time>2022-06-11T09:05:25Z</time>
      </trkpt>
      <trkpt lat="44.40354" lon="4.39252">
        <ele>115.4</ele>
        <time>2022-06-11T09:05:26Z</time>
      </trkpt>
      <trkpt lat="44.40351" lon="4.39248">
        <ele>115.4</ele>
        <time>2022-06-11T09:05:27Z</time>
      </trkpt>
      <trkpt lat="44.40347" lon="4.39244">
        <ele>115.4</ele>
        <time>2022-06-11T09:05:28Z</time>
      </trkpt>
      <trkpt lat="44.40343" lon="4.39241">
        <ele>115.4</ele>
        <time>2022-06-11T09:05:29Z</time>
      </trkpt>
      <trkpt lat="44.40336" lon="4.39236">
        <ele>115.4</ele>
        <time>2022-06-11T09:05:30Z</time>
      </trkpt>
      <trkpt lat="44.40332" lon="4.39233">
        <ele>115.4</ele>
        <time>2022-06-11T09:05:32Z</time>
      </trkpt>
      <trkpt lat="44.40328" lon="4.39231">
        <ele>115.4</ele>
        <time>2022-06-11T09:05:33Z</time>
      </trkpt>
      <trkpt lat="44.4032" lon="4.39228">
        <ele>115.3</ele>
        <time>2022-06-11T09:05:34Z</time>
      </trkpt>
      <trkpt lat="44.40316" lon="4.39225">
        <ele>115.3</ele>
        <time>2022-06-11T09:05:35Z</time>
      </trkpt>
      <trkpt lat="44.40312" lon="4.39222">
        <ele>115.3</ele>
        <time>2022-06-11T09:05:37Z</time>
      </trkpt>
      <trkpt lat="44.40308" lon="4.39219">
        <ele>115.3</ele>
        <time>2022-06-11T09:05:38Z</time>
      </trkpt>
      <trkpt lat="44.40304" lon="4.39215">
        <ele>115.3</ele>
        <time>2022-06-11T09:05:39Z</time>
      </trkpt>
      <trkpt lat="44.40296" lon="4.3921">
        <ele>115.2</ele>
        <time>2022-06-11T09:05:40Z</time>
      </trkpt>
      <trkpt lat="44.40292" lon="4.39207">
        <ele>115.2</ele>
        <time>2022-06-11T09:05:42Z</time>
      </trkpt>
      <trkpt lat="44.40288" lon="4.39204">
        <ele>115.2</ele>
        <time>2022-06-11T09:05:43Z</time>
      </trkpt>
      <trkpt lat="44.40284" lon="4.39198">
        <ele>115.1</ele>
        <time>2022-06-11T09:05:44Z</time>
      </trkpt>
      <trkpt lat="44.4028" lon="4.39195">
        <ele>115.1</ele>
        <time>2022-06-11T09:05:45Z</time>
      </trkpt>
      <trkpt lat="44.40275" lon="4.39191">
        <ele>115.1</ele>
        <time>2022-06-11T09:05:46Z</time>
      </trkpt>
      <trkpt lat="44.40271" lon="4.39187">
        <ele>115.1</ele>
        <time>2022-06-11T09:05:47Z</time>
      </trkpt>
      <trkpt lat="44.40267" lon="4.39183">
        <ele>115</ele>
        <time>2022-06-11T09:05:48Z</time>
      </trkpt>
      <trkpt lat="44.40263" lon="4.39179">
        <ele>115</ele>
        <time>2022-06-11T09:05:49Z</time>
      </trkpt>
      <trkpt lat="44.40259" lon="4.39174">
        <ele>115</ele>
        <time>2022-06-11T09:05:50Z</time>
      </trkpt>
      <trkpt lat="44.40255" lon="4.3917">
        <ele>114.9</ele>
        <time>2022-06-11T09:05:51Z</time>
      </trkpt>
      <trkpt lat="44.40251" lon="4.39165">
        <ele>114.9</ele>
        <time>2022-06-11T09:05:52Z</time>
      </trkpt>
      <trkpt lat="44.40247" lon="4.39161">
        <ele>114.9</ele>
        <time>2022-06-11T09:05:53Z</time>
      </trkpt>
      <trkpt lat="44.40243" lon="4.39156">
        <ele>114.8</ele>
        <time>2022-06-11T09:05:54Z</time>
      </trkpt>
      <trkpt lat="44.4024" lon="4.39151">
        <ele>114.7</ele>
        <time>2022-06-11T09:05:55Z</time>
      </trkpt>
      <trkpt lat="44.40236" lon="4.39145">
        <ele>114.6</ele>
        <time>2022-06-11T09:05:56Z</time>
      </trkpt>
      <trkpt lat="44.40233" lon="4.3914">
        <ele>114.5</ele>
        <time>2022-06-11T09:05:57Z</time>
      </trkpt>
      <trkpt lat="44.4023" lon="4.39135">
        <ele>114.4</ele>
        <time>2022-06-11T09:05:58Z</time>
      </trkpt>
      <trkpt lat="44.40227" lon="4.3913">
        <ele>114.3</ele>
        <time>2022-06-11T09:05:59Z</time>
      </trkpt>
      <trkpt lat="44.40223" lon="4.39124">
        <ele>114.2</ele>
        <time>2022-06-11T09:06:00Z</time>
      </trkpt>
      <trkpt lat="44.40219" lon="4.39119">
        <ele>114.1</ele>
        <time>2022-06-11T09:06:01Z</time>
      </trkpt>
      <trkpt lat="44.40216" lon="4.39113">
        <ele>114</ele>
        <time>2022-06-11T09:06:02Z</time>
      </trkpt>
      <trkpt lat="44.40213" lon="4.39107">
        <ele>113.9</ele>
        <time>2022-06-11T09:06:03Z</time>
      </trkpt>
      <trkpt lat="44.4021" lon="4.39101">
        <ele>113.8</ele>
        <time>2022-06-11T09:06:04Z</time>
      </trkpt>
      <trkpt lat="44.40206" lon="4.39095">
        <ele>113.7</ele>
        <time>2022-06-11T09:06:05Z</time>
      </trkpt>
      <trkpt lat="44.40203" lon="4.39089">
        <ele>113.6</ele>
        <time>2022-06-11T09:06:06Z</time>
      </trkpt>
      <trkpt lat="44.402" lon="4.39084">
        <ele>113.5</ele>
        <time>2022-06-11T09:06:07Z</time>
      </trkpt>
      <trkpt lat="44.40196" lon="4.39078">
        <ele>113.4</ele>
        <time>2022-06-11T09:06:08Z</time>
      </trkpt>
      <trkpt lat="44.40192" lon="4.39071">
        <ele>113.3</ele>
        <time>2022-06-11T09:06:09Z</time>
      </trkpt>
      <trkpt lat="44.40189" lon="4.39065">
        <ele>113.2</ele>
        <time>2022-06-11T09:06:10Z</time>
      </trkpt>
      <trkpt lat="44.40185" lon="4.39059">
        <ele>113.1</ele>
        <time>2022-06-11T09:06:11Z</time>
      </trkpt>
      <trkpt lat="44.40182" lon="4.39052">
        <ele>113.1</ele>
        <time>2022-06-11T09:06:12Z</time>
      </trkpt>
      <trkpt lat="44.40178" lon="4.39046">
        <ele>113</ele>
        <time>2022-06-11T09:06:13Z</time>
      </trkpt>
      <trkpt lat="44.40175" lon="4.39039">
        <ele>113</ele>
        <time>2022-06-11T09:06:14Z</time>
      </trkpt>
      <trkpt lat="44.40171" lon="4.39033">
        <ele>112.9</ele>
        <time>2022-06-11T09:06:15Z</time>
      </trkpt>
      <trkpt lat="44.40168" lon="4.39026">
        <ele>112.8</ele>
        <time>2022-06-11T09:06:16Z</time>
      </trkpt>
      <trkpt lat="44.40164" lon="4.3902">
        <ele>112.8</ele>
        <time>2022-06-11T09:06:17Z</time>
      </trkpt>
      <trkpt lat="44.4016" lon="4.39014">
        <ele>112.7</ele>
        <time>2022-06-11T09:06:18Z</time>
      </trkpt>
      <trkpt lat="44.40157" lon="4.39008">
        <ele>112.6</ele>
        <time>2022-06-11T09:06:19Z</time>
      </trkpt>
      <trkpt lat="44.40153" lon="4.39001">
        <ele>112.5</ele>
        <time>2022-06-11T09:06:20Z</time>
      </trkpt>
      <trkpt lat="44.40149" lon="4.38995">
        <ele>112.4</ele>
        <time>2022-06-11T09:06:21Z</time>
      </trkpt>
      <trkpt lat="44.40146" lon="4.38988">
        <ele>112.3</ele>
        <time>2022-06-11T09:06:22Z</time>
      </trkpt>
      <trkpt lat="44.40142" lon="4.38982">
        <ele>112.2</ele>
        <time>2022-06-11T09:06:23Z</time>
      </trkpt>
      <trkpt lat="44.40138" lon="4.38975">
        <ele>112</ele>
        <time>2022-06-11T09:06:24Z</time>
      </trkpt>
      <trkpt lat="44.40135" lon="4.38969">
        <ele>111.9</ele>
        <time>2022-06-11T09:06:25Z</time>
      </trkpt>
      <trkpt lat="44.40131" lon="4.38962">
        <ele>111.8</ele>
        <time>2022-06-11T09:06:26Z</time>
      </trkpt>
      <trkpt lat="44.40128" lon="4.38955">
        <ele>111.7</ele>
        <time>2022-06-11T09:06:27Z</time>
      </trkpt>
      <trkpt lat="44.40124" lon="4.38949">
        <ele>111.5</ele>
        <time>2022-06-11T09:06:28Z</time>
      </trkpt>
      <trkpt lat="44.40121" lon="4.38943">
        <ele>111.4</ele>
        <time>2022-06-11T09:06:29Z</time>
      </trkpt>
      <trkpt lat="44.40117" lon="4.38937">
        <ele>111.2</ele>
        <time>2022-06-11T09:06:30Z</time>
      </trkpt>
      <trkpt lat="44.40114" lon="4.3893">
        <ele>111.1</ele>
        <time>2022-06-11T09:06:31Z</time>
      </trkpt>
      <trkpt lat="44.4011" lon="4.38924">
        <ele>110.9</ele>
        <time>2022-06-11T09:06:32Z</time>
      </trkpt>
      <trkpt lat="44.40106" lon="4.38918">
        <ele>110.7</ele>
        <time>2022-06-11T09:06:33Z</time>
      </trkpt>
      <trkpt lat="44.40103" lon="4.38912">
        <ele>110.6</ele>
        <time>2022-06-11T09:06:34Z</time>
      </trkpt>
      <trkpt lat="44.40099" lon="4.38905">
        <ele>110.4</ele>
        <time>2022-06-11T09:06:35Z</time>
      </trkpt>
      <trkpt lat="44.40095" lon="4.38899">
        <ele>110.2</ele>
        <time>2022-06-11T09:06:36Z</time>
      </trkpt>
      <trkpt lat="44.40091" lon="4.38892">
        <ele>110</ele>
        <time>2022-06-11T09:06:37Z</time>
      </trkpt>
      <trkpt lat="44.40087" lon="4.38886">
        <ele>109.8</ele>
        <time>2022-06-11T09:06:38Z</time>
      </trkpt>
      <trkpt lat="44.40083" lon="4.38878">
        <ele>109.6</ele>
        <time>2022-06-11T09:06:39Z</time>
      </trkpt>
      <trkpt lat="44.40079" lon="4.38871">
        <ele>109.4</ele>
        <time>2022-06-11T09:06:40Z</time>
      </trkpt>
      <trkpt lat="44.40075" lon="4.38864">
        <ele>109.2</ele>
        <time>2022-06-11T09:06:41Z</time>
      </trkpt>
      <trkpt lat="44.40071" lon="4.38857">
        <ele>109</ele>
        <time>2022-06-11T09:06:42Z</time>
      </trkpt>
      <trkpt lat="44.40067" lon="4.3885">
        <ele>108.9</ele>
        <time>2022-06-11T09:06:43Z</time>
      </trkpt>
      <trkpt lat="44.40063" lon="4.38843">
        <ele>108.7</ele>
        <time>2022-06-11T09:06:44Z</time>
      </trkpt>
      <trkpt lat="44.4006" lon="4.38836">
        <ele>108.5</ele>
        <time>2022-06-11T09:06:45Z</time>
      </trkpt>
      <trkpt lat="44.40056" lon="4.38828">
        <ele>108.3</ele>
        <time>2022-06-11T09:06:46Z</time>
      </trkpt>
      <trkpt lat="44.40054" lon="4.38821">
        <ele>108.3</ele>
        <time>2022-06-11T09:06:47Z</time>
      </trkpt>
      <trkpt lat="44.40053" lon="4.38814">
        <ele>108.3</ele>
        <time>2022-06-11T09:06:48Z</time>
      </trkpt>
      <trkpt lat="44.40052" lon="4.38809">
        <ele>108.3</ele>
        <time>2022-06-11T09:06:49Z</time>
      </trkpt>
      <trkpt lat="44.40052" lon="4.38805">
        <ele>108.3</ele>
        <time>2022-06-11T09:06:50Z</time>
      </trkpt>
      <trkpt lat="44.40052" lon="4.38804">
        <ele>108.2</ele>
        <time>2022-06-11T09:06:51Z</time>
      </trkpt>
      <trkpt lat="44.40052" lon="4.38799">
        <ele>107.9</ele>
        <time>2022-06-11T09:06:52Z</time>
      </trkpt>
      <trkpt lat="44.40052" lon="4.38797">
        <ele>107.7</ele>
        <time>2022-06-11T09:06:53Z</time>
      </trkpt>
      <trkpt lat="44.40052" lon="4.38793">
        <ele>107.8</ele>
        <time>2022-06-11T09:06:54Z</time>
      </trkpt>
      <trkpt lat="44.40052" lon="4.38789">
        <ele>107.8</ele>
        <time>2022-06-11T09:06:55Z</time>
      </trkpt>
      <trkpt lat="44.40052" lon="4.38784">
        <ele>107.9</ele>
        <time>2022-06-11T09:06:56Z</time>
      </trkpt>
      <trkpt lat="44.40052" lon="4.38779">
        <ele>108</ele>
        <time>2022-06-11T09:06:57Z</time>
      </trkpt>
      <trkpt lat="44.4005" lon="4.38774">
        <ele>108</ele>
        <time>2022-06-11T09:06:58Z</time>
      </trkpt>
      <trkpt lat="44.40048" lon="4.38771">
        <ele>108.1</ele>
        <time>2022-06-11T09:06:59Z</time>
      </trkpt>
      <trkpt lat="44.40045" lon="4.38767">
        <ele>108</ele>
        <time>2022-06-11T09:07:00Z</time>
      </trkpt>
      <trkpt lat="44.4004" lon="4.38765">
        <ele>107.9</ele>
        <time>2022-06-11T09:07:01Z</time>
      </trkpt>
      <trkpt lat="44.40035" lon="4.38768">
        <ele>107.7</ele>
        <time>2022-06-11T09:07:02Z</time>
      </trkpt>
      <trkpt lat="44.40031" lon="4.38773">
        <ele>107.2</ele>
        <time>2022-06-11T09:07:03Z</time>
      </trkpt>
      <trkpt lat="44.40028" lon="4.38781">
        <ele>106.9</ele>
        <time>2022-06-11T09:07:04Z</time>
      </trkpt>
      <trkpt lat="44.40027" lon="4.38788">
        <ele>106.8</ele>
        <time>2022-06-11T09:07:05Z</time>
      </trkpt>
      <trkpt lat="44.40025" lon="4.38795">
        <ele>106.7</ele>
        <time>2022-06-11T09:07:06Z</time>
      </trkpt>
      <trkpt lat="44.40022" lon="4.38802">
        <ele>106.5</ele>
        <time>2022-06-11T09:07:07Z</time>
      </trkpt>
      <trkpt lat="44.40019" lon="4.38807">
        <ele>106.3</ele>
        <time>2022-06-11T09:07:08Z</time>
      </trkpt>
      <trkpt lat="44.40014" lon="4.38812">
        <ele>106.1</ele>
        <time>2022-06-11T09:07:09Z</time>
      </trkpt>
      <trkpt lat="44.40009" lon="4.38817">
        <ele>105.7</ele>
        <time>2022-06-11T09:07:10Z</time>
      </trkpt>
      <trkpt lat="44.40005" lon="4.38822">
        <ele>105.3</ele>
        <time>2022-06-11T09:07:11Z</time>
      </trkpt>
      <trkpt lat="44.4" lon="4.38829">
        <ele>104.7</ele>
        <time>2022-06-11T09:07:12Z</time>
      </trkpt>
      <trkpt lat="44.39995" lon="4.38836">
        <ele>104.2</ele>
        <time>2022-06-11T09:07:13Z</time>
      </trkpt>
      <trkpt lat="44.3999" lon="4.38843">
        <ele>103.6</ele>
        <time>2022-06-11T09:07:14Z</time>
      </trkpt>
      <trkpt lat="44.39985" lon="4.38851">
        <ele>103</ele>
        <time>2022-06-11T09:07:15Z</time>
      </trkpt>
      <trkpt lat="44.39979" lon="4.38859">
        <ele>102.4</ele>
        <time>2022-06-11T09:07:16Z</time>
      </trkpt>
      <trkpt lat="44.39974" lon="4.38868">
        <ele>101.8</ele>
        <time>2022-06-11T09:07:17Z</time>
      </trkpt>
      <trkpt lat="44.39968" lon="4.38877">
        <ele>101.2</ele>
        <time>2022-06-11T09:07:18Z</time>
      </trkpt>
      <trkpt lat="44.39963" lon="4.38887">
        <ele>100.5</ele>
        <time>2022-06-11T09:07:19Z</time>
      </trkpt>
      <trkpt lat="44.39957" lon="4.38898">
        <ele>99.9</ele>
        <time>2022-06-11T09:07:20Z</time>
      </trkpt>
      <trkpt lat="44.39952" lon="4.38908">
        <ele>99.3</ele>
        <time>2022-06-11T09:07:21Z</time>
      </trkpt>
      <trkpt lat="44.39947" lon="4.38919">
        <ele>98.7</ele>
        <time>2022-06-11T09:07:22Z</time>
      </trkpt>
      <trkpt lat="44.39942" lon="4.3893">
        <ele>98.2</ele>
        <time>2022-06-11T09:07:23Z</time>
      </trkpt>
      <trkpt lat="44.39937" lon="4.38941">
        <ele>97.6</ele>
        <time>2022-06-11T09:07:24Z</time>
      </trkpt>
      <trkpt lat="44.39933" lon="4.38952">
        <ele>97.1</ele>
        <time>2022-06-11T09:07:25Z</time>
      </trkpt>
      <trkpt lat="44.39929" lon="4.38963">
        <ele>96.6</ele>
        <time>2022-06-11T09:07:26Z</time>
      </trkpt>
      <trkpt lat="44.39925" lon="4.38974">
        <ele>96.4</ele>
        <time>2022-06-11T09:07:27Z</time>
      </trkpt>
      <trkpt lat="44.39922" lon="4.38986">
        <ele>96.3</ele>
        <time>2022-06-11T09:07:28Z</time>
      </trkpt>
      <trkpt lat="44.39918" lon="4.38997">
        <ele>96.1</ele>
        <time>2022-06-11T09:07:29Z</time>
      </trkpt>
      <trkpt lat="44.39915" lon="4.39008">
        <ele>95.8</ele>
        <time>2022-06-11T09:07:30Z</time>
      </trkpt>
      <trkpt lat="44.39912" lon="4.39019">
        <ele>95.5</ele>
        <time>2022-06-11T09:07:31Z</time>
      </trkpt>
      <trkpt lat="44.39908" lon="4.3903">
        <ele>95.3</ele>
        <time>2022-06-11T09:07:32Z</time>
      </trkpt>
      <trkpt lat="44.39906" lon="4.39042">
        <ele>95</ele>
        <time>2022-06-11T09:07:33Z</time>
      </trkpt>
      <trkpt lat="44.39904" lon="4.39053">
        <ele>94.7</ele>
        <time>2022-06-11T09:07:34Z</time>
      </trkpt>
      <trkpt lat="44.39902" lon="4.39064">
        <ele>94.5</ele>
        <time>2022-06-11T09:07:35Z</time>
      </trkpt>
      <trkpt lat="44.399" lon="4.39076">
        <ele>94.3</ele>
        <time>2022-06-11T09:07:36Z</time>
      </trkpt>
      <trkpt lat="44.39898" lon="4.39087">
        <ele>94.2</ele>
        <time>2022-06-11T09:07:37Z</time>
      </trkpt>
      <trkpt lat="44.39897" lon="4.39098">
        <ele>94</ele>
        <time>2022-06-11T09:07:38Z</time>
      </trkpt>
      <trkpt lat="44.39896" lon="4.39109">
        <ele>93.9</ele>
        <time>2022-06-11T09:07:39Z</time>
      </trkpt>
      <trkpt lat="44.39895" lon="4.3912">
        <ele>93.8</ele>
        <time>2022-06-11T09:07:40Z</time>
      </trkpt>
      <trkpt lat="44.39893" lon="4.39131">
        <ele>93.6</ele>
        <time>2022-06-11T09:07:41Z</time>
      </trkpt>
      <trkpt lat="44.39892" lon="4.39141">
        <ele>93.6</ele>
        <time>2022-06-11T09:07:42Z</time>
      </trkpt>
      <trkpt lat="44.39891" lon="4.39151">
        <ele>93.5</ele>
        <time>2022-06-11T09:07:43Z</time>
      </trkpt>
      <trkpt lat="44.39891" lon="4.39161">
        <ele>93.4</ele>
        <time>2022-06-11T09:07:44Z</time>
      </trkpt>
      <trkpt lat="44.3989" lon="4.39171">
        <ele>93.3</ele>
        <time>2022-06-11T09:07:45Z</time>
      </trkpt>
      <trkpt lat="44.39889" lon="4.39181">
        <ele>93.2</ele>
        <time>2022-06-11T09:07:46Z</time>
      </trkpt>
      <trkpt lat="44.39888" lon="4.3919">
        <ele>93.1</ele>
        <time>2022-06-11T09:07:47Z</time>
      </trkpt>
      <trkpt lat="44.39887" lon="4.392">
        <ele>93</ele>
        <time>2022-06-11T09:07:48Z</time>
      </trkpt>
      <trkpt lat="44.39885" lon="4.39209">
        <ele>92.9</ele>
        <time>2022-06-11T09:07:49Z</time>
      </trkpt>
      <trkpt lat="44.39884" lon="4.39219">
        <ele>92.7</ele>
        <time>2022-06-11T09:07:50Z</time>
      </trkpt>
      <trkpt lat="44.39883" lon="4.39229">
        <ele>92.6</ele>
        <time>2022-06-11T09:07:51Z</time>
      </trkpt>
      <trkpt lat="44.39881" lon="4.39238">
        <ele>92.5</ele>
        <time>2022-06-11T09:07:52Z</time>
      </trkpt>
      <trkpt lat="44.39881" lon="4.39247">
        <ele>92.4</ele>
        <time>2022-06-11T09:07:53Z</time>
      </trkpt>
      <trkpt lat="44.3988" lon="4.39256">
        <ele>92.3</ele>
        <time>2022-06-11T09:07:54Z</time>
      </trkpt>
      <trkpt lat="44.39879" lon="4.39266">
        <ele>92.3</ele>
        <time>2022-06-11T09:07:55Z</time>
      </trkpt>
      <trkpt lat="44.39878" lon="4.39275">
        <ele>92.2</ele>
        <time>2022-06-11T09:07:56Z</time>
      </trkpt>
      <trkpt lat="44.39877" lon="4.39284">
        <ele>92.2</ele>
        <time>2022-06-11T09:07:57Z</time>
      </trkpt>
      <trkpt lat="44.39876" lon="4.39293">
        <ele>92.1</ele>
        <time>2022-06-11T09:07:58Z</time>
      </trkpt>
      <trkpt lat="44.39874" lon="4.39302">
        <ele>92</ele>
        <time>2022-06-11T09:07:59Z</time>
      </trkpt>
      <trkpt lat="44.39873" lon="4.39311">
        <ele>92</ele>
        <time>2022-06-11T09:08:00Z</time>
      </trkpt>
      <trkpt lat="44.39872" lon="4.39321">
        <ele>91.9</ele>
        <time>2022-06-11T09:08:01Z</time>
      </trkpt>
      <trkpt lat="44.39871" lon="4.3933">
        <ele>91.9</ele>
        <time>2022-06-11T09:08:02Z</time>
      </trkpt>
      <trkpt lat="44.3987" lon="4.39338">
        <ele>91.8</ele>
        <time>2022-06-11T09:08:03Z</time>
      </trkpt>
      <trkpt lat="44.39869" lon="4.39347">
        <ele>91.8</ele>
        <time>2022-06-11T09:08:04Z</time>
      </trkpt>
      <trkpt lat="44.39868" lon="4.39356">
        <ele>91.8</ele>
        <time>2022-06-11T09:08:05Z</time>
      </trkpt>
      <trkpt lat="44.39867" lon="4.39364">
        <ele>91.7</ele>
        <time>2022-06-11T09:08:06Z</time>
      </trkpt>
      <trkpt lat="44.39866" lon="4.39373">
        <ele>91.7</ele>
        <time>2022-06-11T09:08:07Z</time>
      </trkpt>
      <trkpt lat="44.39865" lon="4.39382">
        <ele>91.7</ele>
        <time>2022-06-11T09:08:08Z</time>
      </trkpt>
      <trkpt lat="44.39864" lon="4.39391">
        <ele>91.6</ele>
        <time>2022-06-11T09:08:09Z</time>
      </trkpt>
      <trkpt lat="44.39864" lon="4.39399">
        <ele>91.6</ele>
        <time>2022-06-11T09:08:10Z</time>
      </trkpt>
      <trkpt lat="44.39863" lon="4.39407">
        <ele>91.6</ele>
        <time>2022-06-11T09:08:11Z</time>
      </trkpt>
      <trkpt lat="44.39862" lon="4.39416">
        <ele>91.6</ele>
        <time>2022-06-11T09:08:12Z</time>
      </trkpt>
      <trkpt lat="44.39862" lon="4.39423">
        <ele>91.6</ele>
        <time>2022-06-11T09:08:13Z</time>
      </trkpt>
      <trkpt lat="44.39861" lon="4.39431">
        <ele>91.5</ele>
        <time>2022-06-11T09:08:14Z</time>
      </trkpt>
      <trkpt lat="44.3986" lon="4.39439">
        <ele>91.5</ele>
        <time>2022-06-11T09:08:15Z</time>
      </trkpt>
      <trkpt lat="44.39859" lon="4.39447">
        <ele>91.5</ele>
        <time>2022-06-11T09:08:16Z</time>
      </trkpt>
      <trkpt lat="44.39859" lon="4.39455">
        <ele>91.5</ele>
        <time>2022-06-11T09:08:17Z</time>
      </trkpt>
      <trkpt lat="44.39858" lon="4.39463">
        <ele>91.5</ele>
        <time>2022-06-11T09:08:18Z</time>
      </trkpt>
      <trkpt lat="44.39857" lon="4.39471">
        <ele>91.5</ele>
        <time>2022-06-11T09:08:19Z</time>
      </trkpt>
      <trkpt lat="44.39857" lon="4.39479">
        <ele>91.5</ele>
        <time>2022-06-11T09:08:20Z</time>
      </trkpt>
      <trkpt lat="44.39855" lon="4.39487">
        <ele>91.4</ele>
        <time>2022-06-11T09:08:21Z</time>
      </trkpt>
      <trkpt lat="44.39854" lon="4.39495">
        <ele>91.4</ele>
        <time>2022-06-11T09:08:22Z</time>
      </trkpt>
      <trkpt lat="44.39853" lon="4.39502">
        <ele>91.4</ele>
        <time>2022-06-11T09:08:23Z</time>
      </trkpt>
      <trkpt lat="44.39852" lon="4.3951">
        <ele>91.4</ele>
        <time>2022-06-11T09:08:24Z</time>
      </trkpt>
      <trkpt lat="44.39852" lon="4.39518">
        <ele>91.4</ele>
        <time>2022-06-11T09:08:25Z</time>
      </trkpt>
      <trkpt lat="44.39851" lon="4.39525">
        <ele>91.4</ele>
        <time>2022-06-11T09:08:26Z</time>
      </trkpt>
      <trkpt lat="44.39852" lon="4.39532">
        <ele>91.4</ele>
        <time>2022-06-11T09:08:27Z</time>
      </trkpt>
      <trkpt lat="44.39852" lon="4.39539">
        <ele>91.3</ele>
        <time>2022-06-11T09:08:28Z</time>
      </trkpt>
      <trkpt lat="44.39853" lon="4.39546">
        <ele>91.3</ele>
        <time>2022-06-11T09:08:29Z</time>
      </trkpt>
      <trkpt lat="44.39853" lon="4.39553">
        <ele>91.3</ele>
        <time>2022-06-11T09:08:30Z</time>
      </trkpt>
      <trkpt lat="44.39853" lon="4.39559">
        <ele>91.3</ele>
        <time>2022-06-11T09:08:31Z</time>
      </trkpt>
      <trkpt lat="44.39852" lon="4.39564">
        <ele>91.3</ele>
        <time>2022-06-11T09:08:32Z</time>
      </trkpt>
      <trkpt lat="44.39851" lon="4.39568">
        <ele>91.3</ele>
        <time>2022-06-11T09:08:33Z</time>
      </trkpt>
      <trkpt lat="44.3985" lon="4.39575">
        <ele>91.3</ele>
        <time>2022-06-11T09:08:34Z</time>
      </trkpt>
      <trkpt lat="44.3985" lon="4.39581">
        <ele>91.3</ele>
        <time>2022-06-11T09:08:35Z</time>
      </trkpt>
      <trkpt lat="44.3985" lon="4.39589">
        <ele>91.3</ele>
        <time>2022-06-11T09:08:36Z</time>
      </trkpt>
      <trkpt lat="44.39849" lon="4.39596">
        <ele>91.3</ele>
        <time>2022-06-11T09:08:37Z</time>
      </trkpt>
      <trkpt lat="44.39848" lon="4.39603">
        <ele>91.3</ele>
        <time>2022-06-11T09:08:38Z</time>
      </trkpt>
      <trkpt lat="44.39846" lon="4.3961">
        <ele>91.3</ele>
        <time>2022-06-11T09:08:39Z</time>
      </trkpt>
      <trkpt lat="44.39844" lon="4.39616">
        <ele>91.3</ele>
        <time>2022-06-11T09:08:40Z</time>
      </trkpt>
      <trkpt lat="44.39843" lon="4.39623">
        <ele>91.2</ele>
        <time>2022-06-11T09:08:41Z</time>
      </trkpt>
      <trkpt lat="44.39841" lon="4.3963">
        <ele>91.2</ele>
        <time>2022-06-11T09:08:42Z</time>
      </trkpt>
      <trkpt lat="44.39839" lon="4.39636">
        <ele>91.2</ele>
        <time>2022-06-11T09:08:43Z</time>
      </trkpt>
      <trkpt lat="44.39838" lon="4.39643">
        <ele>91.1</ele>
        <time>2022-06-11T09:08:44Z</time>
      </trkpt>
      <trkpt lat="44.39836" lon="4.3965">
        <ele>91.1</ele>
        <time>2022-06-11T09:08:45Z</time>
      </trkpt>
      <trkpt lat="44.39835" lon="4.39656">
        <ele>91.1</ele>
        <time>2022-06-11T09:08:46Z</time>
      </trkpt>
      <trkpt lat="44.39834" lon="4.39663">
        <ele>91.1</ele>
        <time>2022-06-11T09:08:47Z</time>
      </trkpt>
      <trkpt lat="44.39834" lon="4.39671">
        <ele>91.1</ele>
        <time>2022-06-11T09:08:48Z</time>
      </trkpt>
      <trkpt lat="44.39833" lon="4.39678">
        <ele>91</ele>
        <time>2022-06-11T09:08:49Z</time>
      </trkpt>
      <trkpt lat="44.39833" lon="4.39685">
        <ele>91</ele>
        <time>2022-06-11T09:08:50Z</time>
      </trkpt>
      <trkpt lat="44.39833" lon="4.39692">
        <ele>91</ele>
        <time>2022-06-11T09:08:51Z</time>
      </trkpt>
      <trkpt lat="44.39833" lon="4.39699">
        <ele>91</ele>
        <time>2022-06-11T09:08:52Z</time>
      </trkpt>
      <trkpt lat="44.39833" lon="4.39707">
        <ele>91</ele>
        <time>2022-06-11T09:08:53Z</time>
      </trkpt>
      <trkpt lat="44.39833" lon="4.39714">
        <ele>91</ele>
        <time>2022-06-11T09:08:54Z</time>
      </trkpt>
      <trkpt lat="44.39834" lon="4.39722">
        <ele>91</ele>
        <time>2022-06-11T09:08:55Z</time>
      </trkpt>
      <trkpt lat="44.39834" lon="4.3973">
        <ele>91</ele>
        <time>2022-06-11T09:08:56Z</time>
      </trkpt>
      <trkpt lat="44.39835" lon="4.39737">
        <ele>91</ele>
        <time>2022-06-11T09:08:57Z</time>
      </trkpt>
      <trkpt lat="44.39835" lon="4.39744">
        <ele>91</ele>
        <time>2022-06-11T09:08:58Z</time>
      </trkpt>
      <trkpt lat="44.39835" lon="4.3975">
        <ele>91</ele>
        <time>2022-06-11T09:08:59Z</time>
      </trkpt>
      <trkpt lat="44.39835" lon="4.39754">
        <ele>91</ele>
        <time>2022-06-11T09:09:00Z</time>
      </trkpt>
      <trkpt lat="44.39835" lon="4.39763">
        <ele>91</ele>
        <time>2022-06-11T09:09:01Z</time>
      </trkpt>
      <trkpt lat="44.39835" lon="4.39771">
        <ele>91</ele>
        <time>2022-06-11T09:09:02Z</time>
      </trkpt>
      <trkpt lat="44.39835" lon="4.39778">
        <ele>91</ele>
        <time>2022-06-11T09:09:03Z</time>
      </trkpt>
      <trkpt lat="44.39834" lon="4.39785">
        <ele>91</ele>
        <time>2022-06-11T09:09:04Z</time>
      </trkpt>
      <trkpt lat="44.39833" lon="4.39791">
        <ele>91.1</ele>
        <time>2022-06-11T09:09:05Z</time>
      </trkpt>
      <trkpt lat="44.39833" lon="4.39797">
        <ele>91.1</ele>
        <time>2022-06-11T09:09:06Z</time>
      </trkpt>
      <trkpt lat="44.39832" lon="4.39805">
        <ele>91.1</ele>
        <time>2022-06-11T09:09:07Z</time>
      </trkpt>
      <trkpt lat="44.39832" lon="4.39811">
        <ele>91.1</ele>
        <time>2022-06-11T09:09:08Z</time>
      </trkpt>
      <trkpt lat="44.39832" lon="4.39817">
        <ele>91.1</ele>
        <time>2022-06-11T09:09:09Z</time>
      </trkpt>
      <trkpt lat="44.39832" lon="4.39819">
        <ele>91.1</ele>
        <time>2022-06-11T09:09:10Z</time>
      </trkpt>
      <trkpt lat="44.3983" lon="4.39828">
        <ele>91.1</ele>
        <time>2022-06-11T09:09:11Z</time>
      </trkpt>
      <trkpt lat="44.39829" lon="4.39835">
        <ele>91.1</ele>
        <time>2022-06-11T09:09:12Z</time>
      </trkpt>
      <trkpt lat="44.39828" lon="4.39841">
        <ele>91.1</ele>
        <time>2022-06-11T09:09:13Z</time>
      </trkpt>
      <trkpt lat="44.39827" lon="4.39849">
        <ele>91.1</ele>
        <time>2022-06-11T09:09:14Z</time>
      </trkpt>
      <trkpt lat="44.39826" lon="4.39856">
        <ele>91.1</ele>
        <time>2022-06-11T09:09:15Z</time>
      </trkpt>
      <trkpt lat="44.39825" lon="4.39863">
        <ele>91.1</ele>
        <time>2022-06-11T09:09:16Z</time>
      </trkpt>
      <trkpt lat="44.39823" lon="4.3987">
        <ele>91.1</ele>
        <time>2022-06-11T09:09:17Z</time>
      </trkpt>
      <trkpt lat="44.39822" lon="4.39875">
        <ele>91.1</ele>
        <time>2022-06-11T09:09:18Z</time>
      </trkpt>
      <trkpt lat="44.39821" lon="4.39878">
        <ele>91.1</ele>
        <time>2022-06-11T09:09:19Z</time>
      </trkpt>
      <trkpt lat="44.39819" lon="4.39887">
        <ele>91.1</ele>
        <time>2022-06-11T09:09:20Z</time>
      </trkpt>
      <trkpt lat="44.39818" lon="4.39896">
        <ele>91.1</ele>
        <time>2022-06-11T09:09:22Z</time>
      </trkpt>
      <trkpt lat="44.39817" lon="4.39904">
        <ele>91.1</ele>
        <time>2022-06-11T09:09:23Z</time>
      </trkpt>
      <trkpt lat="44.39816" lon="4.3991">
        <ele>91.2</ele>
        <time>2022-06-11T09:09:25Z</time>
      </trkpt>
      <trkpt lat="44.39815" lon="4.39915">
        <ele>91.2</ele>
        <time>2022-06-11T09:09:26Z</time>
      </trkpt>
      <trkpt lat="44.39815" lon="4.39919">
        <ele>91.2</ele>
        <time>2022-06-11T09:09:27Z</time>
      </trkpt>
      <trkpt lat="44.39814" lon="4.39924">
        <ele>91.2</ele>
        <time>2022-06-11T09:09:28Z</time>
      </trkpt>
      <trkpt lat="44.39813" lon="4.39933">
        <ele>91.2</ele>
        <time>2022-06-11T09:09:29Z</time>
      </trkpt>
      <trkpt lat="44.39812" lon="4.39939">
        <ele>91.2</ele>
        <time>2022-06-11T09:09:31Z</time>
      </trkpt>
      <trkpt lat="44.39811" lon="4.39944">
        <ele>91.2</ele>
        <time>2022-06-11T09:09:32Z</time>
      </trkpt>
      <trkpt lat="44.39811" lon="4.39949">
        <ele>91.2</ele>
        <time>2022-06-11T09:09:33Z</time>
      </trkpt>
      <trkpt lat="44.3981" lon="4.39955">
        <ele>91.2</ele>
        <time>2022-06-11T09:09:34Z</time>
      </trkpt>
      <trkpt lat="44.39808" lon="4.39961">
        <ele>91.2</ele>
        <time>2022-06-11T09:09:35Z</time>
      </trkpt>
      <trkpt lat="44.39807" lon="4.39967">
        <ele>91.3</ele>
        <time>2022-06-11T09:09:36Z</time>
      </trkpt>
      <trkpt lat="44.39806" lon="4.39973">
        <ele>91.3</ele>
        <time>2022-06-11T09:09:37Z</time>
      </trkpt>
      <trkpt lat="44.39805" lon="4.39979">
        <ele>91.3</ele>
        <time>2022-06-11T09:09:38Z</time>
      </trkpt>
      <trkpt lat="44.39804" lon="4.39986">
        <ele>91.3</ele>
        <time>2022-06-11T09:09:39Z</time>
      </trkpt>
      <trkpt lat="44.39802" lon="4.39992">
        <ele>91.3</ele>
        <time>2022-06-11T09:09:40Z</time>
      </trkpt>
      <trkpt lat="44.39801" lon="4.39998">
        <ele>91.3</ele>
        <time>2022-06-11T09:09:41Z</time>
      </trkpt>
      <trkpt lat="44.39799" lon="4.40005">
        <ele>91.4</ele>
        <time>2022-06-11T09:09:42Z</time>
      </trkpt>
      <trkpt lat="44.39797" lon="4.40011">
        <ele>91.4</ele>
        <time>2022-06-11T09:09:43Z</time>
      </trkpt>
      <trkpt lat="44.39795" lon="4.40016">
        <ele>91.4</ele>
        <time>2022-06-11T09:09:44Z</time>
      </trkpt>
      <trkpt lat="44.39793" lon="4.40023">
        <ele>91.4</ele>
        <time>2022-06-11T09:09:45Z</time>
      </trkpt>
      <trkpt lat="44.39791" lon="4.40029">
        <ele>91.4</ele>
        <time>2022-06-11T09:09:46Z</time>
      </trkpt>
      <trkpt lat="44.39789" lon="4.40035">
        <ele>91.5</ele>
        <time>2022-06-11T09:09:47Z</time>
      </trkpt>
      <trkpt lat="44.39786" lon="4.40044">
        <ele>91.5</ele>
        <time>2022-06-11T09:09:49Z</time>
      </trkpt>
      <trkpt lat="44.39784" lon="4.40049">
        <ele>91.5</ele>
        <time>2022-06-11T09:09:50Z</time>
      </trkpt>
      <trkpt lat="44.3978" lon="4.40059">
        <ele>91.5</ele>
        <time>2022-06-11T09:09:51Z</time>
      </trkpt>
      <trkpt lat="44.39778" lon="4.40065">
        <ele>91.5</ele>
        <time>2022-06-11T09:09:53Z</time>
      </trkpt>
      <trkpt lat="44.39776" lon="4.4007">
        <ele>91.5</ele>
        <time>2022-06-11T09:09:54Z</time>
      </trkpt>
      <trkpt lat="44.39773" lon="4.40078">
        <ele>91.5</ele>
        <time>2022-06-11T09:09:55Z</time>
      </trkpt>
      <trkpt lat="44.3977" lon="4.40086">
        <ele>91.5</ele>
        <time>2022-06-11T09:09:57Z</time>
      </trkpt>
      <trkpt lat="44.39767" lon="4.40091">
        <ele>91.6</ele>
        <time>2022-06-11T09:09:58Z</time>
      </trkpt>
      <trkpt lat="44.39764" lon="4.40098">
        <ele>91.6</ele>
        <time>2022-06-11T09:09:59Z</time>
      </trkpt>
      <trkpt lat="44.39761" lon="4.40105">
        <ele>91.6</ele>
        <time>2022-06-11T09:10:00Z</time>
      </trkpt>
      <trkpt lat="44.39759" lon="4.40112">
        <ele>91.6</ele>
        <time>2022-06-11T09:10:02Z</time>
      </trkpt>
      <trkpt lat="44.39757" lon="4.40117">
        <ele>91.6</ele>
        <time>2022-06-11T09:10:03Z</time>
      </trkpt>
      <trkpt lat="44.39754" lon="4.40123">
        <ele>91.6</ele>
        <time>2022-06-11T09:10:04Z</time>
      </trkpt>
      <trkpt lat="44.39752" lon="4.40128">
        <ele>91.6</ele>
        <time>2022-06-11T09:10:05Z</time>
      </trkpt>
      <trkpt lat="44.3975" lon="4.40134">
        <ele>91.6</ele>
        <time>2022-06-11T09:10:06Z</time>
      </trkpt>
      <trkpt lat="44.39748" lon="4.40139">
        <ele>91.6</ele>
        <time>2022-06-11T09:10:07Z</time>
      </trkpt>
      <trkpt lat="44.39745" lon="4.40144">
        <ele>91.7</ele>
        <time>2022-06-11T09:10:08Z</time>
      </trkpt>
      <trkpt lat="44.39743" lon="4.4015">
        <ele>91.7</ele>
        <time>2022-06-11T09:10:09Z</time>
      </trkpt>
      <trkpt lat="44.39741" lon="4.40155">
        <ele>91.7</ele>
        <time>2022-06-11T09:10:10Z</time>
      </trkpt>
      <trkpt lat="44.39738" lon="4.40161">
        <ele>91.7</ele>
        <time>2022-06-11T09:10:11Z</time>
      </trkpt>
      <trkpt lat="44.39736" lon="4.40167">
        <ele>91.7</ele>
        <time>2022-06-11T09:10:12Z</time>
      </trkpt>
      <trkpt lat="44.39733" lon="4.40172">
        <ele>91.7</ele>
        <time>2022-06-11T09:10:13Z</time>
      </trkpt>
      <trkpt lat="44.39731" lon="4.40178">
        <ele>91.8</ele>
        <time>2022-06-11T09:10:14Z</time>
      </trkpt>
      <trkpt lat="44.39728" lon="4.40183">
        <ele>91.8</ele>
        <time>2022-06-11T09:10:15Z</time>
      </trkpt>
      <trkpt lat="44.39725" lon="4.40188">
        <ele>91.8</ele>
        <time>2022-06-11T09:10:16Z</time>
      </trkpt>
      <trkpt lat="44.39722" lon="4.40194">
        <ele>91.8</ele>
        <time>2022-06-11T09:10:17Z</time>
      </trkpt>
      <trkpt lat="44.39719" lon="4.40199">
        <ele>91.8</ele>
        <time>2022-06-11T09:10:18Z</time>
      </trkpt>
      <trkpt lat="44.39716" lon="4.40203">
        <ele>91.8</ele>
        <time>2022-06-11T09:10:19Z</time>
      </trkpt>
      <trkpt lat="44.39712" lon="4.40208">
        <ele>91.8</ele>
        <time>2022-06-11T09:10:20Z</time>
      </trkpt>
      <trkpt lat="44.39709" lon="4.40213">
        <ele>91.8</ele>
        <time>2022-06-11T09:10:21Z</time>
      </trkpt>
      <trkpt lat="44.39705" lon="4.40217">
        <ele>91.8</ele>
        <time>2022-06-11T09:10:22Z</time>
      </trkpt>
      <trkpt lat="44.39701" lon="4.40221">
        <ele>91.8</ele>
        <time>2022-06-11T09:10:23Z</time>
      </trkpt>
      <trkpt lat="44.39698" lon="4.40226">
        <ele>91.8</ele>
        <time>2022-06-11T09:10:24Z</time>
      </trkpt>
      <trkpt lat="44.39694" lon="4.40231">
        <ele>91.8</ele>
        <time>2022-06-11T09:10:25Z</time>
      </trkpt>
      <trkpt lat="44.3969" lon="4.40235">
        <ele>91.7</ele>
        <time>2022-06-11T09:10:26Z</time>
      </trkpt>
      <trkpt lat="44.39686" lon="4.40239">
        <ele>91.7</ele>
        <time>2022-06-11T09:10:27Z</time>
      </trkpt>
      <trkpt lat="44.39683" lon="4.40243">
        <ele>91.7</ele>
        <time>2022-06-11T09:10:28Z</time>
      </trkpt>
      <trkpt lat="44.39679" lon="4.40248">
        <ele>91.7</ele>
        <time>2022-06-11T09:10:29Z</time>
      </trkpt>
      <trkpt lat="44.39676" lon="4.40252">
        <ele>91.7</ele>
        <time>2022-06-11T09:10:30Z</time>
      </trkpt>
      <trkpt lat="44.39672" lon="4.40256">
        <ele>91.7</ele>
        <time>2022-06-11T09:10:31Z</time>
      </trkpt>
      <trkpt lat="44.39668" lon="4.40261">
        <ele>91.7</ele>
        <time>2022-06-11T09:10:32Z</time>
      </trkpt>
      <trkpt lat="44.39664" lon="4.40265">
        <ele>91.7</ele>
        <time>2022-06-11T09:10:33Z</time>
      </trkpt>
      <trkpt lat="44.39661" lon="4.40269">
        <ele>91.7</ele>
        <time>2022-06-11T09:10:34Z</time>
      </trkpt>
      <trkpt lat="44.39657" lon="4.40274">
        <ele>91.8</ele>
        <time>2022-06-11T09:10:35Z</time>
      </trkpt>
      <trkpt lat="44.39653" lon="4.40277">
        <ele>91.8</ele>
        <time>2022-06-11T09:10:36Z</time>
      </trkpt>
      <trkpt lat="44.3965" lon="4.40281">
        <ele>91.8</ele>
        <time>2022-06-11T09:10:37Z</time>
      </trkpt>
      <trkpt lat="44.39647" lon="4.40285">
        <ele>91.8</ele>
        <time>2022-06-11T09:10:38Z</time>
      </trkpt>
      <trkpt lat="44.39644" lon="4.40289">
        <ele>91.8</ele>
        <time>2022-06-11T09:10:39Z</time>
      </trkpt>
      <trkpt lat="44.39641" lon="4.40291">
        <ele>91.8</ele>
        <time>2022-06-11T09:10:40Z</time>
      </trkpt>
      <trkpt lat="44.39637" lon="4.40296">
        <ele>91.8</ele>
        <time>2022-06-11T09:10:41Z</time>
      </trkpt>
      <trkpt lat="44.39633" lon="4.403">
        <ele>91.8</ele>
        <time>2022-06-11T09:10:42Z</time>
      </trkpt>
      <trkpt lat="44.39629" lon="4.40304">
        <ele>91.8</ele>
        <time>2022-06-11T09:10:43Z</time>
      </trkpt>
      <trkpt lat="44.39624" lon="4.40307">
        <ele>91.8</ele>
        <time>2022-06-11T09:10:44Z</time>
      </trkpt>
      <trkpt lat="44.39621" lon="4.40311">
        <ele>91.8</ele>
        <time>2022-06-11T09:10:45Z</time>
      </trkpt>
      <trkpt lat="44.39616" lon="4.40315">
        <ele>91.9</ele>
        <time>2022-06-11T09:10:46Z</time>
      </trkpt>
      <trkpt lat="44.39612" lon="4.40318">
        <ele>91.9</ele>
        <time>2022-06-11T09:10:47Z</time>
      </trkpt>
      <trkpt lat="44.39608" lon="4.40321">
        <ele>92</ele>
        <time>2022-06-11T09:10:48Z</time>
      </trkpt>
      <trkpt lat="44.39604" lon="4.40324">
        <ele>92</ele>
        <time>2022-06-11T09:10:49Z</time>
      </trkpt>
      <trkpt lat="44.396" lon="4.40326">
        <ele>92</ele>
        <time>2022-06-11T09:10:50Z</time>
      </trkpt>
      <trkpt lat="44.39595" lon="4.40328">
        <ele>92.1</ele>
        <time>2022-06-11T09:10:51Z</time>
      </trkpt>
      <trkpt lat="44.3959" lon="4.40331">
        <ele>92.1</ele>
        <time>2022-06-11T09:10:52Z</time>
      </trkpt>
      <trkpt lat="44.39587" lon="4.40331">
        <ele>92.1</ele>
        <time>2022-06-11T09:10:53Z</time>
      </trkpt>
      <trkpt lat="44.39586" lon="4.40328">
        <ele>92.1</ele>
        <time>2022-06-11T09:10:54Z</time>
      </trkpt>
      <trkpt lat="44.39581" lon="4.4033">
        <ele>92.1</ele>
        <time>2022-06-11T09:10:55Z</time>
      </trkpt>
      <trkpt lat="44.39572" lon="4.40331">
        <ele>92.2</ele>
        <time>2022-06-11T09:10:56Z</time>
      </trkpt>
      <trkpt lat="44.39564" lon="4.40333">
        <ele>92.2</ele>
        <time>2022-06-11T09:10:58Z</time>
      </trkpt>
      <trkpt lat="44.39559" lon="4.40334">
        <ele>92.3</ele>
        <time>2022-06-11T09:10:59Z</time>
      </trkpt>
      <trkpt lat="44.39554" lon="4.4033">
        <ele>92.3</ele>
        <time>2022-06-11T09:11:00Z</time>
      </trkpt>
      <trkpt lat="44.39546" lon="4.40336">
        <ele>92.3</ele>
        <time>2022-06-11T09:11:02Z</time>
      </trkpt>
      <trkpt lat="44.39541" lon="4.40338">
        <ele>92.4</ele>
        <time>2022-06-11T09:11:03Z</time>
      </trkpt>
      <trkpt lat="44.39537" lon="4.40339">
        <ele>92.4</ele>
        <time>2022-06-11T09:11:04Z</time>
      </trkpt>
      <trkpt lat="44.39532" lon="4.4034">
        <ele>92.4</ele>
        <time>2022-06-11T09:11:05Z</time>
      </trkpt>
      <trkpt lat="44.39528" lon="4.4034">
        <ele>92.5</ele>
        <time>2022-06-11T09:11:06Z</time>
      </trkpt>
      <trkpt lat="44.39523" lon="4.40342">
        <ele>92.5</ele>
        <time>2022-06-11T09:11:07Z</time>
      </trkpt>
      <trkpt lat="44.39518" lon="4.40343">
        <ele>92.5</ele>
        <time>2022-06-11T09:11:08Z</time>
      </trkpt>
      <trkpt lat="44.39514" lon="4.40348">
        <ele>92.6</ele>
        <time>2022-06-11T09:11:09Z</time>
      </trkpt>
      <trkpt lat="44.39509" lon="4.40346">
        <ele>92.6</ele>
        <time>2022-06-11T09:11:10Z</time>
      </trkpt>
      <trkpt lat="44.39501" lon="4.40345">
        <ele>92.6</ele>
        <time>2022-06-11T09:11:12Z</time>
      </trkpt>
      <trkpt lat="44.39496" lon="4.40347">
        <ele>92.7</ele>
        <time>2022-06-11T09:11:13Z</time>
      </trkpt>
      <trkpt lat="44.39491" lon="4.40348">
        <ele>92.7</ele>
        <time>2022-06-11T09:11:14Z</time>
      </trkpt>
      <trkpt lat="44.39486" lon="4.40349">
        <ele>92.7</ele>
        <time>2022-06-11T09:11:15Z</time>
      </trkpt>
      <trkpt lat="44.39481" lon="4.4035">
        <ele>92.8</ele>
        <time>2022-06-11T09:11:16Z</time>
      </trkpt>
      <trkpt lat="44.39476" lon="4.40352">
        <ele>92.8</ele>
        <time>2022-06-11T09:11:17Z</time>
      </trkpt>
      <trkpt lat="44.39471" lon="4.40353">
        <ele>92.9</ele>
        <time>2022-06-11T09:11:18Z</time>
      </trkpt>
      <trkpt lat="44.39466" lon="4.40354">
        <ele>92.9</ele>
        <time>2022-06-11T09:11:19Z</time>
      </trkpt>
      <trkpt lat="44.39461" lon="4.40355">
        <ele>92.9</ele>
        <time>2022-06-11T09:11:20Z</time>
      </trkpt>
      <trkpt lat="44.39456" lon="4.40357">
        <ele>93</ele>
        <time>2022-06-11T09:11:21Z</time>
      </trkpt>
      <trkpt lat="44.39451" lon="4.40358">
        <ele>93</ele>
        <time>2022-06-11T09:11:22Z</time>
      </trkpt>
      <trkpt lat="44.39446" lon="4.40359">
        <ele>93</ele>
        <time>2022-06-11T09:11:23Z</time>
      </trkpt>
      <trkpt lat="44.39441" lon="4.4036">
        <ele>93</ele>
        <time>2022-06-11T09:11:24Z</time>
      </trkpt>
      <trkpt lat="44.39436" lon="4.40361">
        <ele>93</ele>
        <time>2022-06-11T09:11:25Z</time>
      </trkpt>
      <trkpt lat="44.39431" lon="4.40362">
        <ele>93</ele>
        <time>2022-06-11T09:11:26Z</time>
      </trkpt>
      <trkpt lat="44.39427" lon="4.40363">
        <ele>93</ele>
        <time>2022-06-11T09:11:27Z</time>
      </trkpt>
      <trkpt lat="44.39422" lon="4.40365">
        <ele>93.1</ele>
        <time>2022-06-11T09:11:28Z</time>
      </trkpt>
      <trkpt lat="44.39417" lon="4.40366">
        <ele>93.1</ele>
        <time>2022-06-11T09:11:29Z</time>
      </trkpt>
      <trkpt lat="44.39412" lon="4.40367">
        <ele>93.1</ele>
        <time>2022-06-11T09:11:30Z</time>
      </trkpt>
      <trkpt lat="44.39407" lon="4.40368">
        <ele>93.2</ele>
        <time>2022-06-11T09:11:31Z</time>
      </trkpt>
      <trkpt lat="44.39403" lon="4.40369">
        <ele>93.2</ele>
        <time>2022-06-11T09:11:32Z</time>
      </trkpt>
      <trkpt lat="44.39398" lon="4.40371">
        <ele>93.3</ele>
        <time>2022-06-11T09:11:33Z</time>
      </trkpt>
      <trkpt lat="44.39394" lon="4.40372">
        <ele>93.3</ele>
        <time>2022-06-11T09:11:34Z</time>
      </trkpt>
      <trkpt lat="44.39389" lon="4.40373">
        <ele>93.4</ele>
        <time>2022-06-11T09:11:35Z</time>
      </trkpt>
      <trkpt lat="44.39384" lon="4.40374">
        <ele>93.4</ele>
        <time>2022-06-11T09:11:36Z</time>
      </trkpt>
      <trkpt lat="44.3938" lon="4.40375">
        <ele>93.5</ele>
        <time>2022-06-11T09:11:37Z</time>
      </trkpt>
      <trkpt lat="44.39375" lon="4.40376">
        <ele>93.6</ele>
        <time>2022-06-11T09:11:38Z</time>
      </trkpt>
      <trkpt lat="44.3937" lon="4.40377">
        <ele>93.6</ele>
        <time>2022-06-11T09:11:39Z</time>
      </trkpt>
      <trkpt lat="44.39367" lon="4.40378">
        <ele>93.7</ele>
        <time>2022-06-11T09:11:40Z</time>
      </trkpt>
      <trkpt lat="44.39363" lon="4.40379">
        <ele>93.7</ele>
        <time>2022-06-11T09:11:41Z</time>
      </trkpt>
      <trkpt lat="44.39358" lon="4.4038">
        <ele>93.8</ele>
        <time>2022-06-11T09:11:42Z</time>
      </trkpt>
      <trkpt lat="44.39355" lon="4.40381">
        <ele>93.8</ele>
        <time>2022-06-11T09:11:43Z</time>
      </trkpt>
      <trkpt lat="44.3935" lon="4.40381">
        <ele>93.9</ele>
        <time>2022-06-11T09:11:44Z</time>
      </trkpt>
      <trkpt lat="44.39346" lon="4.40381">
        <ele>94</ele>
        <time>2022-06-11T09:11:45Z</time>
      </trkpt>
      <trkpt lat="44.39342" lon="4.40381">
        <ele>94.1</ele>
        <time>2022-06-11T09:11:46Z</time>
      </trkpt>
      <trkpt lat="44.39339" lon="4.40383">
        <ele>94.1</ele>
        <time>2022-06-11T09:11:47Z</time>
      </trkpt>
      <trkpt lat="44.39334" lon="4.4038">
        <ele>94.3</ele>
        <time>2022-06-11T09:11:48Z</time>
      </trkpt>
      <trkpt lat="44.39329" lon="4.40376">
        <ele>94.4</ele>
        <time>2022-06-11T09:11:49Z</time>
      </trkpt>
      <trkpt lat="44.39326" lon="4.40374">
        <ele>94.6</ele>
        <time>2022-06-11T09:11:50Z</time>
      </trkpt>
      <trkpt lat="44.39322" lon="4.40371">
        <ele>94.7</ele>
        <time>2022-06-11T09:11:51Z</time>
      </trkpt>
      <trkpt lat="44.39319" lon="4.40368">
        <ele>94.8</ele>
        <time>2022-06-11T09:11:52Z</time>
      </trkpt>
      <trkpt lat="44.39317" lon="4.40365">
        <ele>94.9</ele>
        <time>2022-06-11T09:11:53Z</time>
      </trkpt>
      <trkpt lat="44.39315" lon="4.40362">
        <ele>95</ele>
        <time>2022-06-11T09:11:54Z</time>
      </trkpt>
      <trkpt lat="44.39312" lon="4.40358">
        <ele>95.2</ele>
        <time>2022-06-11T09:11:55Z</time>
      </trkpt>
      <trkpt lat="44.39311" lon="4.40356">
        <ele>95.2</ele>
        <time>2022-06-11T09:11:56Z</time>
      </trkpt>
      <trkpt lat="44.39309" lon="4.40352">
        <ele>95.4</ele>
        <time>2022-06-11T09:11:57Z</time>
      </trkpt>
      <trkpt lat="44.39309" lon="4.4035">
        <ele>95.4</ele>
        <time>2022-06-11T09:11:58Z</time>
      </trkpt>
      <trkpt lat="44.39307" lon="4.40345">
        <ele>95.6</ele>
        <time>2022-06-11T09:11:59Z</time>
      </trkpt>
      <trkpt lat="44.39307" lon="4.40344">
        <ele>95.6</ele>
        <time>2022-06-11T09:12:00Z</time>
      </trkpt>
      <trkpt lat="44.39305" lon="4.40339">
        <ele>95.8</ele>
        <time>2022-06-11T09:12:01Z</time>
      </trkpt>
      <trkpt lat="44.39304" lon="4.40336">
        <ele>95.9</ele>
        <time>2022-06-11T09:12:02Z</time>
      </trkpt>
      <trkpt lat="44.39302" lon="4.40331">
        <ele>96.1</ele>
        <time>2022-06-11T09:12:04Z</time>
      </trkpt>
      <trkpt lat="44.39302" lon="4.4033">
        <ele>96.1</ele>
        <time>2022-06-11T09:12:05Z</time>
      </trkpt>
      <trkpt lat="44.393" lon="4.40324">
        <ele>96.3</ele>
        <time>2022-06-11T09:12:07Z</time>
      </trkpt>
      <trkpt lat="44.39299" lon="4.40321">
        <ele>96.4</ele>
        <time>2022-06-11T09:12:08Z</time>
      </trkpt>
      <trkpt lat="44.39298" lon="4.40319">
        <ele>96.5</ele>
        <time>2022-06-11T09:12:09Z</time>
      </trkpt>
      <trkpt lat="44.39296" lon="4.40314">
        <ele>96.7</ele>
        <time>2022-06-11T09:12:11Z</time>
      </trkpt>
      <trkpt lat="44.39294" lon="4.40309">
        <ele>96.9</ele>
        <time>2022-06-11T09:12:12Z</time>
      </trkpt>
      <trkpt lat="44.39293" lon="4.40307">
        <ele>97</ele>
        <time>2022-06-11T09:12:13Z</time>
      </trkpt>
      <trkpt lat="44.39291" lon="4.40303">
        <ele>97.2</ele>
        <time>2022-06-11T09:12:14Z</time>
      </trkpt>
      <trkpt lat="44.39291" lon="4.40301">
        <ele>97.3</ele>
        <time>2022-06-11T09:12:15Z</time>
      </trkpt>
      <trkpt lat="44.39289" lon="4.40296">
        <ele>97.5</ele>
        <time>2022-06-11T09:12:16Z</time>
      </trkpt>
      <trkpt lat="44.39289" lon="4.40295">
        <ele>97.6</ele>
        <time>2022-06-11T09:12:17Z</time>
      </trkpt>
      <trkpt lat="44.39287" lon="4.4029">
        <ele>97.8</ele>
        <time>2022-06-11T09:12:18Z</time>
      </trkpt>
      <trkpt lat="44.39286" lon="4.40288">
        <ele>97.8</ele>
        <time>2022-06-11T09:12:19Z</time>
      </trkpt>
      <trkpt lat="44.39285" lon="4.40285">
        <ele>98</ele>
        <time>2022-06-11T09:12:20Z</time>
      </trkpt>
      <trkpt lat="44.39282" lon="4.40279">
        <ele>98.3</ele>
        <time>2022-06-11T09:12:21Z</time>
      </trkpt>
      <trkpt lat="44.3928" lon="4.40274">
        <ele>98.5</ele>
        <time>2022-06-11T09:12:23Z</time>
      </trkpt>
      <trkpt lat="44.39279" lon="4.40272">
        <ele>98.5</ele>
        <time>2022-06-11T09:12:24Z</time>
      </trkpt>
      <trkpt lat="44.39277" lon="4.40268">
        <ele>98.7</ele>
        <time>2022-06-11T09:12:25Z</time>
      </trkpt>
      <trkpt lat="44.39276" lon="4.40266">
        <ele>98.8</ele>
        <time>2022-06-11T09:12:26Z</time>
      </trkpt>
      <trkpt lat="44.39274" lon="4.40262">
        <ele>99</ele>
        <time>2022-06-11T09:12:27Z</time>
      </trkpt>
      <trkpt lat="44.39273" lon="4.4026">
        <ele>99.1</ele>
        <time>2022-06-11T09:12:28Z</time>
      </trkpt>
      <trkpt lat="44.3927" lon="4.40256">
        <ele>99.2</ele>
        <time>2022-06-11T09:12:29Z</time>
      </trkpt>
      <trkpt lat="44.39269" lon="4.40255">
        <ele>99.3</ele>
        <time>2022-06-11T09:12:30Z</time>
      </trkpt>
      <trkpt lat="44.39267" lon="4.40251">
        <ele>99.5</ele>
        <time>2022-06-11T09:12:31Z</time>
      </trkpt>
      <trkpt lat="44.39266" lon="4.4025">
        <ele>99.5</ele>
        <time>2022-06-11T09:12:32Z</time>
      </trkpt>
      <trkpt lat="44.39264" lon="4.40246">
        <ele>99.7</ele>
        <time>2022-06-11T09:12:33Z</time>
      </trkpt>
      <trkpt lat="44.39263" lon="4.40244">
        <ele>99.8</ele>
        <time>2022-06-11T09:12:34Z</time>
      </trkpt>
      <trkpt lat="44.39261" lon="4.40241">
        <ele>99.9</ele>
        <time>2022-06-11T09:12:35Z</time>
      </trkpt>
      <trkpt lat="44.39259" lon="4.40238">
        <ele>100.1</ele>
        <time>2022-06-11T09:12:36Z</time>
      </trkpt>
      <trkpt lat="44.39257" lon="4.40236">
        <ele>100.2</ele>
        <time>2022-06-11T09:12:37Z</time>
      </trkpt>
      <trkpt lat="44.39255" lon="4.40233">
        <ele>100.3</ele>
        <time>2022-06-11T09:12:38Z</time>
      </trkpt>
      <trkpt lat="44.39252" lon="4.4023">
        <ele>100.5</ele>
        <time>2022-06-11T09:12:39Z</time>
      </trkpt>
      <trkpt lat="44.39251" lon="4.40229">
        <ele>100.6</ele>
        <time>2022-06-11T09:12:40Z</time>
      </trkpt>
      <trkpt lat="44.39247" lon="4.40224">
        <ele>100.8</ele>
        <time>2022-06-11T09:12:41Z</time>
      </trkpt>
      <trkpt lat="44.39245" lon="4.40221">
        <ele>100.9</ele>
        <time>2022-06-11T09:12:42Z</time>
      </trkpt>
      <trkpt lat="44.39243" lon="4.40219">
        <ele>101.1</ele>
        <time>2022-06-11T09:12:44Z</time>
      </trkpt>
      <trkpt lat="44.39241" lon="4.40216">
        <ele>101.2</ele>
        <time>2022-06-11T09:12:45Z</time>
      </trkpt>
      <trkpt lat="44.3924" lon="4.40214">
        <ele>101.3</ele>
        <time>2022-06-11T09:12:46Z</time>
      </trkpt>
      <trkpt lat="44.39238" lon="4.4021">
        <ele>101.4</ele>
        <time>2022-06-11T09:12:47Z</time>
      </trkpt>
      <trkpt lat="44.39238" lon="4.40208">
        <ele>101.5</ele>
        <time>2022-06-11T09:12:48Z</time>
      </trkpt>
      <trkpt lat="44.39235" lon="4.40202">
        <ele>101.7</ele>
        <time>2022-06-11T09:12:49Z</time>
      </trkpt>
      <trkpt lat="44.39233" lon="4.40199">
        <ele>101.8</ele>
        <time>2022-06-11T09:12:50Z</time>
      </trkpt>
      <trkpt lat="44.39231" lon="4.40196">
        <ele>102</ele>
        <time>2022-06-11T09:12:52Z</time>
      </trkpt>
      <trkpt lat="44.39229" lon="4.40192">
        <ele>102.1</ele>
        <time>2022-06-11T09:12:53Z</time>
      </trkpt>
      <trkpt lat="44.39228" lon="4.40191">
        <ele>102.2</ele>
        <time>2022-06-11T09:12:54Z</time>
      </trkpt>
      <trkpt lat="44.39225" lon="4.40187">
        <ele>102.3</ele>
        <time>2022-06-11T09:12:55Z</time>
      </trkpt>
      <trkpt lat="44.39224" lon="4.40186">
        <ele>102.4</ele>
        <time>2022-06-11T09:12:56Z</time>
      </trkpt>
      <trkpt lat="44.39221" lon="4.40182">
        <ele>102.6</ele>
        <time>2022-06-11T09:12:57Z</time>
      </trkpt>
      <trkpt lat="44.3922" lon="4.40181">
        <ele>102.6</ele>
        <time>2022-06-11T09:12:58Z</time>
      </trkpt>
      <trkpt lat="44.39217" lon="4.40178">
        <ele>102.8</ele>
        <time>2022-06-11T09:12:59Z</time>
      </trkpt>
      <trkpt lat="44.39216" lon="4.40177">
        <ele>102.8</ele>
        <time>2022-06-11T09:13:00Z</time>
      </trkpt>
      <trkpt lat="44.39213" lon="4.40174">
        <ele>103</ele>
        <time>2022-06-11T09:13:01Z</time>
      </trkpt>
      <trkpt lat="44.39212" lon="4.40173">
        <ele>103.1</ele>
        <time>2022-06-11T09:13:02Z</time>
      </trkpt>
      <trkpt lat="44.39208" lon="4.4017">
        <ele>103.2</ele>
        <time>2022-06-11T09:13:03Z</time>
      </trkpt>
      <trkpt lat="44.39207" lon="4.40169">
        <ele>103.3</ele>
        <time>2022-06-11T09:13:04Z</time>
      </trkpt>
      <trkpt lat="44.39204" lon="4.40168">
        <ele>103.4</ele>
        <time>2022-06-11T09:13:05Z</time>
      </trkpt>
      <trkpt lat="44.39201" lon="4.40166">
        <ele>103.6</ele>
        <time>2022-06-11T09:13:06Z</time>
      </trkpt>
      <trkpt lat="44.392" lon="4.40165">
        <ele>103.6</ele>
        <time>2022-06-11T09:13:07Z</time>
      </trkpt>
      <trkpt lat="44.39197" lon="4.40163">
        <ele>103.7</ele>
        <time>2022-06-11T09:13:08Z</time>
      </trkpt>
      <trkpt lat="44.39194" lon="4.40162">
        <ele>103.8</ele>
        <time>2022-06-11T09:13:09Z</time>
      </trkpt>
      <trkpt lat="44.39191" lon="4.40161">
        <ele>103.8</ele>
        <time>2022-06-11T09:13:10Z</time>
      </trkpt>
      <trkpt lat="44.39188" lon="4.4016">
        <ele>103.9</ele>
        <time>2022-06-11T09:13:11Z</time>
      </trkpt>
      <trkpt lat="44.39185" lon="4.4016">
        <ele>104</ele>
        <time>2022-06-11T09:13:12Z</time>
      </trkpt>
      <trkpt lat="44.39182" lon="4.4016">
        <ele>104</ele>
        <time>2022-06-11T09:13:13Z</time>
      </trkpt>
      <trkpt lat="44.39178" lon="4.4016">
        <ele>104.1</ele>
        <time>2022-06-11T09:13:14Z</time>
      </trkpt>
      <trkpt lat="44.39171" lon="4.40161">
        <ele>104.1</ele>
        <time>2022-06-11T09:13:15Z</time>
      </trkpt>
      <trkpt lat="44.39168" lon="4.40163">
        <ele>104.1</ele>
        <time>2022-06-11T09:13:17Z</time>
      </trkpt>
      <trkpt lat="44.39164" lon="4.40165">
        <ele>104.1</ele>
        <time>2022-06-11T09:13:18Z</time>
      </trkpt>
      <trkpt lat="44.3916" lon="4.40167">
        <ele>104</ele>
        <time>2022-06-11T09:13:19Z</time>
      </trkpt>
      <trkpt lat="44.39156" lon="4.4017">
        <ele>104</ele>
        <time>2022-06-11T09:13:20Z</time>
      </trkpt>
      <trkpt lat="44.39153" lon="4.40173">
        <ele>103.9</ele>
        <time>2022-06-11T09:13:21Z</time>
      </trkpt>
      <trkpt lat="44.39148" lon="4.4018">
        <ele>103.8</ele>
        <time>2022-06-11T09:13:22Z</time>
      </trkpt>
      <trkpt lat="44.39145" lon="4.40185">
        <ele>103.8</ele>
        <time>2022-06-11T09:13:23Z</time>
      </trkpt>
      <trkpt lat="44.39141" lon="4.4019">
        <ele>103.7</ele>
        <time>2022-06-11T09:13:24Z</time>
      </trkpt>
      <trkpt lat="44.39138" lon="4.40196">
        <ele>103.6</ele>
        <time>2022-06-11T09:13:25Z</time>
      </trkpt>
      <trkpt lat="44.39134" lon="4.40202">
        <ele>103.6</ele>
        <time>2022-06-11T09:13:26Z</time>
      </trkpt>
      <trkpt lat="44.39131" lon="4.40208">
        <ele>103.5</ele>
        <time>2022-06-11T09:13:27Z</time>
      </trkpt>
      <trkpt lat="44.39128" lon="4.40214">
        <ele>103.4</ele>
        <time>2022-06-11T09:13:28Z</time>
      </trkpt>
      <trkpt lat="44.39124" lon="4.4022">
        <ele>103.4</ele>
        <time>2022-06-11T09:13:29Z</time>
      </trkpt>
      <trkpt lat="44.39121" lon="4.40227">
        <ele>103.3</ele>
        <time>2022-06-11T09:13:30Z</time>
      </trkpt>
      <trkpt lat="44.39118" lon="4.40233">
        <ele>103.3</ele>
        <time>2022-06-11T09:13:31Z</time>
      </trkpt>
      <trkpt lat="44.39114" lon="4.40239">
        <ele>103.2</ele>
        <time>2022-06-11T09:13:32Z</time>
      </trkpt>
      <trkpt lat="44.39111" lon="4.40245">
        <ele>103.2</ele>
        <time>2022-06-11T09:13:33Z</time>
      </trkpt>
      <trkpt lat="44.39108" lon="4.40252">
        <ele>103.1</ele>
        <time>2022-06-11T09:13:34Z</time>
      </trkpt>
      <trkpt lat="44.39104" lon="4.40258">
        <ele>103.1</ele>
        <time>2022-06-11T09:13:35Z</time>
      </trkpt>
      <trkpt lat="44.39101" lon="4.40265">
        <ele>103</ele>
        <time>2022-06-11T09:13:36Z</time>
      </trkpt>
      <trkpt lat="44.39098" lon="4.40271">
        <ele>103</ele>
        <time>2022-06-11T09:13:37Z</time>
      </trkpt>
      <trkpt lat="44.39095" lon="4.40278">
        <ele>102.9</ele>
        <time>2022-06-11T09:13:38Z</time>
      </trkpt>
      <trkpt lat="44.39092" lon="4.40285">
        <ele>102.9</ele>
        <time>2022-06-11T09:13:39Z</time>
      </trkpt>
      <trkpt lat="44.3909" lon="4.40292">
        <ele>102.8</ele>
        <time>2022-06-11T09:13:40Z</time>
      </trkpt>
      <trkpt lat="44.39088" lon="4.403">
        <ele>102.8</ele>
        <time>2022-06-11T09:13:41Z</time>
      </trkpt>
      <trkpt lat="44.39086" lon="4.40307">
        <ele>102.7</ele>
        <time>2022-06-11T09:13:42Z</time>
      </trkpt>
      <trkpt lat="44.39085" lon="4.40316">
        <ele>102.6</ele>
        <time>2022-06-11T09:13:43Z</time>
      </trkpt>
      <trkpt lat="44.39084" lon="4.40324">
        <ele>102.6</ele>
        <time>2022-06-11T09:13:44Z</time>
      </trkpt>
      <trkpt lat="44.39083" lon="4.40333">
        <ele>102.5</ele>
        <time>2022-06-11T09:13:45Z</time>
      </trkpt>
      <trkpt lat="44.39083" lon="4.40341">
        <ele>102.4</ele>
        <time>2022-06-11T09:13:46Z</time>
      </trkpt>
      <trkpt lat="44.39084" lon="4.4035">
        <ele>102.4</ele>
        <time>2022-06-11T09:13:47Z</time>
      </trkpt>
      <trkpt lat="44.39085" lon="4.40359">
        <ele>102.3</ele>
        <time>2022-06-11T09:13:48Z</time>
      </trkpt>
      <trkpt lat="44.39085" lon="4.40368">
        <ele>102.2</ele>
        <time>2022-06-11T09:13:49Z</time>
      </trkpt>
      <trkpt lat="44.39086" lon="4.40376">
        <ele>102.1</ele>
        <time>2022-06-11T09:13:50Z</time>
      </trkpt>
      <trkpt lat="44.39087" lon="4.40385">
        <ele>102.1</ele>
        <time>2022-06-11T09:13:51Z</time>
      </trkpt>
      <trkpt lat="44.39088" lon="4.40393">
        <ele>102</ele>
        <time>2022-06-11T09:13:52Z</time>
      </trkpt>
      <trkpt lat="44.39088" lon="4.40402">
        <ele>102</ele>
        <time>2022-06-11T09:13:53Z</time>
      </trkpt>
      <trkpt lat="44.39089" lon="4.40411">
        <ele>101.9</ele>
        <time>2022-06-11T09:13:54Z</time>
      </trkpt>
      <trkpt lat="44.39089" lon="4.4042">
        <ele>101.9</ele>
        <time>2022-06-11T09:13:55Z</time>
      </trkpt>
      <trkpt lat="44.39089" lon="4.40429">
        <ele>101.8</ele>
        <time>2022-06-11T09:13:56Z</time>
      </trkpt>
      <trkpt lat="44.39089" lon="4.40438">
        <ele>101.8</ele>
        <time>2022-06-11T09:13:57Z</time>
      </trkpt>
      <trkpt lat="44.39089" lon="4.40446">
        <ele>101.8</ele>
        <time>2022-06-11T09:13:58Z</time>
      </trkpt>
      <trkpt lat="44.39087" lon="4.40455">
        <ele>101.7</ele>
        <time>2022-06-11T09:13:59Z</time>
      </trkpt>
      <trkpt lat="44.39084" lon="4.40463">
        <ele>101.7</ele>
        <time>2022-06-11T09:14:00Z</time>
      </trkpt>
      <trkpt lat="44.39081" lon="4.4047">
        <ele>101.7</ele>
        <time>2022-06-11T09:14:01Z</time>
      </trkpt>
      <trkpt lat="44.39078" lon="4.40477">
        <ele>101.6</ele>
        <time>2022-06-11T09:14:02Z</time>
      </trkpt>
      <trkpt lat="44.39074" lon="4.40483">
        <ele>101.6</ele>
        <time>2022-06-11T09:14:03Z</time>
      </trkpt>
      <trkpt lat="44.3907" lon="4.40489">
        <ele>101.5</ele>
        <time>2022-06-11T09:14:04Z</time>
      </trkpt>
      <trkpt lat="44.39067" lon="4.40496">
        <ele>101.4</ele>
        <time>2022-06-11T09:14:05Z</time>
      </trkpt>
      <trkpt lat="44.39063" lon="4.40503">
        <ele>101.3</ele>
        <time>2022-06-11T09:14:06Z</time>
      </trkpt>
      <trkpt lat="44.39059" lon="4.4051">
        <ele>101.3</ele>
        <time>2022-06-11T09:14:07Z</time>
      </trkpt>
      <trkpt lat="44.39055" lon="4.40516">
        <ele>101.2</ele>
        <time>2022-06-11T09:14:08Z</time>
      </trkpt>
      <trkpt lat="44.39051" lon="4.40522">
        <ele>101.1</ele>
        <time>2022-06-11T09:14:09Z</time>
      </trkpt>
      <trkpt lat="44.39046" lon="4.40528">
        <ele>101</ele>
        <time>2022-06-11T09:14:10Z</time>
      </trkpt>
      <trkpt lat="44.39041" lon="4.40534">
        <ele>100.9</ele>
        <time>2022-06-11T09:14:11Z</time>
      </trkpt>
      <trkpt lat="44.39036" lon="4.40538">
        <ele>100.8</ele>
        <time>2022-06-11T09:14:12Z</time>
      </trkpt>
      <trkpt lat="44.39031" lon="4.40543">
        <ele>100.7</ele>
        <time>2022-06-11T09:14:13Z</time>
      </trkpt>
      <trkpt lat="44.39025" lon="4.40547">
        <ele>100.6</ele>
        <time>2022-06-11T09:14:14Z</time>
      </trkpt>
      <trkpt lat="44.3902" lon="4.40551">
        <ele>100.5</ele>
        <time>2022-06-11T09:14:15Z</time>
      </trkpt>
      <trkpt lat="44.39014" lon="4.40556">
        <ele>100.4</ele>
        <time>2022-06-11T09:14:16Z</time>
      </trkpt>
      <trkpt lat="44.39009" lon="4.40561">
        <ele>100.3</ele>
        <time>2022-06-11T09:14:17Z</time>
      </trkpt>
      <trkpt lat="44.39003" lon="4.40567">
        <ele>100.2</ele>
        <time>2022-06-11T09:14:18Z</time>
      </trkpt>
      <trkpt lat="44.38998" lon="4.40575">
        <ele>100.1</ele>
        <time>2022-06-11T09:14:19Z</time>
      </trkpt>
      <trkpt lat="44.38994" lon="4.40583">
        <ele>100</ele>
        <time>2022-06-11T09:14:20Z</time>
      </trkpt>
      <trkpt lat="44.3899" lon="4.4059">
        <ele>99.9</ele>
        <time>2022-06-11T09:14:21Z</time>
      </trkpt>
      <trkpt lat="44.38986" lon="4.40598">
        <ele>99.8</ele>
        <time>2022-06-11T09:14:22Z</time>
      </trkpt>
      <trkpt lat="44.38982" lon="4.40606">
        <ele>99.8</ele>
        <time>2022-06-11T09:14:23Z</time>
      </trkpt>
      <trkpt lat="44.38978" lon="4.40614">
        <ele>99.7</ele>
        <time>2022-06-11T09:14:24Z</time>
      </trkpt>
      <trkpt lat="44.38975" lon="4.40623">
        <ele>99.7</ele>
        <time>2022-06-11T09:14:25Z</time>
      </trkpt>
      <trkpt lat="44.38973" lon="4.40632">
        <ele>99.6</ele>
        <time>2022-06-11T09:14:26Z</time>
      </trkpt>
      <trkpt lat="44.38972" lon="4.40642">
        <ele>99.6</ele>
        <time>2022-06-11T09:14:27Z</time>
      </trkpt>
      <trkpt lat="44.3897" lon="4.4065">
        <ele>99.5</ele>
        <time>2022-06-11T09:14:28Z</time>
      </trkpt>
      <trkpt lat="44.38968" lon="4.40659">
        <ele>99.4</ele>
        <time>2022-06-11T09:14:29Z</time>
      </trkpt>
      <trkpt lat="44.38965" lon="4.40668">
        <ele>99.3</ele>
        <time>2022-06-11T09:14:30Z</time>
      </trkpt>
      <trkpt lat="44.38961" lon="4.40676">
        <ele>99.1</ele>
        <time>2022-06-11T09:14:31Z</time>
      </trkpt>
      <trkpt lat="44.38957" lon="4.40685">
        <ele>99</ele>
        <time>2022-06-11T09:14:32Z</time>
      </trkpt>
      <trkpt lat="44.38953" lon="4.40693">
        <ele>98.8</ele>
        <time>2022-06-11T09:14:33Z</time>
      </trkpt>
      <trkpt lat="44.3895" lon="4.40702">
        <ele>98.6</ele>
        <time>2022-06-11T09:14:34Z</time>
      </trkpt>
      <trkpt lat="44.38947" lon="4.4071">
        <ele>98.5</ele>
        <time>2022-06-11T09:14:35Z</time>
      </trkpt>
      <trkpt lat="44.38943" lon="4.40718">
        <ele>98.3</ele>
        <time>2022-06-11T09:14:36Z</time>
      </trkpt>
      <trkpt lat="44.38939" lon="4.40726">
        <ele>98.1</ele>
        <time>2022-06-11T09:14:37Z</time>
      </trkpt>
      <trkpt lat="44.38935" lon="4.40734">
        <ele>97.9</ele>
        <time>2022-06-11T09:14:38Z</time>
      </trkpt>
      <trkpt lat="44.38931" lon="4.40741">
        <ele>97.7</ele>
        <time>2022-06-11T09:14:39Z</time>
      </trkpt>
      <trkpt lat="44.38926" lon="4.40749">
        <ele>97.6</ele>
        <time>2022-06-11T09:14:40Z</time>
      </trkpt>
      <trkpt lat="44.38922" lon="4.40756">
        <ele>97.4</ele>
        <time>2022-06-11T09:14:41Z</time>
      </trkpt>
      <trkpt lat="44.38916" lon="4.40761">
        <ele>97.3</ele>
        <time>2022-06-11T09:14:42Z</time>
      </trkpt>
      <trkpt lat="44.3891" lon="4.40765">
        <ele>97.1</ele>
        <time>2022-06-11T09:14:43Z</time>
      </trkpt>
      <trkpt lat="44.38904" lon="4.40769">
        <ele>96.9</ele>
        <time>2022-06-11T09:14:44Z</time>
      </trkpt>
      <trkpt lat="44.38896" lon="4.4077">
        <ele>96.6</ele>
        <time>2022-06-11T09:14:45Z</time>
      </trkpt>
      <trkpt lat="44.38888" lon="4.40768">
        <ele>96.4</ele>
        <time>2022-06-11T09:14:46Z</time>
      </trkpt>
      <trkpt lat="44.38882" lon="4.40765">
        <ele>96.2</ele>
        <time>2022-06-11T09:14:47Z</time>
      </trkpt>
      <trkpt lat="44.38874" lon="4.40763">
        <ele>95.9</ele>
        <time>2022-06-11T09:14:48Z</time>
      </trkpt>
      <trkpt lat="44.38867" lon="4.40763">
        <ele>95.6</ele>
        <time>2022-06-11T09:14:49Z</time>
      </trkpt>
      <trkpt lat="44.3886" lon="4.40765">
        <ele>95.3</ele>
        <time>2022-06-11T09:14:50Z</time>
      </trkpt>
      <trkpt lat="44.38853" lon="4.40768">
        <ele>95</ele>
        <time>2022-06-11T09:14:51Z</time>
      </trkpt>
      <trkpt lat="44.38847" lon="4.40774">
        <ele>94.7</ele>
        <time>2022-06-11T09:14:52Z</time>
      </trkpt>
      <trkpt lat="44.38842" lon="4.4078">
        <ele>94.4</ele>
        <time>2022-06-11T09:14:53Z</time>
      </trkpt>
      <trkpt lat="44.38836" lon="4.40787">
        <ele>94</ele>
        <time>2022-06-11T09:14:54Z</time>
      </trkpt>
      <trkpt lat="44.38831" lon="4.40794">
        <ele>93.7</ele>
        <time>2022-06-11T09:14:55Z</time>
      </trkpt>
      <trkpt lat="44.38825" lon="4.408">
        <ele>93.4</ele>
        <time>2022-06-11T09:14:56Z</time>
      </trkpt>
      <trkpt lat="44.3882" lon="4.40807">
        <ele>93.1</ele>
        <time>2022-06-11T09:14:57Z</time>
      </trkpt>
      <trkpt lat="44.38815" lon="4.40814">
        <ele>92.9</ele>
        <time>2022-06-11T09:14:58Z</time>
      </trkpt>
      <trkpt lat="44.3881" lon="4.4082">
        <ele>92.7</ele>
        <time>2022-06-11T09:14:59Z</time>
      </trkpt>
      <trkpt lat="44.38804" lon="4.40827">
        <ele>92.6</ele>
        <time>2022-06-11T09:15:00Z</time>
      </trkpt>
      <trkpt lat="44.38799" lon="4.40833">
        <ele>92.5</ele>
        <time>2022-06-11T09:15:01Z</time>
      </trkpt>
      <trkpt lat="44.38794" lon="4.40839">
        <ele>92.5</ele>
        <time>2022-06-11T09:15:02Z</time>
      </trkpt>
      <trkpt lat="44.38788" lon="4.40843">
        <ele>92.5</ele>
        <time>2022-06-11T09:15:03Z</time>
      </trkpt>
      <trkpt lat="44.38782" lon="4.40846">
        <ele>92.6</ele>
        <time>2022-06-11T09:15:04Z</time>
      </trkpt>
      <trkpt lat="44.38776" lon="4.40846">
        <ele>92.7</ele>
        <time>2022-06-11T09:15:05Z</time>
      </trkpt>
      <trkpt lat="44.38771" lon="4.40846">
        <ele>92.8</ele>
        <time>2022-06-11T09:15:06Z</time>
      </trkpt>
      <trkpt lat="44.38767" lon="4.40846">
        <ele>92.9</ele>
        <time>2022-06-11T09:15:07Z</time>
      </trkpt>
      <trkpt lat="44.38764" lon="4.40846">
        <ele>92.9</ele>
        <time>2022-06-11T09:15:08Z</time>
      </trkpt>
      <trkpt lat="44.38763" lon="4.40846">
        <ele>93</ele>
        <time>2022-06-11T09:15:09Z</time>
      </trkpt>
      <trkpt lat="44.38761" lon="4.40847">
        <ele>93</ele>
        <time>2022-06-11T09:15:10Z</time>
      </trkpt>
      <trkpt lat="44.3876" lon="4.40846">
        <ele>93.1</ele>
        <time>2022-06-11T09:15:11Z</time>
      </trkpt>
      <trkpt lat="44.3876" lon="4.40846">
        <ele>93.1</ele>
        <time>2022-06-11T09:15:12Z</time>
      </trkpt>
      <trkpt lat="44.38761" lon="4.40846">
        <ele>93.1</ele>
        <time>2022-06-11T09:15:13Z</time>
      </trkpt>
      <trkpt lat="44.38761" lon="4.40846">
        <ele>93.1</ele>
        <time>2022-06-11T09:15:14Z</time>
      </trkpt>
      <trkpt lat="44.38761" lon="4.40846">
        <ele>93.1</ele>
        <time>2022-06-11T09:15:15Z</time>
      </trkpt>
      <trkpt lat="44.38761" lon="4.40845">
        <ele>93.1</ele>
        <time>2022-06-11T09:15:16Z</time>
      </trkpt>
      <trkpt lat="44.3876" lon="4.40846">
        <ele>93.1</ele>
        <time>2022-06-11T09:15:17Z</time>
      </trkpt>
      <trkpt lat="44.3876" lon="4.40846">
        <ele>93.1</ele>
        <time>2022-06-11T09:15:18Z</time>
      </trkpt>
      <trkpt lat="44.3876" lon="4.40845">
        <ele>93.1</ele>
        <time>2022-06-11T09:15:19Z</time>
      </trkpt>
      <trkpt lat="44.3876" lon="4.40845">
        <ele>93.1</ele>
        <time>2022-06-11T09:15:20Z</time>
      </trkpt>
      <trkpt lat="44.3876" lon="4.40846">
        <ele>93.1</ele>
        <time>2022-06-11T09:15:22Z</time>
      </trkpt>
      <trkpt lat="44.3876" lon="4.40846">
        <ele>93.1</ele>
        <time>2022-06-11T09:15:23Z</time>
      </trkpt>
      <trkpt lat="44.3876" lon="4.40846">
        <ele>93.1</ele>
        <time>2022-06-11T09:15:24Z</time>
      </trkpt>
      <trkpt lat="44.3876" lon="4.40846">
        <ele>93.1</ele>
        <time>2022-06-11T09:15:25Z</time>
      </trkpt>
      <trkpt lat="44.3876" lon="4.40846">
        <ele>93.1</ele>
        <time>2022-06-11T09:15:26Z</time>
      </trkpt>
      <trkpt lat="44.3876" lon="4.40846">
        <ele>93.1</ele>
        <time>2022-06-11T09:15:27Z</time>
      </trkpt>
      <trkpt lat="44.3876" lon="4.40846">
        <ele>93.1</ele>
        <time>2022-06-11T09:15:28Z</time>
      </trkpt>
      <trkpt lat="44.3876" lon="4.40846">
        <ele>93.1</ele>
        <time>2022-06-11T09:15:29Z</time>
      </trkpt>
      <trkpt lat="44.3876" lon="4.40846">
        <ele>93.1</ele>
        <time>2022-06-11T09:15:30Z</time>
      </trkpt>
      <trkpt lat="44.3876" lon="4.40846">
        <ele>93.1</ele>
        <time>2022-06-11T09:15:31Z</time>
      </trkpt>
      <trkpt lat="44.3876" lon="4.40846">
        <ele>93.1</ele>
        <time>2022-06-11T09:15:32Z</time>
      </trkpt>
      <trkpt lat="44.38757" lon="4.40846">
        <ele>93.2</ele>
        <time>2022-06-11T09:16:01Z</time>
      </trkpt>
      <trkpt lat="44.38756" lon="4.40846">
        <ele>93.2</ele>
        <time>2022-06-11T09:16:02Z</time>
      </trkpt>
      <trkpt lat="44.38756" lon="4.40846">
        <ele>93.3</ele>
        <time>2022-06-11T09:16:03Z</time>
      </trkpt>
      <trkpt lat="44.38754" lon="4.40847">
        <ele>93.3</ele>
        <time>2022-06-11T09:16:04Z</time>
      </trkpt>
      <trkpt lat="44.38752" lon="4.40847">
        <ele>93.3</ele>
        <time>2022-06-11T09:16:05Z</time>
      </trkpt>
      <trkpt lat="44.38751" lon="4.40847">
        <ele>93.4</ele>
        <time>2022-06-11T09:16:06Z</time>
      </trkpt>
      <trkpt lat="44.38748" lon="4.40848">
        <ele>93.5</ele>
        <time>2022-06-11T09:16:07Z</time>
      </trkpt>
      <trkpt lat="44.38744" lon="4.40848">
        <ele>93.6</ele>
        <time>2022-06-11T09:16:08Z</time>
      </trkpt>
      <trkpt lat="44.38743" lon="4.40848">
        <ele>93.6</ele>
        <time>2022-06-11T09:16:09Z</time>
      </trkpt>
      <trkpt lat="44.38741" lon="4.40849">
        <ele>93.7</ele>
        <time>2022-06-11T09:16:10Z</time>
      </trkpt>
      <trkpt lat="44.38739" lon="4.40848">
        <ele>93.7</ele>
        <time>2022-06-11T09:16:11Z</time>
      </trkpt>
      <trkpt lat="44.38738" lon="4.40848">
        <ele>93.8</ele>
        <time>2022-06-11T09:16:12Z</time>
      </trkpt>
      <trkpt lat="44.38736" lon="4.40849">
        <ele>93.9</ele>
        <time>2022-06-11T09:16:13Z</time>
      </trkpt>
      <trkpt lat="44.38735" lon="4.4085">
        <ele>93.9</ele>
        <time>2022-06-11T09:16:14Z</time>
      </trkpt>
      <trkpt lat="44.38733" lon="4.4085">
        <ele>94</ele>
        <time>2022-06-11T09:16:15Z</time>
      </trkpt>
      <trkpt lat="44.3873" lon="4.40851">
        <ele>94.1</ele>
        <time>2022-06-11T09:16:16Z</time>
      </trkpt>
      <trkpt lat="44.38728" lon="4.40851">
        <ele>94.2</ele>
        <time>2022-06-11T09:16:17Z</time>
      </trkpt>
      <trkpt lat="44.38725" lon="4.40851">
        <ele>94.3</ele>
        <time>2022-06-11T09:16:18Z</time>
      </trkpt>
      <trkpt lat="44.38721" lon="4.4085">
        <ele>94.4</ele>
        <time>2022-06-11T09:16:20Z</time>
      </trkpt>
      <trkpt lat="44.3872" lon="4.4085">
        <ele>94.5</ele>
        <time>2022-06-11T09:16:21Z</time>
      </trkpt>
      <trkpt lat="44.38716" lon="4.40848">
        <ele>94.7</ele>
        <time>2022-06-11T09:16:22Z</time>
      </trkpt>
      <trkpt lat="44.38714" lon="4.40847">
        <ele>94.8</ele>
        <time>2022-06-11T09:16:23Z</time>
      </trkpt>
      <trkpt lat="44.38712" lon="4.40846">
        <ele>94.9</ele>
        <time>2022-06-11T09:16:24Z</time>
      </trkpt>
      <trkpt lat="44.38709" lon="4.40845">
        <ele>95</ele>
        <time>2022-06-11T09:16:25Z</time>
      </trkpt>
      <trkpt lat="44.38706" lon="4.40846">
        <ele>95.2</ele>
        <time>2022-06-11T09:16:26Z</time>
      </trkpt>
      <trkpt lat="44.38703" lon="4.40846">
        <ele>95.4</ele>
        <time>2022-06-11T09:16:27Z</time>
      </trkpt>
      <trkpt lat="44.387" lon="4.40846">
        <ele>95.5</ele>
        <time>2022-06-11T09:16:28Z</time>
      </trkpt>
      <trkpt lat="44.38694" lon="4.40848">
        <ele>95.8</ele>
        <time>2022-06-11T09:16:29Z</time>
      </trkpt>
      <trkpt lat="44.38691" lon="4.40848">
        <ele>96</ele>
        <time>2022-06-11T09:16:30Z</time>
      </trkpt>
      <trkpt lat="44.38688" lon="4.40849">
        <ele>96.2</ele>
        <time>2022-06-11T09:16:32Z</time>
      </trkpt>
      <trkpt lat="44.38685" lon="4.40849">
        <ele>96.3</ele>
        <time>2022-06-11T09:16:34Z</time>
      </trkpt>
      <trkpt lat="44.38684" lon="4.40849">
        <ele>96.4</ele>
        <time>2022-06-11T09:16:35Z</time>
      </trkpt>
      <trkpt lat="44.38682" lon="4.40849">
        <ele>96.5</ele>
        <time>2022-06-11T09:16:37Z</time>
      </trkpt>
      <trkpt lat="44.38681" lon="4.40849">
        <ele>96.6</ele>
        <time>2022-06-11T09:16:38Z</time>
      </trkpt>
      <trkpt lat="44.3868" lon="4.40849">
        <ele>96.6</ele>
        <time>2022-06-11T09:16:39Z</time>
      </trkpt>
      <trkpt lat="44.38677" lon="4.40849">
        <ele>96.7</ele>
        <time>2022-06-11T09:16:41Z</time>
      </trkpt>
      <trkpt lat="44.38673" lon="4.4085">
        <ele>96.9</ele>
        <time>2022-06-11T09:16:43Z</time>
      </trkpt>
      <trkpt lat="44.38665" lon="4.40853">
        <ele>97.2</ele>
        <time>2022-06-11T09:16:44Z</time>
      </trkpt>
      <trkpt lat="44.38653" lon="4.4086">
        <ele>97.6</ele>
        <time>2022-06-11T09:16:45Z</time>
      </trkpt>
      <trkpt lat="44.38647" lon="4.40864">
        <ele>97.9</ele>
        <time>2022-06-11T09:16:47Z</time>
      </trkpt>
      <trkpt lat="44.38643" lon="4.40867">
        <ele>98</ele>
        <time>2022-06-11T09:16:48Z</time>
      </trkpt>
      <trkpt lat="44.38638" lon="4.40869">
        <ele>98.1</ele>
        <time>2022-06-11T09:16:49Z</time>
      </trkpt>
      <trkpt lat="44.38634" lon="4.40872">
        <ele>98.3</ele>
        <time>2022-06-11T09:16:50Z</time>
      </trkpt>
      <trkpt lat="44.3863" lon="4.40874">
        <ele>98.4</ele>
        <time>2022-06-11T09:16:51Z</time>
      </trkpt>
      <trkpt lat="44.38626" lon="4.40875">
        <ele>98.5</ele>
        <time>2022-06-11T09:16:52Z</time>
      </trkpt>
      <trkpt lat="44.38622" lon="4.40875">
        <ele>98.6</ele>
        <time>2022-06-11T09:16:53Z</time>
      </trkpt>
      <trkpt lat="44.38615" lon="4.40876">
        <ele>98.8</ele>
        <time>2022-06-11T09:16:54Z</time>
      </trkpt>
      <trkpt lat="44.38609" lon="4.40877">
        <ele>99</ele>
        <time>2022-06-11T09:16:56Z</time>
      </trkpt>
      <trkpt lat="44.38605" lon="4.40877">
        <ele>99.2</ele>
        <time>2022-06-11T09:16:58Z</time>
      </trkpt>
      <trkpt lat="44.38603" lon="4.40877">
        <ele>99.3</ele>
        <time>2022-06-11T09:16:59Z</time>
      </trkpt>
      <trkpt lat="44.38601" lon="4.40877">
        <ele>99.3</ele>
        <time>2022-06-11T09:17:00Z</time>
      </trkpt>
      <trkpt lat="44.38597" lon="4.40878">
        <ele>99.5</ele>
        <time>2022-06-11T09:17:01Z</time>
      </trkpt>
      <trkpt lat="44.38595" lon="4.40878">
        <ele>99.6</ele>
        <time>2022-06-11T09:17:02Z</time>
      </trkpt>
      <trkpt lat="44.38593" lon="4.40879">
        <ele>99.6</ele>
        <time>2022-06-11T09:17:03Z</time>
      </trkpt>
      <trkpt lat="44.38591" lon="4.40879">
        <ele>99.7</ele>
        <time>2022-06-11T09:17:04Z</time>
      </trkpt>
      <trkpt lat="44.38589" lon="4.4088">
        <ele>99.8</ele>
        <time>2022-06-11T09:17:06Z</time>
      </trkpt>
      <trkpt lat="44.38585" lon="4.4088">
        <ele>99.9</ele>
        <time>2022-06-11T09:17:08Z</time>
      </trkpt>
      <trkpt lat="44.38583" lon="4.4088">
        <ele>100</ele>
        <time>2022-06-11T09:17:09Z</time>
      </trkpt>
      <trkpt lat="44.38582" lon="4.40881">
        <ele>100</ele>
        <time>2022-06-11T09:17:10Z</time>
      </trkpt>
      <trkpt lat="44.38582" lon="4.40881">
        <ele>100.1</ele>
        <time>2022-06-11T09:17:11Z</time>
      </trkpt>
      <trkpt lat="44.38581" lon="4.40881">
        <ele>100.1</ele>
        <time>2022-06-11T09:17:12Z</time>
      </trkpt>
      <trkpt lat="44.3858" lon="4.40881">
        <ele>100.1</ele>
        <time>2022-06-11T09:17:13Z</time>
      </trkpt>
      <trkpt lat="44.38578" lon="4.4088">
        <ele>100.2</ele>
        <time>2022-06-11T09:17:15Z</time>
      </trkpt>
      <trkpt lat="44.38575" lon="4.4088">
        <ele>100.3</ele>
        <time>2022-06-11T09:17:16Z</time>
      </trkpt>
      <trkpt lat="44.38571" lon="4.4088">
        <ele>100.4</ele>
        <time>2022-06-11T09:17:17Z</time>
      </trkpt>
      <trkpt lat="44.38567" lon="4.4088">
        <ele>100.5</ele>
        <time>2022-06-11T09:17:18Z</time>
      </trkpt>
      <trkpt lat="44.38561" lon="4.40881">
        <ele>100.6</ele>
        <time>2022-06-11T09:17:19Z</time>
      </trkpt>
      <trkpt lat="44.38555" lon="4.4088">
        <ele>100.8</ele>
        <time>2022-06-11T09:17:20Z</time>
      </trkpt>
      <trkpt lat="44.3855" lon="4.4088">
        <ele>101</ele>
        <time>2022-06-11T09:17:21Z</time>
      </trkpt>
      <trkpt lat="44.38545" lon="4.4088">
        <ele>101.1</ele>
        <time>2022-06-11T09:17:22Z</time>
      </trkpt>
      <trkpt lat="44.3854" lon="4.4088">
        <ele>101.3</ele>
        <time>2022-06-11T09:17:23Z</time>
      </trkpt>
      <trkpt lat="44.38536" lon="4.4088">
        <ele>101.4</ele>
        <time>2022-06-11T09:17:24Z</time>
      </trkpt>
      <trkpt lat="44.38533" lon="4.40879">
        <ele>101.5</ele>
        <time>2022-06-11T09:17:25Z</time>
      </trkpt>
      <trkpt lat="44.38529" lon="4.40878">
        <ele>101.7</ele>
        <time>2022-06-11T09:17:26Z</time>
      </trkpt>
      <trkpt lat="44.38526" lon="4.40878">
        <ele>101.8</ele>
        <time>2022-06-11T09:17:27Z</time>
      </trkpt>
      <trkpt lat="44.38522" lon="4.40879">
        <ele>101.9</ele>
        <time>2022-06-11T09:17:28Z</time>
      </trkpt>
      <trkpt lat="44.38518" lon="4.40878">
        <ele>102</ele>
        <time>2022-06-11T09:17:29Z</time>
      </trkpt>
      <trkpt lat="44.38515" lon="4.40877">
        <ele>102.1</ele>
        <time>2022-06-11T09:17:30Z</time>
      </trkpt>
      <trkpt lat="44.38511" lon="4.40877">
        <ele>102.2</ele>
        <time>2022-06-11T09:17:31Z</time>
      </trkpt>
      <trkpt lat="44.38508" lon="4.40877">
        <ele>102.2</ele>
        <time>2022-06-11T09:17:32Z</time>
      </trkpt>
      <trkpt lat="44.38504" lon="4.40877">
        <ele>102.3</ele>
        <time>2022-06-11T09:17:33Z</time>
      </trkpt>
      <trkpt lat="44.38499" lon="4.40874">
        <ele>102.4</ele>
        <time>2022-06-11T09:17:34Z</time>
      </trkpt>
      <trkpt lat="44.38493" lon="4.40872">
        <ele>102.5</ele>
        <time>2022-06-11T09:17:36Z</time>
      </trkpt>
      <trkpt lat="44.3849" lon="4.40871">
        <ele>102.6</ele>
        <time>2022-06-11T09:17:37Z</time>
      </trkpt>
      <trkpt lat="44.38486" lon="4.40871">
        <ele>102.6</ele>
        <time>2022-06-11T09:17:38Z</time>
      </trkpt>
      <trkpt lat="44.38482" lon="4.4087">
        <ele>102.7</ele>
        <time>2022-06-11T09:17:39Z</time>
      </trkpt>
      <trkpt lat="44.38478" lon="4.40869">
        <ele>102.7</ele>
        <time>2022-06-11T09:17:40Z</time>
      </trkpt>
      <trkpt lat="44.38474" lon="4.40868">
        <ele>102.8</ele>
        <time>2022-06-11T09:17:41Z</time>
      </trkpt>
      <trkpt lat="44.38466" lon="4.40866">
        <ele>102.8</ele>
        <time>2022-06-11T09:17:42Z</time>
      </trkpt>
      <trkpt lat="44.38463" lon="4.40865">
        <ele>102.8</ele>
        <time>2022-06-11T09:17:43Z</time>
      </trkpt>
      <trkpt lat="44.38458" lon="4.40864">
        <ele>102.9</ele>
        <time>2022-06-11T09:17:45Z</time>
      </trkpt>
      <trkpt lat="44.38454" lon="4.40863">
        <ele>102.9</ele>
        <time>2022-06-11T09:17:46Z</time>
      </trkpt>
      <trkpt lat="44.3845" lon="4.40861">
        <ele>102.9</ele>
        <time>2022-06-11T09:17:47Z</time>
      </trkpt>
      <trkpt lat="44.38446" lon="4.40859">
        <ele>102.9</ele>
        <time>2022-06-11T09:17:48Z</time>
      </trkpt>
      <trkpt lat="44.38441" lon="4.40857">
        <ele>102.9</ele>
        <time>2022-06-11T09:17:49Z</time>
      </trkpt>
      <trkpt lat="44.38437" lon="4.40855">
        <ele>102.9</ele>
        <time>2022-06-11T09:17:50Z</time>
      </trkpt>
      <trkpt lat="44.38432" lon="4.40851">
        <ele>103</ele>
        <time>2022-06-11T09:17:51Z</time>
      </trkpt>
      <trkpt lat="44.38427" lon="4.40848">
        <ele>103</ele>
        <time>2022-06-11T09:17:52Z</time>
      </trkpt>
      <trkpt lat="44.38423" lon="4.40846">
        <ele>103</ele>
        <time>2022-06-11T09:17:53Z</time>
      </trkpt>
      <trkpt lat="44.38419" lon="4.40843">
        <ele>103</ele>
        <time>2022-06-11T09:17:54Z</time>
      </trkpt>
      <trkpt lat="44.38415" lon="4.40841">
        <ele>103.1</ele>
        <time>2022-06-11T09:17:55Z</time>
      </trkpt>
      <trkpt lat="44.38412" lon="4.40843">
        <ele>103.1</ele>
        <time>2022-06-11T09:17:56Z</time>
      </trkpt>
      <trkpt lat="44.38407" lon="4.4084">
        <ele>103.1</ele>
        <time>2022-06-11T09:17:57Z</time>
      </trkpt>
      <trkpt lat="44.38398" lon="4.40832">
        <ele>103.2</ele>
        <time>2022-06-11T09:17:59Z</time>
      </trkpt>
      <trkpt lat="44.38394" lon="4.40821">
        <ele>103.2</ele>
        <time>2022-06-11T09:18:01Z</time>
      </trkpt>
      <trkpt lat="44.38392" lon="4.40818">
        <ele>103.2</ele>
        <time>2022-06-11T09:18:02Z</time>
      </trkpt>
      <trkpt lat="44.38389" lon="4.40813">
        <ele>103.2</ele>
        <time>2022-06-11T09:18:03Z</time>
      </trkpt>
      <trkpt lat="44.38388" lon="4.40811">
        <ele>103.2</ele>
        <time>2022-06-11T09:18:04Z</time>
      </trkpt>
      <trkpt lat="44.38385" lon="4.40807">
        <ele>103.2</ele>
        <time>2022-06-11T09:18:05Z</time>
      </trkpt>
      <trkpt lat="44.38381" lon="4.40803">
        <ele>103.2</ele>
        <time>2022-06-11T09:18:06Z</time>
      </trkpt>
      <trkpt lat="44.38376" lon="4.40801">
        <ele>103.2</ele>
        <time>2022-06-11T09:18:07Z</time>
      </trkpt>
      <trkpt lat="44.38369" lon="4.40798">
        <ele>103.3</ele>
        <time>2022-06-11T09:18:08Z</time>
      </trkpt>
      <trkpt lat="44.38364" lon="4.40798">
        <ele>103.3</ele>
        <time>2022-06-11T09:18:09Z</time>
      </trkpt>
      <trkpt lat="44.38359" lon="4.40799">
        <ele>103.3</ele>
        <time>2022-06-11T09:18:10Z</time>
      </trkpt>
      <trkpt lat="44.38354" lon="4.408">
        <ele>103.3</ele>
        <time>2022-06-11T09:18:11Z</time>
      </trkpt>
      <trkpt lat="44.38349" lon="4.40802">
        <ele>103.3</ele>
        <time>2022-06-11T09:18:12Z</time>
      </trkpt>
      <trkpt lat="44.38344" lon="4.40802">
        <ele>103.3</ele>
        <time>2022-06-11T09:18:13Z</time>
      </trkpt>
      <trkpt lat="44.38338" lon="4.40802">
        <ele>103.3</ele>
        <time>2022-06-11T09:18:14Z</time>
      </trkpt>
      <trkpt lat="44.38333" lon="4.40801">
        <ele>103.3</ele>
        <time>2022-06-11T09:18:15Z</time>
      </trkpt>
      <trkpt lat="44.38328" lon="4.40801">
        <ele>103.3</ele>
        <time>2022-06-11T09:18:16Z</time>
      </trkpt>
      <trkpt lat="44.38323" lon="4.40801">
        <ele>103.2</ele>
        <time>2022-06-11T09:18:17Z</time>
      </trkpt>
      <trkpt lat="44.38318" lon="4.40801">
        <ele>103.2</ele>
        <time>2022-06-11T09:18:18Z</time>
      </trkpt>
      <trkpt lat="44.38313" lon="4.40802">
        <ele>103.2</ele>
        <time>2022-06-11T09:18:19Z</time>
      </trkpt>
      <trkpt lat="44.38308" lon="4.40803">
        <ele>103.1</ele>
        <time>2022-06-11T09:18:20Z</time>
      </trkpt>
      <trkpt lat="44.38302" lon="4.40807">
        <ele>103.1</ele>
        <time>2022-06-11T09:18:21Z</time>
      </trkpt>
      <trkpt lat="44.38297" lon="4.4081">
        <ele>103</ele>
        <time>2022-06-11T09:18:22Z</time>
      </trkpt>
      <trkpt lat="44.38293" lon="4.40814">
        <ele>103</ele>
        <time>2022-06-11T09:18:23Z</time>
      </trkpt>
      <trkpt lat="44.38288" lon="4.40818">
        <ele>102.9</ele>
        <time>2022-06-11T09:18:24Z</time>
      </trkpt>
      <trkpt lat="44.38285" lon="4.40824">
        <ele>102.9</ele>
        <time>2022-06-11T09:18:25Z</time>
      </trkpt>
      <trkpt lat="44.38281" lon="4.40831">
        <ele>102.9</ele>
        <time>2022-06-11T09:18:26Z</time>
      </trkpt>
      <trkpt lat="44.38278" lon="4.40837">
        <ele>102.8</ele>
        <time>2022-06-11T09:18:27Z</time>
      </trkpt>
      <trkpt lat="44.38275" lon="4.40844">
        <ele>102.8</ele>
        <time>2022-06-11T09:18:28Z</time>
      </trkpt>
      <trkpt lat="44.38273" lon="4.40851">
        <ele>102.8</ele>
        <time>2022-06-11T09:18:29Z</time>
      </trkpt>
      <trkpt lat="44.3827" lon="4.40858">
        <ele>102.7</ele>
        <time>2022-06-11T09:18:30Z</time>
      </trkpt>
      <trkpt lat="44.38267" lon="4.40864">
        <ele>102.7</ele>
        <time>2022-06-11T09:18:31Z</time>
      </trkpt>
      <trkpt lat="44.38264" lon="4.40871">
        <ele>102.7</ele>
        <time>2022-06-11T09:18:32Z</time>
      </trkpt>
      <trkpt lat="44.38261" lon="4.40878">
        <ele>102.6</ele>
        <time>2022-06-11T09:18:33Z</time>
      </trkpt>
      <trkpt lat="44.38259" lon="4.40886">
        <ele>102.6</ele>
        <time>2022-06-11T09:18:34Z</time>
      </trkpt>
      <trkpt lat="44.38257" lon="4.40893">
        <ele>102.5</ele>
        <time>2022-06-11T09:18:35Z</time>
      </trkpt>
      <trkpt lat="44.38256" lon="4.40901">
        <ele>102.5</ele>
        <time>2022-06-11T09:18:36Z</time>
      </trkpt>
      <trkpt lat="44.38254" lon="4.40909">
        <ele>102.5</ele>
        <time>2022-06-11T09:18:37Z</time>
      </trkpt>
      <trkpt lat="44.38252" lon="4.40916">
        <ele>102.4</ele>
        <time>2022-06-11T09:18:38Z</time>
      </trkpt>
      <trkpt lat="44.38251" lon="4.40923">
        <ele>102.4</ele>
        <time>2022-06-11T09:18:39Z</time>
      </trkpt>
      <trkpt lat="44.3825" lon="4.4093">
        <ele>102.3</ele>
        <time>2022-06-11T09:18:40Z</time>
      </trkpt>
      <trkpt lat="44.38249" lon="4.40937">
        <ele>102.3</ele>
        <time>2022-06-11T09:18:41Z</time>
      </trkpt>
      <trkpt lat="44.38247" lon="4.40945">
        <ele>102.2</ele>
        <time>2022-06-11T09:18:42Z</time>
      </trkpt>
      <trkpt lat="44.38245" lon="4.40953">
        <ele>102.1</ele>
        <time>2022-06-11T09:18:43Z</time>
      </trkpt>
      <trkpt lat="44.38242" lon="4.4096">
        <ele>102</ele>
        <time>2022-06-11T09:18:44Z</time>
      </trkpt>
      <trkpt lat="44.3824" lon="4.40968">
        <ele>101.9</ele>
        <time>2022-06-11T09:18:45Z</time>
      </trkpt>
      <trkpt lat="44.38237" lon="4.40976">
        <ele>101.7</ele>
        <time>2022-06-11T09:18:46Z</time>
      </trkpt>
      <trkpt lat="44.38234" lon="4.40984">
        <ele>101.6</ele>
        <time>2022-06-11T09:18:47Z</time>
      </trkpt>
      <trkpt lat="44.38231" lon="4.40992">
        <ele>101.5</ele>
        <time>2022-06-11T09:18:48Z</time>
      </trkpt>
      <trkpt lat="44.38229" lon="4.41">
        <ele>101.4</ele>
        <time>2022-06-11T09:18:49Z</time>
      </trkpt>
      <trkpt lat="44.38226" lon="4.41008">
        <ele>101.2</ele>
        <time>2022-06-11T09:18:50Z</time>
      </trkpt>
      <trkpt lat="44.38223" lon="4.41016">
        <ele>101</ele>
        <time>2022-06-11T09:18:51Z</time>
      </trkpt>
      <trkpt lat="44.3822" lon="4.41025">
        <ele>100.8</ele>
        <time>2022-06-11T09:18:52Z</time>
      </trkpt>
      <trkpt lat="44.38217" lon="4.41034">
        <ele>100.5</ele>
        <time>2022-06-11T09:18:53Z</time>
      </trkpt>
      <trkpt lat="44.38214" lon="4.41043">
        <ele>100.3</ele>
        <time>2022-06-11T09:18:54Z</time>
      </trkpt>
      <trkpt lat="44.38211" lon="4.41053">
        <ele>100</ele>
        <time>2022-06-11T09:18:55Z</time>
      </trkpt>
      <trkpt lat="44.38208" lon="4.41063">
        <ele>99.8</ele>
        <time>2022-06-11T09:18:56Z</time>
      </trkpt>
      <trkpt lat="44.38206" lon="4.41073">
        <ele>99.5</ele>
        <time>2022-06-11T09:18:57Z</time>
      </trkpt>
      <trkpt lat="44.38203" lon="4.41083">
        <ele>99.3</ele>
        <time>2022-06-11T09:18:58Z</time>
      </trkpt>
      <trkpt lat="44.382" lon="4.41093">
        <ele>99</ele>
        <time>2022-06-11T09:18:59Z</time>
      </trkpt>
      <trkpt lat="44.38198" lon="4.41103">
        <ele>98.8</ele>
        <time>2022-06-11T09:19:00Z</time>
      </trkpt>
      <trkpt lat="44.38196" lon="4.41114">
        <ele>98.6</ele>
        <time>2022-06-11T09:19:01Z</time>
      </trkpt>
      <trkpt lat="44.38194" lon="4.41125">
        <ele>98.4</ele>
        <time>2022-06-11T09:19:02Z</time>
      </trkpt>
      <trkpt lat="44.38192" lon="4.41135">
        <ele>98.2</ele>
        <time>2022-06-11T09:19:03Z</time>
      </trkpt>
      <trkpt lat="44.38192" lon="4.41146">
        <ele>98.1</ele>
        <time>2022-06-11T09:19:04Z</time>
      </trkpt>
      <trkpt lat="44.38191" lon="4.41157">
        <ele>97.9</ele>
        <time>2022-06-11T09:19:05Z</time>
      </trkpt>
      <trkpt lat="44.3819" lon="4.41168">
        <ele>97.7</ele>
        <time>2022-06-11T09:19:06Z</time>
      </trkpt>
      <trkpt lat="44.38189" lon="4.4118">
        <ele>97.6</ele>
        <time>2022-06-11T09:19:07Z</time>
      </trkpt>
      <trkpt lat="44.3819" lon="4.41191">
        <ele>97.4</ele>
        <time>2022-06-11T09:19:08Z</time>
      </trkpt>
      <trkpt lat="44.3819" lon="4.41202">
        <ele>97.3</ele>
        <time>2022-06-11T09:19:09Z</time>
      </trkpt>
      <trkpt lat="44.3819" lon="4.41213">
        <ele>97.1</ele>
        <time>2022-06-11T09:19:10Z</time>
      </trkpt>
      <trkpt lat="44.3819" lon="4.41223">
        <ele>96.9</ele>
        <time>2022-06-11T09:19:11Z</time>
      </trkpt>
      <trkpt lat="44.3819" lon="4.41233">
        <ele>96.7</ele>
        <time>2022-06-11T09:19:12Z</time>
      </trkpt>
      <trkpt lat="44.38191" lon="4.41244">
        <ele>96.5</ele>
        <time>2022-06-11T09:19:13Z</time>
      </trkpt>
      <trkpt lat="44.38192" lon="4.41254">
        <ele>96.3</ele>
        <time>2022-06-11T09:19:14Z</time>
      </trkpt>
      <trkpt lat="44.38194" lon="4.41265">
        <ele>96.1</ele>
        <time>2022-06-11T09:19:15Z</time>
      </trkpt>
      <trkpt lat="44.38197" lon="4.41275">
        <ele>95.9</ele>
        <time>2022-06-11T09:19:16Z</time>
      </trkpt>
      <trkpt lat="44.382" lon="4.41286">
        <ele>95.7</ele>
        <time>2022-06-11T09:19:17Z</time>
      </trkpt>
      <trkpt lat="44.38204" lon="4.41296">
        <ele>95.5</ele>
        <time>2022-06-11T09:19:18Z</time>
      </trkpt>
      <trkpt lat="44.38207" lon="4.41305">
        <ele>95.4</ele>
        <time>2022-06-11T09:19:19Z</time>
      </trkpt>
      <trkpt lat="44.38211" lon="4.41315">
        <ele>95.4</ele>
        <time>2022-06-11T09:19:20Z</time>
      </trkpt>
      <trkpt lat="44.38216" lon="4.41323">
        <ele>95.3</ele>
        <time>2022-06-11T09:19:21Z</time>
      </trkpt>
      <trkpt lat="44.3822" lon="4.41332">
        <ele>95.3</ele>
        <time>2022-06-11T09:19:22Z</time>
      </trkpt>
      <trkpt lat="44.38224" lon="4.4134">
        <ele>95.3</ele>
        <time>2022-06-11T09:19:23Z</time>
      </trkpt>
      <trkpt lat="44.38229" lon="4.41347">
        <ele>95.4</ele>
        <time>2022-06-11T09:19:24Z</time>
      </trkpt>
      <trkpt lat="44.38233" lon="4.41355">
        <ele>95.4</ele>
        <time>2022-06-11T09:19:25Z</time>
      </trkpt>
      <trkpt lat="44.38238" lon="4.41361">
        <ele>95.4</ele>
        <time>2022-06-11T09:19:26Z</time>
      </trkpt>
      <trkpt lat="44.38244" lon="4.41367">
        <ele>95.3</ele>
        <time>2022-06-11T09:19:27Z</time>
      </trkpt>
      <trkpt lat="44.3825" lon="4.41371">
        <ele>95.3</ele>
        <time>2022-06-11T09:19:28Z</time>
      </trkpt>
      <trkpt lat="44.38254" lon="4.41374">
        <ele>95.3</ele>
        <time>2022-06-11T09:19:29Z</time>
      </trkpt>
      <trkpt lat="44.38257" lon="4.41375">
        <ele>95.3</ele>
        <time>2022-06-11T09:19:30Z</time>
      </trkpt>
      <trkpt lat="44.38258" lon="4.41375">
        <ele>95.2</ele>
        <time>2022-06-11T09:19:31Z</time>
      </trkpt>
      <trkpt lat="44.38259" lon="4.41375">
        <ele>95.2</ele>
        <time>2022-06-11T09:19:32Z</time>
      </trkpt>
      <trkpt lat="44.38259" lon="4.41374">
        <ele>95.2</ele>
        <time>2022-06-11T09:19:33Z</time>
      </trkpt>
      <trkpt lat="44.38259" lon="4.41375">
        <ele>95.2</ele>
        <time>2022-06-11T09:19:34Z</time>
      </trkpt>
      <trkpt lat="44.38259" lon="4.41375">
        <ele>95.2</ele>
        <time>2022-06-11T09:19:35Z</time>
      </trkpt>
      <trkpt lat="44.38259" lon="4.41376">
        <ele>95.2</ele>
        <time>2022-06-11T09:19:36Z</time>
      </trkpt>
      <trkpt lat="44.3826" lon="4.41375">
        <ele>95.2</ele>
        <time>2022-06-11T09:19:37Z</time>
      </trkpt>
      <trkpt lat="44.3826" lon="4.41374">
        <ele>95.2</ele>
        <time>2022-06-11T09:19:38Z</time>
      </trkpt>
      <trkpt lat="44.3826" lon="4.41374">
        <ele>95.2</ele>
        <time>2022-06-11T09:19:39Z</time>
      </trkpt>
      <trkpt lat="44.3826" lon="4.41374">
        <ele>95.2</ele>
        <time>2022-06-11T09:19:40Z</time>
      </trkpt>
      <trkpt lat="44.3826" lon="4.41374">
        <ele>95.2</ele>
        <time>2022-06-11T09:19:41Z</time>
      </trkpt>
      <trkpt lat="44.3826" lon="4.41374">
        <ele>95.2</ele>
        <time>2022-06-11T09:19:42Z</time>
      </trkpt>
      <trkpt lat="44.38261" lon="4.41374">
        <ele>95.2</ele>
        <time>2022-06-11T09:19:43Z</time>
      </trkpt>
      <trkpt lat="44.38261" lon="4.41374">
        <ele>95.2</ele>
        <time>2022-06-11T09:19:44Z</time>
      </trkpt>
      <trkpt lat="44.38261" lon="4.41374">
        <ele>95.2</ele>
        <time>2022-06-11T09:19:45Z</time>
      </trkpt>
      <trkpt lat="44.38261" lon="4.41374">
        <ele>95.2</ele>
        <time>2022-06-11T09:19:46Z</time>
      </trkpt>
      <trkpt lat="44.38261" lon="4.41374">
        <ele>95.2</ele>
        <time>2022-06-11T09:19:47Z</time>
      </trkpt>
      <trkpt lat="44.38261" lon="4.41374">
        <ele>95.2</ele>
        <time>2022-06-11T09:19:48Z</time>
      </trkpt>
      <trkpt lat="44.38261" lon="4.41374">
        <ele>95.2</ele>
        <time>2022-06-11T09:19:49Z</time>
      </trkpt>
      <trkpt lat="44.38262" lon="4.41373">
        <ele>95.2</ele>
        <time>2022-06-11T09:19:50Z</time>
      </trkpt>
      <trkpt lat="44.38262" lon="4.41373">
        <ele>95.2</ele>
        <time>2022-06-11T09:19:51Z</time>
      </trkpt>
      <trkpt lat="44.38262" lon="4.41373">
        <ele>95.2</ele>
        <time>2022-06-11T09:19:52Z</time>
      </trkpt>
      <trkpt lat="44.38262" lon="4.41373">
        <ele>95.2</ele>
        <time>2022-06-11T09:19:53Z</time>
      </trkpt>
      <trkpt lat="44.38262" lon="4.41373">
        <ele>95.2</ele>
        <time>2022-06-11T09:19:54Z</time>
      </trkpt>
      <trkpt lat="44.38262" lon="4.41373">
        <ele>95.2</ele>
        <time>2022-06-11T09:19:55Z</time>
      </trkpt>
      <trkpt lat="44.38262" lon="4.41373">
        <ele>95.2</ele>
        <time>2022-06-11T09:19:56Z</time>
      </trkpt>
      <trkpt lat="44.38263" lon="4.41373">
        <ele>95.2</ele>
        <time>2022-06-11T09:19:57Z</time>
      </trkpt>
      <trkpt lat="44.38263" lon="4.41373">
        <ele>95.2</ele>
        <time>2022-06-11T09:19:58Z</time>
      </trkpt>
      <trkpt lat="44.38263" lon="4.41373">
        <ele>95.2</ele>
        <time>2022-06-11T09:19:59Z</time>
      </trkpt>
      <trkpt lat="44.38263" lon="4.41373">
        <ele>95.2</ele>
        <time>2022-06-11T09:20:00Z</time>
      </trkpt>
      <trkpt lat="44.38263" lon="4.41373">
        <ele>95.2</ele>
        <time>2022-06-11T09:20:01Z</time>
      </trkpt>
      <trkpt lat="44.38263" lon="4.41373">
        <ele>95.2</ele>
        <time>2022-06-11T09:20:02Z</time>
      </trkpt>
      <trkpt lat="44.38263" lon="4.41373">
        <ele>95.2</ele>
        <time>2022-06-11T09:20:04Z</time>
      </trkpt>
      <trkpt lat="44.38264" lon="4.41372">
        <ele>95.2</ele>
        <time>2022-06-11T09:20:05Z</time>
      </trkpt>
      <trkpt lat="44.38264" lon="4.41372">
        <ele>95.2</ele>
        <time>2022-06-11T09:20:06Z</time>
      </trkpt>
      <trkpt lat="44.38264" lon="4.41372">
        <ele>95.2</ele>
        <time>2022-06-11T09:20:07Z</time>
      </trkpt>
      <trkpt lat="44.38264" lon="4.41372">
        <ele>95.2</ele>
        <time>2022-06-11T09:20:08Z</time>
      </trkpt>
      <trkpt lat="44.38264" lon="4.41372">
        <ele>95.2</ele>
        <time>2022-06-11T09:20:09Z</time>
      </trkpt>
      <trkpt lat="44.38264" lon="4.41372">
        <ele>95.2</ele>
        <time>2022-06-11T09:20:10Z</time>
      </trkpt>
      <trkpt lat="44.38264" lon="4.41372">
        <ele>95.2</ele>
        <time>2022-06-11T09:20:11Z</time>
      </trkpt>
      <trkpt lat="44.38265" lon="4.41372">
        <ele>95.2</ele>
        <time>2022-06-11T09:20:12Z</time>
      </trkpt>
      <trkpt lat="44.38265" lon="4.41372">
        <ele>95.2</ele>
        <time>2022-06-11T09:20:13Z</time>
      </trkpt>
      <trkpt lat="44.38265" lon="4.41372">
        <ele>95.2</ele>
        <time>2022-06-11T09:20:14Z</time>
      </trkpt>
      <trkpt lat="44.38265" lon="4.41372">
        <ele>95.2</ele>
        <time>2022-06-11T09:20:15Z</time>
      </trkpt>
      <trkpt lat="44.38265" lon="4.41372">
        <ele>95.2</ele>
        <time>2022-06-11T09:20:16Z</time>
      </trkpt>
      <trkpt lat="44.38265" lon="4.41372">
        <ele>95.2</ele>
        <time>2022-06-11T09:20:17Z</time>
      </trkpt>
      <trkpt lat="44.38265" lon="4.41372">
        <ele>95.2</ele>
        <time>2022-06-11T09:20:18Z</time>
      </trkpt>
      <trkpt lat="44.38266" lon="4.41371">
        <ele>95.2</ele>
        <time>2022-06-11T09:20:19Z</time>
      </trkpt>
      <trkpt lat="44.38266" lon="4.41371">
        <ele>95.2</ele>
        <time>2022-06-11T09:20:20Z</time>
      </trkpt>
      <trkpt lat="44.38266" lon="4.41371">
        <ele>95.2</ele>
        <time>2022-06-11T09:20:52Z</time>
      </trkpt>
      <trkpt lat="44.38266" lon="4.41371">
        <ele>95.2</ele>
        <time>2022-06-11T09:20:53Z</time>
      </trkpt>
      <trkpt lat="44.38266" lon="4.41371">
        <ele>95.2</ele>
        <time>2022-06-11T09:20:54Z</time>
      </trkpt>
      <trkpt lat="44.3827" lon="4.41371">
        <ele>95.2</ele>
        <time>2022-06-11T09:20:55Z</time>
      </trkpt>
      <trkpt lat="44.38272" lon="4.41371">
        <ele>95.2</ele>
        <time>2022-06-11T09:20:56Z</time>
      </trkpt>
      <trkpt lat="44.38275" lon="4.4137">
        <ele>95.2</ele>
        <time>2022-06-11T09:20:57Z</time>
      </trkpt>
      <trkpt lat="44.38279" lon="4.41368">
        <ele>95.2</ele>
        <time>2022-06-11T09:20:58Z</time>
      </trkpt>
      <trkpt lat="44.38281" lon="4.41367">
        <ele>95.2</ele>
        <time>2022-06-11T09:20:59Z</time>
      </trkpt>
      <trkpt lat="44.38284" lon="4.41366">
        <ele>95.2</ele>
        <time>2022-06-11T09:21:00Z</time>
      </trkpt>
      <trkpt lat="44.38287" lon="4.41364">
        <ele>95.1</ele>
        <time>2022-06-11T09:21:01Z</time>
      </trkpt>
      <trkpt lat="44.38291" lon="4.41362">
        <ele>95.1</ele>
        <time>2022-06-11T09:21:02Z</time>
      </trkpt>
      <trkpt lat="44.383" lon="4.41359">
        <ele>95.1</ele>
        <time>2022-06-11T09:21:03Z</time>
      </trkpt>
      <trkpt lat="44.38305" lon="4.41357">
        <ele>95.2</ele>
        <time>2022-06-11T09:21:05Z</time>
      </trkpt>
      <trkpt lat="44.38312" lon="4.41357">
        <ele>95.2</ele>
        <time>2022-06-11T09:21:06Z</time>
      </trkpt>
      <trkpt lat="44.38317" lon="4.41356">
        <ele>95.2</ele>
        <time>2022-06-11T09:21:07Z</time>
      </trkpt>
      <trkpt lat="44.38328" lon="4.41358">
        <ele>95.2</ele>
        <time>2022-06-11T09:21:09Z</time>
      </trkpt>
      <trkpt lat="44.38332" lon="4.4136">
        <ele>95.2</ele>
        <time>2022-06-11T09:21:11Z</time>
      </trkpt>
      <trkpt lat="44.38338" lon="4.41363">
        <ele>95.2</ele>
        <time>2022-06-11T09:21:12Z</time>
      </trkpt>
      <trkpt lat="44.38341" lon="4.41366">
        <ele>95.2</ele>
        <time>2022-06-11T09:21:13Z</time>
      </trkpt>
      <trkpt lat="44.38347" lon="4.41369">
        <ele>95.2</ele>
        <time>2022-06-11T09:21:14Z</time>
      </trkpt>
      <trkpt lat="44.38351" lon="4.41372">
        <ele>95.2</ele>
        <time>2022-06-11T09:21:15Z</time>
      </trkpt>
      <trkpt lat="44.38355" lon="4.41375">
        <ele>95.2</ele>
        <time>2022-06-11T09:21:16Z</time>
      </trkpt>
      <trkpt lat="44.3836" lon="4.41379">
        <ele>95.2</ele>
        <time>2022-06-11T09:21:18Z</time>
      </trkpt>
      <trkpt lat="44.38364" lon="4.41383">
        <ele>95.2</ele>
        <time>2022-06-11T09:21:19Z</time>
      </trkpt>
      <trkpt lat="44.38368" lon="4.41387">
        <ele>95.2</ele>
        <time>2022-06-11T09:21:20Z</time>
      </trkpt>
      <trkpt lat="44.38372" lon="4.4139">
        <ele>95.2</ele>
        <time>2022-06-11T09:21:21Z</time>
      </trkpt>
      <trkpt lat="44.38377" lon="4.41393">
        <ele>95.2</ele>
        <time>2022-06-11T09:21:22Z</time>
      </trkpt>
      <trkpt lat="44.38381" lon="4.41396">
        <ele>95.2</ele>
        <time>2022-06-11T09:21:23Z</time>
      </trkpt>
      <trkpt lat="44.38385" lon="4.41399">
        <ele>95.2</ele>
        <time>2022-06-11T09:21:24Z</time>
      </trkpt>
      <trkpt lat="44.38389" lon="4.41402">
        <ele>95.2</ele>
        <time>2022-06-11T09:21:25Z</time>
      </trkpt>
      <trkpt lat="44.38394" lon="4.41405">
        <ele>95.2</ele>
        <time>2022-06-11T09:21:26Z</time>
      </trkpt>
      <trkpt lat="44.38398" lon="4.41408">
        <ele>95.2</ele>
        <time>2022-06-11T09:21:27Z</time>
      </trkpt>
      <trkpt lat="44.38402" lon="4.41411">
        <ele>95.2</ele>
        <time>2022-06-11T09:21:28Z</time>
      </trkpt>
      <trkpt lat="44.38407" lon="4.41414">
        <ele>95.3</ele>
        <time>2022-06-11T09:21:29Z</time>
      </trkpt>
      <trkpt lat="44.38411" lon="4.41417">
        <ele>95.3</ele>
        <time>2022-06-11T09:21:30Z</time>
      </trkpt>
      <trkpt lat="44.38416" lon="4.41419">
        <ele>95.4</ele>
        <time>2022-06-11T09:21:31Z</time>
      </trkpt>
      <trkpt lat="44.38421" lon="4.4142">
        <ele>95.4</ele>
        <time>2022-06-11T09:21:32Z</time>
      </trkpt>
      <trkpt lat="44.38426" lon="4.41421">
        <ele>95.5</ele>
        <time>2022-06-11T09:21:33Z</time>
      </trkpt>
      <trkpt lat="44.38431" lon="4.4142">
        <ele>95.5</ele>
        <time>2022-06-11T09:21:34Z</time>
      </trkpt>
      <trkpt lat="44.38436" lon="4.41419">
        <ele>95.6</ele>
        <time>2022-06-11T09:21:35Z</time>
      </trkpt>
      <trkpt lat="44.38441" lon="4.41418">
        <ele>95.6</ele>
        <time>2022-06-11T09:21:36Z</time>
      </trkpt>
      <trkpt lat="44.38445" lon="4.41416">
        <ele>95.7</ele>
        <time>2022-06-11T09:21:37Z</time>
      </trkpt>
      <trkpt lat="44.3845" lon="4.41413">
        <ele>95.7</ele>
        <time>2022-06-11T09:21:38Z</time>
      </trkpt>
      <trkpt lat="44.38454" lon="4.4141">
        <ele>95.8</ele>
        <time>2022-06-11T09:21:39Z</time>
      </trkpt>
      <trkpt lat="44.38458" lon="4.41408">
        <ele>95.9</ele>
        <time>2022-06-11T09:21:40Z</time>
      </trkpt>
      <trkpt lat="44.38463" lon="4.41406">
        <ele>95.9</ele>
        <time>2022-06-11T09:21:41Z</time>
      </trkpt>
      <trkpt lat="44.38468" lon="4.41403">
        <ele>96</ele>
        <time>2022-06-11T09:21:42Z</time>
      </trkpt>
      <trkpt lat="44.38472" lon="4.414">
        <ele>96</ele>
        <time>2022-06-11T09:21:43Z</time>
      </trkpt>
      <trkpt lat="44.38477" lon="4.41398">
        <ele>96</ele>
        <time>2022-06-11T09:21:44Z</time>
      </trkpt>
      <trkpt lat="44.38482" lon="4.41396">
        <ele>96.1</ele>
        <time>2022-06-11T09:21:45Z</time>
      </trkpt>
      <trkpt lat="44.38487" lon="4.41395">
        <ele>96.1</ele>
        <time>2022-06-11T09:21:46Z</time>
      </trkpt>
      <trkpt lat="44.38492" lon="4.41393">
        <ele>96.1</ele>
        <time>2022-06-11T09:21:47Z</time>
      </trkpt>
      <trkpt lat="44.38497" lon="4.41392">
        <ele>96.2</ele>
        <time>2022-06-11T09:21:48Z</time>
      </trkpt>
      <trkpt lat="44.38502" lon="4.4139">
        <ele>96.2</ele>
        <time>2022-06-11T09:21:49Z</time>
      </trkpt>
      <trkpt lat="44.38507" lon="4.41388">
        <ele>96.2</ele>
        <time>2022-06-11T09:21:50Z</time>
      </trkpt>
      <trkpt lat="44.38512" lon="4.41386">
        <ele>96.3</ele>
        <time>2022-06-11T09:21:51Z</time>
      </trkpt>
      <trkpt lat="44.38518" lon="4.41386">
        <ele>96.4</ele>
        <time>2022-06-11T09:21:52Z</time>
      </trkpt>
      <trkpt lat="44.38523" lon="4.41384">
        <ele>96.4</ele>
        <time>2022-06-11T09:21:53Z</time>
      </trkpt>
      <trkpt lat="44.38527" lon="4.41381">
        <ele>96.5</ele>
        <time>2022-06-11T09:21:54Z</time>
      </trkpt>
      <trkpt lat="44.38532" lon="4.41379">
        <ele>96.6</ele>
        <time>2022-06-11T09:21:55Z</time>
      </trkpt>
      <trkpt lat="44.38536" lon="4.41377">
        <ele>96.6</ele>
        <time>2022-06-11T09:21:56Z</time>
      </trkpt>
      <trkpt lat="44.38541" lon="4.41375">
        <ele>96.7</ele>
        <time>2022-06-11T09:21:57Z</time>
      </trkpt>
      <trkpt lat="44.38546" lon="4.41374">
        <ele>96.8</ele>
        <time>2022-06-11T09:21:58Z</time>
      </trkpt>
      <trkpt lat="44.38551" lon="4.41374">
        <ele>96.8</ele>
        <time>2022-06-11T09:21:59Z</time>
      </trkpt>
      <trkpt lat="44.38555" lon="4.41374">
        <ele>96.9</ele>
        <time>2022-06-11T09:22:00Z</time>
      </trkpt>
      <trkpt lat="44.38559" lon="4.41374">
        <ele>97</ele>
        <time>2022-06-11T09:22:01Z</time>
      </trkpt>
      <trkpt lat="44.38565" lon="4.41375">
        <ele>97.1</ele>
        <time>2022-06-11T09:22:02Z</time>
      </trkpt>
      <trkpt lat="44.3857" lon="4.41377">
        <ele>97.1</ele>
        <time>2022-06-11T09:22:03Z</time>
      </trkpt>
      <trkpt lat="44.38574" lon="4.41378">
        <ele>97.2</ele>
        <time>2022-06-11T09:22:04Z</time>
      </trkpt>
      <trkpt lat="44.38577" lon="4.4138">
        <ele>97.3</ele>
        <time>2022-06-11T09:22:05Z</time>
      </trkpt>
      <trkpt lat="44.38578" lon="4.41381">
        <ele>97.3</ele>
        <time>2022-06-11T09:22:06Z</time>
      </trkpt>
      <trkpt lat="44.38582" lon="4.41387">
        <ele>97.4</ele>
        <time>2022-06-11T09:22:07Z</time>
      </trkpt>
      <trkpt lat="44.38586" lon="4.41393">
        <ele>97.4</ele>
        <time>2022-06-11T09:22:08Z</time>
      </trkpt>
      <trkpt lat="44.38588" lon="4.41398">
        <ele>97.4</ele>
        <time>2022-06-11T09:22:09Z</time>
      </trkpt>
      <trkpt lat="44.3859" lon="4.41402">
        <ele>97.4</ele>
        <time>2022-06-11T09:22:10Z</time>
      </trkpt>
      <trkpt lat="44.38592" lon="4.41405">
        <ele>97.5</ele>
        <time>2022-06-11T09:22:11Z</time>
      </trkpt>
      <trkpt lat="44.38595" lon="4.41408">
        <ele>97.5</ele>
        <time>2022-06-11T09:22:12Z</time>
      </trkpt>
      <trkpt lat="44.38597" lon="4.41417">
        <ele>97.6</ele>
        <time>2022-06-11T09:22:13Z</time>
      </trkpt>
      <trkpt lat="44.38599" lon="4.41427">
        <ele>97.6</ele>
        <time>2022-06-11T09:22:14Z</time>
      </trkpt>
      <trkpt lat="44.38601" lon="4.41433">
        <ele>97.7</ele>
        <time>2022-06-11T09:22:16Z</time>
      </trkpt>
      <trkpt lat="44.38605" lon="4.41444">
        <ele>97.8</ele>
        <time>2022-06-11T09:22:17Z</time>
      </trkpt>
      <trkpt lat="44.38607" lon="4.41451">
        <ele>97.8</ele>
        <time>2022-06-11T09:22:19Z</time>
      </trkpt>
      <trkpt lat="44.3861" lon="4.4146">
        <ele>97.8</ele>
        <time>2022-06-11T09:22:20Z</time>
      </trkpt>
      <trkpt lat="44.38612" lon="4.41468">
        <ele>97.7</ele>
        <time>2022-06-11T09:22:21Z</time>
      </trkpt>
      <trkpt lat="44.38612" lon="4.41476">
        <ele>97.6</ele>
        <time>2022-06-11T09:22:22Z</time>
      </trkpt>
      <trkpt lat="44.38612" lon="4.41483">
        <ele>97.6</ele>
        <time>2022-06-11T09:22:23Z</time>
      </trkpt>
      <trkpt lat="44.38614" lon="4.41491">
        <ele>97.4</ele>
        <time>2022-06-11T09:22:24Z</time>
      </trkpt>
      <trkpt lat="44.38616" lon="4.41499">
        <ele>97.3</ele>
        <time>2022-06-11T09:22:25Z</time>
      </trkpt>
      <trkpt lat="44.38618" lon="4.41507">
        <ele>97.1</ele>
        <time>2022-06-11T09:22:26Z</time>
      </trkpt>
      <trkpt lat="44.38619" lon="4.41515">
        <ele>96.9</ele>
        <time>2022-06-11T09:22:27Z</time>
      </trkpt>
      <trkpt lat="44.38621" lon="4.41524">
        <ele>96.7</ele>
        <time>2022-06-11T09:22:28Z</time>
      </trkpt>
      <trkpt lat="44.38622" lon="4.41533">
        <ele>96.6</ele>
        <time>2022-06-11T09:22:29Z</time>
      </trkpt>
      <trkpt lat="44.38623" lon="4.41542">
        <ele>96.4</ele>
        <time>2022-06-11T09:22:30Z</time>
      </trkpt>
      <trkpt lat="44.38625" lon="4.41551">
        <ele>96.2</ele>
        <time>2022-06-11T09:22:31Z</time>
      </trkpt>
      <trkpt lat="44.38627" lon="4.4156">
        <ele>96</ele>
        <time>2022-06-11T09:22:32Z</time>
      </trkpt>
      <trkpt lat="44.38628" lon="4.4157">
        <ele>95.8</ele>
        <time>2022-06-11T09:22:33Z</time>
      </trkpt>
      <trkpt lat="44.38629" lon="4.41579">
        <ele>95.6</ele>
        <time>2022-06-11T09:22:34Z</time>
      </trkpt>
      <trkpt lat="44.38629" lon="4.41589">
        <ele>95.5</ele>
        <time>2022-06-11T09:22:35Z</time>
      </trkpt>
      <trkpt lat="44.38629" lon="4.41598">
        <ele>95.4</ele>
        <time>2022-06-11T09:22:36Z</time>
      </trkpt>
      <trkpt lat="44.38628" lon="4.41608">
        <ele>95.3</ele>
        <time>2022-06-11T09:22:37Z</time>
      </trkpt>
      <trkpt lat="44.38625" lon="4.41617">
        <ele>95.2</ele>
        <time>2022-06-11T09:22:38Z</time>
      </trkpt>
      <trkpt lat="44.38623" lon="4.41626">
        <ele>95.1</ele>
        <time>2022-06-11T09:22:39Z</time>
      </trkpt>
      <trkpt lat="44.3862" lon="4.41635">
        <ele>95.1</ele>
        <time>2022-06-11T09:22:40Z</time>
      </trkpt>
      <trkpt lat="44.38616" lon="4.41644">
        <ele>95</ele>
        <time>2022-06-11T09:22:41Z</time>
      </trkpt>
      <trkpt lat="44.38613" lon="4.41652">
        <ele>95</ele>
        <time>2022-06-11T09:22:42Z</time>
      </trkpt>
      <trkpt lat="44.38609" lon="4.4166">
        <ele>94.9</ele>
        <time>2022-06-11T09:22:43Z</time>
      </trkpt>
      <trkpt lat="44.38605" lon="4.41668">
        <ele>94.8</ele>
        <time>2022-06-11T09:22:44Z</time>
      </trkpt>
      <trkpt lat="44.38601" lon="4.41676">
        <ele>94.8</ele>
        <time>2022-06-11T09:22:45Z</time>
      </trkpt>
      <trkpt lat="44.38597" lon="4.41684">
        <ele>94.7</ele>
        <time>2022-06-11T09:22:46Z</time>
      </trkpt>
      <trkpt lat="44.38593" lon="4.41691">
        <ele>94.6</ele>
        <time>2022-06-11T09:22:47Z</time>
      </trkpt>
      <trkpt lat="44.3859" lon="4.41699">
        <ele>94.5</ele>
        <time>2022-06-11T09:22:48Z</time>
      </trkpt>
      <trkpt lat="44.38585" lon="4.41706">
        <ele>94.5</ele>
        <time>2022-06-11T09:22:49Z</time>
      </trkpt>
      <trkpt lat="44.38581" lon="4.41713">
        <ele>94.4</ele>
        <time>2022-06-11T09:22:50Z</time>
      </trkpt>
      <trkpt lat="44.38576" lon="4.41719">
        <ele>94.4</ele>
        <time>2022-06-11T09:22:51Z</time>
      </trkpt>
      <trkpt lat="44.38572" lon="4.41726">
        <ele>94.3</ele>
        <time>2022-06-11T09:22:52Z</time>
      </trkpt>
      <trkpt lat="44.38567" lon="4.41733">
        <ele>94.3</ele>
        <time>2022-06-11T09:22:53Z</time>
      </trkpt>
      <trkpt lat="44.38564" lon="4.41738">
        <ele>94.2</ele>
        <time>2022-06-11T09:22:54Z</time>
      </trkpt>
      <trkpt lat="44.38559" lon="4.41744">
        <ele>94.2</ele>
        <time>2022-06-11T09:22:55Z</time>
      </trkpt>
      <trkpt lat="44.38555" lon="4.41748">
        <ele>94.1</ele>
        <time>2022-06-11T09:22:56Z</time>
      </trkpt>
      <trkpt lat="44.3855" lon="4.41753">
        <ele>94.1</ele>
        <time>2022-06-11T09:22:57Z</time>
      </trkpt>
      <trkpt lat="44.38544" lon="4.41758">
        <ele>94</ele>
        <time>2022-06-11T09:22:58Z</time>
      </trkpt>
      <trkpt lat="44.38539" lon="4.41762">
        <ele>94</ele>
        <time>2022-06-11T09:22:59Z</time>
      </trkpt>
      <trkpt lat="44.38534" lon="4.41767">
        <ele>93.9</ele>
        <time>2022-06-11T09:23:00Z</time>
      </trkpt>
      <trkpt lat="44.3853" lon="4.41771">
        <ele>93.9</ele>
        <time>2022-06-11T09:23:01Z</time>
      </trkpt>
      <trkpt lat="44.38525" lon="4.41775">
        <ele>93.8</ele>
        <time>2022-06-11T09:23:02Z</time>
      </trkpt>
      <trkpt lat="44.38519" lon="4.41779">
        <ele>93.8</ele>
        <time>2022-06-11T09:23:03Z</time>
      </trkpt>
      <trkpt lat="44.38513" lon="4.41782">
        <ele>93.7</ele>
        <time>2022-06-11T09:23:04Z</time>
      </trkpt>
      <trkpt lat="44.38508" lon="4.41786">
        <ele>93.6</ele>
        <time>2022-06-11T09:23:05Z</time>
      </trkpt>
      <trkpt lat="44.38502" lon="4.41789">
        <ele>93.6</ele>
        <time>2022-06-11T09:23:06Z</time>
      </trkpt>
      <trkpt lat="44.38497" lon="4.41791">
        <ele>93.5</ele>
        <time>2022-06-11T09:23:07Z</time>
      </trkpt>
      <trkpt lat="44.3849" lon="4.41793">
        <ele>93.5</ele>
        <time>2022-06-11T09:23:08Z</time>
      </trkpt>
      <trkpt lat="44.38484" lon="4.41796">
        <ele>93.4</ele>
        <time>2022-06-11T09:23:09Z</time>
      </trkpt>
      <trkpt lat="44.38478" lon="4.41798">
        <ele>93.4</ele>
        <time>2022-06-11T09:23:10Z</time>
      </trkpt>
      <trkpt lat="44.38472" lon="4.41799">
        <ele>93.4</ele>
        <time>2022-06-11T09:23:11Z</time>
      </trkpt>
      <trkpt lat="44.38467" lon="4.418">
        <ele>93.4</ele>
        <time>2022-06-11T09:23:12Z</time>
      </trkpt>
      <trkpt lat="44.38461" lon="4.41801">
        <ele>93.3</ele>
        <time>2022-06-11T09:23:13Z</time>
      </trkpt>
      <trkpt lat="44.38455" lon="4.41802">
        <ele>93.3</ele>
        <time>2022-06-11T09:23:14Z</time>
      </trkpt>
      <trkpt lat="44.38449" lon="4.41804">
        <ele>93.2</ele>
        <time>2022-06-11T09:23:15Z</time>
      </trkpt>
      <trkpt lat="44.38444" lon="4.41806">
        <ele>93.1</ele>
        <time>2022-06-11T09:23:16Z</time>
      </trkpt>
      <trkpt lat="44.38438" lon="4.41808">
        <ele>93</ele>
        <time>2022-06-11T09:23:17Z</time>
      </trkpt>
      <trkpt lat="44.38433" lon="4.41811">
        <ele>92.9</ele>
        <time>2022-06-11T09:23:18Z</time>
      </trkpt>
      <trkpt lat="44.38427" lon="4.41815">
        <ele>92.8</ele>
        <time>2022-06-11T09:23:19Z</time>
      </trkpt>
      <trkpt lat="44.38421" lon="4.41818">
        <ele>92.6</ele>
        <time>2022-06-11T09:23:20Z</time>
      </trkpt>
      <trkpt lat="44.38415" lon="4.41823">
        <ele>92.5</ele>
        <time>2022-06-11T09:23:21Z</time>
      </trkpt>
      <trkpt lat="44.38409" lon="4.41827">
        <ele>92.5</ele>
        <time>2022-06-11T09:23:22Z</time>
      </trkpt>
      <trkpt lat="44.38404" lon="4.41832">
        <ele>92.5</ele>
        <time>2022-06-11T09:23:23Z</time>
      </trkpt>
      <trkpt lat="44.38398" lon="4.41836">
        <ele>92.5</ele>
        <time>2022-06-11T09:23:24Z</time>
      </trkpt>
      <trkpt lat="44.38393" lon="4.41841">
        <ele>92.5</ele>
        <time>2022-06-11T09:23:25Z</time>
      </trkpt>
      <trkpt lat="44.38387" lon="4.41844">
        <ele>92.5</ele>
        <time>2022-06-11T09:23:26Z</time>
      </trkpt>
      <trkpt lat="44.3838" lon="4.41848">
        <ele>92.5</ele>
        <time>2022-06-11T09:23:27Z</time>
      </trkpt>
      <trkpt lat="44.38375" lon="4.41851">
        <ele>92.6</ele>
        <time>2022-06-11T09:23:28Z</time>
      </trkpt>
      <trkpt lat="44.38369" lon="4.41854">
        <ele>92.7</ele>
        <time>2022-06-11T09:23:29Z</time>
      </trkpt>
      <trkpt lat="44.38362" lon="4.41857">
        <ele>92.8</ele>
        <time>2022-06-11T09:23:30Z</time>
      </trkpt>
      <trkpt lat="44.38357" lon="4.41859">
        <ele>92.9</ele>
        <time>2022-06-11T09:23:31Z</time>
      </trkpt>
      <trkpt lat="44.38352" lon="4.4186">
        <ele>93</ele>
        <time>2022-06-11T09:23:32Z</time>
      </trkpt>
      <trkpt lat="44.38346" lon="4.41861">
        <ele>93.2</ele>
        <time>2022-06-11T09:23:33Z</time>
      </trkpt>
      <trkpt lat="44.38341" lon="4.4186">
        <ele>93.4</ele>
        <time>2022-06-11T09:23:34Z</time>
      </trkpt>
      <trkpt lat="44.38336" lon="4.4186">
        <ele>93.5</ele>
        <time>2022-06-11T09:23:35Z</time>
      </trkpt>
      <trkpt lat="44.38332" lon="4.4186">
        <ele>93.7</ele>
        <time>2022-06-11T09:23:36Z</time>
      </trkpt>
      <trkpt lat="44.38328" lon="4.4186">
        <ele>93.8</ele>
        <time>2022-06-11T09:23:37Z</time>
      </trkpt>
      <trkpt lat="44.38324" lon="4.41859">
        <ele>94</ele>
        <time>2022-06-11T09:23:38Z</time>
      </trkpt>
      <trkpt lat="44.3832" lon="4.41858">
        <ele>94.2</ele>
        <time>2022-06-11T09:23:39Z</time>
      </trkpt>
      <trkpt lat="44.38317" lon="4.41858">
        <ele>94.3</ele>
        <time>2022-06-11T09:23:40Z</time>
      </trkpt>
      <trkpt lat="44.38314" lon="4.41857">
        <ele>94.5</ele>
        <time>2022-06-11T09:23:41Z</time>
      </trkpt>
      <trkpt lat="44.3831" lon="4.41857">
        <ele>94.6</ele>
        <time>2022-06-11T09:23:42Z</time>
      </trkpt>
      <trkpt lat="44.38307" lon="4.41857">
        <ele>94.8</ele>
        <time>2022-06-11T09:23:43Z</time>
      </trkpt>
      <trkpt lat="44.38303" lon="4.41856">
        <ele>95</ele>
        <time>2022-06-11T09:23:44Z</time>
      </trkpt>
      <trkpt lat="44.38301" lon="4.41855">
        <ele>95.2</ele>
        <time>2022-06-11T09:23:45Z</time>
      </trkpt>
      <trkpt lat="44.38297" lon="4.41854">
        <ele>95.3</ele>
        <time>2022-06-11T09:23:46Z</time>
      </trkpt>
      <trkpt lat="44.38294" lon="4.41853">
        <ele>95.5</ele>
        <time>2022-06-11T09:23:47Z</time>
      </trkpt>
      <trkpt lat="44.38291" lon="4.41852">
        <ele>95.7</ele>
        <time>2022-06-11T09:23:48Z</time>
      </trkpt>
      <trkpt lat="44.38288" lon="4.41852">
        <ele>95.8</ele>
        <time>2022-06-11T09:23:49Z</time>
      </trkpt>
      <trkpt lat="44.38282" lon="4.4185">
        <ele>96.2</ele>
        <time>2022-06-11T09:23:51Z</time>
      </trkpt>
      <trkpt lat="44.3828" lon="4.41849">
        <ele>96.3</ele>
        <time>2022-06-11T09:23:52Z</time>
      </trkpt>
      <trkpt lat="44.38277" lon="4.41848">
        <ele>96.5</ele>
        <time>2022-06-11T09:23:53Z</time>
      </trkpt>
      <trkpt lat="44.38273" lon="4.41847">
        <ele>96.7</ele>
        <time>2022-06-11T09:23:54Z</time>
      </trkpt>
      <trkpt lat="44.38272" lon="4.41847">
        <ele>96.8</ele>
        <time>2022-06-11T09:23:55Z</time>
      </trkpt>
      <trkpt lat="44.38268" lon="4.41846">
        <ele>97</ele>
        <time>2022-06-11T09:23:56Z</time>
      </trkpt>
      <trkpt lat="44.38267" lon="4.41846">
        <ele>97.1</ele>
        <time>2022-06-11T09:23:57Z</time>
      </trkpt>
      <trkpt lat="44.38263" lon="4.41845">
        <ele>97.3</ele>
        <time>2022-06-11T09:23:58Z</time>
      </trkpt>
      <trkpt lat="44.38262" lon="4.41844">
        <ele>97.3</ele>
        <time>2022-06-11T09:23:59Z</time>
      </trkpt>
      <trkpt lat="44.38258" lon="4.41844">
        <ele>97.5</ele>
        <time>2022-06-11T09:24:00Z</time>
      </trkpt>
      <trkpt lat="44.38255" lon="4.41843">
        <ele>97.7</ele>
        <time>2022-06-11T09:24:01Z</time>
      </trkpt>
      <trkpt lat="44.38252" lon="4.41842">
        <ele>97.8</ele>
        <time>2022-06-11T09:24:02Z</time>
      </trkpt>
      <trkpt lat="44.38249" lon="4.41841">
        <ele>98</ele>
        <time>2022-06-11T09:24:03Z</time>
      </trkpt>
      <trkpt lat="44.38246" lon="4.41841">
        <ele>98.1</ele>
        <time>2022-06-11T09:24:04Z</time>
      </trkpt>
      <trkpt lat="44.38244" lon="4.4184">
        <ele>98.3</ele>
        <time>2022-06-11T09:24:05Z</time>
      </trkpt>
      <trkpt lat="44.38241" lon="4.41839">
        <ele>98.4</ele>
        <time>2022-06-11T09:24:06Z</time>
      </trkpt>
      <trkpt lat="44.38238" lon="4.41839">
        <ele>98.5</ele>
        <time>2022-06-11T09:24:07Z</time>
      </trkpt>
      <trkpt lat="44.38234" lon="4.41838">
        <ele>98.8</ele>
        <time>2022-06-11T09:24:08Z</time>
      </trkpt>
      <trkpt lat="44.38233" lon="4.41837">
        <ele>98.8</ele>
        <time>2022-06-11T09:24:09Z</time>
      </trkpt>
      <trkpt lat="44.38229" lon="4.41837">
        <ele>99</ele>
        <time>2022-06-11T09:24:10Z</time>
      </trkpt>
      <trkpt lat="44.38228" lon="4.41837">
        <ele>99.1</ele>
        <time>2022-06-11T09:24:11Z</time>
      </trkpt>
      <trkpt lat="44.38225" lon="4.41836">
        <ele>99.3</ele>
        <time>2022-06-11T09:24:12Z</time>
      </trkpt>
      <trkpt lat="44.38222" lon="4.41835">
        <ele>99.4</ele>
        <time>2022-06-11T09:24:13Z</time>
      </trkpt>
      <trkpt lat="44.38219" lon="4.41835">
        <ele>99.6</ele>
        <time>2022-06-11T09:24:14Z</time>
      </trkpt>
      <trkpt lat="44.38215" lon="4.41835">
        <ele>99.8</ele>
        <time>2022-06-11T09:24:15Z</time>
      </trkpt>
      <trkpt lat="44.38214" lon="4.41834">
        <ele>99.9</ele>
        <time>2022-06-11T09:24:16Z</time>
      </trkpt>
      <trkpt lat="44.3821" lon="4.41834">
        <ele>100.1</ele>
        <time>2022-06-11T09:24:17Z</time>
      </trkpt>
      <trkpt lat="44.38209" lon="4.41833">
        <ele>100.2</ele>
        <time>2022-06-11T09:24:18Z</time>
      </trkpt>
      <trkpt lat="44.38205" lon="4.41832">
        <ele>100.4</ele>
        <time>2022-06-11T09:24:19Z</time>
      </trkpt>
      <trkpt lat="44.38204" lon="4.41832">
        <ele>100.4</ele>
        <time>2022-06-11T09:24:20Z</time>
      </trkpt>
      <trkpt lat="44.38202" lon="4.41831">
        <ele>100.6</ele>
        <time>2022-06-11T09:24:21Z</time>
      </trkpt>
      <trkpt lat="44.38201" lon="4.41831">
        <ele>100.6</ele>
        <time>2022-06-11T09:24:22Z</time>
      </trkpt>
      <trkpt lat="44.382" lon="4.41831">
        <ele>100.7</ele>
        <time>2022-06-11T09:24:23Z</time>
      </trkpt>
      <trkpt lat="44.38199" lon="4.41831">
        <ele>100.7</ele>
        <time>2022-06-11T09:24:24Z</time>
      </trkpt>
      <trkpt lat="44.38199" lon="4.41831">
        <ele>100.8</ele>
        <time>2022-06-11T09:24:25Z</time>
      </trkpt>
      <trkpt lat="44.38198" lon="4.4183">
        <ele>100.8</ele>
        <time>2022-06-11T09:24:26Z</time>
      </trkpt>
      <trkpt lat="44.38197" lon="4.4183">
        <ele>100.9</ele>
        <time>2022-06-11T09:24:27Z</time>
      </trkpt>
      <trkpt lat="44.38196" lon="4.4183">
        <ele>100.9</ele>
        <time>2022-06-11T09:24:28Z</time>
      </trkpt>
      <trkpt lat="44.38195" lon="4.4183">
        <ele>101</ele>
        <time>2022-06-11T09:24:29Z</time>
      </trkpt>
      <trkpt lat="44.38195" lon="4.41831">
        <ele>101</ele>
        <time>2022-06-11T09:24:30Z</time>
      </trkpt>
      <trkpt lat="44.38195" lon="4.41831">
        <ele>101</ele>
        <time>2022-06-11T09:24:31Z</time>
      </trkpt>
      <trkpt lat="44.38195" lon="4.41832">
        <ele>101.1</ele>
        <time>2022-06-11T09:24:32Z</time>
      </trkpt>
      <trkpt lat="44.38195" lon="4.41832">
        <ele>101.1</ele>
        <time>2022-06-11T09:24:33Z</time>
      </trkpt>
      <trkpt lat="44.38195" lon="4.41831">
        <ele>101.1</ele>
        <time>2022-06-11T09:24:34Z</time>
      </trkpt>
      <trkpt lat="44.38195" lon="4.41831">
        <ele>101.1</ele>
        <time>2022-06-11T09:24:35Z</time>
      </trkpt>
      <trkpt lat="44.38195" lon="4.4183">
        <ele>101.1</ele>
        <time>2022-06-11T09:24:36Z</time>
      </trkpt>
      <trkpt lat="44.38196" lon="4.4183">
        <ele>101.2</ele>
        <time>2022-06-11T09:24:37Z</time>
      </trkpt>
      <trkpt lat="44.38196" lon="4.4183">
        <ele>101.2</ele>
        <time>2022-06-11T09:24:38Z</time>
      </trkpt>
      <trkpt lat="44.38196" lon="4.4183">
        <ele>101.2</ele>
        <time>2022-06-11T09:24:39Z</time>
      </trkpt>
      <trkpt lat="44.38196" lon="4.4183">
        <ele>101.2</ele>
        <time>2022-06-11T09:24:40Z</time>
      </trkpt>
      <trkpt lat="44.38196" lon="4.4183">
        <ele>101.2</ele>
        <time>2022-06-11T09:24:41Z</time>
      </trkpt>
      <trkpt lat="44.38196" lon="4.4183">
        <ele>101.2</ele>
        <time>2022-06-11T09:24:42Z</time>
      </trkpt>
      <trkpt lat="44.38192" lon="4.41831">
        <ele>101.4</ele>
        <time>2022-06-11T09:26:19Z</time>
      </trkpt>
      <trkpt lat="44.3819" lon="4.41831">
        <ele>101.5</ele>
        <time>2022-06-11T09:26:20Z</time>
      </trkpt>
      <trkpt lat="44.38189" lon="4.41831">
        <ele>101.6</ele>
        <time>2022-06-11T09:26:21Z</time>
      </trkpt>
      <trkpt lat="44.38187" lon="4.4183">
        <ele>101.7</ele>
        <time>2022-06-11T09:26:22Z</time>
      </trkpt>
      <trkpt lat="44.38186" lon="4.41831">
        <ele>101.8</ele>
        <time>2022-06-11T09:26:23Z</time>
      </trkpt>
      <trkpt lat="44.38182" lon="4.41831">
        <ele>102</ele>
        <time>2022-06-11T09:26:24Z</time>
      </trkpt>
      <trkpt lat="44.38181" lon="4.41831">
        <ele>102.1</ele>
        <time>2022-06-11T09:26:25Z</time>
      </trkpt>
      <trkpt lat="44.38179" lon="4.41831">
        <ele>102.2</ele>
        <time>2022-06-11T09:26:26Z</time>
      </trkpt>
      <trkpt lat="44.38176" lon="4.41831">
        <ele>102.4</ele>
        <time>2022-06-11T09:26:28Z</time>
      </trkpt>
      <trkpt lat="44.38172" lon="4.41831">
        <ele>102.6</ele>
        <time>2022-06-11T09:26:29Z</time>
      </trkpt>
      <trkpt lat="44.38169" lon="4.41831">
        <ele>102.8</ele>
        <time>2022-06-11T09:26:31Z</time>
      </trkpt>
      <trkpt lat="44.38168" lon="4.41831">
        <ele>102.9</ele>
        <time>2022-06-11T09:26:32Z</time>
      </trkpt>
      <trkpt lat="44.38165" lon="4.41831">
        <ele>103.1</ele>
        <time>2022-06-11T09:26:33Z</time>
      </trkpt>
      <trkpt lat="44.38164" lon="4.41831">
        <ele>103.1</ele>
        <time>2022-06-11T09:26:34Z</time>
      </trkpt>
      <trkpt lat="44.38159" lon="4.41831">
        <ele>103.4</ele>
        <time>2022-06-11T09:26:35Z</time>
      </trkpt>
      <trkpt lat="44.38155" lon="4.41832">
        <ele>103.6</ele>
        <time>2022-06-11T09:26:37Z</time>
      </trkpt>
      <trkpt lat="44.38153" lon="4.41832">
        <ele>103.7</ele>
        <time>2022-06-11T09:26:38Z</time>
      </trkpt>
      <trkpt lat="44.38151" lon="4.41832">
        <ele>103.8</ele>
        <time>2022-06-11T09:26:39Z</time>
      </trkpt>
      <trkpt lat="44.38147" lon="4.41833">
        <ele>104</ele>
        <time>2022-06-11T09:26:40Z</time>
      </trkpt>
      <trkpt lat="44.38144" lon="4.41833">
        <ele>104.2</ele>
        <time>2022-06-11T09:26:41Z</time>
      </trkpt>
      <trkpt lat="44.38141" lon="4.41833">
        <ele>104.3</ele>
        <time>2022-06-11T09:26:43Z</time>
      </trkpt>
      <trkpt lat="44.38137" lon="4.41833">
        <ele>104.6</ele>
        <time>2022-06-11T09:26:44Z</time>
      </trkpt>
      <trkpt lat="44.38134" lon="4.41832">
        <ele>104.7</ele>
        <time>2022-06-11T09:26:45Z</time>
      </trkpt>
      <trkpt lat="44.38129" lon="4.41832">
        <ele>104.9</ele>
        <time>2022-06-11T09:26:47Z</time>
      </trkpt>
      <trkpt lat="44.38126" lon="4.41832">
        <ele>105.1</ele>
        <time>2022-06-11T09:26:48Z</time>
      </trkpt>
      <trkpt lat="44.38124" lon="4.41832">
        <ele>105.2</ele>
        <time>2022-06-11T09:26:49Z</time>
      </trkpt>
      <trkpt lat="44.38121" lon="4.41832">
        <ele>105.3</ele>
        <time>2022-06-11T09:26:50Z</time>
      </trkpt>
      <trkpt lat="44.38119" lon="4.41832">
        <ele>105.4</ele>
        <time>2022-06-11T09:26:51Z</time>
      </trkpt>
      <trkpt lat="44.38116" lon="4.41832">
        <ele>105.5</ele>
        <time>2022-06-11T09:26:52Z</time>
      </trkpt>
      <trkpt lat="44.38112" lon="4.41832">
        <ele>105.8</ele>
        <time>2022-06-11T09:26:53Z</time>
      </trkpt>
      <trkpt lat="44.38106" lon="4.41832">
        <ele>106</ele>
        <time>2022-06-11T09:26:55Z</time>
      </trkpt>
      <trkpt lat="44.38103" lon="4.41832">
        <ele>106.2</ele>
        <time>2022-06-11T09:26:57Z</time>
      </trkpt>
      <trkpt lat="44.38099" lon="4.41832">
        <ele>106.3</ele>
        <time>2022-06-11T09:26:58Z</time>
      </trkpt>
      <trkpt lat="44.38098" lon="4.41832">
        <ele>106.4</ele>
        <time>2022-06-11T09:26:59Z</time>
      </trkpt>
      <trkpt lat="44.38095" lon="4.41832">
        <ele>106.4</ele>
        <time>2022-06-11T09:27:00Z</time>
      </trkpt>
      <trkpt lat="44.38092" lon="4.41832">
        <ele>106.5</ele>
        <time>2022-06-11T09:27:01Z</time>
      </trkpt>
      <trkpt lat="44.38088" lon="4.41831">
        <ele>106.6</ele>
        <time>2022-06-11T09:27:02Z</time>
      </trkpt>
      <trkpt lat="44.38084" lon="4.4183">
        <ele>106.7</ele>
        <time>2022-06-11T09:27:03Z</time>
      </trkpt>
      <trkpt lat="44.38083" lon="4.41829">
        <ele>106.7</ele>
        <time>2022-06-11T09:27:04Z</time>
      </trkpt>
      <trkpt lat="44.38079" lon="4.41828">
        <ele>106.8</ele>
        <time>2022-06-11T09:27:05Z</time>
      </trkpt>
      <trkpt lat="44.38076" lon="4.41828">
        <ele>106.8</ele>
        <time>2022-06-11T09:27:06Z</time>
      </trkpt>
      <trkpt lat="44.38072" lon="4.41827">
        <ele>106.8</ele>
        <time>2022-06-11T09:27:07Z</time>
      </trkpt>
      <trkpt lat="44.38068" lon="4.41825">
        <ele>106.9</ele>
        <time>2022-06-11T09:27:08Z</time>
      </trkpt>
      <trkpt lat="44.38064" lon="4.41825">
        <ele>106.9</ele>
        <time>2022-06-11T09:27:09Z</time>
      </trkpt>
      <trkpt lat="44.3806" lon="4.41825">
        <ele>106.9</ele>
        <time>2022-06-11T09:27:10Z</time>
      </trkpt>
      <trkpt lat="44.38057" lon="4.41825">
        <ele>106.9</ele>
        <time>2022-06-11T09:27:11Z</time>
      </trkpt>
      <trkpt lat="44.38053" lon="4.41825">
        <ele>106.9</ele>
        <time>2022-06-11T09:27:12Z</time>
      </trkpt>
      <trkpt lat="44.38049" lon="4.41825">
        <ele>106.9</ele>
        <time>2022-06-11T09:27:13Z</time>
      </trkpt>
      <trkpt lat="44.38045" lon="4.41826">
        <ele>106.9</ele>
        <time>2022-06-11T09:27:14Z</time>
      </trkpt>
      <trkpt lat="44.3804" lon="4.41827">
        <ele>106.9</ele>
        <time>2022-06-11T09:27:15Z</time>
      </trkpt>
      <trkpt lat="44.38036" lon="4.41828">
        <ele>106.9</ele>
        <time>2022-06-11T09:27:16Z</time>
      </trkpt>
      <trkpt lat="44.38028" lon="4.4183">
        <ele>106.8</ele>
        <time>2022-06-11T09:27:17Z</time>
      </trkpt>
      <trkpt lat="44.38023" lon="4.4183">
        <ele>106.7</ele>
        <time>2022-06-11T09:27:19Z</time>
      </trkpt>
      <trkpt lat="44.38019" lon="4.41831">
        <ele>106.7</ele>
        <time>2022-06-11T09:27:20Z</time>
      </trkpt>
      <trkpt lat="44.38011" lon="4.41832">
        <ele>106.6</ele>
        <time>2022-06-11T09:27:21Z</time>
      </trkpt>
      <trkpt lat="44.38002" lon="4.41833">
        <ele>106.5</ele>
        <time>2022-06-11T09:27:23Z</time>
      </trkpt>
      <trkpt lat="44.37997" lon="4.41833">
        <ele>106.5</ele>
        <time>2022-06-11T09:27:24Z</time>
      </trkpt>
      <trkpt lat="44.37992" lon="4.41834">
        <ele>106.4</ele>
        <time>2022-06-11T09:27:25Z</time>
      </trkpt>
      <trkpt lat="44.37987" lon="4.41834">
        <ele>106.3</ele>
        <time>2022-06-11T09:27:26Z</time>
      </trkpt>
      <trkpt lat="44.37982" lon="4.41834">
        <ele>106.3</ele>
        <time>2022-06-11T09:27:27Z</time>
      </trkpt>
      <trkpt lat="44.37977" lon="4.41835">
        <ele>106.3</ele>
        <time>2022-06-11T09:27:28Z</time>
      </trkpt>
      <trkpt lat="44.37972" lon="4.41835">
        <ele>106.3</ele>
        <time>2022-06-11T09:27:29Z</time>
      </trkpt>
      <trkpt lat="44.37966" lon="4.41836">
        <ele>106.2</ele>
        <time>2022-06-11T09:27:30Z</time>
      </trkpt>
      <trkpt lat="44.37961" lon="4.41837">
        <ele>106.2</ele>
        <time>2022-06-11T09:27:31Z</time>
      </trkpt>
      <trkpt lat="44.37956" lon="4.41838">
        <ele>106.2</ele>
        <time>2022-06-11T09:27:32Z</time>
      </trkpt>
      <trkpt lat="44.37952" lon="4.41839">
        <ele>106.2</ele>
        <time>2022-06-11T09:27:33Z</time>
      </trkpt>
      <trkpt lat="44.37947" lon="4.4184">
        <ele>106.2</ele>
        <time>2022-06-11T09:27:34Z</time>
      </trkpt>
      <trkpt lat="44.37942" lon="4.41841">
        <ele>106.2</ele>
        <time>2022-06-11T09:27:35Z</time>
      </trkpt>
      <trkpt lat="44.37937" lon="4.41843">
        <ele>106.2</ele>
        <time>2022-06-11T09:27:36Z</time>
      </trkpt>
      <trkpt lat="44.37932" lon="4.41845">
        <ele>106.3</ele>
        <time>2022-06-11T09:27:37Z</time>
      </trkpt>
      <trkpt lat="44.37927" lon="4.41846">
        <ele>106.3</ele>
        <time>2022-06-11T09:27:38Z</time>
      </trkpt>
      <trkpt lat="44.37922" lon="4.41848">
        <ele>106.3</ele>
        <time>2022-06-11T09:27:39Z</time>
      </trkpt>
      <trkpt lat="44.37917" lon="4.41851">
        <ele>106.3</ele>
        <time>2022-06-11T09:27:40Z</time>
      </trkpt>
      <trkpt lat="44.37912" lon="4.41853">
        <ele>106.4</ele>
        <time>2022-06-11T09:27:41Z</time>
      </trkpt>
      <trkpt lat="44.37907" lon="4.41853">
        <ele>106.4</ele>
        <time>2022-06-11T09:27:42Z</time>
      </trkpt>
      <trkpt lat="44.37902" lon="4.41855">
        <ele>106.4</ele>
        <time>2022-06-11T09:27:43Z</time>
      </trkpt>
      <trkpt lat="44.37897" lon="4.41856">
        <ele>106.4</ele>
        <time>2022-06-11T09:27:44Z</time>
      </trkpt>
      <trkpt lat="44.37892" lon="4.41857">
        <ele>106.5</ele>
        <time>2022-06-11T09:27:45Z</time>
      </trkpt>
      <trkpt lat="44.37887" lon="4.41859">
        <ele>106.5</ele>
        <time>2022-06-11T09:27:46Z</time>
      </trkpt>
      <trkpt lat="44.37882" lon="4.4186">
        <ele>106.5</ele>
        <time>2022-06-11T09:27:47Z</time>
      </trkpt>
      <trkpt lat="44.37878" lon="4.41862">
        <ele>106.5</ele>
        <time>2022-06-11T09:27:48Z</time>
      </trkpt>
      <trkpt lat="44.37872" lon="4.41864">
        <ele>106.5</ele>
        <time>2022-06-11T09:27:49Z</time>
      </trkpt>
      <trkpt lat="44.37867" lon="4.41866">
        <ele>106.5</ele>
        <time>2022-06-11T09:27:50Z</time>
      </trkpt>
      <trkpt lat="44.37862" lon="4.41868">
        <ele>106.5</ele>
        <time>2022-06-11T09:27:51Z</time>
      </trkpt>
      <trkpt lat="44.37857" lon="4.4187">
        <ele>106.5</ele>
        <time>2022-06-11T09:27:52Z</time>
      </trkpt>
      <trkpt lat="44.37852" lon="4.41873">
        <ele>106.5</ele>
        <time>2022-06-11T09:27:53Z</time>
      </trkpt>
      <trkpt lat="44.37847" lon="4.41875">
        <ele>106.5</ele>
        <time>2022-06-11T09:27:54Z</time>
      </trkpt>
      <trkpt lat="44.37842" lon="4.41877">
        <ele>106.6</ele>
        <time>2022-06-11T09:27:55Z</time>
      </trkpt>
      <trkpt lat="44.37836" lon="4.41879">
        <ele>106.6</ele>
        <time>2022-06-11T09:27:56Z</time>
      </trkpt>
      <trkpt lat="44.37831" lon="4.41882">
        <ele>106.6</ele>
        <time>2022-06-11T09:27:57Z</time>
      </trkpt>
      <trkpt lat="44.37826" lon="4.41885">
        <ele>106.6</ele>
        <time>2022-06-11T09:27:58Z</time>
      </trkpt>
      <trkpt lat="44.37821" lon="4.41888">
        <ele>106.6</ele>
        <time>2022-06-11T09:27:59Z</time>
      </trkpt>
      <trkpt lat="44.37816" lon="4.41891">
        <ele>106.7</ele>
        <time>2022-06-11T09:28:00Z</time>
      </trkpt>
      <trkpt lat="44.3781" lon="4.41895">
        <ele>106.7</ele>
        <time>2022-06-11T09:28:01Z</time>
      </trkpt>
      <trkpt lat="44.37806" lon="4.41897">
        <ele>106.7</ele>
        <time>2022-06-11T09:28:02Z</time>
      </trkpt>
      <trkpt lat="44.37801" lon="4.419">
        <ele>106.7</ele>
        <time>2022-06-11T09:28:03Z</time>
      </trkpt>
      <trkpt lat="44.37797" lon="4.41903">
        <ele>106.8</ele>
        <time>2022-06-11T09:28:04Z</time>
      </trkpt>
      <trkpt lat="44.37792" lon="4.41907">
        <ele>106.8</ele>
        <time>2022-06-11T09:28:05Z</time>
      </trkpt>
      <trkpt lat="44.37788" lon="4.41911">
        <ele>106.8</ele>
        <time>2022-06-11T09:28:06Z</time>
      </trkpt>
      <trkpt lat="44.37784" lon="4.41915">
        <ele>106.9</ele>
        <time>2022-06-11T09:28:07Z</time>
      </trkpt>
      <trkpt lat="44.3778" lon="4.41919">
        <ele>106.9</ele>
        <time>2022-06-11T09:28:08Z</time>
      </trkpt>
      <trkpt lat="44.37777" lon="4.41923">
        <ele>107</ele>
        <time>2022-06-11T09:28:09Z</time>
      </trkpt>
      <trkpt lat="44.37774" lon="4.41928">
        <ele>107</ele>
        <time>2022-06-11T09:28:10Z</time>
      </trkpt>
      <trkpt lat="44.37771" lon="4.41933">
        <ele>107</ele>
        <time>2022-06-11T09:28:11Z</time>
      </trkpt>
      <trkpt lat="44.37768" lon="4.41939">
        <ele>107.1</ele>
        <time>2022-06-11T09:28:12Z</time>
      </trkpt>
      <trkpt lat="44.37766" lon="4.41943">
        <ele>107.2</ele>
        <time>2022-06-11T09:28:13Z</time>
      </trkpt>
      <trkpt lat="44.37763" lon="4.41948">
        <ele>107.2</ele>
        <time>2022-06-11T09:28:14Z</time>
      </trkpt>
      <trkpt lat="44.3776" lon="4.41953">
        <ele>107.3</ele>
        <time>2022-06-11T09:28:15Z</time>
      </trkpt>
      <trkpt lat="44.37758" lon="4.41954">
        <ele>107.3</ele>
        <time>2022-06-11T09:28:16Z</time>
      </trkpt>
      <trkpt lat="44.37755" lon="4.41958">
        <ele>107.4</ele>
        <time>2022-06-11T09:28:17Z</time>
      </trkpt>
      <trkpt lat="44.37752" lon="4.41962">
        <ele>107.4</ele>
        <time>2022-06-11T09:28:18Z</time>
      </trkpt>
      <trkpt lat="44.37749" lon="4.41965">
        <ele>107.5</ele>
        <time>2022-06-11T09:28:19Z</time>
      </trkpt>
      <trkpt lat="44.37745" lon="4.41969">
        <ele>107.5</ele>
        <time>2022-06-11T09:28:20Z</time>
      </trkpt>
      <trkpt lat="44.37742" lon="4.41971">
        <ele>107.6</ele>
        <time>2022-06-11T09:28:21Z</time>
      </trkpt>
      <trkpt lat="44.37737" lon="4.41974">
        <ele>107.7</ele>
        <time>2022-06-11T09:28:22Z</time>
      </trkpt>
      <trkpt lat="44.37728" lon="4.41985">
        <ele>107.9</ele>
        <time>2022-06-11T09:28:24Z</time>
      </trkpt>
      <trkpt lat="44.37721" lon="4.41994">
        <ele>108</ele>
        <time>2022-06-11T09:28:26Z</time>
      </trkpt>
      <trkpt lat="44.3772" lon="4.42">
        <ele>108</ele>
        <time>2022-06-11T09:28:28Z</time>
      </trkpt>
      <trkpt lat="44.37713" lon="4.42013">
        <ele>108.1</ele>
        <time>2022-06-11T09:28:30Z</time>
      </trkpt>
      <trkpt lat="44.3771" lon="4.42019">
        <ele>108.1</ele>
        <time>2022-06-11T09:28:31Z</time>
      </trkpt>
      <trkpt lat="44.37708" lon="4.42025">
        <ele>108.1</ele>
        <time>2022-06-11T09:28:32Z</time>
      </trkpt>
      <trkpt lat="44.37706" lon="4.42031">
        <ele>108.1</ele>
        <time>2022-06-11T09:28:33Z</time>
      </trkpt>
      <trkpt lat="44.37704" lon="4.42037">
        <ele>108.1</ele>
        <time>2022-06-11T09:28:34Z</time>
      </trkpt>
      <trkpt lat="44.37702" lon="4.42043">
        <ele>108.1</ele>
        <time>2022-06-11T09:28:35Z</time>
      </trkpt>
      <trkpt lat="44.37699" lon="4.4205">
        <ele>108.1</ele>
        <time>2022-06-11T09:28:36Z</time>
      </trkpt>
      <trkpt lat="44.37696" lon="4.42056">
        <ele>108.1</ele>
        <time>2022-06-11T09:28:37Z</time>
      </trkpt>
      <trkpt lat="44.37693" lon="4.42063">
        <ele>108.2</ele>
        <time>2022-06-11T09:28:38Z</time>
      </trkpt>
      <trkpt lat="44.3769" lon="4.42069">
        <ele>108.2</ele>
        <time>2022-06-11T09:28:39Z</time>
      </trkpt>
      <trkpt lat="44.37688" lon="4.42075">
        <ele>108.2</ele>
        <time>2022-06-11T09:28:40Z</time>
      </trkpt>
      <trkpt lat="44.37685" lon="4.42082">
        <ele>108.2</ele>
        <time>2022-06-11T09:28:41Z</time>
      </trkpt>
      <trkpt lat="44.37682" lon="4.42089">
        <ele>108.2</ele>
        <time>2022-06-11T09:28:42Z</time>
      </trkpt>
      <trkpt lat="44.37679" lon="4.42096">
        <ele>108.2</ele>
        <time>2022-06-11T09:28:43Z</time>
      </trkpt>
      <trkpt lat="44.37676" lon="4.42102">
        <ele>108.3</ele>
        <time>2022-06-11T09:28:44Z</time>
      </trkpt>
      <trkpt lat="44.37673" lon="4.42109">
        <ele>108.3</ele>
        <time>2022-06-11T09:28:45Z</time>
      </trkpt>
      <trkpt lat="44.3767" lon="4.42116">
        <ele>108.3</ele>
        <time>2022-06-11T09:28:46Z</time>
      </trkpt>
      <trkpt lat="44.37667" lon="4.42122">
        <ele>108.3</ele>
        <time>2022-06-11T09:28:47Z</time>
      </trkpt>
      <trkpt lat="44.37665" lon="4.42129">
        <ele>108.3</ele>
        <time>2022-06-11T09:28:48Z</time>
      </trkpt>
      <trkpt lat="44.37662" lon="4.42135">
        <ele>108.3</ele>
        <time>2022-06-11T09:28:49Z</time>
      </trkpt>
      <trkpt lat="44.37659" lon="4.42141">
        <ele>108.2</ele>
        <time>2022-06-11T09:28:50Z</time>
      </trkpt>
      <trkpt lat="44.37656" lon="4.42147">
        <ele>108.2</ele>
        <time>2022-06-11T09:28:51Z</time>
      </trkpt>
      <trkpt lat="44.37653" lon="4.42154">
        <ele>108.2</ele>
        <time>2022-06-11T09:28:52Z</time>
      </trkpt>
      <trkpt lat="44.37651" lon="4.42161">
        <ele>108.1</ele>
        <time>2022-06-11T09:28:53Z</time>
      </trkpt>
      <trkpt lat="44.37649" lon="4.42167">
        <ele>108.1</ele>
        <time>2022-06-11T09:28:54Z</time>
      </trkpt>
      <trkpt lat="44.37646" lon="4.42174">
        <ele>108.1</ele>
        <time>2022-06-11T09:28:55Z</time>
      </trkpt>
      <trkpt lat="44.37643" lon="4.42181">
        <ele>108</ele>
        <time>2022-06-11T09:28:56Z</time>
      </trkpt>
      <trkpt lat="44.3764" lon="4.42188">
        <ele>108</ele>
        <time>2022-06-11T09:28:57Z</time>
      </trkpt>
      <trkpt lat="44.37637" lon="4.42195">
        <ele>108</ele>
        <time>2022-06-11T09:28:58Z</time>
      </trkpt>
      <trkpt lat="44.37634" lon="4.42201">
        <ele>107.9</ele>
        <time>2022-06-11T09:28:59Z</time>
      </trkpt>
      <trkpt lat="44.37632" lon="4.42208">
        <ele>107.9</ele>
        <time>2022-06-11T09:29:00Z</time>
      </trkpt>
      <trkpt lat="44.37629" lon="4.42215">
        <ele>107.9</ele>
        <time>2022-06-11T09:29:01Z</time>
      </trkpt>
      <trkpt lat="44.37627" lon="4.42222">
        <ele>107.8</ele>
        <time>2022-06-11T09:29:02Z</time>
      </trkpt>
      <trkpt lat="44.37626" lon="4.42229">
        <ele>107.7</ele>
        <time>2022-06-11T09:29:03Z</time>
      </trkpt>
      <trkpt lat="44.37625" lon="4.42238">
        <ele>107.7</ele>
        <time>2022-06-11T09:29:04Z</time>
      </trkpt>
      <trkpt lat="44.37624" lon="4.42246">
        <ele>107.6</ele>
        <time>2022-06-11T09:29:05Z</time>
      </trkpt>
      <trkpt lat="44.37623" lon="4.42255">
        <ele>107.5</ele>
        <time>2022-06-11T09:29:06Z</time>
      </trkpt>
      <trkpt lat="44.37622" lon="4.42263">
        <ele>107.5</ele>
        <time>2022-06-11T09:29:07Z</time>
      </trkpt>
      <trkpt lat="44.37621" lon="4.42272">
        <ele>107.4</ele>
        <time>2022-06-11T09:29:08Z</time>
      </trkpt>
      <trkpt lat="44.37621" lon="4.42281">
        <ele>107.3</ele>
        <time>2022-06-11T09:29:09Z</time>
      </trkpt>
      <trkpt lat="44.37621" lon="4.4229">
        <ele>107.2</ele>
        <time>2022-06-11T09:29:10Z</time>
      </trkpt>
      <trkpt lat="44.37621" lon="4.42299">
        <ele>107.1</ele>
        <time>2022-06-11T09:29:11Z</time>
      </trkpt>
      <trkpt lat="44.37622" lon="4.42307">
        <ele>107.1</ele>
        <time>2022-06-11T09:29:12Z</time>
      </trkpt>
      <trkpt lat="44.37623" lon="4.42316">
        <ele>107</ele>
        <time>2022-06-11T09:29:13Z</time>
      </trkpt>
      <trkpt lat="44.37624" lon="4.42325">
        <ele>107</ele>
        <time>2022-06-11T09:29:14Z</time>
      </trkpt>
      <trkpt lat="44.37626" lon="4.42333">
        <ele>106.9</ele>
        <time>2022-06-11T09:29:15Z</time>
      </trkpt>
      <trkpt lat="44.37627" lon="4.42342">
        <ele>106.8</ele>
        <time>2022-06-11T09:29:16Z</time>
      </trkpt>
      <trkpt lat="44.37629" lon="4.42351">
        <ele>106.7</ele>
        <time>2022-06-11T09:29:17Z</time>
      </trkpt>
      <trkpt lat="44.3763" lon="4.42359">
        <ele>106.6</ele>
        <time>2022-06-11T09:29:18Z</time>
      </trkpt>
      <trkpt lat="44.37632" lon="4.42367">
        <ele>106.5</ele>
        <time>2022-06-11T09:29:19Z</time>
      </trkpt>
      <trkpt lat="44.37635" lon="4.42374">
        <ele>106.4</ele>
        <time>2022-06-11T09:29:20Z</time>
      </trkpt>
      <trkpt lat="44.37637" lon="4.42382">
        <ele>106.2</ele>
        <time>2022-06-11T09:29:21Z</time>
      </trkpt>
      <trkpt lat="44.3764" lon="4.42389">
        <ele>106.1</ele>
        <time>2022-06-11T09:29:22Z</time>
      </trkpt>
      <trkpt lat="44.37643" lon="4.42397">
        <ele>105.9</ele>
        <time>2022-06-11T09:29:23Z</time>
      </trkpt>
      <trkpt lat="44.37646" lon="4.42405">
        <ele>105.7</ele>
        <time>2022-06-11T09:29:24Z</time>
      </trkpt>
      <trkpt lat="44.37649" lon="4.42413">
        <ele>105.5</ele>
        <time>2022-06-11T09:29:25Z</time>
      </trkpt>
      <trkpt lat="44.37652" lon="4.42421">
        <ele>105.2</ele>
        <time>2022-06-11T09:29:26Z</time>
      </trkpt>
      <trkpt lat="44.37656" lon="4.4243">
        <ele>105</ele>
        <time>2022-06-11T09:29:27Z</time>
      </trkpt>
      <trkpt lat="44.37659" lon="4.42438">
        <ele>104.7</ele>
        <time>2022-06-11T09:29:28Z</time>
      </trkpt>
      <trkpt lat="44.37663" lon="4.42447">
        <ele>104.4</ele>
        <time>2022-06-11T09:29:29Z</time>
      </trkpt>
      <trkpt lat="44.37667" lon="4.42457">
        <ele>104</ele>
        <time>2022-06-11T09:29:30Z</time>
      </trkpt>
      <trkpt lat="44.37671" lon="4.42466">
        <ele>103.7</ele>
        <time>2022-06-11T09:29:31Z</time>
      </trkpt>
      <trkpt lat="44.37674" lon="4.42477">
        <ele>103.4</ele>
        <time>2022-06-11T09:29:32Z</time>
      </trkpt>
      <trkpt lat="44.37676" lon="4.42488">
        <ele>103.1</ele>
        <time>2022-06-11T09:29:33Z</time>
      </trkpt>
      <trkpt lat="44.37678" lon="4.425">
        <ele>102.9</ele>
        <time>2022-06-11T09:29:34Z</time>
      </trkpt>
      <trkpt lat="44.37679" lon="4.42512">
        <ele>102.6</ele>
        <time>2022-06-11T09:29:35Z</time>
      </trkpt>
      <trkpt lat="44.3768" lon="4.42523">
        <ele>102.3</ele>
        <time>2022-06-11T09:29:36Z</time>
      </trkpt>
      <trkpt lat="44.37681" lon="4.42535">
        <ele>102.1</ele>
        <time>2022-06-11T09:29:37Z</time>
      </trkpt>
      <trkpt lat="44.37682" lon="4.42546">
        <ele>101.8</ele>
        <time>2022-06-11T09:29:38Z</time>
      </trkpt>
      <trkpt lat="44.37684" lon="4.42557">
        <ele>101.6</ele>
        <time>2022-06-11T09:29:39Z</time>
      </trkpt>
      <trkpt lat="44.37687" lon="4.42567">
        <ele>101.4</ele>
        <time>2022-06-11T09:29:40Z</time>
      </trkpt>
      <trkpt lat="44.37691" lon="4.42576">
        <ele>101.2</ele>
        <time>2022-06-11T09:29:41Z</time>
      </trkpt>
      <trkpt lat="44.37695" lon="4.42585">
        <ele>101</ele>
        <time>2022-06-11T09:29:42Z</time>
      </trkpt>
      <trkpt lat="44.37699" lon="4.42593">
        <ele>100.9</ele>
        <time>2022-06-11T09:29:43Z</time>
      </trkpt>
      <trkpt lat="44.37704" lon="4.42602">
        <ele>100.7</ele>
        <time>2022-06-11T09:29:44Z</time>
      </trkpt>
      <trkpt lat="44.37708" lon="4.4261">
        <ele>100.6</ele>
        <time>2022-06-11T09:29:45Z</time>
      </trkpt>
      <trkpt lat="44.37713" lon="4.42619">
        <ele>100.4</ele>
        <time>2022-06-11T09:29:46Z</time>
      </trkpt>
      <trkpt lat="44.37717" lon="4.42628">
        <ele>100.3</ele>
        <time>2022-06-11T09:29:47Z</time>
      </trkpt>
      <trkpt lat="44.37722" lon="4.42637">
        <ele>100.1</ele>
        <time>2022-06-11T09:29:48Z</time>
      </trkpt>
      <trkpt lat="44.37726" lon="4.42646">
        <ele>100</ele>
        <time>2022-06-11T09:29:49Z</time>
      </trkpt>
      <trkpt lat="44.37731" lon="4.42655">
        <ele>99.8</ele>
        <time>2022-06-11T09:29:50Z</time>
      </trkpt>
      <trkpt lat="44.37735" lon="4.42664">
        <ele>99.6</ele>
        <time>2022-06-11T09:29:51Z</time>
      </trkpt>
      <trkpt lat="44.3774" lon="4.42674">
        <ele>99.5</ele>
        <time>2022-06-11T09:29:52Z</time>
      </trkpt>
      <trkpt lat="44.37744" lon="4.42683">
        <ele>99.3</ele>
        <time>2022-06-11T09:29:53Z</time>
      </trkpt>
      <trkpt lat="44.37748" lon="4.42693">
        <ele>99.1</ele>
        <time>2022-06-11T09:29:54Z</time>
      </trkpt>
      <trkpt lat="44.37753" lon="4.42702">
        <ele>98.9</ele>
        <time>2022-06-11T09:29:55Z</time>
      </trkpt>
      <trkpt lat="44.37757" lon="4.42712">
        <ele>98.7</ele>
        <time>2022-06-11T09:29:56Z</time>
      </trkpt>
      <trkpt lat="44.37762" lon="4.42722">
        <ele>98.5</ele>
        <time>2022-06-11T09:29:57Z</time>
      </trkpt>
      <trkpt lat="44.37766" lon="4.42731">
        <ele>98.3</ele>
        <time>2022-06-11T09:29:58Z</time>
      </trkpt>
      <trkpt lat="44.3777" lon="4.42741">
        <ele>98.1</ele>
        <time>2022-06-11T09:29:59Z</time>
      </trkpt>
      <trkpt lat="44.37774" lon="4.42751">
        <ele>98</ele>
        <time>2022-06-11T09:30:00Z</time>
      </trkpt>
      <trkpt lat="44.37778" lon="4.4276">
        <ele>97.9</ele>
        <time>2022-06-11T09:30:01Z</time>
      </trkpt>
      <trkpt lat="44.37782" lon="4.42769">
        <ele>97.7</ele>
        <time>2022-06-11T09:30:02Z</time>
      </trkpt>
      <trkpt lat="44.37786" lon="4.42777">
        <ele>97.6</ele>
        <time>2022-06-11T09:30:03Z</time>
      </trkpt>
      <trkpt lat="44.3779" lon="4.42786">
        <ele>97.5</ele>
        <time>2022-06-11T09:30:04Z</time>
      </trkpt>
      <trkpt lat="44.37794" lon="4.42795">
        <ele>97.3</ele>
        <time>2022-06-11T09:30:05Z</time>
      </trkpt>
      <trkpt lat="44.37799" lon="4.42805">
        <ele>97.2</ele>
        <time>2022-06-11T09:30:06Z</time>
      </trkpt>
      <trkpt lat="44.37803" lon="4.42814">
        <ele>97.1</ele>
        <time>2022-06-11T09:30:07Z</time>
      </trkpt>
      <trkpt lat="44.37807" lon="4.42823">
        <ele>97</ele>
        <time>2022-06-11T09:30:08Z</time>
      </trkpt>
      <trkpt lat="44.37811" lon="4.42832">
        <ele>96.9</ele>
        <time>2022-06-11T09:30:09Z</time>
      </trkpt>
      <trkpt lat="44.37816" lon="4.4284">
        <ele>96.8</ele>
        <time>2022-06-11T09:30:10Z</time>
      </trkpt>
      <trkpt lat="44.3782" lon="4.42849">
        <ele>96.7</ele>
        <time>2022-06-11T09:30:11Z</time>
      </trkpt>
      <trkpt lat="44.37823" lon="4.42858">
        <ele>96.6</ele>
        <time>2022-06-11T09:30:12Z</time>
      </trkpt>
      <trkpt lat="44.37827" lon="4.42868">
        <ele>96.4</ele>
        <time>2022-06-11T09:30:13Z</time>
      </trkpt>
      <trkpt lat="44.37831" lon="4.42876">
        <ele>96.3</ele>
        <time>2022-06-11T09:30:14Z</time>
      </trkpt>
      <trkpt lat="44.37836" lon="4.42885">
        <ele>96.3</ele>
        <time>2022-06-11T09:30:15Z</time>
      </trkpt>
      <trkpt lat="44.37839" lon="4.42894">
        <ele>96.1</ele>
        <time>2022-06-11T09:30:16Z</time>
      </trkpt>
      <trkpt lat="44.37843" lon="4.42903">
        <ele>96</ele>
        <time>2022-06-11T09:30:17Z</time>
      </trkpt>
      <trkpt lat="44.37847" lon="4.42912">
        <ele>95.9</ele>
        <time>2022-06-11T09:30:18Z</time>
      </trkpt>
      <trkpt lat="44.3785" lon="4.42922">
        <ele>95.8</ele>
        <time>2022-06-11T09:30:19Z</time>
      </trkpt>
      <trkpt lat="44.37853" lon="4.42931">
        <ele>95.7</ele>
        <time>2022-06-11T09:30:20Z</time>
      </trkpt>
      <trkpt lat="44.37855" lon="4.42941">
        <ele>95.6</ele>
        <time>2022-06-11T09:30:21Z</time>
      </trkpt>
      <trkpt lat="44.37858" lon="4.4295">
        <ele>95.5</ele>
        <time>2022-06-11T09:30:22Z</time>
      </trkpt>
      <trkpt lat="44.37861" lon="4.42959">
        <ele>95.4</ele>
        <time>2022-06-11T09:30:23Z</time>
      </trkpt>
      <trkpt lat="44.37864" lon="4.42968">
        <ele>95.3</ele>
        <time>2022-06-11T09:30:24Z</time>
      </trkpt>
      <trkpt lat="44.37867" lon="4.42977">
        <ele>95.2</ele>
        <time>2022-06-11T09:30:25Z</time>
      </trkpt>
      <trkpt lat="44.3787" lon="4.42987">
        <ele>95.2</ele>
        <time>2022-06-11T09:30:26Z</time>
      </trkpt>
      <trkpt lat="44.37873" lon="4.42996">
        <ele>95.1</ele>
        <time>2022-06-11T09:30:27Z</time>
      </trkpt>
      <trkpt lat="44.37876" lon="4.43005">
        <ele>95</ele>
        <time>2022-06-11T09:30:28Z</time>
      </trkpt>
      <trkpt lat="44.37879" lon="4.43014">
        <ele>94.9</ele>
        <time>2022-06-11T09:30:29Z</time>
      </trkpt>
      <trkpt lat="44.37882" lon="4.43023">
        <ele>94.8</ele>
        <time>2022-06-11T09:30:30Z</time>
      </trkpt>
      <trkpt lat="44.37885" lon="4.43033">
        <ele>94.7</ele>
        <time>2022-06-11T09:30:31Z</time>
      </trkpt>
      <trkpt lat="44.37887" lon="4.43042">
        <ele>94.6</ele>
        <time>2022-06-11T09:30:32Z</time>
      </trkpt>
      <trkpt lat="44.3789" lon="4.43052">
        <ele>94.6</ele>
        <time>2022-06-11T09:30:33Z</time>
      </trkpt>
      <trkpt lat="44.37892" lon="4.43062">
        <ele>94.5</ele>
        <time>2022-06-11T09:30:34Z</time>
      </trkpt>
      <trkpt lat="44.37895" lon="4.43071">
        <ele>94.4</ele>
        <time>2022-06-11T09:30:35Z</time>
      </trkpt>
      <trkpt lat="44.37897" lon="4.43081">
        <ele>94.2</ele>
        <time>2022-06-11T09:30:36Z</time>
      </trkpt>
      <trkpt lat="44.37898" lon="4.43091">
        <ele>94.1</ele>
        <time>2022-06-11T09:30:37Z</time>
      </trkpt>
      <trkpt lat="44.379" lon="4.43101">
        <ele>94</ele>
        <time>2022-06-11T09:30:38Z</time>
      </trkpt>
      <trkpt lat="44.37901" lon="4.43111">
        <ele>93.9</ele>
        <time>2022-06-11T09:30:39Z</time>
      </trkpt>
      <trkpt lat="44.37902" lon="4.43121">
        <ele>93.8</ele>
        <time>2022-06-11T09:30:40Z</time>
      </trkpt>
      <trkpt lat="44.37904" lon="4.43131">
        <ele>93.7</ele>
        <time>2022-06-11T09:30:41Z</time>
      </trkpt>
      <trkpt lat="44.37906" lon="4.43141">
        <ele>93.6</ele>
        <time>2022-06-11T09:30:42Z</time>
      </trkpt>
      <trkpt lat="44.37908" lon="4.43151">
        <ele>93.5</ele>
        <time>2022-06-11T09:30:43Z</time>
      </trkpt>
      <trkpt lat="44.37909" lon="4.4316">
        <ele>93.4</ele>
        <time>2022-06-11T09:30:44Z</time>
      </trkpt>
      <trkpt lat="44.3791" lon="4.4317">
        <ele>93.3</ele>
        <time>2022-06-11T09:30:45Z</time>
      </trkpt>
      <trkpt lat="44.37912" lon="4.4318">
        <ele>93.2</ele>
        <time>2022-06-11T09:30:46Z</time>
      </trkpt>
      <trkpt lat="44.37914" lon="4.43189">
        <ele>93.1</ele>
        <time>2022-06-11T09:30:47Z</time>
      </trkpt>
      <trkpt lat="44.37915" lon="4.43199">
        <ele>93</ele>
        <time>2022-06-11T09:30:48Z</time>
      </trkpt>
      <trkpt lat="44.37917" lon="4.43208">
        <ele>92.9</ele>
        <time>2022-06-11T09:30:49Z</time>
      </trkpt>
      <trkpt lat="44.37919" lon="4.43218">
        <ele>92.8</ele>
        <time>2022-06-11T09:30:50Z</time>
      </trkpt>
      <trkpt lat="44.37919" lon="4.43227">
        <ele>92.7</ele>
        <time>2022-06-11T09:30:51Z</time>
      </trkpt>
      <trkpt lat="44.3792" lon="4.43237">
        <ele>92.6</ele>
        <time>2022-06-11T09:30:52Z</time>
      </trkpt>
      <trkpt lat="44.37921" lon="4.43247">
        <ele>92.5</ele>
        <time>2022-06-11T09:30:53Z</time>
      </trkpt>
      <trkpt lat="44.37923" lon="4.43256">
        <ele>92.4</ele>
        <time>2022-06-11T09:30:54Z</time>
      </trkpt>
      <trkpt lat="44.37924" lon="4.43266">
        <ele>92.3</ele>
        <time>2022-06-11T09:30:55Z</time>
      </trkpt>
      <trkpt lat="44.37925" lon="4.43275">
        <ele>92.2</ele>
        <time>2022-06-11T09:30:56Z</time>
      </trkpt>
      <trkpt lat="44.37926" lon="4.43283">
        <ele>92.1</ele>
        <time>2022-06-11T09:30:57Z</time>
      </trkpt>
      <trkpt lat="44.37928" lon="4.43292">
        <ele>92</ele>
        <time>2022-06-11T09:30:58Z</time>
      </trkpt>
      <trkpt lat="44.37929" lon="4.433">
        <ele>91.9</ele>
        <time>2022-06-11T09:30:59Z</time>
      </trkpt>
      <trkpt lat="44.3793" lon="4.43309">
        <ele>91.8</ele>
        <time>2022-06-11T09:31:00Z</time>
      </trkpt>
      <trkpt lat="44.3793" lon="4.43318">
        <ele>91.7</ele>
        <time>2022-06-11T09:31:01Z</time>
      </trkpt>
      <trkpt lat="44.37931" lon="4.43327">
        <ele>91.6</ele>
        <time>2022-06-11T09:31:02Z</time>
      </trkpt>
      <trkpt lat="44.37932" lon="4.43335">
        <ele>91.5</ele>
        <time>2022-06-11T09:31:03Z</time>
      </trkpt>
      <trkpt lat="44.37932" lon="4.43344">
        <ele>91.4</ele>
        <time>2022-06-11T09:31:04Z</time>
      </trkpt>
      <trkpt lat="44.37933" lon="4.43353">
        <ele>91.3</ele>
        <time>2022-06-11T09:31:05Z</time>
      </trkpt>
      <trkpt lat="44.37933" lon="4.43362">
        <ele>91.2</ele>
        <time>2022-06-11T09:31:06Z</time>
      </trkpt>
      <trkpt lat="44.37933" lon="4.43371">
        <ele>91.2</ele>
        <time>2022-06-11T09:31:07Z</time>
      </trkpt>
      <trkpt lat="44.37933" lon="4.43381">
        <ele>91.1</ele>
        <time>2022-06-11T09:31:08Z</time>
      </trkpt>
      <trkpt lat="44.37934" lon="4.4339">
        <ele>91</ele>
        <time>2022-06-11T09:31:09Z</time>
      </trkpt>
      <trkpt lat="44.37934" lon="4.43399">
        <ele>90.9</ele>
        <time>2022-06-11T09:31:10Z</time>
      </trkpt>
      <trkpt lat="44.37934" lon="4.43409">
        <ele>90.9</ele>
        <time>2022-06-11T09:31:11Z</time>
      </trkpt>
      <trkpt lat="44.37934" lon="4.43418">
        <ele>90.8</ele>
        <time>2022-06-11T09:31:12Z</time>
      </trkpt>
      <trkpt lat="44.37934" lon="4.43428">
        <ele>90.7</ele>
        <time>2022-06-11T09:31:13Z</time>
      </trkpt>
      <trkpt lat="44.37934" lon="4.43438">
        <ele>90.6</ele>
        <time>2022-06-11T09:31:14Z</time>
      </trkpt>
      <trkpt lat="44.37934" lon="4.43447">
        <ele>90.6</ele>
        <time>2022-06-11T09:31:15Z</time>
      </trkpt>
      <trkpt lat="44.37934" lon="4.43456">
        <ele>90.5</ele>
        <time>2022-06-11T09:31:16Z</time>
      </trkpt>
      <trkpt lat="44.37934" lon="4.43466">
        <ele>90.5</ele>
        <time>2022-06-11T09:31:17Z</time>
      </trkpt>
      <trkpt lat="44.37933" lon="4.43475">
        <ele>90.5</ele>
        <time>2022-06-11T09:31:18Z</time>
      </trkpt>
      <trkpt lat="44.37931" lon="4.43484">
        <ele>90.4</ele>
        <time>2022-06-11T09:31:19Z</time>
      </trkpt>
      <trkpt lat="44.37928" lon="4.43492">
        <ele>90.4</ele>
        <time>2022-06-11T09:31:20Z</time>
      </trkpt>
      <trkpt lat="44.37925" lon="4.435">
        <ele>90.4</ele>
        <time>2022-06-11T09:31:21Z</time>
      </trkpt>
      <trkpt lat="44.37922" lon="4.43507">
        <ele>90.3</ele>
        <time>2022-06-11T09:31:22Z</time>
      </trkpt>
      <trkpt lat="44.37918" lon="4.43513">
        <ele>90.3</ele>
        <time>2022-06-11T09:31:23Z</time>
      </trkpt>
      <trkpt lat="44.37915" lon="4.43519">
        <ele>90.3</ele>
        <time>2022-06-11T09:31:24Z</time>
      </trkpt>
      <trkpt lat="44.37913" lon="4.43525">
        <ele>90.3</ele>
        <time>2022-06-11T09:31:25Z</time>
      </trkpt>
      <trkpt lat="44.37911" lon="4.4353">
        <ele>90.4</ele>
        <time>2022-06-11T09:31:26Z</time>
      </trkpt>
      <trkpt lat="44.37908" lon="4.43535">
        <ele>90.6</ele>
        <time>2022-06-11T09:31:27Z</time>
      </trkpt>
      <trkpt lat="44.37905" lon="4.43541">
        <ele>90.7</ele>
        <time>2022-06-11T09:31:28Z</time>
      </trkpt>
      <trkpt lat="44.37903" lon="4.43546">
        <ele>90.8</ele>
        <time>2022-06-11T09:31:29Z</time>
      </trkpt>
      <trkpt lat="44.37901" lon="4.4355">
        <ele>90.9</ele>
        <time>2022-06-11T09:31:30Z</time>
      </trkpt>
      <trkpt lat="44.379" lon="4.43554">
        <ele>91.1</ele>
        <time>2022-06-11T09:31:31Z</time>
      </trkpt>
      <trkpt lat="44.37897" lon="4.43559">
        <ele>91.3</ele>
        <time>2022-06-11T09:31:32Z</time>
      </trkpt>
      <trkpt lat="44.37895" lon="4.43563">
        <ele>91.4</ele>
        <time>2022-06-11T09:31:33Z</time>
      </trkpt>
      <trkpt lat="44.37894" lon="4.43566">
        <ele>91.6</ele>
        <time>2022-06-11T09:31:34Z</time>
      </trkpt>
      <trkpt lat="44.37892" lon="4.43571">
        <ele>91.8</ele>
        <time>2022-06-11T09:31:35Z</time>
      </trkpt>
      <trkpt lat="44.3789" lon="4.43575">
        <ele>92</ele>
        <time>2022-06-11T09:31:36Z</time>
      </trkpt>
      <trkpt lat="44.37889" lon="4.43577">
        <ele>92.1</ele>
        <time>2022-06-11T09:31:37Z</time>
      </trkpt>
      <trkpt lat="44.37889" lon="4.43581">
        <ele>92.3</ele>
        <time>2022-06-11T09:31:38Z</time>
      </trkpt>
      <trkpt lat="44.37888" lon="4.43588">
        <ele>92.7</ele>
        <time>2022-06-11T09:31:39Z</time>
      </trkpt>
      <trkpt lat="44.37888" lon="4.43593">
        <ele>93</ele>
        <time>2022-06-11T09:31:40Z</time>
      </trkpt>
      <trkpt lat="44.37888" lon="4.43595">
        <ele>93.1</ele>
        <time>2022-06-11T09:31:41Z</time>
      </trkpt>
      <trkpt lat="44.37888" lon="4.43599">
        <ele>93</ele>
        <time>2022-06-11T09:31:43Z</time>
      </trkpt>
      <trkpt lat="44.37889" lon="4.43603">
        <ele>93</ele>
        <time>2022-06-11T09:31:44Z</time>
      </trkpt>
      <trkpt lat="44.3789" lon="4.43607">
        <ele>93.1</ele>
        <time>2022-06-11T09:31:45Z</time>
      </trkpt>
      <trkpt lat="44.37891" lon="4.43612">
        <ele>93.4</ele>
        <time>2022-06-11T09:31:47Z</time>
      </trkpt>
      <trkpt lat="44.37892" lon="4.43614">
        <ele>93.5</ele>
        <time>2022-06-11T09:31:48Z</time>
      </trkpt>
      <trkpt lat="44.37894" lon="4.43618">
        <ele>93.7</ele>
        <time>2022-06-11T09:31:49Z</time>
      </trkpt>
      <trkpt lat="44.37895" lon="4.43619">
        <ele>93.8</ele>
        <time>2022-06-11T09:31:50Z</time>
      </trkpt>
      <trkpt lat="44.37897" lon="4.43623">
        <ele>94.1</ele>
        <time>2022-06-11T09:31:52Z</time>
      </trkpt>
      <trkpt lat="44.37899" lon="4.43627">
        <ele>94.4</ele>
        <time>2022-06-11T09:31:53Z</time>
      </trkpt>
      <trkpt lat="44.37901" lon="4.43629">
        <ele>94.6</ele>
        <time>2022-06-11T09:31:55Z</time>
      </trkpt>
      <trkpt lat="44.37902" lon="4.43631">
        <ele>94.7</ele>
        <time>2022-06-11T09:31:56Z</time>
      </trkpt>
      <trkpt lat="44.37904" lon="4.43633">
        <ele>94.9</ele>
        <time>2022-06-11T09:31:57Z</time>
      </trkpt>
      <trkpt lat="44.37905" lon="4.43634">
        <ele>95</ele>
        <time>2022-06-11T09:31:58Z</time>
      </trkpt>
      <trkpt lat="44.37907" lon="4.43636">
        <ele>95.2</ele>
        <time>2022-06-11T09:31:59Z</time>
      </trkpt>
      <trkpt lat="44.37909" lon="4.43639">
        <ele>95.4</ele>
        <time>2022-06-11T09:32:01Z</time>
      </trkpt>
      <trkpt lat="44.37911" lon="4.43643">
        <ele>95.7</ele>
        <time>2022-06-11T09:32:02Z</time>
      </trkpt>
      <trkpt lat="44.37913" lon="4.43644">
        <ele>95.9</ele>
        <time>2022-06-11T09:32:03Z</time>
      </trkpt>
      <trkpt lat="44.37914" lon="4.43647">
        <ele>96</ele>
        <time>2022-06-11T09:32:04Z</time>
      </trkpt>
      <trkpt lat="44.37916" lon="4.43649">
        <ele>96.2</ele>
        <time>2022-06-11T09:32:06Z</time>
      </trkpt>
      <trkpt lat="44.37918" lon="4.43652">
        <ele>96.5</ele>
        <time>2022-06-11T09:32:07Z</time>
      </trkpt>
      <trkpt lat="44.37919" lon="4.43653">
        <ele>96.6</ele>
        <time>2022-06-11T09:32:08Z</time>
      </trkpt>
      <trkpt lat="44.37922" lon="4.43656">
        <ele>96.9</ele>
        <time>2022-06-11T09:32:10Z</time>
      </trkpt>
      <trkpt lat="44.37923" lon="4.43657">
        <ele>97</ele>
        <time>2022-06-11T09:32:11Z</time>
      </trkpt>
      <trkpt lat="44.37925" lon="4.4366">
        <ele>97.2</ele>
        <time>2022-06-11T09:32:12Z</time>
      </trkpt>
      <trkpt lat="44.37925" lon="4.43661">
        <ele>97.3</ele>
        <time>2022-06-11T09:32:13Z</time>
      </trkpt>
      <trkpt lat="44.37928" lon="4.43665">
        <ele>97.7</ele>
        <time>2022-06-11T09:32:14Z</time>
      </trkpt>
      <trkpt lat="44.37929" lon="4.43667">
        <ele>97.8</ele>
        <time>2022-06-11T09:32:15Z</time>
      </trkpt>
      <trkpt lat="44.37931" lon="4.43668">
        <ele>98</ele>
        <time>2022-06-11T09:32:17Z</time>
      </trkpt>
      <trkpt lat="44.37933" lon="4.43671">
        <ele>98.2</ele>
        <time>2022-06-11T09:32:18Z</time>
      </trkpt>
      <trkpt lat="44.37934" lon="4.43672">
        <ele>98.3</ele>
        <time>2022-06-11T09:32:19Z</time>
      </trkpt>
      <trkpt lat="44.37936" lon="4.43675">
        <ele>98.6</ele>
        <time>2022-06-11T09:32:20Z</time>
      </trkpt>
      <trkpt lat="44.37936" lon="4.43676">
        <ele>98.7</ele>
        <time>2022-06-11T09:32:21Z</time>
      </trkpt>
      <trkpt lat="44.37938" lon="4.43678">
        <ele>98.9</ele>
        <time>2022-06-11T09:32:22Z</time>
      </trkpt>
      <trkpt lat="44.37939" lon="4.43679">
        <ele>99</ele>
        <time>2022-06-11T09:32:23Z</time>
      </trkpt>
      <trkpt lat="44.3794" lon="4.4368">
        <ele>99.2</ele>
        <time>2022-06-11T09:32:24Z</time>
      </trkpt>
      <trkpt lat="44.37942" lon="4.43683">
        <ele>99.4</ele>
        <time>2022-06-11T09:32:25Z</time>
      </trkpt>
      <trkpt lat="44.37943" lon="4.43684">
        <ele>99.5</ele>
        <time>2022-06-11T09:32:26Z</time>
      </trkpt>
      <trkpt lat="44.37944" lon="4.43686">
        <ele>99.7</ele>
        <time>2022-06-11T09:32:27Z</time>
      </trkpt>
      <trkpt lat="44.37946" lon="4.43688">
        <ele>99.9</ele>
        <time>2022-06-11T09:32:28Z</time>
      </trkpt>
      <trkpt lat="44.37947" lon="4.43689">
        <ele>100</ele>
        <time>2022-06-11T09:32:29Z</time>
      </trkpt>
      <trkpt lat="44.37948" lon="4.4369">
        <ele>100.2</ele>
        <time>2022-06-11T09:32:31Z</time>
      </trkpt>
      <trkpt lat="44.37949" lon="4.43691">
        <ele>100.3</ele>
        <time>2022-06-11T09:32:32Z</time>
      </trkpt>
      <trkpt lat="44.3795" lon="4.43693">
        <ele>100.5</ele>
        <time>2022-06-11T09:32:33Z</time>
      </trkpt>
      <trkpt lat="44.37951" lon="4.43695">
        <ele>100.6</ele>
        <time>2022-06-11T09:32:34Z</time>
      </trkpt>
      <trkpt lat="44.37952" lon="4.43696">
        <ele>100.8</ele>
        <time>2022-06-11T09:32:35Z</time>
      </trkpt>
      <trkpt lat="44.37954" lon="4.43698">
        <ele>101</ele>
        <time>2022-06-11T09:32:36Z</time>
      </trkpt>
      <trkpt lat="44.37955" lon="4.43699">
        <ele>101.1</ele>
        <time>2022-06-11T09:32:37Z</time>
      </trkpt>
      <trkpt lat="44.37956" lon="4.437">
        <ele>101.3</ele>
        <time>2022-06-11T09:32:38Z</time>
      </trkpt>
      <trkpt lat="44.37957" lon="4.43701">
        <ele>101.4</ele>
        <time>2022-06-11T09:32:39Z</time>
      </trkpt>
      <trkpt lat="44.37958" lon="4.43703">
        <ele>101.5</ele>
        <time>2022-06-11T09:32:40Z</time>
      </trkpt>
      <trkpt lat="44.37959" lon="4.43704">
        <ele>101.7</ele>
        <time>2022-06-11T09:32:41Z</time>
      </trkpt>
      <trkpt lat="44.3796" lon="4.43705">
        <ele>101.9</ele>
        <time>2022-06-11T09:32:42Z</time>
      </trkpt>
      <trkpt lat="44.37962" lon="4.43708">
        <ele>102.2</ele>
        <time>2022-06-11T09:32:43Z</time>
      </trkpt>
      <trkpt lat="44.37963" lon="4.4371">
        <ele>102.3</ele>
        <time>2022-06-11T09:32:45Z</time>
      </trkpt>
      <trkpt lat="44.37964" lon="4.43711">
        <ele>102.4</ele>
        <time>2022-06-11T09:32:46Z</time>
      </trkpt>
      <trkpt lat="44.37966" lon="4.43712">
        <ele>102.6</ele>
        <time>2022-06-11T09:32:47Z</time>
      </trkpt>
      <trkpt lat="44.37967" lon="4.43713">
        <ele>102.7</ele>
        <time>2022-06-11T09:32:48Z</time>
      </trkpt>
      <trkpt lat="44.37969" lon="4.43716">
        <ele>103</ele>
        <time>2022-06-11T09:32:49Z</time>
      </trkpt>
      <trkpt lat="44.37971" lon="4.43719">
        <ele>103.3</ele>
        <time>2022-06-11T09:32:51Z</time>
      </trkpt>
      <trkpt lat="44.37972" lon="4.43719">
        <ele>103.4</ele>
        <time>2022-06-11T09:32:52Z</time>
      </trkpt>
      <trkpt lat="44.37973" lon="4.43721">
        <ele>103.6</ele>
        <time>2022-06-11T09:32:53Z</time>
      </trkpt>
      <trkpt lat="44.37974" lon="4.43722">
        <ele>103.7</ele>
        <time>2022-06-11T09:32:54Z</time>
      </trkpt>
      <trkpt lat="44.37975" lon="4.43724">
        <ele>103.9</ele>
        <time>2022-06-11T09:32:55Z</time>
      </trkpt>
      <trkpt lat="44.37976" lon="4.43725">
        <ele>104.1</ele>
        <time>2022-06-11T09:32:56Z</time>
      </trkpt>
      <trkpt lat="44.37978" lon="4.43726">
        <ele>104.2</ele>
        <time>2022-06-11T09:32:57Z</time>
      </trkpt>
      <trkpt lat="44.37979" lon="4.43728">
        <ele>104.4</ele>
        <time>2022-06-11T09:32:58Z</time>
      </trkpt>
      <trkpt lat="44.3798" lon="4.43729">
        <ele>104.5</ele>
        <time>2022-06-11T09:32:59Z</time>
      </trkpt>
      <trkpt lat="44.37981" lon="4.43731">
        <ele>104.7</ele>
        <time>2022-06-11T09:33:00Z</time>
      </trkpt>
      <trkpt lat="44.37982" lon="4.43733">
        <ele>104.9</ele>
        <time>2022-06-11T09:33:01Z</time>
      </trkpt>
      <trkpt lat="44.37983" lon="4.43734">
        <ele>105</ele>
        <time>2022-06-11T09:33:02Z</time>
      </trkpt>
      <trkpt lat="44.37984" lon="4.43735">
        <ele>105.1</ele>
        <time>2022-06-11T09:33:03Z</time>
      </trkpt>
      <trkpt lat="44.37985" lon="4.43736">
        <ele>105.2</ele>
        <time>2022-06-11T09:33:04Z</time>
      </trkpt>
      <trkpt lat="44.37986" lon="4.43738">
        <ele>105.4</ele>
        <time>2022-06-11T09:33:05Z</time>
      </trkpt>
      <trkpt lat="44.37988" lon="4.43741">
        <ele>105.7</ele>
        <time>2022-06-11T09:33:06Z</time>
      </trkpt>
      <trkpt lat="44.37989" lon="4.43742">
        <ele>105.8</ele>
        <time>2022-06-11T09:33:07Z</time>
      </trkpt>
      <trkpt lat="44.3799" lon="4.43743">
        <ele>105.9</ele>
        <time>2022-06-11T09:33:08Z</time>
      </trkpt>
      <trkpt lat="44.37991" lon="4.43745">
        <ele>106.1</ele>
        <time>2022-06-11T09:33:09Z</time>
      </trkpt>
      <trkpt lat="44.37992" lon="4.43746">
        <ele>106.2</ele>
        <time>2022-06-11T09:33:11Z</time>
      </trkpt>
      <trkpt lat="44.37993" lon="4.43747">
        <ele>106.4</ele>
        <time>2022-06-11T09:33:12Z</time>
      </trkpt>
      <trkpt lat="44.37994" lon="4.43748">
        <ele>106.5</ele>
        <time>2022-06-11T09:33:13Z</time>
      </trkpt>
      <trkpt lat="44.37995" lon="4.43749">
        <ele>106.7</ele>
        <time>2022-06-11T09:33:14Z</time>
      </trkpt>
      <trkpt lat="44.37997" lon="4.4375">
        <ele>106.8</ele>
        <time>2022-06-11T09:33:15Z</time>
      </trkpt>
      <trkpt lat="44.37998" lon="4.43751">
        <ele>107</ele>
        <time>2022-06-11T09:33:16Z</time>
      </trkpt>
      <trkpt lat="44.37999" lon="4.43753">
        <ele>107.1</ele>
        <time>2022-06-11T09:33:17Z</time>
      </trkpt>
      <trkpt lat="44.38" lon="4.43755">
        <ele>107.3</ele>
        <time>2022-06-11T09:33:18Z</time>
      </trkpt>
      <trkpt lat="44.38002" lon="4.43757">
        <ele>107.6</ele>
        <time>2022-06-11T09:33:19Z</time>
      </trkpt>
      <trkpt lat="44.38003" lon="4.43757">
        <ele>107.7</ele>
        <time>2022-06-11T09:33:21Z</time>
      </trkpt>
      <trkpt lat="44.38005" lon="4.43758">
        <ele>107.9</ele>
        <time>2022-06-11T09:33:22Z</time>
      </trkpt>
      <trkpt lat="44.38006" lon="4.4376">
        <ele>108.1</ele>
        <time>2022-06-11T09:33:23Z</time>
      </trkpt>
      <trkpt lat="44.38007" lon="4.43761">
        <ele>108.2</ele>
        <time>2022-06-11T09:33:24Z</time>
      </trkpt>
      <trkpt lat="44.38009" lon="4.43762">
        <ele>108.4</ele>
        <time>2022-06-11T09:33:25Z</time>
      </trkpt>
      <trkpt lat="44.3801" lon="4.43764">
        <ele>108.6</ele>
        <time>2022-06-11T09:33:26Z</time>
      </trkpt>
      <trkpt lat="44.38011" lon="4.43765">
        <ele>108.8</ele>
        <time>2022-06-11T09:33:27Z</time>
      </trkpt>
      <trkpt lat="44.38012" lon="4.43766">
        <ele>108.9</ele>
        <time>2022-06-11T09:33:28Z</time>
      </trkpt>
      <trkpt lat="44.38013" lon="4.43767">
        <ele>109</ele>
        <time>2022-06-11T09:33:29Z</time>
      </trkpt>
      <trkpt lat="44.38014" lon="4.43768">
        <ele>109.2</ele>
        <time>2022-06-11T09:33:30Z</time>
      </trkpt>
      <trkpt lat="44.38016" lon="4.4377">
        <ele>109.4</ele>
        <time>2022-06-11T09:33:31Z</time>
      </trkpt>
      <trkpt lat="44.38016" lon="4.43771">
        <ele>109.5</ele>
        <time>2022-06-11T09:33:32Z</time>
      </trkpt>
      <trkpt lat="44.38017" lon="4.43772">
        <ele>109.6</ele>
        <time>2022-06-11T09:33:33Z</time>
      </trkpt>
      <trkpt lat="44.38018" lon="4.43772">
        <ele>109.7</ele>
        <time>2022-06-11T09:33:34Z</time>
      </trkpt>
      <trkpt lat="44.38021" lon="4.43772">
        <ele>110.1</ele>
        <time>2022-06-11T09:33:36Z</time>
      </trkpt>
      <trkpt lat="44.38023" lon="4.43773">
        <ele>110.3</ele>
        <time>2022-06-11T09:33:37Z</time>
      </trkpt>
      <trkpt lat="44.38024" lon="4.43774">
        <ele>110.4</ele>
        <time>2022-06-11T09:33:38Z</time>
      </trkpt>
      <trkpt lat="44.38025" lon="4.43775">
        <ele>110.5</ele>
        <time>2022-06-11T09:33:39Z</time>
      </trkpt>
      <trkpt lat="44.38027" lon="4.43777">
        <ele>110.8</ele>
        <time>2022-06-11T09:33:40Z</time>
      </trkpt>
      <trkpt lat="44.38029" lon="4.43778">
        <ele>111</ele>
        <time>2022-06-11T09:33:42Z</time>
      </trkpt>
      <trkpt lat="44.38031" lon="4.43782">
        <ele>111.3</ele>
        <time>2022-06-11T09:33:44Z</time>
      </trkpt>
      <trkpt lat="44.38032" lon="4.43783">
        <ele>111.5</ele>
        <time>2022-06-11T09:33:45Z</time>
      </trkpt>
      <trkpt lat="44.38034" lon="4.43785">
        <ele>111.8</ele>
        <time>2022-06-11T09:33:47Z</time>
      </trkpt>
      <trkpt lat="44.38036" lon="4.43787">
        <ele>112.1</ele>
        <time>2022-06-11T09:33:48Z</time>
      </trkpt>
      <trkpt lat="44.38037" lon="4.43788">
        <ele>112.2</ele>
        <time>2022-06-11T09:33:50Z</time>
      </trkpt>
      <trkpt lat="44.38038" lon="4.4379">
        <ele>112.3</ele>
        <time>2022-06-11T09:33:51Z</time>
      </trkpt>
      <trkpt lat="44.38039" lon="4.43792">
        <ele>112.5</ele>
        <time>2022-06-11T09:33:52Z</time>
      </trkpt>
      <trkpt lat="44.3804" lon="4.43793">
        <ele>112.7</ele>
        <time>2022-06-11T09:33:53Z</time>
      </trkpt>
      <trkpt lat="44.38041" lon="4.43795">
        <ele>112.8</ele>
        <time>2022-06-11T09:33:54Z</time>
      </trkpt>
      <trkpt lat="44.38042" lon="4.43797">
        <ele>113.1</ele>
        <time>2022-06-11T09:33:55Z</time>
      </trkpt>
      <trkpt lat="44.38043" lon="4.43798">
        <ele>113.2</ele>
        <time>2022-06-11T09:33:56Z</time>
      </trkpt>
      <trkpt lat="44.38044" lon="4.43799">
        <ele>113.2</ele>
        <time>2022-06-11T09:33:57Z</time>
      </trkpt>
      <trkpt lat="44.38045" lon="4.438">
        <ele>113.4</ele>
        <time>2022-06-11T09:33:58Z</time>
      </trkpt>
      <trkpt lat="44.38046" lon="4.43802">
        <ele>113.6</ele>
        <time>2022-06-11T09:33:59Z</time>
      </trkpt>
      <trkpt lat="44.38047" lon="4.43803">
        <ele>113.7</ele>
        <time>2022-06-11T09:34:00Z</time>
      </trkpt>
      <trkpt lat="44.38048" lon="4.43805">
        <ele>113.9</ele>
        <time>2022-06-11T09:34:01Z</time>
      </trkpt>
      <trkpt lat="44.3805" lon="4.43806">
        <ele>114.1</ele>
        <time>2022-06-11T09:34:02Z</time>
      </trkpt>
      <trkpt lat="44.3805" lon="4.43807">
        <ele>114.2</ele>
        <time>2022-06-11T09:34:03Z</time>
      </trkpt>
      <trkpt lat="44.38051" lon="4.43808">
        <ele>114.3</ele>
        <time>2022-06-11T09:34:04Z</time>
      </trkpt>
      <trkpt lat="44.38052" lon="4.4381">
        <ele>114.5</ele>
        <time>2022-06-11T09:34:05Z</time>
      </trkpt>
      <trkpt lat="44.38052" lon="4.43811">
        <ele>114.6</ele>
        <time>2022-06-11T09:34:06Z</time>
      </trkpt>
      <trkpt lat="44.38053" lon="4.43812">
        <ele>114.7</ele>
        <time>2022-06-11T09:34:07Z</time>
      </trkpt>
      <trkpt lat="44.38055" lon="4.43813">
        <ele>114.9</ele>
        <time>2022-06-11T09:34:08Z</time>
      </trkpt>
      <trkpt lat="44.38056" lon="4.43814">
        <ele>115.1</ele>
        <time>2022-06-11T09:34:09Z</time>
      </trkpt>
      <trkpt lat="44.38058" lon="4.43817">
        <ele>115.3</ele>
        <time>2022-06-11T09:34:10Z</time>
      </trkpt>
      <trkpt lat="44.3806" lon="4.43819">
        <ele>115.7</ele>
        <time>2022-06-11T09:34:12Z</time>
      </trkpt>
      <trkpt lat="44.38062" lon="4.43821">
        <ele>115.8</ele>
        <time>2022-06-11T09:34:14Z</time>
      </trkpt>
      <trkpt lat="44.38063" lon="4.43822">
        <ele>116</ele>
        <time>2022-06-11T09:34:15Z</time>
      </trkpt>
      <trkpt lat="44.38064" lon="4.43823">
        <ele>116.2</ele>
        <time>2022-06-11T09:34:16Z</time>
      </trkpt>
      <trkpt lat="44.38065" lon="4.43825">
        <ele>116.4</ele>
        <time>2022-06-11T09:34:17Z</time>
      </trkpt>
      <trkpt lat="44.38066" lon="4.43827">
        <ele>116.6</ele>
        <time>2022-06-11T09:34:18Z</time>
      </trkpt>
      <trkpt lat="44.38068" lon="4.43828">
        <ele>116.7</ele>
        <time>2022-06-11T09:34:19Z</time>
      </trkpt>
      <trkpt lat="44.38069" lon="4.4383">
        <ele>116.9</ele>
        <time>2022-06-11T09:34:20Z</time>
      </trkpt>
      <trkpt lat="44.3807" lon="4.43832">
        <ele>117.2</ele>
        <time>2022-06-11T09:34:21Z</time>
      </trkpt>
      <trkpt lat="44.38071" lon="4.43833">
        <ele>117.3</ele>
        <time>2022-06-11T09:34:22Z</time>
      </trkpt>
      <trkpt lat="44.38072" lon="4.43833">
        <ele>117.4</ele>
        <time>2022-06-11T09:34:23Z</time>
      </trkpt>
      <trkpt lat="44.38073" lon="4.43834">
        <ele>117.5</ele>
        <time>2022-06-11T09:34:24Z</time>
      </trkpt>
      <trkpt lat="44.38074" lon="4.43836">
        <ele>117.7</ele>
        <time>2022-06-11T09:34:25Z</time>
      </trkpt>
      <trkpt lat="44.38076" lon="4.43836">
        <ele>117.8</ele>
        <time>2022-06-11T09:34:26Z</time>
      </trkpt>
      <trkpt lat="44.38078" lon="4.43839">
        <ele>118.2</ele>
        <time>2022-06-11T09:34:27Z</time>
      </trkpt>
      <trkpt lat="44.38079" lon="4.43839">
        <ele>118.3</ele>
        <time>2022-06-11T09:34:29Z</time>
      </trkpt>
      <trkpt lat="44.38081" lon="4.43842">
        <ele>118.6</ele>
        <time>2022-06-11T09:34:30Z</time>
      </trkpt>
      <trkpt lat="44.38083" lon="4.43845">
        <ele>118.9</ele>
        <time>2022-06-11T09:34:31Z</time>
      </trkpt>
      <trkpt lat="44.38084" lon="4.43846">
        <ele>119</ele>
        <time>2022-06-11T09:34:34Z</time>
      </trkpt>
      <trkpt lat="44.38085" lon="4.43847">
        <ele>119.2</ele>
        <time>2022-06-11T09:34:35Z</time>
      </trkpt>
      <trkpt lat="44.38086" lon="4.43848">
        <ele>119.3</ele>
        <time>2022-06-11T09:34:36Z</time>
      </trkpt>
      <trkpt lat="44.38087" lon="4.43849">
        <ele>119.5</ele>
        <time>2022-06-11T09:34:37Z</time>
      </trkpt>
      <trkpt lat="44.38089" lon="4.43852">
        <ele>119.8</ele>
        <time>2022-06-11T09:34:38Z</time>
      </trkpt>
      <trkpt lat="44.3809" lon="4.43853">
        <ele>119.9</ele>
        <time>2022-06-11T09:34:39Z</time>
      </trkpt>
      <trkpt lat="44.38091" lon="4.43855">
        <ele>120.1</ele>
        <time>2022-06-11T09:34:41Z</time>
      </trkpt>
      <trkpt lat="44.38092" lon="4.43856">
        <ele>120.2</ele>
        <time>2022-06-11T09:34:42Z</time>
      </trkpt>
      <trkpt lat="44.38094" lon="4.43859">
        <ele>120.5</ele>
        <time>2022-06-11T09:34:43Z</time>
      </trkpt>
      <trkpt lat="44.38094" lon="4.4386">
        <ele>120.6</ele>
        <time>2022-06-11T09:34:44Z</time>
      </trkpt>
      <trkpt lat="44.38095" lon="4.43861">
        <ele>120.7</ele>
        <time>2022-06-11T09:34:45Z</time>
      </trkpt>
      <trkpt lat="44.38096" lon="4.43862">
        <ele>120.8</ele>
        <time>2022-06-11T09:34:46Z</time>
      </trkpt>
      <trkpt lat="44.38097" lon="4.43864">
        <ele>121</ele>
        <time>2022-06-11T09:34:47Z</time>
      </trkpt>
      <trkpt lat="44.38098" lon="4.43865">
        <ele>121.1</ele>
        <time>2022-06-11T09:34:48Z</time>
      </trkpt>
      <trkpt lat="44.381" lon="4.43868">
        <ele>121.5</ele>
        <time>2022-06-11T09:34:50Z</time>
      </trkpt>
      <trkpt lat="44.38102" lon="4.4387">
        <ele>121.7</ele>
        <time>2022-06-11T09:34:51Z</time>
      </trkpt>
      <trkpt lat="44.38102" lon="4.43871">
        <ele>121.8</ele>
        <time>2022-06-11T09:34:52Z</time>
      </trkpt>
      <trkpt lat="44.38103" lon="4.43872">
        <ele>121.9</ele>
        <time>2022-06-11T09:34:53Z</time>
      </trkpt>
      <trkpt lat="44.38104" lon="4.43873">
        <ele>122.1</ele>
        <time>2022-06-11T09:34:54Z</time>
      </trkpt>
      <trkpt lat="44.38105" lon="4.43875">
        <ele>122.2</ele>
        <time>2022-06-11T09:34:55Z</time>
      </trkpt>
      <trkpt lat="44.38107" lon="4.43877">
        <ele>122.5</ele>
        <time>2022-06-11T09:34:56Z</time>
      </trkpt>
      <trkpt lat="44.38108" lon="4.43879">
        <ele>122.6</ele>
        <time>2022-06-11T09:34:58Z</time>
      </trkpt>
      <trkpt lat="44.3811" lon="4.43882">
        <ele>123</ele>
        <time>2022-06-11T09:34:59Z</time>
      </trkpt>
      <trkpt lat="44.38111" lon="4.43883">
        <ele>123.1</ele>
        <time>2022-06-11T09:35:00Z</time>
      </trkpt>
      <trkpt lat="44.38111" lon="4.43885">
        <ele>123.2</ele>
        <time>2022-06-11T09:35:01Z</time>
      </trkpt>
      <trkpt lat="44.38113" lon="4.43886">
        <ele>123.4</ele>
        <time>2022-06-11T09:35:03Z</time>
      </trkpt>
      <trkpt lat="44.38113" lon="4.43888">
        <ele>123.5</ele>
        <time>2022-06-11T09:35:04Z</time>
      </trkpt>
      <trkpt lat="44.38114" lon="4.43889">
        <ele>123.7</ele>
        <time>2022-06-11T09:35:05Z</time>
      </trkpt>
      <trkpt lat="44.38115" lon="4.43891">
        <ele>123.9</ele>
        <time>2022-06-11T09:35:06Z</time>
      </trkpt>
      <trkpt lat="44.38115" lon="4.43893">
        <ele>124</ele>
        <time>2022-06-11T09:35:07Z</time>
      </trkpt>
      <trkpt lat="44.38117" lon="4.43894">
        <ele>124.2</ele>
        <time>2022-06-11T09:35:08Z</time>
      </trkpt>
      <trkpt lat="44.38118" lon="4.43896">
        <ele>124.3</ele>
        <time>2022-06-11T09:35:09Z</time>
      </trkpt>
      <trkpt lat="44.38121" lon="4.43899">
        <ele>124.7</ele>
        <time>2022-06-11T09:35:10Z</time>
      </trkpt>
      <trkpt lat="44.38123" lon="4.439">
        <ele>125</ele>
        <time>2022-06-11T09:35:12Z</time>
      </trkpt>
      <trkpt lat="44.38124" lon="4.43901">
        <ele>125.1</ele>
        <time>2022-06-11T09:35:13Z</time>
      </trkpt>
      <trkpt lat="44.38125" lon="4.43902">
        <ele>125.3</ele>
        <time>2022-06-11T09:35:14Z</time>
      </trkpt>
      <trkpt lat="44.38127" lon="4.43903">
        <ele>125.4</ele>
        <time>2022-06-11T09:35:15Z</time>
      </trkpt>
      <trkpt lat="44.38128" lon="4.43904">
        <ele>125.6</ele>
        <time>2022-06-11T09:35:16Z</time>
      </trkpt>
      <trkpt lat="44.3813" lon="4.43906">
        <ele>125.8</ele>
        <time>2022-06-11T09:35:17Z</time>
      </trkpt>
      <trkpt lat="44.3813" lon="4.43907">
        <ele>125.9</ele>
        <time>2022-06-11T09:35:18Z</time>
      </trkpt>
      <trkpt lat="44.38131" lon="4.43909">
        <ele>126.1</ele>
        <time>2022-06-11T09:35:19Z</time>
      </trkpt>
      <trkpt lat="44.38132" lon="4.43911">
        <ele>126.2</ele>
        <time>2022-06-11T09:35:20Z</time>
      </trkpt>
      <trkpt lat="44.38133" lon="4.43912">
        <ele>126.4</ele>
        <time>2022-06-11T09:35:21Z</time>
      </trkpt>
      <trkpt lat="44.38134" lon="4.43914">
        <ele>126.6</ele>
        <time>2022-06-11T09:35:22Z</time>
      </trkpt>
      <trkpt lat="44.38136" lon="4.43915">
        <ele>126.8</ele>
        <time>2022-06-11T09:35:23Z</time>
      </trkpt>
      <trkpt lat="44.38137" lon="4.43916">
        <ele>126.9</ele>
        <time>2022-06-11T09:35:24Z</time>
      </trkpt>
      <trkpt lat="44.38138" lon="4.43917">
        <ele>127.1</ele>
        <time>2022-06-11T09:35:25Z</time>
      </trkpt>
      <trkpt lat="44.38139" lon="4.43919">
        <ele>127.3</ele>
        <time>2022-06-11T09:35:26Z</time>
      </trkpt>
      <trkpt lat="44.3814" lon="4.4392">
        <ele>127.4</ele>
        <time>2022-06-11T09:35:27Z</time>
      </trkpt>
      <trkpt lat="44.38142" lon="4.43922">
        <ele>127.6</ele>
        <time>2022-06-11T09:35:28Z</time>
      </trkpt>
      <trkpt lat="44.38143" lon="4.43923">
        <ele>127.7</ele>
        <time>2022-06-11T09:35:29Z</time>
      </trkpt>
      <trkpt lat="44.38143" lon="4.43923">
        <ele>127.8</ele>
        <time>2022-06-11T09:35:30Z</time>
      </trkpt>
      <trkpt lat="44.38144" lon="4.43926">
        <ele>128</ele>
        <time>2022-06-11T09:35:31Z</time>
      </trkpt>
      <trkpt lat="44.38145" lon="4.43927">
        <ele>128.1</ele>
        <time>2022-06-11T09:35:32Z</time>
      </trkpt>
      <trkpt lat="44.38145" lon="4.43928">
        <ele>128.2</ele>
        <time>2022-06-11T09:35:33Z</time>
      </trkpt>
      <trkpt lat="44.38146" lon="4.43929">
        <ele>128.4</ele>
        <time>2022-06-11T09:35:34Z</time>
      </trkpt>
      <trkpt lat="44.38147" lon="4.4393">
        <ele>128.5</ele>
        <time>2022-06-11T09:35:35Z</time>
      </trkpt>
      <trkpt lat="44.38147" lon="4.43931">
        <ele>128.6</ele>
        <time>2022-06-11T09:35:36Z</time>
      </trkpt>
      <trkpt lat="44.38147" lon="4.43933">
        <ele>128.7</ele>
        <time>2022-06-11T09:35:37Z</time>
      </trkpt>
      <trkpt lat="44.38148" lon="4.43934">
        <ele>128.8</ele>
        <time>2022-06-11T09:35:38Z</time>
      </trkpt>
      <trkpt lat="44.38149" lon="4.43936">
        <ele>129</ele>
        <time>2022-06-11T09:35:39Z</time>
      </trkpt>
      <trkpt lat="44.3815" lon="4.43938">
        <ele>129.2</ele>
        <time>2022-06-11T09:35:40Z</time>
      </trkpt>
      <trkpt lat="44.3815" lon="4.43939">
        <ele>129.3</ele>
        <time>2022-06-11T09:35:41Z</time>
      </trkpt>
      <trkpt lat="44.3815" lon="4.4394">
        <ele>129.4</ele>
        <time>2022-06-11T09:35:42Z</time>
      </trkpt>
      <trkpt lat="44.38151" lon="4.43943">
        <ele>129.6</ele>
        <time>2022-06-11T09:35:43Z</time>
      </trkpt>
      <trkpt lat="44.38152" lon="4.43944">
        <ele>129.7</ele>
        <time>2022-06-11T09:35:44Z</time>
      </trkpt>
      <trkpt lat="44.38152" lon="4.43945">
        <ele>129.8</ele>
        <time>2022-06-11T09:35:45Z</time>
      </trkpt>
      <trkpt lat="44.38154" lon="4.43948">
        <ele>130.1</ele>
        <time>2022-06-11T09:35:46Z</time>
      </trkpt>
      <trkpt lat="44.38155" lon="4.43949">
        <ele>130.2</ele>
        <time>2022-06-11T09:35:47Z</time>
      </trkpt>
      <trkpt lat="44.38157" lon="4.43951">
        <ele>130.5</ele>
        <time>2022-06-11T09:35:48Z</time>
      </trkpt>
      <trkpt lat="44.38157" lon="4.43952">
        <ele>130.6</ele>
        <time>2022-06-11T09:35:50Z</time>
      </trkpt>
      <trkpt lat="44.38158" lon="4.43953">
        <ele>130.7</ele>
        <time>2022-06-11T09:35:51Z</time>
      </trkpt>
      <trkpt lat="44.38159" lon="4.43955">
        <ele>130.8</ele>
        <time>2022-06-11T09:35:52Z</time>
      </trkpt>
      <trkpt lat="44.3816" lon="4.43956">
        <ele>130.9</ele>
        <time>2022-06-11T09:35:53Z</time>
      </trkpt>
      <trkpt lat="44.38161" lon="4.43957">
        <ele>131.1</ele>
        <time>2022-06-11T09:35:54Z</time>
      </trkpt>
      <trkpt lat="44.38162" lon="4.43959">
        <ele>131.3</ele>
        <time>2022-06-11T09:35:55Z</time>
      </trkpt>
      <trkpt lat="44.38163" lon="4.43961">
        <ele>131.5</ele>
        <time>2022-06-11T09:35:56Z</time>
      </trkpt>
      <trkpt lat="44.38164" lon="4.43962">
        <ele>131.6</ele>
        <time>2022-06-11T09:35:57Z</time>
      </trkpt>
      <trkpt lat="44.38165" lon="4.43965">
        <ele>131.9</ele>
        <time>2022-06-11T09:35:58Z</time>
      </trkpt>
      <trkpt lat="44.38166" lon="4.43966">
        <ele>132</ele>
        <time>2022-06-11T09:35:59Z</time>
      </trkpt>
      <trkpt lat="44.38167" lon="4.43968">
        <ele>132.2</ele>
        <time>2022-06-11T09:36:01Z</time>
      </trkpt>
      <trkpt lat="44.38168" lon="4.43971">
        <ele>132.5</ele>
        <time>2022-06-11T09:36:03Z</time>
      </trkpt>
      <trkpt lat="44.3817" lon="4.43972">
        <ele>132.7</ele>
        <time>2022-06-11T09:36:04Z</time>
      </trkpt>
      <trkpt lat="44.38171" lon="4.43974">
        <ele>132.8</ele>
        <time>2022-06-11T09:36:05Z</time>
      </trkpt>
      <trkpt lat="44.38172" lon="4.43976">
        <ele>133</ele>
        <time>2022-06-11T09:36:06Z</time>
      </trkpt>
      <trkpt lat="44.38173" lon="4.43978">
        <ele>133.2</ele>
        <time>2022-06-11T09:36:07Z</time>
      </trkpt>
      <trkpt lat="44.38174" lon="4.4398">
        <ele>133.4</ele>
        <time>2022-06-11T09:36:08Z</time>
      </trkpt>
      <trkpt lat="44.38175" lon="4.43981">
        <ele>133.6</ele>
        <time>2022-06-11T09:36:09Z</time>
      </trkpt>
      <trkpt lat="44.38176" lon="4.43983">
        <ele>133.7</ele>
        <time>2022-06-11T09:36:10Z</time>
      </trkpt>
      <trkpt lat="44.38177" lon="4.43984">
        <ele>133.9</ele>
        <time>2022-06-11T09:36:11Z</time>
      </trkpt>
      <trkpt lat="44.38178" lon="4.43985">
        <ele>134.1</ele>
        <time>2022-06-11T09:36:12Z</time>
      </trkpt>
      <trkpt lat="44.38179" lon="4.43987">
        <ele>134.3</ele>
        <time>2022-06-11T09:36:13Z</time>
      </trkpt>
      <trkpt lat="44.38182" lon="4.43989">
        <ele>134.6</ele>
        <time>2022-06-11T09:36:15Z</time>
      </trkpt>
      <trkpt lat="44.38184" lon="4.4399">
        <ele>134.8</ele>
        <time>2022-06-11T09:36:16Z</time>
      </trkpt>
      <trkpt lat="44.38185" lon="4.43991">
        <ele>135</ele>
        <time>2022-06-11T09:36:17Z</time>
      </trkpt>
      <trkpt lat="44.38188" lon="4.43994">
        <ele>135.3</ele>
        <time>2022-06-11T09:36:18Z</time>
      </trkpt>
      <trkpt lat="44.38189" lon="4.43995">
        <ele>135.5</ele>
        <time>2022-06-11T09:36:20Z</time>
      </trkpt>
      <trkpt lat="44.3819" lon="4.43996">
        <ele>135.7</ele>
        <time>2022-06-11T09:36:21Z</time>
      </trkpt>
      <trkpt lat="44.38191" lon="4.43998">
        <ele>135.8</ele>
        <time>2022-06-11T09:36:22Z</time>
      </trkpt>
      <trkpt lat="44.38192" lon="4.43999">
        <ele>136</ele>
        <time>2022-06-11T09:36:23Z</time>
      </trkpt>
      <trkpt lat="44.38194" lon="4.44002">
        <ele>136.3</ele>
        <time>2022-06-11T09:36:24Z</time>
      </trkpt>
      <trkpt lat="44.38196" lon="4.44003">
        <ele>136.5</ele>
        <time>2022-06-11T09:36:26Z</time>
      </trkpt>
      <trkpt lat="44.38196" lon="4.44005">
        <ele>136.6</ele>
        <time>2022-06-11T09:36:27Z</time>
      </trkpt>
      <trkpt lat="44.38197" lon="4.44006">
        <ele>136.8</ele>
        <time>2022-06-11T09:36:28Z</time>
      </trkpt>
      <trkpt lat="44.38198" lon="4.44008">
        <ele>137</ele>
        <time>2022-06-11T09:36:29Z</time>
      </trkpt>
      <trkpt lat="44.38199" lon="4.4401">
        <ele>137.1</ele>
        <time>2022-06-11T09:36:30Z</time>
      </trkpt>
      <trkpt lat="44.382" lon="4.44011">
        <ele>137.3</ele>
        <time>2022-06-11T09:36:31Z</time>
      </trkpt>
      <trkpt lat="44.38201" lon="4.44013">
        <ele>137.5</ele>
        <time>2022-06-11T09:36:32Z</time>
      </trkpt>
      <trkpt lat="44.38201" lon="4.44015">
        <ele>137.6</ele>
        <time>2022-06-11T09:36:33Z</time>
      </trkpt>
      <trkpt lat="44.38202" lon="4.44017">
        <ele>137.8</ele>
        <time>2022-06-11T09:36:34Z</time>
      </trkpt>
      <trkpt lat="44.38203" lon="4.44018">
        <ele>137.9</ele>
        <time>2022-06-11T09:36:35Z</time>
      </trkpt>
      <trkpt lat="44.38204" lon="4.44019">
        <ele>138</ele>
        <time>2022-06-11T09:36:36Z</time>
      </trkpt>
      <trkpt lat="44.38204" lon="4.44021">
        <ele>138.2</ele>
        <time>2022-06-11T09:36:37Z</time>
      </trkpt>
      <trkpt lat="44.38205" lon="4.44023">
        <ele>138.3</ele>
        <time>2022-06-11T09:36:38Z</time>
      </trkpt>
      <trkpt lat="44.38206" lon="4.44025">
        <ele>138.5</ele>
        <time>2022-06-11T09:36:39Z</time>
      </trkpt>
      <trkpt lat="44.38207" lon="4.44026">
        <ele>138.7</ele>
        <time>2022-06-11T09:36:40Z</time>
      </trkpt>
      <trkpt lat="44.38207" lon="4.44027">
        <ele>138.8</ele>
        <time>2022-06-11T09:36:41Z</time>
      </trkpt>
      <trkpt lat="44.38208" lon="4.44029">
        <ele>138.9</ele>
        <time>2022-06-11T09:36:42Z</time>
      </trkpt>
      <trkpt lat="44.38209" lon="4.44031">
        <ele>139.1</ele>
        <time>2022-06-11T09:36:43Z</time>
      </trkpt>
      <trkpt lat="44.3821" lon="4.44034">
        <ele>139.3</ele>
        <time>2022-06-11T09:36:44Z</time>
      </trkpt>
      <trkpt lat="44.3821" lon="4.44035">
        <ele>139.4</ele>
        <time>2022-06-11T09:36:45Z</time>
      </trkpt>
      <trkpt lat="44.38211" lon="4.44036">
        <ele>139.5</ele>
        <time>2022-06-11T09:36:46Z</time>
      </trkpt>
      <trkpt lat="44.38212" lon="4.44037">
        <ele>139.6</ele>
        <time>2022-06-11T09:36:47Z</time>
      </trkpt>
      <trkpt lat="44.38213" lon="4.4404">
        <ele>139.9</ele>
        <time>2022-06-11T09:36:49Z</time>
      </trkpt>
      <trkpt lat="44.38216" lon="4.44046">
        <ele>140.5</ele>
        <time>2022-06-11T09:36:51Z</time>
      </trkpt>
      <trkpt lat="44.38216" lon="4.44048">
        <ele>140.6</ele>
        <time>2022-06-11T09:36:53Z</time>
      </trkpt>
      <trkpt lat="44.38217" lon="4.44049">
        <ele>140.7</ele>
        <time>2022-06-11T09:36:54Z</time>
      </trkpt>
      <trkpt lat="44.38218" lon="4.4405">
        <ele>140.8</ele>
        <time>2022-06-11T09:36:55Z</time>
      </trkpt>
      <trkpt lat="44.38218" lon="4.44051">
        <ele>140.9</ele>
        <time>2022-06-11T09:36:56Z</time>
      </trkpt>
      <trkpt lat="44.38219" lon="4.44053">
        <ele>141.1</ele>
        <time>2022-06-11T09:36:57Z</time>
      </trkpt>
      <trkpt lat="44.38219" lon="4.44054">
        <ele>141.2</ele>
        <time>2022-06-11T09:36:58Z</time>
      </trkpt>
      <trkpt lat="44.3822" lon="4.44056">
        <ele>141.3</ele>
        <time>2022-06-11T09:36:59Z</time>
      </trkpt>
      <trkpt lat="44.38221" lon="4.44058">
        <ele>141.5</ele>
        <time>2022-06-11T09:37:00Z</time>
      </trkpt>
      <trkpt lat="44.38221" lon="4.44059">
        <ele>141.6</ele>
        <time>2022-06-11T09:37:01Z</time>
      </trkpt>
      <trkpt lat="44.38222" lon="4.4406">
        <ele>141.7</ele>
        <time>2022-06-11T09:37:02Z</time>
      </trkpt>
      <trkpt lat="44.38222" lon="4.44062">
        <ele>141.9</ele>
        <time>2022-06-11T09:37:03Z</time>
      </trkpt>
      <trkpt lat="44.38223" lon="4.44064">
        <ele>142.1</ele>
        <time>2022-06-11T09:37:04Z</time>
      </trkpt>
      <trkpt lat="44.38224" lon="4.44066">
        <ele>142.2</ele>
        <time>2022-06-11T09:37:05Z</time>
      </trkpt>
      <trkpt lat="44.38224" lon="4.44067">
        <ele>142.4</ele>
        <time>2022-06-11T09:37:06Z</time>
      </trkpt>
      <trkpt lat="44.38225" lon="4.4407">
        <ele>142.6</ele>
        <time>2022-06-11T09:37:07Z</time>
      </trkpt>
      <trkpt lat="44.38226" lon="4.44071">
        <ele>142.7</ele>
        <time>2022-06-11T09:37:08Z</time>
      </trkpt>
      <trkpt lat="44.38226" lon="4.44072">
        <ele>142.8</ele>
        <time>2022-06-11T09:37:09Z</time>
      </trkpt>
      <trkpt lat="44.38227" lon="4.44075">
        <ele>143</ele>
        <time>2022-06-11T09:37:10Z</time>
      </trkpt>
      <trkpt lat="44.38228" lon="4.44076">
        <ele>143.1</ele>
        <time>2022-06-11T09:37:11Z</time>
      </trkpt>
      <trkpt lat="44.38228" lon="4.44077">
        <ele>143.2</ele>
        <time>2022-06-11T09:37:12Z</time>
      </trkpt>
      <trkpt lat="44.38229" lon="4.4408">
        <ele>143.4</ele>
        <time>2022-06-11T09:37:13Z</time>
      </trkpt>
      <trkpt lat="44.38229" lon="4.44081">
        <ele>143.5</ele>
        <time>2022-06-11T09:37:14Z</time>
      </trkpt>
      <trkpt lat="44.3823" lon="4.44082">
        <ele>143.6</ele>
        <time>2022-06-11T09:37:15Z</time>
      </trkpt>
      <trkpt lat="44.3823" lon="4.44084">
        <ele>143.8</ele>
        <time>2022-06-11T09:37:16Z</time>
      </trkpt>
      <trkpt lat="44.38231" lon="4.44086">
        <ele>144</ele>
        <time>2022-06-11T09:37:17Z</time>
      </trkpt>
      <trkpt lat="44.38233" lon="4.44088">
        <ele>144.2</ele>
        <time>2022-06-11T09:37:18Z</time>
      </trkpt>
      <trkpt lat="44.38233" lon="4.44089">
        <ele>144.3</ele>
        <time>2022-06-11T09:37:19Z</time>
      </trkpt>
      <trkpt lat="44.38234" lon="4.44089">
        <ele>144.4</ele>
        <time>2022-06-11T09:37:20Z</time>
      </trkpt>
      <trkpt lat="44.38235" lon="4.44091">
        <ele>144.6</ele>
        <time>2022-06-11T09:37:21Z</time>
      </trkpt>
      <trkpt lat="44.38236" lon="4.44092">
        <ele>144.7</ele>
        <time>2022-06-11T09:37:22Z</time>
      </trkpt>
      <trkpt lat="44.38237" lon="4.44095">
        <ele>144.9</ele>
        <time>2022-06-11T09:37:23Z</time>
      </trkpt>
      <trkpt lat="44.38237" lon="4.44096">
        <ele>145</ele>
        <time>2022-06-11T09:37:24Z</time>
      </trkpt>
      <trkpt lat="44.38238" lon="4.44096">
        <ele>145.1</ele>
        <time>2022-06-11T09:37:25Z</time>
      </trkpt>
      <trkpt lat="44.38239" lon="4.44098">
        <ele>145.3</ele>
        <time>2022-06-11T09:37:26Z</time>
      </trkpt>
      <trkpt lat="44.38239" lon="4.441">
        <ele>145.4</ele>
        <time>2022-06-11T09:37:27Z</time>
      </trkpt>
      <trkpt lat="44.38241" lon="4.44102">
        <ele>145.6</ele>
        <time>2022-06-11T09:37:28Z</time>
      </trkpt>
      <trkpt lat="44.38241" lon="4.44103">
        <ele>145.7</ele>
        <time>2022-06-11T09:37:29Z</time>
      </trkpt>
      <trkpt lat="44.38242" lon="4.44104">
        <ele>145.8</ele>
        <time>2022-06-11T09:37:30Z</time>
      </trkpt>
      <trkpt lat="44.38243" lon="4.44105">
        <ele>145.9</ele>
        <time>2022-06-11T09:37:31Z</time>
      </trkpt>
      <trkpt lat="44.38243" lon="4.44106">
        <ele>146</ele>
        <time>2022-06-11T09:37:32Z</time>
      </trkpt>
      <trkpt lat="44.38244" lon="4.44107">
        <ele>146.2</ele>
        <time>2022-06-11T09:37:33Z</time>
      </trkpt>
      <trkpt lat="44.38246" lon="4.44108">
        <ele>146.3</ele>
        <time>2022-06-11T09:37:34Z</time>
      </trkpt>
      <trkpt lat="44.38246" lon="4.44108">
        <ele>146.4</ele>
        <time>2022-06-11T09:37:35Z</time>
      </trkpt>
      <trkpt lat="44.38247" lon="4.44109">
        <ele>146.5</ele>
        <time>2022-06-11T09:37:36Z</time>
      </trkpt>
      <trkpt lat="44.38248" lon="4.44109">
        <ele>146.6</ele>
        <time>2022-06-11T09:37:37Z</time>
      </trkpt>
      <trkpt lat="44.38249" lon="4.4411">
        <ele>146.7</ele>
        <time>2022-06-11T09:37:38Z</time>
      </trkpt>
      <trkpt lat="44.3825" lon="4.44111">
        <ele>146.9</ele>
        <time>2022-06-11T09:37:39Z</time>
      </trkpt>
      <trkpt lat="44.38252" lon="4.44113">
        <ele>147.1</ele>
        <time>2022-06-11T09:37:40Z</time>
      </trkpt>
      <trkpt lat="44.38253" lon="4.44114">
        <ele>147.3</ele>
        <time>2022-06-11T09:37:41Z</time>
      </trkpt>
      <trkpt lat="44.38254" lon="4.44114">
        <ele>147.4</ele>
        <time>2022-06-11T09:37:42Z</time>
      </trkpt>
      <trkpt lat="44.38256" lon="4.44115">
        <ele>147.6</ele>
        <time>2022-06-11T09:37:43Z</time>
      </trkpt>
      <trkpt lat="44.38257" lon="4.44117">
        <ele>147.8</ele>
        <time>2022-06-11T09:37:44Z</time>
      </trkpt>
      <trkpt lat="44.38258" lon="4.44117">
        <ele>147.9</ele>
        <time>2022-06-11T09:37:45Z</time>
      </trkpt>
      <trkpt lat="44.38259" lon="4.44118">
        <ele>148</ele>
        <time>2022-06-11T09:37:46Z</time>
      </trkpt>
      <trkpt lat="44.3826" lon="4.44119">
        <ele>148.1</ele>
        <time>2022-06-11T09:37:47Z</time>
      </trkpt>
      <trkpt lat="44.38261" lon="4.4412">
        <ele>148.2</ele>
        <time>2022-06-11T09:37:48Z</time>
      </trkpt>
      <trkpt lat="44.38264" lon="4.44122">
        <ele>148.5</ele>
        <time>2022-06-11T09:37:49Z</time>
      </trkpt>
      <trkpt lat="44.38265" lon="4.44124">
        <ele>148.8</ele>
        <time>2022-06-11T09:37:51Z</time>
      </trkpt>
      <trkpt lat="44.38266" lon="4.44125">
        <ele>148.9</ele>
        <time>2022-06-11T09:37:52Z</time>
      </trkpt>
      <trkpt lat="44.38267" lon="4.44127">
        <ele>149.1</ele>
        <time>2022-06-11T09:37:53Z</time>
      </trkpt>
      <trkpt lat="44.38268" lon="4.44129">
        <ele>149.2</ele>
        <time>2022-06-11T09:37:54Z</time>
      </trkpt>
      <trkpt lat="44.38269" lon="4.4413">
        <ele>149.4</ele>
        <time>2022-06-11T09:37:55Z</time>
      </trkpt>
      <trkpt lat="44.3827" lon="4.44132">
        <ele>149.6</ele>
        <time>2022-06-11T09:37:56Z</time>
      </trkpt>
      <trkpt lat="44.38272" lon="4.44133">
        <ele>149.7</ele>
        <time>2022-06-11T09:37:57Z</time>
      </trkpt>
      <trkpt lat="44.38273" lon="4.44134">
        <ele>149.9</ele>
        <time>2022-06-11T09:37:58Z</time>
      </trkpt>
      <trkpt lat="44.38275" lon="4.44136">
        <ele>150.1</ele>
        <time>2022-06-11T09:37:59Z</time>
      </trkpt>
      <trkpt lat="44.38277" lon="4.44137">
        <ele>150.4</ele>
        <time>2022-06-11T09:38:01Z</time>
      </trkpt>
      <trkpt lat="44.38278" lon="4.44138">
        <ele>150.5</ele>
        <time>2022-06-11T09:38:02Z</time>
      </trkpt>
      <trkpt lat="44.38279" lon="4.44139">
        <ele>150.6</ele>
        <time>2022-06-11T09:38:03Z</time>
      </trkpt>
      <trkpt lat="44.3828" lon="4.4414">
        <ele>150.8</ele>
        <time>2022-06-11T09:38:04Z</time>
      </trkpt>
      <trkpt lat="44.38281" lon="4.44142">
        <ele>150.9</ele>
        <time>2022-06-11T09:38:05Z</time>
      </trkpt>
      <trkpt lat="44.38282" lon="4.44143">
        <ele>151.1</ele>
        <time>2022-06-11T09:38:06Z</time>
      </trkpt>
      <trkpt lat="44.38283" lon="4.44145">
        <ele>151.2</ele>
        <time>2022-06-11T09:38:07Z</time>
      </trkpt>
      <trkpt lat="44.38285" lon="4.44147">
        <ele>151.5</ele>
        <time>2022-06-11T09:38:09Z</time>
      </trkpt>
      <trkpt lat="44.38286" lon="4.44148">
        <ele>151.7</ele>
        <time>2022-06-11T09:38:10Z</time>
      </trkpt>
      <trkpt lat="44.38287" lon="4.4415">
        <ele>151.8</ele>
        <time>2022-06-11T09:38:11Z</time>
      </trkpt>
      <trkpt lat="44.38289" lon="4.44153">
        <ele>152.1</ele>
        <time>2022-06-11T09:38:12Z</time>
      </trkpt>
      <trkpt lat="44.3829" lon="4.44154">
        <ele>152.2</ele>
        <time>2022-06-11T09:38:14Z</time>
      </trkpt>
      <trkpt lat="44.38291" lon="4.44155">
        <ele>152.3</ele>
        <time>2022-06-11T09:38:15Z</time>
      </trkpt>
      <trkpt lat="44.38292" lon="4.44158">
        <ele>152.6</ele>
        <time>2022-06-11T09:38:17Z</time>
      </trkpt>
      <trkpt lat="44.38293" lon="4.4416">
        <ele>152.8</ele>
        <time>2022-06-11T09:38:18Z</time>
      </trkpt>
      <trkpt lat="44.38294" lon="4.44161">
        <ele>152.9</ele>
        <time>2022-06-11T09:38:19Z</time>
      </trkpt>
      <trkpt lat="44.38294" lon="4.44162">
        <ele>153</ele>
        <time>2022-06-11T09:38:20Z</time>
      </trkpt>
      <trkpt lat="44.38295" lon="4.44164">
        <ele>153.1</ele>
        <time>2022-06-11T09:38:21Z</time>
      </trkpt>
      <trkpt lat="44.38295" lon="4.44166">
        <ele>153.2</ele>
        <time>2022-06-11T09:38:22Z</time>
      </trkpt>
      <trkpt lat="44.38296" lon="4.44167">
        <ele>153.4</ele>
        <time>2022-06-11T09:38:23Z</time>
      </trkpt>
      <trkpt lat="44.38297" lon="4.44169">
        <ele>153.6</ele>
        <time>2022-06-11T09:38:24Z</time>
      </trkpt>
      <trkpt lat="44.38298" lon="4.44171">
        <ele>153.8</ele>
        <time>2022-06-11T09:38:25Z</time>
      </trkpt>
      <trkpt lat="44.38299" lon="4.44173">
        <ele>154</ele>
        <time>2022-06-11T09:38:26Z</time>
      </trkpt>
      <trkpt lat="44.383" lon="4.44175">
        <ele>154.2</ele>
        <time>2022-06-11T09:38:28Z</time>
      </trkpt>
      <trkpt lat="44.38301" lon="4.44176">
        <ele>154.3</ele>
        <time>2022-06-11T09:38:29Z</time>
      </trkpt>
      <trkpt lat="44.38303" lon="4.44178">
        <ele>154.5</ele>
        <time>2022-06-11T09:38:30Z</time>
      </trkpt>
      <trkpt lat="44.38303" lon="4.44179">
        <ele>154.7</ele>
        <time>2022-06-11T09:38:31Z</time>
      </trkpt>
      <trkpt lat="44.38303" lon="4.44181">
        <ele>154.8</ele>
        <time>2022-06-11T09:38:32Z</time>
      </trkpt>
      <trkpt lat="44.38305" lon="4.44184">
        <ele>155.1</ele>
        <time>2022-06-11T09:38:33Z</time>
      </trkpt>
      <trkpt lat="44.38305" lon="4.44185">
        <ele>155.2</ele>
        <time>2022-06-11T09:38:34Z</time>
      </trkpt>
      <trkpt lat="44.38306" lon="4.44186">
        <ele>155.3</ele>
        <time>2022-06-11T09:38:35Z</time>
      </trkpt>
      <trkpt lat="44.38307" lon="4.44188">
        <ele>155.4</ele>
        <time>2022-06-11T09:38:36Z</time>
      </trkpt>
      <trkpt lat="44.38307" lon="4.44189">
        <ele>155.6</ele>
        <time>2022-06-11T09:38:37Z</time>
      </trkpt>
      <trkpt lat="44.38309" lon="4.44192">
        <ele>155.8</ele>
        <time>2022-06-11T09:38:38Z</time>
      </trkpt>
      <trkpt lat="44.38309" lon="4.44193">
        <ele>155.9</ele>
        <time>2022-06-11T09:38:39Z</time>
      </trkpt>
      <trkpt lat="44.3831" lon="4.44194">
        <ele>156</ele>
        <time>2022-06-11T09:38:40Z</time>
      </trkpt>
      <trkpt lat="44.38311" lon="4.44196">
        <ele>156.2</ele>
        <time>2022-06-11T09:38:41Z</time>
      </trkpt>
      <trkpt lat="44.38311" lon="4.44197">
        <ele>156.3</ele>
        <time>2022-06-11T09:38:42Z</time>
      </trkpt>
      <trkpt lat="44.38312" lon="4.44198">
        <ele>156.4</ele>
        <time>2022-06-11T09:38:43Z</time>
      </trkpt>
      <trkpt lat="44.38312" lon="4.442">
        <ele>156.6</ele>
        <time>2022-06-11T09:38:44Z</time>
      </trkpt>
      <trkpt lat="44.38312" lon="4.44202">
        <ele>156.7</ele>
        <time>2022-06-11T09:38:45Z</time>
      </trkpt>
      <trkpt lat="44.38313" lon="4.44204">
        <ele>156.9</ele>
        <time>2022-06-11T09:38:46Z</time>
      </trkpt>
      <trkpt lat="44.38313" lon="4.44206">
        <ele>157</ele>
        <time>2022-06-11T09:38:47Z</time>
      </trkpt>
      <trkpt lat="44.38314" lon="4.44208">
        <ele>157.2</ele>
        <time>2022-06-11T09:38:48Z</time>
      </trkpt>
      <trkpt lat="44.38314" lon="4.44209">
        <ele>157.3</ele>
        <time>2022-06-11T09:38:49Z</time>
      </trkpt>
      <trkpt lat="44.38315" lon="4.44213">
        <ele>157.6</ele>
        <time>2022-06-11T09:38:50Z</time>
      </trkpt>
      <trkpt lat="44.38315" lon="4.44214">
        <ele>157.7</ele>
        <time>2022-06-11T09:38:51Z</time>
      </trkpt>
      <trkpt lat="44.38316" lon="4.44217">
        <ele>158</ele>
        <time>2022-06-11T09:38:53Z</time>
      </trkpt>
      <trkpt lat="44.38316" lon="4.44218">
        <ele>158.1</ele>
        <time>2022-06-11T09:38:54Z</time>
      </trkpt>
      <trkpt lat="44.38316" lon="4.44219">
        <ele>158.1</ele>
        <time>2022-06-11T09:38:55Z</time>
      </trkpt>
      <trkpt lat="44.38317" lon="4.44221">
        <ele>158.3</ele>
        <time>2022-06-11T09:38:56Z</time>
      </trkpt>
      <trkpt lat="44.38317" lon="4.44223">
        <ele>158.4</ele>
        <time>2022-06-11T09:38:57Z</time>
      </trkpt>
      <trkpt lat="44.38317" lon="4.44224">
        <ele>158.5</ele>
        <time>2022-06-11T09:38:58Z</time>
      </trkpt>
      <trkpt lat="44.38318" lon="4.44225">
        <ele>158.6</ele>
        <time>2022-06-11T09:38:59Z</time>
      </trkpt>
      <trkpt lat="44.38318" lon="4.44227">
        <ele>158.7</ele>
        <time>2022-06-11T09:39:00Z</time>
      </trkpt>
      <trkpt lat="44.38318" lon="4.44228">
        <ele>158.8</ele>
        <time>2022-06-11T09:39:01Z</time>
      </trkpt>
      <trkpt lat="44.38318" lon="4.4423">
        <ele>159</ele>
        <time>2022-06-11T09:39:02Z</time>
      </trkpt>
      <trkpt lat="44.38318" lon="4.44231">
        <ele>159.1</ele>
        <time>2022-06-11T09:39:03Z</time>
      </trkpt>
      <trkpt lat="44.38318" lon="4.44233">
        <ele>159.2</ele>
        <time>2022-06-11T09:39:04Z</time>
      </trkpt>
      <trkpt lat="44.38319" lon="4.44235">
        <ele>159.4</ele>
        <time>2022-06-11T09:39:05Z</time>
      </trkpt>
      <trkpt lat="44.38319" lon="4.44236">
        <ele>159.5</ele>
        <time>2022-06-11T09:39:06Z</time>
      </trkpt>
      <trkpt lat="44.38319" lon="4.44237">
        <ele>159.6</ele>
        <time>2022-06-11T09:39:07Z</time>
      </trkpt>
      <trkpt lat="44.3832" lon="4.4424">
        <ele>159.8</ele>
        <time>2022-06-11T09:39:08Z</time>
      </trkpt>
      <trkpt lat="44.38321" lon="4.44241">
        <ele>159.9</ele>
        <time>2022-06-11T09:39:09Z</time>
      </trkpt>
      <trkpt lat="44.38321" lon="4.44242">
        <ele>160</ele>
        <time>2022-06-11T09:39:10Z</time>
      </trkpt>
      <trkpt lat="44.38322" lon="4.44244">
        <ele>160.2</ele>
        <time>2022-06-11T09:39:11Z</time>
      </trkpt>
      <trkpt lat="44.38323" lon="4.44246">
        <ele>160.4</ele>
        <time>2022-06-11T09:39:12Z</time>
      </trkpt>
      <trkpt lat="44.38324" lon="4.44248">
        <ele>160.6</ele>
        <time>2022-06-11T09:39:13Z</time>
      </trkpt>
      <trkpt lat="44.38325" lon="4.4425">
        <ele>160.7</ele>
        <time>2022-06-11T09:39:14Z</time>
      </trkpt>
      <trkpt lat="44.38326" lon="4.44251">
        <ele>160.9</ele>
        <time>2022-06-11T09:39:15Z</time>
      </trkpt>
      <trkpt lat="44.38327" lon="4.44253">
        <ele>161</ele>
        <time>2022-06-11T09:39:16Z</time>
      </trkpt>
      <trkpt lat="44.38328" lon="4.44254">
        <ele>161.2</ele>
        <time>2022-06-11T09:39:17Z</time>
      </trkpt>
      <trkpt lat="44.38329" lon="4.44256">
        <ele>161.3</ele>
        <time>2022-06-11T09:39:18Z</time>
      </trkpt>
      <trkpt lat="44.3833" lon="4.44259">
        <ele>161.6</ele>
        <time>2022-06-11T09:39:20Z</time>
      </trkpt>
      <trkpt lat="44.3833" lon="4.44261">
        <ele>161.8</ele>
        <time>2022-06-11T09:39:21Z</time>
      </trkpt>
      <trkpt lat="44.38331" lon="4.44263">
        <ele>161.9</ele>
        <time>2022-06-11T09:39:22Z</time>
      </trkpt>
      <trkpt lat="44.38332" lon="4.44265">
        <ele>162.1</ele>
        <time>2022-06-11T09:39:23Z</time>
      </trkpt>
      <trkpt lat="44.38333" lon="4.44266">
        <ele>162.2</ele>
        <time>2022-06-11T09:39:24Z</time>
      </trkpt>
      <trkpt lat="44.38333" lon="4.44268">
        <ele>162.4</ele>
        <time>2022-06-11T09:39:25Z</time>
      </trkpt>
      <trkpt lat="44.38334" lon="4.4427">
        <ele>162.6</ele>
        <time>2022-06-11T09:39:26Z</time>
      </trkpt>
      <trkpt lat="44.38334" lon="4.44272">
        <ele>162.7</ele>
        <time>2022-06-11T09:39:27Z</time>
      </trkpt>
      <trkpt lat="44.38335" lon="4.44274">
        <ele>162.9</ele>
        <time>2022-06-11T09:39:28Z</time>
      </trkpt>
      <trkpt lat="44.38335" lon="4.44277">
        <ele>163.1</ele>
        <time>2022-06-11T09:39:29Z</time>
      </trkpt>
      <trkpt lat="44.38336" lon="4.44278">
        <ele>163.2</ele>
        <time>2022-06-11T09:39:30Z</time>
      </trkpt>
      <trkpt lat="44.38336" lon="4.44279">
        <ele>163.2</ele>
        <time>2022-06-11T09:39:31Z</time>
      </trkpt>
      <trkpt lat="44.38336" lon="4.44282">
        <ele>163.5</ele>
        <time>2022-06-11T09:39:32Z</time>
      </trkpt>
      <trkpt lat="44.38337" lon="4.44283">
        <ele>163.6</ele>
        <time>2022-06-11T09:39:33Z</time>
      </trkpt>
      <trkpt lat="44.38337" lon="4.44284">
        <ele>163.7</ele>
        <time>2022-06-11T09:39:34Z</time>
      </trkpt>
      <trkpt lat="44.38337" lon="4.44287">
        <ele>163.9</ele>
        <time>2022-06-11T09:39:35Z</time>
      </trkpt>
      <trkpt lat="44.38337" lon="4.44288">
        <ele>164</ele>
        <time>2022-06-11T09:39:36Z</time>
      </trkpt>
      <trkpt lat="44.38337" lon="4.4429">
        <ele>164.1</ele>
        <time>2022-06-11T09:39:37Z</time>
      </trkpt>
      <trkpt lat="44.38337" lon="4.44292">
        <ele>164.3</ele>
        <time>2022-06-11T09:39:38Z</time>
      </trkpt>
      <trkpt lat="44.38338" lon="4.44294">
        <ele>164.4</ele>
        <time>2022-06-11T09:39:39Z</time>
      </trkpt>
      <trkpt lat="44.38338" lon="4.44295">
        <ele>164.5</ele>
        <time>2022-06-11T09:39:40Z</time>
      </trkpt>
      <trkpt lat="44.38338" lon="4.44296">
        <ele>164.6</ele>
        <time>2022-06-11T09:39:41Z</time>
      </trkpt>
      <trkpt lat="44.38339" lon="4.44298">
        <ele>164.7</ele>
        <time>2022-06-11T09:39:42Z</time>
      </trkpt>
      <trkpt lat="44.3834" lon="4.443">
        <ele>164.9</ele>
        <time>2022-06-11T09:39:43Z</time>
      </trkpt>
      <trkpt lat="44.38341" lon="4.44301">
        <ele>165.1</ele>
        <time>2022-06-11T09:39:44Z</time>
      </trkpt>
      <trkpt lat="44.38341" lon="4.44304">
        <ele>165.3</ele>
        <time>2022-06-11T09:39:45Z</time>
      </trkpt>
      <trkpt lat="44.38341" lon="4.44305">
        <ele>165.4</ele>
        <time>2022-06-11T09:39:46Z</time>
      </trkpt>
      <trkpt lat="44.38341" lon="4.44307">
        <ele>165.5</ele>
        <time>2022-06-11T09:39:47Z</time>
      </trkpt>
      <trkpt lat="44.38342" lon="4.44309">
        <ele>165.7</ele>
        <time>2022-06-11T09:39:48Z</time>
      </trkpt>
      <trkpt lat="44.38343" lon="4.4431">
        <ele>165.8</ele>
        <time>2022-06-11T09:39:49Z</time>
      </trkpt>
      <trkpt lat="44.38343" lon="4.44311">
        <ele>165.9</ele>
        <time>2022-06-11T09:39:50Z</time>
      </trkpt>
      <trkpt lat="44.38344" lon="4.44313">
        <ele>166</ele>
        <time>2022-06-11T09:39:51Z</time>
      </trkpt>
      <trkpt lat="44.38345" lon="4.44315">
        <ele>166.2</ele>
        <time>2022-06-11T09:39:52Z</time>
      </trkpt>
      <trkpt lat="44.38345" lon="4.44317">
        <ele>166.4</ele>
        <time>2022-06-11T09:39:53Z</time>
      </trkpt>
      <trkpt lat="44.38345" lon="4.44319">
        <ele>166.6</ele>
        <time>2022-06-11T09:39:54Z</time>
      </trkpt>
      <trkpt lat="44.38347" lon="4.44322">
        <ele>166.8</ele>
        <time>2022-06-11T09:39:55Z</time>
      </trkpt>
      <trkpt lat="44.38347" lon="4.44323">
        <ele>166.8</ele>
        <time>2022-06-11T09:39:56Z</time>
      </trkpt>
      <trkpt lat="44.38348" lon="4.44324">
        <ele>166.9</ele>
        <time>2022-06-11T09:39:57Z</time>
      </trkpt>
      <trkpt lat="44.38348" lon="4.44325">
        <ele>167.1</ele>
        <time>2022-06-11T09:39:58Z</time>
      </trkpt>
      <trkpt lat="44.38348" lon="4.44327">
        <ele>167.2</ele>
        <time>2022-06-11T09:39:59Z</time>
      </trkpt>
      <trkpt lat="44.38349" lon="4.4433">
        <ele>167.4</ele>
        <time>2022-06-11T09:40:00Z</time>
      </trkpt>
      <trkpt lat="44.38349" lon="4.44331">
        <ele>167.5</ele>
        <time>2022-06-11T09:40:01Z</time>
      </trkpt>
      <trkpt lat="44.38349" lon="4.44332">
        <ele>167.6</ele>
        <time>2022-06-11T09:40:02Z</time>
      </trkpt>
      <trkpt lat="44.38349" lon="4.44334">
        <ele>167.7</ele>
        <time>2022-06-11T09:40:03Z</time>
      </trkpt>
      <trkpt lat="44.3835" lon="4.44336">
        <ele>167.9</ele>
        <time>2022-06-11T09:40:04Z</time>
      </trkpt>
      <trkpt lat="44.3835" lon="4.44339">
        <ele>168.1</ele>
        <time>2022-06-11T09:40:05Z</time>
      </trkpt>
      <trkpt lat="44.38351" lon="4.4434">
        <ele>168.2</ele>
        <time>2022-06-11T09:40:06Z</time>
      </trkpt>
      <trkpt lat="44.38351" lon="4.44341">
        <ele>168.3</ele>
        <time>2022-06-11T09:40:07Z</time>
      </trkpt>
      <trkpt lat="44.38351" lon="4.44343">
        <ele>168.4</ele>
        <time>2022-06-11T09:40:08Z</time>
      </trkpt>
      <trkpt lat="44.38351" lon="4.44345">
        <ele>168.6</ele>
        <time>2022-06-11T09:40:09Z</time>
      </trkpt>
      <trkpt lat="44.38352" lon="4.44348">
        <ele>168.8</ele>
        <time>2022-06-11T09:40:10Z</time>
      </trkpt>
      <trkpt lat="44.38352" lon="4.44349">
        <ele>168.9</ele>
        <time>2022-06-11T09:40:11Z</time>
      </trkpt>
      <trkpt lat="44.38352" lon="4.4435">
        <ele>169</ele>
        <time>2022-06-11T09:40:12Z</time>
      </trkpt>
      <trkpt lat="44.38353" lon="4.44352">
        <ele>169.1</ele>
        <time>2022-06-11T09:40:13Z</time>
      </trkpt>
      <trkpt lat="44.38353" lon="4.44353">
        <ele>169.3</ele>
        <time>2022-06-11T09:40:14Z</time>
      </trkpt>
      <trkpt lat="44.38353" lon="4.44355">
        <ele>169.4</ele>
        <time>2022-06-11T09:40:15Z</time>
      </trkpt>
      <trkpt lat="44.38354" lon="4.4436">
        <ele>169.7</ele>
        <time>2022-06-11T09:40:17Z</time>
      </trkpt>
      <trkpt lat="44.38354" lon="4.44362">
        <ele>169.9</ele>
        <time>2022-06-11T09:40:18Z</time>
      </trkpt>
      <trkpt lat="44.38354" lon="4.44364">
        <ele>170.1</ele>
        <time>2022-06-11T09:40:19Z</time>
      </trkpt>
      <trkpt lat="44.38354" lon="4.44366">
        <ele>170.2</ele>
        <time>2022-06-11T09:40:20Z</time>
      </trkpt>
      <trkpt lat="44.38355" lon="4.44368">
        <ele>170.4</ele>
        <time>2022-06-11T09:40:21Z</time>
      </trkpt>
      <trkpt lat="44.38355" lon="4.4437">
        <ele>170.5</ele>
        <time>2022-06-11T09:40:22Z</time>
      </trkpt>
      <trkpt lat="44.38354" lon="4.44373">
        <ele>170.8</ele>
        <time>2022-06-11T09:40:23Z</time>
      </trkpt>
      <trkpt lat="44.38354" lon="4.44376">
        <ele>171</ele>
        <time>2022-06-11T09:40:25Z</time>
      </trkpt>
      <trkpt lat="44.38355" lon="4.44377">
        <ele>171</ele>
        <time>2022-06-11T09:40:26Z</time>
      </trkpt>
      <trkpt lat="44.38355" lon="4.4438">
        <ele>171.3</ele>
        <time>2022-06-11T09:40:27Z</time>
      </trkpt>
      <trkpt lat="44.38356" lon="4.44382">
        <ele>171.5</ele>
        <time>2022-06-11T09:40:29Z</time>
      </trkpt>
      <trkpt lat="44.38356" lon="4.44384">
        <ele>171.6</ele>
        <time>2022-06-11T09:40:30Z</time>
      </trkpt>
      <trkpt lat="44.38357" lon="4.44387">
        <ele>171.8</ele>
        <time>2022-06-11T09:40:31Z</time>
      </trkpt>
      <trkpt lat="44.38357" lon="4.44389">
        <ele>172</ele>
        <time>2022-06-11T09:40:32Z</time>
      </trkpt>
      <trkpt lat="44.38357" lon="4.44392">
        <ele>172.2</ele>
        <time>2022-06-11T09:40:34Z</time>
      </trkpt>
      <trkpt lat="44.38357" lon="4.44394">
        <ele>172.3</ele>
        <time>2022-06-11T09:40:35Z</time>
      </trkpt>
      <trkpt lat="44.38357" lon="4.44396">
        <ele>172.5</ele>
        <time>2022-06-11T09:40:36Z</time>
      </trkpt>
      <trkpt lat="44.38358" lon="4.44398">
        <ele>172.6</ele>
        <time>2022-06-11T09:40:37Z</time>
      </trkpt>
      <trkpt lat="44.38358" lon="4.444">
        <ele>172.8</ele>
        <time>2022-06-11T09:40:38Z</time>
      </trkpt>
      <trkpt lat="44.38359" lon="4.44401">
        <ele>172.9</ele>
        <time>2022-06-11T09:40:39Z</time>
      </trkpt>
      <trkpt lat="44.3836" lon="4.44403">
        <ele>173.1</ele>
        <time>2022-06-11T09:40:40Z</time>
      </trkpt>
      <trkpt lat="44.3836" lon="4.44405">
        <ele>173.2</ele>
        <time>2022-06-11T09:40:41Z</time>
      </trkpt>
      <trkpt lat="44.38361" lon="4.44407">
        <ele>173.4</ele>
        <time>2022-06-11T09:40:42Z</time>
      </trkpt>
      <trkpt lat="44.38362" lon="4.44409">
        <ele>173.6</ele>
        <time>2022-06-11T09:40:43Z</time>
      </trkpt>
      <trkpt lat="44.38362" lon="4.4441">
        <ele>173.7</ele>
        <time>2022-06-11T09:40:44Z</time>
      </trkpt>
      <trkpt lat="44.38363" lon="4.44411">
        <ele>173.8</ele>
        <time>2022-06-11T09:40:45Z</time>
      </trkpt>
      <trkpt lat="44.38363" lon="4.44414">
        <ele>174</ele>
        <time>2022-06-11T09:40:46Z</time>
      </trkpt>
      <trkpt lat="44.38364" lon="4.44415">
        <ele>174.1</ele>
        <time>2022-06-11T09:40:47Z</time>
      </trkpt>
      <trkpt lat="44.38364" lon="4.44416">
        <ele>174.1</ele>
        <time>2022-06-11T09:40:48Z</time>
      </trkpt>
      <trkpt lat="44.38365" lon="4.44419">
        <ele>174.4</ele>
        <time>2022-06-11T09:40:49Z</time>
      </trkpt>
      <trkpt lat="44.38365" lon="4.4442">
        <ele>174.4</ele>
        <time>2022-06-11T09:40:50Z</time>
      </trkpt>
      <trkpt lat="44.38365" lon="4.44421">
        <ele>174.5</ele>
        <time>2022-06-11T09:40:51Z</time>
      </trkpt>
      <trkpt lat="44.38365" lon="4.44423">
        <ele>174.7</ele>
        <time>2022-06-11T09:40:52Z</time>
      </trkpt>
      <trkpt lat="44.38366" lon="4.44425">
        <ele>174.8</ele>
        <time>2022-06-11T09:40:53Z</time>
      </trkpt>
      <trkpt lat="44.38367" lon="4.44427">
        <ele>175</ele>
        <time>2022-06-11T09:40:54Z</time>
      </trkpt>
      <trkpt lat="44.38367" lon="4.44429">
        <ele>175.1</ele>
        <time>2022-06-11T09:40:55Z</time>
      </trkpt>
      <trkpt lat="44.38368" lon="4.44431">
        <ele>175.3</ele>
        <time>2022-06-11T09:40:56Z</time>
      </trkpt>
      <trkpt lat="44.38368" lon="4.44432">
        <ele>175.4</ele>
        <time>2022-06-11T09:40:57Z</time>
      </trkpt>
      <trkpt lat="44.38368" lon="4.44435">
        <ele>175.6</ele>
        <time>2022-06-11T09:40:58Z</time>
      </trkpt>
      <trkpt lat="44.38369" lon="4.44437">
        <ele>175.7</ele>
        <time>2022-06-11T09:40:59Z</time>
      </trkpt>
      <trkpt lat="44.38369" lon="4.44438">
        <ele>175.8</ele>
        <time>2022-06-11T09:41:00Z</time>
      </trkpt>
      <trkpt lat="44.38369" lon="4.44442">
        <ele>176.1</ele>
        <time>2022-06-11T09:41:01Z</time>
      </trkpt>
      <trkpt lat="44.38369" lon="4.44444">
        <ele>176.3</ele>
        <time>2022-06-11T09:41:03Z</time>
      </trkpt>
      <trkpt lat="44.3837" lon="4.44446">
        <ele>176.4</ele>
        <time>2022-06-11T09:41:04Z</time>
      </trkpt>
      <trkpt lat="44.38371" lon="4.4445">
        <ele>176.7</ele>
        <time>2022-06-11T09:41:05Z</time>
      </trkpt>
      <trkpt lat="44.38371" lon="4.44452">
        <ele>176.9</ele>
        <time>2022-06-11T09:41:07Z</time>
      </trkpt>
      <trkpt lat="44.38371" lon="4.44454">
        <ele>177</ele>
        <time>2022-06-11T09:41:08Z</time>
      </trkpt>
      <trkpt lat="44.38371" lon="4.44457">
        <ele>177.3</ele>
        <time>2022-06-11T09:41:09Z</time>
      </trkpt>
      <trkpt lat="44.38372" lon="4.44459">
        <ele>177.4</ele>
        <time>2022-06-11T09:41:10Z</time>
      </trkpt>
      <trkpt lat="44.38372" lon="4.4446">
        <ele>177.5</ele>
        <time>2022-06-11T09:41:11Z</time>
      </trkpt>
      <trkpt lat="44.38372" lon="4.44462">
        <ele>177.6</ele>
        <time>2022-06-11T09:41:12Z</time>
      </trkpt>
      <trkpt lat="44.38373" lon="4.44464">
        <ele>177.8</ele>
        <time>2022-06-11T09:41:13Z</time>
      </trkpt>
      <trkpt lat="44.38373" lon="4.44466">
        <ele>177.9</ele>
        <time>2022-06-11T09:41:14Z</time>
      </trkpt>
      <trkpt lat="44.38373" lon="4.44468">
        <ele>178.1</ele>
        <time>2022-06-11T09:41:15Z</time>
      </trkpt>
      <trkpt lat="44.38373" lon="4.4447">
        <ele>178.2</ele>
        <time>2022-06-11T09:41:16Z</time>
      </trkpt>
      <trkpt lat="44.38374" lon="4.44472">
        <ele>178.4</ele>
        <time>2022-06-11T09:41:17Z</time>
      </trkpt>
      <trkpt lat="44.38374" lon="4.44474">
        <ele>178.6</ele>
        <time>2022-06-11T09:41:18Z</time>
      </trkpt>
      <trkpt lat="44.38375" lon="4.44476">
        <ele>178.7</ele>
        <time>2022-06-11T09:41:19Z</time>
      </trkpt>
      <trkpt lat="44.38375" lon="4.44478">
        <ele>178.9</ele>
        <time>2022-06-11T09:41:20Z</time>
      </trkpt>
      <trkpt lat="44.38375" lon="4.4448">
        <ele>179</ele>
        <time>2022-06-11T09:41:21Z</time>
      </trkpt>
      <trkpt lat="44.38376" lon="4.44484">
        <ele>179.3</ele>
        <time>2022-06-11T09:41:22Z</time>
      </trkpt>
      <trkpt lat="44.38377" lon="4.44486">
        <ele>179.5</ele>
        <time>2022-06-11T09:41:23Z</time>
      </trkpt>
      <trkpt lat="44.38377" lon="4.44487">
        <ele>179.6</ele>
        <time>2022-06-11T09:41:24Z</time>
      </trkpt>
      <trkpt lat="44.38377" lon="4.4449">
        <ele>179.8</ele>
        <time>2022-06-11T09:41:26Z</time>
      </trkpt>
      <trkpt lat="44.38378" lon="4.44493">
        <ele>180</ele>
        <time>2022-06-11T09:41:27Z</time>
      </trkpt>
      <trkpt lat="44.38379" lon="4.44497">
        <ele>180.3</ele>
        <time>2022-06-11T09:41:29Z</time>
      </trkpt>
      <trkpt lat="44.38379" lon="4.44499">
        <ele>180.5</ele>
        <time>2022-06-11T09:41:31Z</time>
      </trkpt>
      <trkpt lat="44.38379" lon="4.44502">
        <ele>180.7</ele>
        <time>2022-06-11T09:41:33Z</time>
      </trkpt>
      <trkpt lat="44.3838" lon="4.44506">
        <ele>181.1</ele>
        <time>2022-06-11T09:41:35Z</time>
      </trkpt>
      <trkpt lat="44.38381" lon="4.44508">
        <ele>181.2</ele>
        <time>2022-06-11T09:41:36Z</time>
      </trkpt>
      <trkpt lat="44.3838" lon="4.4451">
        <ele>181.4</ele>
        <time>2022-06-11T09:41:37Z</time>
      </trkpt>
      <trkpt lat="44.38382" lon="4.44516">
        <ele>181.8</ele>
        <time>2022-06-11T09:41:39Z</time>
      </trkpt>
      <trkpt lat="44.38382" lon="4.44517">
        <ele>182</ele>
        <time>2022-06-11T09:41:40Z</time>
      </trkpt>
      <trkpt lat="44.38383" lon="4.44519">
        <ele>182.1</ele>
        <time>2022-06-11T09:41:41Z</time>
      </trkpt>
      <trkpt lat="44.38383" lon="4.44521">
        <ele>182.3</ele>
        <time>2022-06-11T09:41:42Z</time>
      </trkpt>
      <trkpt lat="44.38384" lon="4.44523">
        <ele>182.4</ele>
        <time>2022-06-11T09:41:44Z</time>
      </trkpt>
      <trkpt lat="44.38384" lon="4.44525">
        <ele>182.6</ele>
        <time>2022-06-11T09:41:45Z</time>
      </trkpt>
      <trkpt lat="44.38385" lon="4.44527">
        <ele>182.8</ele>
        <time>2022-06-11T09:41:46Z</time>
      </trkpt>
      <trkpt lat="44.38386" lon="4.44529">
        <ele>182.9</ele>
        <time>2022-06-11T09:41:47Z</time>
      </trkpt>
      <trkpt lat="44.38386" lon="4.44531">
        <ele>183.1</ele>
        <time>2022-06-11T09:41:48Z</time>
      </trkpt>
      <trkpt lat="44.38386" lon="4.44533">
        <ele>183.2</ele>
        <time>2022-06-11T09:41:49Z</time>
      </trkpt>
      <trkpt lat="44.38387" lon="4.44536">
        <ele>183.5</ele>
        <time>2022-06-11T09:41:50Z</time>
      </trkpt>
      <trkpt lat="44.38387" lon="4.44538">
        <ele>183.6</ele>
        <time>2022-06-11T09:41:51Z</time>
      </trkpt>
      <trkpt lat="44.38388" lon="4.44539">
        <ele>183.8</ele>
        <time>2022-06-11T09:41:52Z</time>
      </trkpt>
      <trkpt lat="44.38388" lon="4.44544">
        <ele>184.1</ele>
        <time>2022-06-11T09:41:54Z</time>
      </trkpt>
      <trkpt lat="44.38388" lon="4.44546">
        <ele>184.3</ele>
        <time>2022-06-11T09:41:55Z</time>
      </trkpt>
      <trkpt lat="44.38388" lon="4.44549">
        <ele>184.5</ele>
        <time>2022-06-11T09:41:57Z</time>
      </trkpt>
      <trkpt lat="44.38388" lon="4.4455">
        <ele>184.6</ele>
        <time>2022-06-11T09:41:58Z</time>
      </trkpt>
      <trkpt lat="44.38389" lon="4.44551">
        <ele>184.7</ele>
        <time>2022-06-11T09:41:59Z</time>
      </trkpt>
      <trkpt lat="44.38389" lon="4.44554">
        <ele>184.9</ele>
        <time>2022-06-11T09:42:00Z</time>
      </trkpt>
      <trkpt lat="44.38389" lon="4.44556">
        <ele>185</ele>
        <time>2022-06-11T09:42:01Z</time>
      </trkpt>
      <trkpt lat="44.38389" lon="4.44557">
        <ele>185.1</ele>
        <time>2022-06-11T09:42:02Z</time>
      </trkpt>
      <trkpt lat="44.38389" lon="4.44559">
        <ele>185.3</ele>
        <time>2022-06-11T09:42:03Z</time>
      </trkpt>
      <trkpt lat="44.3839" lon="4.44562">
        <ele>185.4</ele>
        <time>2022-06-11T09:42:04Z</time>
      </trkpt>
      <trkpt lat="44.3839" lon="4.44564">
        <ele>185.6</ele>
        <time>2022-06-11T09:42:05Z</time>
      </trkpt>
      <trkpt lat="44.3839" lon="4.44568">
        <ele>186</ele>
        <time>2022-06-11T09:42:07Z</time>
      </trkpt>
      <trkpt lat="44.3839" lon="4.44571">
        <ele>186.1</ele>
        <time>2022-06-11T09:42:08Z</time>
      </trkpt>
      <trkpt lat="44.3839" lon="4.44572">
        <ele>186.3</ele>
        <time>2022-06-11T09:42:09Z</time>
      </trkpt>
      <trkpt lat="44.38391" lon="4.44575">
        <ele>186.5</ele>
        <time>2022-06-11T09:42:10Z</time>
      </trkpt>
      <trkpt lat="44.38391" lon="4.44577">
        <ele>186.6</ele>
        <time>2022-06-11T09:42:11Z</time>
      </trkpt>
      <trkpt lat="44.38391" lon="4.44578">
        <ele>186.7</ele>
        <time>2022-06-11T09:42:12Z</time>
      </trkpt>
      <trkpt lat="44.38391" lon="4.4458">
        <ele>186.9</ele>
        <time>2022-06-11T09:42:13Z</time>
      </trkpt>
      <trkpt lat="44.38392" lon="4.44582">
        <ele>187</ele>
        <time>2022-06-11T09:42:14Z</time>
      </trkpt>
      <trkpt lat="44.38392" lon="4.44586">
        <ele>187.3</ele>
        <time>2022-06-11T09:42:15Z</time>
      </trkpt>
      <trkpt lat="44.38392" lon="4.44587">
        <ele>187.5</ele>
        <time>2022-06-11T09:42:16Z</time>
      </trkpt>
      <trkpt lat="44.38393" lon="4.44589">
        <ele>187.6</ele>
        <time>2022-06-11T09:42:17Z</time>
      </trkpt>
      <trkpt lat="44.38393" lon="4.44591">
        <ele>187.8</ele>
        <time>2022-06-11T09:42:19Z</time>
      </trkpt>
      <trkpt lat="44.38393" lon="4.44593">
        <ele>187.9</ele>
        <time>2022-06-11T09:42:20Z</time>
      </trkpt>
      <trkpt lat="44.38393" lon="4.44595">
        <ele>188.1</ele>
        <time>2022-06-11T09:42:21Z</time>
      </trkpt>
      <trkpt lat="44.38394" lon="4.44598">
        <ele>188.3</ele>
        <time>2022-06-11T09:42:22Z</time>
      </trkpt>
      <trkpt lat="44.38394" lon="4.446">
        <ele>188.5</ele>
        <time>2022-06-11T09:42:23Z</time>
      </trkpt>
      <trkpt lat="44.38394" lon="4.44601">
        <ele>188.6</ele>
        <time>2022-06-11T09:42:24Z</time>
      </trkpt>
      <trkpt lat="44.38394" lon="4.44603">
        <ele>188.8</ele>
        <time>2022-06-11T09:42:25Z</time>
      </trkpt>
      <trkpt lat="44.38394" lon="4.44606">
        <ele>189</ele>
        <time>2022-06-11T09:42:26Z</time>
      </trkpt>
      <trkpt lat="44.38395" lon="4.44608">
        <ele>189.2</ele>
        <time>2022-06-11T09:42:27Z</time>
      </trkpt>
      <trkpt lat="44.38395" lon="4.4461">
        <ele>189.3</ele>
        <time>2022-06-11T09:42:28Z</time>
      </trkpt>
      <trkpt lat="44.38396" lon="4.44613">
        <ele>189.6</ele>
        <time>2022-06-11T09:42:29Z</time>
      </trkpt>
      <trkpt lat="44.38397" lon="4.44614">
        <ele>189.7</ele>
        <time>2022-06-11T09:42:31Z</time>
      </trkpt>
      <trkpt lat="44.38398" lon="4.44616">
        <ele>189.9</ele>
        <time>2022-06-11T09:42:32Z</time>
      </trkpt>
      <trkpt lat="44.38399" lon="4.44618">
        <ele>190</ele>
        <time>2022-06-11T09:42:33Z</time>
      </trkpt>
      <trkpt lat="44.38399" lon="4.4462">
        <ele>190.2</ele>
        <time>2022-06-11T09:42:34Z</time>
      </trkpt>
      <trkpt lat="44.384" lon="4.44621">
        <ele>190.4</ele>
        <time>2022-06-11T09:42:35Z</time>
      </trkpt>
      <trkpt lat="44.38401" lon="4.44623">
        <ele>190.6</ele>
        <time>2022-06-11T09:42:36Z</time>
      </trkpt>
      <trkpt lat="44.38402" lon="4.44625">
        <ele>190.7</ele>
        <time>2022-06-11T09:42:37Z</time>
      </trkpt>
      <trkpt lat="44.38403" lon="4.44626">
        <ele>190.9</ele>
        <time>2022-06-11T09:42:38Z</time>
      </trkpt>
      <trkpt lat="44.38404" lon="4.44628">
        <ele>191.1</ele>
        <time>2022-06-11T09:42:39Z</time>
      </trkpt>
      <trkpt lat="44.38405" lon="4.44631">
        <ele>191.3</ele>
        <time>2022-06-11T09:42:41Z</time>
      </trkpt>
      <trkpt lat="44.38406" lon="4.44632">
        <ele>191.4</ele>
        <time>2022-06-11T09:42:42Z</time>
      </trkpt>
      <trkpt lat="44.38407" lon="4.44633">
        <ele>191.6</ele>
        <time>2022-06-11T09:42:43Z</time>
      </trkpt>
      <trkpt lat="44.38408" lon="4.44635">
        <ele>191.7</ele>
        <time>2022-06-11T09:42:44Z</time>
      </trkpt>
      <trkpt lat="44.38409" lon="4.44636">
        <ele>191.9</ele>
        <time>2022-06-11T09:42:45Z</time>
      </trkpt>
      <trkpt lat="44.3841" lon="4.44638">
        <ele>192</ele>
        <time>2022-06-11T09:42:46Z</time>
      </trkpt>
      <trkpt lat="44.38413" lon="4.44641">
        <ele>192.4</ele>
        <time>2022-06-11T09:42:48Z</time>
      </trkpt>
      <trkpt lat="44.38414" lon="4.44642">
        <ele>192.5</ele>
        <time>2022-06-11T09:42:49Z</time>
      </trkpt>
      <trkpt lat="44.38415" lon="4.44643">
        <ele>192.7</ele>
        <time>2022-06-11T09:42:50Z</time>
      </trkpt>
      <trkpt lat="44.38417" lon="4.44645">
        <ele>192.9</ele>
        <time>2022-06-11T09:42:51Z</time>
      </trkpt>
      <trkpt lat="44.3842" lon="4.44647">
        <ele>193.2</ele>
        <time>2022-06-11T09:42:53Z</time>
      </trkpt>
      <trkpt lat="44.38422" lon="4.44652">
        <ele>193.6</ele>
        <time>2022-06-11T09:42:55Z</time>
      </trkpt>
      <trkpt lat="44.38423" lon="4.44653">
        <ele>193.8</ele>
        <time>2022-06-11T09:42:56Z</time>
      </trkpt>
      <trkpt lat="44.38423" lon="4.44655">
        <ele>193.9</ele>
        <time>2022-06-11T09:42:57Z</time>
      </trkpt>
      <trkpt lat="44.38426" lon="4.44658">
        <ele>194.3</ele>
        <time>2022-06-11T09:42:59Z</time>
      </trkpt>
      <trkpt lat="44.38427" lon="4.4466">
        <ele>194.4</ele>
        <time>2022-06-11T09:43:00Z</time>
      </trkpt>
      <trkpt lat="44.38428" lon="4.44661">
        <ele>194.6</ele>
        <time>2022-06-11T09:43:01Z</time>
      </trkpt>
      <trkpt lat="44.38429" lon="4.44663">
        <ele>194.7</ele>
        <time>2022-06-11T09:43:02Z</time>
      </trkpt>
      <trkpt lat="44.38429" lon="4.44664">
        <ele>194.9</ele>
        <time>2022-06-11T09:43:03Z</time>
      </trkpt>
      <trkpt lat="44.3843" lon="4.44666">
        <ele>195</ele>
        <time>2022-06-11T09:43:04Z</time>
      </trkpt>
      <trkpt lat="44.38432" lon="4.44668">
        <ele>195.3</ele>
        <time>2022-06-11T09:43:05Z</time>
      </trkpt>
      <trkpt lat="44.38433" lon="4.44669">
        <ele>195.4</ele>
        <time>2022-06-11T09:43:06Z</time>
      </trkpt>
      <trkpt lat="44.38435" lon="4.44672">
        <ele>195.7</ele>
        <time>2022-06-11T09:43:08Z</time>
      </trkpt>
      <trkpt lat="44.38437" lon="4.44673">
        <ele>195.9</ele>
        <time>2022-06-11T09:43:09Z</time>
      </trkpt>
      <trkpt lat="44.38437" lon="4.44675">
        <ele>196.1</ele>
        <time>2022-06-11T09:43:10Z</time>
      </trkpt>
      <trkpt lat="44.38438" lon="4.44677">
        <ele>196.2</ele>
        <time>2022-06-11T09:43:11Z</time>
      </trkpt>
      <trkpt lat="44.38439" lon="4.44679">
        <ele>196.4</ele>
        <time>2022-06-11T09:43:12Z</time>
      </trkpt>
      <trkpt lat="44.38439" lon="4.44681">
        <ele>196.5</ele>
        <time>2022-06-11T09:43:13Z</time>
      </trkpt>
      <trkpt lat="44.3844" lon="4.44682">
        <ele>196.7</ele>
        <time>2022-06-11T09:43:14Z</time>
      </trkpt>
      <trkpt lat="44.3844" lon="4.44686">
        <ele>196.9</ele>
        <time>2022-06-11T09:43:16Z</time>
      </trkpt>
      <trkpt lat="44.3844" lon="4.4469">
        <ele>197.2</ele>
        <time>2022-06-11T09:43:18Z</time>
      </trkpt>
      <trkpt lat="44.3844" lon="4.44692">
        <ele>197.4</ele>
        <time>2022-06-11T09:43:19Z</time>
      </trkpt>
      <trkpt lat="44.3844" lon="4.44694">
        <ele>197.6</ele>
        <time>2022-06-11T09:43:20Z</time>
      </trkpt>
      <trkpt lat="44.3844" lon="4.44697">
        <ele>197.8</ele>
        <time>2022-06-11T09:43:21Z</time>
      </trkpt>
      <trkpt lat="44.3844" lon="4.44699">
        <ele>197.9</ele>
        <time>2022-06-11T09:43:22Z</time>
      </trkpt>
      <trkpt lat="44.3844" lon="4.44701">
        <ele>198</ele>
        <time>2022-06-11T09:43:23Z</time>
      </trkpt>
      <trkpt lat="44.3844" lon="4.44703">
        <ele>198.2</ele>
        <time>2022-06-11T09:43:24Z</time>
      </trkpt>
      <trkpt lat="44.3844" lon="4.44705">
        <ele>198.3</ele>
        <time>2022-06-11T09:43:25Z</time>
      </trkpt>
      <trkpt lat="44.3844" lon="4.44707">
        <ele>198.4</ele>
        <time>2022-06-11T09:43:26Z</time>
      </trkpt>
      <trkpt lat="44.38441" lon="4.4471">
        <ele>198.6</ele>
        <time>2022-06-11T09:43:27Z</time>
      </trkpt>
      <trkpt lat="44.38441" lon="4.44712">
        <ele>198.7</ele>
        <time>2022-06-11T09:43:28Z</time>
      </trkpt>
      <trkpt lat="44.38441" lon="4.44715">
        <ele>198.9</ele>
        <time>2022-06-11T09:43:29Z</time>
      </trkpt>
      <trkpt lat="44.3844" lon="4.44717">
        <ele>199</ele>
        <time>2022-06-11T09:43:30Z</time>
      </trkpt>
      <trkpt lat="44.3844" lon="4.44719">
        <ele>199.1</ele>
        <time>2022-06-11T09:43:31Z</time>
      </trkpt>
      <trkpt lat="44.3844" lon="4.44721">
        <ele>199.3</ele>
        <time>2022-06-11T09:43:32Z</time>
      </trkpt>
      <trkpt lat="44.38441" lon="4.44723">
        <ele>199.4</ele>
        <time>2022-06-11T09:43:33Z</time>
      </trkpt>
      <trkpt lat="44.38441" lon="4.44726">
        <ele>199.5</ele>
        <time>2022-06-11T09:43:34Z</time>
      </trkpt>
      <trkpt lat="44.38441" lon="4.4473">
        <ele>199.8</ele>
        <time>2022-06-11T09:43:35Z</time>
      </trkpt>
      <trkpt lat="44.38441" lon="4.44731">
        <ele>199.8</ele>
        <time>2022-06-11T09:43:36Z</time>
      </trkpt>
      <trkpt lat="44.38441" lon="4.44733">
        <ele>199.9</ele>
        <time>2022-06-11T09:43:37Z</time>
      </trkpt>
      <trkpt lat="44.38442" lon="4.44735">
        <ele>200.1</ele>
        <time>2022-06-11T09:43:38Z</time>
      </trkpt>
      <trkpt lat="44.38442" lon="4.44739">
        <ele>200.3</ele>
        <time>2022-06-11T09:43:39Z</time>
      </trkpt>
      <trkpt lat="44.38442" lon="4.44741">
        <ele>200.4</ele>
        <time>2022-06-11T09:43:40Z</time>
      </trkpt>
      <trkpt lat="44.38442" lon="4.44743">
        <ele>200.5</ele>
        <time>2022-06-11T09:43:41Z</time>
      </trkpt>
      <trkpt lat="44.38443" lon="4.44746">
        <ele>200.6</ele>
        <time>2022-06-11T09:43:42Z</time>
      </trkpt>
      <trkpt lat="44.38442" lon="4.44748">
        <ele>200.8</ele>
        <time>2022-06-11T09:43:43Z</time>
      </trkpt>
      <trkpt lat="44.38442" lon="4.4475">
        <ele>200.9</ele>
        <time>2022-06-11T09:43:44Z</time>
      </trkpt>
      <trkpt lat="44.38442" lon="4.44752">
        <ele>201</ele>
        <time>2022-06-11T09:43:45Z</time>
      </trkpt>
      <trkpt lat="44.38442" lon="4.44755">
        <ele>201.1</ele>
        <time>2022-06-11T09:43:46Z</time>
      </trkpt>
      <trkpt lat="44.38442" lon="4.44757">
        <ele>201.3</ele>
        <time>2022-06-11T09:43:47Z</time>
      </trkpt>
      <trkpt lat="44.38442" lon="4.44761">
        <ele>201.5</ele>
        <time>2022-06-11T09:43:49Z</time>
      </trkpt>
      <trkpt lat="44.38442" lon="4.44763">
        <ele>201.6</ele>
        <time>2022-06-11T09:43:50Z</time>
      </trkpt>
      <trkpt lat="44.38442" lon="4.44768">
        <ele>201.8</ele>
        <time>2022-06-11T09:43:51Z</time>
      </trkpt>
      <trkpt lat="44.38442" lon="4.4477">
        <ele>202</ele>
        <time>2022-06-11T09:43:53Z</time>
      </trkpt>
      <trkpt lat="44.38442" lon="4.44772">
        <ele>202.1</ele>
        <time>2022-06-11T09:43:54Z</time>
      </trkpt>
      <trkpt lat="44.38442" lon="4.44775">
        <ele>202.2</ele>
        <time>2022-06-11T09:43:55Z</time>
      </trkpt>
      <trkpt lat="44.38441" lon="4.44777">
        <ele>202.4</ele>
        <time>2022-06-11T09:43:56Z</time>
      </trkpt>
      <trkpt lat="44.38441" lon="4.44779">
        <ele>202.5</ele>
        <time>2022-06-11T09:43:57Z</time>
      </trkpt>
      <trkpt lat="44.38439" lon="4.44783">
        <ele>203.2</ele>
        <time>2022-06-11T09:43:58Z</time>
      </trkpt>
      <trkpt lat="44.38438" lon="4.44787">
        <ele>203.4</ele>
        <time>2022-06-11T09:43:59Z</time>
      </trkpt>
      <trkpt lat="44.38438" lon="4.44788">
        <ele>203.5</ele>
        <time>2022-06-11T09:44:00Z</time>
      </trkpt>
      <trkpt lat="44.38435" lon="4.44792">
        <ele>203.8</ele>
        <time>2022-06-11T09:44:02Z</time>
      </trkpt>
      <trkpt lat="44.38432" lon="4.44794">
        <ele>204.1</ele>
        <time>2022-06-11T09:44:03Z</time>
      </trkpt>
      <trkpt lat="44.3843" lon="4.44795">
        <ele>204.2</ele>
        <time>2022-06-11T09:44:05Z</time>
      </trkpt>
      <trkpt lat="44.38428" lon="4.44795">
        <ele>204.4</ele>
        <time>2022-06-11T09:44:07Z</time>
      </trkpt>
      <trkpt lat="44.38424" lon="4.44791">
        <ele>204.7</ele>
        <time>2022-06-11T09:44:08Z</time>
      </trkpt>
      <trkpt lat="44.38423" lon="4.44789">
        <ele>204.8</ele>
        <time>2022-06-11T09:44:09Z</time>
      </trkpt>
      <trkpt lat="44.38421" lon="4.44783">
        <ele>205.1</ele>
        <time>2022-06-11T09:44:11Z</time>
      </trkpt>
      <trkpt lat="44.3842" lon="4.44781">
        <ele>205.2</ele>
        <time>2022-06-11T09:44:12Z</time>
      </trkpt>
      <trkpt lat="44.3842" lon="4.44779">
        <ele>205.3</ele>
        <time>2022-06-11T09:44:13Z</time>
      </trkpt>
      <trkpt lat="44.3842" lon="4.44775">
        <ele>205.5</ele>
        <time>2022-06-11T09:44:14Z</time>
      </trkpt>
      <trkpt lat="44.3842" lon="4.44774">
        <ele>205.6</ele>
        <time>2022-06-11T09:44:15Z</time>
      </trkpt>
      <trkpt lat="44.3842" lon="4.44771">
        <ele>205.7</ele>
        <time>2022-06-11T09:44:16Z</time>
      </trkpt>
      <trkpt lat="44.3842" lon="4.44769">
        <ele>205.9</ele>
        <time>2022-06-11T09:44:17Z</time>
      </trkpt>
      <trkpt lat="44.38421" lon="4.44767">
        <ele>206</ele>
        <time>2022-06-11T09:44:18Z</time>
      </trkpt>
      <trkpt lat="44.38421" lon="4.44765">
        <ele>206.1</ele>
        <time>2022-06-11T09:44:19Z</time>
      </trkpt>
      <trkpt lat="44.38422" lon="4.44762">
        <ele>206.3</ele>
        <time>2022-06-11T09:44:20Z</time>
      </trkpt>
      <trkpt lat="44.38422" lon="4.44758">
        <ele>206.5</ele>
        <time>2022-06-11T09:44:21Z</time>
      </trkpt>
      <trkpt lat="44.38424" lon="4.44754">
        <ele>206.8</ele>
        <time>2022-06-11T09:44:23Z</time>
      </trkpt>
      <trkpt lat="44.38424" lon="4.44752">
        <ele>206.9</ele>
        <time>2022-06-11T09:44:24Z</time>
      </trkpt>
      <trkpt lat="44.38425" lon="4.44751">
        <ele>207</ele>
        <time>2022-06-11T09:44:25Z</time>
      </trkpt>
      <trkpt lat="44.38424" lon="4.44749">
        <ele>207.1</ele>
        <time>2022-06-11T09:44:26Z</time>
      </trkpt>
      <trkpt lat="44.38424" lon="4.44747">
        <ele>207.2</ele>
        <time>2022-06-11T09:44:27Z</time>
      </trkpt>
      <trkpt lat="44.38424" lon="4.44745">
        <ele>207.3</ele>
        <time>2022-06-11T09:44:28Z</time>
      </trkpt>
      <trkpt lat="44.38425" lon="4.44742">
        <ele>207.5</ele>
        <time>2022-06-11T09:44:29Z</time>
      </trkpt>
      <trkpt lat="44.38424" lon="4.44738">
        <ele>207.7</ele>
        <time>2022-06-11T09:44:30Z</time>
      </trkpt>
      <trkpt lat="44.38424" lon="4.44737">
        <ele>207.8</ele>
        <time>2022-06-11T09:44:31Z</time>
      </trkpt>
      <trkpt lat="44.38424" lon="4.44733">
        <ele>208.1</ele>
        <time>2022-06-11T09:44:32Z</time>
      </trkpt>
      <trkpt lat="44.38423" lon="4.44731">
        <ele>208.2</ele>
        <time>2022-06-11T09:44:33Z</time>
      </trkpt>
      <trkpt lat="44.38423" lon="4.44729">
        <ele>208.3</ele>
        <time>2022-06-11T09:44:34Z</time>
      </trkpt>
      <trkpt lat="44.38422" lon="4.44726">
        <ele>208.5</ele>
        <time>2022-06-11T09:44:36Z</time>
      </trkpt>
      <trkpt lat="44.38422" lon="4.44724">
        <ele>208.6</ele>
        <time>2022-06-11T09:44:37Z</time>
      </trkpt>
      <trkpt lat="44.38422" lon="4.44722">
        <ele>208.8</ele>
        <time>2022-06-11T09:44:38Z</time>
      </trkpt>
      <trkpt lat="44.38421" lon="4.4472">
        <ele>208.9</ele>
        <time>2022-06-11T09:44:39Z</time>
      </trkpt>
      <trkpt lat="44.3842" lon="4.44718">
        <ele>209</ele>
        <time>2022-06-11T09:44:40Z</time>
      </trkpt>
      <trkpt lat="44.3842" lon="4.44716">
        <ele>209.2</ele>
        <time>2022-06-11T09:44:41Z</time>
      </trkpt>
      <trkpt lat="44.38419" lon="4.44713">
        <ele>209.3</ele>
        <time>2022-06-11T09:44:42Z</time>
      </trkpt>
      <trkpt lat="44.38418" lon="4.44711">
        <ele>209.5</ele>
        <time>2022-06-11T09:44:43Z</time>
      </trkpt>
      <trkpt lat="44.38417" lon="4.4471">
        <ele>209.6</ele>
        <time>2022-06-11T09:44:44Z</time>
      </trkpt>
      <trkpt lat="44.38415" lon="4.44706">
        <ele>209.9</ele>
        <time>2022-06-11T09:44:45Z</time>
      </trkpt>
      <trkpt lat="44.38415" lon="4.44704">
        <ele>210</ele>
        <time>2022-06-11T09:44:46Z</time>
      </trkpt>
      <trkpt lat="44.38413" lon="4.44701">
        <ele>210.3</ele>
        <time>2022-06-11T09:44:48Z</time>
      </trkpt>
      <trkpt lat="44.38412" lon="4.44699">
        <ele>210.4</ele>
        <time>2022-06-11T09:44:49Z</time>
      </trkpt>
      <trkpt lat="44.38411" lon="4.44697">
        <ele>210.6</ele>
        <time>2022-06-11T09:44:50Z</time>
      </trkpt>
      <trkpt lat="44.3841" lon="4.44695">
        <ele>210.8</ele>
        <time>2022-06-11T09:44:52Z</time>
      </trkpt>
      <trkpt lat="44.38408" lon="4.44693">
        <ele>211</ele>
        <time>2022-06-11T09:44:53Z</time>
      </trkpt>
      <trkpt lat="44.38407" lon="4.44692">
        <ele>211.1</ele>
        <time>2022-06-11T09:44:54Z</time>
      </trkpt>
      <trkpt lat="44.38405" lon="4.44688">
        <ele>211.4</ele>
        <time>2022-06-11T09:44:55Z</time>
      </trkpt>
      <trkpt lat="44.38404" lon="4.44687">
        <ele>211.6</ele>
        <time>2022-06-11T09:44:56Z</time>
      </trkpt>
      <trkpt lat="44.38402" lon="4.44683">
        <ele>211.9</ele>
        <time>2022-06-11T09:44:58Z</time>
      </trkpt>
      <trkpt lat="44.38401" lon="4.44681">
        <ele>212.1</ele>
        <time>2022-06-11T09:44:59Z</time>
      </trkpt>
      <trkpt lat="44.38398" lon="4.44678">
        <ele>212.4</ele>
        <time>2022-06-11T09:45:01Z</time>
      </trkpt>
      <trkpt lat="44.38398" lon="4.44677">
        <ele>212.6</ele>
        <time>2022-06-11T09:45:02Z</time>
      </trkpt>
      <trkpt lat="44.38396" lon="4.44675">
        <ele>212.7</ele>
        <time>2022-06-11T09:45:04Z</time>
      </trkpt>
      <trkpt lat="44.38395" lon="4.44673">
        <ele>212.9</ele>
        <time>2022-06-11T09:45:05Z</time>
      </trkpt>
      <trkpt lat="44.38393" lon="4.44671">
        <ele>213.2</ele>
        <time>2022-06-11T09:45:06Z</time>
      </trkpt>
      <trkpt lat="44.38392" lon="4.44669">
        <ele>213.3</ele>
        <time>2022-06-11T09:45:08Z</time>
      </trkpt>
      <trkpt lat="44.38391" lon="4.44667">
        <ele>213.6</ele>
        <time>2022-06-11T09:45:09Z</time>
      </trkpt>
      <trkpt lat="44.3839" lon="4.44666">
        <ele>213.7</ele>
        <time>2022-06-11T09:45:10Z</time>
      </trkpt>
      <trkpt lat="44.38389" lon="4.44665">
        <ele>213.8</ele>
        <time>2022-06-11T09:45:11Z</time>
      </trkpt>
      <trkpt lat="44.38387" lon="4.44663">
        <ele>214.1</ele>
        <time>2022-06-11T09:45:12Z</time>
      </trkpt>
      <trkpt lat="44.38386" lon="4.44662">
        <ele>214.2</ele>
        <time>2022-06-11T09:45:14Z</time>
      </trkpt>
      <trkpt lat="44.38384" lon="4.44659">
        <ele>214.5</ele>
        <time>2022-06-11T09:45:15Z</time>
      </trkpt>
      <trkpt lat="44.38382" lon="4.44657">
        <ele>214.7</ele>
        <time>2022-06-11T09:45:17Z</time>
      </trkpt>
      <trkpt lat="44.38381" lon="4.44656">
        <ele>214.9</ele>
        <time>2022-06-11T09:45:18Z</time>
      </trkpt>
      <trkpt lat="44.38381" lon="4.44655">
        <ele>215</ele>
        <time>2022-06-11T09:45:19Z</time>
      </trkpt>
      <trkpt lat="44.38379" lon="4.44653">
        <ele>215.2</ele>
        <time>2022-06-11T09:45:20Z</time>
      </trkpt>
      <trkpt lat="44.38378" lon="4.44652">
        <ele>215.3</ele>
        <time>2022-06-11T09:45:21Z</time>
      </trkpt>
      <trkpt lat="44.38377" lon="4.44651">
        <ele>215.5</ele>
        <time>2022-06-11T09:45:22Z</time>
      </trkpt>
      <trkpt lat="44.38376" lon="4.44649">
        <ele>215.6</ele>
        <time>2022-06-11T09:45:23Z</time>
      </trkpt>
      <trkpt lat="44.38376" lon="4.44647">
        <ele>215.8</ele>
        <time>2022-06-11T09:45:24Z</time>
      </trkpt>
      <trkpt lat="44.38375" lon="4.44646">
        <ele>215.9</ele>
        <time>2022-06-11T09:45:25Z</time>
      </trkpt>
      <trkpt lat="44.38373" lon="4.44644">
        <ele>216.1</ele>
        <time>2022-06-11T09:45:26Z</time>
      </trkpt>
      <trkpt lat="44.38372" lon="4.44643">
        <ele>216.3</ele>
        <time>2022-06-11T09:45:27Z</time>
      </trkpt>
      <trkpt lat="44.38371" lon="4.44641">
        <ele>216.4</ele>
        <time>2022-06-11T09:45:28Z</time>
      </trkpt>
      <trkpt lat="44.38369" lon="4.4464">
        <ele>216.6</ele>
        <time>2022-06-11T09:45:29Z</time>
      </trkpt>
      <trkpt lat="44.38368" lon="4.44639">
        <ele>216.8</ele>
        <time>2022-06-11T09:45:30Z</time>
      </trkpt>
      <trkpt lat="44.38367" lon="4.44637">
        <ele>217</ele>
        <time>2022-06-11T09:45:31Z</time>
      </trkpt>
      <trkpt lat="44.38366" lon="4.44636">
        <ele>217.1</ele>
        <time>2022-06-11T09:45:32Z</time>
      </trkpt>
      <trkpt lat="44.38365" lon="4.44634">
        <ele>217.3</ele>
        <time>2022-06-11T09:45:33Z</time>
      </trkpt>
      <trkpt lat="44.38364" lon="4.44633">
        <ele>217.4</ele>
        <time>2022-06-11T09:45:34Z</time>
      </trkpt>
      <trkpt lat="44.38363" lon="4.44632">
        <ele>217.6</ele>
        <time>2022-06-11T09:45:35Z</time>
      </trkpt>
      <trkpt lat="44.38361" lon="4.44629">
        <ele>217.9</ele>
        <time>2022-06-11T09:45:36Z</time>
      </trkpt>
      <trkpt lat="44.38358" lon="4.44627">
        <ele>218.2</ele>
        <time>2022-06-11T09:45:38Z</time>
      </trkpt>
      <trkpt lat="44.38356" lon="4.44624">
        <ele>218.5</ele>
        <time>2022-06-11T09:45:41Z</time>
      </trkpt>
      <trkpt lat="44.38355" lon="4.44623">
        <ele>218.7</ele>
        <time>2022-06-11T09:45:42Z</time>
      </trkpt>
      <trkpt lat="44.38354" lon="4.44621">
        <ele>218.9</ele>
        <time>2022-06-11T09:45:43Z</time>
      </trkpt>
      <trkpt lat="44.38353" lon="4.4462">
        <ele>219</ele>
        <time>2022-06-11T09:45:44Z</time>
      </trkpt>
      <trkpt lat="44.38353" lon="4.44619">
        <ele>219.1</ele>
        <time>2022-06-11T09:45:45Z</time>
      </trkpt>
      <trkpt lat="44.38352" lon="4.44617">
        <ele>219.3</ele>
        <time>2022-06-11T09:45:46Z</time>
      </trkpt>
      <trkpt lat="44.38351" lon="4.44615">
        <ele>219.5</ele>
        <time>2022-06-11T09:45:47Z</time>
      </trkpt>
      <trkpt lat="44.3835" lon="4.44614">
        <ele>219.6</ele>
        <time>2022-06-11T09:45:48Z</time>
      </trkpt>
      <trkpt lat="44.38348" lon="4.44611">
        <ele>219.9</ele>
        <time>2022-06-11T09:45:50Z</time>
      </trkpt>
      <trkpt lat="44.38347" lon="4.44609">
        <ele>220.1</ele>
        <time>2022-06-11T09:45:51Z</time>
      </trkpt>
      <trkpt lat="44.38346" lon="4.44608">
        <ele>220.2</ele>
        <time>2022-06-11T09:45:52Z</time>
      </trkpt>
      <trkpt lat="44.38344" lon="4.44604">
        <ele>220.6</ele>
        <time>2022-06-11T09:45:54Z</time>
      </trkpt>
      <trkpt lat="44.38342" lon="4.44603">
        <ele>220.7</ele>
        <time>2022-06-11T09:45:55Z</time>
      </trkpt>
      <trkpt lat="44.38341" lon="4.44602">
        <ele>220.9</ele>
        <time>2022-06-11T09:45:56Z</time>
      </trkpt>
      <trkpt lat="44.38339" lon="4.44599">
        <ele>221.2</ele>
        <time>2022-06-11T09:45:57Z</time>
      </trkpt>
      <trkpt lat="44.38339" lon="4.44598">
        <ele>221.3</ele>
        <time>2022-06-11T09:45:58Z</time>
      </trkpt>
      <trkpt lat="44.38336" lon="4.44595">
        <ele>221.6</ele>
        <time>2022-06-11T09:46:00Z</time>
      </trkpt>
      <trkpt lat="44.38336" lon="4.44593">
        <ele>221.7</ele>
        <time>2022-06-11T09:46:01Z</time>
      </trkpt>
      <trkpt lat="44.38334" lon="4.44592">
        <ele>221.9</ele>
        <time>2022-06-11T09:46:03Z</time>
      </trkpt>
      <trkpt lat="44.38334" lon="4.4459">
        <ele>222.1</ele>
        <time>2022-06-11T09:46:04Z</time>
      </trkpt>
      <trkpt lat="44.38332" lon="4.44587">
        <ele>222.3</ele>
        <time>2022-06-11T09:46:05Z</time>
      </trkpt>
      <trkpt lat="44.38331" lon="4.44586">
        <ele>222.5</ele>
        <time>2022-06-11T09:46:06Z</time>
      </trkpt>
      <trkpt lat="44.38329" lon="4.44583">
        <ele>222.8</ele>
        <time>2022-06-11T09:46:08Z</time>
      </trkpt>
      <trkpt lat="44.38329" lon="4.44582">
        <ele>222.9</ele>
        <time>2022-06-11T09:46:09Z</time>
      </trkpt>
      <trkpt lat="44.38328" lon="4.4458">
        <ele>223</ele>
        <time>2022-06-11T09:46:10Z</time>
      </trkpt>
      <trkpt lat="44.38327" lon="4.44579">
        <ele>223.2</ele>
        <time>2022-06-11T09:46:11Z</time>
      </trkpt>
      <trkpt lat="44.38326" lon="4.44577">
        <ele>223.3</ele>
        <time>2022-06-11T09:46:12Z</time>
      </trkpt>
      <trkpt lat="44.38325" lon="4.44575">
        <ele>223.5</ele>
        <time>2022-06-11T09:46:13Z</time>
      </trkpt>
      <trkpt lat="44.38324" lon="4.44574">
        <ele>223.7</ele>
        <time>2022-06-11T09:46:14Z</time>
      </trkpt>
      <trkpt lat="44.38322" lon="4.44571">
        <ele>224</ele>
        <time>2022-06-11T09:46:15Z</time>
      </trkpt>
      <trkpt lat="44.38321" lon="4.44569">
        <ele>224.2</ele>
        <time>2022-06-11T09:46:16Z</time>
      </trkpt>
      <trkpt lat="44.3832" lon="4.44567">
        <ele>224.4</ele>
        <time>2022-06-11T09:46:18Z</time>
      </trkpt>
      <trkpt lat="44.38319" lon="4.44566">
        <ele>224.5</ele>
        <time>2022-06-11T09:46:19Z</time>
      </trkpt>
      <trkpt lat="44.38319" lon="4.44564">
        <ele>224.6</ele>
        <time>2022-06-11T09:46:20Z</time>
      </trkpt>
      <trkpt lat="44.38318" lon="4.44562">
        <ele>224.8</ele>
        <time>2022-06-11T09:46:21Z</time>
      </trkpt>
      <trkpt lat="44.38317" lon="4.44561">
        <ele>224.9</ele>
        <time>2022-06-11T09:46:22Z</time>
      </trkpt>
      <trkpt lat="44.38316" lon="4.44559">
        <ele>225.1</ele>
        <time>2022-06-11T09:46:23Z</time>
      </trkpt>
      <trkpt lat="44.38315" lon="4.44558">
        <ele>225.3</ele>
        <time>2022-06-11T09:46:24Z</time>
      </trkpt>
      <trkpt lat="44.38313" lon="4.44554">
        <ele>225.6</ele>
        <time>2022-06-11T09:46:25Z</time>
      </trkpt>
      <trkpt lat="44.38313" lon="4.44552">
        <ele>225.7</ele>
        <time>2022-06-11T09:46:26Z</time>
      </trkpt>
      <trkpt lat="44.38312" lon="4.44551">
        <ele>225.9</ele>
        <time>2022-06-11T09:46:27Z</time>
      </trkpt>
      <trkpt lat="44.38311" lon="4.4455">
        <ele>226</ele>
        <time>2022-06-11T09:46:28Z</time>
      </trkpt>
      <trkpt lat="44.3831" lon="4.44548">
        <ele>226.2</ele>
        <time>2022-06-11T09:46:30Z</time>
      </trkpt>
      <trkpt lat="44.38309" lon="4.44546">
        <ele>226.4</ele>
        <time>2022-06-11T09:46:31Z</time>
      </trkpt>
      <trkpt lat="44.38308" lon="4.44544">
        <ele>226.6</ele>
        <time>2022-06-11T09:46:32Z</time>
      </trkpt>
      <trkpt lat="44.38307" lon="4.44542">
        <ele>226.7</ele>
        <time>2022-06-11T09:46:33Z</time>
      </trkpt>
      <trkpt lat="44.38307" lon="4.4454">
        <ele>226.9</ele>
        <time>2022-06-11T09:46:34Z</time>
      </trkpt>
      <trkpt lat="44.38305" lon="4.44538">
        <ele>227.1</ele>
        <time>2022-06-11T09:46:35Z</time>
      </trkpt>
      <trkpt lat="44.38305" lon="4.44536">
        <ele>227.3</ele>
        <time>2022-06-11T09:46:36Z</time>
      </trkpt>
      <trkpt lat="44.38303" lon="4.44534">
        <ele>227.6</ele>
        <time>2022-06-11T09:46:38Z</time>
      </trkpt>
      <trkpt lat="44.38301" lon="4.44531">
        <ele>227.9</ele>
        <time>2022-06-11T09:46:40Z</time>
      </trkpt>
      <trkpt lat="44.38301" lon="4.44529">
        <ele>228</ele>
        <time>2022-06-11T09:46:41Z</time>
      </trkpt>
      <trkpt lat="44.383" lon="4.44527">
        <ele>228.2</ele>
        <time>2022-06-11T09:46:42Z</time>
      </trkpt>
      <trkpt lat="44.38299" lon="4.44524">
        <ele>228.4</ele>
        <time>2022-06-11T09:46:43Z</time>
      </trkpt>
      <trkpt lat="44.38297" lon="4.44522">
        <ele>228.7</ele>
        <time>2022-06-11T09:46:45Z</time>
      </trkpt>
      <trkpt lat="44.38295" lon="4.44519">
        <ele>229</ele>
        <time>2022-06-11T09:46:46Z</time>
      </trkpt>
      <trkpt lat="44.38294" lon="4.44517">
        <ele>229.2</ele>
        <time>2022-06-11T09:46:48Z</time>
      </trkpt>
      <trkpt lat="44.38293" lon="4.44515">
        <ele>229.3</ele>
        <time>2022-06-11T09:46:49Z</time>
      </trkpt>
      <trkpt lat="44.38292" lon="4.44513">
        <ele>229.5</ele>
        <time>2022-06-11T09:46:50Z</time>
      </trkpt>
      <trkpt lat="44.38291" lon="4.4451">
        <ele>229.8</ele>
        <time>2022-06-11T09:46:51Z</time>
      </trkpt>
      <trkpt lat="44.3829" lon="4.44508">
        <ele>230</ele>
        <time>2022-06-11T09:46:53Z</time>
      </trkpt>
      <trkpt lat="44.38289" lon="4.44505">
        <ele>230.1</ele>
        <time>2022-06-11T09:46:54Z</time>
      </trkpt>
      <trkpt lat="44.38288" lon="4.44504">
        <ele>230.3</ele>
        <time>2022-06-11T09:46:55Z</time>
      </trkpt>
      <trkpt lat="44.38287" lon="4.44502">
        <ele>230.4</ele>
        <time>2022-06-11T09:46:56Z</time>
      </trkpt>
      <trkpt lat="44.38286" lon="4.445">
        <ele>230.6</ele>
        <time>2022-06-11T09:46:57Z</time>
      </trkpt>
      <trkpt lat="44.38286" lon="4.44498">
        <ele>230.7</ele>
        <time>2022-06-11T09:46:58Z</time>
      </trkpt>
      <trkpt lat="44.38285" lon="4.44497">
        <ele>230.9</ele>
        <time>2022-06-11T09:46:59Z</time>
      </trkpt>
      <trkpt lat="44.38284" lon="4.44495">
        <ele>231</ele>
        <time>2022-06-11T09:47:00Z</time>
      </trkpt>
      <trkpt lat="44.38283" lon="4.44492">
        <ele>231.3</ele>
        <time>2022-06-11T09:47:02Z</time>
      </trkpt>
      <trkpt lat="44.38281" lon="4.44489">
        <ele>231.6</ele>
        <time>2022-06-11T09:47:03Z</time>
      </trkpt>
      <trkpt lat="44.38281" lon="4.44488">
        <ele>231.7</ele>
        <time>2022-06-11T09:47:04Z</time>
      </trkpt>
      <trkpt lat="44.38279" lon="4.44485">
        <ele>231.9</ele>
        <time>2022-06-11T09:47:05Z</time>
      </trkpt>
      <trkpt lat="44.38279" lon="4.44484">
        <ele>232</ele>
        <time>2022-06-11T09:47:06Z</time>
      </trkpt>
      <trkpt lat="44.38278" lon="4.44483">
        <ele>232.1</ele>
        <time>2022-06-11T09:47:07Z</time>
      </trkpt>
      <trkpt lat="44.38277" lon="4.44481">
        <ele>232.3</ele>
        <time>2022-06-11T09:47:09Z</time>
      </trkpt>
      <trkpt lat="44.38276" lon="4.4448">
        <ele>232.4</ele>
        <time>2022-06-11T09:47:10Z</time>
      </trkpt>
      <trkpt lat="44.38275" lon="4.44478">
        <ele>232.6</ele>
        <time>2022-06-11T09:47:11Z</time>
      </trkpt>
      <trkpt lat="44.38274" lon="4.44477">
        <ele>232.8</ele>
        <time>2022-06-11T09:47:12Z</time>
      </trkpt>
      <trkpt lat="44.38273" lon="4.44475">
        <ele>232.9</ele>
        <time>2022-06-11T09:47:13Z</time>
      </trkpt>
      <trkpt lat="44.38272" lon="4.44474">
        <ele>233.1</ele>
        <time>2022-06-11T09:47:14Z</time>
      </trkpt>
      <trkpt lat="44.3827" lon="4.44469">
        <ele>233.5</ele>
        <time>2022-06-11T09:47:16Z</time>
      </trkpt>
      <trkpt lat="44.38269" lon="4.44467">
        <ele>233.7</ele>
        <time>2022-06-11T09:47:17Z</time>
      </trkpt>
      <trkpt lat="44.38268" lon="4.44466">
        <ele>233.9</ele>
        <time>2022-06-11T09:47:19Z</time>
      </trkpt>
      <trkpt lat="44.38267" lon="4.44464">
        <ele>234.1</ele>
        <time>2022-06-11T09:47:20Z</time>
      </trkpt>
      <trkpt lat="44.38266" lon="4.44463">
        <ele>234.2</ele>
        <time>2022-06-11T09:47:21Z</time>
      </trkpt>
      <trkpt lat="44.38264" lon="4.44461">
        <ele>234.5</ele>
        <time>2022-06-11T09:47:22Z</time>
      </trkpt>
      <trkpt lat="44.38264" lon="4.4446">
        <ele>234.6</ele>
        <time>2022-06-11T09:47:23Z</time>
      </trkpt>
      <trkpt lat="44.38263" lon="4.44459">
        <ele>234.7</ele>
        <time>2022-06-11T09:47:24Z</time>
      </trkpt>
      <trkpt lat="44.38262" lon="4.44458">
        <ele>234.8</ele>
        <time>2022-06-11T09:47:25Z</time>
      </trkpt>
      <trkpt lat="44.38261" lon="4.44456">
        <ele>235</ele>
        <time>2022-06-11T09:47:26Z</time>
      </trkpt>
      <trkpt lat="44.3826" lon="4.44455">
        <ele>235.1</ele>
        <time>2022-06-11T09:47:27Z</time>
      </trkpt>
      <trkpt lat="44.38258" lon="4.44454">
        <ele>235.3</ele>
        <time>2022-06-11T09:47:28Z</time>
      </trkpt>
      <trkpt lat="44.38257" lon="4.44453">
        <ele>235.5</ele>
        <time>2022-06-11T09:47:29Z</time>
      </trkpt>
      <trkpt lat="44.38256" lon="4.44452">
        <ele>235.6</ele>
        <time>2022-06-11T09:47:30Z</time>
      </trkpt>
      <trkpt lat="44.38255" lon="4.4445">
        <ele>235.8</ele>
        <time>2022-06-11T09:47:31Z</time>
      </trkpt>
      <trkpt lat="44.38254" lon="4.44449">
        <ele>235.9</ele>
        <time>2022-06-11T09:47:32Z</time>
      </trkpt>
      <trkpt lat="44.38252" lon="4.44447">
        <ele>236.2</ele>
        <time>2022-06-11T09:47:33Z</time>
      </trkpt>
      <trkpt lat="44.38251" lon="4.44446">
        <ele>236.3</ele>
        <time>2022-06-11T09:47:34Z</time>
      </trkpt>
      <trkpt lat="44.38251" lon="4.44445">
        <ele>236.4</ele>
        <time>2022-06-11T09:47:35Z</time>
      </trkpt>
      <trkpt lat="44.3825" lon="4.44444">
        <ele>236.5</ele>
        <time>2022-06-11T09:47:36Z</time>
      </trkpt>
      <trkpt lat="44.38249" lon="4.44443">
        <ele>236.7</ele>
        <time>2022-06-11T09:47:37Z</time>
      </trkpt>
      <trkpt lat="44.38247" lon="4.4444">
        <ele>236.9</ele>
        <time>2022-06-11T09:47:38Z</time>
      </trkpt>
      <trkpt lat="44.38246" lon="4.44439">
        <ele>237.1</ele>
        <time>2022-06-11T09:47:40Z</time>
      </trkpt>
      <trkpt lat="44.38244" lon="4.44436">
        <ele>237.4</ele>
        <time>2022-06-11T09:47:41Z</time>
      </trkpt>
      <trkpt lat="44.38242" lon="4.44435">
        <ele>237.6</ele>
        <time>2022-06-11T09:47:42Z</time>
      </trkpt>
      <trkpt lat="44.38241" lon="4.44434">
        <ele>237.8</ele>
        <time>2022-06-11T09:47:44Z</time>
      </trkpt>
      <trkpt lat="44.38239" lon="4.44432">
        <ele>238</ele>
        <time>2022-06-11T09:47:45Z</time>
      </trkpt>
      <trkpt lat="44.38237" lon="4.44431">
        <ele>238.2</ele>
        <time>2022-06-11T09:47:47Z</time>
      </trkpt>
      <trkpt lat="44.38236" lon="4.44429">
        <ele>238.5</ele>
        <time>2022-06-11T09:47:48Z</time>
      </trkpt>
      <trkpt lat="44.38235" lon="4.44428">
        <ele>238.6</ele>
        <time>2022-06-11T09:47:49Z</time>
      </trkpt>
      <trkpt lat="44.38234" lon="4.44427">
        <ele>238.8</ele>
        <time>2022-06-11T09:47:50Z</time>
      </trkpt>
      <trkpt lat="44.38232" lon="4.44425">
        <ele>239</ele>
        <time>2022-06-11T09:47:52Z</time>
      </trkpt>
      <trkpt lat="44.38231" lon="4.44424">
        <ele>239.1</ele>
        <time>2022-06-11T09:47:53Z</time>
      </trkpt>
      <trkpt lat="44.3823" lon="4.44423">
        <ele>239.3</ele>
        <time>2022-06-11T09:47:54Z</time>
      </trkpt>
      <trkpt lat="44.38228" lon="4.44422">
        <ele>239.5</ele>
        <time>2022-06-11T09:47:55Z</time>
      </trkpt>
      <trkpt lat="44.38226" lon="4.4442">
        <ele>239.8</ele>
        <time>2022-06-11T09:47:57Z</time>
      </trkpt>
      <trkpt lat="44.38225" lon="4.44419">
        <ele>239.9</ele>
        <time>2022-06-11T09:47:58Z</time>
      </trkpt>
      <trkpt lat="44.38224" lon="4.44418">
        <ele>240.1</ele>
        <time>2022-06-11T09:47:59Z</time>
      </trkpt>
      <trkpt lat="44.38222" lon="4.44417">
        <ele>240.3</ele>
        <time>2022-06-11T09:48:00Z</time>
      </trkpt>
      <trkpt lat="44.38222" lon="4.44416">
        <ele>240.4</ele>
        <time>2022-06-11T09:48:01Z</time>
      </trkpt>
      <trkpt lat="44.3822" lon="4.44414">
        <ele>240.6</ele>
        <time>2022-06-11T09:48:02Z</time>
      </trkpt>
      <trkpt lat="44.38219" lon="4.44413">
        <ele>240.8</ele>
        <time>2022-06-11T09:48:03Z</time>
      </trkpt>
      <trkpt lat="44.38218" lon="4.44412">
        <ele>240.9</ele>
        <time>2022-06-11T09:48:04Z</time>
      </trkpt>
      <trkpt lat="44.38215" lon="4.44409">
        <ele>241.2</ele>
        <time>2022-06-11T09:48:05Z</time>
      </trkpt>
      <trkpt lat="44.38214" lon="4.44408">
        <ele>241.4</ele>
        <time>2022-06-11T09:48:07Z</time>
      </trkpt>
      <trkpt lat="44.38213" lon="4.44407">
        <ele>241.6</ele>
        <time>2022-06-11T09:48:08Z</time>
      </trkpt>
      <trkpt lat="44.38211" lon="4.44405">
        <ele>241.8</ele>
        <time>2022-06-11T09:48:09Z</time>
      </trkpt>
      <trkpt lat="44.3821" lon="4.44404">
        <ele>242</ele>
        <time>2022-06-11T09:48:10Z</time>
      </trkpt>
      <trkpt lat="44.38208" lon="4.44402">
        <ele>242.2</ele>
        <time>2022-06-11T09:48:12Z</time>
      </trkpt>
      <trkpt lat="44.38207" lon="4.44401">
        <ele>242.3</ele>
        <time>2022-06-11T09:48:13Z</time>
      </trkpt>
      <trkpt lat="44.38205" lon="4.44401">
        <ele>242.5</ele>
        <time>2022-06-11T09:48:14Z</time>
      </trkpt>
      <trkpt lat="44.38203" lon="4.44399">
        <ele>242.8</ele>
        <time>2022-06-11T09:48:15Z</time>
      </trkpt>
      <trkpt lat="44.38201" lon="4.44397">
        <ele>243</ele>
        <time>2022-06-11T09:48:17Z</time>
      </trkpt>
      <trkpt lat="44.38199" lon="4.44395">
        <ele>243.3</ele>
        <time>2022-06-11T09:48:18Z</time>
      </trkpt>
      <trkpt lat="44.38198" lon="4.44394">
        <ele>243.4</ele>
        <time>2022-06-11T09:48:20Z</time>
      </trkpt>
      <trkpt lat="44.38196" lon="4.44392">
        <ele>243.6</ele>
        <time>2022-06-11T09:48:21Z</time>
      </trkpt>
      <trkpt lat="44.38195" lon="4.44391">
        <ele>243.8</ele>
        <time>2022-06-11T09:48:22Z</time>
      </trkpt>
      <trkpt lat="44.38194" lon="4.4439">
        <ele>243.9</ele>
        <time>2022-06-11T09:48:23Z</time>
      </trkpt>
      <trkpt lat="44.38192" lon="4.4439">
        <ele>244.1</ele>
        <time>2022-06-11T09:48:24Z</time>
      </trkpt>
      <trkpt lat="44.38191" lon="4.44388">
        <ele>244.2</ele>
        <time>2022-06-11T09:48:25Z</time>
      </trkpt>
      <trkpt lat="44.3819" lon="4.44387">
        <ele>244.4</ele>
        <time>2022-06-11T09:48:26Z</time>
      </trkpt>
      <trkpt lat="44.38189" lon="4.44386">
        <ele>244.5</ele>
        <time>2022-06-11T09:48:27Z</time>
      </trkpt>
      <trkpt lat="44.38187" lon="4.44384">
        <ele>244.7</ele>
        <time>2022-06-11T09:48:28Z</time>
      </trkpt>
      <trkpt lat="44.38186" lon="4.44383">
        <ele>244.8</ele>
        <time>2022-06-11T09:48:29Z</time>
      </trkpt>
      <trkpt lat="44.38186" lon="4.44383">
        <ele>244.9</ele>
        <time>2022-06-11T09:48:30Z</time>
      </trkpt>
      <trkpt lat="44.38184" lon="4.44382">
        <ele>245.1</ele>
        <time>2022-06-11T09:48:31Z</time>
      </trkpt>
      <trkpt lat="44.38183" lon="4.4438">
        <ele>245.3</ele>
        <time>2022-06-11T09:48:32Z</time>
      </trkpt>
      <trkpt lat="44.38181" lon="4.44379">
        <ele>245.5</ele>
        <time>2022-06-11T09:48:33Z</time>
      </trkpt>
      <trkpt lat="44.38179" lon="4.44377">
        <ele>245.7</ele>
        <time>2022-06-11T09:48:35Z</time>
      </trkpt>
      <trkpt lat="44.38177" lon="4.44375">
        <ele>246</ele>
        <time>2022-06-11T09:48:36Z</time>
      </trkpt>
      <trkpt lat="44.38176" lon="4.44374">
        <ele>246.1</ele>
        <time>2022-06-11T09:48:37Z</time>
      </trkpt>
      <trkpt lat="44.38174" lon="4.44373">
        <ele>246.3</ele>
        <time>2022-06-11T09:48:38Z</time>
      </trkpt>
      <trkpt lat="44.38173" lon="4.44372">
        <ele>246.4</ele>
        <time>2022-06-11T09:48:39Z</time>
      </trkpt>
      <trkpt lat="44.38171" lon="4.4437">
        <ele>246.7</ele>
        <time>2022-06-11T09:48:41Z</time>
      </trkpt>
      <trkpt lat="44.3817" lon="4.4437">
        <ele>246.8</ele>
        <time>2022-06-11T09:48:42Z</time>
      </trkpt>
      <trkpt lat="44.38169" lon="4.44369">
        <ele>246.9</ele>
        <time>2022-06-11T09:48:43Z</time>
      </trkpt>
      <trkpt lat="44.38168" lon="4.44368">
        <ele>247</ele>
        <time>2022-06-11T09:48:44Z</time>
      </trkpt>
      <trkpt lat="44.38165" lon="4.44365">
        <ele>247.4</ele>
        <time>2022-06-11T09:48:46Z</time>
      </trkpt>
      <trkpt lat="44.38163" lon="4.44364">
        <ele>247.6</ele>
        <time>2022-06-11T09:48:47Z</time>
      </trkpt>
      <trkpt lat="44.38162" lon="4.44363">
        <ele>247.8</ele>
        <time>2022-06-11T09:48:48Z</time>
      </trkpt>
      <trkpt lat="44.38161" lon="4.44361">
        <ele>247.9</ele>
        <time>2022-06-11T09:48:50Z</time>
      </trkpt>
      <trkpt lat="44.38159" lon="4.44359">
        <ele>248.2</ele>
        <time>2022-06-11T09:48:52Z</time>
      </trkpt>
      <trkpt lat="44.38157" lon="4.44357">
        <ele>248.4</ele>
        <time>2022-06-11T09:48:53Z</time>
      </trkpt>
      <trkpt lat="44.38156" lon="4.44357">
        <ele>248.7</ele>
        <time>2022-06-11T09:48:54Z</time>
      </trkpt>
      <trkpt lat="44.38155" lon="4.44356">
        <ele>248.8</ele>
        <time>2022-06-11T09:48:55Z</time>
      </trkpt>
      <trkpt lat="44.38154" lon="4.44355">
        <ele>249</ele>
        <time>2022-06-11T09:48:56Z</time>
      </trkpt>
      <trkpt lat="44.38153" lon="4.44354">
        <ele>249.1</ele>
        <time>2022-06-11T09:48:57Z</time>
      </trkpt>
      <trkpt lat="44.38151" lon="4.44354">
        <ele>249.3</ele>
        <time>2022-06-11T09:48:58Z</time>
      </trkpt>
      <trkpt lat="44.3815" lon="4.44353">
        <ele>249.4</ele>
        <time>2022-06-11T09:48:59Z</time>
      </trkpt>
      <trkpt lat="44.38147" lon="4.44351">
        <ele>249.8</ele>
        <time>2022-06-11T09:49:00Z</time>
      </trkpt>
      <trkpt lat="44.38146" lon="4.44351">
        <ele>249.9</ele>
        <time>2022-06-11T09:49:01Z</time>
      </trkpt>
      <trkpt lat="44.38144" lon="4.4435">
        <ele>250.1</ele>
        <time>2022-06-11T09:49:03Z</time>
      </trkpt>
      <trkpt lat="44.38143" lon="4.44349">
        <ele>250.3</ele>
        <time>2022-06-11T09:49:04Z</time>
      </trkpt>
      <trkpt lat="44.38141" lon="4.44349">
        <ele>250.4</ele>
        <time>2022-06-11T09:49:05Z</time>
      </trkpt>
      <trkpt lat="44.3814" lon="4.44348">
        <ele>250.6</ele>
        <time>2022-06-11T09:49:06Z</time>
      </trkpt>
      <trkpt lat="44.38139" lon="4.44347">
        <ele>250.7</ele>
        <time>2022-06-11T09:49:07Z</time>
      </trkpt>
      <trkpt lat="44.38137" lon="4.44347">
        <ele>250.9</ele>
        <time>2022-06-11T09:49:08Z</time>
      </trkpt>
      <trkpt lat="44.38136" lon="4.44346">
        <ele>251</ele>
        <time>2022-06-11T09:49:09Z</time>
      </trkpt>
      <trkpt lat="44.38132" lon="4.44344">
        <ele>251.5</ele>
        <time>2022-06-11T09:49:11Z</time>
      </trkpt>
      <trkpt lat="44.38131" lon="4.44343">
        <ele>251.6</ele>
        <time>2022-06-11T09:49:12Z</time>
      </trkpt>
      <trkpt lat="44.3813" lon="4.44343">
        <ele>251.7</ele>
        <time>2022-06-11T09:49:13Z</time>
      </trkpt>
      <trkpt lat="44.38129" lon="4.44342">
        <ele>251.8</ele>
        <time>2022-06-11T09:49:14Z</time>
      </trkpt>
      <trkpt lat="44.38128" lon="4.44342">
        <ele>252</ele>
        <time>2022-06-11T09:49:16Z</time>
      </trkpt>
      <trkpt lat="44.38125" lon="4.44341">
        <ele>252.3</ele>
        <time>2022-06-11T09:49:18Z</time>
      </trkpt>
      <trkpt lat="44.38122" lon="4.44339">
        <ele>252.6</ele>
        <time>2022-06-11T09:49:19Z</time>
      </trkpt>
      <trkpt lat="44.38121" lon="4.44339">
        <ele>252.7</ele>
        <time>2022-06-11T09:49:20Z</time>
      </trkpt>
      <trkpt lat="44.38119" lon="4.44337">
        <ele>253</ele>
        <time>2022-06-11T09:49:22Z</time>
      </trkpt>
      <trkpt lat="44.38118" lon="4.44336">
        <ele>253.1</ele>
        <time>2022-06-11T09:49:23Z</time>
      </trkpt>
      <trkpt lat="44.38117" lon="4.44335">
        <ele>253.2</ele>
        <time>2022-06-11T09:49:24Z</time>
      </trkpt>
      <trkpt lat="44.38115" lon="4.44334">
        <ele>253.4</ele>
        <time>2022-06-11T09:49:25Z</time>
      </trkpt>
      <trkpt lat="44.38114" lon="4.44334">
        <ele>253.5</ele>
        <time>2022-06-11T09:49:26Z</time>
      </trkpt>
      <trkpt lat="44.38113" lon="4.44334">
        <ele>253.7</ele>
        <time>2022-06-11T09:49:27Z</time>
      </trkpt>
      <trkpt lat="44.38111" lon="4.44333">
        <ele>253.8</ele>
        <time>2022-06-11T09:49:28Z</time>
      </trkpt>
      <trkpt lat="44.3811" lon="4.44332">
        <ele>254</ele>
        <time>2022-06-11T09:49:29Z</time>
      </trkpt>
      <trkpt lat="44.38109" lon="4.44332">
        <ele>254.1</ele>
        <time>2022-06-11T09:49:30Z</time>
      </trkpt>
      <trkpt lat="44.38107" lon="4.44331">
        <ele>254.3</ele>
        <time>2022-06-11T09:49:31Z</time>
      </trkpt>
      <trkpt lat="44.38106" lon="4.4433">
        <ele>254.4</ele>
        <time>2022-06-11T09:49:32Z</time>
      </trkpt>
      <trkpt lat="44.38105" lon="4.4433">
        <ele>254.5</ele>
        <time>2022-06-11T09:49:33Z</time>
      </trkpt>
      <trkpt lat="44.38104" lon="4.44329">
        <ele>254.7</ele>
        <time>2022-06-11T09:49:34Z</time>
      </trkpt>
      <trkpt lat="44.38102" lon="4.44328">
        <ele>254.8</ele>
        <time>2022-06-11T09:49:35Z</time>
      </trkpt>
      <trkpt lat="44.38101" lon="4.44327">
        <ele>254.9</ele>
        <time>2022-06-11T09:49:36Z</time>
      </trkpt>
      <trkpt lat="44.381" lon="4.44327">
        <ele>255.1</ele>
        <time>2022-06-11T09:49:37Z</time>
      </trkpt>
      <trkpt lat="44.38099" lon="4.44326">
        <ele>255.2</ele>
        <time>2022-06-11T09:49:38Z</time>
      </trkpt>
      <trkpt lat="44.38096" lon="4.44324">
        <ele>255.5</ele>
        <time>2022-06-11T09:49:39Z</time>
      </trkpt>
      <trkpt lat="44.38094" lon="4.44322">
        <ele>255.8</ele>
        <time>2022-06-11T09:49:41Z</time>
      </trkpt>
      <trkpt lat="44.38093" lon="4.44322">
        <ele>256</ele>
        <time>2022-06-11T09:49:42Z</time>
      </trkpt>
      <trkpt lat="44.38091" lon="4.44321">
        <ele>256.1</ele>
        <time>2022-06-11T09:49:43Z</time>
      </trkpt>
      <trkpt lat="44.38089" lon="4.44319">
        <ele>256.4</ele>
        <time>2022-06-11T09:49:45Z</time>
      </trkpt>
      <trkpt lat="44.38087" lon="4.44318">
        <ele>256.6</ele>
        <time>2022-06-11T09:49:46Z</time>
      </trkpt>
      <trkpt lat="44.38086" lon="4.44318">
        <ele>256.7</ele>
        <time>2022-06-11T09:49:48Z</time>
      </trkpt>
      <trkpt lat="44.38085" lon="4.44318">
        <ele>256.8</ele>
        <time>2022-06-11T09:49:49Z</time>
      </trkpt>
      <trkpt lat="44.38084" lon="4.44315">
        <ele>257</ele>
        <time>2022-06-11T09:49:50Z</time>
      </trkpt>
      <trkpt lat="44.38083" lon="4.44314">
        <ele>257.2</ele>
        <time>2022-06-11T09:49:52Z</time>
      </trkpt>
      <trkpt lat="44.38084" lon="4.44314">
        <ele>257.2</ele>
        <time>2022-06-11T09:49:53Z</time>
      </trkpt>
      <trkpt lat="44.38084" lon="4.44314">
        <ele>257.2</ele>
        <time>2022-06-11T09:49:54Z</time>
      </trkpt>
      <trkpt lat="44.38084" lon="4.44314">
        <ele>257.2</ele>
        <time>2022-06-11T09:49:55Z</time>
      </trkpt>
      <trkpt lat="44.38084" lon="4.44314">
        <ele>257.2</ele>
        <time>2022-06-11T09:49:56Z</time>
      </trkpt>
      <trkpt lat="44.38084" lon="4.44314">
        <ele>257.2</ele>
        <time>2022-06-11T09:49:57Z</time>
      </trkpt>
      <trkpt lat="44.38084" lon="4.44314">
        <ele>257.2</ele>
        <time>2022-06-11T09:49:58Z</time>
      </trkpt>
      <trkpt lat="44.38084" lon="4.44314">
        <ele>257.3</ele>
        <time>2022-06-11T09:49:59Z</time>
      </trkpt>
      <trkpt lat="44.38084" lon="4.44314">
        <ele>257.3</ele>
        <time>2022-06-11T09:50:00Z</time>
      </trkpt>
      <trkpt lat="44.38081" lon="4.44314">
        <ele>257.6</ele>
        <time>2022-06-11T09:51:53Z</time>
      </trkpt>
      <trkpt lat="44.3808" lon="4.44314">
        <ele>257.7</ele>
        <time>2022-06-11T09:51:55Z</time>
      </trkpt>
      <trkpt lat="44.38079" lon="4.44314">
        <ele>257.9</ele>
        <time>2022-06-11T09:51:56Z</time>
      </trkpt>
      <trkpt lat="44.38077" lon="4.44312">
        <ele>258.2</ele>
        <time>2022-06-11T09:51:58Z</time>
      </trkpt>
      <trkpt lat="44.38074" lon="4.44309">
        <ele>258.7</ele>
        <time>2022-06-11T09:51:59Z</time>
      </trkpt>
      <trkpt lat="44.38071" lon="4.44308">
        <ele>259.1</ele>
        <time>2022-06-11T09:52:00Z</time>
      </trkpt>
      <trkpt lat="44.3807" lon="4.44307">
        <ele>259.3</ele>
        <time>2022-06-11T09:52:01Z</time>
      </trkpt>
      <trkpt lat="44.38067" lon="4.44304">
        <ele>259.8</ele>
        <time>2022-06-11T09:52:03Z</time>
      </trkpt>
      <trkpt lat="44.38066" lon="4.44303">
        <ele>259.9</ele>
        <time>2022-06-11T09:52:04Z</time>
      </trkpt>
      <trkpt lat="44.38065" lon="4.44299">
        <ele>260.3</ele>
        <time>2022-06-11T09:52:05Z</time>
      </trkpt>
      <trkpt lat="44.38064" lon="4.44295">
        <ele>260.7</ele>
        <time>2022-06-11T09:52:06Z</time>
      </trkpt>
      <trkpt lat="44.38064" lon="4.44294">
        <ele>260.8</ele>
        <time>2022-06-11T09:52:07Z</time>
      </trkpt>
      <trkpt lat="44.38064" lon="4.44293">
        <ele>260.9</ele>
        <time>2022-06-11T09:52:09Z</time>
      </trkpt>
      <trkpt lat="44.38064" lon="4.44292">
        <ele>261</ele>
        <time>2022-06-11T09:52:10Z</time>
      </trkpt>
      <trkpt lat="44.38063" lon="4.44291">
        <ele>261.2</ele>
        <time>2022-06-11T09:52:11Z</time>
      </trkpt>
      <trkpt lat="44.38062" lon="4.44288">
        <ele>261.5</ele>
        <time>2022-06-11T09:52:13Z</time>
      </trkpt>
      <trkpt lat="44.38062" lon="4.44287">
        <ele>261.6</ele>
        <time>2022-06-11T09:52:15Z</time>
      </trkpt>
      <trkpt lat="44.38061" lon="4.44285">
        <ele>261.8</ele>
        <time>2022-06-11T09:52:16Z</time>
      </trkpt>
      <trkpt lat="44.38061" lon="4.44283">
        <ele>262</ele>
        <time>2022-06-11T09:52:17Z</time>
      </trkpt>
      <trkpt lat="44.3806" lon="4.44282">
        <ele>262.1</ele>
        <time>2022-06-11T09:52:18Z</time>
      </trkpt>
      <trkpt lat="44.3806" lon="4.44281">
        <ele>262.3</ele>
        <time>2022-06-11T09:52:20Z</time>
      </trkpt>
      <trkpt lat="44.38059" lon="4.44279">
        <ele>262.4</ele>
        <time>2022-06-11T09:52:21Z</time>
      </trkpt>
      <trkpt lat="44.38059" lon="4.44278">
        <ele>262.5</ele>
        <time>2022-06-11T09:52:22Z</time>
      </trkpt>
      <trkpt lat="44.38058" lon="4.44277">
        <ele>262.6</ele>
        <time>2022-06-11T09:52:23Z</time>
      </trkpt>
      <trkpt lat="44.38047" lon="4.44267">
        <ele>264.4</ele>
        <time>2022-06-11T09:52:24Z</time>
      </trkpt>
      <trkpt lat="44.38036" lon="4.44259">
        <ele>265.9</ele>
        <time>2022-06-11T09:52:25Z</time>
      </trkpt>
      <trkpt lat="44.38024" lon="4.44251">
        <ele>267.3</ele>
        <time>2022-06-11T09:53:07Z</time>
      </trkpt>
      <trkpt lat="44.38013" lon="4.44243">
        <ele>268.6</ele>
        <time>2022-06-11T09:53:08Z</time>
      </trkpt>
      <trkpt lat="44.38002" lon="4.44234">
        <ele>269.7</ele>
        <time>2022-06-11T09:53:09Z</time>
      </trkpt>
      <trkpt lat="44.37997" lon="4.44228">
        <ele>270.3</ele>
        <time>2022-06-11T09:53:10Z</time>
      </trkpt>
      <trkpt lat="44.37993" lon="4.4422">
        <ele>270.9</ele>
        <time>2022-06-11T09:53:11Z</time>
      </trkpt>
      <trkpt lat="44.37991" lon="4.44213">
        <ele>271.4</ele>
        <time>2022-06-11T09:53:12Z</time>
      </trkpt>
      <trkpt lat="44.3799" lon="4.44209">
        <ele>272.6</ele>
        <time>2022-06-11T09:53:13Z</time>
      </trkpt>
      <trkpt lat="44.3799" lon="4.44208">
        <ele>273.1</ele>
        <time>2022-06-11T09:53:14Z</time>
      </trkpt>
      <trkpt lat="44.37989" lon="4.44204">
        <ele>274.2</ele>
        <time>2022-06-11T09:53:15Z</time>
      </trkpt>
      <trkpt lat="44.37988" lon="4.44203">
        <ele>274.6</ele>
        <time>2022-06-11T09:53:16Z</time>
      </trkpt>
      <trkpt lat="44.37985" lon="4.442">
        <ele>275.9</ele>
        <time>2022-06-11T09:53:17Z</time>
      </trkpt>
      <trkpt lat="44.37985" lon="4.442">
        <ele>276.2</ele>
        <time>2022-06-11T09:53:18Z</time>
      </trkpt>
      <trkpt lat="44.37983" lon="4.44196">
        <ele>277.1</ele>
        <time>2022-06-11T09:53:19Z</time>
      </trkpt>
      <trkpt lat="44.37983" lon="4.44195">
        <ele>277.3</ele>
        <time>2022-06-11T09:53:20Z</time>
      </trkpt>
      <trkpt lat="44.37982" lon="4.44194">
        <ele>277.7</ele>
        <time>2022-06-11T09:53:21Z</time>
      </trkpt>
      <trkpt lat="44.3798" lon="4.44193">
        <ele>278</ele>
        <time>2022-06-11T09:53:22Z</time>
      </trkpt>
      <trkpt lat="44.37979" lon="4.44192">
        <ele>278.4</ele>
        <time>2022-06-11T09:53:23Z</time>
      </trkpt>
      <trkpt lat="44.37978" lon="4.4419">
        <ele>278.8</ele>
        <time>2022-06-11T09:53:24Z</time>
      </trkpt>
      <trkpt lat="44.37975" lon="4.44187">
        <ele>279.4</ele>
        <time>2022-06-11T09:53:25Z</time>
      </trkpt>
      <trkpt lat="44.37974" lon="4.44186">
        <ele>279.8</ele>
        <time>2022-06-11T09:53:27Z</time>
      </trkpt>
      <trkpt lat="44.37973" lon="4.44185">
        <ele>280</ele>
        <time>2022-06-11T09:53:28Z</time>
      </trkpt>
      <trkpt lat="44.37972" lon="4.44184">
        <ele>280.3</ele>
        <time>2022-06-11T09:53:29Z</time>
      </trkpt>
      <trkpt lat="44.3797" lon="4.44182">
        <ele>280.6</ele>
        <time>2022-06-11T09:53:30Z</time>
      </trkpt>
      <trkpt lat="44.37969" lon="4.4418">
        <ele>280.9</ele>
        <time>2022-06-11T09:53:32Z</time>
      </trkpt>
      <trkpt lat="44.37968" lon="4.44179">
        <ele>281.1</ele>
        <time>2022-06-11T09:53:33Z</time>
      </trkpt>
      <trkpt lat="44.37966" lon="4.44178">
        <ele>281.4</ele>
        <time>2022-06-11T09:53:35Z</time>
      </trkpt>
      <trkpt lat="44.37965" lon="4.44176">
        <ele>281.6</ele>
        <time>2022-06-11T09:53:36Z</time>
      </trkpt>
      <trkpt lat="44.37964" lon="4.44174">
        <ele>281.9</ele>
        <time>2022-06-11T09:53:37Z</time>
      </trkpt>
      <trkpt lat="44.37962" lon="4.44173">
        <ele>282.1</ele>
        <time>2022-06-11T09:53:39Z</time>
      </trkpt>
      <trkpt lat="44.37961" lon="4.44172">
        <ele>282.3</ele>
        <time>2022-06-11T09:53:40Z</time>
      </trkpt>
      <trkpt lat="44.3796" lon="4.44171">
        <ele>282.4</ele>
        <time>2022-06-11T09:53:41Z</time>
      </trkpt>
      <trkpt lat="44.37959" lon="4.4417">
        <ele>282.5</ele>
        <time>2022-06-11T09:53:42Z</time>
      </trkpt>
      <trkpt lat="44.37958" lon="4.4417">
        <ele>282.6</ele>
        <time>2022-06-11T09:53:43Z</time>
      </trkpt>
      <trkpt lat="44.37956" lon="4.44169">
        <ele>282.9</ele>
        <time>2022-06-11T09:53:44Z</time>
      </trkpt>
      <trkpt lat="44.37955" lon="4.44168">
        <ele>282.9</ele>
        <time>2022-06-11T09:53:45Z</time>
      </trkpt>
      <trkpt lat="44.37955" lon="4.44168">
        <ele>283</ele>
        <time>2022-06-11T09:53:46Z</time>
      </trkpt>
      <trkpt lat="44.37954" lon="4.44167">
        <ele>283.1</ele>
        <time>2022-06-11T09:53:47Z</time>
      </trkpt>
      <trkpt lat="44.37953" lon="4.44165">
        <ele>283.2</ele>
        <time>2022-06-11T09:53:48Z</time>
      </trkpt>
      <trkpt lat="44.37952" lon="4.44164">
        <ele>283.3</ele>
        <time>2022-06-11T09:53:49Z</time>
      </trkpt>
      <trkpt lat="44.37951" lon="4.44163">
        <ele>283.4</ele>
        <time>2022-06-11T09:53:50Z</time>
      </trkpt>
      <trkpt lat="44.3795" lon="4.44162">
        <ele>283.5</ele>
        <time>2022-06-11T09:53:51Z</time>
      </trkpt>
      <trkpt lat="44.37949" lon="4.44162">
        <ele>283.6</ele>
        <time>2022-06-11T09:53:52Z</time>
      </trkpt>
      <trkpt lat="44.37948" lon="4.4416">
        <ele>283.8</ele>
        <time>2022-06-11T09:53:53Z</time>
      </trkpt>
      <trkpt lat="44.37947" lon="4.4416">
        <ele>283.9</ele>
        <time>2022-06-11T09:53:54Z</time>
      </trkpt>
      <trkpt lat="44.37946" lon="4.44159">
        <ele>284</ele>
        <time>2022-06-11T09:53:55Z</time>
      </trkpt>
      <trkpt lat="44.37944" lon="4.44157">
        <ele>284.3</ele>
        <time>2022-06-11T09:53:56Z</time>
      </trkpt>
      <trkpt lat="44.37942" lon="4.44155">
        <ele>284.5</ele>
        <time>2022-06-11T09:53:58Z</time>
      </trkpt>
      <trkpt lat="44.37941" lon="4.44155">
        <ele>284.6</ele>
        <time>2022-06-11T09:53:59Z</time>
      </trkpt>
      <trkpt lat="44.37939" lon="4.44153">
        <ele>284.9</ele>
        <time>2022-06-11T09:54:00Z</time>
      </trkpt>
      <trkpt lat="44.37938" lon="4.44152">
        <ele>285</ele>
        <time>2022-06-11T09:54:01Z</time>
      </trkpt>
      <trkpt lat="44.37936" lon="4.4415">
        <ele>285.1</ele>
        <time>2022-06-11T09:54:02Z</time>
      </trkpt>
      <trkpt lat="44.37935" lon="4.44149">
        <ele>285.3</ele>
        <time>2022-06-11T09:54:04Z</time>
      </trkpt>
      <trkpt lat="44.37934" lon="4.44148">
        <ele>285.4</ele>
        <time>2022-06-11T09:54:05Z</time>
      </trkpt>
      <trkpt lat="44.37933" lon="4.44147">
        <ele>285.6</ele>
        <time>2022-06-11T09:54:06Z</time>
      </trkpt>
      <trkpt lat="44.37932" lon="4.44145">
        <ele>285.7</ele>
        <time>2022-06-11T09:54:07Z</time>
      </trkpt>
      <trkpt lat="44.37931" lon="4.44144">
        <ele>285.9</ele>
        <time>2022-06-11T09:54:08Z</time>
      </trkpt>
      <trkpt lat="44.3793" lon="4.44142">
        <ele>286</ele>
        <time>2022-06-11T09:54:09Z</time>
      </trkpt>
      <trkpt lat="44.37929" lon="4.44141">
        <ele>286.2</ele>
        <time>2022-06-11T09:54:10Z</time>
      </trkpt>
      <trkpt lat="44.37927" lon="4.4414">
        <ele>286.3</ele>
        <time>2022-06-11T09:54:11Z</time>
      </trkpt>
      <trkpt lat="44.37926" lon="4.44139">
        <ele>286.5</ele>
        <time>2022-06-11T09:54:12Z</time>
      </trkpt>
      <trkpt lat="44.37925" lon="4.44138">
        <ele>286.6</ele>
        <time>2022-06-11T09:54:13Z</time>
      </trkpt>
      <trkpt lat="44.37923" lon="4.44137">
        <ele>286.8</ele>
        <time>2022-06-11T09:54:14Z</time>
      </trkpt>
      <trkpt lat="44.37922" lon="4.44136">
        <ele>286.9</ele>
        <time>2022-06-11T09:54:15Z</time>
      </trkpt>
      <trkpt lat="44.37921" lon="4.44135">
        <ele>287.1</ele>
        <time>2022-06-11T09:54:16Z</time>
      </trkpt>
      <trkpt lat="44.37919" lon="4.44133">
        <ele>287.2</ele>
        <time>2022-06-11T09:54:17Z</time>
      </trkpt>
      <trkpt lat="44.37918" lon="4.44132">
        <ele>287.4</ele>
        <time>2022-06-11T09:54:18Z</time>
      </trkpt>
      <trkpt lat="44.37916" lon="4.44131">
        <ele>287.6</ele>
        <time>2022-06-11T09:54:19Z</time>
      </trkpt>
      <trkpt lat="44.37915" lon="4.4413">
        <ele>287.7</ele>
        <time>2022-06-11T09:54:20Z</time>
      </trkpt>
      <trkpt lat="44.37914" lon="4.44129">
        <ele>287.8</ele>
        <time>2022-06-11T09:54:21Z</time>
      </trkpt>
      <trkpt lat="44.37913" lon="4.44128">
        <ele>288</ele>
        <time>2022-06-11T09:54:22Z</time>
      </trkpt>
      <trkpt lat="44.37911" lon="4.44128">
        <ele>288.1</ele>
        <time>2022-06-11T09:54:23Z</time>
      </trkpt>
      <trkpt lat="44.3791" lon="4.44126">
        <ele>288.2</ele>
        <time>2022-06-11T09:54:24Z</time>
      </trkpt>
      <trkpt lat="44.37909" lon="4.44126">
        <ele>288.3</ele>
        <time>2022-06-11T09:54:26Z</time>
      </trkpt>
      <trkpt lat="44.37909" lon="4.44125">
        <ele>288.4</ele>
        <time>2022-06-11T09:54:27Z</time>
      </trkpt>
      <trkpt lat="44.37907" lon="4.44124">
        <ele>288.6</ele>
        <time>2022-06-11T09:54:28Z</time>
      </trkpt>
      <trkpt lat="44.37906" lon="4.44123">
        <ele>288.7</ele>
        <time>2022-06-11T09:54:29Z</time>
      </trkpt>
      <trkpt lat="44.37905" lon="4.44122">
        <ele>288.8</ele>
        <time>2022-06-11T09:54:30Z</time>
      </trkpt>
      <trkpt lat="44.37904" lon="4.4412">
        <ele>288.9</ele>
        <time>2022-06-11T09:54:31Z</time>
      </trkpt>
      <trkpt lat="44.37903" lon="4.44119">
        <ele>289.1</ele>
        <time>2022-06-11T09:54:32Z</time>
      </trkpt>
      <trkpt lat="44.37901" lon="4.44118">
        <ele>289.2</ele>
        <time>2022-06-11T09:54:33Z</time>
      </trkpt>
      <trkpt lat="44.37901" lon="4.44117">
        <ele>289.3</ele>
        <time>2022-06-11T09:54:34Z</time>
      </trkpt>
      <trkpt lat="44.379" lon="4.44116">
        <ele>289.4</ele>
        <time>2022-06-11T09:54:35Z</time>
      </trkpt>
      <trkpt lat="44.37899" lon="4.44115">
        <ele>289.5</ele>
        <time>2022-06-11T09:54:36Z</time>
      </trkpt>
      <trkpt lat="44.37898" lon="4.44113">
        <ele>289.6</ele>
        <time>2022-06-11T09:54:37Z</time>
      </trkpt>
      <trkpt lat="44.37897" lon="4.44112">
        <ele>289.7</ele>
        <time>2022-06-11T09:54:38Z</time>
      </trkpt>
      <trkpt lat="44.37896" lon="4.44111">
        <ele>289.8</ele>
        <time>2022-06-11T09:54:39Z</time>
      </trkpt>
      <trkpt lat="44.37896" lon="4.4411">
        <ele>289.9</ele>
        <time>2022-06-11T09:54:40Z</time>
      </trkpt>
      <trkpt lat="44.37895" lon="4.44108">
        <ele>290</ele>
        <time>2022-06-11T09:54:41Z</time>
      </trkpt>
      <trkpt lat="44.37894" lon="4.44107">
        <ele>290.1</ele>
        <time>2022-06-11T09:54:42Z</time>
      </trkpt>
      <trkpt lat="44.37893" lon="4.44105">
        <ele>290.3</ele>
        <time>2022-06-11T09:54:43Z</time>
      </trkpt>
      <trkpt lat="44.37892" lon="4.44103">
        <ele>290.4</ele>
        <time>2022-06-11T09:54:44Z</time>
      </trkpt>
      <trkpt lat="44.37892" lon="4.44101">
        <ele>290.5</ele>
        <time>2022-06-11T09:54:45Z</time>
      </trkpt>
      <trkpt lat="44.37891" lon="4.44099">
        <ele>290.7</ele>
        <time>2022-06-11T09:54:46Z</time>
      </trkpt>
      <trkpt lat="44.3789" lon="4.44097">
        <ele>290.8</ele>
        <time>2022-06-11T09:54:47Z</time>
      </trkpt>
      <trkpt lat="44.37889" lon="4.44095">
        <ele>290.9</ele>
        <time>2022-06-11T09:54:48Z</time>
      </trkpt>
      <trkpt lat="44.37888" lon="4.44093">
        <ele>291</ele>
        <time>2022-06-11T09:54:49Z</time>
      </trkpt>
      <trkpt lat="44.37887" lon="4.4409">
        <ele>291.2</ele>
        <time>2022-06-11T09:54:50Z</time>
      </trkpt>
      <trkpt lat="44.37887" lon="4.44088">
        <ele>291.3</ele>
        <time>2022-06-11T09:54:51Z</time>
      </trkpt>
      <trkpt lat="44.37887" lon="4.44086">
        <ele>291.4</ele>
        <time>2022-06-11T09:54:52Z</time>
      </trkpt>
      <trkpt lat="44.37887" lon="4.44083">
        <ele>291.6</ele>
        <time>2022-06-11T09:54:54Z</time>
      </trkpt>
      <trkpt lat="44.37887" lon="4.44081">
        <ele>291.7</ele>
        <time>2022-06-11T09:54:55Z</time>
      </trkpt>
      <trkpt lat="44.37886" lon="4.44079">
        <ele>291.8</ele>
        <time>2022-06-11T09:54:56Z</time>
      </trkpt>
      <trkpt lat="44.37887" lon="4.44074">
        <ele>292</ele>
        <time>2022-06-11T09:54:58Z</time>
      </trkpt>
      <trkpt lat="44.37887" lon="4.44072">
        <ele>292.1</ele>
        <time>2022-06-11T09:54:59Z</time>
      </trkpt>
      <trkpt lat="44.37887" lon="4.4407">
        <ele>292.2</ele>
        <time>2022-06-11T09:55:00Z</time>
      </trkpt>
      <trkpt lat="44.37886" lon="4.44068">
        <ele>292.3</ele>
        <time>2022-06-11T09:55:01Z</time>
      </trkpt>
      <trkpt lat="44.37886" lon="4.44065">
        <ele>292.5</ele>
        <time>2022-06-11T09:55:02Z</time>
      </trkpt>
      <trkpt lat="44.37886" lon="4.4406">
        <ele>292.7</ele>
        <time>2022-06-11T09:55:03Z</time>
      </trkpt>
      <trkpt lat="44.37886" lon="4.44058">
        <ele>292.9</ele>
        <time>2022-06-11T09:55:05Z</time>
      </trkpt>
      <trkpt lat="44.37887" lon="4.44056">
        <ele>293</ele>
        <time>2022-06-11T09:55:06Z</time>
      </trkpt>
      <trkpt lat="44.37887" lon="4.44054">
        <ele>293.1</ele>
        <time>2022-06-11T09:55:07Z</time>
      </trkpt>
      <trkpt lat="44.37887" lon="4.44052">
        <ele>293.2</ele>
        <time>2022-06-11T09:55:08Z</time>
      </trkpt>
      <trkpt lat="44.37887" lon="4.44049">
        <ele>293.3</ele>
        <time>2022-06-11T09:55:09Z</time>
      </trkpt>
      <trkpt lat="44.37887" lon="4.44044">
        <ele>293.6</ele>
        <time>2022-06-11T09:55:11Z</time>
      </trkpt>
      <trkpt lat="44.37887" lon="4.44042">
        <ele>293.7</ele>
        <time>2022-06-11T09:55:12Z</time>
      </trkpt>
      <trkpt lat="44.37887" lon="4.4404">
        <ele>293.9</ele>
        <time>2022-06-11T09:55:13Z</time>
      </trkpt>
      <trkpt lat="44.37887" lon="4.44038">
        <ele>294</ele>
        <time>2022-06-11T09:55:14Z</time>
      </trkpt>
      <trkpt lat="44.37887" lon="4.44036">
        <ele>294.1</ele>
        <time>2022-06-11T09:55:15Z</time>
      </trkpt>
      <trkpt lat="44.37886" lon="4.44034">
        <ele>294.2</ele>
        <time>2022-06-11T09:55:16Z</time>
      </trkpt>
      <trkpt lat="44.37885" lon="4.4403">
        <ele>294.5</ele>
        <time>2022-06-11T09:55:17Z</time>
      </trkpt>
      <trkpt lat="44.37884" lon="4.44027">
        <ele>294.6</ele>
        <time>2022-06-11T09:55:19Z</time>
      </trkpt>
      <trkpt lat="44.37884" lon="4.44025">
        <ele>294.7</ele>
        <time>2022-06-11T09:55:20Z</time>
      </trkpt>
      <trkpt lat="44.37883" lon="4.44021">
        <ele>295</ele>
        <time>2022-06-11T09:55:21Z</time>
      </trkpt>
      <trkpt lat="44.37882" lon="4.44019">
        <ele>295.1</ele>
        <time>2022-06-11T09:55:23Z</time>
      </trkpt>
      <trkpt lat="44.37881" lon="4.44017">
        <ele>295.3</ele>
        <time>2022-06-11T09:55:24Z</time>
      </trkpt>
      <trkpt lat="44.3788" lon="4.44016">
        <ele>295.4</ele>
        <time>2022-06-11T09:55:25Z</time>
      </trkpt>
      <trkpt lat="44.37879" lon="4.44014">
        <ele>295.5</ele>
        <time>2022-06-11T09:55:26Z</time>
      </trkpt>
      <trkpt lat="44.37878" lon="4.44013">
        <ele>295.6</ele>
        <time>2022-06-11T09:55:27Z</time>
      </trkpt>
      <trkpt lat="44.37877" lon="4.44011">
        <ele>295.8</ele>
        <time>2022-06-11T09:55:28Z</time>
      </trkpt>
      <trkpt lat="44.37875" lon="4.4401">
        <ele>295.9</ele>
        <time>2022-06-11T09:55:29Z</time>
      </trkpt>
      <trkpt lat="44.37874" lon="4.4401">
        <ele>296</ele>
        <time>2022-06-11T09:55:30Z</time>
      </trkpt>
      <trkpt lat="44.37872" lon="4.44009">
        <ele>296.2</ele>
        <time>2022-06-11T09:55:31Z</time>
      </trkpt>
      <trkpt lat="44.3787" lon="4.44008">
        <ele>296.3</ele>
        <time>2022-06-11T09:55:32Z</time>
      </trkpt>
      <trkpt lat="44.37869" lon="4.44007">
        <ele>296.4</ele>
        <time>2022-06-11T09:55:33Z</time>
      </trkpt>
      <trkpt lat="44.37867" lon="4.44006">
        <ele>296.5</ele>
        <time>2022-06-11T09:55:34Z</time>
      </trkpt>
      <trkpt lat="44.37865" lon="4.44006">
        <ele>296.7</ele>
        <time>2022-06-11T09:55:35Z</time>
      </trkpt>
      <trkpt lat="44.37863" lon="4.44005">
        <ele>296.9</ele>
        <time>2022-06-11T09:55:36Z</time>
      </trkpt>
      <trkpt lat="44.37862" lon="4.44004">
        <ele>296.9</ele>
        <time>2022-06-11T09:55:37Z</time>
      </trkpt>
      <trkpt lat="44.37859" lon="4.44003">
        <ele>297.1</ele>
        <time>2022-06-11T09:55:38Z</time>
      </trkpt>
      <trkpt lat="44.37858" lon="4.44002">
        <ele>297.1</ele>
        <time>2022-06-11T09:55:39Z</time>
      </trkpt>
      <trkpt lat="44.37855" lon="4.44001">
        <ele>297.3</ele>
        <time>2022-06-11T09:55:40Z</time>
      </trkpt>
      <trkpt lat="44.37854" lon="4.44">
        <ele>297.4</ele>
        <time>2022-06-11T09:55:41Z</time>
      </trkpt>
      <trkpt lat="44.37852" lon="4.43998">
        <ele>297.6</ele>
        <time>2022-06-11T09:55:43Z</time>
      </trkpt>
      <trkpt lat="44.3785" lon="4.43997">
        <ele>297.7</ele>
        <time>2022-06-11T09:55:44Z</time>
      </trkpt>
      <trkpt lat="44.37849" lon="4.43996">
        <ele>297.8</ele>
        <time>2022-06-11T09:55:45Z</time>
      </trkpt>
      <trkpt lat="44.37847" lon="4.43993">
        <ele>297.9</ele>
        <time>2022-06-11T09:55:46Z</time>
      </trkpt>
      <trkpt lat="44.37845" lon="4.43991">
        <ele>298</ele>
        <time>2022-06-11T09:55:47Z</time>
      </trkpt>
      <trkpt lat="44.37844" lon="4.43989">
        <ele>298.2</ele>
        <time>2022-06-11T09:55:49Z</time>
      </trkpt>
      <trkpt lat="44.37843" lon="4.43987">
        <ele>298.2</ele>
        <time>2022-06-11T09:55:50Z</time>
      </trkpt>
      <trkpt lat="44.37842" lon="4.43986">
        <ele>298.3</ele>
        <time>2022-06-11T09:55:51Z</time>
      </trkpt>
      <trkpt lat="44.37841" lon="4.43984">
        <ele>298.4</ele>
        <time>2022-06-11T09:55:52Z</time>
      </trkpt>
      <trkpt lat="44.37839" lon="4.43981">
        <ele>298.6</ele>
        <time>2022-06-11T09:55:53Z</time>
      </trkpt>
      <trkpt lat="44.37838" lon="4.4398">
        <ele>298.6</ele>
        <time>2022-06-11T09:55:54Z</time>
      </trkpt>
      <trkpt lat="44.37837" lon="4.43976">
        <ele>298.8</ele>
        <time>2022-06-11T09:55:55Z</time>
      </trkpt>
      <trkpt lat="44.37836" lon="4.43975">
        <ele>298.8</ele>
        <time>2022-06-11T09:55:56Z</time>
      </trkpt>
      <trkpt lat="44.37834" lon="4.43971">
        <ele>299.1</ele>
        <time>2022-06-11T09:55:57Z</time>
      </trkpt>
      <trkpt lat="44.37831" lon="4.43967">
        <ele>299.3</ele>
        <time>2022-06-11T09:55:59Z</time>
      </trkpt>
      <trkpt lat="44.3783" lon="4.43965">
        <ele>299.4</ele>
        <time>2022-06-11T09:56:00Z</time>
      </trkpt>
      <trkpt lat="44.3783" lon="4.43962">
        <ele>299.5</ele>
        <time>2022-06-11T09:56:02Z</time>
      </trkpt>
      <trkpt lat="44.37827" lon="4.43957">
        <ele>299.7</ele>
        <time>2022-06-11T09:56:03Z</time>
      </trkpt>
      <trkpt lat="44.37825" lon="4.43954">
        <ele>299.9</ele>
        <time>2022-06-11T09:56:05Z</time>
      </trkpt>
      <trkpt lat="44.37824" lon="4.43952">
        <ele>300</ele>
        <time>2022-06-11T09:56:06Z</time>
      </trkpt>
      <trkpt lat="44.37822" lon="4.43948">
        <ele>300.1</ele>
        <time>2022-06-11T09:56:07Z</time>
      </trkpt>
      <trkpt lat="44.37822" lon="4.43947">
        <ele>300.2</ele>
        <time>2022-06-11T09:56:08Z</time>
      </trkpt>
      <trkpt lat="44.37818" lon="4.43942">
        <ele>300.4</ele>
        <time>2022-06-11T09:56:10Z</time>
      </trkpt>
      <trkpt lat="44.37815" lon="4.43937">
        <ele>300.7</ele>
        <time>2022-06-11T09:56:11Z</time>
      </trkpt>
      <trkpt lat="44.37814" lon="4.43934">
        <ele>300.8</ele>
        <time>2022-06-11T09:56:12Z</time>
      </trkpt>
      <trkpt lat="44.37812" lon="4.43931">
        <ele>300.9</ele>
        <time>2022-06-11T09:56:14Z</time>
      </trkpt>
      <trkpt lat="44.3781" lon="4.43927">
        <ele>301.1</ele>
        <time>2022-06-11T09:56:15Z</time>
      </trkpt>
      <trkpt lat="44.37809" lon="4.43926">
        <ele>301.1</ele>
        <time>2022-06-11T09:56:16Z</time>
      </trkpt>
      <trkpt lat="44.37806" lon="4.43922">
        <ele>301.3</ele>
        <time>2022-06-11T09:56:17Z</time>
      </trkpt>
      <trkpt lat="44.37806" lon="4.43921">
        <ele>301.3</ele>
        <time>2022-06-11T09:56:18Z</time>
      </trkpt>
      <trkpt lat="44.37804" lon="4.43916">
        <ele>301.5</ele>
        <time>2022-06-11T09:56:19Z</time>
      </trkpt>
      <trkpt lat="44.37803" lon="4.43915">
        <ele>301.5</ele>
        <time>2022-06-11T09:56:20Z</time>
      </trkpt>
      <trkpt lat="44.37801" lon="4.43912">
        <ele>301.6</ele>
        <time>2022-06-11T09:56:21Z</time>
      </trkpt>
      <trkpt lat="44.378" lon="4.43908">
        <ele>301.8</ele>
        <time>2022-06-11T09:56:22Z</time>
      </trkpt>
      <trkpt lat="44.37798" lon="4.43904">
        <ele>301.9</ele>
        <time>2022-06-11T09:56:23Z</time>
      </trkpt>
      <trkpt lat="44.37798" lon="4.43903">
        <ele>301.9</ele>
        <time>2022-06-11T09:56:24Z</time>
      </trkpt>
      <trkpt lat="44.37796" lon="4.43897">
        <ele>302.1</ele>
        <time>2022-06-11T09:56:25Z</time>
      </trkpt>
      <trkpt lat="44.37793" lon="4.43892">
        <ele>302.2</ele>
        <time>2022-06-11T09:56:27Z</time>
      </trkpt>
      <trkpt lat="44.37793" lon="4.43891">
        <ele>302.2</ele>
        <time>2022-06-11T09:56:28Z</time>
      </trkpt>
      <trkpt lat="44.37791" lon="4.43888">
        <ele>302.3</ele>
        <time>2022-06-11T09:56:29Z</time>
      </trkpt>
      <trkpt lat="44.37788" lon="4.43884">
        <ele>302.4</ele>
        <time>2022-06-11T09:56:30Z</time>
      </trkpt>
      <trkpt lat="44.37787" lon="4.43883">
        <ele>302.4</ele>
        <time>2022-06-11T09:56:31Z</time>
      </trkpt>
      <trkpt lat="44.37785" lon="4.43879">
        <ele>302.5</ele>
        <time>2022-06-11T09:56:32Z</time>
      </trkpt>
      <trkpt lat="44.37784" lon="4.43878">
        <ele>302.6</ele>
        <time>2022-06-11T09:56:33Z</time>
      </trkpt>
      <trkpt lat="44.37781" lon="4.43873">
        <ele>302.6</ele>
        <time>2022-06-11T09:56:34Z</time>
      </trkpt>
      <trkpt lat="44.3778" lon="4.43872">
        <ele>302.7</ele>
        <time>2022-06-11T09:56:35Z</time>
      </trkpt>
      <trkpt lat="44.37779" lon="4.43871">
        <ele>302.7</ele>
        <time>2022-06-11T09:56:36Z</time>
      </trkpt>
      <trkpt lat="44.37779" lon="4.4387">
        <ele>302.7</ele>
        <time>2022-06-11T09:56:37Z</time>
      </trkpt>
      <trkpt lat="44.37778" lon="4.43872">
        <ele>302.7</ele>
        <time>2022-06-11T09:56:38Z</time>
      </trkpt>
      <trkpt lat="44.37778" lon="4.43872">
        <ele>302.7</ele>
        <time>2022-06-11T09:56:39Z</time>
      </trkpt>
      <trkpt lat="44.37777" lon="4.43873">
        <ele>302.7</ele>
        <time>2022-06-11T09:56:40Z</time>
      </trkpt>
      <trkpt lat="44.37777" lon="4.43872">
        <ele>302.8</ele>
        <time>2022-06-11T09:56:42Z</time>
      </trkpt>
      <trkpt lat="44.37776" lon="4.43871">
        <ele>302.8</ele>
        <time>2022-06-11T09:56:43Z</time>
      </trkpt>
      <trkpt lat="44.37776" lon="4.43871">
        <ele>302.8</ele>
        <time>2022-06-11T09:56:45Z</time>
      </trkpt>
      <trkpt lat="44.37776" lon="4.4387">
        <ele>302.8</ele>
        <time>2022-06-11T09:56:46Z</time>
      </trkpt>
      <trkpt lat="44.37776" lon="4.43869">
        <ele>302.8</ele>
        <time>2022-06-11T09:56:47Z</time>
      </trkpt>
      <trkpt lat="44.37775" lon="4.43869">
        <ele>302.8</ele>
        <time>2022-06-11T09:56:48Z</time>
      </trkpt>
      <trkpt lat="44.37775" lon="4.43868">
        <ele>302.8</ele>
        <time>2022-06-11T09:56:49Z</time>
      </trkpt>
      <trkpt lat="44.37775" lon="4.43867">
        <ele>302.8</ele>
        <time>2022-06-11T09:56:50Z</time>
      </trkpt>
      <trkpt lat="44.37775" lon="4.43867">
        <ele>302.8</ele>
        <time>2022-06-11T09:56:51Z</time>
      </trkpt>
      <trkpt lat="44.37774" lon="4.43866">
        <ele>302.8</ele>
        <time>2022-06-11T09:56:52Z</time>
      </trkpt>
      <trkpt lat="44.37774" lon="4.43865">
        <ele>302.8</ele>
        <time>2022-06-11T09:57:25Z</time>
      </trkpt>
      <trkpt lat="44.37774" lon="4.43864">
        <ele>302.8</ele>
        <time>2022-06-11T09:57:26Z</time>
      </trkpt>
      <trkpt lat="44.37774" lon="4.43864">
        <ele>302.8</ele>
        <time>2022-06-11T09:57:27Z</time>
      </trkpt>
      <trkpt lat="44.37769" lon="4.43859">
        <ele>302.9</ele>
        <time>2022-06-11T09:57:28Z</time>
      </trkpt>
      <trkpt lat="44.37766" lon="4.43856">
        <ele>302.9</ele>
        <time>2022-06-11T09:57:30Z</time>
      </trkpt>
      <trkpt lat="44.37762" lon="4.43853">
        <ele>302.9</ele>
        <time>2022-06-11T09:57:31Z</time>
      </trkpt>
      <trkpt lat="44.3776" lon="4.43851">
        <ele>302.9</ele>
        <time>2022-06-11T09:57:32Z</time>
      </trkpt>
      <trkpt lat="44.37757" lon="4.43848">
        <ele>303</ele>
        <time>2022-06-11T09:57:33Z</time>
      </trkpt>
      <trkpt lat="44.37753" lon="4.43847">
        <ele>303</ele>
        <time>2022-06-11T09:57:34Z</time>
      </trkpt>
      <trkpt lat="44.37747" lon="4.43843">
        <ele>303</ele>
        <time>2022-06-11T09:57:35Z</time>
      </trkpt>
      <trkpt lat="44.37745" lon="4.43841">
        <ele>303</ele>
        <time>2022-06-11T09:57:37Z</time>
      </trkpt>
      <trkpt lat="44.37741" lon="4.43839">
        <ele>303</ele>
        <time>2022-06-11T09:57:38Z</time>
      </trkpt>
      <trkpt lat="44.37738" lon="4.43836">
        <ele>303.1</ele>
        <time>2022-06-11T09:57:39Z</time>
      </trkpt>
      <trkpt lat="44.37731" lon="4.43834">
        <ele>303.1</ele>
        <time>2022-06-11T09:57:41Z</time>
      </trkpt>
      <trkpt lat="44.37727" lon="4.43831">
        <ele>303.2</ele>
        <time>2022-06-11T09:57:42Z</time>
      </trkpt>
      <trkpt lat="44.37723" lon="4.43829">
        <ele>303.2</ele>
        <time>2022-06-11T09:57:43Z</time>
      </trkpt>
      <trkpt lat="44.37719" lon="4.43827">
        <ele>303.3</ele>
        <time>2022-06-11T09:57:44Z</time>
      </trkpt>
      <trkpt lat="44.37715" lon="4.43826">
        <ele>303.3</ele>
        <time>2022-06-11T09:57:45Z</time>
      </trkpt>
      <trkpt lat="44.37709" lon="4.43823">
        <ele>303.4</ele>
        <time>2022-06-11T09:57:47Z</time>
      </trkpt>
      <trkpt lat="44.37706" lon="4.43822">
        <ele>303.5</ele>
        <time>2022-06-11T09:57:48Z</time>
      </trkpt>
      <trkpt lat="44.37703" lon="4.4382">
        <ele>303.5</ele>
        <time>2022-06-11T09:57:49Z</time>
      </trkpt>
      <trkpt lat="44.37699" lon="4.43819">
        <ele>303.6</ele>
        <time>2022-06-11T09:57:51Z</time>
      </trkpt>
      <trkpt lat="44.37695" lon="4.43818">
        <ele>303.7</ele>
        <time>2022-06-11T09:57:52Z</time>
      </trkpt>
      <trkpt lat="44.37691" lon="4.43816">
        <ele>303.8</ele>
        <time>2022-06-11T09:57:53Z</time>
      </trkpt>
      <trkpt lat="44.37687" lon="4.43816">
        <ele>303.8</ele>
        <time>2022-06-11T09:57:55Z</time>
      </trkpt>
      <trkpt lat="44.37685" lon="4.43815">
        <ele>303.9</ele>
        <time>2022-06-11T09:57:56Z</time>
      </trkpt>
      <trkpt lat="44.37679" lon="4.43815">
        <ele>304</ele>
        <time>2022-06-11T09:57:57Z</time>
      </trkpt>
      <trkpt lat="44.37672" lon="4.43817">
        <ele>304.2</ele>
        <time>2022-06-11T09:57:59Z</time>
      </trkpt>
      <trkpt lat="44.3767" lon="4.43817">
        <ele>304.2</ele>
        <time>2022-06-11T09:58:00Z</time>
      </trkpt>
      <trkpt lat="44.37666" lon="4.43818">
        <ele>304.3</ele>
        <time>2022-06-11T09:58:02Z</time>
      </trkpt>
      <trkpt lat="44.37665" lon="4.43818">
        <ele>304.4</ele>
        <time>2022-06-11T09:58:03Z</time>
      </trkpt>
      <trkpt lat="44.37662" lon="4.43819">
        <ele>304.5</ele>
        <time>2022-06-11T09:58:04Z</time>
      </trkpt>
      <trkpt lat="44.3766" lon="4.4382">
        <ele>304.5</ele>
        <time>2022-06-11T09:58:05Z</time>
      </trkpt>
      <trkpt lat="44.37655" lon="4.43822">
        <ele>304.7</ele>
        <time>2022-06-11T09:58:06Z</time>
      </trkpt>
      <trkpt lat="44.37651" lon="4.43824">
        <ele>304.9</ele>
        <time>2022-06-11T09:58:08Z</time>
      </trkpt>
      <trkpt lat="44.3765" lon="4.43825">
        <ele>304.9</ele>
        <time>2022-06-11T09:58:09Z</time>
      </trkpt>
      <trkpt lat="44.37647" lon="4.43826">
        <ele>305.1</ele>
        <time>2022-06-11T09:58:10Z</time>
      </trkpt>
      <trkpt lat="44.37642" lon="4.43828">
        <ele>305.3</ele>
        <time>2022-06-11T09:58:11Z</time>
      </trkpt>
      <trkpt lat="44.3764" lon="4.43829">
        <ele>305.4</ele>
        <time>2022-06-11T09:58:12Z</time>
      </trkpt>
      <trkpt lat="44.37637" lon="4.4383">
        <ele>305.5</ele>
        <time>2022-06-11T09:58:14Z</time>
      </trkpt>
      <trkpt lat="44.37634" lon="4.43832">
        <ele>305.6</ele>
        <time>2022-06-11T09:58:15Z</time>
      </trkpt>
      <trkpt lat="44.37633" lon="4.43832">
        <ele>305.7</ele>
        <time>2022-06-11T09:58:16Z</time>
      </trkpt>
      <trkpt lat="44.37629" lon="4.43833">
        <ele>305.9</ele>
        <time>2022-06-11T09:58:17Z</time>
      </trkpt>
      <trkpt lat="44.37628" lon="4.43834">
        <ele>305.9</ele>
        <time>2022-06-11T09:58:18Z</time>
      </trkpt>
      <trkpt lat="44.37625" lon="4.43835">
        <ele>306</ele>
        <time>2022-06-11T09:58:19Z</time>
      </trkpt>
      <trkpt lat="44.37624" lon="4.43835">
        <ele>306.1</ele>
        <time>2022-06-11T09:58:20Z</time>
      </trkpt>
      <trkpt lat="44.37623" lon="4.43835">
        <ele>306.2</ele>
        <time>2022-06-11T09:58:21Z</time>
      </trkpt>
      <trkpt lat="44.37621" lon="4.43836">
        <ele>306.3</ele>
        <time>2022-06-11T09:58:22Z</time>
      </trkpt>
      <trkpt lat="44.37618" lon="4.43837">
        <ele>306.4</ele>
        <time>2022-06-11T09:58:23Z</time>
      </trkpt>
      <trkpt lat="44.37615" lon="4.43838">
        <ele>306.6</ele>
        <time>2022-06-11T09:58:25Z</time>
      </trkpt>
      <trkpt lat="44.37613" lon="4.4384">
        <ele>306.8</ele>
        <time>2022-06-11T09:58:26Z</time>
      </trkpt>
      <trkpt lat="44.37609" lon="4.43842">
        <ele>307</ele>
        <time>2022-06-11T09:58:28Z</time>
      </trkpt>
      <trkpt lat="44.37606" lon="4.43843">
        <ele>307.2</ele>
        <time>2022-06-11T09:58:29Z</time>
      </trkpt>
      <trkpt lat="44.37602" lon="4.43845">
        <ele>307.5</ele>
        <time>2022-06-11T09:58:31Z</time>
      </trkpt>
      <trkpt lat="44.376" lon="4.43846">
        <ele>307.7</ele>
        <time>2022-06-11T09:58:32Z</time>
      </trkpt>
      <trkpt lat="44.37598" lon="4.43847">
        <ele>307.8</ele>
        <time>2022-06-11T09:58:33Z</time>
      </trkpt>
      <trkpt lat="44.37596" lon="4.43848">
        <ele>308</ele>
        <time>2022-06-11T09:58:34Z</time>
      </trkpt>
      <trkpt lat="44.37593" lon="4.43848">
        <ele>308.2</ele>
        <time>2022-06-11T09:58:36Z</time>
      </trkpt>
      <trkpt lat="44.37591" lon="4.43849">
        <ele>308.3</ele>
        <time>2022-06-11T09:58:37Z</time>
      </trkpt>
      <trkpt lat="44.37589" lon="4.4385">
        <ele>308.5</ele>
        <time>2022-06-11T09:58:39Z</time>
      </trkpt>
      <trkpt lat="44.37587" lon="4.4385">
        <ele>308.6</ele>
        <time>2022-06-11T09:58:40Z</time>
      </trkpt>
      <trkpt lat="44.37586" lon="4.43851">
        <ele>308.7</ele>
        <time>2022-06-11T09:58:41Z</time>
      </trkpt>
      <trkpt lat="44.37583" lon="4.43851">
        <ele>308.9</ele>
        <time>2022-06-11T09:58:42Z</time>
      </trkpt>
      <trkpt lat="44.37582" lon="4.43851">
        <ele>309</ele>
        <time>2022-06-11T09:58:43Z</time>
      </trkpt>
      <trkpt lat="44.3758" lon="4.43852">
        <ele>309.1</ele>
        <time>2022-06-11T09:58:44Z</time>
      </trkpt>
      <trkpt lat="44.37579" lon="4.43853">
        <ele>309.2</ele>
        <time>2022-06-11T09:58:45Z</time>
      </trkpt>
      <trkpt lat="44.37578" lon="4.43853">
        <ele>309.3</ele>
        <time>2022-06-11T09:58:46Z</time>
      </trkpt>
      <trkpt lat="44.37574" lon="4.43855">
        <ele>309.6</ele>
        <time>2022-06-11T09:58:48Z</time>
      </trkpt>
      <trkpt lat="44.37571" lon="4.43857">
        <ele>309.9</ele>
        <time>2022-06-11T09:58:50Z</time>
      </trkpt>
      <trkpt lat="44.3757" lon="4.43857">
        <ele>310</ele>
        <time>2022-06-11T09:58:51Z</time>
      </trkpt>
      <trkpt lat="44.37569" lon="4.43858">
        <ele>310.1</ele>
        <time>2022-06-11T09:58:52Z</time>
      </trkpt>
      <trkpt lat="44.37566" lon="4.4386">
        <ele>310.4</ele>
        <time>2022-06-11T09:58:54Z</time>
      </trkpt>
      <trkpt lat="44.37565" lon="4.4386">
        <ele>310.5</ele>
        <time>2022-06-11T09:58:55Z</time>
      </trkpt>
      <trkpt lat="44.37563" lon="4.4386">
        <ele>310.7</ele>
        <time>2022-06-11T09:58:56Z</time>
      </trkpt>
      <trkpt lat="44.37562" lon="4.43861">
        <ele>310.8</ele>
        <time>2022-06-11T09:58:58Z</time>
      </trkpt>
      <trkpt lat="44.3756" lon="4.43862">
        <ele>311</ele>
        <time>2022-06-11T09:58:59Z</time>
      </trkpt>
      <trkpt lat="44.37558" lon="4.43863">
        <ele>311.2</ele>
        <time>2022-06-11T09:59:00Z</time>
      </trkpt>
      <trkpt lat="44.37556" lon="4.43864">
        <ele>311.3</ele>
        <time>2022-06-11T09:59:02Z</time>
      </trkpt>
      <trkpt lat="44.37555" lon="4.43865">
        <ele>311.5</ele>
        <time>2022-06-11T09:59:03Z</time>
      </trkpt>
      <trkpt lat="44.37553" lon="4.43865">
        <ele>311.6</ele>
        <time>2022-06-11T09:59:04Z</time>
      </trkpt>
      <trkpt lat="44.37551" lon="4.43867">
        <ele>311.9</ele>
        <time>2022-06-11T09:59:05Z</time>
      </trkpt>
      <trkpt lat="44.37549" lon="4.43867">
        <ele>312</ele>
        <time>2022-06-11T09:59:07Z</time>
      </trkpt>
      <trkpt lat="44.37548" lon="4.43868">
        <ele>312.2</ele>
        <time>2022-06-11T09:59:08Z</time>
      </trkpt>
      <trkpt lat="44.37546" lon="4.43868">
        <ele>312.3</ele>
        <time>2022-06-11T09:59:09Z</time>
      </trkpt>
      <trkpt lat="44.37545" lon="4.43869">
        <ele>312.5</ele>
        <time>2022-06-11T09:59:10Z</time>
      </trkpt>
      <trkpt lat="44.37542" lon="4.4387">
        <ele>312.7</ele>
        <time>2022-06-11T09:59:11Z</time>
      </trkpt>
      <trkpt lat="44.37541" lon="4.4387">
        <ele>312.8</ele>
        <time>2022-06-11T09:59:13Z</time>
      </trkpt>
      <trkpt lat="44.37539" lon="4.43871">
        <ele>313</ele>
        <time>2022-06-11T09:59:14Z</time>
      </trkpt>
      <trkpt lat="44.37539" lon="4.43871">
        <ele>313.1</ele>
        <time>2022-06-11T09:59:15Z</time>
      </trkpt>
      <trkpt lat="44.37538" lon="4.43871">
        <ele>313.1</ele>
        <time>2022-06-11T09:59:16Z</time>
      </trkpt>
      <trkpt lat="44.37536" lon="4.43872">
        <ele>313.3</ele>
        <time>2022-06-11T09:59:17Z</time>
      </trkpt>
      <trkpt lat="44.37535" lon="4.43872">
        <ele>313.4</ele>
        <time>2022-06-11T09:59:18Z</time>
      </trkpt>
      <trkpt lat="44.37534" lon="4.43873">
        <ele>313.5</ele>
        <time>2022-06-11T09:59:19Z</time>
      </trkpt>
      <trkpt lat="44.37533" lon="4.43874">
        <ele>313.6</ele>
        <time>2022-06-11T09:59:20Z</time>
      </trkpt>
      <trkpt lat="44.37531" lon="4.43875">
        <ele>313.8</ele>
        <time>2022-06-11T09:59:21Z</time>
      </trkpt>
      <trkpt lat="44.3753" lon="4.43875">
        <ele>314</ele>
        <time>2022-06-11T09:59:22Z</time>
      </trkpt>
      <trkpt lat="44.37527" lon="4.43877">
        <ele>314.3</ele>
        <time>2022-06-11T09:59:23Z</time>
      </trkpt>
      <trkpt lat="44.37524" lon="4.43878">
        <ele>314.6</ele>
        <time>2022-06-11T09:59:25Z</time>
      </trkpt>
      <trkpt lat="44.37523" lon="4.43879">
        <ele>314.7</ele>
        <time>2022-06-11T09:59:26Z</time>
      </trkpt>
      <trkpt lat="44.37522" lon="4.43879">
        <ele>314.8</ele>
        <time>2022-06-11T09:59:27Z</time>
      </trkpt>
      <trkpt lat="44.37521" lon="4.43879">
        <ele>314.9</ele>
        <time>2022-06-11T09:59:28Z</time>
      </trkpt>
      <trkpt lat="44.37518" lon="4.43881">
        <ele>315.2</ele>
        <time>2022-06-11T09:59:29Z</time>
      </trkpt>
      <trkpt lat="44.37517" lon="4.43881">
        <ele>315.3</ele>
        <time>2022-06-11T09:59:31Z</time>
      </trkpt>
      <trkpt lat="44.37516" lon="4.43882">
        <ele>315.5</ele>
        <time>2022-06-11T09:59:32Z</time>
      </trkpt>
      <trkpt lat="44.37515" lon="4.43883">
        <ele>315.6</ele>
        <time>2022-06-11T09:59:33Z</time>
      </trkpt>
      <trkpt lat="44.37513" lon="4.43884">
        <ele>315.7</ele>
        <time>2022-06-11T09:59:34Z</time>
      </trkpt>
      <trkpt lat="44.37512" lon="4.43884">
        <ele>315.8</ele>
        <time>2022-06-11T09:59:35Z</time>
      </trkpt>
      <trkpt lat="44.3751" lon="4.43885">
        <ele>316.1</ele>
        <time>2022-06-11T09:59:37Z</time>
      </trkpt>
      <trkpt lat="44.37507" lon="4.43886">
        <ele>316.4</ele>
        <time>2022-06-11T09:59:39Z</time>
      </trkpt>
      <trkpt lat="44.37504" lon="4.43887">
        <ele>316.7</ele>
        <time>2022-06-11T09:59:41Z</time>
      </trkpt>
      <trkpt lat="44.37502" lon="4.43888">
        <ele>317</ele>
        <time>2022-06-11T09:59:42Z</time>
      </trkpt>
      <trkpt lat="44.37499" lon="4.4389">
        <ele>317.2</ele>
        <time>2022-06-11T09:59:44Z</time>
      </trkpt>
      <trkpt lat="44.37498" lon="4.43891">
        <ele>317.4</ele>
        <time>2022-06-11T09:59:45Z</time>
      </trkpt>
      <trkpt lat="44.37496" lon="4.43891">
        <ele>317.5</ele>
        <time>2022-06-11T09:59:46Z</time>
      </trkpt>
      <trkpt lat="44.37492" lon="4.43892">
        <ele>317.9</ele>
        <time>2022-06-11T09:59:48Z</time>
      </trkpt>
      <trkpt lat="44.3749" lon="4.43893">
        <ele>318.1</ele>
        <time>2022-06-11T09:59:50Z</time>
      </trkpt>
      <trkpt lat="44.37489" lon="4.43894">
        <ele>318.2</ele>
        <time>2022-06-11T09:59:51Z</time>
      </trkpt>
      <trkpt lat="44.37487" lon="4.43895">
        <ele>318.4</ele>
        <time>2022-06-11T09:59:52Z</time>
      </trkpt>
      <trkpt lat="44.37484" lon="4.43895">
        <ele>318.7</ele>
        <time>2022-06-11T09:59:54Z</time>
      </trkpt>
      <trkpt lat="44.37484" lon="4.43895">
        <ele>318.7</ele>
        <time>2022-06-11T09:59:55Z</time>
      </trkpt>
      <trkpt lat="44.3748" lon="4.43896">
        <ele>319</ele>
        <time>2022-06-11T09:59:56Z</time>
      </trkpt>
      <trkpt lat="44.3748" lon="4.43896">
        <ele>319.1</ele>
        <time>2022-06-11T09:59:57Z</time>
      </trkpt>
      <trkpt lat="44.37477" lon="4.43896">
        <ele>319.4</ele>
        <time>2022-06-11T09:59:59Z</time>
      </trkpt>
      <trkpt lat="44.37476" lon="4.43896">
        <ele>319.4</ele>
        <time>2022-06-11T10:00:00Z</time>
      </trkpt>
      <trkpt lat="44.37474" lon="4.43896">
        <ele>319.6</ele>
        <time>2022-06-11T10:00:01Z</time>
      </trkpt>
      <trkpt lat="44.37472" lon="4.43896">
        <ele>319.7</ele>
        <time>2022-06-11T10:00:02Z</time>
      </trkpt>
      <trkpt lat="44.37469" lon="4.43896">
        <ele>320</ele>
        <time>2022-06-11T10:00:03Z</time>
      </trkpt>
      <trkpt lat="44.37468" lon="4.43896">
        <ele>320.1</ele>
        <time>2022-06-11T10:00:05Z</time>
      </trkpt>
      <trkpt lat="44.37466" lon="4.43896">
        <ele>320.2</ele>
        <time>2022-06-11T10:00:06Z</time>
      </trkpt>
      <trkpt lat="44.37465" lon="4.43895">
        <ele>320.4</ele>
        <time>2022-06-11T10:00:07Z</time>
      </trkpt>
      <trkpt lat="44.37463" lon="4.43895">
        <ele>320.5</ele>
        <time>2022-06-11T10:00:08Z</time>
      </trkpt>
      <trkpt lat="44.37462" lon="4.43895">
        <ele>320.6</ele>
        <time>2022-06-11T10:00:09Z</time>
      </trkpt>
      <trkpt lat="44.37461" lon="4.43894">
        <ele>320.7</ele>
        <time>2022-06-11T10:00:10Z</time>
      </trkpt>
      <trkpt lat="44.37459" lon="4.43893">
        <ele>320.9</ele>
        <time>2022-06-11T10:00:12Z</time>
      </trkpt>
      <trkpt lat="44.37457" lon="4.43893">
        <ele>321</ele>
        <time>2022-06-11T10:00:13Z</time>
      </trkpt>
      <trkpt lat="44.37456" lon="4.43892">
        <ele>321.1</ele>
        <time>2022-06-11T10:00:14Z</time>
      </trkpt>
      <trkpt lat="44.37454" lon="4.43892">
        <ele>321.3</ele>
        <time>2022-06-11T10:00:15Z</time>
      </trkpt>
      <trkpt lat="44.37453" lon="4.43891">
        <ele>321.4</ele>
        <time>2022-06-11T10:00:16Z</time>
      </trkpt>
      <trkpt lat="44.37451" lon="4.43891">
        <ele>321.5</ele>
        <time>2022-06-11T10:00:17Z</time>
      </trkpt>
      <trkpt lat="44.37449" lon="4.43891">
        <ele>321.7</ele>
        <time>2022-06-11T10:00:18Z</time>
      </trkpt>
      <trkpt lat="44.37448" lon="4.4389">
        <ele>321.8</ele>
        <time>2022-06-11T10:00:19Z</time>
      </trkpt>
      <trkpt lat="44.37447" lon="4.4389">
        <ele>321.9</ele>
        <time>2022-06-11T10:00:20Z</time>
      </trkpt>
      <trkpt lat="44.37445" lon="4.43889">
        <ele>322.1</ele>
        <time>2022-06-11T10:00:21Z</time>
      </trkpt>
      <trkpt lat="44.37444" lon="4.43889">
        <ele>322.2</ele>
        <time>2022-06-11T10:00:22Z</time>
      </trkpt>
      <trkpt lat="44.37443" lon="4.43888">
        <ele>322.2</ele>
        <time>2022-06-11T10:00:23Z</time>
      </trkpt>
      <trkpt lat="44.37441" lon="4.43888">
        <ele>322.3</ele>
        <time>2022-06-11T10:00:24Z</time>
      </trkpt>
      <trkpt lat="44.37439" lon="4.43888">
        <ele>322.5</ele>
        <time>2022-06-11T10:00:25Z</time>
      </trkpt>
      <trkpt lat="44.37438" lon="4.43888">
        <ele>322.6</ele>
        <time>2022-06-11T10:00:26Z</time>
      </trkpt>
      <trkpt lat="44.37436" lon="4.43888">
        <ele>322.7</ele>
        <time>2022-06-11T10:00:27Z</time>
      </trkpt>
      <trkpt lat="44.37433" lon="4.43888">
        <ele>322.9</ele>
        <time>2022-06-11T10:00:28Z</time>
      </trkpt>
      <trkpt lat="44.37429" lon="4.43889">
        <ele>323.2</ele>
        <time>2022-06-11T10:00:30Z</time>
      </trkpt>
      <trkpt lat="44.37428" lon="4.43889">
        <ele>323.2</ele>
        <time>2022-06-11T10:00:31Z</time>
      </trkpt>
      <trkpt lat="44.37427" lon="4.4389">
        <ele>323.3</ele>
        <time>2022-06-11T10:00:32Z</time>
      </trkpt>
      <trkpt lat="44.37424" lon="4.43891">
        <ele>323.4</ele>
        <time>2022-06-11T10:00:34Z</time>
      </trkpt>
      <trkpt lat="44.37422" lon="4.43892">
        <ele>323.6</ele>
        <time>2022-06-11T10:00:35Z</time>
      </trkpt>
      <trkpt lat="44.37421" lon="4.43892">
        <ele>323.6</ele>
        <time>2022-06-11T10:00:36Z</time>
      </trkpt>
      <trkpt lat="44.37418" lon="4.43894">
        <ele>323.8</ele>
        <time>2022-06-11T10:00:37Z</time>
      </trkpt>
      <trkpt lat="44.37416" lon="4.43895">
        <ele>323.8</ele>
        <time>2022-06-11T10:00:38Z</time>
      </trkpt>
      <trkpt lat="44.37412" lon="4.43896">
        <ele>323.9</ele>
        <time>2022-06-11T10:00:39Z</time>
      </trkpt>
      <trkpt lat="44.37411" lon="4.43897">
        <ele>324</ele>
        <time>2022-06-11T10:00:40Z</time>
      </trkpt>
      <trkpt lat="44.37408" lon="4.43898">
        <ele>324</ele>
        <time>2022-06-11T10:00:41Z</time>
      </trkpt>
      <trkpt lat="44.37403" lon="4.43901">
        <ele>324</ele>
        <time>2022-06-11T10:00:44Z</time>
      </trkpt>
      <trkpt lat="44.374" lon="4.43903">
        <ele>324</ele>
        <time>2022-06-11T10:00:45Z</time>
      </trkpt>
      <trkpt lat="44.37397" lon="4.43905">
        <ele>324</ele>
        <time>2022-06-11T10:00:46Z</time>
      </trkpt>
      <trkpt lat="44.37392" lon="4.4391">
        <ele>323.8</ele>
        <time>2022-06-11T10:00:47Z</time>
      </trkpt>
      <trkpt lat="44.37389" lon="4.43913">
        <ele>323.7</ele>
        <time>2022-06-11T10:00:49Z</time>
      </trkpt>
      <trkpt lat="44.37386" lon="4.43918">
        <ele>323.6</ele>
        <time>2022-06-11T10:00:50Z</time>
      </trkpt>
      <trkpt lat="44.37385" lon="4.43922">
        <ele>323.5</ele>
        <time>2022-06-11T10:00:51Z</time>
      </trkpt>
      <trkpt lat="44.37384" lon="4.43927">
        <ele>323.4</ele>
        <time>2022-06-11T10:00:52Z</time>
      </trkpt>
      <trkpt lat="44.37383" lon="4.43927">
        <ele>323.4</ele>
        <time>2022-06-11T10:00:54Z</time>
      </trkpt>
      <trkpt lat="44.37383" lon="4.43928">
        <ele>323.4</ele>
        <time>2022-06-11T10:00:55Z</time>
      </trkpt>
      <trkpt lat="44.37383" lon="4.43929">
        <ele>323.4</ele>
        <time>2022-06-11T10:00:56Z</time>
      </trkpt>
      <trkpt lat="44.37383" lon="4.43929">
        <ele>323.4</ele>
        <time>2022-06-11T10:00:57Z</time>
      </trkpt>
      <trkpt lat="44.37383" lon="4.43929">
        <ele>323.4</ele>
        <time>2022-06-11T10:00:58Z</time>
      </trkpt>
      <trkpt lat="44.37384" lon="4.43929">
        <ele>323.4</ele>
        <time>2022-06-11T10:00:59Z</time>
      </trkpt>
      <trkpt lat="44.37384" lon="4.43928">
        <ele>323.4</ele>
        <time>2022-06-11T10:01:00Z</time>
      </trkpt>
      <trkpt lat="44.37384" lon="4.43928">
        <ele>323.4</ele>
        <time>2022-06-11T10:01:01Z</time>
      </trkpt>
      <trkpt lat="44.37384" lon="4.43928">
        <ele>323.4</ele>
        <time>2022-06-11T10:01:02Z</time>
      </trkpt>
      <trkpt lat="44.37384" lon="4.43928">
        <ele>323.4</ele>
        <time>2022-06-11T10:01:03Z</time>
      </trkpt>
      <trkpt lat="44.37383" lon="4.43928">
        <ele>323.4</ele>
        <time>2022-06-11T10:01:04Z</time>
      </trkpt>
      <trkpt lat="44.37383" lon="4.43928">
        <ele>323.3</ele>
        <time>2022-06-11T10:01:05Z</time>
      </trkpt>
      <trkpt lat="44.37383" lon="4.43928">
        <ele>323.3</ele>
        <time>2022-06-11T10:01:06Z</time>
      </trkpt>
      <trkpt lat="44.37383" lon="4.43928">
        <ele>323.3</ele>
        <time>2022-06-11T10:01:07Z</time>
      </trkpt>
      <trkpt lat="44.37383" lon="4.43928">
        <ele>323.3</ele>
        <time>2022-06-11T10:01:08Z</time>
      </trkpt>
      <trkpt lat="44.37383" lon="4.43928">
        <ele>323.3</ele>
        <time>2022-06-11T10:01:09Z</time>
      </trkpt>
      <trkpt lat="44.37383" lon="4.43928">
        <ele>323.3</ele>
        <time>2022-06-11T10:01:10Z</time>
      </trkpt>
      <trkpt lat="44.37384" lon="4.43928">
        <ele>323.3</ele>
        <time>2022-06-11T10:01:11Z</time>
      </trkpt>
      <trkpt lat="44.37384" lon="4.43928">
        <ele>323.3</ele>
        <time>2022-06-11T10:01:12Z</time>
      </trkpt>
      <trkpt lat="44.37384" lon="4.43928">
        <ele>323.3</ele>
        <time>2022-06-11T10:01:13Z</time>
      </trkpt>
      <trkpt lat="44.37384" lon="4.43928">
        <ele>323.3</ele>
        <time>2022-06-11T10:01:14Z</time>
      </trkpt>
      <trkpt lat="44.37385" lon="4.43932">
        <ele>323.2</ele>
        <time>2022-06-11T10:05:51Z</time>
      </trkpt>
      <trkpt lat="44.37386" lon="4.43935">
        <ele>323.2</ele>
        <time>2022-06-11T10:05:52Z</time>
      </trkpt>
      <trkpt lat="44.37388" lon="4.43939">
        <ele>323.1</ele>
        <time>2022-06-11T10:05:54Z</time>
      </trkpt>
      <trkpt lat="44.37389" lon="4.43942">
        <ele>323</ele>
        <time>2022-06-11T10:05:55Z</time>
      </trkpt>
      <trkpt lat="44.37391" lon="4.43945">
        <ele>322.9</ele>
        <time>2022-06-11T10:05:56Z</time>
      </trkpt>
      <trkpt lat="44.37396" lon="4.43952">
        <ele>322.8</ele>
        <time>2022-06-11T10:05:57Z</time>
      </trkpt>
      <trkpt lat="44.37399" lon="4.43954">
        <ele>322.7</ele>
        <time>2022-06-11T10:05:59Z</time>
      </trkpt>
      <trkpt lat="44.37401" lon="4.43957">
        <ele>322.6</ele>
        <time>2022-06-11T10:06:00Z</time>
      </trkpt>
      <trkpt lat="44.37406" lon="4.4396">
        <ele>322.5</ele>
        <time>2022-06-11T10:06:01Z</time>
      </trkpt>
      <trkpt lat="44.37409" lon="4.43963">
        <ele>322.4</ele>
        <time>2022-06-11T10:06:02Z</time>
      </trkpt>
      <trkpt lat="44.37412" lon="4.43965">
        <ele>322.3</ele>
        <time>2022-06-11T10:06:03Z</time>
      </trkpt>
      <trkpt lat="44.37416" lon="4.43968">
        <ele>322.2</ele>
        <time>2022-06-11T10:06:05Z</time>
      </trkpt>
      <trkpt lat="44.37419" lon="4.43971">
        <ele>322.2</ele>
        <time>2022-06-11T10:06:06Z</time>
      </trkpt>
      <trkpt lat="44.37422" lon="4.43974">
        <ele>322.1</ele>
        <time>2022-06-11T10:06:07Z</time>
      </trkpt>
      <trkpt lat="44.37425" lon="4.43976">
        <ele>322</ele>
        <time>2022-06-11T10:06:08Z</time>
      </trkpt>
      <trkpt lat="44.37428" lon="4.43978">
        <ele>321.9</ele>
        <time>2022-06-11T10:06:09Z</time>
      </trkpt>
      <trkpt lat="44.37434" lon="4.43983">
        <ele>321.8</ele>
        <time>2022-06-11T10:06:10Z</time>
      </trkpt>
      <trkpt lat="44.37437" lon="4.43987">
        <ele>321.7</ele>
        <time>2022-06-11T10:06:12Z</time>
      </trkpt>
      <trkpt lat="44.3744" lon="4.4399">
        <ele>321.7</ele>
        <time>2022-06-11T10:06:13Z</time>
      </trkpt>
      <trkpt lat="44.37444" lon="4.43992">
        <ele>321.6</ele>
        <time>2022-06-11T10:06:14Z</time>
      </trkpt>
      <trkpt lat="44.37447" lon="4.43996">
        <ele>321.5</ele>
        <time>2022-06-11T10:06:15Z</time>
      </trkpt>
      <trkpt lat="44.37452" lon="4.44001">
        <ele>321.4</ele>
        <time>2022-06-11T10:06:16Z</time>
      </trkpt>
      <trkpt lat="44.37455" lon="4.44005">
        <ele>321.3</ele>
        <time>2022-06-11T10:06:18Z</time>
      </trkpt>
      <trkpt lat="44.37459" lon="4.44012">
        <ele>321.2</ele>
        <time>2022-06-11T10:06:19Z</time>
      </trkpt>
      <trkpt lat="44.37462" lon="4.44019">
        <ele>320.8</ele>
        <time>2022-06-11T10:06:20Z</time>
      </trkpt>
      <trkpt lat="44.37463" lon="4.44027">
        <ele>320.6</ele>
        <time>2022-06-11T10:06:21Z</time>
      </trkpt>
      <trkpt lat="44.37462" lon="4.44036">
        <ele>320.2</ele>
        <time>2022-06-11T10:06:23Z</time>
      </trkpt>
      <trkpt lat="44.37461" lon="4.44044">
        <ele>319.9</ele>
        <time>2022-06-11T10:06:24Z</time>
      </trkpt>
      <trkpt lat="44.3746" lon="4.44051">
        <ele>319.5</ele>
        <time>2022-06-11T10:06:25Z</time>
      </trkpt>
      <trkpt lat="44.37458" lon="4.44058">
        <ele>319.2</ele>
        <time>2022-06-11T10:06:26Z</time>
      </trkpt>
      <trkpt lat="44.37454" lon="4.44065">
        <ele>318.8</ele>
        <time>2022-06-11T10:06:27Z</time>
      </trkpt>
      <trkpt lat="44.3745" lon="4.44071">
        <ele>318.3</ele>
        <time>2022-06-11T10:06:28Z</time>
      </trkpt>
      <trkpt lat="44.37445" lon="4.44078">
        <ele>317.9</ele>
        <time>2022-06-11T10:06:29Z</time>
      </trkpt>
      <trkpt lat="44.3744" lon="4.44085">
        <ele>317.3</ele>
        <time>2022-06-11T10:06:30Z</time>
      </trkpt>
      <trkpt lat="44.37434" lon="4.44093">
        <ele>316.7</ele>
        <time>2022-06-11T10:06:31Z</time>
      </trkpt>
      <trkpt lat="44.37429" lon="4.44101">
        <ele>316.1</ele>
        <time>2022-06-11T10:06:32Z</time>
      </trkpt>
      <trkpt lat="44.37423" lon="4.44109">
        <ele>315.5</ele>
        <time>2022-06-11T10:06:33Z</time>
      </trkpt>
      <trkpt lat="44.37417" lon="4.44117">
        <ele>314.8</ele>
        <time>2022-06-11T10:06:34Z</time>
      </trkpt>
      <trkpt lat="44.37411" lon="4.44126">
        <ele>314.2</ele>
        <time>2022-06-11T10:06:35Z</time>
      </trkpt>
      <trkpt lat="44.37405" lon="4.44135">
        <ele>313.5</ele>
        <time>2022-06-11T10:06:36Z</time>
      </trkpt>
      <trkpt lat="44.37399" lon="4.44144">
        <ele>312.8</ele>
        <time>2022-06-11T10:06:37Z</time>
      </trkpt>
      <trkpt lat="44.37392" lon="4.44154">
        <ele>312.1</ele>
        <time>2022-06-11T10:06:38Z</time>
      </trkpt>
      <trkpt lat="44.37386" lon="4.44163">
        <ele>311.3</ele>
        <time>2022-06-11T10:06:39Z</time>
      </trkpt>
      <trkpt lat="44.37379" lon="4.44173">
        <ele>310.5</ele>
        <time>2022-06-11T10:06:40Z</time>
      </trkpt>
      <trkpt lat="44.37374" lon="4.44184">
        <ele>309.7</ele>
        <time>2022-06-11T10:06:41Z</time>
      </trkpt>
      <trkpt lat="44.3737" lon="4.44197">
        <ele>308.8</ele>
        <time>2022-06-11T10:06:42Z</time>
      </trkpt>
      <trkpt lat="44.37367" lon="4.44211">
        <ele>307.9</ele>
        <time>2022-06-11T10:06:43Z</time>
      </trkpt>
      <trkpt lat="44.37365" lon="4.44226">
        <ele>307</ele>
        <time>2022-06-11T10:06:44Z</time>
      </trkpt>
      <trkpt lat="44.37365" lon="4.44241">
        <ele>306.1</ele>
        <time>2022-06-11T10:06:45Z</time>
      </trkpt>
      <trkpt lat="44.37366" lon="4.44257">
        <ele>305.1</ele>
        <time>2022-06-11T10:06:46Z</time>
      </trkpt>
      <trkpt lat="44.37367" lon="4.44273">
        <ele>304.2</ele>
        <time>2022-06-11T10:06:47Z</time>
      </trkpt>
      <trkpt lat="44.37367" lon="4.4429">
        <ele>303.2</ele>
        <time>2022-06-11T10:06:48Z</time>
      </trkpt>
      <trkpt lat="44.37368" lon="4.44306">
        <ele>302.2</ele>
        <time>2022-06-11T10:06:49Z</time>
      </trkpt>
      <trkpt lat="44.37367" lon="4.44322">
        <ele>301.3</ele>
        <time>2022-06-11T10:06:50Z</time>
      </trkpt>
      <trkpt lat="44.37365" lon="4.44338">
        <ele>300.3</ele>
        <time>2022-06-11T10:06:51Z</time>
      </trkpt>
      <trkpt lat="44.3736" lon="4.44353">
        <ele>299.4</ele>
        <time>2022-06-11T10:06:52Z</time>
      </trkpt>
      <trkpt lat="44.37353" lon="4.44367">
        <ele>298.5</ele>
        <time>2022-06-11T10:06:53Z</time>
      </trkpt>
      <trkpt lat="44.37344" lon="4.44378">
        <ele>297.4</ele>
        <time>2022-06-11T10:06:54Z</time>
      </trkpt>
      <trkpt lat="44.37333" lon="4.44386">
        <ele>296.4</ele>
        <time>2022-06-11T10:06:55Z</time>
      </trkpt>
      <trkpt lat="44.37322" lon="4.4439">
        <ele>295.4</ele>
        <time>2022-06-11T10:06:56Z</time>
      </trkpt>
      <trkpt lat="44.3731" lon="4.44391">
        <ele>294.5</ele>
        <time>2022-06-11T10:06:57Z</time>
      </trkpt>
      <trkpt lat="44.37299" lon="4.44388">
        <ele>293.8</ele>
        <time>2022-06-11T10:06:58Z</time>
      </trkpt>
      <trkpt lat="44.37288" lon="4.44383">
        <ele>293.2</ele>
        <time>2022-06-11T10:06:59Z</time>
      </trkpt>
      <trkpt lat="44.37277" lon="4.44378">
        <ele>292.7</ele>
        <time>2022-06-11T10:07:00Z</time>
      </trkpt>
      <trkpt lat="44.37266" lon="4.44375">
        <ele>292.2</ele>
        <time>2022-06-11T10:07:01Z</time>
      </trkpt>
      <trkpt lat="44.37256" lon="4.44376">
        <ele>291.5</ele>
        <time>2022-06-11T10:07:02Z</time>
      </trkpt>
      <trkpt lat="44.37246" lon="4.44382">
        <ele>290.8</ele>
        <time>2022-06-11T10:07:03Z</time>
      </trkpt>
      <trkpt lat="44.37239" lon="4.44392">
        <ele>289.9</ele>
        <time>2022-06-11T10:07:04Z</time>
      </trkpt>
      <trkpt lat="44.37233" lon="4.44406">
        <ele>288.9</ele>
        <time>2022-06-11T10:07:05Z</time>
      </trkpt>
      <trkpt lat="44.37231" lon="4.44421">
        <ele>287.8</ele>
        <time>2022-06-11T10:07:06Z</time>
      </trkpt>
      <trkpt lat="44.3723" lon="4.44437">
        <ele>286.8</ele>
        <time>2022-06-11T10:07:07Z</time>
      </trkpt>
      <trkpt lat="44.3723" lon="4.44453">
        <ele>285.7</ele>
        <time>2022-06-11T10:07:08Z</time>
      </trkpt>
      <trkpt lat="44.3723" lon="4.44469">
        <ele>284.7</ele>
        <time>2022-06-11T10:07:09Z</time>
      </trkpt>
      <trkpt lat="44.37231" lon="4.44485">
        <ele>283.7</ele>
        <time>2022-06-11T10:07:10Z</time>
      </trkpt>
      <trkpt lat="44.37232" lon="4.44501">
        <ele>282.8</ele>
        <time>2022-06-11T10:07:11Z</time>
      </trkpt>
      <trkpt lat="44.37236" lon="4.44516">
        <ele>281.7</ele>
        <time>2022-06-11T10:07:12Z</time>
      </trkpt>
      <trkpt lat="44.37239" lon="4.44531">
        <ele>280.7</ele>
        <time>2022-06-11T10:07:13Z</time>
      </trkpt>
      <trkpt lat="44.37242" lon="4.44546">
        <ele>279.7</ele>
        <time>2022-06-11T10:07:14Z</time>
      </trkpt>
      <trkpt lat="44.37245" lon="4.44562">
        <ele>278.9</ele>
        <time>2022-06-11T10:07:15Z</time>
      </trkpt>
      <trkpt lat="44.37248" lon="4.44578">
        <ele>278.1</ele>
        <time>2022-06-11T10:07:16Z</time>
      </trkpt>
      <trkpt lat="44.3725" lon="4.44594">
        <ele>277.3</ele>
        <time>2022-06-11T10:07:17Z</time>
      </trkpt>
      <trkpt lat="44.37253" lon="4.4461">
        <ele>276.6</ele>
        <time>2022-06-11T10:07:18Z</time>
      </trkpt>
      <trkpt lat="44.37256" lon="4.44626">
        <ele>275.9</ele>
        <time>2022-06-11T10:07:19Z</time>
      </trkpt>
      <trkpt lat="44.37259" lon="4.44641">
        <ele>275.2</ele>
        <time>2022-06-11T10:07:20Z</time>
      </trkpt>
      <trkpt lat="44.37262" lon="4.44655">
        <ele>274.6</ele>
        <time>2022-06-11T10:07:21Z</time>
      </trkpt>
      <trkpt lat="44.37265" lon="4.44669">
        <ele>273.9</ele>
        <time>2022-06-11T10:07:22Z</time>
      </trkpt>
      <trkpt lat="44.3727" lon="4.44682">
        <ele>273.4</ele>
        <time>2022-06-11T10:07:23Z</time>
      </trkpt>
      <trkpt lat="44.37277" lon="4.44694">
        <ele>272.8</ele>
        <time>2022-06-11T10:07:24Z</time>
      </trkpt>
      <trkpt lat="44.37284" lon="4.44705">
        <ele>272.3</ele>
        <time>2022-06-11T10:07:25Z</time>
      </trkpt>
      <trkpt lat="44.37292" lon="4.44713">
        <ele>271.8</ele>
        <time>2022-06-11T10:07:26Z</time>
      </trkpt>
      <trkpt lat="44.37301" lon="4.44721">
        <ele>271.4</ele>
        <time>2022-06-11T10:07:27Z</time>
      </trkpt>
      <trkpt lat="44.3731" lon="4.44727">
        <ele>271</ele>
        <time>2022-06-11T10:07:28Z</time>
      </trkpt>
      <trkpt lat="44.37319" lon="4.44733">
        <ele>270.6</ele>
        <time>2022-06-11T10:07:29Z</time>
      </trkpt>
      <trkpt lat="44.37328" lon="4.44738">
        <ele>270.3</ele>
        <time>2022-06-11T10:07:30Z</time>
      </trkpt>
      <trkpt lat="44.37337" lon="4.44741">
        <ele>270.1</ele>
        <time>2022-06-11T10:07:31Z</time>
      </trkpt>
      <trkpt lat="44.37346" lon="4.44744">
        <ele>269.8</ele>
        <time>2022-06-11T10:07:32Z</time>
      </trkpt>
      <trkpt lat="44.37355" lon="4.44746">
        <ele>269.7</ele>
        <time>2022-06-11T10:07:33Z</time>
      </trkpt>
      <trkpt lat="44.37365" lon="4.44746">
        <ele>269.7</ele>
        <time>2022-06-11T10:07:34Z</time>
      </trkpt>
      <trkpt lat="44.37374" lon="4.44748">
        <ele>269.7</ele>
        <time>2022-06-11T10:07:35Z</time>
      </trkpt>
      <trkpt lat="44.37382" lon="4.44753">
        <ele>269.7</ele>
        <time>2022-06-11T10:07:36Z</time>
      </trkpt>
      <trkpt lat="44.37388" lon="4.44762">
        <ele>269.6</ele>
        <time>2022-06-11T10:07:37Z</time>
      </trkpt>
      <trkpt lat="44.37389" lon="4.44774">
        <ele>269.4</ele>
        <time>2022-06-11T10:07:38Z</time>
      </trkpt>
      <trkpt lat="44.37387" lon="4.44786">
        <ele>269.2</ele>
        <time>2022-06-11T10:07:39Z</time>
      </trkpt>
      <trkpt lat="44.37381" lon="4.44795">
        <ele>268.8</ele>
        <time>2022-06-11T10:07:40Z</time>
      </trkpt>
      <trkpt lat="44.37374" lon="4.44802">
        <ele>268.4</ele>
        <time>2022-06-11T10:07:41Z</time>
      </trkpt>
      <trkpt lat="44.37366" lon="4.44806">
        <ele>268</ele>
        <time>2022-06-11T10:07:42Z</time>
      </trkpt>
      <trkpt lat="44.37359" lon="4.44811">
        <ele>267.7</ele>
        <time>2022-06-11T10:07:43Z</time>
      </trkpt>
      <trkpt lat="44.37351" lon="4.44817">
        <ele>267.4</ele>
        <time>2022-06-11T10:07:44Z</time>
      </trkpt>
      <trkpt lat="44.37344" lon="4.44822">
        <ele>267</ele>
        <time>2022-06-11T10:07:45Z</time>
      </trkpt>
      <trkpt lat="44.37336" lon="4.44828">
        <ele>266.7</ele>
        <time>2022-06-11T10:07:46Z</time>
      </trkpt>
      <trkpt lat="44.37329" lon="4.44835">
        <ele>266.2</ele>
        <time>2022-06-11T10:07:47Z</time>
      </trkpt>
      <trkpt lat="44.37324" lon="4.44845">
        <ele>265.8</ele>
        <time>2022-06-11T10:07:48Z</time>
      </trkpt>
      <trkpt lat="44.37319" lon="4.44856">
        <ele>265.2</ele>
        <time>2022-06-11T10:07:49Z</time>
      </trkpt>
      <trkpt lat="44.37315" lon="4.44868">
        <ele>264.8</ele>
        <time>2022-06-11T10:07:50Z</time>
      </trkpt>
      <trkpt lat="44.37311" lon="4.44879">
        <ele>264.4</ele>
        <time>2022-06-11T10:07:51Z</time>
      </trkpt>
      <trkpt lat="44.37307" lon="4.44892">
        <ele>264</ele>
        <time>2022-06-11T10:07:52Z</time>
      </trkpt>
      <trkpt lat="44.37303" lon="4.44904">
        <ele>263.6</ele>
        <time>2022-06-11T10:07:53Z</time>
      </trkpt>
      <trkpt lat="44.37299" lon="4.44915">
        <ele>263.1</ele>
        <time>2022-06-11T10:07:54Z</time>
      </trkpt>
      <trkpt lat="44.37293" lon="4.44925">
        <ele>262.5</ele>
        <time>2022-06-11T10:07:55Z</time>
      </trkpt>
      <trkpt lat="44.37285" lon="4.44929">
        <ele>261.8</ele>
        <time>2022-06-11T10:07:56Z</time>
      </trkpt>
      <trkpt lat="44.37275" lon="4.4493">
        <ele>261</ele>
        <time>2022-06-11T10:07:57Z</time>
      </trkpt>
      <trkpt lat="44.37267" lon="4.44927">
        <ele>260.1</ele>
        <time>2022-06-11T10:07:58Z</time>
      </trkpt>
      <trkpt lat="44.37259" lon="4.44921">
        <ele>259.3</ele>
        <time>2022-06-11T10:07:59Z</time>
      </trkpt>
      <trkpt lat="44.37251" lon="4.44913">
        <ele>258.4</ele>
        <time>2022-06-11T10:08:00Z</time>
      </trkpt>
      <trkpt lat="44.37243" lon="4.44905">
        <ele>257.4</ele>
        <time>2022-06-11T10:08:01Z</time>
      </trkpt>
      <trkpt lat="44.37234" lon="4.44896">
        <ele>256.5</ele>
        <time>2022-06-11T10:08:02Z</time>
      </trkpt>
      <trkpt lat="44.37224" lon="4.44888">
        <ele>255.4</ele>
        <time>2022-06-11T10:08:03Z</time>
      </trkpt>
      <trkpt lat="44.37214" lon="4.44881">
        <ele>254.4</ele>
        <time>2022-06-11T10:08:04Z</time>
      </trkpt>
      <trkpt lat="44.37202" lon="4.44875">
        <ele>253.4</ele>
        <time>2022-06-11T10:08:05Z</time>
      </trkpt>
      <trkpt lat="44.37191" lon="4.44869">
        <ele>252.5</ele>
        <time>2022-06-11T10:08:06Z</time>
      </trkpt>
      <trkpt lat="44.37179" lon="4.44863">
        <ele>251.5</ele>
        <time>2022-06-11T10:08:07Z</time>
      </trkpt>
      <trkpt lat="44.37167" lon="4.44858">
        <ele>250.6</ele>
        <time>2022-06-11T10:08:08Z</time>
      </trkpt>
      <trkpt lat="44.37155" lon="4.44857">
        <ele>249.9</ele>
        <time>2022-06-11T10:08:09Z</time>
      </trkpt>
      <trkpt lat="44.37142" lon="4.44859">
        <ele>249</ele>
        <time>2022-06-11T10:08:10Z</time>
      </trkpt>
      <trkpt lat="44.3713" lon="4.44865">
        <ele>248.2</ele>
        <time>2022-06-11T10:08:11Z</time>
      </trkpt>
      <trkpt lat="44.37119" lon="4.44875">
        <ele>247.3</ele>
        <time>2022-06-11T10:08:12Z</time>
      </trkpt>
      <trkpt lat="44.37111" lon="4.44887">
        <ele>246.6</ele>
        <time>2022-06-11T10:08:13Z</time>
      </trkpt>
      <trkpt lat="44.37105" lon="4.44901">
        <ele>245.8</ele>
        <time>2022-06-11T10:08:14Z</time>
      </trkpt>
      <trkpt lat="44.37101" lon="4.44917">
        <ele>245.3</ele>
        <time>2022-06-11T10:08:15Z</time>
      </trkpt>
      <trkpt lat="44.37096" lon="4.44931">
        <ele>245.3</ele>
        <time>2022-06-11T10:08:16Z</time>
      </trkpt>
      <trkpt lat="44.37092" lon="4.44945">
        <ele>245.3</ele>
        <time>2022-06-11T10:08:17Z</time>
      </trkpt>
      <trkpt lat="44.37088" lon="4.44957">
        <ele>245.3</ele>
        <time>2022-06-11T10:08:18Z</time>
      </trkpt>
      <trkpt lat="44.37083" lon="4.44969">
        <ele>245.4</ele>
        <time>2022-06-11T10:08:19Z</time>
      </trkpt>
      <trkpt lat="44.37078" lon="4.4498">
        <ele>245.6</ele>
        <time>2022-06-11T10:08:20Z</time>
      </trkpt>
      <trkpt lat="44.37073" lon="4.4499">
        <ele>245.8</ele>
        <time>2022-06-11T10:08:21Z</time>
      </trkpt>
      <trkpt lat="44.37069" lon="4.45">
        <ele>246</ele>
        <time>2022-06-11T10:08:22Z</time>
      </trkpt>
      <trkpt lat="44.37064" lon="4.45009">
        <ele>246.2</ele>
        <time>2022-06-11T10:08:23Z</time>
      </trkpt>
      <trkpt lat="44.3706" lon="4.45018">
        <ele>246.4</ele>
        <time>2022-06-11T10:08:24Z</time>
      </trkpt>
      <trkpt lat="44.37057" lon="4.45027">
        <ele>246.6</ele>
        <time>2022-06-11T10:08:25Z</time>
      </trkpt>
      <trkpt lat="44.37052" lon="4.45035">
        <ele>246.8</ele>
        <time>2022-06-11T10:08:26Z</time>
      </trkpt>
      <trkpt lat="44.37049" lon="4.45042">
        <ele>247.1</ele>
        <time>2022-06-11T10:08:27Z</time>
      </trkpt>
      <trkpt lat="44.37045" lon="4.4505">
        <ele>247.3</ele>
        <time>2022-06-11T10:08:28Z</time>
      </trkpt>
      <trkpt lat="44.37041" lon="4.45056">
        <ele>247.4</ele>
        <time>2022-06-11T10:08:29Z</time>
      </trkpt>
      <trkpt lat="44.37037" lon="4.45062">
        <ele>247.6</ele>
        <time>2022-06-11T10:08:30Z</time>
      </trkpt>
      <trkpt lat="44.37033" lon="4.45068">
        <ele>247.8</ele>
        <time>2022-06-11T10:08:31Z</time>
      </trkpt>
      <trkpt lat="44.37029" lon="4.45073">
        <ele>247.9</ele>
        <time>2022-06-11T10:08:32Z</time>
      </trkpt>
      <trkpt lat="44.37025" lon="4.45077">
        <ele>248</ele>
        <time>2022-06-11T10:08:33Z</time>
      </trkpt>
      <trkpt lat="44.3702" lon="4.45082">
        <ele>248.1</ele>
        <time>2022-06-11T10:08:34Z</time>
      </trkpt>
      <trkpt lat="44.37016" lon="4.45086">
        <ele>248.2</ele>
        <time>2022-06-11T10:08:35Z</time>
      </trkpt>
      <trkpt lat="44.37013" lon="4.4509">
        <ele>248.3</ele>
        <time>2022-06-11T10:08:36Z</time>
      </trkpt>
      <trkpt lat="44.37009" lon="4.45094">
        <ele>248.3</ele>
        <time>2022-06-11T10:08:37Z</time>
      </trkpt>
      <trkpt lat="44.37005" lon="4.45098">
        <ele>248.5</ele>
        <time>2022-06-11T10:08:38Z</time>
      </trkpt>
      <trkpt lat="44.37001" lon="4.45103">
        <ele>248.6</ele>
        <time>2022-06-11T10:08:39Z</time>
      </trkpt>
      <trkpt lat="44.36997" lon="4.45107">
        <ele>248.8</ele>
        <time>2022-06-11T10:08:40Z</time>
      </trkpt>
      <trkpt lat="44.36993" lon="4.45111">
        <ele>248.9</ele>
        <time>2022-06-11T10:08:41Z</time>
      </trkpt>
      <trkpt lat="44.3699" lon="4.45115">
        <ele>249.1</ele>
        <time>2022-06-11T10:08:42Z</time>
      </trkpt>
      <trkpt lat="44.36988" lon="4.45118">
        <ele>249.2</ele>
        <time>2022-06-11T10:08:43Z</time>
      </trkpt>
      <trkpt lat="44.36985" lon="4.45122">
        <ele>249.3</ele>
        <time>2022-06-11T10:08:44Z</time>
      </trkpt>
      <trkpt lat="44.36981" lon="4.45127">
        <ele>249.5</ele>
        <time>2022-06-11T10:08:45Z</time>
      </trkpt>
      <trkpt lat="44.36978" lon="4.45131">
        <ele>249.7</ele>
        <time>2022-06-11T10:08:46Z</time>
      </trkpt>
      <trkpt lat="44.36976" lon="4.45135">
        <ele>249.8</ele>
        <time>2022-06-11T10:08:47Z</time>
      </trkpt>
      <trkpt lat="44.36973" lon="4.45139">
        <ele>250</ele>
        <time>2022-06-11T10:08:48Z</time>
      </trkpt>
      <trkpt lat="44.36969" lon="4.45144">
        <ele>250.2</ele>
        <time>2022-06-11T10:08:49Z</time>
      </trkpt>
      <trkpt lat="44.36967" lon="4.45148">
        <ele>250.3</ele>
        <time>2022-06-11T10:08:50Z</time>
      </trkpt>
      <trkpt lat="44.36964" lon="4.45151">
        <ele>250.5</ele>
        <time>2022-06-11T10:08:51Z</time>
      </trkpt>
      <trkpt lat="44.36961" lon="4.45156">
        <ele>250.7</ele>
        <time>2022-06-11T10:08:52Z</time>
      </trkpt>
      <trkpt lat="44.36958" lon="4.45159">
        <ele>250.8</ele>
        <time>2022-06-11T10:08:53Z</time>
      </trkpt>
      <trkpt lat="44.36956" lon="4.45162">
        <ele>251</ele>
        <time>2022-06-11T10:08:54Z</time>
      </trkpt>
      <trkpt lat="44.36953" lon="4.45166">
        <ele>251.2</ele>
        <time>2022-06-11T10:08:55Z</time>
      </trkpt>
      <trkpt lat="44.36951" lon="4.4517">
        <ele>251.4</ele>
        <time>2022-06-11T10:08:56Z</time>
      </trkpt>
      <trkpt lat="44.3695" lon="4.45171">
        <ele>251.4</ele>
        <time>2022-06-11T10:08:57Z</time>
      </trkpt>
      <trkpt lat="44.36947" lon="4.45175">
        <ele>251.6</ele>
        <time>2022-06-11T10:08:58Z</time>
      </trkpt>
      <trkpt lat="44.36946" lon="4.45176">
        <ele>251.7</ele>
        <time>2022-06-11T10:08:59Z</time>
      </trkpt>
      <trkpt lat="44.36943" lon="4.4518">
        <ele>252</ele>
        <time>2022-06-11T10:09:00Z</time>
      </trkpt>
      <trkpt lat="44.36943" lon="4.45182">
        <ele>252</ele>
        <time>2022-06-11T10:09:01Z</time>
      </trkpt>
      <trkpt lat="44.3694" lon="4.45185">
        <ele>252.2</ele>
        <time>2022-06-11T10:09:02Z</time>
      </trkpt>
      <trkpt lat="44.36939" lon="4.45186">
        <ele>252.3</ele>
        <time>2022-06-11T10:09:03Z</time>
      </trkpt>
      <trkpt lat="44.36937" lon="4.45189">
        <ele>252.5</ele>
        <time>2022-06-11T10:09:04Z</time>
      </trkpt>
      <trkpt lat="44.36936" lon="4.45191">
        <ele>252.6</ele>
        <time>2022-06-11T10:09:05Z</time>
      </trkpt>
      <trkpt lat="44.36934" lon="4.45194">
        <ele>252.8</ele>
        <time>2022-06-11T10:09:06Z</time>
      </trkpt>
      <trkpt lat="44.36933" lon="4.45195">
        <ele>252.9</ele>
        <time>2022-06-11T10:09:07Z</time>
      </trkpt>
      <trkpt lat="44.36931" lon="4.45198">
        <ele>253.1</ele>
        <time>2022-06-11T10:09:08Z</time>
      </trkpt>
      <trkpt lat="44.3693" lon="4.45199">
        <ele>253.2</ele>
        <time>2022-06-11T10:09:09Z</time>
      </trkpt>
      <trkpt lat="44.36928" lon="4.45203">
        <ele>253.4</ele>
        <time>2022-06-11T10:09:10Z</time>
      </trkpt>
      <trkpt lat="44.36927" lon="4.45204">
        <ele>253.5</ele>
        <time>2022-06-11T10:09:11Z</time>
      </trkpt>
      <trkpt lat="44.36925" lon="4.45207">
        <ele>253.7</ele>
        <time>2022-06-11T10:09:12Z</time>
      </trkpt>
      <trkpt lat="44.36925" lon="4.45209">
        <ele>253.8</ele>
        <time>2022-06-11T10:09:13Z</time>
      </trkpt>
      <trkpt lat="44.36923" lon="4.45212">
        <ele>254</ele>
        <time>2022-06-11T10:09:14Z</time>
      </trkpt>
      <trkpt lat="44.36922" lon="4.45214">
        <ele>254.1</ele>
        <time>2022-06-11T10:09:15Z</time>
      </trkpt>
      <trkpt lat="44.36921" lon="4.45217">
        <ele>254.2</ele>
        <time>2022-06-11T10:09:16Z</time>
      </trkpt>
      <trkpt lat="44.3692" lon="4.45218">
        <ele>254.3</ele>
        <time>2022-06-11T10:09:17Z</time>
      </trkpt>
      <trkpt lat="44.36919" lon="4.45222">
        <ele>254.5</ele>
        <time>2022-06-11T10:09:18Z</time>
      </trkpt>
      <trkpt lat="44.36919" lon="4.45223">
        <ele>254.5</ele>
        <time>2022-06-11T10:09:19Z</time>
      </trkpt>
      <trkpt lat="44.36918" lon="4.45228">
        <ele>254.6</ele>
        <time>2022-06-11T10:09:20Z</time>
      </trkpt>
      <trkpt lat="44.36917" lon="4.45229">
        <ele>254.7</ele>
        <time>2022-06-11T10:09:21Z</time>
      </trkpt>
      <trkpt lat="44.36917" lon="4.45234">
        <ele>254.8</ele>
        <time>2022-06-11T10:09:22Z</time>
      </trkpt>
      <trkpt lat="44.36917" lon="4.45235">
        <ele>254.8</ele>
        <time>2022-06-11T10:09:23Z</time>
      </trkpt>
      <trkpt lat="44.36917" lon="4.45241">
        <ele>254.9</ele>
        <time>2022-06-11T10:09:24Z</time>
      </trkpt>
      <trkpt lat="44.36917" lon="4.45242">
        <ele>255</ele>
        <time>2022-06-11T10:09:25Z</time>
      </trkpt>
      <trkpt lat="44.36918" lon="4.45248">
        <ele>255</ele>
        <time>2022-06-11T10:09:26Z</time>
      </trkpt>
      <trkpt lat="44.36919" lon="4.45249">
        <ele>255.1</ele>
        <time>2022-06-11T10:09:27Z</time>
      </trkpt>
      <trkpt lat="44.3692" lon="4.45253">
        <ele>255.1</ele>
        <time>2022-06-11T10:09:28Z</time>
      </trkpt>
      <trkpt lat="44.36921" lon="4.45257">
        <ele>255.2</ele>
        <time>2022-06-11T10:09:29Z</time>
      </trkpt>
      <trkpt lat="44.36923" lon="4.4526">
        <ele>255.2</ele>
        <time>2022-06-11T10:09:30Z</time>
      </trkpt>
      <trkpt lat="44.36925" lon="4.45265">
        <ele>255.2</ele>
        <time>2022-06-11T10:09:31Z</time>
      </trkpt>
      <trkpt lat="44.36926" lon="4.45266">
        <ele>255.2</ele>
        <time>2022-06-11T10:09:32Z</time>
      </trkpt>
      <trkpt lat="44.36929" lon="4.4527">
        <ele>255.3</ele>
        <time>2022-06-11T10:09:33Z</time>
      </trkpt>
      <trkpt lat="44.3693" lon="4.45272">
        <ele>255.3</ele>
        <time>2022-06-11T10:09:34Z</time>
      </trkpt>
      <trkpt lat="44.36932" lon="4.45276">
        <ele>255.4</ele>
        <time>2022-06-11T10:09:35Z</time>
      </trkpt>
      <trkpt lat="44.36934" lon="4.45278">
        <ele>255.4</ele>
        <time>2022-06-11T10:09:36Z</time>
      </trkpt>
      <trkpt lat="44.36936" lon="4.45282">
        <ele>255.5</ele>
        <time>2022-06-11T10:09:37Z</time>
      </trkpt>
      <trkpt lat="44.3694" lon="4.45286">
        <ele>255.6</ele>
        <time>2022-06-11T10:09:38Z</time>
      </trkpt>
      <trkpt lat="44.36941" lon="4.45287">
        <ele>255.6</ele>
        <time>2022-06-11T10:09:39Z</time>
      </trkpt>
      <trkpt lat="44.36943" lon="4.4529">
        <ele>255.7</ele>
        <time>2022-06-11T10:09:40Z</time>
      </trkpt>
      <trkpt lat="44.36946" lon="4.45293">
        <ele>255.7</ele>
        <time>2022-06-11T10:09:41Z</time>
      </trkpt>
      <trkpt lat="44.36948" lon="4.45296">
        <ele>255.8</ele>
        <time>2022-06-11T10:09:42Z</time>
      </trkpt>
      <trkpt lat="44.3695" lon="4.453">
        <ele>255.9</ele>
        <time>2022-06-11T10:09:43Z</time>
      </trkpt>
      <trkpt lat="44.36954" lon="4.45305">
        <ele>256</ele>
        <time>2022-06-11T10:09:44Z</time>
      </trkpt>
      <trkpt lat="44.36957" lon="4.45307">
        <ele>256.1</ele>
        <time>2022-06-11T10:09:45Z</time>
      </trkpt>
      <trkpt lat="44.36959" lon="4.4531">
        <ele>256.2</ele>
        <time>2022-06-11T10:09:47Z</time>
      </trkpt>
      <trkpt lat="44.36962" lon="4.45313">
        <ele>256.2</ele>
        <time>2022-06-11T10:09:48Z</time>
      </trkpt>
      <trkpt lat="44.36964" lon="4.45315">
        <ele>256.3</ele>
        <time>2022-06-11T10:09:49Z</time>
      </trkpt>
      <trkpt lat="44.36967" lon="4.45319">
        <ele>256.4</ele>
        <time>2022-06-11T10:09:50Z</time>
      </trkpt>
      <trkpt lat="44.36968" lon="4.4532">
        <ele>256.4</ele>
        <time>2022-06-11T10:09:51Z</time>
      </trkpt>
      <trkpt lat="44.36971" lon="4.45323">
        <ele>256.5</ele>
        <time>2022-06-11T10:09:52Z</time>
      </trkpt>
      <trkpt lat="44.36973" lon="4.45327">
        <ele>256.6</ele>
        <time>2022-06-11T10:09:53Z</time>
      </trkpt>
      <trkpt lat="44.36975" lon="4.45331">
        <ele>256.7</ele>
        <time>2022-06-11T10:09:54Z</time>
      </trkpt>
      <trkpt lat="44.36978" lon="4.45335">
        <ele>256.8</ele>
        <time>2022-06-11T10:09:56Z</time>
      </trkpt>
      <trkpt lat="44.3698" lon="4.45339">
        <ele>256.9</ele>
        <time>2022-06-11T10:09:57Z</time>
      </trkpt>
      <trkpt lat="44.36982" lon="4.45344">
        <ele>257</ele>
        <time>2022-06-11T10:09:58Z</time>
      </trkpt>
      <trkpt lat="44.36985" lon="4.4535">
        <ele>257.1</ele>
        <time>2022-06-11T10:10:00Z</time>
      </trkpt>
      <trkpt lat="44.36986" lon="4.45355">
        <ele>257.2</ele>
        <time>2022-06-11T10:10:01Z</time>
      </trkpt>
      <trkpt lat="44.36988" lon="4.45361">
        <ele>257.3</ele>
        <time>2022-06-11T10:10:03Z</time>
      </trkpt>
      <trkpt lat="44.36989" lon="4.45366">
        <ele>257.4</ele>
        <time>2022-06-11T10:10:04Z</time>
      </trkpt>
      <trkpt lat="44.36991" lon="4.45373">
        <ele>257.5</ele>
        <time>2022-06-11T10:10:06Z</time>
      </trkpt>
      <trkpt lat="44.36992" lon="4.45378">
        <ele>257.6</ele>
        <time>2022-06-11T10:10:07Z</time>
      </trkpt>
      <trkpt lat="44.36993" lon="4.45379">
        <ele>257.6</ele>
        <time>2022-06-11T10:10:08Z</time>
      </trkpt>
      <trkpt lat="44.36993" lon="4.45385">
        <ele>257.7</ele>
        <time>2022-06-11T10:10:09Z</time>
      </trkpt>
      <trkpt lat="44.36993" lon="4.45387">
        <ele>257.7</ele>
        <time>2022-06-11T10:10:10Z</time>
      </trkpt>
      <trkpt lat="44.36995" lon="4.45391">
        <ele>257.8</ele>
        <time>2022-06-11T10:10:11Z</time>
      </trkpt>
      <trkpt lat="44.36996" lon="4.45394">
        <ele>257.8</ele>
        <time>2022-06-11T10:10:12Z</time>
      </trkpt>
      <trkpt lat="44.36997" lon="4.45398">
        <ele>257.9</ele>
        <time>2022-06-11T10:10:13Z</time>
      </trkpt>
      <trkpt lat="44.36997" lon="4.45403">
        <ele>258</ele>
        <time>2022-06-11T10:10:14Z</time>
      </trkpt>
      <trkpt lat="44.36998" lon="4.45409">
        <ele>258.1</ele>
        <time>2022-06-11T10:10:15Z</time>
      </trkpt>
      <trkpt lat="44.37" lon="4.45415">
        <ele>258.1</ele>
        <time>2022-06-11T10:10:17Z</time>
      </trkpt>
      <trkpt lat="44.37" lon="4.4542">
        <ele>258.2</ele>
        <time>2022-06-11T10:10:18Z</time>
      </trkpt>
      <trkpt lat="44.37002" lon="4.45428">
        <ele>258.3</ele>
        <time>2022-06-11T10:10:19Z</time>
      </trkpt>
      <trkpt lat="44.37003" lon="4.45432">
        <ele>258.4</ele>
        <time>2022-06-11T10:10:21Z</time>
      </trkpt>
      <trkpt lat="44.37004" lon="4.45436">
        <ele>258.4</ele>
        <time>2022-06-11T10:10:22Z</time>
      </trkpt>
      <trkpt lat="44.37006" lon="4.45441">
        <ele>258.5</ele>
        <time>2022-06-11T10:10:23Z</time>
      </trkpt>
      <trkpt lat="44.37009" lon="4.45448">
        <ele>258.6</ele>
        <time>2022-06-11T10:10:24Z</time>
      </trkpt>
      <trkpt lat="44.37012" lon="4.45452">
        <ele>258.7</ele>
        <time>2022-06-11T10:10:26Z</time>
      </trkpt>
      <trkpt lat="44.37014" lon="4.45455">
        <ele>258.8</ele>
        <time>2022-06-11T10:10:27Z</time>
      </trkpt>
      <trkpt lat="44.37017" lon="4.45463">
        <ele>258.9</ele>
        <time>2022-06-11T10:10:28Z</time>
      </trkpt>
      <trkpt lat="44.3702" lon="4.45466">
        <ele>259</ele>
        <time>2022-06-11T10:10:30Z</time>
      </trkpt>
      <trkpt lat="44.37023" lon="4.4547">
        <ele>259.1</ele>
        <time>2022-06-11T10:10:31Z</time>
      </trkpt>
      <trkpt lat="44.37025" lon="4.45474">
        <ele>259.1</ele>
        <time>2022-06-11T10:10:32Z</time>
      </trkpt>
      <trkpt lat="44.37028" lon="4.45479">
        <ele>259.3</ele>
        <time>2022-06-11T10:10:34Z</time>
      </trkpt>
      <trkpt lat="44.37031" lon="4.45483">
        <ele>259.4</ele>
        <time>2022-06-11T10:10:35Z</time>
      </trkpt>
      <trkpt lat="44.37034" lon="4.45487">
        <ele>259.5</ele>
        <time>2022-06-11T10:10:36Z</time>
      </trkpt>
      <trkpt lat="44.37037" lon="4.45493">
        <ele>259.6</ele>
        <time>2022-06-11T10:10:37Z</time>
      </trkpt>
      <trkpt lat="44.37038" lon="4.45498">
        <ele>259.7</ele>
        <time>2022-06-11T10:10:38Z</time>
      </trkpt>
      <trkpt lat="44.3704" lon="4.45504">
        <ele>259.9</ele>
        <time>2022-06-11T10:10:39Z</time>
      </trkpt>
      <trkpt lat="44.37041" lon="4.4551">
        <ele>260</ele>
        <time>2022-06-11T10:10:41Z</time>
      </trkpt>
      <trkpt lat="44.37042" lon="4.45515">
        <ele>260.2</ele>
        <time>2022-06-11T10:10:43Z</time>
      </trkpt>
      <trkpt lat="44.37043" lon="4.45521">
        <ele>260.4</ele>
        <time>2022-06-11T10:10:44Z</time>
      </trkpt>
      <trkpt lat="44.37043" lon="4.45523">
        <ele>260.4</ele>
        <time>2022-06-11T10:10:45Z</time>
      </trkpt>
      <trkpt lat="44.37043" lon="4.45534">
        <ele>260.8</ele>
        <time>2022-06-11T10:10:47Z</time>
      </trkpt>
      <trkpt lat="44.37043" lon="4.45538">
        <ele>260.9</ele>
        <time>2022-06-11T10:10:49Z</time>
      </trkpt>
      <trkpt lat="44.37043" lon="4.45542">
        <ele>261.1</ele>
        <time>2022-06-11T10:10:50Z</time>
      </trkpt>
      <trkpt lat="44.37043" lon="4.45549">
        <ele>261.3</ele>
        <time>2022-06-11T10:10:51Z</time>
      </trkpt>
      <trkpt lat="44.37043" lon="4.45555">
        <ele>261.6</ele>
        <time>2022-06-11T10:10:53Z</time>
      </trkpt>
      <trkpt lat="44.37043" lon="4.45558">
        <ele>261.7</ele>
        <time>2022-06-11T10:10:54Z</time>
      </trkpt>
      <trkpt lat="44.37043" lon="4.4556">
        <ele>261.8</ele>
        <time>2022-06-11T10:10:55Z</time>
      </trkpt>
      <trkpt lat="44.37042" lon="4.45564">
        <ele>261.9</ele>
        <time>2022-06-11T10:10:56Z</time>
      </trkpt>
      <trkpt lat="44.37042" lon="4.45569">
        <ele>262.2</ele>
        <time>2022-06-11T10:10:57Z</time>
      </trkpt>
      <trkpt lat="44.37042" lon="4.45571">
        <ele>262.2</ele>
        <time>2022-06-11T10:10:58Z</time>
      </trkpt>
      <trkpt lat="44.37042" lon="4.45576">
        <ele>262.5</ele>
        <time>2022-06-11T10:10:59Z</time>
      </trkpt>
      <trkpt lat="44.37042" lon="4.45578">
        <ele>262.6</ele>
        <time>2022-06-11T10:11:00Z</time>
      </trkpt>
      <trkpt lat="44.37043" lon="4.45583">
        <ele>262.8</ele>
        <time>2022-06-11T10:11:01Z</time>
      </trkpt>
      <trkpt lat="44.37043" lon="4.45584">
        <ele>262.9</ele>
        <time>2022-06-11T10:11:02Z</time>
      </trkpt>
      <trkpt lat="44.37044" lon="4.45589">
        <ele>263.1</ele>
        <time>2022-06-11T10:11:03Z</time>
      </trkpt>
      <trkpt lat="44.37044" lon="4.45591">
        <ele>263.2</ele>
        <time>2022-06-11T10:11:04Z</time>
      </trkpt>
      <trkpt lat="44.37044" lon="4.45596">
        <ele>263.3</ele>
        <time>2022-06-11T10:11:05Z</time>
      </trkpt>
      <trkpt lat="44.37045" lon="4.45599">
        <ele>263.5</ele>
        <time>2022-06-11T10:11:06Z</time>
      </trkpt>
      <trkpt lat="44.37045" lon="4.45602">
        <ele>263.6</ele>
        <time>2022-06-11T10:11:08Z</time>
      </trkpt>
      <trkpt lat="44.37047" lon="4.45608">
        <ele>263.9</ele>
        <time>2022-06-11T10:11:09Z</time>
      </trkpt>
      <trkpt lat="44.37048" lon="4.45612">
        <ele>264.1</ele>
        <time>2022-06-11T10:11:11Z</time>
      </trkpt>
      <trkpt lat="44.3705" lon="4.45619">
        <ele>264.3</ele>
        <time>2022-06-11T10:11:13Z</time>
      </trkpt>
      <trkpt lat="44.37051" lon="4.45622">
        <ele>264.5</ele>
        <time>2022-06-11T10:11:15Z</time>
      </trkpt>
      <trkpt lat="44.37052" lon="4.45627">
        <ele>264.6</ele>
        <time>2022-06-11T10:11:16Z</time>
      </trkpt>
      <trkpt lat="44.37052" lon="4.45629">
        <ele>264.7</ele>
        <time>2022-06-11T10:11:17Z</time>
      </trkpt>
      <trkpt lat="44.37054" lon="4.45634">
        <ele>264.9</ele>
        <time>2022-06-11T10:11:19Z</time>
      </trkpt>
      <trkpt lat="44.37055" lon="4.45638">
        <ele>265.1</ele>
        <time>2022-06-11T10:11:20Z</time>
      </trkpt>
      <trkpt lat="44.37056" lon="4.45639">
        <ele>265.1</ele>
        <time>2022-06-11T10:11:21Z</time>
      </trkpt>
      <trkpt lat="44.37057" lon="4.45644">
        <ele>265.4</ele>
        <time>2022-06-11T10:11:22Z</time>
      </trkpt>
      <trkpt lat="44.3706" lon="4.4565">
        <ele>265.6</ele>
        <time>2022-06-11T10:11:24Z</time>
      </trkpt>
      <trkpt lat="44.3706" lon="4.45651">
        <ele>265.7</ele>
        <time>2022-06-11T10:11:25Z</time>
      </trkpt>
      <trkpt lat="44.37061" lon="4.45653">
        <ele>265.8</ele>
        <time>2022-06-11T10:11:26Z</time>
      </trkpt>
      <trkpt lat="44.37063" lon="4.45658">
        <ele>266</ele>
        <time>2022-06-11T10:11:27Z</time>
      </trkpt>
      <trkpt lat="44.37064" lon="4.45661">
        <ele>266.1</ele>
        <time>2022-06-11T10:11:28Z</time>
      </trkpt>
      <trkpt lat="44.37066" lon="4.45664">
        <ele>266.2</ele>
        <time>2022-06-11T10:11:30Z</time>
      </trkpt>
      <trkpt lat="44.37067" lon="4.45666">
        <ele>266.3</ele>
        <time>2022-06-11T10:11:31Z</time>
      </trkpt>
      <trkpt lat="44.3707" lon="4.45672">
        <ele>266.5</ele>
        <time>2022-06-11T10:11:33Z</time>
      </trkpt>
      <trkpt lat="44.37071" lon="4.45673">
        <ele>266.6</ele>
        <time>2022-06-11T10:11:34Z</time>
      </trkpt>
      <trkpt lat="44.37072" lon="4.45675">
        <ele>266.6</ele>
        <time>2022-06-11T10:11:35Z</time>
      </trkpt>
      <trkpt lat="44.37074" lon="4.45679">
        <ele>266.8</ele>
        <time>2022-06-11T10:11:36Z</time>
      </trkpt>
      <trkpt lat="44.37076" lon="4.45683">
        <ele>267</ele>
        <time>2022-06-11T10:11:38Z</time>
      </trkpt>
      <trkpt lat="44.37077" lon="4.45684">
        <ele>267</ele>
        <time>2022-06-11T10:11:39Z</time>
      </trkpt>
      <trkpt lat="44.37078" lon="4.45687">
        <ele>267.2</ele>
        <time>2022-06-11T10:11:40Z</time>
      </trkpt>
      <trkpt lat="44.37079" lon="4.45688">
        <ele>267.2</ele>
        <time>2022-06-11T10:11:41Z</time>
      </trkpt>
      <trkpt lat="44.3708" lon="4.45692">
        <ele>267.3</ele>
        <time>2022-06-11T10:11:42Z</time>
      </trkpt>
      <trkpt lat="44.37081" lon="4.45693">
        <ele>267.4</ele>
        <time>2022-06-11T10:11:43Z</time>
      </trkpt>
      <trkpt lat="44.37083" lon="4.45697">
        <ele>267.5</ele>
        <time>2022-06-11T10:11:44Z</time>
      </trkpt>
      <trkpt lat="44.37083" lon="4.45698">
        <ele>267.6</ele>
        <time>2022-06-11T10:11:45Z</time>
      </trkpt>
      <trkpt lat="44.37086" lon="4.45702">
        <ele>267.8</ele>
        <time>2022-06-11T10:11:46Z</time>
      </trkpt>
      <trkpt lat="44.37087" lon="4.45704">
        <ele>267.9</ele>
        <time>2022-06-11T10:11:47Z</time>
      </trkpt>
      <trkpt lat="44.37088" lon="4.45707">
        <ele>268</ele>
        <time>2022-06-11T10:11:49Z</time>
      </trkpt>
      <trkpt lat="44.3709" lon="4.4571">
        <ele>268.1</ele>
        <time>2022-06-11T10:11:50Z</time>
      </trkpt>
      <trkpt lat="44.37091" lon="4.45711">
        <ele>268.2</ele>
        <time>2022-06-11T10:11:51Z</time>
      </trkpt>
      <trkpt lat="44.37092" lon="4.45714">
        <ele>268.3</ele>
        <time>2022-06-11T10:11:52Z</time>
      </trkpt>
      <trkpt lat="44.37093" lon="4.45715">
        <ele>268.4</ele>
        <time>2022-06-11T10:11:53Z</time>
      </trkpt>
      <trkpt lat="44.37095" lon="4.45718">
        <ele>268.5</ele>
        <time>2022-06-11T10:11:54Z</time>
      </trkpt>
      <trkpt lat="44.37095" lon="4.45719">
        <ele>268.6</ele>
        <time>2022-06-11T10:11:55Z</time>
      </trkpt>
      <trkpt lat="44.37097" lon="4.45723">
        <ele>268.7</ele>
        <time>2022-06-11T10:11:56Z</time>
      </trkpt>
      <trkpt lat="44.37097" lon="4.45724">
        <ele>268.8</ele>
        <time>2022-06-11T10:11:57Z</time>
      </trkpt>
      <trkpt lat="44.37099" lon="4.45727">
        <ele>268.9</ele>
        <time>2022-06-11T10:11:58Z</time>
      </trkpt>
      <trkpt lat="44.37099" lon="4.45728">
        <ele>269</ele>
        <time>2022-06-11T10:11:59Z</time>
      </trkpt>
      <trkpt lat="44.37102" lon="4.45732">
        <ele>269.1</ele>
        <time>2022-06-11T10:12:00Z</time>
      </trkpt>
      <trkpt lat="44.37104" lon="4.45738">
        <ele>269.4</ele>
        <time>2022-06-11T10:12:02Z</time>
      </trkpt>
      <trkpt lat="44.37105" lon="4.4574">
        <ele>269.5</ele>
        <time>2022-06-11T10:12:04Z</time>
      </trkpt>
      <trkpt lat="44.37105" lon="4.45742">
        <ele>269.5</ele>
        <time>2022-06-11T10:12:05Z</time>
      </trkpt>
      <trkpt lat="44.37106" lon="4.45744">
        <ele>269.6</ele>
        <time>2022-06-11T10:12:06Z</time>
      </trkpt>
      <trkpt lat="44.37107" lon="4.45748">
        <ele>269.8</ele>
        <time>2022-06-11T10:12:07Z</time>
      </trkpt>
      <trkpt lat="44.37108" lon="4.45749">
        <ele>269.8</ele>
        <time>2022-06-11T10:12:08Z</time>
      </trkpt>
      <trkpt lat="44.37109" lon="4.45754">
        <ele>270</ele>
        <time>2022-06-11T10:12:09Z</time>
      </trkpt>
      <trkpt lat="44.37109" lon="4.45755">
        <ele>270.1</ele>
        <time>2022-06-11T10:12:10Z</time>
      </trkpt>
      <trkpt lat="44.3711" lon="4.45761">
        <ele>270.3</ele>
        <time>2022-06-11T10:12:11Z</time>
      </trkpt>
      <trkpt lat="44.3711" lon="4.45764">
        <ele>270.4</ele>
        <time>2022-06-11T10:12:12Z</time>
      </trkpt>
      <trkpt lat="44.3711" lon="4.45767">
        <ele>270.5</ele>
        <time>2022-06-11T10:12:14Z</time>
      </trkpt>
      <trkpt lat="44.37111" lon="4.45771">
        <ele>270.6</ele>
        <time>2022-06-11T10:12:15Z</time>
      </trkpt>
      <trkpt lat="44.37111" lon="4.45773">
        <ele>270.7</ele>
        <time>2022-06-11T10:12:16Z</time>
      </trkpt>
      <trkpt lat="44.37111" lon="4.45777">
        <ele>270.8</ele>
        <time>2022-06-11T10:12:17Z</time>
      </trkpt>
      <trkpt lat="44.37111" lon="4.45781">
        <ele>270.9</ele>
        <time>2022-06-11T10:12:18Z</time>
      </trkpt>
      <trkpt lat="44.37112" lon="4.45784">
        <ele>271</ele>
        <time>2022-06-11T10:12:20Z</time>
      </trkpt>
      <trkpt lat="44.37112" lon="4.45789">
        <ele>271.2</ele>
        <time>2022-06-11T10:12:21Z</time>
      </trkpt>
      <trkpt lat="44.37112" lon="4.45791">
        <ele>271.2</ele>
        <time>2022-06-11T10:12:22Z</time>
      </trkpt>
      <trkpt lat="44.37111" lon="4.45796">
        <ele>271.4</ele>
        <time>2022-06-11T10:12:23Z</time>
      </trkpt>
      <trkpt lat="44.37111" lon="4.45798">
        <ele>271.4</ele>
        <time>2022-06-11T10:12:24Z</time>
      </trkpt>
      <trkpt lat="44.37112" lon="4.45804">
        <ele>271.5</ele>
        <time>2022-06-11T10:12:25Z</time>
      </trkpt>
      <trkpt lat="44.37112" lon="4.45809">
        <ele>271.7</ele>
        <time>2022-06-11T10:12:27Z</time>
      </trkpt>
      <trkpt lat="44.37112" lon="4.4581">
        <ele>271.7</ele>
        <time>2022-06-11T10:12:28Z</time>
      </trkpt>
      <trkpt lat="44.37114" lon="4.45815">
        <ele>271.9</ele>
        <time>2022-06-11T10:12:29Z</time>
      </trkpt>
      <trkpt lat="44.37114" lon="4.45817">
        <ele>271.9</ele>
        <time>2022-06-11T10:12:30Z</time>
      </trkpt>
      <trkpt lat="44.37115" lon="4.45822">
        <ele>272</ele>
        <time>2022-06-11T10:12:31Z</time>
      </trkpt>
      <trkpt lat="44.37116" lon="4.45823">
        <ele>272.1</ele>
        <time>2022-06-11T10:12:32Z</time>
      </trkpt>
      <trkpt lat="44.37115" lon="4.45827">
        <ele>272.2</ele>
        <time>2022-06-11T10:12:33Z</time>
      </trkpt>
      <trkpt lat="44.37116" lon="4.45834">
        <ele>272.3</ele>
        <time>2022-06-11T10:12:34Z</time>
      </trkpt>
      <trkpt lat="44.37117" lon="4.45838">
        <ele>272.4</ele>
        <time>2022-06-11T10:12:36Z</time>
      </trkpt>
      <trkpt lat="44.37117" lon="4.45839">
        <ele>272.4</ele>
        <time>2022-06-11T10:12:37Z</time>
      </trkpt>
      <trkpt lat="44.37118" lon="4.45845">
        <ele>272.6</ele>
        <time>2022-06-11T10:12:38Z</time>
      </trkpt>
      <trkpt lat="44.37119" lon="4.45848">
        <ele>272.6</ele>
        <time>2022-06-11T10:12:39Z</time>
      </trkpt>
      <trkpt lat="44.3712" lon="4.45851">
        <ele>272.7</ele>
        <time>2022-06-11T10:12:41Z</time>
      </trkpt>
      <trkpt lat="44.3712" lon="4.45855">
        <ele>272.8</ele>
        <time>2022-06-11T10:12:42Z</time>
      </trkpt>
      <trkpt lat="44.37122" lon="4.4586">
        <ele>272.9</ele>
        <time>2022-06-11T10:12:43Z</time>
      </trkpt>
      <trkpt lat="44.37122" lon="4.45862">
        <ele>272.9</ele>
        <time>2022-06-11T10:12:44Z</time>
      </trkpt>
      <trkpt lat="44.37123" lon="4.45866">
        <ele>273</ele>
        <time>2022-06-11T10:12:45Z</time>
      </trkpt>
      <trkpt lat="44.37124" lon="4.45871">
        <ele>273.1</ele>
        <time>2022-06-11T10:12:46Z</time>
      </trkpt>
      <trkpt lat="44.37124" lon="4.45873">
        <ele>273.1</ele>
        <time>2022-06-11T10:12:47Z</time>
      </trkpt>
      <trkpt lat="44.37124" lon="4.45879">
        <ele>273.2</ele>
        <time>2022-06-11T10:12:48Z</time>
      </trkpt>
      <trkpt lat="44.37125" lon="4.45881">
        <ele>273.3</ele>
        <time>2022-06-11T10:12:49Z</time>
      </trkpt>
      <trkpt lat="44.37125" lon="4.45887">
        <ele>273.4</ele>
        <time>2022-06-11T10:12:50Z</time>
      </trkpt>
      <trkpt lat="44.37125" lon="4.45889">
        <ele>273.4</ele>
        <time>2022-06-11T10:12:51Z</time>
      </trkpt>
      <trkpt lat="44.37126" lon="4.45894">
        <ele>273.5</ele>
        <time>2022-06-11T10:12:52Z</time>
      </trkpt>
      <trkpt lat="44.37126" lon="4.45899">
        <ele>273.6</ele>
        <time>2022-06-11T10:12:54Z</time>
      </trkpt>
      <trkpt lat="44.37126" lon="4.45905">
        <ele>273.7</ele>
        <time>2022-06-11T10:12:55Z</time>
      </trkpt>
      <trkpt lat="44.37126" lon="4.45911">
        <ele>273.8</ele>
        <time>2022-06-11T10:12:57Z</time>
      </trkpt>
      <trkpt lat="44.37126" lon="4.45913">
        <ele>273.8</ele>
        <time>2022-06-11T10:12:58Z</time>
      </trkpt>
      <trkpt lat="44.37126" lon="4.45915">
        <ele>273.8</ele>
        <time>2022-06-11T10:12:59Z</time>
      </trkpt>
      <trkpt lat="44.37127" lon="4.45921">
        <ele>273.9</ele>
        <time>2022-06-11T10:13:00Z</time>
      </trkpt>
      <trkpt lat="44.37127" lon="4.45925">
        <ele>274</ele>
        <time>2022-06-11T10:13:01Z</time>
      </trkpt>
      <trkpt lat="44.37127" lon="4.4593">
        <ele>274</ele>
        <time>2022-06-11T10:13:03Z</time>
      </trkpt>
      <trkpt lat="44.37127" lon="4.45936">
        <ele>274.1</ele>
        <time>2022-06-11T10:13:04Z</time>
      </trkpt>
      <trkpt lat="44.37127" lon="4.45938">
        <ele>274.2</ele>
        <time>2022-06-11T10:13:05Z</time>
      </trkpt>
      <trkpt lat="44.37127" lon="4.45942">
        <ele>274.3</ele>
        <time>2022-06-11T10:13:06Z</time>
      </trkpt>
      <trkpt lat="44.37127" lon="4.45946">
        <ele>274.4</ele>
        <time>2022-06-11T10:13:07Z</time>
      </trkpt>
      <trkpt lat="44.37127" lon="4.45953">
        <ele>274.5</ele>
        <time>2022-06-11T10:13:08Z</time>
      </trkpt>
      <trkpt lat="44.37126" lon="4.45957">
        <ele>274.6</ele>
        <time>2022-06-11T10:13:09Z</time>
      </trkpt>
      <trkpt lat="44.37126" lon="4.45964">
        <ele>274.8</ele>
        <time>2022-06-11T10:13:11Z</time>
      </trkpt>
      <trkpt lat="44.37126" lon="4.45967">
        <ele>274.9</ele>
        <time>2022-06-11T10:13:12Z</time>
      </trkpt>
      <trkpt lat="44.37126" lon="4.45969">
        <ele>274.9</ele>
        <time>2022-06-11T10:13:13Z</time>
      </trkpt>
      <trkpt lat="44.37126" lon="4.45975">
        <ele>275</ele>
        <time>2022-06-11T10:13:14Z</time>
      </trkpt>
      <trkpt lat="44.37126" lon="4.45976">
        <ele>275.1</ele>
        <time>2022-06-11T10:13:15Z</time>
      </trkpt>
      <trkpt lat="44.37125" lon="4.45982">
        <ele>275.2</ele>
        <time>2022-06-11T10:13:16Z</time>
      </trkpt>
      <trkpt lat="44.37125" lon="4.45986">
        <ele>275.3</ele>
        <time>2022-06-11T10:13:17Z</time>
      </trkpt>
      <trkpt lat="44.37125" lon="4.45992">
        <ele>275.5</ele>
        <time>2022-06-11T10:13:18Z</time>
      </trkpt>
      <trkpt lat="44.37125" lon="4.45993">
        <ele>275.5</ele>
        <time>2022-06-11T10:13:19Z</time>
      </trkpt>
      <trkpt lat="44.37125" lon="4.45997">
        <ele>275.6</ele>
        <time>2022-06-11T10:13:20Z</time>
      </trkpt>
      <trkpt lat="44.37125" lon="4.46001">
        <ele>275.7</ele>
        <time>2022-06-11T10:13:22Z</time>
      </trkpt>
      <trkpt lat="44.37124" lon="4.46007">
        <ele>275.9</ele>
        <time>2022-06-11T10:13:23Z</time>
      </trkpt>
      <trkpt lat="44.37124" lon="4.46009">
        <ele>275.9</ele>
        <time>2022-06-11T10:13:24Z</time>
      </trkpt>
      <trkpt lat="44.37122" lon="4.46014">
        <ele>276.1</ele>
        <time>2022-06-11T10:13:25Z</time>
      </trkpt>
      <trkpt lat="44.37122" lon="4.46015">
        <ele>276.1</ele>
        <time>2022-06-11T10:13:26Z</time>
      </trkpt>
      <trkpt lat="44.37121" lon="4.4602">
        <ele>276.3</ele>
        <time>2022-06-11T10:13:27Z</time>
      </trkpt>
      <trkpt lat="44.37121" lon="4.46022">
        <ele>276.3</ele>
        <time>2022-06-11T10:13:28Z</time>
      </trkpt>
      <trkpt lat="44.3712" lon="4.46027">
        <ele>276.5</ele>
        <time>2022-06-11T10:13:29Z</time>
      </trkpt>
      <trkpt lat="44.3712" lon="4.46028">
        <ele>276.5</ele>
        <time>2022-06-11T10:13:30Z</time>
      </trkpt>
      <trkpt lat="44.37118" lon="4.46033">
        <ele>276.7</ele>
        <time>2022-06-11T10:13:31Z</time>
      </trkpt>
      <trkpt lat="44.37118" lon="4.46035">
        <ele>276.8</ele>
        <time>2022-06-11T10:13:32Z</time>
      </trkpt>
      <trkpt lat="44.37116" lon="4.46041">
        <ele>277</ele>
        <time>2022-06-11T10:13:33Z</time>
      </trkpt>
      <trkpt lat="44.37114" lon="4.46047">
        <ele>277.2</ele>
        <time>2022-06-11T10:13:35Z</time>
      </trkpt>
      <trkpt lat="44.37114" lon="4.4605">
        <ele>277.3</ele>
        <time>2022-06-11T10:13:36Z</time>
      </trkpt>
      <trkpt lat="44.37113" lon="4.46054">
        <ele>277.4</ele>
        <time>2022-06-11T10:13:38Z</time>
      </trkpt>
      <trkpt lat="44.37112" lon="4.46059">
        <ele>277.6</ele>
        <time>2022-06-11T10:13:39Z</time>
      </trkpt>
      <trkpt lat="44.37111" lon="4.4606">
        <ele>277.6</ele>
        <time>2022-06-11T10:13:40Z</time>
      </trkpt>
      <trkpt lat="44.37109" lon="4.46065">
        <ele>277.8</ele>
        <time>2022-06-11T10:13:41Z</time>
      </trkpt>
      <trkpt lat="44.37108" lon="4.46069">
        <ele>277.9</ele>
        <time>2022-06-11T10:13:43Z</time>
      </trkpt>
      <trkpt lat="44.37106" lon="4.46072">
        <ele>278.1</ele>
        <time>2022-06-11T10:13:44Z</time>
      </trkpt>
      <trkpt lat="44.37104" lon="4.46074">
        <ele>278.2</ele>
        <time>2022-06-11T10:13:45Z</time>
      </trkpt>
      <trkpt lat="44.371" lon="4.46077">
        <ele>278.4</ele>
        <time>2022-06-11T10:13:46Z</time>
      </trkpt>
      <trkpt lat="44.37099" lon="4.46078">
        <ele>278.5</ele>
        <time>2022-06-11T10:13:47Z</time>
      </trkpt>
      <trkpt lat="44.37094" lon="4.4608">
        <ele>278.7</ele>
        <time>2022-06-11T10:13:49Z</time>
      </trkpt>
      <trkpt lat="44.37093" lon="4.46081">
        <ele>278.8</ele>
        <time>2022-06-11T10:13:50Z</time>
      </trkpt>
      <trkpt lat="44.37089" lon="4.46081">
        <ele>279</ele>
        <time>2022-06-11T10:13:51Z</time>
      </trkpt>
      <trkpt lat="44.37087" lon="4.46081">
        <ele>279.1</ele>
        <time>2022-06-11T10:13:52Z</time>
      </trkpt>
      <trkpt lat="44.37084" lon="4.46081">
        <ele>279.3</ele>
        <time>2022-06-11T10:13:54Z</time>
      </trkpt>
      <trkpt lat="44.37083" lon="4.46081">
        <ele>279.3</ele>
        <time>2022-06-11T10:13:55Z</time>
      </trkpt>
      <trkpt lat="44.37079" lon="4.46079">
        <ele>279.5</ele>
        <time>2022-06-11T10:13:56Z</time>
      </trkpt>
      <trkpt lat="44.37078" lon="4.46079">
        <ele>279.6</ele>
        <time>2022-06-11T10:13:57Z</time>
      </trkpt>
      <trkpt lat="44.37076" lon="4.46078">
        <ele>279.6</ele>
        <time>2022-06-11T10:13:59Z</time>
      </trkpt>
      <trkpt lat="44.37075" lon="4.46077">
        <ele>279.6</ele>
        <time>2022-06-11T10:14:00Z</time>
      </trkpt>
      <trkpt lat="44.37073" lon="4.46075">
        <ele>279.7</ele>
        <time>2022-06-11T10:14:01Z</time>
      </trkpt>
      <trkpt lat="44.37071" lon="4.46072">
        <ele>279.7</ele>
        <time>2022-06-11T10:14:02Z</time>
      </trkpt>
      <trkpt lat="44.3707" lon="4.46071">
        <ele>279.7</ele>
        <time>2022-06-11T10:14:03Z</time>
      </trkpt>
      <trkpt lat="44.37068" lon="4.46068">
        <ele>279.8</ele>
        <time>2022-06-11T10:14:05Z</time>
      </trkpt>
      <trkpt lat="44.37068" lon="4.46067">
        <ele>279.8</ele>
        <time>2022-06-11T10:14:06Z</time>
      </trkpt>
      <trkpt lat="44.37067" lon="4.46065">
        <ele>279.9</ele>
        <time>2022-06-11T10:14:07Z</time>
      </trkpt>
      <trkpt lat="44.37066" lon="4.46063">
        <ele>279.9</ele>
        <time>2022-06-11T10:14:08Z</time>
      </trkpt>
      <trkpt lat="44.37066" lon="4.46058">
        <ele>280.1</ele>
        <time>2022-06-11T10:14:09Z</time>
      </trkpt>
      <trkpt lat="44.37065" lon="4.46055">
        <ele>280.3</ele>
        <time>2022-06-11T10:14:10Z</time>
      </trkpt>
      <trkpt lat="44.37065" lon="4.46053">
        <ele>280.4</ele>
        <time>2022-06-11T10:14:12Z</time>
      </trkpt>
      <trkpt lat="44.37065" lon="4.46051">
        <ele>280.5</ele>
        <time>2022-06-11T10:14:13Z</time>
      </trkpt>
      <trkpt lat="44.37065" lon="4.46049">
        <ele>280.5</ele>
        <time>2022-06-11T10:14:14Z</time>
      </trkpt>
      <trkpt lat="44.37065" lon="4.46047">
        <ele>280.6</ele>
        <time>2022-06-11T10:14:15Z</time>
      </trkpt>
      <trkpt lat="44.37064" lon="4.46044">
        <ele>280.8</ele>
        <time>2022-06-11T10:14:16Z</time>
      </trkpt>
      <trkpt lat="44.37064" lon="4.4604">
        <ele>281</ele>
        <time>2022-06-11T10:14:17Z</time>
      </trkpt>
      <trkpt lat="44.37064" lon="4.46035">
        <ele>281.2</ele>
        <time>2022-06-11T10:14:19Z</time>
      </trkpt>
      <trkpt lat="44.37064" lon="4.46032">
        <ele>281.4</ele>
        <time>2022-06-11T10:14:21Z</time>
      </trkpt>
      <trkpt lat="44.37064" lon="4.4603">
        <ele>281.5</ele>
        <time>2022-06-11T10:14:22Z</time>
      </trkpt>
      <trkpt lat="44.37064" lon="4.46028">
        <ele>281.6</ele>
        <time>2022-06-11T10:14:23Z</time>
      </trkpt>
      <trkpt lat="44.37064" lon="4.46023">
        <ele>281.8</ele>
        <time>2022-06-11T10:14:24Z</time>
      </trkpt>
      <trkpt lat="44.37064" lon="4.4602">
        <ele>282</ele>
        <time>2022-06-11T10:14:26Z</time>
      </trkpt>
      <trkpt lat="44.37063" lon="4.46018">
        <ele>282.1</ele>
        <time>2022-06-11T10:14:27Z</time>
      </trkpt>
      <trkpt lat="44.37062" lon="4.46016">
        <ele>282.2</ele>
        <time>2022-06-11T10:14:28Z</time>
      </trkpt>
      <trkpt lat="44.37062" lon="4.46013">
        <ele>282.4</ele>
        <time>2022-06-11T10:14:29Z</time>
      </trkpt>
      <trkpt lat="44.37061" lon="4.4601">
        <ele>282.5</ele>
        <time>2022-06-11T10:14:31Z</time>
      </trkpt>
      <trkpt lat="44.37061" lon="4.46006">
        <ele>282.7</ele>
        <time>2022-06-11T10:14:32Z</time>
      </trkpt>
      <trkpt lat="44.37061" lon="4.46004">
        <ele>282.8</ele>
        <time>2022-06-11T10:14:33Z</time>
      </trkpt>
      <trkpt lat="44.37061" lon="4.45998">
        <ele>283.1</ele>
        <time>2022-06-11T10:14:35Z</time>
      </trkpt>
      <trkpt lat="44.37061" lon="4.45996">
        <ele>283.2</ele>
        <time>2022-06-11T10:14:36Z</time>
      </trkpt>
      <trkpt lat="44.37061" lon="4.45994">
        <ele>283.3</ele>
        <time>2022-06-11T10:14:37Z</time>
      </trkpt>
      <trkpt lat="44.3706" lon="4.4599">
        <ele>283.5</ele>
        <time>2022-06-11T10:14:38Z</time>
      </trkpt>
      <trkpt lat="44.3706" lon="4.45988">
        <ele>283.6</ele>
        <time>2022-06-11T10:14:39Z</time>
      </trkpt>
      <trkpt lat="44.3706" lon="4.45984">
        <ele>283.8</ele>
        <time>2022-06-11T10:14:41Z</time>
      </trkpt>
      <trkpt lat="44.3706" lon="4.45983">
        <ele>283.9</ele>
        <time>2022-06-11T10:14:42Z</time>
      </trkpt>
      <trkpt lat="44.37059" lon="4.45981">
        <ele>284</ele>
        <time>2022-06-11T10:14:43Z</time>
      </trkpt>
      <trkpt lat="44.37059" lon="4.45978">
        <ele>284.2</ele>
        <time>2022-06-11T10:14:44Z</time>
      </trkpt>
      <trkpt lat="44.37058" lon="4.45976">
        <ele>284.3</ele>
        <time>2022-06-11T10:14:45Z</time>
      </trkpt>
      <trkpt lat="44.37057" lon="4.45974">
        <ele>284.4</ele>
        <time>2022-06-11T10:14:46Z</time>
      </trkpt>
      <trkpt lat="44.37056" lon="4.4597">
        <ele>284.6</ele>
        <time>2022-06-11T10:14:47Z</time>
      </trkpt>
      <trkpt lat="44.37056" lon="4.45968">
        <ele>284.7</ele>
        <time>2022-06-11T10:14:48Z</time>
      </trkpt>
      <trkpt lat="44.37053" lon="4.45964">
        <ele>285</ele>
        <time>2022-06-11T10:14:50Z</time>
      </trkpt>
      <trkpt lat="44.37052" lon="4.45962">
        <ele>285.2</ele>
        <time>2022-06-11T10:14:52Z</time>
      </trkpt>
      <trkpt lat="44.3705" lon="4.45958">
        <ele>285.5</ele>
        <time>2022-06-11T10:14:54Z</time>
      </trkpt>
      <trkpt lat="44.37049" lon="4.45956">
        <ele>285.6</ele>
        <time>2022-06-11T10:14:55Z</time>
      </trkpt>
      <trkpt lat="44.37048" lon="4.45953">
        <ele>285.8</ele>
        <time>2022-06-11T10:14:56Z</time>
      </trkpt>
      <trkpt lat="44.37047" lon="4.45952">
        <ele>285.9</ele>
        <time>2022-06-11T10:14:57Z</time>
      </trkpt>
      <trkpt lat="44.37046" lon="4.45951">
        <ele>286</ele>
        <time>2022-06-11T10:14:58Z</time>
      </trkpt>
      <trkpt lat="44.37045" lon="4.45949">
        <ele>286.1</ele>
        <time>2022-06-11T10:14:59Z</time>
      </trkpt>
      <trkpt lat="44.37044" lon="4.45947">
        <ele>286.2</ele>
        <time>2022-06-11T10:15:00Z</time>
      </trkpt>
      <trkpt lat="44.37043" lon="4.45945">
        <ele>286.4</ele>
        <time>2022-06-11T10:15:01Z</time>
      </trkpt>
      <trkpt lat="44.37041" lon="4.45943">
        <ele>286.5</ele>
        <time>2022-06-11T10:15:02Z</time>
      </trkpt>
      <trkpt lat="44.37039" lon="4.45939">
        <ele>286.8</ele>
        <time>2022-06-11T10:15:03Z</time>
      </trkpt>
      <trkpt lat="44.37038" lon="4.45937">
        <ele>287</ele>
        <time>2022-06-11T10:15:04Z</time>
      </trkpt>
      <trkpt lat="44.37036" lon="4.45935">
        <ele>287.2</ele>
        <time>2022-06-11T10:15:06Z</time>
      </trkpt>
      <trkpt lat="44.37035" lon="4.45933">
        <ele>287.3</ele>
        <time>2022-06-11T10:15:07Z</time>
      </trkpt>
      <trkpt lat="44.37034" lon="4.45931">
        <ele>287.4</ele>
        <time>2022-06-11T10:15:08Z</time>
      </trkpt>
      <trkpt lat="44.37032" lon="4.45927">
        <ele>287.7</ele>
        <time>2022-06-11T10:15:09Z</time>
      </trkpt>
      <trkpt lat="44.37032" lon="4.45926">
        <ele>287.8</ele>
        <time>2022-06-11T10:15:10Z</time>
      </trkpt>
      <trkpt lat="44.37031" lon="4.45924">
        <ele>287.9</ele>
        <time>2022-06-11T10:15:11Z</time>
      </trkpt>
      <trkpt lat="44.3703" lon="4.45923">
        <ele>288</ele>
        <time>2022-06-11T10:15:12Z</time>
      </trkpt>
      <trkpt lat="44.37028" lon="4.4592">
        <ele>288.3</ele>
        <time>2022-06-11T10:15:13Z</time>
      </trkpt>
      <trkpt lat="44.37027" lon="4.45919">
        <ele>288.3</ele>
        <time>2022-06-11T10:15:14Z</time>
      </trkpt>
      <trkpt lat="44.37026" lon="4.45918">
        <ele>288.5</ele>
        <time>2022-06-11T10:15:15Z</time>
      </trkpt>
      <trkpt lat="44.37025" lon="4.45916">
        <ele>288.6</ele>
        <time>2022-06-11T10:15:16Z</time>
      </trkpt>
      <trkpt lat="44.37024" lon="4.45914">
        <ele>288.7</ele>
        <time>2022-06-11T10:15:17Z</time>
      </trkpt>
      <trkpt lat="44.37023" lon="4.45912">
        <ele>288.9</ele>
        <time>2022-06-11T10:15:18Z</time>
      </trkpt>
      <trkpt lat="44.37022" lon="4.45908">
        <ele>289.1</ele>
        <time>2022-06-11T10:15:19Z</time>
      </trkpt>
      <trkpt lat="44.37021" lon="4.45906">
        <ele>289.3</ele>
        <time>2022-06-11T10:15:20Z</time>
      </trkpt>
      <trkpt lat="44.37019" lon="4.45902">
        <ele>289.5</ele>
        <time>2022-06-11T10:15:22Z</time>
      </trkpt>
      <trkpt lat="44.37017" lon="4.459">
        <ele>289.8</ele>
        <time>2022-06-11T10:15:24Z</time>
      </trkpt>
      <trkpt lat="44.37015" lon="4.45896">
        <ele>290</ele>
        <time>2022-06-11T10:15:25Z</time>
      </trkpt>
      <trkpt lat="44.37014" lon="4.45894">
        <ele>290.1</ele>
        <time>2022-06-11T10:15:26Z</time>
      </trkpt>
      <trkpt lat="44.37014" lon="4.45893">
        <ele>290.2</ele>
        <time>2022-06-11T10:15:28Z</time>
      </trkpt>
      <trkpt lat="44.37013" lon="4.45891">
        <ele>290.4</ele>
        <time>2022-06-11T10:15:29Z</time>
      </trkpt>
      <trkpt lat="44.37011" lon="4.45887">
        <ele>290.6</ele>
        <time>2022-06-11T10:15:30Z</time>
      </trkpt>
      <trkpt lat="44.3701" lon="4.45886">
        <ele>290.7</ele>
        <time>2022-06-11T10:15:31Z</time>
      </trkpt>
      <trkpt lat="44.37009" lon="4.45882">
        <ele>291</ele>
        <time>2022-06-11T10:15:32Z</time>
      </trkpt>
      <trkpt lat="44.37008" lon="4.45881">
        <ele>291</ele>
        <time>2022-06-11T10:15:33Z</time>
      </trkpt>
      <trkpt lat="44.37007" lon="4.45879">
        <ele>291.2</ele>
        <time>2022-06-11T10:15:35Z</time>
      </trkpt>
      <trkpt lat="44.37006" lon="4.45878">
        <ele>291.3</ele>
        <time>2022-06-11T10:15:36Z</time>
      </trkpt>
      <trkpt lat="44.37004" lon="4.45874">
        <ele>291.6</ele>
        <time>2022-06-11T10:15:37Z</time>
      </trkpt>
      <trkpt lat="44.37002" lon="4.45871">
        <ele>291.8</ele>
        <time>2022-06-11T10:15:38Z</time>
      </trkpt>
      <trkpt lat="44.37" lon="4.45867">
        <ele>292.1</ele>
        <time>2022-06-11T10:15:40Z</time>
      </trkpt>
      <trkpt lat="44.36999" lon="4.45866">
        <ele>292.2</ele>
        <time>2022-06-11T10:15:42Z</time>
      </trkpt>
      <trkpt lat="44.36998" lon="4.45864">
        <ele>292.4</ele>
        <time>2022-06-11T10:15:43Z</time>
      </trkpt>
      <trkpt lat="44.36996" lon="4.4586">
        <ele>292.7</ele>
        <time>2022-06-11T10:15:44Z</time>
      </trkpt>
      <trkpt lat="44.36995" lon="4.45858">
        <ele>292.8</ele>
        <time>2022-06-11T10:15:45Z</time>
      </trkpt>
      <trkpt lat="44.36994" lon="4.45857">
        <ele>293</ele>
        <time>2022-06-11T10:15:46Z</time>
      </trkpt>
      <trkpt lat="44.36992" lon="4.45854">
        <ele>293.2</ele>
        <time>2022-06-11T10:15:48Z</time>
      </trkpt>
      <trkpt lat="44.3699" lon="4.4585">
        <ele>293.5</ele>
        <time>2022-06-11T10:15:49Z</time>
      </trkpt>
      <trkpt lat="44.36988" lon="4.45848">
        <ele>293.7</ele>
        <time>2022-06-11T10:15:50Z</time>
      </trkpt>
      <trkpt lat="44.36988" lon="4.45847">
        <ele>293.8</ele>
        <time>2022-06-11T10:15:52Z</time>
      </trkpt>
      <trkpt lat="44.36987" lon="4.45845">
        <ele>294</ele>
        <time>2022-06-11T10:15:53Z</time>
      </trkpt>
      <trkpt lat="44.36986" lon="4.45841">
        <ele>294.2</ele>
        <time>2022-06-11T10:15:55Z</time>
      </trkpt>
      <trkpt lat="44.36984" lon="4.45839">
        <ele>294.4</ele>
        <time>2022-06-11T10:15:56Z</time>
      </trkpt>
      <trkpt lat="44.36984" lon="4.45838">
        <ele>294.5</ele>
        <time>2022-06-11T10:15:57Z</time>
      </trkpt>
      <trkpt lat="44.36983" lon="4.45837">
        <ele>294.5</ele>
        <time>2022-06-11T10:15:58Z</time>
      </trkpt>
      <trkpt lat="44.3698" lon="4.45832">
        <ele>294.9</ele>
        <time>2022-06-11T10:16:00Z</time>
      </trkpt>
      <trkpt lat="44.36979" lon="4.45831">
        <ele>295</ele>
        <time>2022-06-11T10:16:01Z</time>
      </trkpt>
      <trkpt lat="44.36978" lon="4.4583">
        <ele>295.1</ele>
        <time>2022-06-11T10:16:02Z</time>
      </trkpt>
      <trkpt lat="44.36977" lon="4.45828">
        <ele>295.3</ele>
        <time>2022-06-11T10:16:03Z</time>
      </trkpt>
      <trkpt lat="44.36976" lon="4.45826">
        <ele>295.4</ele>
        <time>2022-06-11T10:16:04Z</time>
      </trkpt>
      <trkpt lat="44.36974" lon="4.45822">
        <ele>295.7</ele>
        <time>2022-06-11T10:16:05Z</time>
      </trkpt>
      <trkpt lat="44.36973" lon="4.45821">
        <ele>295.8</ele>
        <time>2022-06-11T10:16:07Z</time>
      </trkpt>
      <trkpt lat="44.36972" lon="4.4582">
        <ele>295.9</ele>
        <time>2022-06-11T10:16:08Z</time>
      </trkpt>
      <trkpt lat="44.36971" lon="4.45818">
        <ele>296</ele>
        <time>2022-06-11T10:16:09Z</time>
      </trkpt>
      <trkpt lat="44.3697" lon="4.45816">
        <ele>296.2</ele>
        <time>2022-06-11T10:16:10Z</time>
      </trkpt>
      <trkpt lat="44.36968" lon="4.45814">
        <ele>296.4</ele>
        <time>2022-06-11T10:16:11Z</time>
      </trkpt>
      <trkpt lat="44.36967" lon="4.45813">
        <ele>296.5</ele>
        <time>2022-06-11T10:16:12Z</time>
      </trkpt>
      <trkpt lat="44.36966" lon="4.45811">
        <ele>296.6</ele>
        <time>2022-06-11T10:16:13Z</time>
      </trkpt>
      <trkpt lat="44.36965" lon="4.45809">
        <ele>296.7</ele>
        <time>2022-06-11T10:16:14Z</time>
      </trkpt>
      <trkpt lat="44.36963" lon="4.45806">
        <ele>297</ele>
        <time>2022-06-11T10:16:15Z</time>
      </trkpt>
      <trkpt lat="44.36963" lon="4.45805">
        <ele>297</ele>
        <time>2022-06-11T10:16:16Z</time>
      </trkpt>
      <trkpt lat="44.36962" lon="4.45803">
        <ele>297.2</ele>
        <time>2022-06-11T10:16:17Z</time>
      </trkpt>
      <trkpt lat="44.3696" lon="4.45802">
        <ele>297.3</ele>
        <time>2022-06-11T10:16:18Z</time>
      </trkpt>
      <trkpt lat="44.36958" lon="4.45798">
        <ele>297.5</ele>
        <time>2022-06-11T10:16:19Z</time>
      </trkpt>
      <trkpt lat="44.36958" lon="4.45797">
        <ele>297.6</ele>
        <time>2022-06-11T10:16:20Z</time>
      </trkpt>
      <trkpt lat="44.36955" lon="4.45794">
        <ele>297.8</ele>
        <time>2022-06-11T10:16:21Z</time>
      </trkpt>
      <trkpt lat="44.36954" lon="4.45793">
        <ele>297.9</ele>
        <time>2022-06-11T10:16:22Z</time>
      </trkpt>
      <trkpt lat="44.36953" lon="4.45792">
        <ele>298.1</ele>
        <time>2022-06-11T10:16:24Z</time>
      </trkpt>
      <trkpt lat="44.36951" lon="4.45788">
        <ele>298.3</ele>
        <time>2022-06-11T10:16:25Z</time>
      </trkpt>
      <trkpt lat="44.36949" lon="4.45785">
        <ele>298.5</ele>
        <time>2022-06-11T10:16:27Z</time>
      </trkpt>
      <trkpt lat="44.36948" lon="4.45784">
        <ele>298.5</ele>
        <time>2022-06-11T10:16:28Z</time>
      </trkpt>
      <trkpt lat="44.36947" lon="4.45783">
        <ele>298.6</ele>
        <time>2022-06-11T10:16:29Z</time>
      </trkpt>
      <trkpt lat="44.36946" lon="4.45781">
        <ele>298.7</ele>
        <time>2022-06-11T10:16:30Z</time>
      </trkpt>
      <trkpt lat="44.36945" lon="4.45779">
        <ele>298.8</ele>
        <time>2022-06-11T10:16:31Z</time>
      </trkpt>
      <trkpt lat="44.36943" lon="4.45776">
        <ele>299.1</ele>
        <time>2022-06-11T10:16:32Z</time>
      </trkpt>
      <trkpt lat="44.36941" lon="4.45773">
        <ele>299.2</ele>
        <time>2022-06-11T10:16:34Z</time>
      </trkpt>
      <trkpt lat="44.3694" lon="4.45772">
        <ele>299.3</ele>
        <time>2022-06-11T10:16:35Z</time>
      </trkpt>
      <trkpt lat="44.36939" lon="4.45771">
        <ele>299.4</ele>
        <time>2022-06-11T10:16:36Z</time>
      </trkpt>
      <trkpt lat="44.36938" lon="4.45769">
        <ele>299.5</ele>
        <time>2022-06-11T10:16:37Z</time>
      </trkpt>
      <trkpt lat="44.36936" lon="4.45766">
        <ele>299.7</ele>
        <time>2022-06-11T10:16:38Z</time>
      </trkpt>
      <trkpt lat="44.36935" lon="4.45765">
        <ele>299.8</ele>
        <time>2022-06-11T10:16:39Z</time>
      </trkpt>
      <trkpt lat="44.36934" lon="4.45763">
        <ele>300</ele>
        <time>2022-06-11T10:16:40Z</time>
      </trkpt>
      <trkpt lat="44.36932" lon="4.4576">
        <ele>300.1</ele>
        <time>2022-06-11T10:16:42Z</time>
      </trkpt>
      <trkpt lat="44.36931" lon="4.45758">
        <ele>300.2</ele>
        <time>2022-06-11T10:16:43Z</time>
      </trkpt>
      <trkpt lat="44.3693" lon="4.45757">
        <ele>300.3</ele>
        <time>2022-06-11T10:16:44Z</time>
      </trkpt>
      <trkpt lat="44.36928" lon="4.45753">
        <ele>300.6</ele>
        <time>2022-06-11T10:16:45Z</time>
      </trkpt>
      <trkpt lat="44.36926" lon="4.4575">
        <ele>300.8</ele>
        <time>2022-06-11T10:16:47Z</time>
      </trkpt>
      <trkpt lat="44.36924" lon="4.4575">
        <ele>300.9</ele>
        <time>2022-06-11T10:16:49Z</time>
      </trkpt>
      <trkpt lat="44.36922" lon="4.4575">
        <ele>301</ele>
        <time>2022-06-11T10:16:50Z</time>
      </trkpt>
      <trkpt lat="44.36922" lon="4.45748">
        <ele>301.1</ele>
        <time>2022-06-11T10:16:51Z</time>
      </trkpt>
      <trkpt lat="44.36921" lon="4.45745">
        <ele>301.2</ele>
        <time>2022-06-11T10:16:52Z</time>
      </trkpt>
      <trkpt lat="44.36921" lon="4.45744">
        <ele>301.3</ele>
        <time>2022-06-11T10:16:53Z</time>
      </trkpt>
      <trkpt lat="44.3692" lon="4.45743">
        <ele>301.4</ele>
        <time>2022-06-11T10:16:54Z</time>
      </trkpt>
      <trkpt lat="44.36919" lon="4.45742">
        <ele>301.5</ele>
        <time>2022-06-11T10:16:55Z</time>
      </trkpt>
      <trkpt lat="44.36918" lon="4.45742">
        <ele>301.6</ele>
        <time>2022-06-11T10:16:56Z</time>
      </trkpt>
      <trkpt lat="44.36917" lon="4.45742">
        <ele>301.7</ele>
        <time>2022-06-11T10:16:57Z</time>
      </trkpt>
      <trkpt lat="44.36916" lon="4.45742">
        <ele>301.7</ele>
        <time>2022-06-11T10:16:58Z</time>
      </trkpt>
      <trkpt lat="44.36916" lon="4.45742">
        <ele>301.7</ele>
        <time>2022-06-11T10:16:59Z</time>
      </trkpt>
      <trkpt lat="44.36916" lon="4.45743">
        <ele>301.8</ele>
        <time>2022-06-11T10:17:00Z</time>
      </trkpt>
      <trkpt lat="44.36916" lon="4.45743">
        <ele>301.8</ele>
        <time>2022-06-11T10:17:02Z</time>
      </trkpt>
      <trkpt lat="44.36916" lon="4.45743">
        <ele>301.8</ele>
        <time>2022-06-11T10:17:03Z</time>
      </trkpt>
      <trkpt lat="44.36916" lon="4.45744">
        <ele>301.8</ele>
        <time>2022-06-11T10:17:04Z</time>
      </trkpt>
      <trkpt lat="44.36916" lon="4.45744">
        <ele>301.8</ele>
        <time>2022-06-11T10:17:05Z</time>
      </trkpt>
      <trkpt lat="44.36916" lon="4.45744">
        <ele>301.8</ele>
        <time>2022-06-11T10:17:06Z</time>
      </trkpt>
      <trkpt lat="44.36916" lon="4.45744">
        <ele>301.9</ele>
        <time>2022-06-11T10:17:07Z</time>
      </trkpt>
      <trkpt lat="44.36916" lon="4.45745">
        <ele>301.9</ele>
        <time>2022-06-11T10:17:08Z</time>
      </trkpt>
      <trkpt lat="44.36915" lon="4.4574">
        <ele>302.2</ele>
        <time>2022-06-11T10:19:06Z</time>
      </trkpt>
      <trkpt lat="44.36914" lon="4.45736">
        <ele>302.4</ele>
        <time>2022-06-11T10:19:07Z</time>
      </trkpt>
      <trkpt lat="44.36913" lon="4.45733">
        <ele>302.6</ele>
        <time>2022-06-11T10:19:08Z</time>
      </trkpt>
      <trkpt lat="44.36911" lon="4.45727">
        <ele>302.9</ele>
        <time>2022-06-11T10:19:10Z</time>
      </trkpt>
      <trkpt lat="44.3691" lon="4.45725">
        <ele>303</ele>
        <time>2022-06-11T10:19:11Z</time>
      </trkpt>
      <trkpt lat="44.36909" lon="4.45723">
        <ele>303.2</ele>
        <time>2022-06-11T10:19:12Z</time>
      </trkpt>
      <trkpt lat="44.36906" lon="4.4572">
        <ele>303.4</ele>
        <time>2022-06-11T10:19:13Z</time>
      </trkpt>
      <trkpt lat="44.36905" lon="4.45719">
        <ele>303.5</ele>
        <time>2022-06-11T10:19:14Z</time>
      </trkpt>
      <trkpt lat="44.36903" lon="4.45718">
        <ele>303.6</ele>
        <time>2022-06-11T10:19:15Z</time>
      </trkpt>
      <trkpt lat="44.36902" lon="4.45717">
        <ele>303.7</ele>
        <time>2022-06-11T10:19:16Z</time>
      </trkpt>
      <trkpt lat="44.36899" lon="4.45716">
        <ele>304</ele>
        <time>2022-06-11T10:19:17Z</time>
      </trkpt>
      <trkpt lat="44.36897" lon="4.45712">
        <ele>304.1</ele>
        <time>2022-06-11T10:19:19Z</time>
      </trkpt>
      <trkpt lat="44.36897" lon="4.45711">
        <ele>304.2</ele>
        <time>2022-06-11T10:19:20Z</time>
      </trkpt>
      <trkpt lat="44.36897" lon="4.45706">
        <ele>304.4</ele>
        <time>2022-06-11T10:19:21Z</time>
      </trkpt>
      <trkpt lat="44.36896" lon="4.45705">
        <ele>304.5</ele>
        <time>2022-06-11T10:19:22Z</time>
      </trkpt>
      <trkpt lat="44.36896" lon="4.45701">
        <ele>304.7</ele>
        <time>2022-06-11T10:19:23Z</time>
      </trkpt>
      <trkpt lat="44.36896" lon="4.45699">
        <ele>304.8</ele>
        <time>2022-06-11T10:19:24Z</time>
      </trkpt>
      <trkpt lat="44.36893" lon="4.45695">
        <ele>305.1</ele>
        <time>2022-06-11T10:19:25Z</time>
      </trkpt>
      <trkpt lat="44.36891" lon="4.4569">
        <ele>305.4</ele>
        <time>2022-06-11T10:19:27Z</time>
      </trkpt>
      <trkpt lat="44.3689" lon="4.45689">
        <ele>305.5</ele>
        <time>2022-06-11T10:19:28Z</time>
      </trkpt>
      <trkpt lat="44.36889" lon="4.45687">
        <ele>305.6</ele>
        <time>2022-06-11T10:19:29Z</time>
      </trkpt>
      <trkpt lat="44.36888" lon="4.45686">
        <ele>305.7</ele>
        <time>2022-06-11T10:19:30Z</time>
      </trkpt>
      <trkpt lat="44.36886" lon="4.45683">
        <ele>305.9</ele>
        <time>2022-06-11T10:19:32Z</time>
      </trkpt>
      <trkpt lat="44.36885" lon="4.45682">
        <ele>306</ele>
        <time>2022-06-11T10:19:33Z</time>
      </trkpt>
      <trkpt lat="44.36884" lon="4.45679">
        <ele>306.2</ele>
        <time>2022-06-11T10:19:34Z</time>
      </trkpt>
      <trkpt lat="44.36882" lon="4.45677">
        <ele>306.4</ele>
        <time>2022-06-11T10:19:35Z</time>
      </trkpt>
      <trkpt lat="44.3688" lon="4.45675">
        <ele>306.6</ele>
        <time>2022-06-11T10:19:36Z</time>
      </trkpt>
      <trkpt lat="44.36878" lon="4.45673">
        <ele>306.8</ele>
        <time>2022-06-11T10:19:38Z</time>
      </trkpt>
      <trkpt lat="44.36876" lon="4.45671">
        <ele>307.1</ele>
        <time>2022-06-11T10:19:39Z</time>
      </trkpt>
      <trkpt lat="44.36875" lon="4.45671">
        <ele>307.1</ele>
        <time>2022-06-11T10:19:40Z</time>
      </trkpt>
      <trkpt lat="44.36873" lon="4.45669">
        <ele>307.3</ele>
        <time>2022-06-11T10:19:42Z</time>
      </trkpt>
      <trkpt lat="44.36871" lon="4.45666">
        <ele>307.6</ele>
        <time>2022-06-11T10:19:44Z</time>
      </trkpt>
      <trkpt lat="44.36869" lon="4.45665">
        <ele>307.7</ele>
        <time>2022-06-11T10:19:45Z</time>
      </trkpt>
      <trkpt lat="44.36868" lon="4.45664">
        <ele>307.9</ele>
        <time>2022-06-11T10:19:46Z</time>
      </trkpt>
      <trkpt lat="44.36867" lon="4.45662">
        <ele>308</ele>
        <time>2022-06-11T10:19:47Z</time>
      </trkpt>
      <trkpt lat="44.36866" lon="4.45661">
        <ele>308.1</ele>
        <time>2022-06-11T10:19:48Z</time>
      </trkpt>
      <trkpt lat="44.36864" lon="4.4566">
        <ele>308.3</ele>
        <time>2022-06-11T10:19:49Z</time>
      </trkpt>
      <trkpt lat="44.36863" lon="4.45658">
        <ele>308.4</ele>
        <time>2022-06-11T10:19:50Z</time>
      </trkpt>
      <trkpt lat="44.36862" lon="4.45656">
        <ele>308.6</ele>
        <time>2022-06-11T10:19:51Z</time>
      </trkpt>
      <trkpt lat="44.3686" lon="4.45655">
        <ele>308.7</ele>
        <time>2022-06-11T10:19:52Z</time>
      </trkpt>
      <trkpt lat="44.36859" lon="4.45654">
        <ele>308.8</ele>
        <time>2022-06-11T10:19:53Z</time>
      </trkpt>
      <trkpt lat="44.36858" lon="4.45653">
        <ele>308.9</ele>
        <time>2022-06-11T10:19:54Z</time>
      </trkpt>
      <trkpt lat="44.36857" lon="4.45652">
        <ele>309.1</ele>
        <time>2022-06-11T10:19:55Z</time>
      </trkpt>
      <trkpt lat="44.36855" lon="4.45651">
        <ele>309.2</ele>
        <time>2022-06-11T10:19:56Z</time>
      </trkpt>
      <trkpt lat="44.36852" lon="4.45651">
        <ele>309.4</ele>
        <time>2022-06-11T10:19:57Z</time>
      </trkpt>
      <trkpt lat="44.36851" lon="4.45651">
        <ele>309.5</ele>
        <time>2022-06-11T10:19:58Z</time>
      </trkpt>
      <trkpt lat="44.36849" lon="4.4565">
        <ele>309.8</ele>
        <time>2022-06-11T10:19:59Z</time>
      </trkpt>
      <trkpt lat="44.36848" lon="4.4565">
        <ele>309.8</ele>
        <time>2022-06-11T10:20:00Z</time>
      </trkpt>
      <trkpt lat="44.36845" lon="4.45648">
        <ele>310.1</ele>
        <time>2022-06-11T10:20:01Z</time>
      </trkpt>
      <trkpt lat="44.36845" lon="4.45647">
        <ele>310.2</ele>
        <time>2022-06-11T10:20:02Z</time>
      </trkpt>
      <trkpt lat="44.36843" lon="4.45646">
        <ele>310.3</ele>
        <time>2022-06-11T10:20:03Z</time>
      </trkpt>
      <trkpt lat="44.36842" lon="4.45645">
        <ele>310.4</ele>
        <time>2022-06-11T10:20:04Z</time>
      </trkpt>
      <trkpt lat="44.36841" lon="4.45644">
        <ele>310.6</ele>
        <time>2022-06-11T10:20:05Z</time>
      </trkpt>
      <trkpt lat="44.3684" lon="4.45641">
        <ele>310.7</ele>
        <time>2022-06-11T10:20:06Z</time>
      </trkpt>
      <trkpt lat="44.36838" lon="4.4564">
        <ele>310.8</ele>
        <time>2022-06-11T10:20:07Z</time>
      </trkpt>
      <trkpt lat="44.36837" lon="4.45639">
        <ele>311</ele>
        <time>2022-06-11T10:20:08Z</time>
      </trkpt>
      <trkpt lat="44.36836" lon="4.45638">
        <ele>311.1</ele>
        <time>2022-06-11T10:20:09Z</time>
      </trkpt>
      <trkpt lat="44.36835" lon="4.45636">
        <ele>311.3</ele>
        <time>2022-06-11T10:20:10Z</time>
      </trkpt>
      <trkpt lat="44.36834" lon="4.45635">
        <ele>311.4</ele>
        <time>2022-06-11T10:20:11Z</time>
      </trkpt>
      <trkpt lat="44.36833" lon="4.45633">
        <ele>311.5</ele>
        <time>2022-06-11T10:20:12Z</time>
      </trkpt>
      <trkpt lat="44.36832" lon="4.45631">
        <ele>311.7</ele>
        <time>2022-06-11T10:20:13Z</time>
      </trkpt>
      <trkpt lat="44.36831" lon="4.45629">
        <ele>311.8</ele>
        <time>2022-06-11T10:20:14Z</time>
      </trkpt>
      <trkpt lat="44.3683" lon="4.45628">
        <ele>311.9</ele>
        <time>2022-06-11T10:20:15Z</time>
      </trkpt>
      <trkpt lat="44.36829" lon="4.45626">
        <ele>312.1</ele>
        <time>2022-06-11T10:20:16Z</time>
      </trkpt>
      <trkpt lat="44.36827" lon="4.45624">
        <ele>312.3</ele>
        <time>2022-06-11T10:20:17Z</time>
      </trkpt>
      <trkpt lat="44.36827" lon="4.45623">
        <ele>312.4</ele>
        <time>2022-06-11T10:20:18Z</time>
      </trkpt>
      <trkpt lat="44.36826" lon="4.45622">
        <ele>312.4</ele>
        <time>2022-06-11T10:20:19Z</time>
      </trkpt>
      <trkpt lat="44.36825" lon="4.4562">
        <ele>312.6</ele>
        <time>2022-06-11T10:20:20Z</time>
      </trkpt>
      <trkpt lat="44.36824" lon="4.45619">
        <ele>312.7</ele>
        <time>2022-06-11T10:20:21Z</time>
      </trkpt>
      <trkpt lat="44.36823" lon="4.45617">
        <ele>312.8</ele>
        <time>2022-06-11T10:20:22Z</time>
      </trkpt>
      <trkpt lat="44.36822" lon="4.45616">
        <ele>313</ele>
        <time>2022-06-11T10:20:23Z</time>
      </trkpt>
      <trkpt lat="44.36821" lon="4.45614">
        <ele>313.1</ele>
        <time>2022-06-11T10:20:24Z</time>
      </trkpt>
      <trkpt lat="44.3682" lon="4.45613">
        <ele>313.3</ele>
        <time>2022-06-11T10:20:25Z</time>
      </trkpt>
      <trkpt lat="44.36819" lon="4.45611">
        <ele>313.4</ele>
        <time>2022-06-11T10:20:26Z</time>
      </trkpt>
      <trkpt lat="44.36817" lon="4.45609">
        <ele>313.6</ele>
        <time>2022-06-11T10:20:27Z</time>
      </trkpt>
      <trkpt lat="44.36816" lon="4.45607">
        <ele>313.7</ele>
        <time>2022-06-11T10:20:28Z</time>
      </trkpt>
      <trkpt lat="44.36815" lon="4.45607">
        <ele>313.8</ele>
        <time>2022-06-11T10:20:29Z</time>
      </trkpt>
      <trkpt lat="44.36815" lon="4.45606">
        <ele>313.9</ele>
        <time>2022-06-11T10:20:30Z</time>
      </trkpt>
      <trkpt lat="44.36814" lon="4.45604">
        <ele>314</ele>
        <time>2022-06-11T10:20:31Z</time>
      </trkpt>
      <trkpt lat="44.36812" lon="4.45603">
        <ele>314.2</ele>
        <time>2022-06-11T10:20:32Z</time>
      </trkpt>
      <trkpt lat="44.3681" lon="4.456">
        <ele>314.5</ele>
        <time>2022-06-11T10:20:34Z</time>
      </trkpt>
      <trkpt lat="44.3681" lon="4.45599">
        <ele>314.5</ele>
        <time>2022-06-11T10:20:35Z</time>
      </trkpt>
      <trkpt lat="44.36809" lon="4.45597">
        <ele>314.7</ele>
        <time>2022-06-11T10:20:36Z</time>
      </trkpt>
      <trkpt lat="44.36808" lon="4.45596">
        <ele>314.8</ele>
        <time>2022-06-11T10:20:37Z</time>
      </trkpt>
      <trkpt lat="44.36807" lon="4.45594">
        <ele>314.9</ele>
        <time>2022-06-11T10:20:38Z</time>
      </trkpt>
      <trkpt lat="44.36806" lon="4.45592">
        <ele>315.1</ele>
        <time>2022-06-11T10:20:39Z</time>
      </trkpt>
      <trkpt lat="44.36806" lon="4.4559">
        <ele>315.2</ele>
        <time>2022-06-11T10:20:40Z</time>
      </trkpt>
      <trkpt lat="44.36805" lon="4.45589">
        <ele>315.4</ele>
        <time>2022-06-11T10:20:41Z</time>
      </trkpt>
      <trkpt lat="44.36804" lon="4.45587">
        <ele>315.5</ele>
        <time>2022-06-11T10:20:42Z</time>
      </trkpt>
      <trkpt lat="44.36803" lon="4.45586">
        <ele>315.7</ele>
        <time>2022-06-11T10:20:43Z</time>
      </trkpt>
      <trkpt lat="44.36802" lon="4.45584">
        <ele>315.8</ele>
        <time>2022-06-11T10:20:44Z</time>
      </trkpt>
      <trkpt lat="44.36801" lon="4.45583">
        <ele>315.9</ele>
        <time>2022-06-11T10:20:45Z</time>
      </trkpt>
      <trkpt lat="44.368" lon="4.45581">
        <ele>316.1</ele>
        <time>2022-06-11T10:20:46Z</time>
      </trkpt>
      <trkpt lat="44.36799" lon="4.4558">
        <ele>316.2</ele>
        <time>2022-06-11T10:20:47Z</time>
      </trkpt>
      <trkpt lat="44.36798" lon="4.45578">
        <ele>316.4</ele>
        <time>2022-06-11T10:20:48Z</time>
      </trkpt>
      <trkpt lat="44.36797" lon="4.45576">
        <ele>316.5</ele>
        <time>2022-06-11T10:20:49Z</time>
      </trkpt>
      <trkpt lat="44.36796" lon="4.45575">
        <ele>316.6</ele>
        <time>2022-06-11T10:20:50Z</time>
      </trkpt>
      <trkpt lat="44.36795" lon="4.45573">
        <ele>316.8</ele>
        <time>2022-06-11T10:20:51Z</time>
      </trkpt>
      <trkpt lat="44.36794" lon="4.45572">
        <ele>316.9</ele>
        <time>2022-06-11T10:20:52Z</time>
      </trkpt>
      <trkpt lat="44.36793" lon="4.4557">
        <ele>317</ele>
        <time>2022-06-11T10:20:53Z</time>
      </trkpt>
      <trkpt lat="44.36792" lon="4.45569">
        <ele>317.2</ele>
        <time>2022-06-11T10:20:54Z</time>
      </trkpt>
      <trkpt lat="44.3679" lon="4.45567">
        <ele>317.5</ele>
        <time>2022-06-11T10:20:55Z</time>
      </trkpt>
      <trkpt lat="44.36789" lon="4.45565">
        <ele>317.6</ele>
        <time>2022-06-11T10:20:57Z</time>
      </trkpt>
      <trkpt lat="44.36788" lon="4.45564">
        <ele>317.7</ele>
        <time>2022-06-11T10:20:58Z</time>
      </trkpt>
      <trkpt lat="44.36787" lon="4.45562">
        <ele>317.9</ele>
        <time>2022-06-11T10:20:59Z</time>
      </trkpt>
      <trkpt lat="44.36786" lon="4.45561">
        <ele>318</ele>
        <time>2022-06-11T10:21:00Z</time>
      </trkpt>
      <trkpt lat="44.36784" lon="4.45559">
        <ele>318.2</ele>
        <time>2022-06-11T10:21:01Z</time>
      </trkpt>
      <trkpt lat="44.36783" lon="4.45559">
        <ele>318.3</ele>
        <time>2022-06-11T10:21:02Z</time>
      </trkpt>
      <trkpt lat="44.36782" lon="4.45557">
        <ele>318.4</ele>
        <time>2022-06-11T10:21:03Z</time>
      </trkpt>
      <trkpt lat="44.36781" lon="4.45556">
        <ele>318.5</ele>
        <time>2022-06-11T10:21:04Z</time>
      </trkpt>
      <trkpt lat="44.3678" lon="4.45555">
        <ele>318.6</ele>
        <time>2022-06-11T10:21:05Z</time>
      </trkpt>
      <trkpt lat="44.36779" lon="4.45554">
        <ele>318.8</ele>
        <time>2022-06-11T10:21:06Z</time>
      </trkpt>
      <trkpt lat="44.36778" lon="4.45552">
        <ele>318.9</ele>
        <time>2022-06-11T10:21:07Z</time>
      </trkpt>
      <trkpt lat="44.36777" lon="4.45551">
        <ele>319</ele>
        <time>2022-06-11T10:21:08Z</time>
      </trkpt>
      <trkpt lat="44.36776" lon="4.45549">
        <ele>319.2</ele>
        <time>2022-06-11T10:21:09Z</time>
      </trkpt>
      <trkpt lat="44.36775" lon="4.45548">
        <ele>319.3</ele>
        <time>2022-06-11T10:21:10Z</time>
      </trkpt>
      <trkpt lat="44.36773" lon="4.45546">
        <ele>319.6</ele>
        <time>2022-06-11T10:21:11Z</time>
      </trkpt>
      <trkpt lat="44.36772" lon="4.45544">
        <ele>319.7</ele>
        <time>2022-06-11T10:21:13Z</time>
      </trkpt>
      <trkpt lat="44.36771" lon="4.45542">
        <ele>319.9</ele>
        <time>2022-06-11T10:21:14Z</time>
      </trkpt>
      <trkpt lat="44.3677" lon="4.45541">
        <ele>320</ele>
        <time>2022-06-11T10:21:15Z</time>
      </trkpt>
      <trkpt lat="44.36769" lon="4.45539">
        <ele>320.1</ele>
        <time>2022-06-11T10:21:16Z</time>
      </trkpt>
      <trkpt lat="44.36768" lon="4.45537">
        <ele>320.3</ele>
        <time>2022-06-11T10:21:17Z</time>
      </trkpt>
      <trkpt lat="44.36768" lon="4.45535">
        <ele>320.4</ele>
        <time>2022-06-11T10:21:18Z</time>
      </trkpt>
      <trkpt lat="44.36767" lon="4.45533">
        <ele>320.6</ele>
        <time>2022-06-11T10:21:19Z</time>
      </trkpt>
      <trkpt lat="44.36766" lon="4.45532">
        <ele>320.7</ele>
        <time>2022-06-11T10:21:20Z</time>
      </trkpt>
      <trkpt lat="44.36765" lon="4.4553">
        <ele>320.8</ele>
        <time>2022-06-11T10:21:21Z</time>
      </trkpt>
      <trkpt lat="44.36764" lon="4.45529">
        <ele>321</ele>
        <time>2022-06-11T10:21:22Z</time>
      </trkpt>
      <trkpt lat="44.36761" lon="4.45527">
        <ele>321.3</ele>
        <time>2022-06-11T10:21:24Z</time>
      </trkpt>
      <trkpt lat="44.3676" lon="4.45525">
        <ele>321.4</ele>
        <time>2022-06-11T10:21:25Z</time>
      </trkpt>
      <trkpt lat="44.36758" lon="4.45525">
        <ele>321.6</ele>
        <time>2022-06-11T10:21:26Z</time>
      </trkpt>
      <trkpt lat="44.36757" lon="4.45523">
        <ele>321.7</ele>
        <time>2022-06-11T10:21:27Z</time>
      </trkpt>
      <trkpt lat="44.36755" lon="4.4552">
        <ele>322</ele>
        <time>2022-06-11T10:21:28Z</time>
      </trkpt>
      <trkpt lat="44.36754" lon="4.45518">
        <ele>322.1</ele>
        <time>2022-06-11T10:21:30Z</time>
      </trkpt>
      <trkpt lat="44.36753" lon="4.45517">
        <ele>322.2</ele>
        <time>2022-06-11T10:21:31Z</time>
      </trkpt>
      <trkpt lat="44.36752" lon="4.45515">
        <ele>322.3</ele>
        <time>2022-06-11T10:21:32Z</time>
      </trkpt>
      <trkpt lat="44.36751" lon="4.45513">
        <ele>322.5</ele>
        <time>2022-06-11T10:21:33Z</time>
      </trkpt>
      <trkpt lat="44.36749" lon="4.4551">
        <ele>322.7</ele>
        <time>2022-06-11T10:21:35Z</time>
      </trkpt>
      <trkpt lat="44.36747" lon="4.45506">
        <ele>323.1</ele>
        <time>2022-06-11T10:21:37Z</time>
      </trkpt>
      <trkpt lat="44.36746" lon="4.45505">
        <ele>323.2</ele>
        <time>2022-06-11T10:21:38Z</time>
      </trkpt>
      <trkpt lat="44.36744" lon="4.45501">
        <ele>323.5</ele>
        <time>2022-06-11T10:21:39Z</time>
      </trkpt>
      <trkpt lat="44.36743" lon="4.455">
        <ele>323.6</ele>
        <time>2022-06-11T10:21:41Z</time>
      </trkpt>
      <trkpt lat="44.36742" lon="4.45498">
        <ele>323.7</ele>
        <time>2022-06-11T10:21:42Z</time>
      </trkpt>
      <trkpt lat="44.36741" lon="4.45497">
        <ele>323.8</ele>
        <time>2022-06-11T10:21:43Z</time>
      </trkpt>
      <trkpt lat="44.36739" lon="4.45495">
        <ele>324</ele>
        <time>2022-06-11T10:21:45Z</time>
      </trkpt>
      <trkpt lat="44.36739" lon="4.45493">
        <ele>324.1</ele>
        <time>2022-06-11T10:21:46Z</time>
      </trkpt>
      <trkpt lat="44.36738" lon="4.45491">
        <ele>324.3</ele>
        <time>2022-06-11T10:21:47Z</time>
      </trkpt>
      <trkpt lat="44.36737" lon="4.45489">
        <ele>324.4</ele>
        <time>2022-06-11T10:21:48Z</time>
      </trkpt>
      <trkpt lat="44.36736" lon="4.45487">
        <ele>324.6</ele>
        <time>2022-06-11T10:21:49Z</time>
      </trkpt>
      <trkpt lat="44.36735" lon="4.45485">
        <ele>324.7</ele>
        <time>2022-06-11T10:21:50Z</time>
      </trkpt>
      <trkpt lat="44.36734" lon="4.45483">
        <ele>324.8</ele>
        <time>2022-06-11T10:21:51Z</time>
      </trkpt>
      <trkpt lat="44.36733" lon="4.45479">
        <ele>325.1</ele>
        <time>2022-06-11T10:21:52Z</time>
      </trkpt>
      <trkpt lat="44.36732" lon="4.45477">
        <ele>325.2</ele>
        <time>2022-06-11T10:21:54Z</time>
      </trkpt>
      <trkpt lat="44.36731" lon="4.45475">
        <ele>325.4</ele>
        <time>2022-06-11T10:21:55Z</time>
      </trkpt>
      <trkpt lat="44.3673" lon="4.45473">
        <ele>325.5</ele>
        <time>2022-06-11T10:21:56Z</time>
      </trkpt>
      <trkpt lat="44.36729" lon="4.45469">
        <ele>325.7</ele>
        <time>2022-06-11T10:21:57Z</time>
      </trkpt>
      <trkpt lat="44.36728" lon="4.45467">
        <ele>325.8</ele>
        <time>2022-06-11T10:21:58Z</time>
      </trkpt>
      <trkpt lat="44.36727" lon="4.45465">
        <ele>326</ele>
        <time>2022-06-11T10:22:00Z</time>
      </trkpt>
      <trkpt lat="44.36726" lon="4.45464">
        <ele>326.1</ele>
        <time>2022-06-11T10:22:01Z</time>
      </trkpt>
      <trkpt lat="44.36726" lon="4.45462">
        <ele>326.2</ele>
        <time>2022-06-11T10:22:02Z</time>
      </trkpt>
      <trkpt lat="44.36725" lon="4.4546">
        <ele>326.3</ele>
        <time>2022-06-11T10:22:03Z</time>
      </trkpt>
      <trkpt lat="44.36724" lon="4.45458">
        <ele>326.4</ele>
        <time>2022-06-11T10:22:04Z</time>
      </trkpt>
      <trkpt lat="44.36723" lon="4.45456">
        <ele>326.6</ele>
        <time>2022-06-11T10:22:05Z</time>
      </trkpt>
      <trkpt lat="44.36722" lon="4.45454">
        <ele>326.7</ele>
        <time>2022-06-11T10:22:06Z</time>
      </trkpt>
      <trkpt lat="44.36721" lon="4.45452">
        <ele>326.8</ele>
        <time>2022-06-11T10:22:07Z</time>
      </trkpt>
      <trkpt lat="44.3672" lon="4.4545">
        <ele>326.9</ele>
        <time>2022-06-11T10:22:08Z</time>
      </trkpt>
      <trkpt lat="44.36719" lon="4.45448">
        <ele>327.1</ele>
        <time>2022-06-11T10:22:09Z</time>
      </trkpt>
      <trkpt lat="44.36718" lon="4.45443">
        <ele>327.3</ele>
        <time>2022-06-11T10:22:10Z</time>
      </trkpt>
      <trkpt lat="44.36717" lon="4.45441">
        <ele>327.4</ele>
        <time>2022-06-11T10:22:12Z</time>
      </trkpt>
      <trkpt lat="44.36716" lon="4.4544">
        <ele>327.6</ele>
        <time>2022-06-11T10:22:13Z</time>
      </trkpt>
      <trkpt lat="44.36715" lon="4.45438">
        <ele>327.7</ele>
        <time>2022-06-11T10:22:14Z</time>
      </trkpt>
      <trkpt lat="44.36714" lon="4.45436">
        <ele>327.8</ele>
        <time>2022-06-11T10:22:15Z</time>
      </trkpt>
      <trkpt lat="44.36713" lon="4.45434">
        <ele>327.9</ele>
        <time>2022-06-11T10:22:16Z</time>
      </trkpt>
      <trkpt lat="44.36713" lon="4.45432">
        <ele>328.1</ele>
        <time>2022-06-11T10:22:17Z</time>
      </trkpt>
      <trkpt lat="44.36712" lon="4.4543">
        <ele>328.2</ele>
        <time>2022-06-11T10:22:18Z</time>
      </trkpt>
      <trkpt lat="44.3671" lon="4.45428">
        <ele>328.3</ele>
        <time>2022-06-11T10:22:19Z</time>
      </trkpt>
      <trkpt lat="44.3671" lon="4.45426">
        <ele>328.4</ele>
        <time>2022-06-11T10:22:20Z</time>
      </trkpt>
      <trkpt lat="44.36709" lon="4.45425">
        <ele>328.5</ele>
        <time>2022-06-11T10:22:21Z</time>
      </trkpt>
      <trkpt lat="44.36708" lon="4.45423">
        <ele>328.7</ele>
        <time>2022-06-11T10:22:22Z</time>
      </trkpt>
      <trkpt lat="44.36706" lon="4.45422">
        <ele>328.8</ele>
        <time>2022-06-11T10:22:23Z</time>
      </trkpt>
      <trkpt lat="44.36705" lon="4.4542">
        <ele>328.9</ele>
        <time>2022-06-11T10:22:24Z</time>
      </trkpt>
      <trkpt lat="44.36704" lon="4.45419">
        <ele>329</ele>
        <time>2022-06-11T10:22:25Z</time>
      </trkpt>
      <trkpt lat="44.36703" lon="4.45418">
        <ele>329.1</ele>
        <time>2022-06-11T10:22:26Z</time>
      </trkpt>
      <trkpt lat="44.36701" lon="4.45417">
        <ele>329.2</ele>
        <time>2022-06-11T10:22:27Z</time>
      </trkpt>
      <trkpt lat="44.36699" lon="4.45416">
        <ele>329.4</ele>
        <time>2022-06-11T10:22:28Z</time>
      </trkpt>
      <trkpt lat="44.36698" lon="4.45415">
        <ele>329.5</ele>
        <time>2022-06-11T10:22:29Z</time>
      </trkpt>
      <trkpt lat="44.36697" lon="4.45414">
        <ele>329.6</ele>
        <time>2022-06-11T10:22:30Z</time>
      </trkpt>
      <trkpt lat="44.36695" lon="4.45414">
        <ele>329.7</ele>
        <time>2022-06-11T10:22:31Z</time>
      </trkpt>
      <trkpt lat="44.36693" lon="4.45413">
        <ele>329.9</ele>
        <time>2022-06-11T10:22:32Z</time>
      </trkpt>
      <trkpt lat="44.36692" lon="4.45413">
        <ele>329.9</ele>
        <time>2022-06-11T10:22:33Z</time>
      </trkpt>
      <trkpt lat="44.36691" lon="4.45413">
        <ele>330</ele>
        <time>2022-06-11T10:22:34Z</time>
      </trkpt>
      <trkpt lat="44.36688" lon="4.45413">
        <ele>330.2</ele>
        <time>2022-06-11T10:22:35Z</time>
      </trkpt>
      <trkpt lat="44.36686" lon="4.45413">
        <ele>330.3</ele>
        <time>2022-06-11T10:22:36Z</time>
      </trkpt>
      <trkpt lat="44.36685" lon="4.45414">
        <ele>330.4</ele>
        <time>2022-06-11T10:22:37Z</time>
      </trkpt>
      <trkpt lat="44.36684" lon="4.45415">
        <ele>330.5</ele>
        <time>2022-06-11T10:22:38Z</time>
      </trkpt>
      <trkpt lat="44.36682" lon="4.45416">
        <ele>330.6</ele>
        <time>2022-06-11T10:22:39Z</time>
      </trkpt>
      <trkpt lat="44.36681" lon="4.45417">
        <ele>330.8</ele>
        <time>2022-06-11T10:22:40Z</time>
      </trkpt>
      <trkpt lat="44.3668" lon="4.45418">
        <ele>330.9</ele>
        <time>2022-06-11T10:22:41Z</time>
      </trkpt>
      <trkpt lat="44.36678" lon="4.45419">
        <ele>331</ele>
        <time>2022-06-11T10:22:43Z</time>
      </trkpt>
      <trkpt lat="44.36677" lon="4.4542">
        <ele>331.1</ele>
        <time>2022-06-11T10:22:44Z</time>
      </trkpt>
      <trkpt lat="44.36676" lon="4.45421">
        <ele>331.2</ele>
        <time>2022-06-11T10:22:45Z</time>
      </trkpt>
      <trkpt lat="44.36674" lon="4.45423">
        <ele>331.3</ele>
        <time>2022-06-11T10:22:46Z</time>
      </trkpt>
      <trkpt lat="44.36673" lon="4.45424">
        <ele>331.4</ele>
        <time>2022-06-11T10:22:47Z</time>
      </trkpt>
      <trkpt lat="44.36672" lon="4.45426">
        <ele>331.6</ele>
        <time>2022-06-11T10:22:48Z</time>
      </trkpt>
      <trkpt lat="44.3667" lon="4.45429">
        <ele>331.8</ele>
        <time>2022-06-11T10:22:49Z</time>
      </trkpt>
      <trkpt lat="44.3667" lon="4.45431">
        <ele>331.9</ele>
        <time>2022-06-11T10:22:50Z</time>
      </trkpt>
      <trkpt lat="44.3667" lon="4.45433">
        <ele>332</ele>
        <time>2022-06-11T10:22:52Z</time>
      </trkpt>
      <trkpt lat="44.3667" lon="4.45436">
        <ele>332.1</ele>
        <time>2022-06-11T10:22:53Z</time>
      </trkpt>
      <trkpt lat="44.36669" lon="4.45439">
        <ele>332.3</ele>
        <time>2022-06-11T10:22:54Z</time>
      </trkpt>
      <trkpt lat="44.36669" lon="4.45441">
        <ele>332.3</ele>
        <time>2022-06-11T10:22:55Z</time>
      </trkpt>
      <trkpt lat="44.36669" lon="4.45444">
        <ele>332.5</ele>
        <time>2022-06-11T10:22:56Z</time>
      </trkpt>
      <trkpt lat="44.36668" lon="4.45448">
        <ele>332.7</ele>
        <time>2022-06-11T10:22:58Z</time>
      </trkpt>
      <trkpt lat="44.36668" lon="4.4545">
        <ele>332.8</ele>
        <time>2022-06-11T10:22:59Z</time>
      </trkpt>
      <trkpt lat="44.36668" lon="4.45453">
        <ele>332.9</ele>
        <time>2022-06-11T10:23:00Z</time>
      </trkpt>
      <trkpt lat="44.36668" lon="4.45456">
        <ele>333</ele>
        <time>2022-06-11T10:23:01Z</time>
      </trkpt>
      <trkpt lat="44.36668" lon="4.45458">
        <ele>333.2</ele>
        <time>2022-06-11T10:23:02Z</time>
      </trkpt>
      <trkpt lat="44.36669" lon="4.45463">
        <ele>333.4</ele>
        <time>2022-06-11T10:23:03Z</time>
      </trkpt>
      <trkpt lat="44.36669" lon="4.45466">
        <ele>333.5</ele>
        <time>2022-06-11T10:23:04Z</time>
      </trkpt>
      <trkpt lat="44.36669" lon="4.45468">
        <ele>333.6</ele>
        <time>2022-06-11T10:23:06Z</time>
      </trkpt>
      <trkpt lat="44.3667" lon="4.4547">
        <ele>333.7</ele>
        <time>2022-06-11T10:23:07Z</time>
      </trkpt>
      <trkpt lat="44.3667" lon="4.45473">
        <ele>333.8</ele>
        <time>2022-06-11T10:23:08Z</time>
      </trkpt>
      <trkpt lat="44.3667" lon="4.45477">
        <ele>334</ele>
        <time>2022-06-11T10:23:09Z</time>
      </trkpt>
      <trkpt lat="44.36671" lon="4.45478">
        <ele>334</ele>
        <time>2022-06-11T10:23:10Z</time>
      </trkpt>
      <trkpt lat="44.36671" lon="4.45483">
        <ele>334.2</ele>
        <time>2022-06-11T10:23:11Z</time>
      </trkpt>
      <trkpt lat="44.36671" lon="4.45484">
        <ele>334.3</ele>
        <time>2022-06-11T10:23:12Z</time>
      </trkpt>
      <trkpt lat="44.36672" lon="4.45488">
        <ele>334.4</ele>
        <time>2022-06-11T10:23:13Z</time>
      </trkpt>
      <trkpt lat="44.36672" lon="4.4549">
        <ele>334.5</ele>
        <time>2022-06-11T10:23:14Z</time>
      </trkpt>
      <trkpt lat="44.36673" lon="4.45494">
        <ele>334.7</ele>
        <time>2022-06-11T10:23:15Z</time>
      </trkpt>
      <trkpt lat="44.36673" lon="4.45496">
        <ele>334.7</ele>
        <time>2022-06-11T10:23:16Z</time>
      </trkpt>
      <trkpt lat="44.36673" lon="4.45501">
        <ele>334.9</ele>
        <time>2022-06-11T10:23:17Z</time>
      </trkpt>
      <trkpt lat="44.36674" lon="4.45502">
        <ele>334.9</ele>
        <time>2022-06-11T10:23:18Z</time>
      </trkpt>
      <trkpt lat="44.36674" lon="4.45507">
        <ele>335.1</ele>
        <time>2022-06-11T10:23:19Z</time>
      </trkpt>
      <trkpt lat="44.36675" lon="4.45508">
        <ele>335.1</ele>
        <time>2022-06-11T10:23:20Z</time>
      </trkpt>
      <trkpt lat="44.36675" lon="4.45514">
        <ele>335.3</ele>
        <time>2022-06-11T10:23:21Z</time>
      </trkpt>
      <trkpt lat="44.36676" lon="4.45518">
        <ele>335.5</ele>
        <time>2022-06-11T10:23:23Z</time>
      </trkpt>
      <trkpt lat="44.36676" lon="4.45524">
        <ele>335.6</ele>
        <time>2022-06-11T10:23:24Z</time>
      </trkpt>
      <trkpt lat="44.36677" lon="4.45528">
        <ele>335.8</ele>
        <time>2022-06-11T10:23:26Z</time>
      </trkpt>
      <trkpt lat="44.36677" lon="4.45534">
        <ele>335.9</ele>
        <time>2022-06-11T10:23:27Z</time>
      </trkpt>
      <trkpt lat="44.36678" lon="4.45538">
        <ele>336</ele>
        <time>2022-06-11T10:23:29Z</time>
      </trkpt>
      <trkpt lat="44.36678" lon="4.4554">
        <ele>336.1</ele>
        <time>2022-06-11T10:23:30Z</time>
      </trkpt>
      <trkpt lat="44.3668" lon="4.45544">
        <ele>336.2</ele>
        <time>2022-06-11T10:23:31Z</time>
      </trkpt>
      <trkpt lat="44.3668" lon="4.45546">
        <ele>336.2</ele>
        <time>2022-06-11T10:23:32Z</time>
      </trkpt>
      <trkpt lat="44.36681" lon="4.4555">
        <ele>336.3</ele>
        <time>2022-06-11T10:23:33Z</time>
      </trkpt>
      <trkpt lat="44.3668" lon="4.45552">
        <ele>336.4</ele>
        <time>2022-06-11T10:23:34Z</time>
      </trkpt>
      <trkpt lat="44.36681" lon="4.45557">
        <ele>336.5</ele>
        <time>2022-06-11T10:23:35Z</time>
      </trkpt>
      <trkpt lat="44.36683" lon="4.45562">
        <ele>336.6</ele>
        <time>2022-06-11T10:23:37Z</time>
      </trkpt>
      <trkpt lat="44.36683" lon="4.45564">
        <ele>336.7</ele>
        <time>2022-06-11T10:23:38Z</time>
      </trkpt>
      <trkpt lat="44.36684" lon="4.45568">
        <ele>336.8</ele>
        <time>2022-06-11T10:23:39Z</time>
      </trkpt>
      <trkpt lat="44.36684" lon="4.45573">
        <ele>336.8</ele>
        <time>2022-06-11T10:23:40Z</time>
      </trkpt>
      <trkpt lat="44.36685" lon="4.45579">
        <ele>336.9</ele>
        <time>2022-06-11T10:23:41Z</time>
      </trkpt>
      <trkpt lat="44.36685" lon="4.45581">
        <ele>337</ele>
        <time>2022-06-11T10:23:42Z</time>
      </trkpt>
      <trkpt lat="44.36686" lon="4.45588">
        <ele>337.1</ele>
        <time>2022-06-11T10:23:44Z</time>
      </trkpt>
      <trkpt lat="44.36685" lon="4.45592">
        <ele>337.1</ele>
        <time>2022-06-11T10:23:46Z</time>
      </trkpt>
      <trkpt lat="44.36685" lon="4.45594">
        <ele>337.1</ele>
        <time>2022-06-11T10:23:47Z</time>
      </trkpt>
      <trkpt lat="44.36686" lon="4.45596">
        <ele>337.2</ele>
        <time>2022-06-11T10:23:48Z</time>
      </trkpt>
      <trkpt lat="44.36685" lon="4.45599">
        <ele>337.2</ele>
        <time>2022-06-11T10:23:49Z</time>
      </trkpt>
      <trkpt lat="44.36684" lon="4.45605">
        <ele>337.2</ele>
        <time>2022-06-11T10:23:51Z</time>
      </trkpt>
      <trkpt lat="44.36684" lon="4.45609">
        <ele>337.3</ele>
        <time>2022-06-11T10:23:52Z</time>
      </trkpt>
      <trkpt lat="44.36684" lon="4.45611">
        <ele>337.3</ele>
        <time>2022-06-11T10:23:53Z</time>
      </trkpt>
      <trkpt lat="44.36682" lon="4.45617">
        <ele>337.3</ele>
        <time>2022-06-11T10:23:54Z</time>
      </trkpt>
      <trkpt lat="44.36682" lon="4.45619">
        <ele>337.3</ele>
        <time>2022-06-11T10:23:55Z</time>
      </trkpt>
      <trkpt lat="44.36681" lon="4.45623">
        <ele>337.2</ele>
        <time>2022-06-11T10:23:56Z</time>
      </trkpt>
      <trkpt lat="44.36679" lon="4.45628">
        <ele>337.2</ele>
        <time>2022-06-11T10:23:57Z</time>
      </trkpt>
      <trkpt lat="44.36678" lon="4.4563">
        <ele>337.2</ele>
        <time>2022-06-11T10:23:58Z</time>
      </trkpt>
      <trkpt lat="44.36677" lon="4.45635">
        <ele>337.1</ele>
        <time>2022-06-11T10:23:59Z</time>
      </trkpt>
      <trkpt lat="44.36674" lon="4.45639">
        <ele>337</ele>
        <time>2022-06-11T10:24:01Z</time>
      </trkpt>
      <trkpt lat="44.36672" lon="4.45639">
        <ele>337</ele>
        <time>2022-06-11T10:24:02Z</time>
      </trkpt>
      <trkpt lat="44.36671" lon="4.45639">
        <ele>336.9</ele>
        <time>2022-06-11T10:24:03Z</time>
      </trkpt>
      <trkpt lat="44.36671" lon="4.45639">
        <ele>336.9</ele>
        <time>2022-06-11T10:24:04Z</time>
      </trkpt>
      <trkpt lat="44.36671" lon="4.45639">
        <ele>336.9</ele>
        <time>2022-06-11T10:24:05Z</time>
      </trkpt>
      <trkpt lat="44.36672" lon="4.45639">
        <ele>336.9</ele>
        <time>2022-06-11T10:24:06Z</time>
      </trkpt>
      <trkpt lat="44.36672" lon="4.45639">
        <ele>336.9</ele>
        <time>2022-06-11T10:24:07Z</time>
      </trkpt>
      <trkpt lat="44.36672" lon="4.45638">
        <ele>336.9</ele>
        <time>2022-06-11T10:24:08Z</time>
      </trkpt>
      <trkpt lat="44.36672" lon="4.45638">
        <ele>336.9</ele>
        <time>2022-06-11T10:24:09Z</time>
      </trkpt>
      <trkpt lat="44.36671" lon="4.45637">
        <ele>336.9</ele>
        <time>2022-06-11T10:24:10Z</time>
      </trkpt>
      <trkpt lat="44.36671" lon="4.45636">
        <ele>336.9</ele>
        <time>2022-06-11T10:24:11Z</time>
      </trkpt>
      <trkpt lat="44.36671" lon="4.45635">
        <ele>336.8</ele>
        <time>2022-06-11T10:24:12Z</time>
      </trkpt>
      <trkpt lat="44.3667" lon="4.45635">
        <ele>336.8</ele>
        <time>2022-06-11T10:24:13Z</time>
      </trkpt>
      <trkpt lat="44.3667" lon="4.45634">
        <ele>336.8</ele>
        <time>2022-06-11T10:24:15Z</time>
      </trkpt>
      <trkpt lat="44.3667" lon="4.45634">
        <ele>336.8</ele>
        <time>2022-06-11T10:24:16Z</time>
      </trkpt>
      <trkpt lat="44.3667" lon="4.45634">
        <ele>336.8</ele>
        <time>2022-06-11T10:24:17Z</time>
      </trkpt>
      <trkpt lat="44.3667" lon="4.45633">
        <ele>336.8</ele>
        <time>2022-06-11T10:24:18Z</time>
      </trkpt>
      <trkpt lat="44.36669" lon="4.45633">
        <ele>336.8</ele>
        <time>2022-06-11T10:24:20Z</time>
      </trkpt>
      <trkpt lat="44.36669" lon="4.45633">
        <ele>336.8</ele>
        <time>2022-06-11T10:24:21Z</time>
      </trkpt>
      <trkpt lat="44.36669" lon="4.45633">
        <ele>336.8</ele>
        <time>2022-06-11T10:24:22Z</time>
      </trkpt>
      <trkpt lat="44.36669" lon="4.45633">
        <ele>336.8</ele>
        <time>2022-06-11T10:24:23Z</time>
      </trkpt>
      <trkpt lat="44.36669" lon="4.45633">
        <ele>336.7</ele>
        <time>2022-06-11T10:24:24Z</time>
      </trkpt>
      <trkpt lat="44.36669" lon="4.45634">
        <ele>336.7</ele>
        <time>2022-06-11T10:24:25Z</time>
      </trkpt>
      <trkpt lat="44.36669" lon="4.45634">
        <ele>336.7</ele>
        <time>2022-06-11T10:24:26Z</time>
      </trkpt>
      <trkpt lat="44.36668" lon="4.45632">
        <ele>336.7</ele>
        <time>2022-06-11T10:49:29Z</time>
      </trkpt>
      <trkpt lat="44.36668" lon="4.45632">
        <ele>336.7</ele>
        <time>2022-06-11T10:49:30Z</time>
      </trkpt>
      <trkpt lat="44.36668" lon="4.45631">
        <ele>336.6</ele>
        <time>2022-06-11T10:49:32Z</time>
      </trkpt>
      <trkpt lat="44.36668" lon="4.4563">
        <ele>336.6</ele>
        <time>2022-06-11T10:49:33Z</time>
      </trkpt>
      <trkpt lat="44.36668" lon="4.45629">
        <ele>336.6</ele>
        <time>2022-06-11T10:49:34Z</time>
      </trkpt>
      <trkpt lat="44.36668" lon="4.45629">
        <ele>336.6</ele>
        <time>2022-06-11T10:49:35Z</time>
      </trkpt>
      <trkpt lat="44.36668" lon="4.45628">
        <ele>336.6</ele>
        <time>2022-06-11T10:49:36Z</time>
      </trkpt>
      <trkpt lat="44.36668" lon="4.45628">
        <ele>336.6</ele>
        <time>2022-06-11T10:49:37Z</time>
      </trkpt>
      <trkpt lat="44.36668" lon="4.45628">
        <ele>336.6</ele>
        <time>2022-06-11T10:49:38Z</time>
      </trkpt>
      <trkpt lat="44.36668" lon="4.45628">
        <ele>336.6</ele>
        <time>2022-06-11T10:49:39Z</time>
      </trkpt>
      <trkpt lat="44.36668" lon="4.45628">
        <ele>336.6</ele>
        <time>2022-06-11T10:49:40Z</time>
      </trkpt>
      <trkpt lat="44.36668" lon="4.45628">
        <ele>336.6</ele>
        <time>2022-06-11T10:49:41Z</time>
      </trkpt>
      <trkpt lat="44.36668" lon="4.45628">
        <ele>336.6</ele>
        <time>2022-06-11T10:49:42Z</time>
      </trkpt>
      <trkpt lat="44.36668" lon="4.45628">
        <ele>336.6</ele>
        <time>2022-06-11T10:49:43Z</time>
      </trkpt>
      <trkpt lat="44.36668" lon="4.45628">
        <ele>336.5</ele>
        <time>2022-06-11T10:49:44Z</time>
      </trkpt>
      <trkpt lat="44.36668" lon="4.45635">
        <ele>336.3</ele>
        <time>2022-06-11T10:53:34Z</time>
      </trkpt>
      <trkpt lat="44.36668" lon="4.45637">
        <ele>336.3</ele>
        <time>2022-06-11T10:53:35Z</time>
      </trkpt>
      <trkpt lat="44.36667" lon="4.45637">
        <ele>336.2</ele>
        <time>2022-06-11T10:53:36Z</time>
      </trkpt>
      <trkpt lat="44.36666" lon="4.45638">
        <ele>336.2</ele>
        <time>2022-06-11T10:53:37Z</time>
      </trkpt>
      <trkpt lat="44.36666" lon="4.45639">
        <ele>336.2</ele>
        <time>2022-06-11T10:53:38Z</time>
      </trkpt>
      <trkpt lat="44.36666" lon="4.45639">
        <ele>336.1</ele>
        <time>2022-06-11T10:53:39Z</time>
      </trkpt>
      <trkpt lat="44.36665" lon="4.45641">
        <ele>336.1</ele>
        <time>2022-06-11T10:53:40Z</time>
      </trkpt>
      <trkpt lat="44.36664" lon="4.45642">
        <ele>336</ele>
        <time>2022-06-11T10:53:42Z</time>
      </trkpt>
      <trkpt lat="44.36664" lon="4.45643">
        <ele>336</ele>
        <time>2022-06-11T10:53:43Z</time>
      </trkpt>
      <trkpt lat="44.36663" lon="4.45644">
        <ele>336</ele>
        <time>2022-06-11T10:53:44Z</time>
      </trkpt>
      <trkpt lat="44.36663" lon="4.45645">
        <ele>335.9</ele>
        <time>2022-06-11T10:53:45Z</time>
      </trkpt>
      <trkpt lat="44.36662" lon="4.45648">
        <ele>335.8</ele>
        <time>2022-06-11T10:53:46Z</time>
      </trkpt>
      <trkpt lat="44.36661" lon="4.45649">
        <ele>335.7</ele>
        <time>2022-06-11T10:53:47Z</time>
      </trkpt>
      <trkpt lat="44.3666" lon="4.4565">
        <ele>335.7</ele>
        <time>2022-06-11T10:53:49Z</time>
      </trkpt>
      <trkpt lat="44.3666" lon="4.45651">
        <ele>335.6</ele>
        <time>2022-06-11T10:53:50Z</time>
      </trkpt>
      <trkpt lat="44.36659" lon="4.45652">
        <ele>335.6</ele>
        <time>2022-06-11T10:53:51Z</time>
      </trkpt>
      <trkpt lat="44.36659" lon="4.45654">
        <ele>335.5</ele>
        <time>2022-06-11T10:53:52Z</time>
      </trkpt>
      <trkpt lat="44.36658" lon="4.45655">
        <ele>335.4</ele>
        <time>2022-06-11T10:53:53Z</time>
      </trkpt>
      <trkpt lat="44.36657" lon="4.45656">
        <ele>335.4</ele>
        <time>2022-06-11T10:53:54Z</time>
      </trkpt>
      <trkpt lat="44.36657" lon="4.45657">
        <ele>335.3</ele>
        <time>2022-06-11T10:53:55Z</time>
      </trkpt>
      <trkpt lat="44.36657" lon="4.45658">
        <ele>335.3</ele>
        <time>2022-06-11T10:53:56Z</time>
      </trkpt>
      <trkpt lat="44.36656" lon="4.45658">
        <ele>335.3</ele>
        <time>2022-06-11T10:53:57Z</time>
      </trkpt>
      <trkpt lat="44.36656" lon="4.45659">
        <ele>335.2</ele>
        <time>2022-06-11T10:53:58Z</time>
      </trkpt>
      <trkpt lat="44.36656" lon="4.45659">
        <ele>335.2</ele>
        <time>2022-06-11T10:53:59Z</time>
      </trkpt>
      <trkpt lat="44.36656" lon="4.4566">
        <ele>335.2</ele>
        <time>2022-06-11T10:54:00Z</time>
      </trkpt>
      <trkpt lat="44.36656" lon="4.4566">
        <ele>335.2</ele>
        <time>2022-06-11T10:54:01Z</time>
      </trkpt>
      <trkpt lat="44.36656" lon="4.4566">
        <ele>335.1</ele>
        <time>2022-06-11T10:54:02Z</time>
      </trkpt>
      <trkpt lat="44.36655" lon="4.45661">
        <ele>335.1</ele>
        <time>2022-06-11T10:54:03Z</time>
      </trkpt>
      <trkpt lat="44.36655" lon="4.45661">
        <ele>335.1</ele>
        <time>2022-06-11T10:54:04Z</time>
      </trkpt>
      <trkpt lat="44.36655" lon="4.45662">
        <ele>335.1</ele>
        <time>2022-06-11T10:54:05Z</time>
      </trkpt>
      <trkpt lat="44.36653" lon="4.45666">
        <ele>334.8</ele>
        <time>2022-06-11T10:54:06Z</time>
      </trkpt>
      <trkpt lat="44.36652" lon="4.45667">
        <ele>334.7</ele>
        <time>2022-06-11T10:54:07Z</time>
      </trkpt>
      <trkpt lat="44.3665" lon="4.45671">
        <ele>334.5</ele>
        <time>2022-06-11T10:54:08Z</time>
      </trkpt>
      <trkpt lat="44.36648" lon="4.45676">
        <ele>334.2</ele>
        <time>2022-06-11T10:54:09Z</time>
      </trkpt>
      <trkpt lat="44.36644" lon="4.45685">
        <ele>333.5</ele>
        <time>2022-06-11T10:54:10Z</time>
      </trkpt>
      <trkpt lat="44.36641" lon="4.45694">
        <ele>332.9</ele>
        <time>2022-06-11T10:54:11Z</time>
      </trkpt>
      <trkpt lat="44.36639" lon="4.45702">
        <ele>332.2</ele>
        <time>2022-06-11T10:54:12Z</time>
      </trkpt>
      <trkpt lat="44.36638" lon="4.45711">
        <ele>331.6</ele>
        <time>2022-06-11T10:54:13Z</time>
      </trkpt>
      <trkpt lat="44.36637" lon="4.4572">
        <ele>330.9</ele>
        <time>2022-06-11T10:54:14Z</time>
      </trkpt>
      <trkpt lat="44.36636" lon="4.45731">
        <ele>330.3</ele>
        <time>2022-06-11T10:54:15Z</time>
      </trkpt>
      <trkpt lat="44.36635" lon="4.45742">
        <ele>329.6</ele>
        <time>2022-06-11T10:54:16Z</time>
      </trkpt>
      <trkpt lat="44.36635" lon="4.45753">
        <ele>328.9</ele>
        <time>2022-06-11T10:54:17Z</time>
      </trkpt>
      <trkpt lat="44.36635" lon="4.45765">
        <ele>328.3</ele>
        <time>2022-06-11T10:54:18Z</time>
      </trkpt>
      <trkpt lat="44.36635" lon="4.45777">
        <ele>327.8</ele>
        <time>2022-06-11T10:54:19Z</time>
      </trkpt>
      <trkpt lat="44.36635" lon="4.45788">
        <ele>327.2</ele>
        <time>2022-06-11T10:54:20Z</time>
      </trkpt>
      <trkpt lat="44.36636" lon="4.458">
        <ele>326.8</ele>
        <time>2022-06-11T10:54:21Z</time>
      </trkpt>
      <trkpt lat="44.36635" lon="4.45811">
        <ele>326.3</ele>
        <time>2022-06-11T10:54:22Z</time>
      </trkpt>
      <trkpt lat="44.36635" lon="4.45823">
        <ele>325.9</ele>
        <time>2022-06-11T10:54:23Z</time>
      </trkpt>
      <trkpt lat="44.36635" lon="4.45834">
        <ele>325.5</ele>
        <time>2022-06-11T10:54:24Z</time>
      </trkpt>
      <trkpt lat="44.36635" lon="4.45845">
        <ele>325.2</ele>
        <time>2022-06-11T10:54:25Z</time>
      </trkpt>
      <trkpt lat="44.36635" lon="4.45855">
        <ele>324.9</ele>
        <time>2022-06-11T10:54:26Z</time>
      </trkpt>
      <trkpt lat="44.36635" lon="4.45865">
        <ele>324.6</ele>
        <time>2022-06-11T10:54:27Z</time>
      </trkpt>
      <trkpt lat="44.36636" lon="4.45875">
        <ele>324.3</ele>
        <time>2022-06-11T10:54:28Z</time>
      </trkpt>
      <trkpt lat="44.36636" lon="4.45885">
        <ele>324</ele>
        <time>2022-06-11T10:54:29Z</time>
      </trkpt>
      <trkpt lat="44.36637" lon="4.45894">
        <ele>323.8</ele>
        <time>2022-06-11T10:54:30Z</time>
      </trkpt>
      <trkpt lat="44.36639" lon="4.45903">
        <ele>323.6</ele>
        <time>2022-06-11T10:54:31Z</time>
      </trkpt>
      <trkpt lat="44.3664" lon="4.45912">
        <ele>323.4</ele>
        <time>2022-06-11T10:54:32Z</time>
      </trkpt>
      <trkpt lat="44.36642" lon="4.45921">
        <ele>323.3</ele>
        <time>2022-06-11T10:54:33Z</time>
      </trkpt>
      <trkpt lat="44.36644" lon="4.45929">
        <ele>323.2</ele>
        <time>2022-06-11T10:54:34Z</time>
      </trkpt>
      <trkpt lat="44.36646" lon="4.45937">
        <ele>323.1</ele>
        <time>2022-06-11T10:54:35Z</time>
      </trkpt>
      <trkpt lat="44.36647" lon="4.45945">
        <ele>323</ele>
        <time>2022-06-11T10:54:36Z</time>
      </trkpt>
      <trkpt lat="44.36649" lon="4.45952">
        <ele>323</ele>
        <time>2022-06-11T10:54:37Z</time>
      </trkpt>
      <trkpt lat="44.3665" lon="4.4596">
        <ele>322.9</ele>
        <time>2022-06-11T10:54:38Z</time>
      </trkpt>
      <trkpt lat="44.36652" lon="4.45967">
        <ele>322.9</ele>
        <time>2022-06-11T10:54:39Z</time>
      </trkpt>
      <trkpt lat="44.36654" lon="4.45974">
        <ele>322.8</ele>
        <time>2022-06-11T10:54:40Z</time>
      </trkpt>
      <trkpt lat="44.36655" lon="4.45981">
        <ele>322.7</ele>
        <time>2022-06-11T10:54:41Z</time>
      </trkpt>
      <trkpt lat="44.36657" lon="4.45988">
        <ele>322.6</ele>
        <time>2022-06-11T10:54:42Z</time>
      </trkpt>
      <trkpt lat="44.36658" lon="4.45995">
        <ele>322.5</ele>
        <time>2022-06-11T10:54:43Z</time>
      </trkpt>
      <trkpt lat="44.3666" lon="4.46001">
        <ele>322.4</ele>
        <time>2022-06-11T10:54:44Z</time>
      </trkpt>
      <trkpt lat="44.3666" lon="4.46005">
        <ele>322.3</ele>
        <time>2022-06-11T10:54:45Z</time>
      </trkpt>
      <trkpt lat="44.36662" lon="4.46009">
        <ele>322.2</ele>
        <time>2022-06-11T10:54:46Z</time>
      </trkpt>
      <trkpt lat="44.36662" lon="4.46011">
        <ele>322.2</ele>
        <time>2022-06-11T10:54:47Z</time>
      </trkpt>
      <trkpt lat="44.36663" lon="4.46015">
        <ele>322</ele>
        <time>2022-06-11T10:54:48Z</time>
      </trkpt>
      <trkpt lat="44.36664" lon="4.4602">
        <ele>321.9</ele>
        <time>2022-06-11T10:54:49Z</time>
      </trkpt>
      <trkpt lat="44.36665" lon="4.46025">
        <ele>321.8</ele>
        <time>2022-06-11T10:54:50Z</time>
      </trkpt>
      <trkpt lat="44.36666" lon="4.46031">
        <ele>321.6</ele>
        <time>2022-06-11T10:54:51Z</time>
      </trkpt>
      <trkpt lat="44.36668" lon="4.46037">
        <ele>321.4</ele>
        <time>2022-06-11T10:54:52Z</time>
      </trkpt>
      <trkpt lat="44.3667" lon="4.46044">
        <ele>321.2</ele>
        <time>2022-06-11T10:54:53Z</time>
      </trkpt>
      <trkpt lat="44.36671" lon="4.46051">
        <ele>320.9</ele>
        <time>2022-06-11T10:54:54Z</time>
      </trkpt>
      <trkpt lat="44.36673" lon="4.46059">
        <ele>320.6</ele>
        <time>2022-06-11T10:54:55Z</time>
      </trkpt>
      <trkpt lat="44.36676" lon="4.46067">
        <ele>320.2</ele>
        <time>2022-06-11T10:54:56Z</time>
      </trkpt>
      <trkpt lat="44.36677" lon="4.46075">
        <ele>319.8</ele>
        <time>2022-06-11T10:54:57Z</time>
      </trkpt>
      <trkpt lat="44.3668" lon="4.46084">
        <ele>319.3</ele>
        <time>2022-06-11T10:54:58Z</time>
      </trkpt>
      <trkpt lat="44.36682" lon="4.46094">
        <ele>318.8</ele>
        <time>2022-06-11T10:54:59Z</time>
      </trkpt>
      <trkpt lat="44.36684" lon="4.46103">
        <ele>318.2</ele>
        <time>2022-06-11T10:55:00Z</time>
      </trkpt>
      <trkpt lat="44.36686" lon="4.46113">
        <ele>317.7</ele>
        <time>2022-06-11T10:55:01Z</time>
      </trkpt>
      <trkpt lat="44.36688" lon="4.46124">
        <ele>317.1</ele>
        <time>2022-06-11T10:55:02Z</time>
      </trkpt>
      <trkpt lat="44.3669" lon="4.46134">
        <ele>316.5</ele>
        <time>2022-06-11T10:55:03Z</time>
      </trkpt>
      <trkpt lat="44.36693" lon="4.46145">
        <ele>316</ele>
        <time>2022-06-11T10:55:04Z</time>
      </trkpt>
      <trkpt lat="44.36695" lon="4.46156">
        <ele>315.4</ele>
        <time>2022-06-11T10:55:05Z</time>
      </trkpt>
      <trkpt lat="44.36697" lon="4.46167">
        <ele>314.9</ele>
        <time>2022-06-11T10:55:06Z</time>
      </trkpt>
      <trkpt lat="44.36699" lon="4.46178">
        <ele>314.4</ele>
        <time>2022-06-11T10:55:07Z</time>
      </trkpt>
      <trkpt lat="44.36701" lon="4.46189">
        <ele>313.8</ele>
        <time>2022-06-11T10:55:08Z</time>
      </trkpt>
      <trkpt lat="44.36702" lon="4.46201">
        <ele>313.3</ele>
        <time>2022-06-11T10:55:09Z</time>
      </trkpt>
      <trkpt lat="44.36703" lon="4.46213">
        <ele>312.8</ele>
        <time>2022-06-11T10:55:10Z</time>
      </trkpt>
      <trkpt lat="44.36703" lon="4.46225">
        <ele>312.2</ele>
        <time>2022-06-11T10:55:11Z</time>
      </trkpt>
      <trkpt lat="44.36703" lon="4.46237">
        <ele>311.8</ele>
        <time>2022-06-11T10:55:12Z</time>
      </trkpt>
      <trkpt lat="44.36703" lon="4.46249">
        <ele>311.3</ele>
        <time>2022-06-11T10:55:13Z</time>
      </trkpt>
      <trkpt lat="44.36703" lon="4.46261">
        <ele>310.9</ele>
        <time>2022-06-11T10:55:14Z</time>
      </trkpt>
      <trkpt lat="44.36702" lon="4.46273">
        <ele>310.5</ele>
        <time>2022-06-11T10:55:15Z</time>
      </trkpt>
      <trkpt lat="44.36702" lon="4.46285">
        <ele>310.1</ele>
        <time>2022-06-11T10:55:16Z</time>
      </trkpt>
      <trkpt lat="44.36702" lon="4.46296">
        <ele>309.7</ele>
        <time>2022-06-11T10:55:17Z</time>
      </trkpt>
      <trkpt lat="44.36701" lon="4.46307">
        <ele>309.3</ele>
        <time>2022-06-11T10:55:18Z</time>
      </trkpt>
      <trkpt lat="44.36701" lon="4.46318">
        <ele>309</ele>
        <time>2022-06-11T10:55:19Z</time>
      </trkpt>
      <trkpt lat="44.36702" lon="4.46329">
        <ele>308.6</ele>
        <time>2022-06-11T10:55:20Z</time>
      </trkpt>
      <trkpt lat="44.36703" lon="4.4634">
        <ele>308.2</ele>
        <time>2022-06-11T10:55:21Z</time>
      </trkpt>
      <trkpt lat="44.36704" lon="4.46351">
        <ele>307.8</ele>
        <time>2022-06-11T10:55:22Z</time>
      </trkpt>
      <trkpt lat="44.36707" lon="4.46361">
        <ele>307.4</ele>
        <time>2022-06-11T10:55:23Z</time>
      </trkpt>
      <trkpt lat="44.36711" lon="4.46372">
        <ele>307.1</ele>
        <time>2022-06-11T10:55:24Z</time>
      </trkpt>
      <trkpt lat="44.36715" lon="4.46382">
        <ele>306.8</ele>
        <time>2022-06-11T10:55:25Z</time>
      </trkpt>
      <trkpt lat="44.36719" lon="4.46391">
        <ele>306.6</ele>
        <time>2022-06-11T10:55:26Z</time>
      </trkpt>
      <trkpt lat="44.36724" lon="4.464">
        <ele>306.4</ele>
        <time>2022-06-11T10:55:27Z</time>
      </trkpt>
      <trkpt lat="44.3673" lon="4.46408">
        <ele>306.2</ele>
        <time>2022-06-11T10:55:28Z</time>
      </trkpt>
      <trkpt lat="44.36735" lon="4.46416">
        <ele>306.1</ele>
        <time>2022-06-11T10:55:29Z</time>
      </trkpt>
      <trkpt lat="44.3674" lon="4.46424">
        <ele>305.9</ele>
        <time>2022-06-11T10:55:30Z</time>
      </trkpt>
      <trkpt lat="44.36745" lon="4.46432">
        <ele>305.8</ele>
        <time>2022-06-11T10:55:31Z</time>
      </trkpt>
      <trkpt lat="44.36751" lon="4.4644">
        <ele>305.6</ele>
        <time>2022-06-11T10:55:32Z</time>
      </trkpt>
      <trkpt lat="44.36755" lon="4.46448">
        <ele>305.5</ele>
        <time>2022-06-11T10:55:33Z</time>
      </trkpt>
      <trkpt lat="44.3676" lon="4.46455">
        <ele>305.4</ele>
        <time>2022-06-11T10:55:34Z</time>
      </trkpt>
      <trkpt lat="44.36766" lon="4.46462">
        <ele>305.3</ele>
        <time>2022-06-11T10:55:35Z</time>
      </trkpt>
      <trkpt lat="44.36771" lon="4.46468">
        <ele>305.2</ele>
        <time>2022-06-11T10:55:36Z</time>
      </trkpt>
      <trkpt lat="44.36777" lon="4.46474">
        <ele>305.2</ele>
        <time>2022-06-11T10:55:37Z</time>
      </trkpt>
      <trkpt lat="44.36782" lon="4.4648">
        <ele>305.1</ele>
        <time>2022-06-11T10:55:38Z</time>
      </trkpt>
      <trkpt lat="44.36787" lon="4.46486">
        <ele>305</ele>
        <time>2022-06-11T10:55:39Z</time>
      </trkpt>
      <trkpt lat="44.36792" lon="4.46491">
        <ele>304.9</ele>
        <time>2022-06-11T10:55:40Z</time>
      </trkpt>
      <trkpt lat="44.36798" lon="4.46496">
        <ele>304.9</ele>
        <time>2022-06-11T10:55:41Z</time>
      </trkpt>
      <trkpt lat="44.36803" lon="4.46502">
        <ele>304.8</ele>
        <time>2022-06-11T10:55:42Z</time>
      </trkpt>
      <trkpt lat="44.36809" lon="4.46508">
        <ele>304.8</ele>
        <time>2022-06-11T10:55:43Z</time>
      </trkpt>
      <trkpt lat="44.36814" lon="4.46513">
        <ele>304.7</ele>
        <time>2022-06-11T10:55:44Z</time>
      </trkpt>
      <trkpt lat="44.36819" lon="4.46519">
        <ele>304.7</ele>
        <time>2022-06-11T10:55:45Z</time>
      </trkpt>
      <trkpt lat="44.36824" lon="4.46524">
        <ele>304.7</ele>
        <time>2022-06-11T10:55:46Z</time>
      </trkpt>
      <trkpt lat="44.36829" lon="4.46529">
        <ele>304.7</ele>
        <time>2022-06-11T10:55:47Z</time>
      </trkpt>
      <trkpt lat="44.36834" lon="4.46534">
        <ele>304.7</ele>
        <time>2022-06-11T10:55:48Z</time>
      </trkpt>
      <trkpt lat="44.36839" lon="4.4654">
        <ele>304.6</ele>
        <time>2022-06-11T10:55:49Z</time>
      </trkpt>
      <trkpt lat="44.36845" lon="4.46545">
        <ele>304.6</ele>
        <time>2022-06-11T10:55:50Z</time>
      </trkpt>
      <trkpt lat="44.3685" lon="4.46551">
        <ele>304.6</ele>
        <time>2022-06-11T10:55:51Z</time>
      </trkpt>
      <trkpt lat="44.36854" lon="4.46558">
        <ele>304.6</ele>
        <time>2022-06-11T10:55:52Z</time>
      </trkpt>
      <trkpt lat="44.36858" lon="4.46565">
        <ele>304.6</ele>
        <time>2022-06-11T10:55:53Z</time>
      </trkpt>
      <trkpt lat="44.3686" lon="4.46573">
        <ele>304.7</ele>
        <time>2022-06-11T10:55:54Z</time>
      </trkpt>
      <trkpt lat="44.36862" lon="4.46582">
        <ele>304.7</ele>
        <time>2022-06-11T10:55:55Z</time>
      </trkpt>
      <trkpt lat="44.36862" lon="4.4659">
        <ele>304.7</ele>
        <time>2022-06-11T10:55:56Z</time>
      </trkpt>
      <trkpt lat="44.36862" lon="4.46599">
        <ele>304.7</ele>
        <time>2022-06-11T10:55:57Z</time>
      </trkpt>
      <trkpt lat="44.3686" lon="4.46606">
        <ele>304.7</ele>
        <time>2022-06-11T10:55:58Z</time>
      </trkpt>
      <trkpt lat="44.36857" lon="4.46613">
        <ele>304.8</ele>
        <time>2022-06-11T10:55:59Z</time>
      </trkpt>
      <trkpt lat="44.36854" lon="4.46619">
        <ele>304.7</ele>
        <time>2022-06-11T10:56:00Z</time>
      </trkpt>
      <trkpt lat="44.3685" lon="4.46625">
        <ele>304.7</ele>
        <time>2022-06-11T10:56:01Z</time>
      </trkpt>
      <trkpt lat="44.36845" lon="4.4663">
        <ele>304.6</ele>
        <time>2022-06-11T10:56:02Z</time>
      </trkpt>
      <trkpt lat="44.36841" lon="4.46634">
        <ele>304.6</ele>
        <time>2022-06-11T10:56:03Z</time>
      </trkpt>
      <trkpt lat="44.36836" lon="4.46637">
        <ele>304.5</ele>
        <time>2022-06-11T10:56:04Z</time>
      </trkpt>
      <trkpt lat="44.36831" lon="4.46639">
        <ele>304.4</ele>
        <time>2022-06-11T10:56:05Z</time>
      </trkpt>
      <trkpt lat="44.36825" lon="4.46642">
        <ele>304.4</ele>
        <time>2022-06-11T10:56:06Z</time>
      </trkpt>
      <trkpt lat="44.3682" lon="4.46645">
        <ele>304.3</ele>
        <time>2022-06-11T10:56:07Z</time>
      </trkpt>
      <trkpt lat="44.36814" lon="4.46648">
        <ele>304.2</ele>
        <time>2022-06-11T10:56:08Z</time>
      </trkpt>
      <trkpt lat="44.36808" lon="4.4665">
        <ele>304.1</ele>
        <time>2022-06-11T10:56:09Z</time>
      </trkpt>
      <trkpt lat="44.36803" lon="4.46652">
        <ele>304</ele>
        <time>2022-06-11T10:56:10Z</time>
      </trkpt>
      <trkpt lat="44.36797" lon="4.46655">
        <ele>303.9</ele>
        <time>2022-06-11T10:56:11Z</time>
      </trkpt>
      <trkpt lat="44.36791" lon="4.46657">
        <ele>303.7</ele>
        <time>2022-06-11T10:56:12Z</time>
      </trkpt>
      <trkpt lat="44.36786" lon="4.4666">
        <ele>303.6</ele>
        <time>2022-06-11T10:56:13Z</time>
      </trkpt>
      <trkpt lat="44.36779" lon="4.46664">
        <ele>303.4</ele>
        <time>2022-06-11T10:56:14Z</time>
      </trkpt>
      <trkpt lat="44.36774" lon="4.46667">
        <ele>303.3</ele>
        <time>2022-06-11T10:56:15Z</time>
      </trkpt>
      <trkpt lat="44.36768" lon="4.46671">
        <ele>303.1</ele>
        <time>2022-06-11T10:56:16Z</time>
      </trkpt>
      <trkpt lat="44.36762" lon="4.46676">
        <ele>302.8</ele>
        <time>2022-06-11T10:56:17Z</time>
      </trkpt>
      <trkpt lat="44.36756" lon="4.46682">
        <ele>302.6</ele>
        <time>2022-06-11T10:56:18Z</time>
      </trkpt>
      <trkpt lat="44.36751" lon="4.46688">
        <ele>302.4</ele>
        <time>2022-06-11T10:56:19Z</time>
      </trkpt>
      <trkpt lat="44.36745" lon="4.46695">
        <ele>302.1</ele>
        <time>2022-06-11T10:56:20Z</time>
      </trkpt>
      <trkpt lat="44.3674" lon="4.46702">
        <ele>301.9</ele>
        <time>2022-06-11T10:56:21Z</time>
      </trkpt>
      <trkpt lat="44.36735" lon="4.4671">
        <ele>301.7</ele>
        <time>2022-06-11T10:56:22Z</time>
      </trkpt>
      <trkpt lat="44.3673" lon="4.46718">
        <ele>301.4</ele>
        <time>2022-06-11T10:56:23Z</time>
      </trkpt>
      <trkpt lat="44.36725" lon="4.46727">
        <ele>301.2</ele>
        <time>2022-06-11T10:56:24Z</time>
      </trkpt>
      <trkpt lat="44.36721" lon="4.46735">
        <ele>301</ele>
        <time>2022-06-11T10:56:25Z</time>
      </trkpt>
      <trkpt lat="44.36717" lon="4.46744">
        <ele>300.9</ele>
        <time>2022-06-11T10:56:26Z</time>
      </trkpt>
      <trkpt lat="44.36714" lon="4.46754">
        <ele>300.7</ele>
        <time>2022-06-11T10:56:27Z</time>
      </trkpt>
      <trkpt lat="44.36711" lon="4.46764">
        <ele>300.7</ele>
        <time>2022-06-11T10:56:28Z</time>
      </trkpt>
      <trkpt lat="44.36709" lon="4.46775">
        <ele>300.6</ele>
        <time>2022-06-11T10:56:29Z</time>
      </trkpt>
      <trkpt lat="44.36707" lon="4.46785">
        <ele>300.5</ele>
        <time>2022-06-11T10:56:30Z</time>
      </trkpt>
      <trkpt lat="44.36706" lon="4.46794">
        <ele>300.4</ele>
        <time>2022-06-11T10:56:31Z</time>
      </trkpt>
      <trkpt lat="44.36704" lon="4.46804">
        <ele>300.4</ele>
        <time>2022-06-11T10:56:32Z</time>
      </trkpt>
      <trkpt lat="44.36703" lon="4.46813">
        <ele>300.3</ele>
        <time>2022-06-11T10:56:33Z</time>
      </trkpt>
      <trkpt lat="44.36702" lon="4.46823">
        <ele>300.2</ele>
        <time>2022-06-11T10:56:34Z</time>
      </trkpt>
      <trkpt lat="44.36701" lon="4.46832">
        <ele>300.2</ele>
        <time>2022-06-11T10:56:35Z</time>
      </trkpt>
      <trkpt lat="44.36701" lon="4.46841">
        <ele>300.1</ele>
        <time>2022-06-11T10:56:36Z</time>
      </trkpt>
      <trkpt lat="44.367" lon="4.4685">
        <ele>300</ele>
        <time>2022-06-11T10:56:37Z</time>
      </trkpt>
      <trkpt lat="44.367" lon="4.46859">
        <ele>299.9</ele>
        <time>2022-06-11T10:56:38Z</time>
      </trkpt>
      <trkpt lat="44.36699" lon="4.46868">
        <ele>299.8</ele>
        <time>2022-06-11T10:56:39Z</time>
      </trkpt>
      <trkpt lat="44.36699" lon="4.46877">
        <ele>299.6</ele>
        <time>2022-06-11T10:56:40Z</time>
      </trkpt>
      <trkpt lat="44.36698" lon="4.46886">
        <ele>299.5</ele>
        <time>2022-06-11T10:56:41Z</time>
      </trkpt>
      <trkpt lat="44.36697" lon="4.46896">
        <ele>299.3</ele>
        <time>2022-06-11T10:56:42Z</time>
      </trkpt>
      <trkpt lat="44.36695" lon="4.46905">
        <ele>299.1</ele>
        <time>2022-06-11T10:56:43Z</time>
      </trkpt>
      <trkpt lat="44.36691" lon="4.46914">
        <ele>298.9</ele>
        <time>2022-06-11T10:56:44Z</time>
      </trkpt>
      <trkpt lat="44.36685" lon="4.46921">
        <ele>298.7</ele>
        <time>2022-06-11T10:56:45Z</time>
      </trkpt>
      <trkpt lat="44.36679" lon="4.46926">
        <ele>298.4</ele>
        <time>2022-06-11T10:56:46Z</time>
      </trkpt>
      <trkpt lat="44.36671" lon="4.46929">
        <ele>298.2</ele>
        <time>2022-06-11T10:56:47Z</time>
      </trkpt>
      <trkpt lat="44.36664" lon="4.46931">
        <ele>297.9</ele>
        <time>2022-06-11T10:56:48Z</time>
      </trkpt>
      <trkpt lat="44.36656" lon="4.46929">
        <ele>297.7</ele>
        <time>2022-06-11T10:56:49Z</time>
      </trkpt>
      <trkpt lat="44.36649" lon="4.46925">
        <ele>297.4</ele>
        <time>2022-06-11T10:56:50Z</time>
      </trkpt>
      <trkpt lat="44.36642" lon="4.46919">
        <ele>297.1</ele>
        <time>2022-06-11T10:56:51Z</time>
      </trkpt>
      <trkpt lat="44.36636" lon="4.46913">
        <ele>296.7</ele>
        <time>2022-06-11T10:56:52Z</time>
      </trkpt>
      <trkpt lat="44.36629" lon="4.46907">
        <ele>296.4</ele>
        <time>2022-06-11T10:56:53Z</time>
      </trkpt>
      <trkpt lat="44.36622" lon="4.46901">
        <ele>296.1</ele>
        <time>2022-06-11T10:56:54Z</time>
      </trkpt>
      <trkpt lat="44.36616" lon="4.46895">
        <ele>295.7</ele>
        <time>2022-06-11T10:56:55Z</time>
      </trkpt>
      <trkpt lat="44.36609" lon="4.4689">
        <ele>295.4</ele>
        <time>2022-06-11T10:56:56Z</time>
      </trkpt>
      <trkpt lat="44.36603" lon="4.46885">
        <ele>295.2</ele>
        <time>2022-06-11T10:56:57Z</time>
      </trkpt>
      <trkpt lat="44.36597" lon="4.46878">
        <ele>294.8</ele>
        <time>2022-06-11T10:56:58Z</time>
      </trkpt>
      <trkpt lat="44.3659" lon="4.46873">
        <ele>294.5</ele>
        <time>2022-06-11T10:56:59Z</time>
      </trkpt>
      <trkpt lat="44.36583" lon="4.46868">
        <ele>294.2</ele>
        <time>2022-06-11T10:57:00Z</time>
      </trkpt>
      <trkpt lat="44.36576" lon="4.46864">
        <ele>293.8</ele>
        <time>2022-06-11T10:57:01Z</time>
      </trkpt>
      <trkpt lat="44.36569" lon="4.4686">
        <ele>293.5</ele>
        <time>2022-06-11T10:57:02Z</time>
      </trkpt>
      <trkpt lat="44.36562" lon="4.46856">
        <ele>293.1</ele>
        <time>2022-06-11T10:57:03Z</time>
      </trkpt>
      <trkpt lat="44.36554" lon="4.46851">
        <ele>292.7</ele>
        <time>2022-06-11T10:57:04Z</time>
      </trkpt>
      <trkpt lat="44.36546" lon="4.46848">
        <ele>292.2</ele>
        <time>2022-06-11T10:57:05Z</time>
      </trkpt>
      <trkpt lat="44.36538" lon="4.46843">
        <ele>291.7</ele>
        <time>2022-06-11T10:57:06Z</time>
      </trkpt>
      <trkpt lat="44.3653" lon="4.46839">
        <ele>291.2</ele>
        <time>2022-06-11T10:57:07Z</time>
      </trkpt>
      <trkpt lat="44.36521" lon="4.46834">
        <ele>290.7</ele>
        <time>2022-06-11T10:57:08Z</time>
      </trkpt>
      <trkpt lat="44.36512" lon="4.4683">
        <ele>290.3</ele>
        <time>2022-06-11T10:57:09Z</time>
      </trkpt>
      <trkpt lat="44.36503" lon="4.46826">
        <ele>289.9</ele>
        <time>2022-06-11T10:57:10Z</time>
      </trkpt>
      <trkpt lat="44.36494" lon="4.46822">
        <ele>289.5</ele>
        <time>2022-06-11T10:57:11Z</time>
      </trkpt>
      <trkpt lat="44.36486" lon="4.46817">
        <ele>289.2</ele>
        <time>2022-06-11T10:57:12Z</time>
      </trkpt>
      <trkpt lat="44.36477" lon="4.46813">
        <ele>288.9</ele>
        <time>2022-06-11T10:57:13Z</time>
      </trkpt>
      <trkpt lat="44.36468" lon="4.46809">
        <ele>288.7</ele>
        <time>2022-06-11T10:57:14Z</time>
      </trkpt>
      <trkpt lat="44.36459" lon="4.46805">
        <ele>288.4</ele>
        <time>2022-06-11T10:57:15Z</time>
      </trkpt>
      <trkpt lat="44.36451" lon="4.468">
        <ele>288.2</ele>
        <time>2022-06-11T10:57:16Z</time>
      </trkpt>
      <trkpt lat="44.36442" lon="4.46796">
        <ele>288.1</ele>
        <time>2022-06-11T10:57:17Z</time>
      </trkpt>
      <trkpt lat="44.36434" lon="4.46792">
        <ele>287.9</ele>
        <time>2022-06-11T10:57:18Z</time>
      </trkpt>
      <trkpt lat="44.36426" lon="4.46788">
        <ele>287.8</ele>
        <time>2022-06-11T10:57:19Z</time>
      </trkpt>
      <trkpt lat="44.36419" lon="4.46783">
        <ele>287.7</ele>
        <time>2022-06-11T10:57:20Z</time>
      </trkpt>
      <trkpt lat="44.36411" lon="4.46779">
        <ele>287.5</ele>
        <time>2022-06-11T10:57:21Z</time>
      </trkpt>
      <trkpt lat="44.36403" lon="4.46776">
        <ele>287.4</ele>
        <time>2022-06-11T10:57:22Z</time>
      </trkpt>
      <trkpt lat="44.36396" lon="4.46773">
        <ele>287.3</ele>
        <time>2022-06-11T10:57:23Z</time>
      </trkpt>
      <trkpt lat="44.36389" lon="4.46772">
        <ele>287.3</ele>
        <time>2022-06-11T10:57:24Z</time>
      </trkpt>
      <trkpt lat="44.36381" lon="4.46773">
        <ele>287.1</ele>
        <time>2022-06-11T10:57:25Z</time>
      </trkpt>
      <trkpt lat="44.36374" lon="4.46776">
        <ele>287</ele>
        <time>2022-06-11T10:57:26Z</time>
      </trkpt>
      <trkpt lat="44.36367" lon="4.46779">
        <ele>286.9</ele>
        <time>2022-06-11T10:57:27Z</time>
      </trkpt>
      <trkpt lat="44.3636" lon="4.46783">
        <ele>286.8</ele>
        <time>2022-06-11T10:57:28Z</time>
      </trkpt>
      <trkpt lat="44.36354" lon="4.46789">
        <ele>286.7</ele>
        <time>2022-06-11T10:57:29Z</time>
      </trkpt>
      <trkpt lat="44.36349" lon="4.46795">
        <ele>286.6</ele>
        <time>2022-06-11T10:57:30Z</time>
      </trkpt>
      <trkpt lat="44.36346" lon="4.46804">
        <ele>286.5</ele>
        <time>2022-06-11T10:57:31Z</time>
      </trkpt>
      <trkpt lat="44.36344" lon="4.46813">
        <ele>286.3</ele>
        <time>2022-06-11T10:57:32Z</time>
      </trkpt>
      <trkpt lat="44.36342" lon="4.46823">
        <ele>286.2</ele>
        <time>2022-06-11T10:57:33Z</time>
      </trkpt>
      <trkpt lat="44.36341" lon="4.46832">
        <ele>286</ele>
        <time>2022-06-11T10:57:34Z</time>
      </trkpt>
      <trkpt lat="44.36342" lon="4.46842">
        <ele>285.8</ele>
        <time>2022-06-11T10:57:35Z</time>
      </trkpt>
      <trkpt lat="44.36343" lon="4.46851">
        <ele>285.6</ele>
        <time>2022-06-11T10:57:36Z</time>
      </trkpt>
      <trkpt lat="44.36345" lon="4.4686">
        <ele>285.4</ele>
        <time>2022-06-11T10:57:37Z</time>
      </trkpt>
      <trkpt lat="44.36348" lon="4.46869">
        <ele>285.1</ele>
        <time>2022-06-11T10:57:38Z</time>
      </trkpt>
      <trkpt lat="44.36352" lon="4.46878">
        <ele>284.9</ele>
        <time>2022-06-11T10:57:39Z</time>
      </trkpt>
      <trkpt lat="44.36356" lon="4.46887">
        <ele>284.6</ele>
        <time>2022-06-11T10:57:40Z</time>
      </trkpt>
      <trkpt lat="44.3636" lon="4.46896">
        <ele>284.3</ele>
        <time>2022-06-11T10:57:41Z</time>
      </trkpt>
      <trkpt lat="44.36364" lon="4.46905">
        <ele>284</ele>
        <time>2022-06-11T10:57:42Z</time>
      </trkpt>
      <trkpt lat="44.36368" lon="4.46914">
        <ele>283.7</ele>
        <time>2022-06-11T10:57:43Z</time>
      </trkpt>
      <trkpt lat="44.36372" lon="4.46923">
        <ele>283.4</ele>
        <time>2022-06-11T10:57:44Z</time>
      </trkpt>
      <trkpt lat="44.36376" lon="4.46933">
        <ele>283.2</ele>
        <time>2022-06-11T10:57:45Z</time>
      </trkpt>
      <trkpt lat="44.3638" lon="4.46942">
        <ele>282.9</ele>
        <time>2022-06-11T10:57:46Z</time>
      </trkpt>
      <trkpt lat="44.36385" lon="4.46951">
        <ele>282.6</ele>
        <time>2022-06-11T10:57:47Z</time>
      </trkpt>
      <trkpt lat="44.36389" lon="4.46961">
        <ele>282.4</ele>
        <time>2022-06-11T10:57:48Z</time>
      </trkpt>
      <trkpt lat="44.36393" lon="4.46971">
        <ele>282.1</ele>
        <time>2022-06-11T10:57:49Z</time>
      </trkpt>
      <trkpt lat="44.36397" lon="4.4698">
        <ele>281.8</ele>
        <time>2022-06-11T10:57:50Z</time>
      </trkpt>
      <trkpt lat="44.36402" lon="4.4699">
        <ele>281.5</ele>
        <time>2022-06-11T10:57:51Z</time>
      </trkpt>
      <trkpt lat="44.36405" lon="4.46999">
        <ele>281.3</ele>
        <time>2022-06-11T10:57:52Z</time>
      </trkpt>
      <trkpt lat="44.3641" lon="4.47008">
        <ele>281.1</ele>
        <time>2022-06-11T10:57:53Z</time>
      </trkpt>
      <trkpt lat="44.36414" lon="4.47017">
        <ele>280.9</ele>
        <time>2022-06-11T10:57:54Z</time>
      </trkpt>
      <trkpt lat="44.36418" lon="4.47026">
        <ele>280.7</ele>
        <time>2022-06-11T10:57:55Z</time>
      </trkpt>
      <trkpt lat="44.36422" lon="4.47035">
        <ele>280.7</ele>
        <time>2022-06-11T10:57:56Z</time>
      </trkpt>
      <trkpt lat="44.36426" lon="4.47044">
        <ele>280.6</ele>
        <time>2022-06-11T10:57:57Z</time>
      </trkpt>
      <trkpt lat="44.3643" lon="4.47053">
        <ele>280.6</ele>
        <time>2022-06-11T10:57:58Z</time>
      </trkpt>
      <trkpt lat="44.36433" lon="4.47062">
        <ele>280.6</ele>
        <time>2022-06-11T10:57:59Z</time>
      </trkpt>
      <trkpt lat="44.36436" lon="4.47071">
        <ele>280.6</ele>
        <time>2022-06-11T10:58:00Z</time>
      </trkpt>
      <trkpt lat="44.36439" lon="4.4708">
        <ele>280.6</ele>
        <time>2022-06-11T10:58:01Z</time>
      </trkpt>
      <trkpt lat="44.36441" lon="4.47088">
        <ele>280.7</ele>
        <time>2022-06-11T10:58:02Z</time>
      </trkpt>
      <trkpt lat="44.36444" lon="4.47095">
        <ele>280.7</ele>
        <time>2022-06-11T10:58:03Z</time>
      </trkpt>
      <trkpt lat="44.36446" lon="4.47103">
        <ele>280.7</ele>
        <time>2022-06-11T10:58:04Z</time>
      </trkpt>
      <trkpt lat="44.36448" lon="4.4711">
        <ele>280.7</ele>
        <time>2022-06-11T10:58:05Z</time>
      </trkpt>
      <trkpt lat="44.36449" lon="4.47117">
        <ele>280.7</ele>
        <time>2022-06-11T10:58:06Z</time>
      </trkpt>
      <trkpt lat="44.36451" lon="4.47125">
        <ele>280.8</ele>
        <time>2022-06-11T10:58:07Z</time>
      </trkpt>
      <trkpt lat="44.36453" lon="4.47132">
        <ele>280.8</ele>
        <time>2022-06-11T10:58:08Z</time>
      </trkpt>
      <trkpt lat="44.36455" lon="4.47139">
        <ele>280.7</ele>
        <time>2022-06-11T10:58:09Z</time>
      </trkpt>
      <trkpt lat="44.36456" lon="4.47146">
        <ele>280.7</ele>
        <time>2022-06-11T10:58:10Z</time>
      </trkpt>
      <trkpt lat="44.36458" lon="4.47153">
        <ele>280.7</ele>
        <time>2022-06-11T10:58:11Z</time>
      </trkpt>
      <trkpt lat="44.3646" lon="4.4716">
        <ele>280.7</ele>
        <time>2022-06-11T10:58:12Z</time>
      </trkpt>
      <trkpt lat="44.36462" lon="4.47168">
        <ele>280.6</ele>
        <time>2022-06-11T10:58:13Z</time>
      </trkpt>
      <trkpt lat="44.36463" lon="4.47175">
        <ele>280.6</ele>
        <time>2022-06-11T10:58:14Z</time>
      </trkpt>
      <trkpt lat="44.36465" lon="4.47182">
        <ele>280.5</ele>
        <time>2022-06-11T10:58:15Z</time>
      </trkpt>
      <trkpt lat="44.36467" lon="4.4719">
        <ele>280.4</ele>
        <time>2022-06-11T10:58:16Z</time>
      </trkpt>
      <trkpt lat="44.36469" lon="4.47198">
        <ele>280.2</ele>
        <time>2022-06-11T10:58:17Z</time>
      </trkpt>
      <trkpt lat="44.36471" lon="4.47205">
        <ele>280.1</ele>
        <time>2022-06-11T10:58:18Z</time>
      </trkpt>
      <trkpt lat="44.36473" lon="4.47213">
        <ele>280</ele>
        <time>2022-06-11T10:58:19Z</time>
      </trkpt>
      <trkpt lat="44.36474" lon="4.47221">
        <ele>279.9</ele>
        <time>2022-06-11T10:58:20Z</time>
      </trkpt>
      <trkpt lat="44.36476" lon="4.47229">
        <ele>279.7</ele>
        <time>2022-06-11T10:58:21Z</time>
      </trkpt>
      <trkpt lat="44.36478" lon="4.47237">
        <ele>279.6</ele>
        <time>2022-06-11T10:58:22Z</time>
      </trkpt>
      <trkpt lat="44.3648" lon="4.47245">
        <ele>279.4</ele>
        <time>2022-06-11T10:58:23Z</time>
      </trkpt>
      <trkpt lat="44.36482" lon="4.47254">
        <ele>279.2</ele>
        <time>2022-06-11T10:58:24Z</time>
      </trkpt>
      <trkpt lat="44.36484" lon="4.47262">
        <ele>279</ele>
        <time>2022-06-11T10:58:25Z</time>
      </trkpt>
      <trkpt lat="44.36485" lon="4.4727">
        <ele>278.8</ele>
        <time>2022-06-11T10:58:26Z</time>
      </trkpt>
      <trkpt lat="44.36487" lon="4.47278">
        <ele>278.6</ele>
        <time>2022-06-11T10:58:27Z</time>
      </trkpt>
      <trkpt lat="44.3649" lon="4.47287">
        <ele>278.4</ele>
        <time>2022-06-11T10:58:28Z</time>
      </trkpt>
      <trkpt lat="44.36491" lon="4.47295">
        <ele>278.2</ele>
        <time>2022-06-11T10:58:29Z</time>
      </trkpt>
      <trkpt lat="44.36493" lon="4.47303">
        <ele>278</ele>
        <time>2022-06-11T10:58:30Z</time>
      </trkpt>
      <trkpt lat="44.36496" lon="4.47312">
        <ele>277.7</ele>
        <time>2022-06-11T10:58:31Z</time>
      </trkpt>
      <trkpt lat="44.36498" lon="4.47321">
        <ele>277.5</ele>
        <time>2022-06-11T10:58:32Z</time>
      </trkpt>
      <trkpt lat="44.36501" lon="4.47331">
        <ele>277.2</ele>
        <time>2022-06-11T10:58:33Z</time>
      </trkpt>
      <trkpt lat="44.36503" lon="4.4734">
        <ele>277.1</ele>
        <time>2022-06-11T10:58:34Z</time>
      </trkpt>
      <trkpt lat="44.36505" lon="4.4735">
        <ele>276.9</ele>
        <time>2022-06-11T10:58:35Z</time>
      </trkpt>
      <trkpt lat="44.36508" lon="4.4736">
        <ele>276.8</ele>
        <time>2022-06-11T10:58:36Z</time>
      </trkpt>
      <trkpt lat="44.36509" lon="4.4737">
        <ele>276.8</ele>
        <time>2022-06-11T10:58:37Z</time>
      </trkpt>
      <trkpt lat="44.3651" lon="4.47379">
        <ele>276.7</ele>
        <time>2022-06-11T10:58:38Z</time>
      </trkpt>
      <trkpt lat="44.36511" lon="4.47389">
        <ele>276.7</ele>
        <time>2022-06-11T10:58:39Z</time>
      </trkpt>
      <trkpt lat="44.3651" lon="4.47398">
        <ele>276.7</ele>
        <time>2022-06-11T10:58:40Z</time>
      </trkpt>
      <trkpt lat="44.36509" lon="4.47406">
        <ele>276.7</ele>
        <time>2022-06-11T10:58:41Z</time>
      </trkpt>
      <trkpt lat="44.36507" lon="4.47415">
        <ele>276.6</ele>
        <time>2022-06-11T10:58:42Z</time>
      </trkpt>
      <trkpt lat="44.36504" lon="4.47423">
        <ele>276.6</ele>
        <time>2022-06-11T10:58:43Z</time>
      </trkpt>
      <trkpt lat="44.36501" lon="4.4743">
        <ele>276.6</ele>
        <time>2022-06-11T10:58:44Z</time>
      </trkpt>
      <trkpt lat="44.36498" lon="4.47436">
        <ele>276.6</ele>
        <time>2022-06-11T10:58:45Z</time>
      </trkpt>
      <trkpt lat="44.36494" lon="4.47442">
        <ele>276.6</ele>
        <time>2022-06-11T10:58:46Z</time>
      </trkpt>
      <trkpt lat="44.36489" lon="4.47447">
        <ele>276.6</ele>
        <time>2022-06-11T10:58:47Z</time>
      </trkpt>
      <trkpt lat="44.36484" lon="4.47451">
        <ele>276.7</ele>
        <time>2022-06-11T10:58:48Z</time>
      </trkpt>
      <trkpt lat="44.36479" lon="4.47454">
        <ele>276.7</ele>
        <time>2022-06-11T10:58:49Z</time>
      </trkpt>
      <trkpt lat="44.36475" lon="4.47456">
        <ele>276.8</ele>
        <time>2022-06-11T10:58:50Z</time>
      </trkpt>
      <trkpt lat="44.3647" lon="4.47458">
        <ele>276.8</ele>
        <time>2022-06-11T10:58:51Z</time>
      </trkpt>
      <trkpt lat="44.36465" lon="4.47459">
        <ele>276.9</ele>
        <time>2022-06-11T10:58:52Z</time>
      </trkpt>
      <trkpt lat="44.3646" lon="4.47458">
        <ele>276.9</ele>
        <time>2022-06-11T10:58:53Z</time>
      </trkpt>
      <trkpt lat="44.36455" lon="4.47458">
        <ele>276.9</ele>
        <time>2022-06-11T10:58:54Z</time>
      </trkpt>
      <trkpt lat="44.3645" lon="4.47457">
        <ele>277</ele>
        <time>2022-06-11T10:58:55Z</time>
      </trkpt>
      <trkpt lat="44.36445" lon="4.47457">
        <ele>277</ele>
        <time>2022-06-11T10:58:56Z</time>
      </trkpt>
      <trkpt lat="44.3644" lon="4.47456">
        <ele>277</ele>
        <time>2022-06-11T10:58:57Z</time>
      </trkpt>
      <trkpt lat="44.36435" lon="4.47455">
        <ele>277</ele>
        <time>2022-06-11T10:58:58Z</time>
      </trkpt>
      <trkpt lat="44.36429" lon="4.47454">
        <ele>277</ele>
        <time>2022-06-11T10:58:59Z</time>
      </trkpt>
      <trkpt lat="44.36424" lon="4.47454">
        <ele>277</ele>
        <time>2022-06-11T10:59:00Z</time>
      </trkpt>
      <trkpt lat="44.36419" lon="4.47453">
        <ele>277</ele>
        <time>2022-06-11T10:59:01Z</time>
      </trkpt>
      <trkpt lat="44.36413" lon="4.47452">
        <ele>277.1</ele>
        <time>2022-06-11T10:59:02Z</time>
      </trkpt>
      <trkpt lat="44.36408" lon="4.4745">
        <ele>277.1</ele>
        <time>2022-06-11T10:59:03Z</time>
      </trkpt>
      <trkpt lat="44.36402" lon="4.4745">
        <ele>277.1</ele>
        <time>2022-06-11T10:59:04Z</time>
      </trkpt>
      <trkpt lat="44.36396" lon="4.47449">
        <ele>277.1</ele>
        <time>2022-06-11T10:59:05Z</time>
      </trkpt>
      <trkpt lat="44.36391" lon="4.47448">
        <ele>277.2</ele>
        <time>2022-06-11T10:59:06Z</time>
      </trkpt>
      <trkpt lat="44.36386" lon="4.47448">
        <ele>277.2</ele>
        <time>2022-06-11T10:59:07Z</time>
      </trkpt>
      <trkpt lat="44.3638" lon="4.47447">
        <ele>277.3</ele>
        <time>2022-06-11T10:59:08Z</time>
      </trkpt>
      <trkpt lat="44.36375" lon="4.47446">
        <ele>277.3</ele>
        <time>2022-06-11T10:59:09Z</time>
      </trkpt>
      <trkpt lat="44.3637" lon="4.47444">
        <ele>277.4</ele>
        <time>2022-06-11T10:59:10Z</time>
      </trkpt>
      <trkpt lat="44.36365" lon="4.47443">
        <ele>277.5</ele>
        <time>2022-06-11T10:59:11Z</time>
      </trkpt>
      <trkpt lat="44.3636" lon="4.47442">
        <ele>277.5</ele>
        <time>2022-06-11T10:59:12Z</time>
      </trkpt>
      <trkpt lat="44.36354" lon="4.47441">
        <ele>277.6</ele>
        <time>2022-06-11T10:59:13Z</time>
      </trkpt>
      <trkpt lat="44.36349" lon="4.4744">
        <ele>277.7</ele>
        <time>2022-06-11T10:59:14Z</time>
      </trkpt>
      <trkpt lat="44.36344" lon="4.47439">
        <ele>277.7</ele>
        <time>2022-06-11T10:59:15Z</time>
      </trkpt>
      <trkpt lat="44.36339" lon="4.47439">
        <ele>277.8</ele>
        <time>2022-06-11T10:59:16Z</time>
      </trkpt>
      <trkpt lat="44.36334" lon="4.47438">
        <ele>277.8</ele>
        <time>2022-06-11T10:59:17Z</time>
      </trkpt>
      <trkpt lat="44.36329" lon="4.47437">
        <ele>277.9</ele>
        <time>2022-06-11T10:59:18Z</time>
      </trkpt>
      <trkpt lat="44.36324" lon="4.47436">
        <ele>277.9</ele>
        <time>2022-06-11T10:59:19Z</time>
      </trkpt>
      <trkpt lat="44.36319" lon="4.47435">
        <ele>277.9</ele>
        <time>2022-06-11T10:59:20Z</time>
      </trkpt>
      <trkpt lat="44.36314" lon="4.47434">
        <ele>278</ele>
        <time>2022-06-11T10:59:21Z</time>
      </trkpt>
      <trkpt lat="44.36309" lon="4.47434">
        <ele>278</ele>
        <time>2022-06-11T10:59:22Z</time>
      </trkpt>
      <trkpt lat="44.36304" lon="4.47434">
        <ele>278</ele>
        <time>2022-06-11T10:59:23Z</time>
      </trkpt>
      <trkpt lat="44.36299" lon="4.47433">
        <ele>278</ele>
        <time>2022-06-11T10:59:24Z</time>
      </trkpt>
      <trkpt lat="44.36294" lon="4.47433">
        <ele>278</ele>
        <time>2022-06-11T10:59:25Z</time>
      </trkpt>
      <trkpt lat="44.36289" lon="4.47433">
        <ele>277.9</ele>
        <time>2022-06-11T10:59:26Z</time>
      </trkpt>
      <trkpt lat="44.36284" lon="4.47434">
        <ele>277.9</ele>
        <time>2022-06-11T10:59:27Z</time>
      </trkpt>
      <trkpt lat="44.36279" lon="4.47436">
        <ele>277.8</ele>
        <time>2022-06-11T10:59:28Z</time>
      </trkpt>
      <trkpt lat="44.36274" lon="4.47439">
        <ele>277.6</ele>
        <time>2022-06-11T10:59:29Z</time>
      </trkpt>
      <trkpt lat="44.36269" lon="4.47442">
        <ele>277.5</ele>
        <time>2022-06-11T10:59:30Z</time>
      </trkpt>
      <trkpt lat="44.36264" lon="4.47447">
        <ele>277.2</ele>
        <time>2022-06-11T10:59:31Z</time>
      </trkpt>
      <trkpt lat="44.36259" lon="4.47452">
        <ele>276.9</ele>
        <time>2022-06-11T10:59:32Z</time>
      </trkpt>
      <trkpt lat="44.36254" lon="4.47459">
        <ele>276.6</ele>
        <time>2022-06-11T10:59:33Z</time>
      </trkpt>
      <trkpt lat="44.3625" lon="4.47466">
        <ele>276.3</ele>
        <time>2022-06-11T10:59:34Z</time>
      </trkpt>
      <trkpt lat="44.36247" lon="4.47475">
        <ele>275.9</ele>
        <time>2022-06-11T10:59:35Z</time>
      </trkpt>
      <trkpt lat="44.36244" lon="4.47485">
        <ele>275.5</ele>
        <time>2022-06-11T10:59:36Z</time>
      </trkpt>
      <trkpt lat="44.36243" lon="4.47495">
        <ele>275.1</ele>
        <time>2022-06-11T10:59:37Z</time>
      </trkpt>
      <trkpt lat="44.36243" lon="4.47505">
        <ele>274.7</ele>
        <time>2022-06-11T10:59:38Z</time>
      </trkpt>
      <trkpt lat="44.36243" lon="4.47515">
        <ele>274.3</ele>
        <time>2022-06-11T10:59:39Z</time>
      </trkpt>
      <trkpt lat="44.36244" lon="4.47524">
        <ele>273.9</ele>
        <time>2022-06-11T10:59:40Z</time>
      </trkpt>
      <trkpt lat="44.36247" lon="4.47534">
        <ele>273.5</ele>
        <time>2022-06-11T10:59:41Z</time>
      </trkpt>
      <trkpt lat="44.3625" lon="4.47543">
        <ele>273.1</ele>
        <time>2022-06-11T10:59:42Z</time>
      </trkpt>
      <trkpt lat="44.36254" lon="4.47551">
        <ele>272.7</ele>
        <time>2022-06-11T10:59:43Z</time>
      </trkpt>
      <trkpt lat="44.36259" lon="4.4756">
        <ele>272.3</ele>
        <time>2022-06-11T10:59:44Z</time>
      </trkpt>
      <trkpt lat="44.36263" lon="4.47569">
        <ele>271.9</ele>
        <time>2022-06-11T10:59:45Z</time>
      </trkpt>
      <trkpt lat="44.36268" lon="4.47577">
        <ele>271.5</ele>
        <time>2022-06-11T10:59:46Z</time>
      </trkpt>
      <trkpt lat="44.36273" lon="4.47586">
        <ele>271</ele>
        <time>2022-06-11T10:59:47Z</time>
      </trkpt>
      <trkpt lat="44.36277" lon="4.47594">
        <ele>270.7</ele>
        <time>2022-06-11T10:59:48Z</time>
      </trkpt>
      <trkpt lat="44.36281" lon="4.47603">
        <ele>270.2</ele>
        <time>2022-06-11T10:59:49Z</time>
      </trkpt>
      <trkpt lat="44.36286" lon="4.47611">
        <ele>269.8</ele>
        <time>2022-06-11T10:59:50Z</time>
      </trkpt>
      <trkpt lat="44.3629" lon="4.47619">
        <ele>269.5</ele>
        <time>2022-06-11T10:59:51Z</time>
      </trkpt>
      <trkpt lat="44.36295" lon="4.47627">
        <ele>269.1</ele>
        <time>2022-06-11T10:59:52Z</time>
      </trkpt>
      <trkpt lat="44.36299" lon="4.47636">
        <ele>268.7</ele>
        <time>2022-06-11T10:59:53Z</time>
      </trkpt>
      <trkpt lat="44.36303" lon="4.47645">
        <ele>268.3</ele>
        <time>2022-06-11T10:59:54Z</time>
      </trkpt>
      <trkpt lat="44.36306" lon="4.47654">
        <ele>267.9</ele>
        <time>2022-06-11T10:59:55Z</time>
      </trkpt>
      <trkpt lat="44.3631" lon="4.47663">
        <ele>267.5</ele>
        <time>2022-06-11T10:59:56Z</time>
      </trkpt>
      <trkpt lat="44.36313" lon="4.47672">
        <ele>267.1</ele>
        <time>2022-06-11T10:59:57Z</time>
      </trkpt>
      <trkpt lat="44.36316" lon="4.47681">
        <ele>266.7</ele>
        <time>2022-06-11T10:59:58Z</time>
      </trkpt>
      <trkpt lat="44.36318" lon="4.47691">
        <ele>266.3</ele>
        <time>2022-06-11T10:59:59Z</time>
      </trkpt>
      <trkpt lat="44.36321" lon="4.477">
        <ele>265.9</ele>
        <time>2022-06-11T11:00:00Z</time>
      </trkpt>
      <trkpt lat="44.36324" lon="4.4771">
        <ele>265.4</ele>
        <time>2022-06-11T11:00:01Z</time>
      </trkpt>
      <trkpt lat="44.36327" lon="4.47719">
        <ele>265</ele>
        <time>2022-06-11T11:00:02Z</time>
      </trkpt>
      <trkpt lat="44.36329" lon="4.47729">
        <ele>264.6</ele>
        <time>2022-06-11T11:00:03Z</time>
      </trkpt>
      <trkpt lat="44.36332" lon="4.47738">
        <ele>264.1</ele>
        <time>2022-06-11T11:00:04Z</time>
      </trkpt>
      <trkpt lat="44.36335" lon="4.47749">
        <ele>263.7</ele>
        <time>2022-06-11T11:00:05Z</time>
      </trkpt>
      <trkpt lat="44.36338" lon="4.47759">
        <ele>263.3</ele>
        <time>2022-06-11T11:00:06Z</time>
      </trkpt>
      <trkpt lat="44.36341" lon="4.47769">
        <ele>262.8</ele>
        <time>2022-06-11T11:00:07Z</time>
      </trkpt>
      <trkpt lat="44.36344" lon="4.4778">
        <ele>262.4</ele>
        <time>2022-06-11T11:00:08Z</time>
      </trkpt>
      <trkpt lat="44.36347" lon="4.47791">
        <ele>262</ele>
        <time>2022-06-11T11:00:09Z</time>
      </trkpt>
      <trkpt lat="44.3635" lon="4.47802">
        <ele>261.6</ele>
        <time>2022-06-11T11:00:10Z</time>
      </trkpt>
      <trkpt lat="44.36352" lon="4.47813">
        <ele>261.3</ele>
        <time>2022-06-11T11:00:11Z</time>
      </trkpt>
      <trkpt lat="44.36353" lon="4.47825">
        <ele>261</ele>
        <time>2022-06-11T11:00:12Z</time>
      </trkpt>
      <trkpt lat="44.36352" lon="4.47836">
        <ele>260.7</ele>
        <time>2022-06-11T11:00:13Z</time>
      </trkpt>
      <trkpt lat="44.36348" lon="4.47846">
        <ele>260.5</ele>
        <time>2022-06-11T11:00:14Z</time>
      </trkpt>
      <trkpt lat="44.36342" lon="4.47855">
        <ele>260.4</ele>
        <time>2022-06-11T11:00:15Z</time>
      </trkpt>
      <trkpt lat="44.36335" lon="4.47861">
        <ele>260.3</ele>
        <time>2022-06-11T11:00:16Z</time>
      </trkpt>
      <trkpt lat="44.36328" lon="4.47865">
        <ele>260.2</ele>
        <time>2022-06-11T11:00:17Z</time>
      </trkpt>
      <trkpt lat="44.3632" lon="4.47866">
        <ele>260.2</ele>
        <time>2022-06-11T11:00:18Z</time>
      </trkpt>
      <trkpt lat="44.36313" lon="4.47865">
        <ele>260.3</ele>
        <time>2022-06-11T11:00:19Z</time>
      </trkpt>
      <trkpt lat="44.36306" lon="4.47861">
        <ele>260.4</ele>
        <time>2022-06-11T11:00:20Z</time>
      </trkpt>
      <trkpt lat="44.36301" lon="4.47857">
        <ele>260.4</ele>
        <time>2022-06-11T11:00:21Z</time>
      </trkpt>
      <trkpt lat="44.36296" lon="4.47851">
        <ele>260.5</ele>
        <time>2022-06-11T11:00:22Z</time>
      </trkpt>
      <trkpt lat="44.36292" lon="4.47844">
        <ele>260.6</ele>
        <time>2022-06-11T11:00:23Z</time>
      </trkpt>
      <trkpt lat="44.36288" lon="4.47837">
        <ele>260.7</ele>
        <time>2022-06-11T11:00:24Z</time>
      </trkpt>
      <trkpt lat="44.36285" lon="4.4783">
        <ele>260.8</ele>
        <time>2022-06-11T11:00:25Z</time>
      </trkpt>
      <trkpt lat="44.36282" lon="4.47823">
        <ele>260.9</ele>
        <time>2022-06-11T11:00:26Z</time>
      </trkpt>
      <trkpt lat="44.36279" lon="4.47816">
        <ele>261</ele>
        <time>2022-06-11T11:00:27Z</time>
      </trkpt>
      <trkpt lat="44.36276" lon="4.4781">
        <ele>261</ele>
        <time>2022-06-11T11:00:28Z</time>
      </trkpt>
      <trkpt lat="44.36273" lon="4.47803">
        <ele>261.1</ele>
        <time>2022-06-11T11:00:29Z</time>
      </trkpt>
      <trkpt lat="44.3627" lon="4.47796">
        <ele>261.1</ele>
        <time>2022-06-11T11:00:30Z</time>
      </trkpt>
      <trkpt lat="44.36266" lon="4.4779">
        <ele>261.2</ele>
        <time>2022-06-11T11:00:31Z</time>
      </trkpt>
      <trkpt lat="44.36263" lon="4.47783">
        <ele>261.2</ele>
        <time>2022-06-11T11:00:32Z</time>
      </trkpt>
      <trkpt lat="44.3626" lon="4.47776">
        <ele>261.3</ele>
        <time>2022-06-11T11:00:33Z</time>
      </trkpt>
      <trkpt lat="44.36257" lon="4.47769">
        <ele>261.3</ele>
        <time>2022-06-11T11:00:34Z</time>
      </trkpt>
      <trkpt lat="44.36254" lon="4.47763">
        <ele>261.4</ele>
        <time>2022-06-11T11:00:35Z</time>
      </trkpt>
      <trkpt lat="44.36251" lon="4.47756">
        <ele>261.4</ele>
        <time>2022-06-11T11:00:36Z</time>
      </trkpt>
      <trkpt lat="44.36248" lon="4.4775">
        <ele>261.5</ele>
        <time>2022-06-11T11:00:37Z</time>
      </trkpt>
      <trkpt lat="44.36245" lon="4.47743">
        <ele>261.5</ele>
        <time>2022-06-11T11:00:38Z</time>
      </trkpt>
      <trkpt lat="44.36241" lon="4.47737">
        <ele>261.6</ele>
        <time>2022-06-11T11:00:39Z</time>
      </trkpt>
      <trkpt lat="44.36238" lon="4.4773">
        <ele>261.6</ele>
        <time>2022-06-11T11:00:40Z</time>
      </trkpt>
      <trkpt lat="44.36235" lon="4.47724">
        <ele>261.7</ele>
        <time>2022-06-11T11:00:41Z</time>
      </trkpt>
      <trkpt lat="44.36232" lon="4.47719">
        <ele>261.8</ele>
        <time>2022-06-11T11:00:42Z</time>
      </trkpt>
      <trkpt lat="44.36228" lon="4.47714">
        <ele>261.8</ele>
        <time>2022-06-11T11:00:43Z</time>
      </trkpt>
      <trkpt lat="44.36223" lon="4.47709">
        <ele>261.9</ele>
        <time>2022-06-11T11:00:44Z</time>
      </trkpt>
      <trkpt lat="44.36219" lon="4.47705">
        <ele>261.9</ele>
        <time>2022-06-11T11:00:45Z</time>
      </trkpt>
      <trkpt lat="44.36214" lon="4.47701">
        <ele>262</ele>
        <time>2022-06-11T11:00:46Z</time>
      </trkpt>
      <trkpt lat="44.3621" lon="4.47696">
        <ele>262</ele>
        <time>2022-06-11T11:00:47Z</time>
      </trkpt>
      <trkpt lat="44.36205" lon="4.47692">
        <ele>262.1</ele>
        <time>2022-06-11T11:00:48Z</time>
      </trkpt>
      <trkpt lat="44.36201" lon="4.47688">
        <ele>262.1</ele>
        <time>2022-06-11T11:00:49Z</time>
      </trkpt>
      <trkpt lat="44.36196" lon="4.47684">
        <ele>262.2</ele>
        <time>2022-06-11T11:00:50Z</time>
      </trkpt>
      <trkpt lat="44.36191" lon="4.4768">
        <ele>262.2</ele>
        <time>2022-06-11T11:00:51Z</time>
      </trkpt>
      <trkpt lat="44.36187" lon="4.47676">
        <ele>262.3</ele>
        <time>2022-06-11T11:00:52Z</time>
      </trkpt>
      <trkpt lat="44.36182" lon="4.47672">
        <ele>262.3</ele>
        <time>2022-06-11T11:00:53Z</time>
      </trkpt>
      <trkpt lat="44.36178" lon="4.47668">
        <ele>262.3</ele>
        <time>2022-06-11T11:00:54Z</time>
      </trkpt>
      <trkpt lat="44.36173" lon="4.47664">
        <ele>262.4</ele>
        <time>2022-06-11T11:00:55Z</time>
      </trkpt>
      <trkpt lat="44.36169" lon="4.4766">
        <ele>262.5</ele>
        <time>2022-06-11T11:00:56Z</time>
      </trkpt>
      <trkpt lat="44.36164" lon="4.47655">
        <ele>262.5</ele>
        <time>2022-06-11T11:00:57Z</time>
      </trkpt>
      <trkpt lat="44.3616" lon="4.47651">
        <ele>262.6</ele>
        <time>2022-06-11T11:00:58Z</time>
      </trkpt>
      <trkpt lat="44.36156" lon="4.47648">
        <ele>262.7</ele>
        <time>2022-06-11T11:00:59Z</time>
      </trkpt>
      <trkpt lat="44.36151" lon="4.47644">
        <ele>262.7</ele>
        <time>2022-06-11T11:01:00Z</time>
      </trkpt>
      <trkpt lat="44.36147" lon="4.4764">
        <ele>262.8</ele>
        <time>2022-06-11T11:01:01Z</time>
      </trkpt>
      <trkpt lat="44.36142" lon="4.47636">
        <ele>262.9</ele>
        <time>2022-06-11T11:01:02Z</time>
      </trkpt>
      <trkpt lat="44.36138" lon="4.47633">
        <ele>263</ele>
        <time>2022-06-11T11:01:03Z</time>
      </trkpt>
      <trkpt lat="44.36134" lon="4.47629">
        <ele>263.1</ele>
        <time>2022-06-11T11:01:04Z</time>
      </trkpt>
      <trkpt lat="44.36129" lon="4.47625">
        <ele>263.3</ele>
        <time>2022-06-11T11:01:05Z</time>
      </trkpt>
      <trkpt lat="44.36125" lon="4.47621">
        <ele>263.4</ele>
        <time>2022-06-11T11:01:06Z</time>
      </trkpt>
      <trkpt lat="44.36121" lon="4.47617">
        <ele>263.5</ele>
        <time>2022-06-11T11:01:07Z</time>
      </trkpt>
      <trkpt lat="44.36117" lon="4.47613">
        <ele>263.6</ele>
        <time>2022-06-11T11:01:08Z</time>
      </trkpt>
      <trkpt lat="44.36112" lon="4.4761">
        <ele>263.7</ele>
        <time>2022-06-11T11:01:09Z</time>
      </trkpt>
      <trkpt lat="44.36108" lon="4.47606">
        <ele>263.8</ele>
        <time>2022-06-11T11:01:10Z</time>
      </trkpt>
      <trkpt lat="44.36104" lon="4.47602">
        <ele>263.9</ele>
        <time>2022-06-11T11:01:11Z</time>
      </trkpt>
      <trkpt lat="44.361" lon="4.47599">
        <ele>264</ele>
        <time>2022-06-11T11:01:12Z</time>
      </trkpt>
      <trkpt lat="44.36096" lon="4.47595">
        <ele>264.1</ele>
        <time>2022-06-11T11:01:13Z</time>
      </trkpt>
      <trkpt lat="44.36092" lon="4.47591">
        <ele>264.2</ele>
        <time>2022-06-11T11:01:14Z</time>
      </trkpt>
      <trkpt lat="44.36088" lon="4.47586">
        <ele>264.4</ele>
        <time>2022-06-11T11:01:15Z</time>
      </trkpt>
      <trkpt lat="44.36085" lon="4.47581">
        <ele>264.5</ele>
        <time>2022-06-11T11:01:16Z</time>
      </trkpt>
      <trkpt lat="44.36083" lon="4.47575">
        <ele>264.7</ele>
        <time>2022-06-11T11:01:17Z</time>
      </trkpt>
      <trkpt lat="44.3608" lon="4.47569">
        <ele>264.9</ele>
        <time>2022-06-11T11:01:18Z</time>
      </trkpt>
      <trkpt lat="44.36079" lon="4.47563">
        <ele>265.1</ele>
        <time>2022-06-11T11:01:19Z</time>
      </trkpt>
      <trkpt lat="44.36077" lon="4.47558">
        <ele>265.3</ele>
        <time>2022-06-11T11:01:20Z</time>
      </trkpt>
      <trkpt lat="44.36076" lon="4.47551">
        <ele>265.5</ele>
        <time>2022-06-11T11:01:21Z</time>
      </trkpt>
      <trkpt lat="44.36076" lon="4.47548">
        <ele>265.7</ele>
        <time>2022-06-11T11:01:22Z</time>
      </trkpt>
      <trkpt lat="44.36075" lon="4.47544">
        <ele>265.9</ele>
        <time>2022-06-11T11:01:23Z</time>
      </trkpt>
      <trkpt lat="44.36075" lon="4.4754">
        <ele>266.1</ele>
        <time>2022-06-11T11:01:24Z</time>
      </trkpt>
      <trkpt lat="44.36074" lon="4.47535">
        <ele>266.4</ele>
        <time>2022-06-11T11:01:25Z</time>
      </trkpt>
      <trkpt lat="44.36074" lon="4.47533">
        <ele>266.5</ele>
        <time>2022-06-11T11:01:26Z</time>
      </trkpt>
      <trkpt lat="44.36073" lon="4.47531">
        <ele>266.6</ele>
        <time>2022-06-11T11:01:27Z</time>
      </trkpt>
      <trkpt lat="44.36072" lon="4.47525">
        <ele>267</ele>
        <time>2022-06-11T11:01:29Z</time>
      </trkpt>
      <trkpt lat="44.36072" lon="4.47521">
        <ele>267.3</ele>
        <time>2022-06-11T11:01:30Z</time>
      </trkpt>
      <trkpt lat="44.36071" lon="4.47517">
        <ele>267.5</ele>
        <time>2022-06-11T11:01:31Z</time>
      </trkpt>
      <trkpt lat="44.3607" lon="4.47514">
        <ele>267.8</ele>
        <time>2022-06-11T11:01:32Z</time>
      </trkpt>
      <trkpt lat="44.36069" lon="4.47511">
        <ele>268</ele>
        <time>2022-06-11T11:01:34Z</time>
      </trkpt>
      <trkpt lat="44.36068" lon="4.47509">
        <ele>268.1</ele>
        <time>2022-06-11T11:01:35Z</time>
      </trkpt>
      <trkpt lat="44.36067" lon="4.47506">
        <ele>268.3</ele>
        <time>2022-06-11T11:01:36Z</time>
      </trkpt>
      <trkpt lat="44.36066" lon="4.47505">
        <ele>268.5</ele>
        <time>2022-06-11T11:01:37Z</time>
      </trkpt>
      <trkpt lat="44.36065" lon="4.47502">
        <ele>268.7</ele>
        <time>2022-06-11T11:01:39Z</time>
      </trkpt>
      <trkpt lat="44.36065" lon="4.475">
        <ele>268.8</ele>
        <time>2022-06-11T11:01:40Z</time>
      </trkpt>
      <trkpt lat="44.36063" lon="4.47497">
        <ele>269.1</ele>
        <time>2022-06-11T11:01:42Z</time>
      </trkpt>
      <trkpt lat="44.36062" lon="4.47493">
        <ele>269.4</ele>
        <time>2022-06-11T11:01:43Z</time>
      </trkpt>
      <trkpt lat="44.36061" lon="4.47492">
        <ele>269.5</ele>
        <time>2022-06-11T11:01:44Z</time>
      </trkpt>
      <trkpt lat="44.3606" lon="4.4749">
        <ele>269.6</ele>
        <time>2022-06-11T11:01:45Z</time>
      </trkpt>
      <trkpt lat="44.36056" lon="4.47487">
        <ele>270</ele>
        <time>2022-06-11T11:01:47Z</time>
      </trkpt>
      <trkpt lat="44.36055" lon="4.47485">
        <ele>270.2</ele>
        <time>2022-06-11T11:01:49Z</time>
      </trkpt>
      <trkpt lat="44.36053" lon="4.47482">
        <ele>270.5</ele>
        <time>2022-06-11T11:01:50Z</time>
      </trkpt>
      <trkpt lat="44.36051" lon="4.4748">
        <ele>270.6</ele>
        <time>2022-06-11T11:01:52Z</time>
      </trkpt>
      <trkpt lat="44.3605" lon="4.47479">
        <ele>270.7</ele>
        <time>2022-06-11T11:01:53Z</time>
      </trkpt>
      <trkpt lat="44.36049" lon="4.47478">
        <ele>270.9</ele>
        <time>2022-06-11T11:01:54Z</time>
      </trkpt>
      <trkpt lat="44.36048" lon="4.47476">
        <ele>271</ele>
        <time>2022-06-11T11:01:55Z</time>
      </trkpt>
      <trkpt lat="44.36047" lon="4.47473">
        <ele>271.2</ele>
        <time>2022-06-11T11:01:56Z</time>
      </trkpt>
      <trkpt lat="44.36046" lon="4.47472">
        <ele>271.3</ele>
        <time>2022-06-11T11:01:57Z</time>
      </trkpt>
      <trkpt lat="44.36045" lon="4.4747">
        <ele>271.4</ele>
        <time>2022-06-11T11:01:58Z</time>
      </trkpt>
      <trkpt lat="44.36044" lon="4.47468">
        <ele>271.5</ele>
        <time>2022-06-11T11:01:59Z</time>
      </trkpt>
      <trkpt lat="44.36043" lon="4.47466">
        <ele>271.7</ele>
        <time>2022-06-11T11:02:00Z</time>
      </trkpt>
      <trkpt lat="44.36042" lon="4.47464">
        <ele>271.8</ele>
        <time>2022-06-11T11:02:01Z</time>
      </trkpt>
      <trkpt lat="44.36041" lon="4.47463">
        <ele>271.9</ele>
        <time>2022-06-11T11:02:02Z</time>
      </trkpt>
      <trkpt lat="44.3604" lon="4.47461">
        <ele>272</ele>
        <time>2022-06-11T11:02:03Z</time>
      </trkpt>
      <trkpt lat="44.36039" lon="4.47459">
        <ele>272.1</ele>
        <time>2022-06-11T11:02:04Z</time>
      </trkpt>
      <trkpt lat="44.36038" lon="4.47457">
        <ele>272.2</ele>
        <time>2022-06-11T11:02:05Z</time>
      </trkpt>
      <trkpt lat="44.36038" lon="4.47455">
        <ele>272.3</ele>
        <time>2022-06-11T11:02:06Z</time>
      </trkpt>
      <trkpt lat="44.36037" lon="4.47453">
        <ele>272.4</ele>
        <time>2022-06-11T11:02:07Z</time>
      </trkpt>
      <trkpt lat="44.36036" lon="4.4745">
        <ele>272.5</ele>
        <time>2022-06-11T11:02:08Z</time>
      </trkpt>
      <trkpt lat="44.36035" lon="4.47448">
        <ele>272.6</ele>
        <time>2022-06-11T11:02:09Z</time>
      </trkpt>
      <trkpt lat="44.36034" lon="4.47446">
        <ele>272.7</ele>
        <time>2022-06-11T11:02:10Z</time>
      </trkpt>
      <trkpt lat="44.36033" lon="4.47445">
        <ele>272.8</ele>
        <time>2022-06-11T11:02:11Z</time>
      </trkpt>
      <trkpt lat="44.36031" lon="4.4744">
        <ele>273</ele>
        <time>2022-06-11T11:02:12Z</time>
      </trkpt>
      <trkpt lat="44.3603" lon="4.47437">
        <ele>273</ele>
        <time>2022-06-11T11:02:13Z</time>
      </trkpt>
      <trkpt lat="44.36029" lon="4.47435">
        <ele>273.1</ele>
        <time>2022-06-11T11:02:15Z</time>
      </trkpt>
      <trkpt lat="44.36026" lon="4.47432">
        <ele>273.2</ele>
        <time>2022-06-11T11:02:16Z</time>
      </trkpt>
      <trkpt lat="44.36026" lon="4.47431">
        <ele>273.2</ele>
        <time>2022-06-11T11:02:17Z</time>
      </trkpt>
      <trkpt lat="44.36023" lon="4.47428">
        <ele>273.3</ele>
        <time>2022-06-11T11:02:18Z</time>
      </trkpt>
      <trkpt lat="44.36022" lon="4.47427">
        <ele>273.3</ele>
        <time>2022-06-11T11:02:19Z</time>
      </trkpt>
      <trkpt lat="44.36019" lon="4.47424">
        <ele>273.3</ele>
        <time>2022-06-11T11:02:20Z</time>
      </trkpt>
      <trkpt lat="44.36018" lon="4.47423">
        <ele>273.3</ele>
        <time>2022-06-11T11:02:21Z</time>
      </trkpt>
      <trkpt lat="44.36015" lon="4.47421">
        <ele>273.3</ele>
        <time>2022-06-11T11:02:22Z</time>
      </trkpt>
      <trkpt lat="44.36013" lon="4.47419">
        <ele>273.3</ele>
        <time>2022-06-11T11:02:23Z</time>
      </trkpt>
      <trkpt lat="44.3601" lon="4.47417">
        <ele>273.3</ele>
        <time>2022-06-11T11:02:24Z</time>
      </trkpt>
      <trkpt lat="44.36007" lon="4.47415">
        <ele>273.3</ele>
        <time>2022-06-11T11:02:25Z</time>
      </trkpt>
      <trkpt lat="44.36001" lon="4.47411">
        <ele>273.3</ele>
        <time>2022-06-11T11:02:26Z</time>
      </trkpt>
      <trkpt lat="44.35996" lon="4.47409">
        <ele>273.2</ele>
        <time>2022-06-11T11:02:28Z</time>
      </trkpt>
      <trkpt lat="44.3599" lon="4.47405">
        <ele>273.2</ele>
        <time>2022-06-11T11:02:29Z</time>
      </trkpt>
      <trkpt lat="44.35986" lon="4.47402">
        <ele>273.1</ele>
        <time>2022-06-11T11:02:31Z</time>
      </trkpt>
      <trkpt lat="44.35981" lon="4.47399">
        <ele>273.1</ele>
        <time>2022-06-11T11:02:32Z</time>
      </trkpt>
      <trkpt lat="44.35977" lon="4.47398">
        <ele>273</ele>
        <time>2022-06-11T11:02:33Z</time>
      </trkpt>
      <trkpt lat="44.35971" lon="4.47395">
        <ele>273</ele>
        <time>2022-06-11T11:02:34Z</time>
      </trkpt>
      <trkpt lat="44.35968" lon="4.47393">
        <ele>273.1</ele>
        <time>2022-06-11T11:02:36Z</time>
      </trkpt>
      <trkpt lat="44.35963" lon="4.47387">
        <ele>273.1</ele>
        <time>2022-06-11T11:02:37Z</time>
      </trkpt>
      <trkpt lat="44.3596" lon="4.47383">
        <ele>273.1</ele>
        <time>2022-06-11T11:02:38Z</time>
      </trkpt>
      <trkpt lat="44.35957" lon="4.47377">
        <ele>273.1</ele>
        <time>2022-06-11T11:02:39Z</time>
      </trkpt>
      <trkpt lat="44.35955" lon="4.47373">
        <ele>273.1</ele>
        <time>2022-06-11T11:02:40Z</time>
      </trkpt>
      <trkpt lat="44.35952" lon="4.47368">
        <ele>273.1</ele>
        <time>2022-06-11T11:02:42Z</time>
      </trkpt>
      <trkpt lat="44.35951" lon="4.47363">
        <ele>273</ele>
        <time>2022-06-11T11:02:43Z</time>
      </trkpt>
      <trkpt lat="44.35949" lon="4.47358">
        <ele>272.9</ele>
        <time>2022-06-11T11:02:44Z</time>
      </trkpt>
      <trkpt lat="44.35947" lon="4.47353">
        <ele>272.9</ele>
        <time>2022-06-11T11:02:45Z</time>
      </trkpt>
      <trkpt lat="44.35945" lon="4.47348">
        <ele>272.8</ele>
        <time>2022-06-11T11:02:46Z</time>
      </trkpt>
      <trkpt lat="44.35942" lon="4.47341">
        <ele>272.6</ele>
        <time>2022-06-11T11:02:47Z</time>
      </trkpt>
      <trkpt lat="44.35936" lon="4.47332">
        <ele>272.3</ele>
        <time>2022-06-11T11:02:49Z</time>
      </trkpt>
      <trkpt lat="44.35932" lon="4.47328">
        <ele>272.2</ele>
        <time>2022-06-11T11:02:50Z</time>
      </trkpt>
      <trkpt lat="44.35927" lon="4.47324">
        <ele>271.9</ele>
        <time>2022-06-11T11:02:51Z</time>
      </trkpt>
      <trkpt lat="44.35922" lon="4.4732">
        <ele>271.7</ele>
        <time>2022-06-11T11:02:52Z</time>
      </trkpt>
      <trkpt lat="44.35917" lon="4.47316">
        <ele>271.4</ele>
        <time>2022-06-11T11:02:53Z</time>
      </trkpt>
      <trkpt lat="44.35912" lon="4.47311">
        <ele>271.1</ele>
        <time>2022-06-11T11:02:54Z</time>
      </trkpt>
      <trkpt lat="44.35906" lon="4.47307">
        <ele>270.8</ele>
        <time>2022-06-11T11:02:55Z</time>
      </trkpt>
      <trkpt lat="44.35901" lon="4.47302">
        <ele>270.5</ele>
        <time>2022-06-11T11:02:56Z</time>
      </trkpt>
      <trkpt lat="44.35895" lon="4.47297">
        <ele>270.1</ele>
        <time>2022-06-11T11:02:57Z</time>
      </trkpt>
      <trkpt lat="44.35889" lon="4.47292">
        <ele>269.7</ele>
        <time>2022-06-11T11:02:58Z</time>
      </trkpt>
      <trkpt lat="44.35884" lon="4.47285">
        <ele>269.2</ele>
        <time>2022-06-11T11:02:59Z</time>
      </trkpt>
      <trkpt lat="44.35879" lon="4.47277">
        <ele>268.7</ele>
        <time>2022-06-11T11:03:00Z</time>
      </trkpt>
      <trkpt lat="44.35874" lon="4.47268">
        <ele>268.3</ele>
        <time>2022-06-11T11:03:01Z</time>
      </trkpt>
      <trkpt lat="44.35869" lon="4.47259">
        <ele>267.8</ele>
        <time>2022-06-11T11:03:02Z</time>
      </trkpt>
      <trkpt lat="44.35865" lon="4.47249">
        <ele>267.3</ele>
        <time>2022-06-11T11:03:03Z</time>
      </trkpt>
      <trkpt lat="44.3586" lon="4.47239">
        <ele>266.8</ele>
        <time>2022-06-11T11:03:04Z</time>
      </trkpt>
      <trkpt lat="44.35854" lon="4.4723">
        <ele>266.3</ele>
        <time>2022-06-11T11:03:05Z</time>
      </trkpt>
      <trkpt lat="44.35848" lon="4.47222">
        <ele>265.8</ele>
        <time>2022-06-11T11:03:06Z</time>
      </trkpt>
      <trkpt lat="44.35841" lon="4.47213">
        <ele>265.3</ele>
        <time>2022-06-11T11:03:07Z</time>
      </trkpt>
      <trkpt lat="44.35835" lon="4.47204">
        <ele>264.8</ele>
        <time>2022-06-11T11:03:08Z</time>
      </trkpt>
      <trkpt lat="44.35829" lon="4.47195">
        <ele>264.3</ele>
        <time>2022-06-11T11:03:09Z</time>
      </trkpt>
      <trkpt lat="44.35824" lon="4.47188">
        <ele>264</ele>
        <time>2022-06-11T11:03:10Z</time>
      </trkpt>
      <trkpt lat="44.3582" lon="4.47182">
        <ele>263.7</ele>
        <time>2022-06-11T11:03:11Z</time>
      </trkpt>
      <trkpt lat="44.35817" lon="4.47177">
        <ele>263.5</ele>
        <time>2022-06-11T11:03:12Z</time>
      </trkpt>
      <trkpt lat="44.35815" lon="4.47173">
        <ele>263.4</ele>
        <time>2022-06-11T11:03:13Z</time>
      </trkpt>
      <trkpt lat="44.35813" lon="4.47169">
        <ele>263.3</ele>
        <time>2022-06-11T11:03:14Z</time>
      </trkpt>
      <trkpt lat="44.35813" lon="4.47168">
        <ele>263.3</ele>
        <time>2022-06-11T11:03:15Z</time>
      </trkpt>
      <trkpt lat="44.35811" lon="4.47164">
        <ele>263.2</ele>
        <time>2022-06-11T11:03:16Z</time>
      </trkpt>
      <trkpt lat="44.35811" lon="4.47163">
        <ele>263.2</ele>
        <time>2022-06-11T11:03:17Z</time>
      </trkpt>
      <trkpt lat="44.35811" lon="4.47162">
        <ele>263.1</ele>
        <time>2022-06-11T11:03:18Z</time>
      </trkpt>
      <trkpt lat="44.3581" lon="4.47161">
        <ele>263.1</ele>
        <time>2022-06-11T11:03:19Z</time>
      </trkpt>
      <trkpt lat="44.3581" lon="4.47161">
        <ele>263.1</ele>
        <time>2022-06-11T11:03:20Z</time>
      </trkpt>
      <trkpt lat="44.3581" lon="4.47161">
        <ele>263.1</ele>
        <time>2022-06-11T11:03:21Z</time>
      </trkpt>
      <trkpt lat="44.3581" lon="4.47161">
        <ele>263.1</ele>
        <time>2022-06-11T11:03:22Z</time>
      </trkpt>
      <trkpt lat="44.3581" lon="4.47161">
        <ele>263.1</ele>
        <time>2022-06-11T11:03:23Z</time>
      </trkpt>
      <trkpt lat="44.35807" lon="4.47161">
        <ele>263</ele>
        <time>2022-06-11T11:03:24Z</time>
      </trkpt>
      <trkpt lat="44.35806" lon="4.47161">
        <ele>263</ele>
        <time>2022-06-11T11:03:26Z</time>
      </trkpt>
      <trkpt lat="44.35805" lon="4.47159">
        <ele>263</ele>
        <time>2022-06-11T11:03:27Z</time>
      </trkpt>
      <trkpt lat="44.35804" lon="4.47155">
        <ele>262.9</ele>
        <time>2022-06-11T11:03:28Z</time>
      </trkpt>
      <trkpt lat="44.35803" lon="4.47153">
        <ele>262.8</ele>
        <time>2022-06-11T11:03:29Z</time>
      </trkpt>
      <trkpt lat="44.35802" lon="4.47149">
        <ele>262.7</ele>
        <time>2022-06-11T11:03:30Z</time>
      </trkpt>
      <trkpt lat="44.358" lon="4.47144">
        <ele>262.7</ele>
        <time>2022-06-11T11:03:31Z</time>
      </trkpt>
      <trkpt lat="44.35798" lon="4.47139">
        <ele>262.6</ele>
        <time>2022-06-11T11:03:32Z</time>
      </trkpt>
      <trkpt lat="44.35796" lon="4.47134">
        <ele>262.5</ele>
        <time>2022-06-11T11:03:33Z</time>
      </trkpt>
      <trkpt lat="44.35794" lon="4.47129">
        <ele>262.4</ele>
        <time>2022-06-11T11:03:34Z</time>
      </trkpt>
      <trkpt lat="44.35792" lon="4.47125">
        <ele>262.3</ele>
        <time>2022-06-11T11:03:35Z</time>
      </trkpt>
      <trkpt lat="44.3579" lon="4.47118">
        <ele>262.1</ele>
        <time>2022-06-11T11:03:37Z</time>
      </trkpt>
      <trkpt lat="44.35786" lon="4.47107">
        <ele>261.9</ele>
        <time>2022-06-11T11:03:38Z</time>
      </trkpt>
      <trkpt lat="44.35783" lon="4.47098">
        <ele>261.8</ele>
        <time>2022-06-11T11:03:40Z</time>
      </trkpt>
      <trkpt lat="44.3578" lon="4.47092">
        <ele>261.7</ele>
        <time>2022-06-11T11:03:41Z</time>
      </trkpt>
      <trkpt lat="44.35778" lon="4.47084">
        <ele>261.6</ele>
        <time>2022-06-11T11:03:42Z</time>
      </trkpt>
      <trkpt lat="44.35775" lon="4.47078">
        <ele>261.6</ele>
        <time>2022-06-11T11:03:44Z</time>
      </trkpt>
      <trkpt lat="44.35773" lon="4.47073">
        <ele>261.5</ele>
        <time>2022-06-11T11:03:45Z</time>
      </trkpt>
      <trkpt lat="44.3577" lon="4.47069">
        <ele>261.5</ele>
        <time>2022-06-11T11:03:46Z</time>
      </trkpt>
      <trkpt lat="44.35768" lon="4.47064">
        <ele>261.4</ele>
        <time>2022-06-11T11:03:47Z</time>
      </trkpt>
      <trkpt lat="44.35767" lon="4.47061">
        <ele>261.4</ele>
        <time>2022-06-11T11:03:48Z</time>
      </trkpt>
      <trkpt lat="44.35766" lon="4.4706">
        <ele>261.4</ele>
        <time>2022-06-11T11:03:49Z</time>
      </trkpt>
      <trkpt lat="44.35766" lon="4.47059">
        <ele>261.4</ele>
        <time>2022-06-11T11:03:50Z</time>
      </trkpt>
      <trkpt lat="44.35766" lon="4.4706">
        <ele>261.4</ele>
        <time>2022-06-11T11:03:51Z</time>
      </trkpt>
      <trkpt lat="44.35766" lon="4.47059">
        <ele>261.4</ele>
        <time>2022-06-11T11:03:52Z</time>
      </trkpt>
      <trkpt lat="44.35766" lon="4.47059">
        <ele>261.4</ele>
        <time>2022-06-11T11:03:53Z</time>
      </trkpt>
      <trkpt lat="44.35766" lon="4.4706">
        <ele>261.4</ele>
        <time>2022-06-11T11:03:54Z</time>
      </trkpt>
      <trkpt lat="44.35766" lon="4.4706">
        <ele>261.4</ele>
        <time>2022-06-11T11:03:55Z</time>
      </trkpt>
      <trkpt lat="44.35766" lon="4.4706">
        <ele>261.4</ele>
        <time>2022-06-11T11:03:56Z</time>
      </trkpt>
      <trkpt lat="44.35766" lon="4.47061">
        <ele>261.4</ele>
        <time>2022-06-11T11:03:57Z</time>
      </trkpt>
      <trkpt lat="44.35766" lon="4.47061">
        <ele>261.4</ele>
        <time>2022-06-11T11:03:58Z</time>
      </trkpt>
      <trkpt lat="44.35766" lon="4.47061">
        <ele>261.4</ele>
        <time>2022-06-11T11:03:59Z</time>
      </trkpt>
      <trkpt lat="44.35766" lon="4.47062">
        <ele>261.4</ele>
        <time>2022-06-11T11:04:00Z</time>
      </trkpt>
      <trkpt lat="44.35766" lon="4.47062">
        <ele>261.4</ele>
        <time>2022-06-11T11:04:01Z</time>
      </trkpt>
      <trkpt lat="44.35766" lon="4.47062">
        <ele>261.4</ele>
        <time>2022-06-11T11:04:02Z</time>
      </trkpt>
      <trkpt lat="44.35767" lon="4.47062">
        <ele>261.4</ele>
        <time>2022-06-11T11:04:03Z</time>
      </trkpt>
      <trkpt lat="44.35767" lon="4.47063">
        <ele>261.4</ele>
        <time>2022-06-11T11:04:04Z</time>
      </trkpt>
      <trkpt lat="44.35767" lon="4.47063">
        <ele>261.4</ele>
        <time>2022-06-11T11:04:05Z</time>
      </trkpt>
      <trkpt lat="44.35767" lon="4.47064">
        <ele>261.4</ele>
        <time>2022-06-11T11:04:06Z</time>
      </trkpt>
      <trkpt lat="44.35767" lon="4.47064">
        <ele>261.4</ele>
        <time>2022-06-11T11:04:08Z</time>
      </trkpt>
      <trkpt lat="44.35767" lon="4.47064">
        <ele>261.4</ele>
        <time>2022-06-11T11:04:09Z</time>
      </trkpt>
      <trkpt lat="44.35767" lon="4.47063">
        <ele>261.4</ele>
        <time>2022-06-11T11:04:11Z</time>
      </trkpt>
      <trkpt lat="44.35767" lon="4.47063">
        <ele>261.4</ele>
        <time>2022-06-11T11:04:13Z</time>
      </trkpt>
      <trkpt lat="44.35768" lon="4.47063">
        <ele>261.4</ele>
        <time>2022-06-11T11:04:14Z</time>
      </trkpt>
      <trkpt lat="44.35768" lon="4.47063">
        <ele>261.4</ele>
        <time>2022-06-11T11:04:15Z</time>
      </trkpt>
      <trkpt lat="44.35768" lon="4.47062">
        <ele>261.4</ele>
        <time>2022-06-11T11:04:16Z</time>
      </trkpt>
      <trkpt lat="44.35769" lon="4.47062">
        <ele>261.4</ele>
        <time>2022-06-11T11:04:17Z</time>
      </trkpt>
      <trkpt lat="44.35769" lon="4.47062">
        <ele>261.4</ele>
        <time>2022-06-11T11:04:18Z</time>
      </trkpt>
      <trkpt lat="44.35769" lon="4.47062">
        <ele>261.4</ele>
        <time>2022-06-11T11:04:19Z</time>
      </trkpt>
      <trkpt lat="44.35769" lon="4.47062">
        <ele>261.4</ele>
        <time>2022-06-11T11:04:20Z</time>
      </trkpt>
      <trkpt lat="44.35769" lon="4.47062">
        <ele>261.4</ele>
        <time>2022-06-11T11:04:21Z</time>
      </trkpt>
      <trkpt lat="44.35765" lon="4.47059">
        <ele>261.3</ele>
        <time>2022-06-11T11:05:21Z</time>
      </trkpt>
      <trkpt lat="44.35764" lon="4.47058">
        <ele>261.3</ele>
        <time>2022-06-11T11:05:22Z</time>
      </trkpt>
      <trkpt lat="44.35762" lon="4.47056">
        <ele>261.3</ele>
        <time>2022-06-11T11:05:23Z</time>
      </trkpt>
      <trkpt lat="44.35759" lon="4.47053">
        <ele>261.4</ele>
        <time>2022-06-11T11:05:24Z</time>
      </trkpt>
      <trkpt lat="44.35758" lon="4.47052">
        <ele>261.4</ele>
        <time>2022-06-11T11:05:25Z</time>
      </trkpt>
      <trkpt lat="44.35755" lon="4.47049">
        <ele>261.4</ele>
        <time>2022-06-11T11:05:26Z</time>
      </trkpt>
      <trkpt lat="44.35753" lon="4.47048">
        <ele>261.4</ele>
        <time>2022-06-11T11:05:27Z</time>
      </trkpt>
      <trkpt lat="44.3575" lon="4.47046">
        <ele>261.4</ele>
        <time>2022-06-11T11:05:28Z</time>
      </trkpt>
      <trkpt lat="44.35747" lon="4.47044">
        <ele>261.5</ele>
        <time>2022-06-11T11:05:29Z</time>
      </trkpt>
      <trkpt lat="44.35744" lon="4.47041">
        <ele>261.5</ele>
        <time>2022-06-11T11:05:30Z</time>
      </trkpt>
      <trkpt lat="44.35741" lon="4.47039">
        <ele>261.6</ele>
        <time>2022-06-11T11:05:31Z</time>
      </trkpt>
      <trkpt lat="44.35737" lon="4.47037">
        <ele>261.6</ele>
        <time>2022-06-11T11:05:32Z</time>
      </trkpt>
      <trkpt lat="44.35734" lon="4.47034">
        <ele>261.7</ele>
        <time>2022-06-11T11:05:33Z</time>
      </trkpt>
      <trkpt lat="44.35731" lon="4.47031">
        <ele>261.8</ele>
        <time>2022-06-11T11:05:34Z</time>
      </trkpt>
      <trkpt lat="44.35727" lon="4.47028">
        <ele>261.9</ele>
        <time>2022-06-11T11:05:35Z</time>
      </trkpt>
      <trkpt lat="44.35724" lon="4.47026">
        <ele>262</ele>
        <time>2022-06-11T11:05:36Z</time>
      </trkpt>
      <trkpt lat="44.3572" lon="4.47023">
        <ele>262.1</ele>
        <time>2022-06-11T11:05:37Z</time>
      </trkpt>
      <trkpt lat="44.35717" lon="4.47021">
        <ele>262.2</ele>
        <time>2022-06-11T11:05:38Z</time>
      </trkpt>
      <trkpt lat="44.35713" lon="4.47019">
        <ele>262.3</ele>
        <time>2022-06-11T11:05:39Z</time>
      </trkpt>
      <trkpt lat="44.3571" lon="4.47015">
        <ele>262.4</ele>
        <time>2022-06-11T11:05:40Z</time>
      </trkpt>
      <trkpt lat="44.35707" lon="4.47012">
        <ele>262.5</ele>
        <time>2022-06-11T11:05:41Z</time>
      </trkpt>
      <trkpt lat="44.35705" lon="4.4701">
        <ele>262.6</ele>
        <time>2022-06-11T11:05:42Z</time>
      </trkpt>
      <trkpt lat="44.35701" lon="4.47007">
        <ele>262.8</ele>
        <time>2022-06-11T11:05:43Z</time>
      </trkpt>
      <trkpt lat="44.35697" lon="4.47005">
        <ele>262.9</ele>
        <time>2022-06-11T11:05:44Z</time>
      </trkpt>
      <trkpt lat="44.35693" lon="4.47005">
        <ele>263</ele>
        <time>2022-06-11T11:05:45Z</time>
      </trkpt>
      <trkpt lat="44.35691" lon="4.47005">
        <ele>263.1</ele>
        <time>2022-06-11T11:05:46Z</time>
      </trkpt>
      <trkpt lat="44.35687" lon="4.47006">
        <ele>263.2</ele>
        <time>2022-06-11T11:05:47Z</time>
      </trkpt>
      <trkpt lat="44.35684" lon="4.47006">
        <ele>263.3</ele>
        <time>2022-06-11T11:05:48Z</time>
      </trkpt>
      <trkpt lat="44.3568" lon="4.47006">
        <ele>263.4</ele>
        <time>2022-06-11T11:05:49Z</time>
      </trkpt>
      <trkpt lat="44.35676" lon="4.47006">
        <ele>263.6</ele>
        <time>2022-06-11T11:05:50Z</time>
      </trkpt>
      <trkpt lat="44.35673" lon="4.47007">
        <ele>263.7</ele>
        <time>2022-06-11T11:05:51Z</time>
      </trkpt>
      <trkpt lat="44.35669" lon="4.47008">
        <ele>263.9</ele>
        <time>2022-06-11T11:05:52Z</time>
      </trkpt>
      <trkpt lat="44.35667" lon="4.47008">
        <ele>264</ele>
        <time>2022-06-11T11:05:53Z</time>
      </trkpt>
      <trkpt lat="44.35664" lon="4.47009">
        <ele>264.1</ele>
        <time>2022-06-11T11:05:54Z</time>
      </trkpt>
      <trkpt lat="44.3566" lon="4.4701">
        <ele>264.3</ele>
        <time>2022-06-11T11:05:55Z</time>
      </trkpt>
      <trkpt lat="44.35656" lon="4.4701">
        <ele>264.5</ele>
        <time>2022-06-11T11:05:56Z</time>
      </trkpt>
      <trkpt lat="44.35653" lon="4.47011">
        <ele>264.7</ele>
        <time>2022-06-11T11:05:57Z</time>
      </trkpt>
      <trkpt lat="44.35649" lon="4.47012">
        <ele>264.9</ele>
        <time>2022-06-11T11:05:58Z</time>
      </trkpt>
      <trkpt lat="44.35647" lon="4.47012">
        <ele>265</ele>
        <time>2022-06-11T11:05:59Z</time>
      </trkpt>
      <trkpt lat="44.35644" lon="4.47013">
        <ele>265.2</ele>
        <time>2022-06-11T11:06:00Z</time>
      </trkpt>
      <trkpt lat="44.35641" lon="4.47013">
        <ele>265.4</ele>
        <time>2022-06-11T11:06:01Z</time>
      </trkpt>
      <trkpt lat="44.35638" lon="4.47012">
        <ele>265.5</ele>
        <time>2022-06-11T11:06:02Z</time>
      </trkpt>
      <trkpt lat="44.35637" lon="4.47012">
        <ele>265.6</ele>
        <time>2022-06-11T11:06:03Z</time>
      </trkpt>
      <trkpt lat="44.35633" lon="4.47011">
        <ele>265.8</ele>
        <time>2022-06-11T11:06:04Z</time>
      </trkpt>
      <trkpt lat="44.35632" lon="4.4701">
        <ele>265.9</ele>
        <time>2022-06-11T11:06:05Z</time>
      </trkpt>
      <trkpt lat="44.3563" lon="4.47009">
        <ele>266</ele>
        <time>2022-06-11T11:06:06Z</time>
      </trkpt>
      <trkpt lat="44.35627" lon="4.47007">
        <ele>266.2</ele>
        <time>2022-06-11T11:06:07Z</time>
      </trkpt>
      <trkpt lat="44.35625" lon="4.47006">
        <ele>266.3</ele>
        <time>2022-06-11T11:06:08Z</time>
      </trkpt>
      <trkpt lat="44.35623" lon="4.47003">
        <ele>266.5</ele>
        <time>2022-06-11T11:06:09Z</time>
      </trkpt>
      <trkpt lat="44.35622" lon="4.47002">
        <ele>266.5</ele>
        <time>2022-06-11T11:06:10Z</time>
      </trkpt>
      <trkpt lat="44.3562" lon="4.46999">
        <ele>266.7</ele>
        <time>2022-06-11T11:06:11Z</time>
      </trkpt>
      <trkpt lat="44.3562" lon="4.46998">
        <ele>266.7</ele>
        <time>2022-06-11T11:06:12Z</time>
      </trkpt>
      <trkpt lat="44.35618" lon="4.46995">
        <ele>266.9</ele>
        <time>2022-06-11T11:06:13Z</time>
      </trkpt>
      <trkpt lat="44.35617" lon="4.46993">
        <ele>266.9</ele>
        <time>2022-06-11T11:06:14Z</time>
      </trkpt>
      <trkpt lat="44.35615" lon="4.4699">
        <ele>267.1</ele>
        <time>2022-06-11T11:06:15Z</time>
      </trkpt>
      <trkpt lat="44.35615" lon="4.46989">
        <ele>267.1</ele>
        <time>2022-06-11T11:06:16Z</time>
      </trkpt>
      <trkpt lat="44.35612" lon="4.46986">
        <ele>267.3</ele>
        <time>2022-06-11T11:06:17Z</time>
      </trkpt>
      <trkpt lat="44.35611" lon="4.46985">
        <ele>267.3</ele>
        <time>2022-06-11T11:06:18Z</time>
      </trkpt>
      <trkpt lat="44.35609" lon="4.46982">
        <ele>267.5</ele>
        <time>2022-06-11T11:06:19Z</time>
      </trkpt>
      <trkpt lat="44.35607" lon="4.46981">
        <ele>267.6</ele>
        <time>2022-06-11T11:06:20Z</time>
      </trkpt>
      <trkpt lat="44.35604" lon="4.46977">
        <ele>267.8</ele>
        <time>2022-06-11T11:06:22Z</time>
      </trkpt>
      <trkpt lat="44.35603" lon="4.46975">
        <ele>267.8</ele>
        <time>2022-06-11T11:06:23Z</time>
      </trkpt>
      <trkpt lat="44.35602" lon="4.46974">
        <ele>267.9</ele>
        <time>2022-06-11T11:06:24Z</time>
      </trkpt>
      <trkpt lat="44.35599" lon="4.4697">
        <ele>268.1</ele>
        <time>2022-06-11T11:06:25Z</time>
      </trkpt>
      <trkpt lat="44.35596" lon="4.46967">
        <ele>268.3</ele>
        <time>2022-06-11T11:06:27Z</time>
      </trkpt>
      <trkpt lat="44.35595" lon="4.46966">
        <ele>268.3</ele>
        <time>2022-06-11T11:06:28Z</time>
      </trkpt>
      <trkpt lat="44.35592" lon="4.46963">
        <ele>268.5</ele>
        <time>2022-06-11T11:06:29Z</time>
      </trkpt>
      <trkpt lat="44.35591" lon="4.46962">
        <ele>268.5</ele>
        <time>2022-06-11T11:06:30Z</time>
      </trkpt>
      <trkpt lat="44.35587" lon="4.46958">
        <ele>268.8</ele>
        <time>2022-06-11T11:06:32Z</time>
      </trkpt>
      <trkpt lat="44.35587" lon="4.46956">
        <ele>268.9</ele>
        <time>2022-06-11T11:06:33Z</time>
      </trkpt>
      <trkpt lat="44.35586" lon="4.46955">
        <ele>268.9</ele>
        <time>2022-06-11T11:06:34Z</time>
      </trkpt>
      <trkpt lat="44.35583" lon="4.46952">
        <ele>269.1</ele>
        <time>2022-06-11T11:06:35Z</time>
      </trkpt>
      <trkpt lat="44.35582" lon="4.46951">
        <ele>269.1</ele>
        <time>2022-06-11T11:06:36Z</time>
      </trkpt>
      <trkpt lat="44.3558" lon="4.46948">
        <ele>269.3</ele>
        <time>2022-06-11T11:06:37Z</time>
      </trkpt>
      <trkpt lat="44.35579" lon="4.46947">
        <ele>269.4</ele>
        <time>2022-06-11T11:06:38Z</time>
      </trkpt>
      <trkpt lat="44.35576" lon="4.46944">
        <ele>269.5</ele>
        <time>2022-06-11T11:06:39Z</time>
      </trkpt>
      <trkpt lat="44.35576" lon="4.46943">
        <ele>269.6</ele>
        <time>2022-06-11T11:06:40Z</time>
      </trkpt>
      <trkpt lat="44.35573" lon="4.4694">
        <ele>269.7</ele>
        <time>2022-06-11T11:06:41Z</time>
      </trkpt>
      <trkpt lat="44.35572" lon="4.46938">
        <ele>269.8</ele>
        <time>2022-06-11T11:06:42Z</time>
      </trkpt>
      <trkpt lat="44.3557" lon="4.46935">
        <ele>270</ele>
        <time>2022-06-11T11:06:43Z</time>
      </trkpt>
      <trkpt lat="44.35569" lon="4.46934">
        <ele>270.1</ele>
        <time>2022-06-11T11:06:44Z</time>
      </trkpt>
      <trkpt lat="44.35566" lon="4.46933">
        <ele>270.2</ele>
        <time>2022-06-11T11:06:45Z</time>
      </trkpt>
      <trkpt lat="44.35565" lon="4.46932">
        <ele>270.3</ele>
        <time>2022-06-11T11:06:46Z</time>
      </trkpt>
      <trkpt lat="44.35562" lon="4.46929">
        <ele>270.4</ele>
        <time>2022-06-11T11:06:47Z</time>
      </trkpt>
      <trkpt lat="44.35562" lon="4.46928">
        <ele>270.5</ele>
        <time>2022-06-11T11:06:48Z</time>
      </trkpt>
      <trkpt lat="44.3556" lon="4.46924">
        <ele>270.6</ele>
        <time>2022-06-11T11:06:49Z</time>
      </trkpt>
      <trkpt lat="44.35559" lon="4.46923">
        <ele>270.6</ele>
        <time>2022-06-11T11:06:50Z</time>
      </trkpt>
      <trkpt lat="44.35557" lon="4.4692">
        <ele>270.8</ele>
        <time>2022-06-11T11:06:51Z</time>
      </trkpt>
      <trkpt lat="44.35556" lon="4.46919">
        <ele>270.8</ele>
        <time>2022-06-11T11:06:52Z</time>
      </trkpt>
      <trkpt lat="44.35554" lon="4.46915">
        <ele>271</ele>
        <time>2022-06-11T11:06:53Z</time>
      </trkpt>
      <trkpt lat="44.35553" lon="4.46914">
        <ele>271</ele>
        <time>2022-06-11T11:06:54Z</time>
      </trkpt>
      <trkpt lat="44.35551" lon="4.46911">
        <ele>271.1</ele>
        <time>2022-06-11T11:06:55Z</time>
      </trkpt>
      <trkpt lat="44.35551" lon="4.4691">
        <ele>271.2</ele>
        <time>2022-06-11T11:06:56Z</time>
      </trkpt>
      <trkpt lat="44.35548" lon="4.46908">
        <ele>271.3</ele>
        <time>2022-06-11T11:06:57Z</time>
      </trkpt>
      <trkpt lat="44.35547" lon="4.46907">
        <ele>271.4</ele>
        <time>2022-06-11T11:06:58Z</time>
      </trkpt>
      <trkpt lat="44.35544" lon="4.46904">
        <ele>271.5</ele>
        <time>2022-06-11T11:06:59Z</time>
      </trkpt>
      <trkpt lat="44.35544" lon="4.46903">
        <ele>271.6</ele>
        <time>2022-06-11T11:07:00Z</time>
      </trkpt>
      <trkpt lat="44.35542" lon="4.46899">
        <ele>271.7</ele>
        <time>2022-06-11T11:07:01Z</time>
      </trkpt>
      <trkpt lat="44.35541" lon="4.46898">
        <ele>271.8</ele>
        <time>2022-06-11T11:07:02Z</time>
      </trkpt>
      <trkpt lat="44.35539" lon="4.46895">
        <ele>272</ele>
        <time>2022-06-11T11:07:03Z</time>
      </trkpt>
      <trkpt lat="44.35538" lon="4.46894">
        <ele>272</ele>
        <time>2022-06-11T11:07:04Z</time>
      </trkpt>
      <trkpt lat="44.35535" lon="4.46891">
        <ele>272.2</ele>
        <time>2022-06-11T11:07:05Z</time>
      </trkpt>
      <trkpt lat="44.35534" lon="4.4689">
        <ele>272.3</ele>
        <time>2022-06-11T11:07:06Z</time>
      </trkpt>
      <trkpt lat="44.35533" lon="4.46887">
        <ele>272.5</ele>
        <time>2022-06-11T11:07:07Z</time>
      </trkpt>
      <trkpt lat="44.35532" lon="4.46886">
        <ele>272.6</ele>
        <time>2022-06-11T11:07:08Z</time>
      </trkpt>
      <trkpt lat="44.3553" lon="4.46884">
        <ele>272.7</ele>
        <time>2022-06-11T11:07:09Z</time>
      </trkpt>
      <trkpt lat="44.35528" lon="4.46881">
        <ele>272.9</ele>
        <time>2022-06-11T11:07:11Z</time>
      </trkpt>
      <trkpt lat="44.35525" lon="4.46877">
        <ele>273.2</ele>
        <time>2022-06-11T11:07:12Z</time>
      </trkpt>
      <trkpt lat="44.35523" lon="4.46873">
        <ele>273.4</ele>
        <time>2022-06-11T11:07:14Z</time>
      </trkpt>
      <trkpt lat="44.35522" lon="4.46872">
        <ele>273.5</ele>
        <time>2022-06-11T11:07:15Z</time>
      </trkpt>
      <trkpt lat="44.3552" lon="4.46869">
        <ele>273.6</ele>
        <time>2022-06-11T11:07:16Z</time>
      </trkpt>
      <trkpt lat="44.35519" lon="4.46868">
        <ele>273.7</ele>
        <time>2022-06-11T11:07:17Z</time>
      </trkpt>
      <trkpt lat="44.35517" lon="4.46865">
        <ele>273.9</ele>
        <time>2022-06-11T11:07:18Z</time>
      </trkpt>
      <trkpt lat="44.35517" lon="4.46864">
        <ele>274</ele>
        <time>2022-06-11T11:07:19Z</time>
      </trkpt>
      <trkpt lat="44.35515" lon="4.46861">
        <ele>274.2</ele>
        <time>2022-06-11T11:07:20Z</time>
      </trkpt>
      <trkpt lat="44.35514" lon="4.4686">
        <ele>274.2</ele>
        <time>2022-06-11T11:07:21Z</time>
      </trkpt>
      <trkpt lat="44.35512" lon="4.46856">
        <ele>274.5</ele>
        <time>2022-06-11T11:07:22Z</time>
      </trkpt>
      <trkpt lat="44.35511" lon="4.46853">
        <ele>274.6</ele>
        <time>2022-06-11T11:07:23Z</time>
      </trkpt>
      <trkpt lat="44.35509" lon="4.4685">
        <ele>274.8</ele>
        <time>2022-06-11T11:07:25Z</time>
      </trkpt>
      <trkpt lat="44.35509" lon="4.46849">
        <ele>274.8</ele>
        <time>2022-06-11T11:07:26Z</time>
      </trkpt>
      <trkpt lat="44.35506" lon="4.46845">
        <ele>275.1</ele>
        <time>2022-06-11T11:07:27Z</time>
      </trkpt>
      <trkpt lat="44.35505" lon="4.46842">
        <ele>275.3</ele>
        <time>2022-06-11T11:07:29Z</time>
      </trkpt>
      <trkpt lat="44.35504" lon="4.46841">
        <ele>275.4</ele>
        <time>2022-06-11T11:07:30Z</time>
      </trkpt>
      <trkpt lat="44.35502" lon="4.46838">
        <ele>275.6</ele>
        <time>2022-06-11T11:07:31Z</time>
      </trkpt>
      <trkpt lat="44.35502" lon="4.46837">
        <ele>275.6</ele>
        <time>2022-06-11T11:07:32Z</time>
      </trkpt>
      <trkpt lat="44.35501" lon="4.46833">
        <ele>275.9</ele>
        <time>2022-06-11T11:07:33Z</time>
      </trkpt>
      <trkpt lat="44.355" lon="4.46832">
        <ele>275.9</ele>
        <time>2022-06-11T11:07:34Z</time>
      </trkpt>
      <trkpt lat="44.35499" lon="4.46829">
        <ele>276.2</ele>
        <time>2022-06-11T11:07:35Z</time>
      </trkpt>
      <trkpt lat="44.35498" lon="4.46828">
        <ele>276.2</ele>
        <time>2022-06-11T11:07:36Z</time>
      </trkpt>
      <trkpt lat="44.35497" lon="4.46826">
        <ele>276.4</ele>
        <time>2022-06-11T11:07:37Z</time>
      </trkpt>
      <trkpt lat="44.35496" lon="4.46824">
        <ele>276.5</ele>
        <time>2022-06-11T11:07:38Z</time>
      </trkpt>
      <trkpt lat="44.35495" lon="4.46823">
        <ele>276.6</ele>
        <time>2022-06-11T11:07:39Z</time>
      </trkpt>
      <trkpt lat="44.35494" lon="4.46821">
        <ele>276.8</ele>
        <time>2022-06-11T11:07:40Z</time>
      </trkpt>
      <trkpt lat="44.35493" lon="4.46819">
        <ele>276.9</ele>
        <time>2022-06-11T11:07:41Z</time>
      </trkpt>
      <trkpt lat="44.35492" lon="4.46816">
        <ele>277</ele>
        <time>2022-06-11T11:07:42Z</time>
      </trkpt>
      <trkpt lat="44.35491" lon="4.46814">
        <ele>277.2</ele>
        <time>2022-06-11T11:07:43Z</time>
      </trkpt>
      <trkpt lat="44.3549" lon="4.46812">
        <ele>277.3</ele>
        <time>2022-06-11T11:07:44Z</time>
      </trkpt>
      <trkpt lat="44.35489" lon="4.46811">
        <ele>277.5</ele>
        <time>2022-06-11T11:07:45Z</time>
      </trkpt>
      <trkpt lat="44.35488" lon="4.46809">
        <ele>277.6</ele>
        <time>2022-06-11T11:07:46Z</time>
      </trkpt>
      <trkpt lat="44.35486" lon="4.46805">
        <ele>277.9</ele>
        <time>2022-06-11T11:07:48Z</time>
      </trkpt>
      <trkpt lat="44.35485" lon="4.46803">
        <ele>278</ele>
        <time>2022-06-11T11:07:49Z</time>
      </trkpt>
      <trkpt lat="44.35484" lon="4.46801">
        <ele>278.2</ele>
        <time>2022-06-11T11:07:50Z</time>
      </trkpt>
      <trkpt lat="44.35484" lon="4.46799">
        <ele>278.3</ele>
        <time>2022-06-11T11:07:51Z</time>
      </trkpt>
      <trkpt lat="44.35482" lon="4.46798">
        <ele>278.4</ele>
        <time>2022-06-11T11:07:52Z</time>
      </trkpt>
      <trkpt lat="44.35482" lon="4.46796">
        <ele>278.6</ele>
        <time>2022-06-11T11:07:53Z</time>
      </trkpt>
      <trkpt lat="44.35481" lon="4.46794">
        <ele>278.7</ele>
        <time>2022-06-11T11:07:54Z</time>
      </trkpt>
      <trkpt lat="44.35479" lon="4.46791">
        <ele>278.9</ele>
        <time>2022-06-11T11:07:55Z</time>
      </trkpt>
      <trkpt lat="44.35478" lon="4.4679">
        <ele>279</ele>
        <time>2022-06-11T11:07:56Z</time>
      </trkpt>
      <trkpt lat="44.35476" lon="4.46787">
        <ele>279.2</ele>
        <time>2022-06-11T11:07:57Z</time>
      </trkpt>
      <trkpt lat="44.35475" lon="4.46783">
        <ele>279.5</ele>
        <time>2022-06-11T11:07:59Z</time>
      </trkpt>
      <trkpt lat="44.35475" lon="4.46782">
        <ele>279.5</ele>
        <time>2022-06-11T11:08:00Z</time>
      </trkpt>
      <trkpt lat="44.35474" lon="4.46779">
        <ele>279.8</ele>
        <time>2022-06-11T11:08:01Z</time>
      </trkpt>
      <trkpt lat="44.35473" lon="4.46777">
        <ele>279.9</ele>
        <time>2022-06-11T11:08:02Z</time>
      </trkpt>
      <trkpt lat="44.35471" lon="4.46773">
        <ele>280.2</ele>
        <time>2022-06-11T11:08:04Z</time>
      </trkpt>
      <trkpt lat="44.3547" lon="4.46771">
        <ele>280.3</ele>
        <time>2022-06-11T11:08:05Z</time>
      </trkpt>
      <trkpt lat="44.35468" lon="4.46768">
        <ele>280.5</ele>
        <time>2022-06-11T11:08:07Z</time>
      </trkpt>
      <trkpt lat="44.35468" lon="4.46767">
        <ele>280.6</ele>
        <time>2022-06-11T11:08:08Z</time>
      </trkpt>
      <trkpt lat="44.35467" lon="4.46764">
        <ele>280.8</ele>
        <time>2022-06-11T11:08:09Z</time>
      </trkpt>
      <trkpt lat="44.35466" lon="4.46763">
        <ele>280.9</ele>
        <time>2022-06-11T11:08:10Z</time>
      </trkpt>
      <trkpt lat="44.35465" lon="4.4676">
        <ele>281</ele>
        <time>2022-06-11T11:08:11Z</time>
      </trkpt>
      <trkpt lat="44.35465" lon="4.46758">
        <ele>281.1</ele>
        <time>2022-06-11T11:08:12Z</time>
      </trkpt>
      <trkpt lat="44.35463" lon="4.46755">
        <ele>281.4</ele>
        <time>2022-06-11T11:08:13Z</time>
      </trkpt>
      <trkpt lat="44.35462" lon="4.46753">
        <ele>281.5</ele>
        <time>2022-06-11T11:08:14Z</time>
      </trkpt>
      <trkpt lat="44.3546" lon="4.4675">
        <ele>281.7</ele>
        <time>2022-06-11T11:08:16Z</time>
      </trkpt>
      <trkpt lat="44.3546" lon="4.46749">
        <ele>281.8</ele>
        <time>2022-06-11T11:08:17Z</time>
      </trkpt>
      <trkpt lat="44.35459" lon="4.46747">
        <ele>281.9</ele>
        <time>2022-06-11T11:08:18Z</time>
      </trkpt>
      <trkpt lat="44.35459" lon="4.46744">
        <ele>282.1</ele>
        <time>2022-06-11T11:08:19Z</time>
      </trkpt>
      <trkpt lat="44.35458" lon="4.46742">
        <ele>282.2</ele>
        <time>2022-06-11T11:08:20Z</time>
      </trkpt>
      <trkpt lat="44.35457" lon="4.4674">
        <ele>282.3</ele>
        <time>2022-06-11T11:08:21Z</time>
      </trkpt>
      <trkpt lat="44.35457" lon="4.46738">
        <ele>282.4</ele>
        <time>2022-06-11T11:08:22Z</time>
      </trkpt>
      <trkpt lat="44.35456" lon="4.46736">
        <ele>282.6</ele>
        <time>2022-06-11T11:08:23Z</time>
      </trkpt>
      <trkpt lat="44.35456" lon="4.46734">
        <ele>282.7</ele>
        <time>2022-06-11T11:08:24Z</time>
      </trkpt>
      <trkpt lat="44.35456" lon="4.46732">
        <ele>282.8</ele>
        <time>2022-06-11T11:08:25Z</time>
      </trkpt>
      <trkpt lat="44.35455" lon="4.4673">
        <ele>282.9</ele>
        <time>2022-06-11T11:08:26Z</time>
      </trkpt>
      <trkpt lat="44.35455" lon="4.46728">
        <ele>283.1</ele>
        <time>2022-06-11T11:08:27Z</time>
      </trkpt>
      <trkpt lat="44.35455" lon="4.46725">
        <ele>283.2</ele>
        <time>2022-06-11T11:08:28Z</time>
      </trkpt>
      <trkpt lat="44.35454" lon="4.46723">
        <ele>283.4</ele>
        <time>2022-06-11T11:08:29Z</time>
      </trkpt>
      <trkpt lat="44.35453" lon="4.46721">
        <ele>283.5</ele>
        <time>2022-06-11T11:08:30Z</time>
      </trkpt>
      <trkpt lat="44.35452" lon="4.46719">
        <ele>283.6</ele>
        <time>2022-06-11T11:08:31Z</time>
      </trkpt>
      <trkpt lat="44.35451" lon="4.46717">
        <ele>283.8</ele>
        <time>2022-06-11T11:08:32Z</time>
      </trkpt>
      <trkpt lat="44.35451" lon="4.46715">
        <ele>283.9</ele>
        <time>2022-06-11T11:08:33Z</time>
      </trkpt>
      <trkpt lat="44.3545" lon="4.46713">
        <ele>284.1</ele>
        <time>2022-06-11T11:08:34Z</time>
      </trkpt>
      <trkpt lat="44.35449" lon="4.46711">
        <ele>284.2</ele>
        <time>2022-06-11T11:08:35Z</time>
      </trkpt>
      <trkpt lat="44.35448" lon="4.46709">
        <ele>284.4</ele>
        <time>2022-06-11T11:08:36Z</time>
      </trkpt>
      <trkpt lat="44.35447" lon="4.46708">
        <ele>284.4</ele>
        <time>2022-06-11T11:08:37Z</time>
      </trkpt>
      <trkpt lat="44.35447" lon="4.46707">
        <ele>284.5</ele>
        <time>2022-06-11T11:08:38Z</time>
      </trkpt>
      <trkpt lat="44.35446" lon="4.46705">
        <ele>284.6</ele>
        <time>2022-06-11T11:08:39Z</time>
      </trkpt>
      <trkpt lat="44.35445" lon="4.46704">
        <ele>284.8</ele>
        <time>2022-06-11T11:08:40Z</time>
      </trkpt>
      <trkpt lat="44.35445" lon="4.46702">
        <ele>284.9</ele>
        <time>2022-06-11T11:08:41Z</time>
      </trkpt>
      <trkpt lat="44.35444" lon="4.467">
        <ele>285</ele>
        <time>2022-06-11T11:08:42Z</time>
      </trkpt>
      <trkpt lat="44.35444" lon="4.46698">
        <ele>285.2</ele>
        <time>2022-06-11T11:08:43Z</time>
      </trkpt>
      <trkpt lat="44.35443" lon="4.46696">
        <ele>285.3</ele>
        <time>2022-06-11T11:08:44Z</time>
      </trkpt>
      <trkpt lat="44.35442" lon="4.46694">
        <ele>285.4</ele>
        <time>2022-06-11T11:08:45Z</time>
      </trkpt>
      <trkpt lat="44.35441" lon="4.46693">
        <ele>285.5</ele>
        <time>2022-06-11T11:08:46Z</time>
      </trkpt>
      <trkpt lat="44.3544" lon="4.46691">
        <ele>285.7</ele>
        <time>2022-06-11T11:08:47Z</time>
      </trkpt>
      <trkpt lat="44.35439" lon="4.46689">
        <ele>285.8</ele>
        <time>2022-06-11T11:08:48Z</time>
      </trkpt>
      <trkpt lat="44.35438" lon="4.46687">
        <ele>285.9</ele>
        <time>2022-06-11T11:08:49Z</time>
      </trkpt>
      <trkpt lat="44.35437" lon="4.46686">
        <ele>286.1</ele>
        <time>2022-06-11T11:08:50Z</time>
      </trkpt>
      <trkpt lat="44.35435" lon="4.46684">
        <ele>286.2</ele>
        <time>2022-06-11T11:08:51Z</time>
      </trkpt>
      <trkpt lat="44.35434" lon="4.46683">
        <ele>286.3</ele>
        <time>2022-06-11T11:08:52Z</time>
      </trkpt>
      <trkpt lat="44.35433" lon="4.46681">
        <ele>286.4</ele>
        <time>2022-06-11T11:08:53Z</time>
      </trkpt>
      <trkpt lat="44.35431" lon="4.4668">
        <ele>286.6</ele>
        <time>2022-06-11T11:08:54Z</time>
      </trkpt>
      <trkpt lat="44.35429" lon="4.46678">
        <ele>286.8</ele>
        <time>2022-06-11T11:08:55Z</time>
      </trkpt>
      <trkpt lat="44.35428" lon="4.46678">
        <ele>286.9</ele>
        <time>2022-06-11T11:08:56Z</time>
      </trkpt>
      <trkpt lat="44.35426" lon="4.46677">
        <ele>287</ele>
        <time>2022-06-11T11:08:57Z</time>
      </trkpt>
      <trkpt lat="44.35425" lon="4.46676">
        <ele>287.1</ele>
        <time>2022-06-11T11:08:58Z</time>
      </trkpt>
      <trkpt lat="44.35422" lon="4.46675">
        <ele>287.3</ele>
        <time>2022-06-11T11:08:59Z</time>
      </trkpt>
      <trkpt lat="44.35421" lon="4.46674">
        <ele>287.4</ele>
        <time>2022-06-11T11:09:00Z</time>
      </trkpt>
      <trkpt lat="44.35419" lon="4.46672">
        <ele>287.6</ele>
        <time>2022-06-11T11:09:01Z</time>
      </trkpt>
      <trkpt lat="44.35418" lon="4.46671">
        <ele>287.7</ele>
        <time>2022-06-11T11:09:02Z</time>
      </trkpt>
      <trkpt lat="44.35416" lon="4.46669">
        <ele>287.9</ele>
        <time>2022-06-11T11:09:03Z</time>
      </trkpt>
      <trkpt lat="44.35415" lon="4.46668">
        <ele>288</ele>
        <time>2022-06-11T11:09:04Z</time>
      </trkpt>
      <trkpt lat="44.35413" lon="4.46666">
        <ele>288.2</ele>
        <time>2022-06-11T11:09:05Z</time>
      </trkpt>
      <trkpt lat="44.35412" lon="4.46666">
        <ele>288.2</ele>
        <time>2022-06-11T11:09:06Z</time>
      </trkpt>
      <trkpt lat="44.35409" lon="4.46663">
        <ele>288.5</ele>
        <time>2022-06-11T11:09:07Z</time>
      </trkpt>
      <trkpt lat="44.35408" lon="4.46663">
        <ele>288.5</ele>
        <time>2022-06-11T11:09:08Z</time>
      </trkpt>
      <trkpt lat="44.35407" lon="4.46661">
        <ele>288.6</ele>
        <time>2022-06-11T11:09:09Z</time>
      </trkpt>
      <trkpt lat="44.35405" lon="4.4666">
        <ele>288.8</ele>
        <time>2022-06-11T11:09:10Z</time>
      </trkpt>
      <trkpt lat="44.35403" lon="4.46658">
        <ele>289</ele>
        <time>2022-06-11T11:09:11Z</time>
      </trkpt>
      <trkpt lat="44.35402" lon="4.46656">
        <ele>289.1</ele>
        <time>2022-06-11T11:09:13Z</time>
      </trkpt>
      <trkpt lat="44.35399" lon="4.46654">
        <ele>289.3</ele>
        <time>2022-06-11T11:09:14Z</time>
      </trkpt>
      <trkpt lat="44.35399" lon="4.46653">
        <ele>289.4</ele>
        <time>2022-06-11T11:09:15Z</time>
      </trkpt>
      <trkpt lat="44.35396" lon="4.46651">
        <ele>289.6</ele>
        <time>2022-06-11T11:09:16Z</time>
      </trkpt>
      <trkpt lat="44.35395" lon="4.4665">
        <ele>289.6</ele>
        <time>2022-06-11T11:09:17Z</time>
      </trkpt>
      <trkpt lat="44.35393" lon="4.46647">
        <ele>289.9</ele>
        <time>2022-06-11T11:09:19Z</time>
      </trkpt>
      <trkpt lat="44.35391" lon="4.46643">
        <ele>290.1</ele>
        <time>2022-06-11T11:09:21Z</time>
      </trkpt>
      <trkpt lat="44.35389" lon="4.4664">
        <ele>290.3</ele>
        <time>2022-06-11T11:09:22Z</time>
      </trkpt>
      <trkpt lat="44.35387" lon="4.46637">
        <ele>290.5</ele>
        <time>2022-06-11T11:09:24Z</time>
      </trkpt>
      <trkpt lat="44.35386" lon="4.46634">
        <ele>290.6</ele>
        <time>2022-06-11T11:09:25Z</time>
      </trkpt>
      <trkpt lat="44.35385" lon="4.46633">
        <ele>290.7</ele>
        <time>2022-06-11T11:09:26Z</time>
      </trkpt>
      <trkpt lat="44.35383" lon="4.4663">
        <ele>290.8</ele>
        <time>2022-06-11T11:09:27Z</time>
      </trkpt>
      <trkpt lat="44.35382" lon="4.46629">
        <ele>290.9</ele>
        <time>2022-06-11T11:09:28Z</time>
      </trkpt>
      <trkpt lat="44.35381" lon="4.46626">
        <ele>291</ele>
        <time>2022-06-11T11:09:29Z</time>
      </trkpt>
      <trkpt lat="44.3538" lon="4.46625">
        <ele>291</ele>
        <time>2022-06-11T11:09:30Z</time>
      </trkpt>
      <trkpt lat="44.35378" lon="4.46622">
        <ele>291.2</ele>
        <time>2022-06-11T11:09:31Z</time>
      </trkpt>
      <trkpt lat="44.35377" lon="4.46622">
        <ele>291.2</ele>
        <time>2022-06-11T11:09:32Z</time>
      </trkpt>
      <trkpt lat="44.35375" lon="4.46619">
        <ele>291.3</ele>
        <time>2022-06-11T11:09:33Z</time>
      </trkpt>
      <trkpt lat="44.35374" lon="4.46618">
        <ele>291.3</ele>
        <time>2022-06-11T11:09:34Z</time>
      </trkpt>
      <trkpt lat="44.35372" lon="4.46615">
        <ele>291.4</ele>
        <time>2022-06-11T11:09:35Z</time>
      </trkpt>
      <trkpt lat="44.35372" lon="4.46614">
        <ele>291.4</ele>
        <time>2022-06-11T11:09:36Z</time>
      </trkpt>
      <trkpt lat="44.35369" lon="4.46611">
        <ele>291.5</ele>
        <time>2022-06-11T11:09:37Z</time>
      </trkpt>
      <trkpt lat="44.35368" lon="4.46609">
        <ele>291.5</ele>
        <time>2022-06-11T11:09:38Z</time>
      </trkpt>
      <trkpt lat="44.35365" lon="4.46606">
        <ele>291.6</ele>
        <time>2022-06-11T11:09:39Z</time>
      </trkpt>
      <trkpt lat="44.35364" lon="4.46605">
        <ele>291.6</ele>
        <time>2022-06-11T11:09:40Z</time>
      </trkpt>
      <trkpt lat="44.35362" lon="4.46602">
        <ele>291.6</ele>
        <time>2022-06-11T11:09:41Z</time>
      </trkpt>
      <trkpt lat="44.35361" lon="4.46598">
        <ele>291.6</ele>
        <time>2022-06-11T11:09:42Z</time>
      </trkpt>
      <trkpt lat="44.35359" lon="4.46595">
        <ele>291.6</ele>
        <time>2022-06-11T11:09:43Z</time>
      </trkpt>
      <trkpt lat="44.35357" lon="4.46591">
        <ele>291.5</ele>
        <time>2022-06-11T11:09:44Z</time>
      </trkpt>
      <trkpt lat="44.35355" lon="4.46588">
        <ele>291.5</ele>
        <time>2022-06-11T11:09:45Z</time>
      </trkpt>
      <trkpt lat="44.35352" lon="4.46583">
        <ele>291.4</ele>
        <time>2022-06-11T11:09:46Z</time>
      </trkpt>
      <trkpt lat="44.35351" lon="4.46578">
        <ele>291.2</ele>
        <time>2022-06-11T11:09:47Z</time>
      </trkpt>
      <trkpt lat="44.35348" lon="4.46572">
        <ele>291.1</ele>
        <time>2022-06-11T11:09:48Z</time>
      </trkpt>
      <trkpt lat="44.35346" lon="4.46565">
        <ele>290.9</ele>
        <time>2022-06-11T11:09:49Z</time>
      </trkpt>
      <trkpt lat="44.35345" lon="4.46559">
        <ele>290.7</ele>
        <time>2022-06-11T11:09:50Z</time>
      </trkpt>
      <trkpt lat="44.35342" lon="4.46553">
        <ele>290.5</ele>
        <time>2022-06-11T11:09:51Z</time>
      </trkpt>
      <trkpt lat="44.3534" lon="4.46547">
        <ele>290.2</ele>
        <time>2022-06-11T11:09:52Z</time>
      </trkpt>
      <trkpt lat="44.35337" lon="4.46541">
        <ele>290</ele>
        <time>2022-06-11T11:09:53Z</time>
      </trkpt>
      <trkpt lat="44.35334" lon="4.46535">
        <ele>289.7</ele>
        <time>2022-06-11T11:09:54Z</time>
      </trkpt>
      <trkpt lat="44.3533" lon="4.46529">
        <ele>289.4</ele>
        <time>2022-06-11T11:09:55Z</time>
      </trkpt>
      <trkpt lat="44.35325" lon="4.46523">
        <ele>289</ele>
        <time>2022-06-11T11:09:56Z</time>
      </trkpt>
      <trkpt lat="44.35319" lon="4.46519">
        <ele>288.6</ele>
        <time>2022-06-11T11:09:57Z</time>
      </trkpt>
      <trkpt lat="44.35313" lon="4.46516">
        <ele>288.3</ele>
        <time>2022-06-11T11:09:58Z</time>
      </trkpt>
      <trkpt lat="44.35307" lon="4.46514">
        <ele>287.9</ele>
        <time>2022-06-11T11:09:59Z</time>
      </trkpt>
      <trkpt lat="44.353" lon="4.46513">
        <ele>287.6</ele>
        <time>2022-06-11T11:10:00Z</time>
      </trkpt>
      <trkpt lat="44.35294" lon="4.46512">
        <ele>287.3</ele>
        <time>2022-06-11T11:10:01Z</time>
      </trkpt>
      <trkpt lat="44.35287" lon="4.46513">
        <ele>287</ele>
        <time>2022-06-11T11:10:02Z</time>
      </trkpt>
      <trkpt lat="44.3528" lon="4.46513">
        <ele>286.7</ele>
        <time>2022-06-11T11:10:03Z</time>
      </trkpt>
      <trkpt lat="44.35274" lon="4.46514">
        <ele>286.4</ele>
        <time>2022-06-11T11:10:04Z</time>
      </trkpt>
      <trkpt lat="44.35267" lon="4.46516">
        <ele>286.1</ele>
        <time>2022-06-11T11:10:05Z</time>
      </trkpt>
      <trkpt lat="44.35261" lon="4.46517">
        <ele>285.9</ele>
        <time>2022-06-11T11:10:06Z</time>
      </trkpt>
      <trkpt lat="44.35255" lon="4.46519">
        <ele>285.6</ele>
        <time>2022-06-11T11:10:07Z</time>
      </trkpt>
      <trkpt lat="44.35248" lon="4.46521">
        <ele>285.3</ele>
        <time>2022-06-11T11:10:08Z</time>
      </trkpt>
      <trkpt lat="44.35241" lon="4.46523">
        <ele>285</ele>
        <time>2022-06-11T11:10:09Z</time>
      </trkpt>
      <trkpt lat="44.35235" lon="4.46524">
        <ele>284.7</ele>
        <time>2022-06-11T11:10:10Z</time>
      </trkpt>
      <trkpt lat="44.35228" lon="4.46525">
        <ele>284.4</ele>
        <time>2022-06-11T11:10:11Z</time>
      </trkpt>
      <trkpt lat="44.35221" lon="4.46525">
        <ele>284</ele>
        <time>2022-06-11T11:10:12Z</time>
      </trkpt>
      <trkpt lat="44.35215" lon="4.46525">
        <ele>283.7</ele>
        <time>2022-06-11T11:10:13Z</time>
      </trkpt>
      <trkpt lat="44.35207" lon="4.46524">
        <ele>283.2</ele>
        <time>2022-06-11T11:10:14Z</time>
      </trkpt>
      <trkpt lat="44.352" lon="4.46522">
        <ele>282.7</ele>
        <time>2022-06-11T11:10:15Z</time>
      </trkpt>
      <trkpt lat="44.35193" lon="4.46519">
        <ele>282.2</ele>
        <time>2022-06-11T11:10:16Z</time>
      </trkpt>
      <trkpt lat="44.35186" lon="4.46514">
        <ele>281.6</ele>
        <time>2022-06-11T11:10:17Z</time>
      </trkpt>
      <trkpt lat="44.35178" lon="4.4651">
        <ele>281.1</ele>
        <time>2022-06-11T11:10:18Z</time>
      </trkpt>
      <trkpt lat="44.3517" lon="4.46506">
        <ele>280.5</ele>
        <time>2022-06-11T11:10:19Z</time>
      </trkpt>
      <trkpt lat="44.35162" lon="4.46502">
        <ele>279.9</ele>
        <time>2022-06-11T11:10:20Z</time>
      </trkpt>
      <trkpt lat="44.35155" lon="4.46498">
        <ele>279.3</ele>
        <time>2022-06-11T11:10:21Z</time>
      </trkpt>
      <trkpt lat="44.35146" lon="4.46493">
        <ele>278.6</ele>
        <time>2022-06-11T11:10:22Z</time>
      </trkpt>
      <trkpt lat="44.35138" lon="4.46489">
        <ele>278</ele>
        <time>2022-06-11T11:10:23Z</time>
      </trkpt>
      <trkpt lat="44.35129" lon="4.46485">
        <ele>277.4</ele>
        <time>2022-06-11T11:10:24Z</time>
      </trkpt>
      <trkpt lat="44.35121" lon="4.46481">
        <ele>276.7</ele>
        <time>2022-06-11T11:10:25Z</time>
      </trkpt>
      <trkpt lat="44.35112" lon="4.46477">
        <ele>276.1</ele>
        <time>2022-06-11T11:10:26Z</time>
      </trkpt>
      <trkpt lat="44.35103" lon="4.46472">
        <ele>275.5</ele>
        <time>2022-06-11T11:10:27Z</time>
      </trkpt>
      <trkpt lat="44.35094" lon="4.46468">
        <ele>275</ele>
        <time>2022-06-11T11:10:28Z</time>
      </trkpt>
      <trkpt lat="44.35085" lon="4.46463">
        <ele>274.5</ele>
        <time>2022-06-11T11:10:29Z</time>
      </trkpt>
      <trkpt lat="44.35077" lon="4.46459">
        <ele>274.2</ele>
        <time>2022-06-11T11:10:30Z</time>
      </trkpt>
      <trkpt lat="44.35068" lon="4.46456">
        <ele>273.8</ele>
        <time>2022-06-11T11:10:31Z</time>
      </trkpt>
      <trkpt lat="44.3506" lon="4.46456">
        <ele>273.5</ele>
        <time>2022-06-11T11:10:32Z</time>
      </trkpt>
      <trkpt lat="44.35051" lon="4.46458">
        <ele>273.1</ele>
        <time>2022-06-11T11:10:33Z</time>
      </trkpt>
      <trkpt lat="44.35043" lon="4.46464">
        <ele>272.6</ele>
        <time>2022-06-11T11:10:34Z</time>
      </trkpt>
      <trkpt lat="44.35036" lon="4.4647">
        <ele>272.3</ele>
        <time>2022-06-11T11:10:35Z</time>
      </trkpt>
      <trkpt lat="44.3503" lon="4.46479">
        <ele>272</ele>
        <time>2022-06-11T11:10:36Z</time>
      </trkpt>
      <trkpt lat="44.35026" lon="4.46489">
        <ele>271.8</ele>
        <time>2022-06-11T11:10:37Z</time>
      </trkpt>
      <trkpt lat="44.35022" lon="4.46498">
        <ele>271.7</ele>
        <time>2022-06-11T11:10:38Z</time>
      </trkpt>
      <trkpt lat="44.3502" lon="4.46508">
        <ele>271.5</ele>
        <time>2022-06-11T11:10:39Z</time>
      </trkpt>
      <trkpt lat="44.35017" lon="4.46517">
        <ele>271.5</ele>
        <time>2022-06-11T11:10:40Z</time>
      </trkpt>
      <trkpt lat="44.35015" lon="4.46526">
        <ele>271.5</ele>
        <time>2022-06-11T11:10:41Z</time>
      </trkpt>
      <trkpt lat="44.35013" lon="4.46534">
        <ele>271.5</ele>
        <time>2022-06-11T11:10:42Z</time>
      </trkpt>
      <trkpt lat="44.35011" lon="4.46543">
        <ele>271.5</ele>
        <time>2022-06-11T11:10:43Z</time>
      </trkpt>
      <trkpt lat="44.3501" lon="4.46552">
        <ele>271.5</ele>
        <time>2022-06-11T11:10:44Z</time>
      </trkpt>
      <trkpt lat="44.35008" lon="4.4656">
        <ele>271.5</ele>
        <time>2022-06-11T11:10:45Z</time>
      </trkpt>
      <trkpt lat="44.35007" lon="4.46568">
        <ele>271.6</ele>
        <time>2022-06-11T11:10:46Z</time>
      </trkpt>
      <trkpt lat="44.35005" lon="4.46576">
        <ele>271.6</ele>
        <time>2022-06-11T11:10:47Z</time>
      </trkpt>
      <trkpt lat="44.35004" lon="4.46584">
        <ele>271.7</ele>
        <time>2022-06-11T11:10:48Z</time>
      </trkpt>
      <trkpt lat="44.35002" lon="4.46591">
        <ele>271.8</ele>
        <time>2022-06-11T11:10:49Z</time>
      </trkpt>
      <trkpt lat="44.35" lon="4.46599">
        <ele>271.8</ele>
        <time>2022-06-11T11:10:50Z</time>
      </trkpt>
      <trkpt lat="44.34999" lon="4.46606">
        <ele>271.9</ele>
        <time>2022-06-11T11:10:51Z</time>
      </trkpt>
      <trkpt lat="44.34996" lon="4.46613">
        <ele>272</ele>
        <time>2022-06-11T11:10:52Z</time>
      </trkpt>
      <trkpt lat="44.34992" lon="4.46619">
        <ele>272.1</ele>
        <time>2022-06-11T11:10:53Z</time>
      </trkpt>
      <trkpt lat="44.34988" lon="4.46624">
        <ele>272.2</ele>
        <time>2022-06-11T11:10:54Z</time>
      </trkpt>
      <trkpt lat="44.34983" lon="4.46628">
        <ele>272.3</ele>
        <time>2022-06-11T11:10:55Z</time>
      </trkpt>
      <trkpt lat="44.34978" lon="4.46631">
        <ele>272.4</ele>
        <time>2022-06-11T11:10:56Z</time>
      </trkpt>
      <trkpt lat="44.34972" lon="4.46633">
        <ele>272.5</ele>
        <time>2022-06-11T11:10:57Z</time>
      </trkpt>
      <trkpt lat="44.34967" lon="4.46633">
        <ele>272.7</ele>
        <time>2022-06-11T11:10:58Z</time>
      </trkpt>
      <trkpt lat="44.34962" lon="4.46631">
        <ele>272.8</ele>
        <time>2022-06-11T11:10:59Z</time>
      </trkpt>
      <trkpt lat="44.34957" lon="4.46629">
        <ele>273</ele>
        <time>2022-06-11T11:11:00Z</time>
      </trkpt>
      <trkpt lat="44.34953" lon="4.46626">
        <ele>273.2</ele>
        <time>2022-06-11T11:11:01Z</time>
      </trkpt>
      <trkpt lat="44.3495" lon="4.46622">
        <ele>273.4</ele>
        <time>2022-06-11T11:11:02Z</time>
      </trkpt>
      <trkpt lat="44.34948" lon="4.46619">
        <ele>273.6</ele>
        <time>2022-06-11T11:11:03Z</time>
      </trkpt>
      <trkpt lat="44.34944" lon="4.46615">
        <ele>273.9</ele>
        <time>2022-06-11T11:11:04Z</time>
      </trkpt>
      <trkpt lat="44.34941" lon="4.46612">
        <ele>274.1</ele>
        <time>2022-06-11T11:11:05Z</time>
      </trkpt>
      <trkpt lat="44.34938" lon="4.46608">
        <ele>274.3</ele>
        <time>2022-06-11T11:11:06Z</time>
      </trkpt>
      <trkpt lat="44.34937" lon="4.46607">
        <ele>274.4</ele>
        <time>2022-06-11T11:11:07Z</time>
      </trkpt>
      <trkpt lat="44.34934" lon="4.46603">
        <ele>274.7</ele>
        <time>2022-06-11T11:11:08Z</time>
      </trkpt>
      <trkpt lat="44.34932" lon="4.466">
        <ele>274.9</ele>
        <time>2022-06-11T11:11:09Z</time>
      </trkpt>
      <trkpt lat="44.34929" lon="4.46597">
        <ele>275.2</ele>
        <time>2022-06-11T11:11:10Z</time>
      </trkpt>
      <trkpt lat="44.34927" lon="4.46594">
        <ele>275.4</ele>
        <time>2022-06-11T11:11:11Z</time>
      </trkpt>
      <trkpt lat="44.34924" lon="4.46591">
        <ele>275.7</ele>
        <time>2022-06-11T11:11:12Z</time>
      </trkpt>
      <trkpt lat="44.34923" lon="4.4659">
        <ele>275.8</ele>
        <time>2022-06-11T11:11:13Z</time>
      </trkpt>
      <trkpt lat="44.34921" lon="4.46587">
        <ele>276.1</ele>
        <time>2022-06-11T11:11:14Z</time>
      </trkpt>
      <trkpt lat="44.3492" lon="4.46586">
        <ele>276.2</ele>
        <time>2022-06-11T11:11:15Z</time>
      </trkpt>
      <trkpt lat="44.34916" lon="4.46583">
        <ele>276.6</ele>
        <time>2022-06-11T11:11:16Z</time>
      </trkpt>
      <trkpt lat="44.34916" lon="4.46582">
        <ele>276.7</ele>
        <time>2022-06-11T11:11:17Z</time>
      </trkpt>
      <trkpt lat="44.34912" lon="4.46579">
        <ele>277.1</ele>
        <time>2022-06-11T11:11:18Z</time>
      </trkpt>
      <trkpt lat="44.34911" lon="4.46578">
        <ele>277.2</ele>
        <time>2022-06-11T11:11:19Z</time>
      </trkpt>
      <trkpt lat="44.34907" lon="4.46576">
        <ele>277.6</ele>
        <time>2022-06-11T11:11:20Z</time>
      </trkpt>
      <trkpt lat="44.34906" lon="4.46575">
        <ele>277.7</ele>
        <time>2022-06-11T11:11:21Z</time>
      </trkpt>
      <trkpt lat="44.34903" lon="4.46573">
        <ele>278.1</ele>
        <time>2022-06-11T11:11:22Z</time>
      </trkpt>
      <trkpt lat="44.34902" lon="4.46573">
        <ele>278.2</ele>
        <time>2022-06-11T11:11:23Z</time>
      </trkpt>
      <trkpt lat="44.34899" lon="4.46571">
        <ele>278.6</ele>
        <time>2022-06-11T11:11:24Z</time>
      </trkpt>
      <trkpt lat="44.34898" lon="4.46571">
        <ele>278.7</ele>
        <time>2022-06-11T11:11:25Z</time>
      </trkpt>
      <trkpt lat="44.34895" lon="4.4657">
        <ele>279.1</ele>
        <time>2022-06-11T11:11:26Z</time>
      </trkpt>
      <trkpt lat="44.34893" lon="4.4657">
        <ele>279.2</ele>
        <time>2022-06-11T11:11:27Z</time>
      </trkpt>
      <trkpt lat="44.34891" lon="4.4657">
        <ele>279.5</ele>
        <time>2022-06-11T11:11:28Z</time>
      </trkpt>
      <trkpt lat="44.3489" lon="4.4657">
        <ele>279.6</ele>
        <time>2022-06-11T11:11:29Z</time>
      </trkpt>
      <trkpt lat="44.34886" lon="4.4657">
        <ele>279.9</ele>
        <time>2022-06-11T11:11:30Z</time>
      </trkpt>
      <trkpt lat="44.34885" lon="4.46571">
        <ele>280.1</ele>
        <time>2022-06-11T11:11:31Z</time>
      </trkpt>
      <trkpt lat="44.34883" lon="4.46571">
        <ele>280.3</ele>
        <time>2022-06-11T11:11:32Z</time>
      </trkpt>
      <trkpt lat="44.34882" lon="4.46571">
        <ele>280.5</ele>
        <time>2022-06-11T11:11:33Z</time>
      </trkpt>
      <trkpt lat="44.34879" lon="4.46571">
        <ele>280.8</ele>
        <time>2022-06-11T11:11:34Z</time>
      </trkpt>
      <trkpt lat="44.34878" lon="4.46572">
        <ele>280.9</ele>
        <time>2022-06-11T11:11:35Z</time>
      </trkpt>
      <trkpt lat="44.34875" lon="4.46572">
        <ele>281.2</ele>
        <time>2022-06-11T11:11:36Z</time>
      </trkpt>
      <trkpt lat="44.34874" lon="4.46573">
        <ele>281.3</ele>
        <time>2022-06-11T11:11:37Z</time>
      </trkpt>
      <trkpt lat="44.34872" lon="4.46573">
        <ele>281.5</ele>
        <time>2022-06-11T11:11:38Z</time>
      </trkpt>
      <trkpt lat="44.34871" lon="4.46573">
        <ele>281.6</ele>
        <time>2022-06-11T11:11:39Z</time>
      </trkpt>
      <trkpt lat="44.34869" lon="4.46574">
        <ele>281.8</ele>
        <time>2022-06-11T11:11:40Z</time>
      </trkpt>
      <trkpt lat="44.34867" lon="4.46575">
        <ele>282</ele>
        <time>2022-06-11T11:11:41Z</time>
      </trkpt>
      <trkpt lat="44.34866" lon="4.46575">
        <ele>282.1</ele>
        <time>2022-06-11T11:11:42Z</time>
      </trkpt>
      <trkpt lat="44.34865" lon="4.46576">
        <ele>282.2</ele>
        <time>2022-06-11T11:11:43Z</time>
      </trkpt>
      <trkpt lat="44.34863" lon="4.46576">
        <ele>282.4</ele>
        <time>2022-06-11T11:11:44Z</time>
      </trkpt>
      <trkpt lat="44.34862" lon="4.46577">
        <ele>282.5</ele>
        <time>2022-06-11T11:11:45Z</time>
      </trkpt>
      <trkpt lat="44.34861" lon="4.46578">
        <ele>282.7</ele>
        <time>2022-06-11T11:11:46Z</time>
      </trkpt>
      <trkpt lat="44.3486" lon="4.46578">
        <ele>282.8</ele>
        <time>2022-06-11T11:11:47Z</time>
      </trkpt>
      <trkpt lat="44.34858" lon="4.46579">
        <ele>283</ele>
        <time>2022-06-11T11:11:48Z</time>
      </trkpt>
      <trkpt lat="44.34857" lon="4.4658">
        <ele>283.1</ele>
        <time>2022-06-11T11:11:49Z</time>
      </trkpt>
      <trkpt lat="44.34856" lon="4.46581">
        <ele>283.3</ele>
        <time>2022-06-11T11:11:50Z</time>
      </trkpt>
      <trkpt lat="44.34854" lon="4.46582">
        <ele>283.5</ele>
        <time>2022-06-11T11:11:51Z</time>
      </trkpt>
      <trkpt lat="44.34853" lon="4.46583">
        <ele>283.6</ele>
        <time>2022-06-11T11:11:52Z</time>
      </trkpt>
      <trkpt lat="44.34852" lon="4.46583">
        <ele>283.7</ele>
        <time>2022-06-11T11:11:53Z</time>
      </trkpt>
      <trkpt lat="44.3485" lon="4.46585">
        <ele>283.9</ele>
        <time>2022-06-11T11:11:54Z</time>
      </trkpt>
      <trkpt lat="44.3485" lon="4.46586">
        <ele>284</ele>
        <time>2022-06-11T11:11:55Z</time>
      </trkpt>
      <trkpt lat="44.34849" lon="4.46586">
        <ele>284.1</ele>
        <time>2022-06-11T11:11:56Z</time>
      </trkpt>
      <trkpt lat="44.34847" lon="4.46588">
        <ele>284.3</ele>
        <time>2022-06-11T11:11:57Z</time>
      </trkpt>
      <trkpt lat="44.34846" lon="4.46588">
        <ele>284.4</ele>
        <time>2022-06-11T11:11:58Z</time>
      </trkpt>
      <trkpt lat="44.34845" lon="4.46589">
        <ele>284.5</ele>
        <time>2022-06-11T11:11:59Z</time>
      </trkpt>
      <trkpt lat="44.34844" lon="4.46591">
        <ele>284.7</ele>
        <time>2022-06-11T11:12:00Z</time>
      </trkpt>
      <trkpt lat="44.34843" lon="4.46592">
        <ele>284.8</ele>
        <time>2022-06-11T11:12:01Z</time>
      </trkpt>
      <trkpt lat="44.34843" lon="4.46594">
        <ele>284.9</ele>
        <time>2022-06-11T11:12:02Z</time>
      </trkpt>
      <trkpt lat="44.34841" lon="4.46595">
        <ele>285.1</ele>
        <time>2022-06-11T11:12:03Z</time>
      </trkpt>
      <trkpt lat="44.34841" lon="4.46597">
        <ele>285.2</ele>
        <time>2022-06-11T11:12:04Z</time>
      </trkpt>
      <trkpt lat="44.3484" lon="4.46598">
        <ele>285.4</ele>
        <time>2022-06-11T11:12:05Z</time>
      </trkpt>
      <trkpt lat="44.34839" lon="4.466">
        <ele>285.5</ele>
        <time>2022-06-11T11:12:06Z</time>
      </trkpt>
      <trkpt lat="44.34838" lon="4.46602">
        <ele>285.6</ele>
        <time>2022-06-11T11:12:07Z</time>
      </trkpt>
      <trkpt lat="44.34837" lon="4.46603">
        <ele>285.7</ele>
        <time>2022-06-11T11:12:08Z</time>
      </trkpt>
      <trkpt lat="44.34837" lon="4.46605">
        <ele>285.9</ele>
        <time>2022-06-11T11:12:09Z</time>
      </trkpt>
      <trkpt lat="44.34836" lon="4.46607">
        <ele>286</ele>
        <time>2022-06-11T11:12:10Z</time>
      </trkpt>
      <trkpt lat="44.34834" lon="4.46609">
        <ele>286.2</ele>
        <time>2022-06-11T11:12:11Z</time>
      </trkpt>
      <trkpt lat="44.34834" lon="4.4661">
        <ele>286.3</ele>
        <time>2022-06-11T11:12:12Z</time>
      </trkpt>
      <trkpt lat="44.34834" lon="4.46611">
        <ele>286.3</ele>
        <time>2022-06-11T11:12:13Z</time>
      </trkpt>
      <trkpt lat="44.34833" lon="4.46615">
        <ele>286.5</ele>
        <time>2022-06-11T11:12:14Z</time>
      </trkpt>
      <trkpt lat="44.34833" lon="4.46616">
        <ele>286.6</ele>
        <time>2022-06-11T11:12:15Z</time>
      </trkpt>
      <trkpt lat="44.34831" lon="4.4662">
        <ele>286.9</ele>
        <time>2022-06-11T11:12:17Z</time>
      </trkpt>
      <trkpt lat="44.34831" lon="4.46623">
        <ele>287</ele>
        <time>2022-06-11T11:12:19Z</time>
      </trkpt>
      <trkpt lat="44.34831" lon="4.46629">
        <ele>287.3</ele>
        <time>2022-06-11T11:12:21Z</time>
      </trkpt>
      <trkpt lat="44.34831" lon="4.46631">
        <ele>287.4</ele>
        <time>2022-06-11T11:12:23Z</time>
      </trkpt>
      <trkpt lat="44.3483" lon="4.46633">
        <ele>287.6</ele>
        <time>2022-06-11T11:12:24Z</time>
      </trkpt>
      <trkpt lat="44.3483" lon="4.46635">
        <ele>287.7</ele>
        <time>2022-06-11T11:12:25Z</time>
      </trkpt>
      <trkpt lat="44.3483" lon="4.46637">
        <ele>287.8</ele>
        <time>2022-06-11T11:12:26Z</time>
      </trkpt>
      <trkpt lat="44.3483" lon="4.46639">
        <ele>287.9</ele>
        <time>2022-06-11T11:12:27Z</time>
      </trkpt>
      <trkpt lat="44.34829" lon="4.46644">
        <ele>288.1</ele>
        <time>2022-06-11T11:12:29Z</time>
      </trkpt>
      <trkpt lat="44.34829" lon="4.46647">
        <ele>288.2</ele>
        <time>2022-06-11T11:12:30Z</time>
      </trkpt>
      <trkpt lat="44.34829" lon="4.46649">
        <ele>288.3</ele>
        <time>2022-06-11T11:12:31Z</time>
      </trkpt>
      <trkpt lat="44.34829" lon="4.46651">
        <ele>288.4</ele>
        <time>2022-06-11T11:12:32Z</time>
      </trkpt>
      <trkpt lat="44.34829" lon="4.46654">
        <ele>288.6</ele>
        <time>2022-06-11T11:12:33Z</time>
      </trkpt>
      <trkpt lat="44.3483" lon="4.46659">
        <ele>288.8</ele>
        <time>2022-06-11T11:12:35Z</time>
      </trkpt>
      <trkpt lat="44.34831" lon="4.46662">
        <ele>289</ele>
        <time>2022-06-11T11:12:36Z</time>
      </trkpt>
      <trkpt lat="44.34831" lon="4.46664">
        <ele>289</ele>
        <time>2022-06-11T11:12:37Z</time>
      </trkpt>
      <trkpt lat="44.34832" lon="4.46668">
        <ele>289.2</ele>
        <time>2022-06-11T11:12:38Z</time>
      </trkpt>
      <trkpt lat="44.34832" lon="4.46669">
        <ele>289.3</ele>
        <time>2022-06-11T11:12:39Z</time>
      </trkpt>
      <trkpt lat="44.34833" lon="4.46673">
        <ele>289.4</ele>
        <time>2022-06-11T11:12:40Z</time>
      </trkpt>
      <trkpt lat="44.34834" lon="4.46679">
        <ele>289.8</ele>
        <time>2022-06-11T11:12:42Z</time>
      </trkpt>
      <trkpt lat="44.34835" lon="4.46681">
        <ele>289.9</ele>
        <time>2022-06-11T11:12:44Z</time>
      </trkpt>
      <trkpt lat="44.34835" lon="4.46684">
        <ele>290</ele>
        <time>2022-06-11T11:12:45Z</time>
      </trkpt>
      <trkpt lat="44.34836" lon="4.46686">
        <ele>290.1</ele>
        <time>2022-06-11T11:12:46Z</time>
      </trkpt>
      <trkpt lat="44.34837" lon="4.4669">
        <ele>290.4</ele>
        <time>2022-06-11T11:12:47Z</time>
      </trkpt>
      <trkpt lat="44.34837" lon="4.46692">
        <ele>290.5</ele>
        <time>2022-06-11T11:12:49Z</time>
      </trkpt>
      <trkpt lat="44.34837" lon="4.46695">
        <ele>290.6</ele>
        <time>2022-06-11T11:12:50Z</time>
      </trkpt>
      <trkpt lat="44.34838" lon="4.46697">
        <ele>290.7</ele>
        <time>2022-06-11T11:12:51Z</time>
      </trkpt>
      <trkpt lat="44.34839" lon="4.46699">
        <ele>290.9</ele>
        <time>2022-06-11T11:12:52Z</time>
      </trkpt>
      <trkpt lat="44.34839" lon="4.46701">
        <ele>291</ele>
        <time>2022-06-11T11:12:53Z</time>
      </trkpt>
      <trkpt lat="44.3484" lon="4.46703">
        <ele>291.1</ele>
        <time>2022-06-11T11:12:54Z</time>
      </trkpt>
      <trkpt lat="44.3484" lon="4.46705">
        <ele>291.2</ele>
        <time>2022-06-11T11:12:55Z</time>
      </trkpt>
      <trkpt lat="44.34841" lon="4.46707">
        <ele>291.3</ele>
        <time>2022-06-11T11:12:56Z</time>
      </trkpt>
      <trkpt lat="44.34841" lon="4.46709">
        <ele>291.5</ele>
        <time>2022-06-11T11:12:57Z</time>
      </trkpt>
      <trkpt lat="44.34842" lon="4.46711">
        <ele>291.6</ele>
        <time>2022-06-11T11:12:58Z</time>
      </trkpt>
      <trkpt lat="44.34842" lon="4.46713">
        <ele>291.7</ele>
        <time>2022-06-11T11:12:59Z</time>
      </trkpt>
      <trkpt lat="44.34842" lon="4.46715">
        <ele>291.8</ele>
        <time>2022-06-11T11:13:00Z</time>
      </trkpt>
      <trkpt lat="44.34843" lon="4.46719">
        <ele>292.1</ele>
        <time>2022-06-11T11:13:01Z</time>
      </trkpt>
      <trkpt lat="44.34844" lon="4.46721">
        <ele>292.2</ele>
        <time>2022-06-11T11:13:02Z</time>
      </trkpt>
      <trkpt lat="44.34844" lon="4.46723">
        <ele>292.3</ele>
        <time>2022-06-11T11:13:04Z</time>
      </trkpt>
      <trkpt lat="44.34845" lon="4.46727">
        <ele>292.6</ele>
        <time>2022-06-11T11:13:05Z</time>
      </trkpt>
      <trkpt lat="44.34845" lon="4.4673">
        <ele>292.7</ele>
        <time>2022-06-11T11:13:07Z</time>
      </trkpt>
      <trkpt lat="44.34845" lon="4.46732">
        <ele>292.9</ele>
        <time>2022-06-11T11:13:08Z</time>
      </trkpt>
      <trkpt lat="44.34845" lon="4.46736">
        <ele>293.1</ele>
        <time>2022-06-11T11:13:09Z</time>
      </trkpt>
      <trkpt lat="44.34845" lon="4.4674">
        <ele>293.3</ele>
        <time>2022-06-11T11:13:11Z</time>
      </trkpt>
      <trkpt lat="44.34845" lon="4.46741">
        <ele>293.4</ele>
        <time>2022-06-11T11:13:12Z</time>
      </trkpt>
      <trkpt lat="44.34845" lon="4.46745">
        <ele>293.6</ele>
        <time>2022-06-11T11:13:13Z</time>
      </trkpt>
      <trkpt lat="44.34845" lon="4.46746">
        <ele>293.7</ele>
        <time>2022-06-11T11:13:14Z</time>
      </trkpt>
      <trkpt lat="44.34845" lon="4.46749">
        <ele>293.8</ele>
        <time>2022-06-11T11:13:15Z</time>
      </trkpt>
      <trkpt lat="44.34844" lon="4.46751">
        <ele>293.9</ele>
        <time>2022-06-11T11:13:16Z</time>
      </trkpt>
      <trkpt lat="44.34844" lon="4.46755">
        <ele>294.1</ele>
        <time>2022-06-11T11:13:17Z</time>
      </trkpt>
      <trkpt lat="44.34843" lon="4.46756">
        <ele>294.2</ele>
        <time>2022-06-11T11:13:18Z</time>
      </trkpt>
      <trkpt lat="44.34843" lon="4.4676">
        <ele>294.3</ele>
        <time>2022-06-11T11:13:19Z</time>
      </trkpt>
      <trkpt lat="44.34843" lon="4.46762">
        <ele>294.4</ele>
        <time>2022-06-11T11:13:20Z</time>
      </trkpt>
      <trkpt lat="44.34842" lon="4.46764">
        <ele>294.5</ele>
        <time>2022-06-11T11:13:21Z</time>
      </trkpt>
      <trkpt lat="44.34841" lon="4.46766">
        <ele>294.6</ele>
        <time>2022-06-11T11:13:22Z</time>
      </trkpt>
      <trkpt lat="44.3484" lon="4.46771">
        <ele>294.8</ele>
        <time>2022-06-11T11:13:23Z</time>
      </trkpt>
      <trkpt lat="44.3484" lon="4.46772">
        <ele>294.8</ele>
        <time>2022-06-11T11:13:24Z</time>
      </trkpt>
      <trkpt lat="44.34839" lon="4.46776">
        <ele>295</ele>
        <time>2022-06-11T11:13:25Z</time>
      </trkpt>
      <trkpt lat="44.34838" lon="4.46778">
        <ele>295</ele>
        <time>2022-06-11T11:13:26Z</time>
      </trkpt>
      <trkpt lat="44.34836" lon="4.46782">
        <ele>295.1</ele>
        <time>2022-06-11T11:13:27Z</time>
      </trkpt>
      <trkpt lat="44.34836" lon="4.46784">
        <ele>295.2</ele>
        <time>2022-06-11T11:13:28Z</time>
      </trkpt>
      <trkpt lat="44.34833" lon="4.46788">
        <ele>295.3</ele>
        <time>2022-06-11T11:13:29Z</time>
      </trkpt>
      <trkpt lat="44.34832" lon="4.4679">
        <ele>295.4</ele>
        <time>2022-06-11T11:13:30Z</time>
      </trkpt>
      <trkpt lat="44.3483" lon="4.46792">
        <ele>295.4</ele>
        <time>2022-06-11T11:13:31Z</time>
      </trkpt>
      <trkpt lat="44.34828" lon="4.46795">
        <ele>295.5</ele>
        <time>2022-06-11T11:13:32Z</time>
      </trkpt>
      <trkpt lat="44.34826" lon="4.46799">
        <ele>295.5</ele>
        <time>2022-06-11T11:13:33Z</time>
      </trkpt>
      <trkpt lat="44.34822" lon="4.46803">
        <ele>295.5</ele>
        <time>2022-06-11T11:13:34Z</time>
      </trkpt>
      <trkpt lat="44.34819" lon="4.46806">
        <ele>295.5</ele>
        <time>2022-06-11T11:13:36Z</time>
      </trkpt>
      <trkpt lat="44.34815" lon="4.4681">
        <ele>295.4</ele>
        <time>2022-06-11T11:13:37Z</time>
      </trkpt>
      <trkpt lat="44.3481" lon="4.46813">
        <ele>295.3</ele>
        <time>2022-06-11T11:13:38Z</time>
      </trkpt>
      <trkpt lat="44.34807" lon="4.46815">
        <ele>295.3</ele>
        <time>2022-06-11T11:13:39Z</time>
      </trkpt>
      <trkpt lat="44.34802" lon="4.46817">
        <ele>295.1</ele>
        <time>2022-06-11T11:13:41Z</time>
      </trkpt>
      <trkpt lat="44.34796" lon="4.4682">
        <ele>295</ele>
        <time>2022-06-11T11:13:42Z</time>
      </trkpt>
      <trkpt lat="44.34786" lon="4.46825">
        <ele>294.7</ele>
        <time>2022-06-11T11:13:44Z</time>
      </trkpt>
      <trkpt lat="44.34781" lon="4.46828">
        <ele>294.5</ele>
        <time>2022-06-11T11:13:45Z</time>
      </trkpt>
      <trkpt lat="44.34775" lon="4.4683">
        <ele>294.3</ele>
        <time>2022-06-11T11:13:46Z</time>
      </trkpt>
      <trkpt lat="44.3477" lon="4.46833">
        <ele>294.1</ele>
        <time>2022-06-11T11:13:47Z</time>
      </trkpt>
      <trkpt lat="44.34764" lon="4.46836">
        <ele>293.9</ele>
        <time>2022-06-11T11:13:48Z</time>
      </trkpt>
      <trkpt lat="44.34759" lon="4.46839">
        <ele>293.7</ele>
        <time>2022-06-11T11:13:49Z</time>
      </trkpt>
      <trkpt lat="44.34753" lon="4.46842">
        <ele>293.4</ele>
        <time>2022-06-11T11:13:50Z</time>
      </trkpt>
      <trkpt lat="44.34747" lon="4.46845">
        <ele>293.1</ele>
        <time>2022-06-11T11:13:51Z</time>
      </trkpt>
      <trkpt lat="44.3474" lon="4.46846">
        <ele>292.7</ele>
        <time>2022-06-11T11:13:52Z</time>
      </trkpt>
      <trkpt lat="44.34733" lon="4.46847">
        <ele>292.3</ele>
        <time>2022-06-11T11:13:53Z</time>
      </trkpt>
      <trkpt lat="44.34726" lon="4.46847">
        <ele>291.9</ele>
        <time>2022-06-11T11:13:54Z</time>
      </trkpt>
      <trkpt lat="44.34719" lon="4.46846">
        <ele>291.4</ele>
        <time>2022-06-11T11:13:55Z</time>
      </trkpt>
      <trkpt lat="44.34712" lon="4.46843">
        <ele>290.9</ele>
        <time>2022-06-11T11:13:56Z</time>
      </trkpt>
      <trkpt lat="44.34704" lon="4.4684">
        <ele>290.3</ele>
        <time>2022-06-11T11:13:57Z</time>
      </trkpt>
      <trkpt lat="44.34696" lon="4.46837">
        <ele>289.8</ele>
        <time>2022-06-11T11:13:58Z</time>
      </trkpt>
      <trkpt lat="44.34688" lon="4.46833">
        <ele>289.2</ele>
        <time>2022-06-11T11:13:59Z</time>
      </trkpt>
      <trkpt lat="44.3468" lon="4.4683">
        <ele>288.6</ele>
        <time>2022-06-11T11:14:00Z</time>
      </trkpt>
      <trkpt lat="44.34671" lon="4.46825">
        <ele>288</ele>
        <time>2022-06-11T11:14:01Z</time>
      </trkpt>
      <trkpt lat="44.34663" lon="4.4682">
        <ele>287.3</ele>
        <time>2022-06-11T11:14:02Z</time>
      </trkpt>
      <trkpt lat="44.34653" lon="4.46816">
        <ele>286.6</ele>
        <time>2022-06-11T11:14:03Z</time>
      </trkpt>
      <trkpt lat="44.34644" lon="4.46812">
        <ele>285.8</ele>
        <time>2022-06-11T11:14:04Z</time>
      </trkpt>
      <trkpt lat="44.34634" lon="4.46809">
        <ele>285.1</ele>
        <time>2022-06-11T11:14:05Z</time>
      </trkpt>
      <trkpt lat="44.34623" lon="4.46808">
        <ele>284.3</ele>
        <time>2022-06-11T11:14:06Z</time>
      </trkpt>
      <trkpt lat="44.34612" lon="4.46809">
        <ele>283.4</ele>
        <time>2022-06-11T11:14:07Z</time>
      </trkpt>
      <trkpt lat="44.34602" lon="4.46815">
        <ele>282.6</ele>
        <time>2022-06-11T11:14:08Z</time>
      </trkpt>
      <trkpt lat="44.34592" lon="4.46824">
        <ele>281.8</ele>
        <time>2022-06-11T11:14:09Z</time>
      </trkpt>
      <trkpt lat="44.34585" lon="4.46836">
        <ele>281</ele>
        <time>2022-06-11T11:14:10Z</time>
      </trkpt>
      <trkpt lat="44.34579" lon="4.46849">
        <ele>280.2</ele>
        <time>2022-06-11T11:14:11Z</time>
      </trkpt>
      <trkpt lat="44.34575" lon="4.46864">
        <ele>279.4</ele>
        <time>2022-06-11T11:14:12Z</time>
      </trkpt>
      <trkpt lat="44.34573" lon="4.46879">
        <ele>278.7</ele>
        <time>2022-06-11T11:14:13Z</time>
      </trkpt>
      <trkpt lat="44.34572" lon="4.46894">
        <ele>278.2</ele>
        <time>2022-06-11T11:14:14Z</time>
      </trkpt>
      <trkpt lat="44.34572" lon="4.46909">
        <ele>277.7</ele>
        <time>2022-06-11T11:14:15Z</time>
      </trkpt>
      <trkpt lat="44.34571" lon="4.46923">
        <ele>277.3</ele>
        <time>2022-06-11T11:14:16Z</time>
      </trkpt>
      <trkpt lat="44.3457" lon="4.46937">
        <ele>277</ele>
        <time>2022-06-11T11:14:17Z</time>
      </trkpt>
      <trkpt lat="44.34569" lon="4.46951">
        <ele>276.7</ele>
        <time>2022-06-11T11:14:18Z</time>
      </trkpt>
      <trkpt lat="44.34568" lon="4.46964">
        <ele>276.4</ele>
        <time>2022-06-11T11:14:19Z</time>
      </trkpt>
      <trkpt lat="44.34568" lon="4.46978">
        <ele>276.1</ele>
        <time>2022-06-11T11:14:20Z</time>
      </trkpt>
      <trkpt lat="44.34567" lon="4.4699">
        <ele>275.8</ele>
        <time>2022-06-11T11:14:21Z</time>
      </trkpt>
      <trkpt lat="44.34566" lon="4.47003">
        <ele>275.6</ele>
        <time>2022-06-11T11:14:22Z</time>
      </trkpt>
      <trkpt lat="44.34565" lon="4.47015">
        <ele>275.4</ele>
        <time>2022-06-11T11:14:23Z</time>
      </trkpt>
      <trkpt lat="44.34564" lon="4.47028">
        <ele>275.2</ele>
        <time>2022-06-11T11:14:24Z</time>
      </trkpt>
      <trkpt lat="44.34563" lon="4.4704">
        <ele>275.1</ele>
        <time>2022-06-11T11:14:25Z</time>
      </trkpt>
      <trkpt lat="44.34562" lon="4.47052">
        <ele>274.9</ele>
        <time>2022-06-11T11:14:26Z</time>
      </trkpt>
      <trkpt lat="44.34562" lon="4.47064">
        <ele>274.7</ele>
        <time>2022-06-11T11:14:27Z</time>
      </trkpt>
      <trkpt lat="44.34563" lon="4.47076">
        <ele>274.6</ele>
        <time>2022-06-11T11:14:28Z</time>
      </trkpt>
      <trkpt lat="44.34565" lon="4.47087">
        <ele>274.4</ele>
        <time>2022-06-11T11:14:29Z</time>
      </trkpt>
      <trkpt lat="44.34568" lon="4.47097">
        <ele>274.3</ele>
        <time>2022-06-11T11:14:30Z</time>
      </trkpt>
      <trkpt lat="44.34572" lon="4.47106">
        <ele>274.3</ele>
        <time>2022-06-11T11:14:31Z</time>
      </trkpt>
      <trkpt lat="44.34576" lon="4.47116">
        <ele>274.3</ele>
        <time>2022-06-11T11:14:32Z</time>
      </trkpt>
      <trkpt lat="44.3458" lon="4.47124">
        <ele>274.3</ele>
        <time>2022-06-11T11:14:33Z</time>
      </trkpt>
      <trkpt lat="44.34584" lon="4.47132">
        <ele>274.3</ele>
        <time>2022-06-11T11:14:34Z</time>
      </trkpt>
      <trkpt lat="44.34587" lon="4.47141">
        <ele>274.4</ele>
        <time>2022-06-11T11:14:35Z</time>
      </trkpt>
      <trkpt lat="44.34591" lon="4.47151">
        <ele>274.6</ele>
        <time>2022-06-11T11:14:36Z</time>
      </trkpt>
      <trkpt lat="44.34593" lon="4.4716">
        <ele>274.7</ele>
        <time>2022-06-11T11:14:37Z</time>
      </trkpt>
      <trkpt lat="44.34595" lon="4.47169">
        <ele>274.9</ele>
        <time>2022-06-11T11:14:38Z</time>
      </trkpt>
      <trkpt lat="44.34596" lon="4.47178">
        <ele>275.1</ele>
        <time>2022-06-11T11:14:39Z</time>
      </trkpt>
      <trkpt lat="44.34597" lon="4.47186">
        <ele>275.3</ele>
        <time>2022-06-11T11:14:40Z</time>
      </trkpt>
      <trkpt lat="44.34597" lon="4.47194">
        <ele>275.6</ele>
        <time>2022-06-11T11:14:41Z</time>
      </trkpt>
      <trkpt lat="44.34598" lon="4.47201">
        <ele>275.8</ele>
        <time>2022-06-11T11:14:42Z</time>
      </trkpt>
      <trkpt lat="44.34599" lon="4.47208">
        <ele>276</ele>
        <time>2022-06-11T11:14:43Z</time>
      </trkpt>
      <trkpt lat="44.346" lon="4.47214">
        <ele>276.3</ele>
        <time>2022-06-11T11:14:44Z</time>
      </trkpt>
      <trkpt lat="44.34601" lon="4.4722">
        <ele>276.5</ele>
        <time>2022-06-11T11:14:45Z</time>
      </trkpt>
      <trkpt lat="44.34602" lon="4.47225">
        <ele>276.7</ele>
        <time>2022-06-11T11:14:46Z</time>
      </trkpt>
      <trkpt lat="44.34603" lon="4.4723">
        <ele>277</ele>
        <time>2022-06-11T11:14:47Z</time>
      </trkpt>
      <trkpt lat="44.34604" lon="4.47234">
        <ele>277.2</ele>
        <time>2022-06-11T11:14:48Z</time>
      </trkpt>
      <trkpt lat="44.34606" lon="4.47239">
        <ele>277.5</ele>
        <time>2022-06-11T11:14:49Z</time>
      </trkpt>
      <trkpt lat="44.34608" lon="4.47243">
        <ele>277.7</ele>
        <time>2022-06-11T11:14:50Z</time>
      </trkpt>
      <trkpt lat="44.3461" lon="4.47247">
        <ele>278</ele>
        <time>2022-06-11T11:14:51Z</time>
      </trkpt>
      <trkpt lat="44.34612" lon="4.47252">
        <ele>278.3</ele>
        <time>2022-06-11T11:14:52Z</time>
      </trkpt>
      <trkpt lat="44.34613" lon="4.47254">
        <ele>278.4</ele>
        <time>2022-06-11T11:14:53Z</time>
      </trkpt>
      <trkpt lat="44.34616" lon="4.47258">
        <ele>278.7</ele>
        <time>2022-06-11T11:14:54Z</time>
      </trkpt>
      <trkpt lat="44.34619" lon="4.47261">
        <ele>279</ele>
        <time>2022-06-11T11:14:55Z</time>
      </trkpt>
      <trkpt lat="44.34622" lon="4.47265">
        <ele>279.3</ele>
        <time>2022-06-11T11:14:56Z</time>
      </trkpt>
      <trkpt lat="44.34624" lon="4.47268">
        <ele>279.5</ele>
        <time>2022-06-11T11:14:57Z</time>
      </trkpt>
      <trkpt lat="44.34626" lon="4.4727">
        <ele>279.7</ele>
        <time>2022-06-11T11:14:58Z</time>
      </trkpt>
      <trkpt lat="44.34629" lon="4.47272">
        <ele>280</ele>
        <time>2022-06-11T11:14:59Z</time>
      </trkpt>
      <trkpt lat="44.3463" lon="4.47273">
        <ele>280.1</ele>
        <time>2022-06-11T11:15:00Z</time>
      </trkpt>
      <trkpt lat="44.34632" lon="4.47274">
        <ele>280.2</ele>
        <time>2022-06-11T11:15:01Z</time>
      </trkpt>
      <trkpt lat="44.34634" lon="4.47277">
        <ele>280.5</ele>
        <time>2022-06-11T11:15:03Z</time>
      </trkpt>
      <trkpt lat="44.34636" lon="4.47278">
        <ele>280.6</ele>
        <time>2022-06-11T11:15:04Z</time>
      </trkpt>
      <trkpt lat="44.34637" lon="4.4728">
        <ele>280.7</ele>
        <time>2022-06-11T11:15:05Z</time>
      </trkpt>
      <trkpt lat="44.34639" lon="4.47282">
        <ele>280.9</ele>
        <time>2022-06-11T11:15:06Z</time>
      </trkpt>
      <trkpt lat="44.3464" lon="4.47283">
        <ele>281</ele>
        <time>2022-06-11T11:15:07Z</time>
      </trkpt>
      <trkpt lat="44.34641" lon="4.47284">
        <ele>281.1</ele>
        <time>2022-06-11T11:15:08Z</time>
      </trkpt>
      <trkpt lat="44.34643" lon="4.47286">
        <ele>281.3</ele>
        <time>2022-06-11T11:15:09Z</time>
      </trkpt>
      <trkpt lat="44.34644" lon="4.47287">
        <ele>281.4</ele>
        <time>2022-06-11T11:15:10Z</time>
      </trkpt>
      <trkpt lat="44.34646" lon="4.47288">
        <ele>281.5</ele>
        <time>2022-06-11T11:15:11Z</time>
      </trkpt>
      <trkpt lat="44.34648" lon="4.4729">
        <ele>281.7</ele>
        <time>2022-06-11T11:15:12Z</time>
      </trkpt>
      <trkpt lat="44.34649" lon="4.47291">
        <ele>281.7</ele>
        <time>2022-06-11T11:15:13Z</time>
      </trkpt>
      <trkpt lat="44.34651" lon="4.47294">
        <ele>281.9</ele>
        <time>2022-06-11T11:15:14Z</time>
      </trkpt>
      <trkpt lat="44.34652" lon="4.47295">
        <ele>282</ele>
        <time>2022-06-11T11:15:15Z</time>
      </trkpt>
      <trkpt lat="44.34654" lon="4.47298">
        <ele>282.2</ele>
        <time>2022-06-11T11:15:16Z</time>
      </trkpt>
      <trkpt lat="44.34654" lon="4.47299">
        <ele>282.2</ele>
        <time>2022-06-11T11:15:17Z</time>
      </trkpt>
      <trkpt lat="44.34656" lon="4.47303">
        <ele>282.4</ele>
        <time>2022-06-11T11:15:18Z</time>
      </trkpt>
      <trkpt lat="44.34656" lon="4.47305">
        <ele>282.4</ele>
        <time>2022-06-11T11:15:19Z</time>
      </trkpt>
      <trkpt lat="44.34658" lon="4.47308">
        <ele>282.5</ele>
        <time>2022-06-11T11:15:20Z</time>
      </trkpt>
      <trkpt lat="44.34659" lon="4.47313">
        <ele>282.6</ele>
        <time>2022-06-11T11:15:21Z</time>
      </trkpt>
      <trkpt lat="44.34659" lon="4.47315">
        <ele>282.7</ele>
        <time>2022-06-11T11:15:22Z</time>
      </trkpt>
      <trkpt lat="44.34659" lon="4.47319">
        <ele>282.7</ele>
        <time>2022-06-11T11:15:23Z</time>
      </trkpt>
      <trkpt lat="44.34659" lon="4.47324">
        <ele>282.8</ele>
        <time>2022-06-11T11:15:24Z</time>
      </trkpt>
      <trkpt lat="44.34659" lon="4.47326">
        <ele>282.8</ele>
        <time>2022-06-11T11:15:25Z</time>
      </trkpt>
      <trkpt lat="44.34658" lon="4.47331">
        <ele>282.9</ele>
        <time>2022-06-11T11:15:26Z</time>
      </trkpt>
      <trkpt lat="44.34657" lon="4.47335">
        <ele>282.9</ele>
        <time>2022-06-11T11:15:27Z</time>
      </trkpt>
      <trkpt lat="44.34655" lon="4.4734">
        <ele>282.9</ele>
        <time>2022-06-11T11:15:28Z</time>
      </trkpt>
      <trkpt lat="44.34654" lon="4.47344">
        <ele>282.8</ele>
        <time>2022-06-11T11:15:29Z</time>
      </trkpt>
      <trkpt lat="44.34651" lon="4.4735">
        <ele>282.6</ele>
        <time>2022-06-11T11:15:30Z</time>
      </trkpt>
      <trkpt lat="44.34649" lon="4.47355">
        <ele>282.4</ele>
        <time>2022-06-11T11:15:31Z</time>
      </trkpt>
      <trkpt lat="44.34645" lon="4.4736">
        <ele>282.2</ele>
        <time>2022-06-11T11:15:32Z</time>
      </trkpt>
      <trkpt lat="44.34641" lon="4.47367">
        <ele>281.9</ele>
        <time>2022-06-11T11:15:33Z</time>
      </trkpt>
      <trkpt lat="44.34638" lon="4.47373">
        <ele>281.5</ele>
        <time>2022-06-11T11:15:34Z</time>
      </trkpt>
      <trkpt lat="44.34635" lon="4.47381">
        <ele>281.1</ele>
        <time>2022-06-11T11:15:35Z</time>
      </trkpt>
      <trkpt lat="44.34633" lon="4.47389">
        <ele>280.6</ele>
        <time>2022-06-11T11:15:36Z</time>
      </trkpt>
      <trkpt lat="44.34632" lon="4.47397">
        <ele>280.1</ele>
        <time>2022-06-11T11:15:37Z</time>
      </trkpt>
      <trkpt lat="44.34632" lon="4.47406">
        <ele>279.4</ele>
        <time>2022-06-11T11:15:38Z</time>
      </trkpt>
      <trkpt lat="44.34633" lon="4.47416">
        <ele>278.8</ele>
        <time>2022-06-11T11:15:39Z</time>
      </trkpt>
      <trkpt lat="44.34636" lon="4.47425">
        <ele>278.1</ele>
        <time>2022-06-11T11:15:40Z</time>
      </trkpt>
      <trkpt lat="44.34641" lon="4.47433">
        <ele>277.4</ele>
        <time>2022-06-11T11:15:41Z</time>
      </trkpt>
      <trkpt lat="44.34647" lon="4.47441">
        <ele>276.7</ele>
        <time>2022-06-11T11:15:42Z</time>
      </trkpt>
      <trkpt lat="44.34653" lon="4.47448">
        <ele>276.2</ele>
        <time>2022-06-11T11:15:43Z</time>
      </trkpt>
      <trkpt lat="44.3466" lon="4.47455">
        <ele>275.7</ele>
        <time>2022-06-11T11:15:44Z</time>
      </trkpt>
      <trkpt lat="44.34667" lon="4.47462">
        <ele>275.3</ele>
        <time>2022-06-11T11:15:45Z</time>
      </trkpt>
      <trkpt lat="44.34673" lon="4.47469">
        <ele>275</ele>
        <time>2022-06-11T11:15:46Z</time>
      </trkpt>
      <trkpt lat="44.34679" lon="4.47478">
        <ele>274.8</ele>
        <time>2022-06-11T11:15:47Z</time>
      </trkpt>
      <trkpt lat="44.34682" lon="4.47489">
        <ele>274.5</ele>
        <time>2022-06-11T11:15:48Z</time>
      </trkpt>
      <trkpt lat="44.34683" lon="4.47501">
        <ele>274.2</ele>
        <time>2022-06-11T11:15:49Z</time>
      </trkpt>
      <trkpt lat="44.3468" lon="4.47513">
        <ele>274</ele>
        <time>2022-06-11T11:15:50Z</time>
      </trkpt>
      <trkpt lat="44.34675" lon="4.47523">
        <ele>273.9</ele>
        <time>2022-06-11T11:15:51Z</time>
      </trkpt>
      <trkpt lat="44.34667" lon="4.47529">
        <ele>273.9</ele>
        <time>2022-06-11T11:15:52Z</time>
      </trkpt>
      <trkpt lat="44.3466" lon="4.47533">
        <ele>274</ele>
        <time>2022-06-11T11:15:53Z</time>
      </trkpt>
      <trkpt lat="44.34653" lon="4.47535">
        <ele>274.3</ele>
        <time>2022-06-11T11:15:54Z</time>
      </trkpt>
      <trkpt lat="44.34647" lon="4.47538">
        <ele>274.5</ele>
        <time>2022-06-11T11:15:55Z</time>
      </trkpt>
      <trkpt lat="44.34641" lon="4.4754">
        <ele>274.8</ele>
        <time>2022-06-11T11:15:56Z</time>
      </trkpt>
      <trkpt lat="44.34637" lon="4.47542">
        <ele>275</ele>
        <time>2022-06-11T11:15:57Z</time>
      </trkpt>
      <trkpt lat="44.34632" lon="4.47543">
        <ele>275.3</ele>
        <time>2022-06-11T11:15:58Z</time>
      </trkpt>
      <trkpt lat="44.34628" lon="4.47544">
        <ele>275.6</ele>
        <time>2022-06-11T11:15:59Z</time>
      </trkpt>
      <trkpt lat="44.34624" lon="4.47546">
        <ele>276</ele>
        <time>2022-06-11T11:16:00Z</time>
      </trkpt>
      <trkpt lat="44.34622" lon="4.47546">
        <ele>276.1</ele>
        <time>2022-06-11T11:16:01Z</time>
      </trkpt>
      <trkpt lat="44.34617" lon="4.47548">
        <ele>276.5</ele>
        <time>2022-06-11T11:16:02Z</time>
      </trkpt>
      <trkpt lat="44.34616" lon="4.47549">
        <ele>276.6</ele>
        <time>2022-06-11T11:16:03Z</time>
      </trkpt>
      <trkpt lat="44.34612" lon="4.4755">
        <ele>276.9</ele>
        <time>2022-06-11T11:16:04Z</time>
      </trkpt>
      <trkpt lat="44.34609" lon="4.47551">
        <ele>277.2</ele>
        <time>2022-06-11T11:16:05Z</time>
      </trkpt>
      <trkpt lat="44.34607" lon="4.47552">
        <ele>277.3</ele>
        <time>2022-06-11T11:16:06Z</time>
      </trkpt>
      <trkpt lat="44.34604" lon="4.47549">
        <ele>277.6</ele>
        <time>2022-06-11T11:16:07Z</time>
      </trkpt>
      <trkpt lat="44.346" lon="4.47552">
        <ele>278</ele>
        <time>2022-06-11T11:16:08Z</time>
      </trkpt>
      <trkpt lat="44.34597" lon="4.47554">
        <ele>278.3</ele>
        <time>2022-06-11T11:16:09Z</time>
      </trkpt>
      <trkpt lat="44.34594" lon="4.47556">
        <ele>278.6</ele>
        <time>2022-06-11T11:16:10Z</time>
      </trkpt>
      <trkpt lat="44.3459" lon="4.47557">
        <ele>278.9</ele>
        <time>2022-06-11T11:16:11Z</time>
      </trkpt>
      <trkpt lat="44.34586" lon="4.47559">
        <ele>279.3</ele>
        <time>2022-06-11T11:16:12Z</time>
      </trkpt>
      <trkpt lat="44.34583" lon="4.4756">
        <ele>279.5</ele>
        <time>2022-06-11T11:16:13Z</time>
      </trkpt>
      <trkpt lat="44.34579" lon="4.47562">
        <ele>279.8</ele>
        <time>2022-06-11T11:16:15Z</time>
      </trkpt>
      <trkpt lat="44.34576" lon="4.47562">
        <ele>280.1</ele>
        <time>2022-06-11T11:16:16Z</time>
      </trkpt>
      <trkpt lat="44.34571" lon="4.47564">
        <ele>280.5</ele>
        <time>2022-06-11T11:16:17Z</time>
      </trkpt>
      <trkpt lat="44.34569" lon="4.47565">
        <ele>280.7</ele>
        <time>2022-06-11T11:16:18Z</time>
      </trkpt>
      <trkpt lat="44.34567" lon="4.47566">
        <ele>280.9</ele>
        <time>2022-06-11T11:16:20Z</time>
      </trkpt>
      <trkpt lat="44.34564" lon="4.47567">
        <ele>281.2</ele>
        <time>2022-06-11T11:16:21Z</time>
      </trkpt>
      <trkpt lat="44.34563" lon="4.47568">
        <ele>281.3</ele>
        <time>2022-06-11T11:16:22Z</time>
      </trkpt>
      <trkpt lat="44.3456" lon="4.47569">
        <ele>281.5</ele>
        <time>2022-06-11T11:16:23Z</time>
      </trkpt>
      <trkpt lat="44.34559" lon="4.47569">
        <ele>281.6</ele>
        <time>2022-06-11T11:16:24Z</time>
      </trkpt>
      <trkpt lat="44.34556" lon="4.4757">
        <ele>281.8</ele>
        <time>2022-06-11T11:16:25Z</time>
      </trkpt>
      <trkpt lat="44.34555" lon="4.47571">
        <ele>281.9</ele>
        <time>2022-06-11T11:16:26Z</time>
      </trkpt>
      <trkpt lat="44.34552" lon="4.47572">
        <ele>282.2</ele>
        <time>2022-06-11T11:16:27Z</time>
      </trkpt>
      <trkpt lat="44.34551" lon="4.47573">
        <ele>282.3</ele>
        <time>2022-06-11T11:16:28Z</time>
      </trkpt>
      <trkpt lat="44.34547" lon="4.47574">
        <ele>282.6</ele>
        <time>2022-06-11T11:16:29Z</time>
      </trkpt>
      <trkpt lat="44.34544" lon="4.47574">
        <ele>282.9</ele>
        <time>2022-06-11T11:16:31Z</time>
      </trkpt>
      <trkpt lat="44.34544" lon="4.47575">
        <ele>282.9</ele>
        <time>2022-06-11T11:16:32Z</time>
      </trkpt>
      <trkpt lat="44.34541" lon="4.47576">
        <ele>283.2</ele>
        <time>2022-06-11T11:16:33Z</time>
      </trkpt>
      <trkpt lat="44.3454" lon="4.47576">
        <ele>283.3</ele>
        <time>2022-06-11T11:16:34Z</time>
      </trkpt>
      <trkpt lat="44.34536" lon="4.47577">
        <ele>283.6</ele>
        <time>2022-06-11T11:16:35Z</time>
      </trkpt>
      <trkpt lat="44.34533" lon="4.47578">
        <ele>283.9</ele>
        <time>2022-06-11T11:16:37Z</time>
      </trkpt>
      <trkpt lat="44.34532" lon="4.47578">
        <ele>284</ele>
        <time>2022-06-11T11:16:38Z</time>
      </trkpt>
      <trkpt lat="44.34529" lon="4.4758">
        <ele>284.3</ele>
        <time>2022-06-11T11:16:39Z</time>
      </trkpt>
      <trkpt lat="44.34526" lon="4.47581">
        <ele>284.6</ele>
        <time>2022-06-11T11:16:41Z</time>
      </trkpt>
      <trkpt lat="44.34525" lon="4.47581">
        <ele>284.6</ele>
        <time>2022-06-11T11:16:42Z</time>
      </trkpt>
      <trkpt lat="44.34522" lon="4.47582">
        <ele>284.9</ele>
        <time>2022-06-11T11:16:43Z</time>
      </trkpt>
      <trkpt lat="44.34521" lon="4.47582">
        <ele>285</ele>
        <time>2022-06-11T11:16:44Z</time>
      </trkpt>
      <trkpt lat="44.34518" lon="4.47583">
        <ele>285.2</ele>
        <time>2022-06-11T11:16:45Z</time>
      </trkpt>
      <trkpt lat="44.34517" lon="4.47584">
        <ele>285.3</ele>
        <time>2022-06-11T11:16:46Z</time>
      </trkpt>
      <trkpt lat="44.34514" lon="4.47585">
        <ele>285.6</ele>
        <time>2022-06-11T11:16:47Z</time>
      </trkpt>
      <trkpt lat="44.34511" lon="4.47586">
        <ele>285.9</ele>
        <time>2022-06-11T11:16:49Z</time>
      </trkpt>
      <trkpt lat="44.3451" lon="4.47587">
        <ele>285.9</ele>
        <time>2022-06-11T11:16:50Z</time>
      </trkpt>
      <trkpt lat="44.34508" lon="4.47589">
        <ele>286.2</ele>
        <time>2022-06-11T11:16:51Z</time>
      </trkpt>
      <trkpt lat="44.34506" lon="4.4759">
        <ele>286.3</ele>
        <time>2022-06-11T11:16:52Z</time>
      </trkpt>
      <trkpt lat="44.34503" lon="4.47591">
        <ele>286.5</ele>
        <time>2022-06-11T11:16:54Z</time>
      </trkpt>
      <trkpt lat="44.345" lon="4.47592">
        <ele>286.8</ele>
        <time>2022-06-11T11:16:55Z</time>
      </trkpt>
      <trkpt lat="44.34499" lon="4.47594">
        <ele>286.9</ele>
        <time>2022-06-11T11:16:56Z</time>
      </trkpt>
      <trkpt lat="44.34497" lon="4.47595">
        <ele>287</ele>
        <time>2022-06-11T11:16:58Z</time>
      </trkpt>
      <trkpt lat="44.34494" lon="4.47598">
        <ele>287.3</ele>
        <time>2022-06-11T11:17:00Z</time>
      </trkpt>
      <trkpt lat="44.34491" lon="4.47601">
        <ele>287.5</ele>
        <time>2022-06-11T11:17:01Z</time>
      </trkpt>
      <trkpt lat="44.3449" lon="4.47601">
        <ele>287.6</ele>
        <time>2022-06-11T11:17:02Z</time>
      </trkpt>
      <trkpt lat="44.34488" lon="4.47604">
        <ele>287.7</ele>
        <time>2022-06-11T11:17:03Z</time>
      </trkpt>
      <trkpt lat="44.34487" lon="4.47605">
        <ele>287.8</ele>
        <time>2022-06-11T11:17:04Z</time>
      </trkpt>
      <trkpt lat="44.34485" lon="4.47608">
        <ele>288</ele>
        <time>2022-06-11T11:17:05Z</time>
      </trkpt>
      <trkpt lat="44.34484" lon="4.4761">
        <ele>288</ele>
        <time>2022-06-11T11:17:06Z</time>
      </trkpt>
      <trkpt lat="44.34482" lon="4.47613">
        <ele>288.2</ele>
        <time>2022-06-11T11:17:07Z</time>
      </trkpt>
      <trkpt lat="44.34481" lon="4.47615">
        <ele>288.2</ele>
        <time>2022-06-11T11:17:08Z</time>
      </trkpt>
      <trkpt lat="44.34479" lon="4.4762">
        <ele>288.4</ele>
        <time>2022-06-11T11:17:09Z</time>
      </trkpt>
      <trkpt lat="44.34477" lon="4.47622">
        <ele>288.5</ele>
        <time>2022-06-11T11:17:10Z</time>
      </trkpt>
      <trkpt lat="44.34476" lon="4.47625">
        <ele>288.6</ele>
        <time>2022-06-11T11:17:12Z</time>
      </trkpt>
      <trkpt lat="44.34474" lon="4.4763">
        <ele>288.7</ele>
        <time>2022-06-11T11:17:13Z</time>
      </trkpt>
      <trkpt lat="44.34474" lon="4.47632">
        <ele>288.8</ele>
        <time>2022-06-11T11:17:14Z</time>
      </trkpt>
      <trkpt lat="44.34471" lon="4.47637">
        <ele>288.9</ele>
        <time>2022-06-11T11:17:15Z</time>
      </trkpt>
      <trkpt lat="44.3447" lon="4.4764">
        <ele>289</ele>
        <time>2022-06-11T11:17:16Z</time>
      </trkpt>
      <trkpt lat="44.34468" lon="4.47644">
        <ele>289.1</ele>
        <time>2022-06-11T11:17:17Z</time>
      </trkpt>
      <trkpt lat="44.34466" lon="4.47647">
        <ele>289.2</ele>
        <time>2022-06-11T11:17:18Z</time>
      </trkpt>
      <trkpt lat="44.34463" lon="4.47651">
        <ele>289.4</ele>
        <time>2022-06-11T11:17:20Z</time>
      </trkpt>
      <trkpt lat="44.34461" lon="4.47652">
        <ele>289.4</ele>
        <time>2022-06-11T11:17:21Z</time>
      </trkpt>
      <trkpt lat="44.3446" lon="4.47654">
        <ele>289.5</ele>
        <time>2022-06-11T11:17:22Z</time>
      </trkpt>
      <trkpt lat="44.34456" lon="4.47656">
        <ele>289.6</ele>
        <time>2022-06-11T11:17:23Z</time>
      </trkpt>
      <trkpt lat="44.34453" lon="4.47658">
        <ele>289.7</ele>
        <time>2022-06-11T11:17:24Z</time>
      </trkpt>
      <trkpt lat="44.3445" lon="4.47659">
        <ele>289.8</ele>
        <time>2022-06-11T11:17:26Z</time>
      </trkpt>
      <trkpt lat="44.34447" lon="4.47661">
        <ele>289.8</ele>
        <time>2022-06-11T11:17:27Z</time>
      </trkpt>
      <trkpt lat="44.34443" lon="4.47662">
        <ele>289.9</ele>
        <time>2022-06-11T11:17:28Z</time>
      </trkpt>
      <trkpt lat="44.34442" lon="4.47663">
        <ele>289.9</ele>
        <time>2022-06-11T11:17:29Z</time>
      </trkpt>
      <trkpt lat="44.34439" lon="4.47664">
        <ele>290</ele>
        <time>2022-06-11T11:17:30Z</time>
      </trkpt>
      <trkpt lat="44.34437" lon="4.47665">
        <ele>290.1</ele>
        <time>2022-06-11T11:17:31Z</time>
      </trkpt>
      <trkpt lat="44.34434" lon="4.47666">
        <ele>290.1</ele>
        <time>2022-06-11T11:17:32Z</time>
      </trkpt>
      <trkpt lat="44.34431" lon="4.47668">
        <ele>290.2</ele>
        <time>2022-06-11T11:17:33Z</time>
      </trkpt>
      <trkpt lat="44.34428" lon="4.4767">
        <ele>290.2</ele>
        <time>2022-06-11T11:17:34Z</time>
      </trkpt>
      <trkpt lat="44.34422" lon="4.47672">
        <ele>290.3</ele>
        <time>2022-06-11T11:17:35Z</time>
      </trkpt>
      <trkpt lat="44.34419" lon="4.47673">
        <ele>290.4</ele>
        <time>2022-06-11T11:17:37Z</time>
      </trkpt>
      <trkpt lat="44.34416" lon="4.47675">
        <ele>290.5</ele>
        <time>2022-06-11T11:17:38Z</time>
      </trkpt>
      <trkpt lat="44.3441" lon="4.47677">
        <ele>290.6</ele>
        <time>2022-06-11T11:17:39Z</time>
      </trkpt>
      <trkpt lat="44.34407" lon="4.47678">
        <ele>290.6</ele>
        <time>2022-06-11T11:17:41Z</time>
      </trkpt>
      <trkpt lat="44.34404" lon="4.4768">
        <ele>290.7</ele>
        <time>2022-06-11T11:17:42Z</time>
      </trkpt>
      <trkpt lat="44.34401" lon="4.47681">
        <ele>290.8</ele>
        <time>2022-06-11T11:17:43Z</time>
      </trkpt>
      <trkpt lat="44.34395" lon="4.47682">
        <ele>290.9</ele>
        <time>2022-06-11T11:17:44Z</time>
      </trkpt>
      <trkpt lat="44.34392" lon="4.47683">
        <ele>290.9</ele>
        <time>2022-06-11T11:17:46Z</time>
      </trkpt>
      <trkpt lat="44.34388" lon="4.47685">
        <ele>291</ele>
        <time>2022-06-11T11:17:47Z</time>
      </trkpt>
      <trkpt lat="44.34383" lon="4.47687">
        <ele>291</ele>
        <time>2022-06-11T11:17:48Z</time>
      </trkpt>
      <trkpt lat="44.34379" lon="4.47688">
        <ele>291.1</ele>
        <time>2022-06-11T11:17:50Z</time>
      </trkpt>
      <trkpt lat="44.34373" lon="4.47689">
        <ele>291.1</ele>
        <time>2022-06-11T11:17:51Z</time>
      </trkpt>
      <trkpt lat="44.34367" lon="4.47688">
        <ele>291</ele>
        <time>2022-06-11T11:17:53Z</time>
      </trkpt>
      <trkpt lat="44.34363" lon="4.47687">
        <ele>290.9</ele>
        <time>2022-06-11T11:17:54Z</time>
      </trkpt>
      <trkpt lat="44.34357" lon="4.47685">
        <ele>290.8</ele>
        <time>2022-06-11T11:17:55Z</time>
      </trkpt>
      <trkpt lat="44.34353" lon="4.47683">
        <ele>290.7</ele>
        <time>2022-06-11T11:17:57Z</time>
      </trkpt>
      <trkpt lat="44.34348" lon="4.47681">
        <ele>290.6</ele>
        <time>2022-06-11T11:17:58Z</time>
      </trkpt>
      <trkpt lat="44.34343" lon="4.47679">
        <ele>290.4</ele>
        <time>2022-06-11T11:17:59Z</time>
      </trkpt>
      <trkpt lat="44.34336" lon="4.47679">
        <ele>290.3</ele>
        <time>2022-06-11T11:18:00Z</time>
      </trkpt>
      <trkpt lat="44.34332" lon="4.47679">
        <ele>290.2</ele>
        <time>2022-06-11T11:18:02Z</time>
      </trkpt>
      <trkpt lat="44.34325" lon="4.47678">
        <ele>290</ele>
        <time>2022-06-11T11:18:03Z</time>
      </trkpt>
      <trkpt lat="44.3432" lon="4.47677">
        <ele>289.9</ele>
        <time>2022-06-11T11:18:04Z</time>
      </trkpt>
      <trkpt lat="44.34315" lon="4.47677">
        <ele>289.8</ele>
        <time>2022-06-11T11:18:05Z</time>
      </trkpt>
      <trkpt lat="44.3431" lon="4.47677">
        <ele>289.8</ele>
        <time>2022-06-11T11:18:07Z</time>
      </trkpt>
      <trkpt lat="44.34304" lon="4.47678">
        <ele>289.7</ele>
        <time>2022-06-11T11:18:08Z</time>
      </trkpt>
      <trkpt lat="44.34299" lon="4.47679">
        <ele>289.6</ele>
        <time>2022-06-11T11:18:09Z</time>
      </trkpt>
      <trkpt lat="44.34293" lon="4.47682">
        <ele>289.6</ele>
        <time>2022-06-11T11:18:11Z</time>
      </trkpt>
      <trkpt lat="44.34289" lon="4.47684">
        <ele>289.6</ele>
        <time>2022-06-11T11:18:12Z</time>
      </trkpt>
      <trkpt lat="44.34285" lon="4.47686">
        <ele>289.6</ele>
        <time>2022-06-11T11:18:13Z</time>
      </trkpt>
      <trkpt lat="44.34282" lon="4.47688">
        <ele>289.7</ele>
        <time>2022-06-11T11:18:14Z</time>
      </trkpt>
      <trkpt lat="44.34279" lon="4.47689">
        <ele>289.8</ele>
        <time>2022-06-11T11:18:15Z</time>
      </trkpt>
      <trkpt lat="44.34276" lon="4.47692">
        <ele>289.9</ele>
        <time>2022-06-11T11:18:16Z</time>
      </trkpt>
      <trkpt lat="44.34272" lon="4.47694">
        <ele>290</ele>
        <time>2022-06-11T11:18:18Z</time>
      </trkpt>
      <trkpt lat="44.34271" lon="4.47695">
        <ele>290.1</ele>
        <time>2022-06-11T11:18:19Z</time>
      </trkpt>
      <trkpt lat="44.34269" lon="4.47696">
        <ele>290.2</ele>
        <time>2022-06-11T11:18:21Z</time>
      </trkpt>
      <trkpt lat="44.34265" lon="4.477">
        <ele>290.4</ele>
        <time>2022-06-11T11:18:22Z</time>
      </trkpt>
      <trkpt lat="44.34262" lon="4.47702">
        <ele>290.6</ele>
        <time>2022-06-11T11:18:24Z</time>
      </trkpt>
      <trkpt lat="44.3426" lon="4.47703">
        <ele>290.7</ele>
        <time>2022-06-11T11:18:25Z</time>
      </trkpt>
      <trkpt lat="44.34259" lon="4.47704">
        <ele>290.7</ele>
        <time>2022-06-11T11:18:26Z</time>
      </trkpt>
      <trkpt lat="44.34256" lon="4.47706">
        <ele>290.9</ele>
        <time>2022-06-11T11:18:27Z</time>
      </trkpt>
      <trkpt lat="44.34255" lon="4.47707">
        <ele>291</ele>
        <time>2022-06-11T11:18:28Z</time>
      </trkpt>
      <trkpt lat="44.34252" lon="4.47709">
        <ele>291.2</ele>
        <time>2022-06-11T11:18:29Z</time>
      </trkpt>
      <trkpt lat="44.34251" lon="4.4771">
        <ele>291.3</ele>
        <time>2022-06-11T11:18:30Z</time>
      </trkpt>
      <trkpt lat="44.34248" lon="4.47714">
        <ele>291.6</ele>
        <time>2022-06-11T11:18:32Z</time>
      </trkpt>
      <trkpt lat="44.34244" lon="4.47715">
        <ele>291.8</ele>
        <time>2022-06-11T11:18:33Z</time>
      </trkpt>
      <trkpt lat="44.34242" lon="4.47717">
        <ele>292</ele>
        <time>2022-06-11T11:18:34Z</time>
      </trkpt>
      <trkpt lat="44.3424" lon="4.47718">
        <ele>292.2</ele>
        <time>2022-06-11T11:18:36Z</time>
      </trkpt>
      <trkpt lat="44.34237" lon="4.47722">
        <ele>292.6</ele>
        <time>2022-06-11T11:18:37Z</time>
      </trkpt>
      <trkpt lat="44.34235" lon="4.47723">
        <ele>292.7</ele>
        <time>2022-06-11T11:18:38Z</time>
      </trkpt>
      <trkpt lat="44.34232" lon="4.47726">
        <ele>293.1</ele>
        <time>2022-06-11T11:18:39Z</time>
      </trkpt>
      <trkpt lat="44.3423" lon="4.47727">
        <ele>293.2</ele>
        <time>2022-06-11T11:18:40Z</time>
      </trkpt>
      <trkpt lat="44.34229" lon="4.47728">
        <ele>293.3</ele>
        <time>2022-06-11T11:18:41Z</time>
      </trkpt>
      <trkpt lat="44.34228" lon="4.47729">
        <ele>293.5</ele>
        <time>2022-06-11T11:18:42Z</time>
      </trkpt>
      <trkpt lat="44.34226" lon="4.47731">
        <ele>293.7</ele>
        <time>2022-06-11T11:18:43Z</time>
      </trkpt>
      <trkpt lat="44.34224" lon="4.47733">
        <ele>293.9</ele>
        <time>2022-06-11T11:18:45Z</time>
      </trkpt>
      <trkpt lat="44.34221" lon="4.47736">
        <ele>294.3</ele>
        <time>2022-06-11T11:18:46Z</time>
      </trkpt>
      <trkpt lat="44.34221" lon="4.47737">
        <ele>294.4</ele>
        <time>2022-06-11T11:18:47Z</time>
      </trkpt>
      <trkpt lat="44.34218" lon="4.4774">
        <ele>294.7</ele>
        <time>2022-06-11T11:18:48Z</time>
      </trkpt>
      <trkpt lat="44.34217" lon="4.47741">
        <ele>294.8</ele>
        <time>2022-06-11T11:18:49Z</time>
      </trkpt>
      <trkpt lat="44.34215" lon="4.47744">
        <ele>295.1</ele>
        <time>2022-06-11T11:18:50Z</time>
      </trkpt>
      <trkpt lat="44.34215" lon="4.47745">
        <ele>295.2</ele>
        <time>2022-06-11T11:18:51Z</time>
      </trkpt>
      <trkpt lat="44.34213" lon="4.47749">
        <ele>295.5</ele>
        <time>2022-06-11T11:18:52Z</time>
      </trkpt>
      <trkpt lat="44.34212" lon="4.47753">
        <ele>295.8</ele>
        <time>2022-06-11T11:18:54Z</time>
      </trkpt>
      <trkpt lat="44.34211" lon="4.47754">
        <ele>295.9</ele>
        <time>2022-06-11T11:18:55Z</time>
      </trkpt>
      <trkpt lat="44.3421" lon="4.47756">
        <ele>296</ele>
        <time>2022-06-11T11:18:56Z</time>
      </trkpt>
      <trkpt lat="44.3421" lon="4.47758">
        <ele>296.2</ele>
        <time>2022-06-11T11:18:57Z</time>
      </trkpt>
      <trkpt lat="44.34209" lon="4.4776">
        <ele>296.4</ele>
        <time>2022-06-11T11:18:58Z</time>
      </trkpt>
      <trkpt lat="44.34208" lon="4.47762">
        <ele>296.5</ele>
        <time>2022-06-11T11:18:59Z</time>
      </trkpt>
      <trkpt lat="44.34207" lon="4.47764">
        <ele>296.7</ele>
        <time>2022-06-11T11:19:00Z</time>
      </trkpt>
      <trkpt lat="44.34207" lon="4.47767">
        <ele>296.8</ele>
        <time>2022-06-11T11:19:01Z</time>
      </trkpt>
      <trkpt lat="44.34207" lon="4.47769">
        <ele>297</ele>
        <time>2022-06-11T11:19:02Z</time>
      </trkpt>
      <trkpt lat="44.34206" lon="4.47771">
        <ele>297.1</ele>
        <time>2022-06-11T11:19:03Z</time>
      </trkpt>
      <trkpt lat="44.34206" lon="4.47773">
        <ele>297.3</ele>
        <time>2022-06-11T11:19:04Z</time>
      </trkpt>
      <trkpt lat="44.34205" lon="4.47776">
        <ele>297.5</ele>
        <time>2022-06-11T11:19:05Z</time>
      </trkpt>
      <trkpt lat="44.34205" lon="4.47779">
        <ele>297.7</ele>
        <time>2022-06-11T11:19:06Z</time>
      </trkpt>
      <trkpt lat="44.34204" lon="4.4778">
        <ele>297.8</ele>
        <time>2022-06-11T11:19:07Z</time>
      </trkpt>
      <trkpt lat="44.34204" lon="4.47782">
        <ele>298</ele>
        <time>2022-06-11T11:19:08Z</time>
      </trkpt>
      <trkpt lat="44.34203" lon="4.47785">
        <ele>298.1</ele>
        <time>2022-06-11T11:19:09Z</time>
      </trkpt>
      <trkpt lat="44.34203" lon="4.47787">
        <ele>298.3</ele>
        <time>2022-06-11T11:19:10Z</time>
      </trkpt>
      <trkpt lat="44.34202" lon="4.47789">
        <ele>298.4</ele>
        <time>2022-06-11T11:19:11Z</time>
      </trkpt>
      <trkpt lat="44.34202" lon="4.47791">
        <ele>298.6</ele>
        <time>2022-06-11T11:19:12Z</time>
      </trkpt>
      <trkpt lat="44.34202" lon="4.47795">
        <ele>298.8</ele>
        <time>2022-06-11T11:19:13Z</time>
      </trkpt>
      <trkpt lat="44.342" lon="4.478">
        <ele>299.2</ele>
        <time>2022-06-11T11:19:15Z</time>
      </trkpt>
      <trkpt lat="44.34199" lon="4.47802">
        <ele>299.3</ele>
        <time>2022-06-11T11:19:17Z</time>
      </trkpt>
      <trkpt lat="44.34199" lon="4.47805">
        <ele>299.5</ele>
        <time>2022-06-11T11:19:18Z</time>
      </trkpt>
      <trkpt lat="44.34198" lon="4.47806">
        <ele>299.6</ele>
        <time>2022-06-11T11:19:19Z</time>
      </trkpt>
      <trkpt lat="44.34196" lon="4.47813">
        <ele>300</ele>
        <time>2022-06-11T11:19:21Z</time>
      </trkpt>
      <trkpt lat="44.34195" lon="4.47816">
        <ele>300.2</ele>
        <time>2022-06-11T11:19:23Z</time>
      </trkpt>
      <trkpt lat="44.34192" lon="4.47819">
        <ele>300.4</ele>
        <time>2022-06-11T11:19:24Z</time>
      </trkpt>
      <trkpt lat="44.34192" lon="4.4782">
        <ele>300.5</ele>
        <time>2022-06-11T11:19:25Z</time>
      </trkpt>
      <trkpt lat="44.34189" lon="4.47823">
        <ele>300.7</ele>
        <time>2022-06-11T11:19:26Z</time>
      </trkpt>
      <trkpt lat="44.34189" lon="4.47824">
        <ele>300.7</ele>
        <time>2022-06-11T11:19:27Z</time>
      </trkpt>
      <trkpt lat="44.34186" lon="4.47826">
        <ele>300.9</ele>
        <time>2022-06-11T11:19:28Z</time>
      </trkpt>
      <trkpt lat="44.34185" lon="4.47827">
        <ele>301</ele>
        <time>2022-06-11T11:19:29Z</time>
      </trkpt>
      <trkpt lat="44.34183" lon="4.47829">
        <ele>301.1</ele>
        <time>2022-06-11T11:19:30Z</time>
      </trkpt>
      <trkpt lat="44.34182" lon="4.4783">
        <ele>301.2</ele>
        <time>2022-06-11T11:19:31Z</time>
      </trkpt>
      <trkpt lat="44.3418" lon="4.47832">
        <ele>301.3</ele>
        <time>2022-06-11T11:19:32Z</time>
      </trkpt>
      <trkpt lat="44.34175" lon="4.47836">
        <ele>301.5</ele>
        <time>2022-06-11T11:19:34Z</time>
      </trkpt>
      <trkpt lat="44.34173" lon="4.47838">
        <ele>301.6</ele>
        <time>2022-06-11T11:19:36Z</time>
      </trkpt>
      <trkpt lat="44.3417" lon="4.47841">
        <ele>301.6</ele>
        <time>2022-06-11T11:19:37Z</time>
      </trkpt>
      <trkpt lat="44.34169" lon="4.47842">
        <ele>301.6</ele>
        <time>2022-06-11T11:19:38Z</time>
      </trkpt>
      <trkpt lat="44.34165" lon="4.47846">
        <ele>301.8</ele>
        <time>2022-06-11T11:19:39Z</time>
      </trkpt>
      <trkpt lat="44.34163" lon="4.47848">
        <ele>301.8</ele>
        <time>2022-06-11T11:19:41Z</time>
      </trkpt>
      <trkpt lat="44.3416" lon="4.4785">
        <ele>301.8</ele>
        <time>2022-06-11T11:19:42Z</time>
      </trkpt>
      <trkpt lat="44.34156" lon="4.47855">
        <ele>301.9</ele>
        <time>2022-06-11T11:19:43Z</time>
      </trkpt>
      <trkpt lat="44.34154" lon="4.47857">
        <ele>301.9</ele>
        <time>2022-06-11T11:19:44Z</time>
      </trkpt>
      <trkpt lat="44.34151" lon="4.47861">
        <ele>301.9</ele>
        <time>2022-06-11T11:19:46Z</time>
      </trkpt>
      <trkpt lat="44.34149" lon="4.47863">
        <ele>301.9</ele>
        <time>2022-06-11T11:19:47Z</time>
      </trkpt>
      <trkpt lat="44.34148" lon="4.47865">
        <ele>301.9</ele>
        <time>2022-06-11T11:19:48Z</time>
      </trkpt>
      <trkpt lat="44.34145" lon="4.47866">
        <ele>301.9</ele>
        <time>2022-06-11T11:19:49Z</time>
      </trkpt>
      <trkpt lat="44.34142" lon="4.47868">
        <ele>301.9</ele>
        <time>2022-06-11T11:19:50Z</time>
      </trkpt>
      <trkpt lat="44.34139" lon="4.4787">
        <ele>301.9</ele>
        <time>2022-06-11T11:19:51Z</time>
      </trkpt>
      <trkpt lat="44.34134" lon="4.47875">
        <ele>301.8</ele>
        <time>2022-06-11T11:19:52Z</time>
      </trkpt>
      <trkpt lat="44.34131" lon="4.47877">
        <ele>301.7</ele>
        <time>2022-06-11T11:19:53Z</time>
      </trkpt>
      <trkpt lat="44.34126" lon="4.4788">
        <ele>301.7</ele>
        <time>2022-06-11T11:19:55Z</time>
      </trkpt>
      <trkpt lat="44.34123" lon="4.47882">
        <ele>301.6</ele>
        <time>2022-06-11T11:19:56Z</time>
      </trkpt>
      <trkpt lat="44.34119" lon="4.47883">
        <ele>301.5</ele>
        <time>2022-06-11T11:19:57Z</time>
      </trkpt>
      <trkpt lat="44.34115" lon="4.47885">
        <ele>301.4</ele>
        <time>2022-06-11T11:19:58Z</time>
      </trkpt>
      <trkpt lat="44.34111" lon="4.47887">
        <ele>301.3</ele>
        <time>2022-06-11T11:19:59Z</time>
      </trkpt>
      <trkpt lat="44.34106" lon="4.47888">
        <ele>301.2</ele>
        <time>2022-06-11T11:20:00Z</time>
      </trkpt>
      <trkpt lat="44.34101" lon="4.4789">
        <ele>301</ele>
        <time>2022-06-11T11:20:01Z</time>
      </trkpt>
      <trkpt lat="44.34097" lon="4.47893">
        <ele>300.9</ele>
        <time>2022-06-11T11:20:02Z</time>
      </trkpt>
      <trkpt lat="44.34092" lon="4.47894">
        <ele>300.8</ele>
        <time>2022-06-11T11:20:03Z</time>
      </trkpt>
      <trkpt lat="44.34087" lon="4.47896">
        <ele>300.7</ele>
        <time>2022-06-11T11:20:04Z</time>
      </trkpt>
      <trkpt lat="44.34082" lon="4.47898">
        <ele>300.5</ele>
        <time>2022-06-11T11:20:05Z</time>
      </trkpt>
      <trkpt lat="44.34078" lon="4.47901">
        <ele>300.4</ele>
        <time>2022-06-11T11:20:06Z</time>
      </trkpt>
      <trkpt lat="44.34073" lon="4.47903">
        <ele>300.3</ele>
        <time>2022-06-11T11:20:07Z</time>
      </trkpt>
      <trkpt lat="44.34069" lon="4.47904">
        <ele>300.2</ele>
        <time>2022-06-11T11:20:08Z</time>
      </trkpt>
      <trkpt lat="44.34067" lon="4.47904">
        <ele>300.1</ele>
        <time>2022-06-11T11:20:09Z</time>
      </trkpt>
      <trkpt lat="44.34062" lon="4.47906">
        <ele>300</ele>
        <time>2022-06-11T11:20:11Z</time>
      </trkpt>
      <trkpt lat="44.34061" lon="4.47906">
        <ele>299.9</ele>
        <time>2022-06-11T11:20:12Z</time>
      </trkpt>
      <trkpt lat="44.34059" lon="4.47906">
        <ele>299.9</ele>
        <time>2022-06-11T11:20:13Z</time>
      </trkpt>
      <trkpt lat="44.34057" lon="4.47907">
        <ele>299.8</ele>
        <time>2022-06-11T11:20:14Z</time>
      </trkpt>
      <trkpt lat="44.34056" lon="4.47908">
        <ele>299.8</ele>
        <time>2022-06-11T11:20:15Z</time>
      </trkpt>
      <trkpt lat="44.34052" lon="4.47909">
        <ele>299.6</ele>
        <time>2022-06-11T11:20:16Z</time>
      </trkpt>
      <trkpt lat="44.34051" lon="4.4791">
        <ele>299.6</ele>
        <time>2022-06-11T11:20:17Z</time>
      </trkpt>
      <trkpt lat="44.34048" lon="4.47911">
        <ele>299.5</ele>
        <time>2022-06-11T11:20:18Z</time>
      </trkpt>
      <trkpt lat="44.34045" lon="4.47913">
        <ele>299.4</ele>
        <time>2022-06-11T11:20:19Z</time>
      </trkpt>
      <trkpt lat="44.34038" lon="4.47914">
        <ele>299.2</ele>
        <time>2022-06-11T11:20:20Z</time>
      </trkpt>
      <trkpt lat="44.34032" lon="4.47917">
        <ele>299</ele>
        <time>2022-06-11T11:20:22Z</time>
      </trkpt>
      <trkpt lat="44.34029" lon="4.47918">
        <ele>298.9</ele>
        <time>2022-06-11T11:20:23Z</time>
      </trkpt>
      <trkpt lat="44.34025" lon="4.47921">
        <ele>298.8</ele>
        <time>2022-06-11T11:20:24Z</time>
      </trkpt>
      <trkpt lat="44.34021" lon="4.47925">
        <ele>298.6</ele>
        <time>2022-06-11T11:20:25Z</time>
      </trkpt>
      <trkpt lat="44.34016" lon="4.47932">
        <ele>298.4</ele>
        <time>2022-06-11T11:20:27Z</time>
      </trkpt>
      <trkpt lat="44.34012" lon="4.47937">
        <ele>298.2</ele>
        <time>2022-06-11T11:20:28Z</time>
      </trkpt>
      <trkpt lat="44.34009" lon="4.47944">
        <ele>298</ele>
        <time>2022-06-11T11:20:29Z</time>
      </trkpt>
      <trkpt lat="44.34006" lon="4.47951">
        <ele>297.8</ele>
        <time>2022-06-11T11:20:30Z</time>
      </trkpt>
      <trkpt lat="44.34004" lon="4.47959">
        <ele>297.5</ele>
        <time>2022-06-11T11:20:31Z</time>
      </trkpt>
      <trkpt lat="44.34002" lon="4.47967">
        <ele>297.3</ele>
        <time>2022-06-11T11:20:32Z</time>
      </trkpt>
      <trkpt lat="44.34001" lon="4.47975">
        <ele>297.1</ele>
        <time>2022-06-11T11:20:33Z</time>
      </trkpt>
      <trkpt lat="44.34" lon="4.47984">
        <ele>297</ele>
        <time>2022-06-11T11:20:34Z</time>
      </trkpt>
      <trkpt lat="44.33999" lon="4.47992">
        <ele>296.9</ele>
        <time>2022-06-11T11:20:35Z</time>
      </trkpt>
      <trkpt lat="44.33998" lon="4.48001">
        <ele>296.8</ele>
        <time>2022-06-11T11:20:36Z</time>
      </trkpt>
      <trkpt lat="44.33996" lon="4.4801">
        <ele>296.7</ele>
        <time>2022-06-11T11:20:37Z</time>
      </trkpt>
      <trkpt lat="44.33995" lon="4.48019">
        <ele>296.6</ele>
        <time>2022-06-11T11:20:38Z</time>
      </trkpt>
      <trkpt lat="44.33994" lon="4.48029">
        <ele>296.4</ele>
        <time>2022-06-11T11:20:39Z</time>
      </trkpt>
      <trkpt lat="44.33993" lon="4.48038">
        <ele>296.3</ele>
        <time>2022-06-11T11:20:40Z</time>
      </trkpt>
      <trkpt lat="44.33993" lon="4.48047">
        <ele>296.1</ele>
        <time>2022-06-11T11:20:41Z</time>
      </trkpt>
      <trkpt lat="44.33995" lon="4.48056">
        <ele>295.9</ele>
        <time>2022-06-11T11:20:42Z</time>
      </trkpt>
      <trkpt lat="44.33999" lon="4.48063">
        <ele>295.7</ele>
        <time>2022-06-11T11:20:43Z</time>
      </trkpt>
      <trkpt lat="44.34004" lon="4.48069">
        <ele>295.5</ele>
        <time>2022-06-11T11:20:44Z</time>
      </trkpt>
      <trkpt lat="44.34011" lon="4.48072">
        <ele>295.2</ele>
        <time>2022-06-11T11:20:45Z</time>
      </trkpt>
      <trkpt lat="44.34018" lon="4.48072">
        <ele>295</ele>
        <time>2022-06-11T11:20:46Z</time>
      </trkpt>
      <trkpt lat="44.34024" lon="4.4807">
        <ele>294.7</ele>
        <time>2022-06-11T11:20:47Z</time>
      </trkpt>
      <trkpt lat="44.34031" lon="4.48065">
        <ele>294.5</ele>
        <time>2022-06-11T11:20:48Z</time>
      </trkpt>
      <trkpt lat="44.34037" lon="4.4806">
        <ele>294.3</ele>
        <time>2022-06-11T11:20:49Z</time>
      </trkpt>
      <trkpt lat="44.34043" lon="4.48055">
        <ele>294.1</ele>
        <time>2022-06-11T11:20:50Z</time>
      </trkpt>
      <trkpt lat="44.34049" lon="4.48051">
        <ele>293.9</ele>
        <time>2022-06-11T11:20:51Z</time>
      </trkpt>
      <trkpt lat="44.34055" lon="4.48046">
        <ele>293.8</ele>
        <time>2022-06-11T11:20:52Z</time>
      </trkpt>
      <trkpt lat="44.34061" lon="4.48042">
        <ele>293.6</ele>
        <time>2022-06-11T11:20:53Z</time>
      </trkpt>
      <trkpt lat="44.34068" lon="4.48038">
        <ele>293.4</ele>
        <time>2022-06-11T11:20:54Z</time>
      </trkpt>
      <trkpt lat="44.34075" lon="4.48035">
        <ele>293.2</ele>
        <time>2022-06-11T11:20:55Z</time>
      </trkpt>
      <trkpt lat="44.34082" lon="4.48032">
        <ele>292.9</ele>
        <time>2022-06-11T11:20:56Z</time>
      </trkpt>
      <trkpt lat="44.34089" lon="4.4803">
        <ele>292.6</ele>
        <time>2022-06-11T11:20:57Z</time>
      </trkpt>
      <trkpt lat="44.34096" lon="4.48029">
        <ele>292.3</ele>
        <time>2022-06-11T11:20:58Z</time>
      </trkpt>
      <trkpt lat="44.34103" lon="4.4803">
        <ele>292</ele>
        <time>2022-06-11T11:20:59Z</time>
      </trkpt>
      <trkpt lat="44.34111" lon="4.48031">
        <ele>291.6</ele>
        <time>2022-06-11T11:21:00Z</time>
      </trkpt>
      <trkpt lat="44.34118" lon="4.48034">
        <ele>291.2</ele>
        <time>2022-06-11T11:21:01Z</time>
      </trkpt>
      <trkpt lat="44.34126" lon="4.48036">
        <ele>290.7</ele>
        <time>2022-06-11T11:21:02Z</time>
      </trkpt>
      <trkpt lat="44.34134" lon="4.48039">
        <ele>290.3</ele>
        <time>2022-06-11T11:21:03Z</time>
      </trkpt>
      <trkpt lat="44.34142" lon="4.48041">
        <ele>289.8</ele>
        <time>2022-06-11T11:21:04Z</time>
      </trkpt>
      <trkpt lat="44.3415" lon="4.48045">
        <ele>289.3</ele>
        <time>2022-06-11T11:21:05Z</time>
      </trkpt>
      <trkpt lat="44.34158" lon="4.48048">
        <ele>288.7</ele>
        <time>2022-06-11T11:21:06Z</time>
      </trkpt>
      <trkpt lat="44.34166" lon="4.48051">
        <ele>288.2</ele>
        <time>2022-06-11T11:21:07Z</time>
      </trkpt>
      <trkpt lat="44.34175" lon="4.48054">
        <ele>287.6</ele>
        <time>2022-06-11T11:21:08Z</time>
      </trkpt>
      <trkpt lat="44.34184" lon="4.48058">
        <ele>286.9</ele>
        <time>2022-06-11T11:21:09Z</time>
      </trkpt>
      <trkpt lat="44.34192" lon="4.48061">
        <ele>286.2</ele>
        <time>2022-06-11T11:21:10Z</time>
      </trkpt>
      <trkpt lat="44.34201" lon="4.48064">
        <ele>285.6</ele>
        <time>2022-06-11T11:21:11Z</time>
      </trkpt>
      <trkpt lat="44.3421" lon="4.48067">
        <ele>285</ele>
        <time>2022-06-11T11:21:12Z</time>
      </trkpt>
      <trkpt lat="44.34219" lon="4.48071">
        <ele>284.3</ele>
        <time>2022-06-11T11:21:13Z</time>
      </trkpt>
      <trkpt lat="44.34229" lon="4.48075">
        <ele>283.6</ele>
        <time>2022-06-11T11:21:14Z</time>
      </trkpt>
      <trkpt lat="44.34238" lon="4.48078">
        <ele>283</ele>
        <time>2022-06-11T11:21:15Z</time>
      </trkpt>
      <trkpt lat="44.34248" lon="4.48082">
        <ele>282.3</ele>
        <time>2022-06-11T11:21:16Z</time>
      </trkpt>
      <trkpt lat="44.34258" lon="4.48086">
        <ele>281.6</ele>
        <time>2022-06-11T11:21:17Z</time>
      </trkpt>
      <trkpt lat="44.34267" lon="4.48091">
        <ele>280.9</ele>
        <time>2022-06-11T11:21:18Z</time>
      </trkpt>
      <trkpt lat="44.34276" lon="4.48099">
        <ele>280.2</ele>
        <time>2022-06-11T11:21:19Z</time>
      </trkpt>
      <trkpt lat="44.34283" lon="4.48109">
        <ele>279.4</ele>
        <time>2022-06-11T11:21:20Z</time>
      </trkpt>
      <trkpt lat="44.3429" lon="4.48121">
        <ele>278.5</ele>
        <time>2022-06-11T11:21:21Z</time>
      </trkpt>
      <trkpt lat="44.34297" lon="4.48132">
        <ele>277.6</ele>
        <time>2022-06-11T11:21:22Z</time>
      </trkpt>
      <trkpt lat="44.34303" lon="4.48143">
        <ele>276.9</ele>
        <time>2022-06-11T11:21:23Z</time>
      </trkpt>
      <trkpt lat="44.3431" lon="4.48154">
        <ele>276.2</ele>
        <time>2022-06-11T11:21:24Z</time>
      </trkpt>
      <trkpt lat="44.34317" lon="4.48165">
        <ele>275.5</ele>
        <time>2022-06-11T11:21:25Z</time>
      </trkpt>
      <trkpt lat="44.34324" lon="4.48175">
        <ele>274.8</ele>
        <time>2022-06-11T11:21:26Z</time>
      </trkpt>
      <trkpt lat="44.3433" lon="4.48186">
        <ele>274.2</ele>
        <time>2022-06-11T11:21:27Z</time>
      </trkpt>
      <trkpt lat="44.34338" lon="4.48196">
        <ele>273.6</ele>
        <time>2022-06-11T11:21:28Z</time>
      </trkpt>
      <trkpt lat="44.34345" lon="4.48207">
        <ele>272.9</ele>
        <time>2022-06-11T11:21:29Z</time>
      </trkpt>
      <trkpt lat="44.34352" lon="4.48218">
        <ele>272.3</ele>
        <time>2022-06-11T11:21:30Z</time>
      </trkpt>
      <trkpt lat="44.3436" lon="4.48229">
        <ele>271.8</ele>
        <time>2022-06-11T11:21:31Z</time>
      </trkpt>
      <trkpt lat="44.34367" lon="4.48239">
        <ele>271.3</ele>
        <time>2022-06-11T11:21:32Z</time>
      </trkpt>
      <trkpt lat="44.34374" lon="4.4825">
        <ele>270.9</ele>
        <time>2022-06-11T11:21:33Z</time>
      </trkpt>
      <trkpt lat="44.34381" lon="4.48261">
        <ele>270.5</ele>
        <time>2022-06-11T11:21:34Z</time>
      </trkpt>
      <trkpt lat="44.34387" lon="4.48273">
        <ele>270.1</ele>
        <time>2022-06-11T11:21:35Z</time>
      </trkpt>
      <trkpt lat="44.3439" lon="4.48285">
        <ele>269.8</ele>
        <time>2022-06-11T11:21:36Z</time>
      </trkpt>
      <trkpt lat="44.34391" lon="4.48299">
        <ele>269.4</ele>
        <time>2022-06-11T11:21:37Z</time>
      </trkpt>
      <trkpt lat="44.34389" lon="4.48312">
        <ele>268.9</ele>
        <time>2022-06-11T11:21:38Z</time>
      </trkpt>
      <trkpt lat="44.34385" lon="4.48325">
        <ele>268.4</ele>
        <time>2022-06-11T11:21:39Z</time>
      </trkpt>
      <trkpt lat="44.34379" lon="4.48335">
        <ele>267.8</ele>
        <time>2022-06-11T11:21:40Z</time>
      </trkpt>
      <trkpt lat="44.34372" lon="4.48344">
        <ele>267.2</ele>
        <time>2022-06-11T11:21:41Z</time>
      </trkpt>
      <trkpt lat="44.34363" lon="4.48352">
        <ele>266.5</ele>
        <time>2022-06-11T11:21:42Z</time>
      </trkpt>
      <trkpt lat="44.34355" lon="4.4836">
        <ele>265.8</ele>
        <time>2022-06-11T11:21:43Z</time>
      </trkpt>
      <trkpt lat="44.34348" lon="4.48368">
        <ele>265.2</ele>
        <time>2022-06-11T11:21:44Z</time>
      </trkpt>
      <trkpt lat="44.3434" lon="4.48377">
        <ele>264.4</ele>
        <time>2022-06-11T11:21:45Z</time>
      </trkpt>
      <trkpt lat="44.34331" lon="4.48386">
        <ele>263.6</ele>
        <time>2022-06-11T11:21:46Z</time>
      </trkpt>
      <trkpt lat="44.34323" lon="4.48395">
        <ele>262.9</ele>
        <time>2022-06-11T11:21:47Z</time>
      </trkpt>
      <trkpt lat="44.34315" lon="4.48405">
        <ele>262.1</ele>
        <time>2022-06-11T11:21:48Z</time>
      </trkpt>
      <trkpt lat="44.34307" lon="4.48416">
        <ele>261.3</ele>
        <time>2022-06-11T11:21:49Z</time>
      </trkpt>
      <trkpt lat="44.34301" lon="4.48429">
        <ele>260.5</ele>
        <time>2022-06-11T11:21:50Z</time>
      </trkpt>
      <trkpt lat="44.34297" lon="4.48444">
        <ele>259.6</ele>
        <time>2022-06-11T11:21:51Z</time>
      </trkpt>
      <trkpt lat="44.34294" lon="4.4846">
        <ele>258.7</ele>
        <time>2022-06-11T11:21:52Z</time>
      </trkpt>
      <trkpt lat="44.34292" lon="4.48476">
        <ele>257.8</ele>
        <time>2022-06-11T11:21:53Z</time>
      </trkpt>
      <trkpt lat="44.34291" lon="4.48492">
        <ele>256.8</ele>
        <time>2022-06-11T11:21:54Z</time>
      </trkpt>
      <trkpt lat="44.34289" lon="4.48508">
        <ele>255.9</ele>
        <time>2022-06-11T11:21:55Z</time>
      </trkpt>
      <trkpt lat="44.34287" lon="4.48525">
        <ele>255</ele>
        <time>2022-06-11T11:21:56Z</time>
      </trkpt>
      <trkpt lat="44.34286" lon="4.48542">
        <ele>254</ele>
        <time>2022-06-11T11:21:57Z</time>
      </trkpt>
      <trkpt lat="44.34284" lon="4.48559">
        <ele>253.1</ele>
        <time>2022-06-11T11:21:58Z</time>
      </trkpt>
      <trkpt lat="44.34282" lon="4.48575">
        <ele>252.2</ele>
        <time>2022-06-11T11:21:59Z</time>
      </trkpt>
      <trkpt lat="44.34279" lon="4.48592">
        <ele>251.3</ele>
        <time>2022-06-11T11:22:00Z</time>
      </trkpt>
      <trkpt lat="44.34275" lon="4.48607">
        <ele>250.5</ele>
        <time>2022-06-11T11:22:01Z</time>
      </trkpt>
      <trkpt lat="44.34268" lon="4.48622">
        <ele>249.7</ele>
        <time>2022-06-11T11:22:02Z</time>
      </trkpt>
      <trkpt lat="44.34261" lon="4.48635">
        <ele>249</ele>
        <time>2022-06-11T11:22:03Z</time>
      </trkpt>
      <trkpt lat="44.34253" lon="4.48648">
        <ele>248.3</ele>
        <time>2022-06-11T11:22:04Z</time>
      </trkpt>
      <trkpt lat="44.34245" lon="4.48661">
        <ele>247.8</ele>
        <time>2022-06-11T11:22:05Z</time>
      </trkpt>
      <trkpt lat="44.34238" lon="4.48674">
        <ele>247.3</ele>
        <time>2022-06-11T11:22:06Z</time>
      </trkpt>
      <trkpt lat="44.3423" lon="4.48686">
        <ele>247</ele>
        <time>2022-06-11T11:22:07Z</time>
      </trkpt>
      <trkpt lat="44.34224" lon="4.48697">
        <ele>246.7</ele>
        <time>2022-06-11T11:22:08Z</time>
      </trkpt>
      <trkpt lat="44.34218" lon="4.48708">
        <ele>246.6</ele>
        <time>2022-06-11T11:22:09Z</time>
      </trkpt>
      <trkpt lat="44.34213" lon="4.4872">
        <ele>246.4</ele>
        <time>2022-06-11T11:22:10Z</time>
      </trkpt>
      <trkpt lat="44.3421" lon="4.48732">
        <ele>246.4</ele>
        <time>2022-06-11T11:22:11Z</time>
      </trkpt>
      <trkpt lat="44.34208" lon="4.48745">
        <ele>246.3</ele>
        <time>2022-06-11T11:22:12Z</time>
      </trkpt>
      <trkpt lat="44.34208" lon="4.48757">
        <ele>246.3</ele>
        <time>2022-06-11T11:22:13Z</time>
      </trkpt>
      <trkpt lat="44.34209" lon="4.48769">
        <ele>246.2</ele>
        <time>2022-06-11T11:22:14Z</time>
      </trkpt>
      <trkpt lat="44.34211" lon="4.4878">
        <ele>246.2</ele>
        <time>2022-06-11T11:22:15Z</time>
      </trkpt>
      <trkpt lat="44.34215" lon="4.48791">
        <ele>246.2</ele>
        <time>2022-06-11T11:22:16Z</time>
      </trkpt>
      <trkpt lat="44.34219" lon="4.48801">
        <ele>246.2</ele>
        <time>2022-06-11T11:22:17Z</time>
      </trkpt>
      <trkpt lat="44.34224" lon="4.4881">
        <ele>246.2</ele>
        <time>2022-06-11T11:22:18Z</time>
      </trkpt>
      <trkpt lat="44.34229" lon="4.48818">
        <ele>246.2</ele>
        <time>2022-06-11T11:22:19Z</time>
      </trkpt>
      <trkpt lat="44.34235" lon="4.48827">
        <ele>246.3</ele>
        <time>2022-06-11T11:22:20Z</time>
      </trkpt>
      <trkpt lat="44.34239" lon="4.48835">
        <ele>246.3</ele>
        <time>2022-06-11T11:22:21Z</time>
      </trkpt>
      <trkpt lat="44.34244" lon="4.48843">
        <ele>246.4</ele>
        <time>2022-06-11T11:22:22Z</time>
      </trkpt>
      <trkpt lat="44.34249" lon="4.4885">
        <ele>246.5</ele>
        <time>2022-06-11T11:22:23Z</time>
      </trkpt>
      <trkpt lat="44.34254" lon="4.48857">
        <ele>246.6</ele>
        <time>2022-06-11T11:22:24Z</time>
      </trkpt>
      <trkpt lat="44.34258" lon="4.48863">
        <ele>246.7</ele>
        <time>2022-06-11T11:22:25Z</time>
      </trkpt>
      <trkpt lat="44.34263" lon="4.4887">
        <ele>246.8</ele>
        <time>2022-06-11T11:22:26Z</time>
      </trkpt>
      <trkpt lat="44.34268" lon="4.48876">
        <ele>246.9</ele>
        <time>2022-06-11T11:22:27Z</time>
      </trkpt>
      <trkpt lat="44.34272" lon="4.48882">
        <ele>247</ele>
        <time>2022-06-11T11:22:28Z</time>
      </trkpt>
      <trkpt lat="44.34276" lon="4.48888">
        <ele>247.1</ele>
        <time>2022-06-11T11:22:29Z</time>
      </trkpt>
      <trkpt lat="44.3428" lon="4.48895">
        <ele>247.1</ele>
        <time>2022-06-11T11:22:30Z</time>
      </trkpt>
      <trkpt lat="44.34284" lon="4.48901">
        <ele>247.2</ele>
        <time>2022-06-11T11:22:31Z</time>
      </trkpt>
      <trkpt lat="44.34289" lon="4.48907">
        <ele>247.3</ele>
        <time>2022-06-11T11:22:32Z</time>
      </trkpt>
      <trkpt lat="44.34293" lon="4.48913">
        <ele>247.4</ele>
        <time>2022-06-11T11:22:33Z</time>
      </trkpt>
      <trkpt lat="44.34296" lon="4.48919">
        <ele>247.4</ele>
        <time>2022-06-11T11:22:34Z</time>
      </trkpt>
      <trkpt lat="44.343" lon="4.48925">
        <ele>247.5</ele>
        <time>2022-06-11T11:22:35Z</time>
      </trkpt>
      <trkpt lat="44.34303" lon="4.4893">
        <ele>247.6</ele>
        <time>2022-06-11T11:22:36Z</time>
      </trkpt>
      <trkpt lat="44.34306" lon="4.48935">
        <ele>247.6</ele>
        <time>2022-06-11T11:22:37Z</time>
      </trkpt>
      <trkpt lat="44.34309" lon="4.4894">
        <ele>247.7</ele>
        <time>2022-06-11T11:22:38Z</time>
      </trkpt>
      <trkpt lat="44.34313" lon="4.48945">
        <ele>247.7</ele>
        <time>2022-06-11T11:22:39Z</time>
      </trkpt>
      <trkpt lat="44.34315" lon="4.48949">
        <ele>247.8</ele>
        <time>2022-06-11T11:22:40Z</time>
      </trkpt>
      <trkpt lat="44.34318" lon="4.48955">
        <ele>247.9</ele>
        <time>2022-06-11T11:22:41Z</time>
      </trkpt>
      <trkpt lat="44.3432" lon="4.48957">
        <ele>247.9</ele>
        <time>2022-06-11T11:22:42Z</time>
      </trkpt>
      <trkpt lat="44.34323" lon="4.48961">
        <ele>247.9</ele>
        <time>2022-06-11T11:22:43Z</time>
      </trkpt>
      <trkpt lat="44.34326" lon="4.48965">
        <ele>248</ele>
        <time>2022-06-11T11:22:44Z</time>
      </trkpt>
      <trkpt lat="44.34329" lon="4.4897">
        <ele>248</ele>
        <time>2022-06-11T11:22:45Z</time>
      </trkpt>
      <trkpt lat="44.34331" lon="4.48974">
        <ele>248.1</ele>
        <time>2022-06-11T11:22:46Z</time>
      </trkpt>
      <trkpt lat="44.34335" lon="4.48979">
        <ele>248.1</ele>
        <time>2022-06-11T11:22:47Z</time>
      </trkpt>
      <trkpt lat="44.34338" lon="4.48984">
        <ele>248.2</ele>
        <time>2022-06-11T11:22:48Z</time>
      </trkpt>
      <trkpt lat="44.3434" lon="4.48987">
        <ele>248.2</ele>
        <time>2022-06-11T11:22:49Z</time>
      </trkpt>
      <trkpt lat="44.34342" lon="4.48991">
        <ele>248.3</ele>
        <time>2022-06-11T11:22:50Z</time>
      </trkpt>
      <trkpt lat="44.34345" lon="4.48995">
        <ele>248.3</ele>
        <time>2022-06-11T11:22:51Z</time>
      </trkpt>
      <trkpt lat="44.34347" lon="4.49">
        <ele>248.3</ele>
        <time>2022-06-11T11:22:52Z</time>
      </trkpt>
      <trkpt lat="44.3435" lon="4.49005">
        <ele>248.4</ele>
        <time>2022-06-11T11:22:53Z</time>
      </trkpt>
      <trkpt lat="44.34352" lon="4.49009">
        <ele>248.4</ele>
        <time>2022-06-11T11:22:54Z</time>
      </trkpt>
      <trkpt lat="44.34355" lon="4.49014">
        <ele>248.5</ele>
        <time>2022-06-11T11:22:55Z</time>
      </trkpt>
      <trkpt lat="44.34358" lon="4.49019">
        <ele>248.5</ele>
        <time>2022-06-11T11:22:56Z</time>
      </trkpt>
      <trkpt lat="44.3436" lon="4.49022">
        <ele>248.6</ele>
        <time>2022-06-11T11:22:57Z</time>
      </trkpt>
      <trkpt lat="44.34363" lon="4.49028">
        <ele>248.6</ele>
        <time>2022-06-11T11:22:58Z</time>
      </trkpt>
      <trkpt lat="44.34366" lon="4.49033">
        <ele>248.7</ele>
        <time>2022-06-11T11:22:59Z</time>
      </trkpt>
      <trkpt lat="44.34368" lon="4.49036">
        <ele>248.7</ele>
        <time>2022-06-11T11:23:00Z</time>
      </trkpt>
      <trkpt lat="44.34371" lon="4.49041">
        <ele>248.8</ele>
        <time>2022-06-11T11:23:01Z</time>
      </trkpt>
      <trkpt lat="44.34373" lon="4.49045">
        <ele>248.8</ele>
        <time>2022-06-11T11:23:02Z</time>
      </trkpt>
      <trkpt lat="44.34376" lon="4.49049">
        <ele>248.9</ele>
        <time>2022-06-11T11:23:03Z</time>
      </trkpt>
      <trkpt lat="44.34378" lon="4.49052">
        <ele>249</ele>
        <time>2022-06-11T11:23:04Z</time>
      </trkpt>
      <trkpt lat="44.34381" lon="4.49056">
        <ele>249</ele>
        <time>2022-06-11T11:23:05Z</time>
      </trkpt>
      <trkpt lat="44.34384" lon="4.49061">
        <ele>249.1</ele>
        <time>2022-06-11T11:23:06Z</time>
      </trkpt>
      <trkpt lat="44.34386" lon="4.49065">
        <ele>249.1</ele>
        <time>2022-06-11T11:23:07Z</time>
      </trkpt>
      <trkpt lat="44.34389" lon="4.4907">
        <ele>249.2</ele>
        <time>2022-06-11T11:23:08Z</time>
      </trkpt>
      <trkpt lat="44.34392" lon="4.49074">
        <ele>249.3</ele>
        <time>2022-06-11T11:23:09Z</time>
      </trkpt>
      <trkpt lat="44.34394" lon="4.49077">
        <ele>249.3</ele>
        <time>2022-06-11T11:23:10Z</time>
      </trkpt>
      <trkpt lat="44.34396" lon="4.49081">
        <ele>249.4</ele>
        <time>2022-06-11T11:23:11Z</time>
      </trkpt>
      <trkpt lat="44.34399" lon="4.49086">
        <ele>249.4</ele>
        <time>2022-06-11T11:23:12Z</time>
      </trkpt>
      <trkpt lat="44.34402" lon="4.49089">
        <ele>249.5</ele>
        <time>2022-06-11T11:23:13Z</time>
      </trkpt>
      <trkpt lat="44.34405" lon="4.49094">
        <ele>249.5</ele>
        <time>2022-06-11T11:23:14Z</time>
      </trkpt>
      <trkpt lat="44.34408" lon="4.49097">
        <ele>249.6</ele>
        <time>2022-06-11T11:23:15Z</time>
      </trkpt>
      <trkpt lat="44.3441" lon="4.49102">
        <ele>249.6</ele>
        <time>2022-06-11T11:23:16Z</time>
      </trkpt>
      <trkpt lat="44.34413" lon="4.49107">
        <ele>249.7</ele>
        <time>2022-06-11T11:23:17Z</time>
      </trkpt>
      <trkpt lat="44.34415" lon="4.49111">
        <ele>249.7</ele>
        <time>2022-06-11T11:23:18Z</time>
      </trkpt>
      <trkpt lat="44.34418" lon="4.49115">
        <ele>249.8</ele>
        <time>2022-06-11T11:23:19Z</time>
      </trkpt>
      <trkpt lat="44.3442" lon="4.49119">
        <ele>249.8</ele>
        <time>2022-06-11T11:23:20Z</time>
      </trkpt>
      <trkpt lat="44.34422" lon="4.49124">
        <ele>249.8</ele>
        <time>2022-06-11T11:23:21Z</time>
      </trkpt>
      <trkpt lat="44.34424" lon="4.49128">
        <ele>249.9</ele>
        <time>2022-06-11T11:23:22Z</time>
      </trkpt>
      <trkpt lat="44.34426" lon="4.49132">
        <ele>249.9</ele>
        <time>2022-06-11T11:23:23Z</time>
      </trkpt>
      <trkpt lat="44.34429" lon="4.49136">
        <ele>249.9</ele>
        <time>2022-06-11T11:23:24Z</time>
      </trkpt>
      <trkpt lat="44.34431" lon="4.4914">
        <ele>249.9</ele>
        <time>2022-06-11T11:23:25Z</time>
      </trkpt>
      <trkpt lat="44.34433" lon="4.49144">
        <ele>250</ele>
        <time>2022-06-11T11:23:26Z</time>
      </trkpt>
      <trkpt lat="44.34436" lon="4.49148">
        <ele>250</ele>
        <time>2022-06-11T11:23:27Z</time>
      </trkpt>
      <trkpt lat="44.34438" lon="4.49153">
        <ele>250</ele>
        <time>2022-06-11T11:23:28Z</time>
      </trkpt>
      <trkpt lat="44.3444" lon="4.49156">
        <ele>250</ele>
        <time>2022-06-11T11:23:29Z</time>
      </trkpt>
      <trkpt lat="44.34442" lon="4.4916">
        <ele>250</ele>
        <time>2022-06-11T11:23:30Z</time>
      </trkpt>
      <trkpt lat="44.34445" lon="4.49164">
        <ele>250.1</ele>
        <time>2022-06-11T11:23:31Z</time>
      </trkpt>
      <trkpt lat="44.34447" lon="4.49168">
        <ele>250.1</ele>
        <time>2022-06-11T11:23:32Z</time>
      </trkpt>
      <trkpt lat="44.34449" lon="4.49172">
        <ele>250.1</ele>
        <time>2022-06-11T11:23:33Z</time>
      </trkpt>
      <trkpt lat="44.34452" lon="4.49175">
        <ele>250.2</ele>
        <time>2022-06-11T11:23:34Z</time>
      </trkpt>
      <trkpt lat="44.34454" lon="4.49179">
        <ele>250.2</ele>
        <time>2022-06-11T11:23:35Z</time>
      </trkpt>
      <trkpt lat="44.34456" lon="4.49183">
        <ele>250.2</ele>
        <time>2022-06-11T11:23:36Z</time>
      </trkpt>
      <trkpt lat="44.34459" lon="4.49187">
        <ele>250.3</ele>
        <time>2022-06-11T11:23:37Z</time>
      </trkpt>
      <trkpt lat="44.34461" lon="4.49191">
        <ele>250.3</ele>
        <time>2022-06-11T11:23:38Z</time>
      </trkpt>
      <trkpt lat="44.34463" lon="4.49194">
        <ele>250.3</ele>
        <time>2022-06-11T11:23:39Z</time>
      </trkpt>
      <trkpt lat="44.34465" lon="4.49198">
        <ele>250.3</ele>
        <time>2022-06-11T11:23:40Z</time>
      </trkpt>
      <trkpt lat="44.34469" lon="4.49205">
        <ele>250.3</ele>
        <time>2022-06-11T11:23:41Z</time>
      </trkpt>
      <trkpt lat="44.34472" lon="4.4921">
        <ele>250.3</ele>
        <time>2022-06-11T11:23:43Z</time>
      </trkpt>
      <trkpt lat="44.34476" lon="4.49219">
        <ele>250.3</ele>
        <time>2022-06-11T11:23:44Z</time>
      </trkpt>
      <trkpt lat="44.34478" lon="4.49223">
        <ele>250.4</ele>
        <time>2022-06-11T11:23:45Z</time>
      </trkpt>
      <trkpt lat="44.3448" lon="4.49228">
        <ele>250.4</ele>
        <time>2022-06-11T11:23:46Z</time>
      </trkpt>
      <trkpt lat="44.34482" lon="4.49232">
        <ele>250.3</ele>
        <time>2022-06-11T11:23:48Z</time>
      </trkpt>
      <trkpt lat="44.34484" lon="4.49236">
        <ele>250.3</ele>
        <time>2022-06-11T11:23:49Z</time>
      </trkpt>
      <trkpt lat="44.34486" lon="4.49241">
        <ele>250.3</ele>
        <time>2022-06-11T11:23:50Z</time>
      </trkpt>
      <trkpt lat="44.34488" lon="4.49246">
        <ele>250.2</ele>
        <time>2022-06-11T11:23:51Z</time>
      </trkpt>
      <trkpt lat="44.3449" lon="4.4925">
        <ele>250.2</ele>
        <time>2022-06-11T11:23:52Z</time>
      </trkpt>
      <trkpt lat="44.34494" lon="4.49259">
        <ele>250.1</ele>
        <time>2022-06-11T11:23:53Z</time>
      </trkpt>
      <trkpt lat="44.34497" lon="4.49264">
        <ele>250</ele>
        <time>2022-06-11T11:23:55Z</time>
      </trkpt>
      <trkpt lat="44.34501" lon="4.49271">
        <ele>249.9</ele>
        <time>2022-06-11T11:23:56Z</time>
      </trkpt>
      <trkpt lat="44.34503" lon="4.49277">
        <ele>249.8</ele>
        <time>2022-06-11T11:23:57Z</time>
      </trkpt>
      <trkpt lat="44.34505" lon="4.49282">
        <ele>249.6</ele>
        <time>2022-06-11T11:23:58Z</time>
      </trkpt>
      <trkpt lat="44.34508" lon="4.49288">
        <ele>249.5</ele>
        <time>2022-06-11T11:24:00Z</time>
      </trkpt>
      <trkpt lat="44.3451" lon="4.49293">
        <ele>249.3</ele>
        <time>2022-06-11T11:24:01Z</time>
      </trkpt>
      <trkpt lat="44.34514" lon="4.49301">
        <ele>249.1</ele>
        <time>2022-06-11T11:24:02Z</time>
      </trkpt>
      <trkpt lat="44.34516" lon="4.49306">
        <ele>248.9</ele>
        <time>2022-06-11T11:24:03Z</time>
      </trkpt>
      <trkpt lat="44.34519" lon="4.49313">
        <ele>248.6</ele>
        <time>2022-06-11T11:24:04Z</time>
      </trkpt>
      <trkpt lat="44.34522" lon="4.49319">
        <ele>248.4</ele>
        <time>2022-06-11T11:24:05Z</time>
      </trkpt>
      <trkpt lat="44.34525" lon="4.49325">
        <ele>248.2</ele>
        <time>2022-06-11T11:24:06Z</time>
      </trkpt>
      <trkpt lat="44.34528" lon="4.49332">
        <ele>247.9</ele>
        <time>2022-06-11T11:24:07Z</time>
      </trkpt>
      <trkpt lat="44.34531" lon="4.49338">
        <ele>247.6</ele>
        <time>2022-06-11T11:24:08Z</time>
      </trkpt>
      <trkpt lat="44.34534" lon="4.49345">
        <ele>247.3</ele>
        <time>2022-06-11T11:24:09Z</time>
      </trkpt>
      <trkpt lat="44.34538" lon="4.49352">
        <ele>247</ele>
        <time>2022-06-11T11:24:10Z</time>
      </trkpt>
      <trkpt lat="44.34541" lon="4.49359">
        <ele>246.7</ele>
        <time>2022-06-11T11:24:11Z</time>
      </trkpt>
      <trkpt lat="44.34544" lon="4.49366">
        <ele>246.5</ele>
        <time>2022-06-11T11:24:12Z</time>
      </trkpt>
      <trkpt lat="44.34547" lon="4.49373">
        <ele>246.2</ele>
        <time>2022-06-11T11:24:13Z</time>
      </trkpt>
      <trkpt lat="44.34551" lon="4.49381">
        <ele>245.9</ele>
        <time>2022-06-11T11:24:14Z</time>
      </trkpt>
      <trkpt lat="44.34554" lon="4.49388">
        <ele>245.7</ele>
        <time>2022-06-11T11:24:15Z</time>
      </trkpt>
      <trkpt lat="44.34558" lon="4.49396">
        <ele>245.4</ele>
        <time>2022-06-11T11:24:16Z</time>
      </trkpt>
      <trkpt lat="44.34561" lon="4.49404">
        <ele>245.1</ele>
        <time>2022-06-11T11:24:17Z</time>
      </trkpt>
      <trkpt lat="44.34565" lon="4.49411">
        <ele>244.8</ele>
        <time>2022-06-11T11:24:18Z</time>
      </trkpt>
      <trkpt lat="44.34568" lon="4.49419">
        <ele>244.5</ele>
        <time>2022-06-11T11:24:19Z</time>
      </trkpt>
      <trkpt lat="44.3457" lon="4.49428">
        <ele>244.2</ele>
        <time>2022-06-11T11:24:20Z</time>
      </trkpt>
      <trkpt lat="44.34572" lon="4.49437">
        <ele>244</ele>
        <time>2022-06-11T11:24:21Z</time>
      </trkpt>
      <trkpt lat="44.34574" lon="4.49446">
        <ele>243.7</ele>
        <time>2022-06-11T11:24:22Z</time>
      </trkpt>
      <trkpt lat="44.34574" lon="4.49456">
        <ele>243.6</ele>
        <time>2022-06-11T11:24:23Z</time>
      </trkpt>
      <trkpt lat="44.34572" lon="4.49466">
        <ele>243.6</ele>
        <time>2022-06-11T11:24:24Z</time>
      </trkpt>
      <trkpt lat="44.34569" lon="4.49475">
        <ele>243.5</ele>
        <time>2022-06-11T11:24:25Z</time>
      </trkpt>
      <trkpt lat="44.34565" lon="4.49484">
        <ele>243.4</ele>
        <time>2022-06-11T11:24:26Z</time>
      </trkpt>
      <trkpt lat="44.3456" lon="4.4949">
        <ele>243.3</ele>
        <time>2022-06-11T11:24:27Z</time>
      </trkpt>
      <trkpt lat="44.34555" lon="4.49495">
        <ele>243.3</ele>
        <time>2022-06-11T11:24:28Z</time>
      </trkpt>
      <trkpt lat="44.34549" lon="4.49498">
        <ele>243.4</ele>
        <time>2022-06-11T11:24:29Z</time>
      </trkpt>
      <trkpt lat="44.34543" lon="4.495">
        <ele>243.5</ele>
        <time>2022-06-11T11:24:30Z</time>
      </trkpt>
      <trkpt lat="44.34538" lon="4.49501">
        <ele>243.5</ele>
        <time>2022-06-11T11:24:31Z</time>
      </trkpt>
      <trkpt lat="44.34532" lon="4.49502">
        <ele>243.6</ele>
        <time>2022-06-11T11:24:32Z</time>
      </trkpt>
      <trkpt lat="44.34527" lon="4.49501">
        <ele>243.7</ele>
        <time>2022-06-11T11:24:33Z</time>
      </trkpt>
      <trkpt lat="44.34522" lon="4.49501">
        <ele>243.8</ele>
        <time>2022-06-11T11:24:34Z</time>
      </trkpt>
      <trkpt lat="44.34517" lon="4.495">
        <ele>243.9</ele>
        <time>2022-06-11T11:24:35Z</time>
      </trkpt>
      <trkpt lat="44.34513" lon="4.49499">
        <ele>244</ele>
        <time>2022-06-11T11:24:36Z</time>
      </trkpt>
      <trkpt lat="44.34508" lon="4.49498">
        <ele>244.1</ele>
        <time>2022-06-11T11:24:37Z</time>
      </trkpt>
      <trkpt lat="44.34503" lon="4.49497">
        <ele>244.2</ele>
        <time>2022-06-11T11:24:38Z</time>
      </trkpt>
      <trkpt lat="44.34499" lon="4.49497">
        <ele>244.3</ele>
        <time>2022-06-11T11:24:39Z</time>
      </trkpt>
      <trkpt lat="44.34494" lon="4.49496">
        <ele>244.3</ele>
        <time>2022-06-11T11:24:40Z</time>
      </trkpt>
      <trkpt lat="44.34489" lon="4.49495">
        <ele>244.4</ele>
        <time>2022-06-11T11:24:41Z</time>
      </trkpt>
      <trkpt lat="44.34485" lon="4.49495">
        <ele>244.5</ele>
        <time>2022-06-11T11:24:42Z</time>
      </trkpt>
      <trkpt lat="44.34481" lon="4.49494">
        <ele>244.6</ele>
        <time>2022-06-11T11:24:43Z</time>
      </trkpt>
      <trkpt lat="44.34479" lon="4.49493">
        <ele>244.7</ele>
        <time>2022-06-11T11:24:44Z</time>
      </trkpt>
      <trkpt lat="44.34475" lon="4.49493">
        <ele>244.8</ele>
        <time>2022-06-11T11:24:45Z</time>
      </trkpt>
      <trkpt lat="44.34471" lon="4.49492">
        <ele>244.9</ele>
        <time>2022-06-11T11:24:46Z</time>
      </trkpt>
      <trkpt lat="44.34467" lon="4.49491">
        <ele>244.9</ele>
        <time>2022-06-11T11:24:47Z</time>
      </trkpt>
      <trkpt lat="44.34464" lon="4.49491">
        <ele>245</ele>
        <time>2022-06-11T11:24:48Z</time>
      </trkpt>
      <trkpt lat="44.34462" lon="4.49491">
        <ele>245</ele>
        <time>2022-06-11T11:24:49Z</time>
      </trkpt>
      <trkpt lat="44.34458" lon="4.49491">
        <ele>245.1</ele>
        <time>2022-06-11T11:24:50Z</time>
      </trkpt>
      <trkpt lat="44.34454" lon="4.4949">
        <ele>245.2</ele>
        <time>2022-06-11T11:24:51Z</time>
      </trkpt>
      <trkpt lat="44.34449" lon="4.49489">
        <ele>245.2</ele>
        <time>2022-06-11T11:24:52Z</time>
      </trkpt>
      <trkpt lat="44.34444" lon="4.49489">
        <ele>245.3</ele>
        <time>2022-06-11T11:24:53Z</time>
      </trkpt>
      <trkpt lat="44.34436" lon="4.49487">
        <ele>245.4</ele>
        <time>2022-06-11T11:24:54Z</time>
      </trkpt>
      <trkpt lat="44.34431" lon="4.49487">
        <ele>245.5</ele>
        <time>2022-06-11T11:24:56Z</time>
      </trkpt>
      <trkpt lat="44.34427" lon="4.49486">
        <ele>245.5</ele>
        <time>2022-06-11T11:24:57Z</time>
      </trkpt>
      <trkpt lat="44.34423" lon="4.49485">
        <ele>245.5</ele>
        <time>2022-06-11T11:24:58Z</time>
      </trkpt>
      <trkpt lat="44.34419" lon="4.49484">
        <ele>245.6</ele>
        <time>2022-06-11T11:24:59Z</time>
      </trkpt>
      <trkpt lat="44.34415" lon="4.49483">
        <ele>245.6</ele>
        <time>2022-06-11T11:25:00Z</time>
      </trkpt>
      <trkpt lat="44.34411" lon="4.49483">
        <ele>245.6</ele>
        <time>2022-06-11T11:25:01Z</time>
      </trkpt>
      <trkpt lat="44.34403" lon="4.49481">
        <ele>245.6</ele>
        <time>2022-06-11T11:25:02Z</time>
      </trkpt>
      <trkpt lat="44.34398" lon="4.4948">
        <ele>245.6</ele>
        <time>2022-06-11T11:25:04Z</time>
      </trkpt>
      <trkpt lat="44.34391" lon="4.49478">
        <ele>245.6</ele>
        <time>2022-06-11T11:25:05Z</time>
      </trkpt>
      <trkpt lat="44.34386" lon="4.49478">
        <ele>245.6</ele>
        <time>2022-06-11T11:25:06Z</time>
      </trkpt>
      <trkpt lat="44.34381" lon="4.49477">
        <ele>245.6</ele>
        <time>2022-06-11T11:25:08Z</time>
      </trkpt>
      <trkpt lat="44.34373" lon="4.49475">
        <ele>245.6</ele>
        <time>2022-06-11T11:25:09Z</time>
      </trkpt>
      <trkpt lat="44.34368" lon="4.49474">
        <ele>245.6</ele>
        <time>2022-06-11T11:25:10Z</time>
      </trkpt>
      <trkpt lat="44.34363" lon="4.49473">
        <ele>245.6</ele>
        <time>2022-06-11T11:25:11Z</time>
      </trkpt>
      <trkpt lat="44.34359" lon="4.49471">
        <ele>245.6</ele>
        <time>2022-06-11T11:25:12Z</time>
      </trkpt>
      <trkpt lat="44.34355" lon="4.4947">
        <ele>245.6</ele>
        <time>2022-06-11T11:25:13Z</time>
      </trkpt>
      <trkpt lat="44.34349" lon="4.49468">
        <ele>245.7</ele>
        <time>2022-06-11T11:25:15Z</time>
      </trkpt>
      <trkpt lat="44.34341" lon="4.49465">
        <ele>245.7</ele>
        <time>2022-06-11T11:25:16Z</time>
      </trkpt>
      <trkpt lat="44.34335" lon="4.49464">
        <ele>245.7</ele>
        <time>2022-06-11T11:25:18Z</time>
      </trkpt>
      <trkpt lat="44.34331" lon="4.49463">
        <ele>245.7</ele>
        <time>2022-06-11T11:25:19Z</time>
      </trkpt>
      <trkpt lat="44.34327" lon="4.49461">
        <ele>245.8</ele>
        <time>2022-06-11T11:25:20Z</time>
      </trkpt>
      <trkpt lat="44.34322" lon="4.49459">
        <ele>245.8</ele>
        <time>2022-06-11T11:25:21Z</time>
      </trkpt>
      <trkpt lat="44.34317" lon="4.49458">
        <ele>245.8</ele>
        <time>2022-06-11T11:25:22Z</time>
      </trkpt>
      <trkpt lat="44.34313" lon="4.49456">
        <ele>245.8</ele>
        <time>2022-06-11T11:25:23Z</time>
      </trkpt>
      <trkpt lat="44.34308" lon="4.49454">
        <ele>245.8</ele>
        <time>2022-06-11T11:25:24Z</time>
      </trkpt>
      <trkpt lat="44.34303" lon="4.49452">
        <ele>245.8</ele>
        <time>2022-06-11T11:25:25Z</time>
      </trkpt>
      <trkpt lat="44.34298" lon="4.4945">
        <ele>245.8</ele>
        <time>2022-06-11T11:25:26Z</time>
      </trkpt>
      <trkpt lat="44.34293" lon="4.49448">
        <ele>245.8</ele>
        <time>2022-06-11T11:25:27Z</time>
      </trkpt>
      <trkpt lat="44.34288" lon="4.49447">
        <ele>245.8</ele>
        <time>2022-06-11T11:25:28Z</time>
      </trkpt>
      <trkpt lat="44.34284" lon="4.49445">
        <ele>245.8</ele>
        <time>2022-06-11T11:25:29Z</time>
      </trkpt>
      <trkpt lat="44.34279" lon="4.49443">
        <ele>245.8</ele>
        <time>2022-06-11T11:25:30Z</time>
      </trkpt>
      <trkpt lat="44.34275" lon="4.49442">
        <ele>245.9</ele>
        <time>2022-06-11T11:25:31Z</time>
      </trkpt>
      <trkpt lat="44.3427" lon="4.4944">
        <ele>245.9</ele>
        <time>2022-06-11T11:25:32Z</time>
      </trkpt>
      <trkpt lat="44.34266" lon="4.49438">
        <ele>246</ele>
        <time>2022-06-11T11:25:33Z</time>
      </trkpt>
      <trkpt lat="44.34263" lon="4.49436">
        <ele>246</ele>
        <time>2022-06-11T11:25:34Z</time>
      </trkpt>
      <trkpt lat="44.3426" lon="4.49434">
        <ele>246.1</ele>
        <time>2022-06-11T11:25:35Z</time>
      </trkpt>
      <trkpt lat="44.34255" lon="4.49432">
        <ele>246.1</ele>
        <time>2022-06-11T11:25:36Z</time>
      </trkpt>
      <trkpt lat="44.34251" lon="4.49429">
        <ele>246.2</ele>
        <time>2022-06-11T11:25:37Z</time>
      </trkpt>
      <trkpt lat="44.34247" lon="4.49426">
        <ele>246.3</ele>
        <time>2022-06-11T11:25:38Z</time>
      </trkpt>
      <trkpt lat="44.34244" lon="4.49424">
        <ele>246.4</ele>
        <time>2022-06-11T11:25:39Z</time>
      </trkpt>
      <trkpt lat="44.3424" lon="4.49424">
        <ele>246.4</ele>
        <time>2022-06-11T11:25:40Z</time>
      </trkpt>
      <trkpt lat="44.34236" lon="4.49419">
        <ele>246.5</ele>
        <time>2022-06-11T11:25:41Z</time>
      </trkpt>
      <trkpt lat="44.34232" lon="4.49416">
        <ele>246.6</ele>
        <time>2022-06-11T11:25:42Z</time>
      </trkpt>
      <trkpt lat="44.34228" lon="4.49412">
        <ele>246.7</ele>
        <time>2022-06-11T11:25:43Z</time>
      </trkpt>
      <trkpt lat="44.34223" lon="4.49408">
        <ele>246.8</ele>
        <time>2022-06-11T11:25:44Z</time>
      </trkpt>
      <trkpt lat="44.3422" lon="4.49405">
        <ele>246.9</ele>
        <time>2022-06-11T11:25:45Z</time>
      </trkpt>
      <trkpt lat="44.34217" lon="4.49402">
        <ele>247</ele>
        <time>2022-06-11T11:25:46Z</time>
      </trkpt>
      <trkpt lat="44.34212" lon="4.49398">
        <ele>247.1</ele>
        <time>2022-06-11T11:25:47Z</time>
      </trkpt>
      <trkpt lat="44.34208" lon="4.49394">
        <ele>247.2</ele>
        <time>2022-06-11T11:25:49Z</time>
      </trkpt>
      <trkpt lat="44.34204" lon="4.49392">
        <ele>247.3</ele>
        <time>2022-06-11T11:25:50Z</time>
      </trkpt>
      <trkpt lat="44.34201" lon="4.49389">
        <ele>247.4</ele>
        <time>2022-06-11T11:25:51Z</time>
      </trkpt>
      <trkpt lat="44.34198" lon="4.49386">
        <ele>247.5</ele>
        <time>2022-06-11T11:25:52Z</time>
      </trkpt>
      <trkpt lat="44.34193" lon="4.49381">
        <ele>247.6</ele>
        <time>2022-06-11T11:25:53Z</time>
      </trkpt>
      <trkpt lat="44.34191" lon="4.49379">
        <ele>247.7</ele>
        <time>2022-06-11T11:25:54Z</time>
      </trkpt>
      <trkpt lat="44.34188" lon="4.49376">
        <ele>247.8</ele>
        <time>2022-06-11T11:25:55Z</time>
      </trkpt>
      <trkpt lat="44.34184" lon="4.49373">
        <ele>248</ele>
        <time>2022-06-11T11:25:56Z</time>
      </trkpt>
      <trkpt lat="44.34177" lon="4.49367">
        <ele>248.3</ele>
        <time>2022-06-11T11:25:58Z</time>
      </trkpt>
      <trkpt lat="44.34173" lon="4.49364">
        <ele>248.5</ele>
        <time>2022-06-11T11:26:00Z</time>
      </trkpt>
      <trkpt lat="44.34168" lon="4.49361">
        <ele>248.8</ele>
        <time>2022-06-11T11:26:01Z</time>
      </trkpt>
      <trkpt lat="44.34166" lon="4.49359">
        <ele>248.9</ele>
        <time>2022-06-11T11:26:03Z</time>
      </trkpt>
      <trkpt lat="44.34163" lon="4.49357">
        <ele>249.1</ele>
        <time>2022-06-11T11:26:04Z</time>
      </trkpt>
      <trkpt lat="44.3416" lon="4.49355">
        <ele>249.3</ele>
        <time>2022-06-11T11:26:05Z</time>
      </trkpt>
      <trkpt lat="44.34157" lon="4.49355">
        <ele>249.5</ele>
        <time>2022-06-11T11:26:06Z</time>
      </trkpt>
      <trkpt lat="44.34154" lon="4.49353">
        <ele>249.8</ele>
        <time>2022-06-11T11:26:07Z</time>
      </trkpt>
      <trkpt lat="44.34151" lon="4.49352">
        <ele>249.9</ele>
        <time>2022-06-11T11:26:08Z</time>
      </trkpt>
      <trkpt lat="44.34146" lon="4.49351">
        <ele>250.3</ele>
        <time>2022-06-11T11:26:10Z</time>
      </trkpt>
      <trkpt lat="44.34144" lon="4.49351">
        <ele>250.4</ele>
        <time>2022-06-11T11:26:11Z</time>
      </trkpt>
      <trkpt lat="44.34143" lon="4.49351">
        <ele>250.5</ele>
        <time>2022-06-11T11:26:12Z</time>
      </trkpt>
      <trkpt lat="44.34139" lon="4.49352">
        <ele>250.8</ele>
        <time>2022-06-11T11:26:13Z</time>
      </trkpt>
      <trkpt lat="44.34138" lon="4.49352">
        <ele>250.9</ele>
        <time>2022-06-11T11:26:14Z</time>
      </trkpt>
      <trkpt lat="44.34134" lon="4.49354">
        <ele>251.1</ele>
        <time>2022-06-11T11:26:15Z</time>
      </trkpt>
      <trkpt lat="44.34133" lon="4.49355">
        <ele>251.2</ele>
        <time>2022-06-11T11:26:16Z</time>
      </trkpt>
      <trkpt lat="44.3413" lon="4.49357">
        <ele>251.5</ele>
        <time>2022-06-11T11:26:17Z</time>
      </trkpt>
      <trkpt lat="44.34129" lon="4.49358">
        <ele>251.6</ele>
        <time>2022-06-11T11:26:18Z</time>
      </trkpt>
      <trkpt lat="44.34127" lon="4.49359">
        <ele>251.7</ele>
        <time>2022-06-11T11:26:19Z</time>
      </trkpt>
      <trkpt lat="44.34124" lon="4.49363">
        <ele>252</ele>
        <time>2022-06-11T11:26:21Z</time>
      </trkpt>
      <trkpt lat="44.34122" lon="4.49365">
        <ele>252.2</ele>
        <time>2022-06-11T11:26:22Z</time>
      </trkpt>
      <trkpt lat="44.34119" lon="4.49367">
        <ele>252.4</ele>
        <time>2022-06-11T11:26:24Z</time>
      </trkpt>
      <trkpt lat="44.34118" lon="4.49369">
        <ele>252.5</ele>
        <time>2022-06-11T11:26:25Z</time>
      </trkpt>
      <trkpt lat="44.34117" lon="4.49371">
        <ele>252.7</ele>
        <time>2022-06-11T11:26:26Z</time>
      </trkpt>
      <trkpt lat="44.34116" lon="4.49374">
        <ele>252.9</ele>
        <time>2022-06-11T11:26:27Z</time>
      </trkpt>
      <trkpt lat="44.34115" lon="4.49375">
        <ele>252.9</ele>
        <time>2022-06-11T11:26:28Z</time>
      </trkpt>
      <trkpt lat="44.34113" lon="4.49378">
        <ele>253.1</ele>
        <time>2022-06-11T11:26:29Z</time>
      </trkpt>
      <trkpt lat="44.34112" lon="4.49379">
        <ele>253.2</ele>
        <time>2022-06-11T11:26:30Z</time>
      </trkpt>
      <trkpt lat="44.34111" lon="4.49383">
        <ele>253.4</ele>
        <time>2022-06-11T11:26:31Z</time>
      </trkpt>
      <trkpt lat="44.34111" lon="4.49384">
        <ele>253.5</ele>
        <time>2022-06-11T11:26:32Z</time>
      </trkpt>
      <trkpt lat="44.3411" lon="4.49386">
        <ele>253.6</ele>
        <time>2022-06-11T11:26:33Z</time>
      </trkpt>
      <trkpt lat="44.3411" lon="4.49388">
        <ele>253.7</ele>
        <time>2022-06-11T11:26:34Z</time>
      </trkpt>
      <trkpt lat="44.34109" lon="4.49391">
        <ele>253.9</ele>
        <time>2022-06-11T11:26:35Z</time>
      </trkpt>
      <trkpt lat="44.34108" lon="4.49393">
        <ele>253.9</ele>
        <time>2022-06-11T11:26:36Z</time>
      </trkpt>
      <trkpt lat="44.34109" lon="4.49395">
        <ele>254.1</ele>
        <time>2022-06-11T11:26:37Z</time>
      </trkpt>
      <trkpt lat="44.34109" lon="4.49398">
        <ele>254.2</ele>
        <time>2022-06-11T11:26:38Z</time>
      </trkpt>
      <trkpt lat="44.34108" lon="4.49401">
        <ele>254.3</ele>
        <time>2022-06-11T11:26:39Z</time>
      </trkpt>
      <trkpt lat="44.34108" lon="4.49405">
        <ele>254.5</ele>
        <time>2022-06-11T11:26:40Z</time>
      </trkpt>
      <trkpt lat="44.34108" lon="4.49409">
        <ele>254.7</ele>
        <time>2022-06-11T11:26:42Z</time>
      </trkpt>
      <trkpt lat="44.34108" lon="4.49411">
        <ele>254.8</ele>
        <time>2022-06-11T11:26:43Z</time>
      </trkpt>
      <trkpt lat="44.34108" lon="4.49413">
        <ele>254.9</ele>
        <time>2022-06-11T11:26:44Z</time>
      </trkpt>
      <trkpt lat="44.34109" lon="4.49417">
        <ele>255.1</ele>
        <time>2022-06-11T11:26:45Z</time>
      </trkpt>
      <trkpt lat="44.34109" lon="4.49418">
        <ele>255.1</ele>
        <time>2022-06-11T11:26:46Z</time>
      </trkpt>
      <trkpt lat="44.3411" lon="4.49422">
        <ele>255.3</ele>
        <time>2022-06-11T11:26:47Z</time>
      </trkpt>
      <trkpt lat="44.34111" lon="4.49423">
        <ele>255.4</ele>
        <time>2022-06-11T11:26:48Z</time>
      </trkpt>
      <trkpt lat="44.34112" lon="4.49427">
        <ele>255.6</ele>
        <time>2022-06-11T11:26:49Z</time>
      </trkpt>
      <trkpt lat="44.34112" lon="4.49428">
        <ele>255.7</ele>
        <time>2022-06-11T11:26:50Z</time>
      </trkpt>
      <trkpt lat="44.34113" lon="4.49432">
        <ele>255.9</ele>
        <time>2022-06-11T11:26:51Z</time>
      </trkpt>
      <trkpt lat="44.34113" lon="4.49434">
        <ele>255.9</ele>
        <time>2022-06-11T11:26:52Z</time>
      </trkpt>
      <trkpt lat="44.34115" lon="4.49436">
        <ele>256.1</ele>
        <time>2022-06-11T11:26:53Z</time>
      </trkpt>
      <trkpt lat="44.34116" lon="4.49439">
        <ele>256.2</ele>
        <time>2022-06-11T11:26:55Z</time>
      </trkpt>
      <trkpt lat="44.34118" lon="4.49442">
        <ele>256.4</ele>
        <time>2022-06-11T11:26:56Z</time>
      </trkpt>
      <trkpt lat="44.34118" lon="4.49443">
        <ele>256.5</ele>
        <time>2022-06-11T11:26:57Z</time>
      </trkpt>
      <trkpt lat="44.3412" lon="4.49448">
        <ele>256.7</ele>
        <time>2022-06-11T11:26:58Z</time>
      </trkpt>
      <trkpt lat="44.34121" lon="4.4945">
        <ele>256.9</ele>
        <time>2022-06-11T11:26:59Z</time>
      </trkpt>
      <trkpt lat="44.34122" lon="4.49452">
        <ele>257</ele>
        <time>2022-06-11T11:27:01Z</time>
      </trkpt>
      <trkpt lat="44.34123" lon="4.49456">
        <ele>257.1</ele>
        <time>2022-06-11T11:27:02Z</time>
      </trkpt>
      <trkpt lat="44.34125" lon="4.49459">
        <ele>257.3</ele>
        <time>2022-06-11T11:27:04Z</time>
      </trkpt>
      <trkpt lat="44.34126" lon="4.49462">
        <ele>257.4</ele>
        <time>2022-06-11T11:27:05Z</time>
      </trkpt>
      <trkpt lat="44.34127" lon="4.49463">
        <ele>257.5</ele>
        <time>2022-06-11T11:27:06Z</time>
      </trkpt>
      <trkpt lat="44.34128" lon="4.49465">
        <ele>257.6</ele>
        <time>2022-06-11T11:27:07Z</time>
      </trkpt>
      <trkpt lat="44.34129" lon="4.49468">
        <ele>257.7</ele>
        <time>2022-06-11T11:27:08Z</time>
      </trkpt>
      <trkpt lat="44.34132" lon="4.49473">
        <ele>258</ele>
        <time>2022-06-11T11:27:10Z</time>
      </trkpt>
      <trkpt lat="44.34132" lon="4.49475">
        <ele>258.1</ele>
        <time>2022-06-11T11:27:11Z</time>
      </trkpt>
      <trkpt lat="44.34134" lon="4.49479">
        <ele>258.3</ele>
        <time>2022-06-11T11:27:12Z</time>
      </trkpt>
      <trkpt lat="44.34136" lon="4.49482">
        <ele>258.4</ele>
        <time>2022-06-11T11:27:14Z</time>
      </trkpt>
      <trkpt lat="44.34139" lon="4.49488">
        <ele>258.8</ele>
        <time>2022-06-11T11:27:16Z</time>
      </trkpt>
      <trkpt lat="44.34141" lon="4.49493">
        <ele>258.9</ele>
        <time>2022-06-11T11:27:18Z</time>
      </trkpt>
      <trkpt lat="44.34142" lon="4.49496">
        <ele>259</ele>
        <time>2022-06-11T11:27:20Z</time>
      </trkpt>
      <trkpt lat="44.34144" lon="4.495">
        <ele>259.2</ele>
        <time>2022-06-11T11:27:21Z</time>
      </trkpt>
      <trkpt lat="44.34146" lon="4.49504">
        <ele>259.3</ele>
        <time>2022-06-11T11:27:22Z</time>
      </trkpt>
      <trkpt lat="44.34148" lon="4.49507">
        <ele>259.4</ele>
        <time>2022-06-11T11:27:23Z</time>
      </trkpt>
      <trkpt lat="44.34149" lon="4.4951">
        <ele>259.5</ele>
        <time>2022-06-11T11:27:25Z</time>
      </trkpt>
      <trkpt lat="44.34151" lon="4.49513">
        <ele>259.6</ele>
        <time>2022-06-11T11:27:26Z</time>
      </trkpt>
      <trkpt lat="44.34154" lon="4.4952">
        <ele>259.8</ele>
        <time>2022-06-11T11:27:28Z</time>
      </trkpt>
      <trkpt lat="44.34155" lon="4.49523">
        <ele>259.9</ele>
        <time>2022-06-11T11:27:30Z</time>
      </trkpt>
      <trkpt lat="44.34157" lon="4.49527">
        <ele>260</ele>
        <time>2022-06-11T11:27:31Z</time>
      </trkpt>
      <trkpt lat="44.34158" lon="4.49528">
        <ele>260.1</ele>
        <time>2022-06-11T11:27:32Z</time>
      </trkpt>
      <trkpt lat="44.34159" lon="4.49533">
        <ele>260.2</ele>
        <time>2022-06-11T11:27:33Z</time>
      </trkpt>
      <trkpt lat="44.3416" lon="4.49534">
        <ele>260.2</ele>
        <time>2022-06-11T11:27:34Z</time>
      </trkpt>
      <trkpt lat="44.34162" lon="4.49538">
        <ele>260.3</ele>
        <time>2022-06-11T11:27:35Z</time>
      </trkpt>
      <trkpt lat="44.34162" lon="4.49539">
        <ele>260.3</ele>
        <time>2022-06-11T11:27:36Z</time>
      </trkpt>
      <trkpt lat="44.34164" lon="4.49543">
        <ele>260.4</ele>
        <time>2022-06-11T11:27:37Z</time>
      </trkpt>
      <trkpt lat="44.34165" lon="4.49545">
        <ele>260.5</ele>
        <time>2022-06-11T11:27:38Z</time>
      </trkpt>
      <trkpt lat="44.34167" lon="4.49548">
        <ele>260.5</ele>
        <time>2022-06-11T11:27:39Z</time>
      </trkpt>
      <trkpt lat="44.34169" lon="4.49552">
        <ele>260.6</ele>
        <time>2022-06-11T11:27:40Z</time>
      </trkpt>
      <trkpt lat="44.3417" lon="4.49554">
        <ele>260.6</ele>
        <time>2022-06-11T11:27:41Z</time>
      </trkpt>
      <trkpt lat="44.34172" lon="4.49556">
        <ele>260.7</ele>
        <time>2022-06-11T11:27:42Z</time>
      </trkpt>
      <trkpt lat="44.34174" lon="4.49559">
        <ele>260.8</ele>
        <time>2022-06-11T11:27:43Z</time>
      </trkpt>
      <trkpt lat="44.34176" lon="4.49563">
        <ele>260.8</ele>
        <time>2022-06-11T11:27:44Z</time>
      </trkpt>
      <trkpt lat="44.34178" lon="4.49566">
        <ele>260.9</ele>
        <time>2022-06-11T11:27:45Z</time>
      </trkpt>
      <trkpt lat="44.3418" lon="4.49569">
        <ele>260.9</ele>
        <time>2022-06-11T11:27:46Z</time>
      </trkpt>
      <trkpt lat="44.34182" lon="4.49572">
        <ele>261</ele>
        <time>2022-06-11T11:27:47Z</time>
      </trkpt>
      <trkpt lat="44.34185" lon="4.49575">
        <ele>261</ele>
        <time>2022-06-11T11:27:48Z</time>
      </trkpt>
      <trkpt lat="44.34187" lon="4.49579">
        <ele>261</ele>
        <time>2022-06-11T11:27:49Z</time>
      </trkpt>
      <trkpt lat="44.34189" lon="4.49582">
        <ele>261.1</ele>
        <time>2022-06-11T11:27:50Z</time>
      </trkpt>
      <trkpt lat="44.34192" lon="4.49587">
        <ele>261.1</ele>
        <time>2022-06-11T11:27:51Z</time>
      </trkpt>
      <trkpt lat="44.34196" lon="4.49592">
        <ele>261.1</ele>
        <time>2022-06-11T11:27:53Z</time>
      </trkpt>
      <trkpt lat="44.342" lon="4.49597">
        <ele>261.1</ele>
        <time>2022-06-11T11:27:54Z</time>
      </trkpt>
      <trkpt lat="44.34202" lon="4.496">
        <ele>261.1</ele>
        <time>2022-06-11T11:27:55Z</time>
      </trkpt>
      <trkpt lat="44.34205" lon="4.49604">
        <ele>261.1</ele>
        <time>2022-06-11T11:27:57Z</time>
      </trkpt>
      <trkpt lat="44.34209" lon="4.49608">
        <ele>261</ele>
        <time>2022-06-11T11:27:58Z</time>
      </trkpt>
      <trkpt lat="44.34216" lon="4.49617">
        <ele>261</ele>
        <time>2022-06-11T11:28:00Z</time>
      </trkpt>
      <trkpt lat="44.34219" lon="4.4962">
        <ele>261</ele>
        <time>2022-06-11T11:28:01Z</time>
      </trkpt>
      <trkpt lat="44.34224" lon="4.49625">
        <ele>260.9</ele>
        <time>2022-06-11T11:28:03Z</time>
      </trkpt>
      <trkpt lat="44.34229" lon="4.49632">
        <ele>260.8</ele>
        <time>2022-06-11T11:28:04Z</time>
      </trkpt>
      <trkpt lat="44.34233" lon="4.49638">
        <ele>260.8</ele>
        <time>2022-06-11T11:28:06Z</time>
      </trkpt>
      <trkpt lat="44.34237" lon="4.49642">
        <ele>260.7</ele>
        <time>2022-06-11T11:28:07Z</time>
      </trkpt>
      <trkpt lat="44.3424" lon="4.49646">
        <ele>260.6</ele>
        <time>2022-06-11T11:28:08Z</time>
      </trkpt>
      <trkpt lat="44.34244" lon="4.4965">
        <ele>260.5</ele>
        <time>2022-06-11T11:28:09Z</time>
      </trkpt>
      <trkpt lat="44.34248" lon="4.49655">
        <ele>260.4</ele>
        <time>2022-06-11T11:28:10Z</time>
      </trkpt>
      <trkpt lat="44.34251" lon="4.49659">
        <ele>260.3</ele>
        <time>2022-06-11T11:28:11Z</time>
      </trkpt>
      <trkpt lat="44.34255" lon="4.49663">
        <ele>260.2</ele>
        <time>2022-06-11T11:28:12Z</time>
      </trkpt>
      <trkpt lat="44.34259" lon="4.49667">
        <ele>260.2</ele>
        <time>2022-06-11T11:28:13Z</time>
      </trkpt>
      <trkpt lat="44.34262" lon="4.49672">
        <ele>260.1</ele>
        <time>2022-06-11T11:28:14Z</time>
      </trkpt>
      <trkpt lat="44.34266" lon="4.49676">
        <ele>260</ele>
        <time>2022-06-11T11:28:15Z</time>
      </trkpt>
      <trkpt lat="44.3427" lon="4.49681">
        <ele>259.9</ele>
        <time>2022-06-11T11:28:16Z</time>
      </trkpt>
      <trkpt lat="44.34274" lon="4.49685">
        <ele>259.8</ele>
        <time>2022-06-11T11:28:17Z</time>
      </trkpt>
      <trkpt lat="44.34278" lon="4.49689">
        <ele>259.7</ele>
        <time>2022-06-11T11:28:18Z</time>
      </trkpt>
      <trkpt lat="44.34282" lon="4.49694">
        <ele>259.6</ele>
        <time>2022-06-11T11:28:19Z</time>
      </trkpt>
      <trkpt lat="44.34286" lon="4.49698">
        <ele>259.6</ele>
        <time>2022-06-11T11:28:20Z</time>
      </trkpt>
      <trkpt lat="44.3429" lon="4.49703">
        <ele>259.5</ele>
        <time>2022-06-11T11:28:21Z</time>
      </trkpt>
      <trkpt lat="44.34294" lon="4.49708">
        <ele>259.4</ele>
        <time>2022-06-11T11:28:22Z</time>
      </trkpt>
      <trkpt lat="44.34298" lon="4.49713">
        <ele>259.3</ele>
        <time>2022-06-11T11:28:23Z</time>
      </trkpt>
      <trkpt lat="44.34302" lon="4.49717">
        <ele>259.2</ele>
        <time>2022-06-11T11:28:24Z</time>
      </trkpt>
      <trkpt lat="44.34306" lon="4.49722">
        <ele>259.2</ele>
        <time>2022-06-11T11:28:25Z</time>
      </trkpt>
      <trkpt lat="44.3431" lon="4.49727">
        <ele>259.1</ele>
        <time>2022-06-11T11:28:26Z</time>
      </trkpt>
      <trkpt lat="44.34314" lon="4.49732">
        <ele>259</ele>
        <time>2022-06-11T11:28:27Z</time>
      </trkpt>
      <trkpt lat="44.34319" lon="4.49736">
        <ele>259</ele>
        <time>2022-06-11T11:28:28Z</time>
      </trkpt>
      <trkpt lat="44.34323" lon="4.49741">
        <ele>258.9</ele>
        <time>2022-06-11T11:28:29Z</time>
      </trkpt>
      <trkpt lat="44.34327" lon="4.49746">
        <ele>258.9</ele>
        <time>2022-06-11T11:28:30Z</time>
      </trkpt>
      <trkpt lat="44.34331" lon="4.49751">
        <ele>258.9</ele>
        <time>2022-06-11T11:28:31Z</time>
      </trkpt>
      <trkpt lat="44.34335" lon="4.49755">
        <ele>258.8</ele>
        <time>2022-06-11T11:28:32Z</time>
      </trkpt>
      <trkpt lat="44.34339" lon="4.4976">
        <ele>258.8</ele>
        <time>2022-06-11T11:28:33Z</time>
      </trkpt>
      <trkpt lat="44.34343" lon="4.49764">
        <ele>258.7</ele>
        <time>2022-06-11T11:28:34Z</time>
      </trkpt>
      <trkpt lat="44.34347" lon="4.49769">
        <ele>258.7</ele>
        <time>2022-06-11T11:28:35Z</time>
      </trkpt>
      <trkpt lat="44.34351" lon="4.49773">
        <ele>258.6</ele>
        <time>2022-06-11T11:28:36Z</time>
      </trkpt>
      <trkpt lat="44.34355" lon="4.49778">
        <ele>258.6</ele>
        <time>2022-06-11T11:28:37Z</time>
      </trkpt>
      <trkpt lat="44.34359" lon="4.49783">
        <ele>258.5</ele>
        <time>2022-06-11T11:28:38Z</time>
      </trkpt>
      <trkpt lat="44.34363" lon="4.49787">
        <ele>258.4</ele>
        <time>2022-06-11T11:28:39Z</time>
      </trkpt>
      <trkpt lat="44.34367" lon="4.49792">
        <ele>258.3</ele>
        <time>2022-06-11T11:28:40Z</time>
      </trkpt>
      <trkpt lat="44.34371" lon="4.49797">
        <ele>258.2</ele>
        <time>2022-06-11T11:28:41Z</time>
      </trkpt>
      <trkpt lat="44.34376" lon="4.49802">
        <ele>258.1</ele>
        <time>2022-06-11T11:28:42Z</time>
      </trkpt>
      <trkpt lat="44.3438" lon="4.49806">
        <ele>258</ele>
        <time>2022-06-11T11:28:43Z</time>
      </trkpt>
      <trkpt lat="44.34384" lon="4.49811">
        <ele>257.9</ele>
        <time>2022-06-11T11:28:44Z</time>
      </trkpt>
      <trkpt lat="44.34388" lon="4.49816">
        <ele>257.8</ele>
        <time>2022-06-11T11:28:45Z</time>
      </trkpt>
      <trkpt lat="44.34393" lon="4.4982">
        <ele>257.6</ele>
        <time>2022-06-11T11:28:46Z</time>
      </trkpt>
      <trkpt lat="44.34397" lon="4.49825">
        <ele>257.4</ele>
        <time>2022-06-11T11:28:47Z</time>
      </trkpt>
      <trkpt lat="44.34401" lon="4.4983">
        <ele>257.2</ele>
        <time>2022-06-11T11:28:48Z</time>
      </trkpt>
      <trkpt lat="44.34406" lon="4.49834">
        <ele>257</ele>
        <time>2022-06-11T11:28:49Z</time>
      </trkpt>
      <trkpt lat="44.3441" lon="4.49838">
        <ele>256.8</ele>
        <time>2022-06-11T11:28:50Z</time>
      </trkpt>
      <trkpt lat="44.34416" lon="4.49843">
        <ele>256.6</ele>
        <time>2022-06-11T11:28:51Z</time>
      </trkpt>
      <trkpt lat="44.34421" lon="4.49848">
        <ele>256.3</ele>
        <time>2022-06-11T11:28:52Z</time>
      </trkpt>
      <trkpt lat="44.34426" lon="4.49853">
        <ele>256</ele>
        <time>2022-06-11T11:28:53Z</time>
      </trkpt>
      <trkpt lat="44.34431" lon="4.49858">
        <ele>255.7</ele>
        <time>2022-06-11T11:28:54Z</time>
      </trkpt>
      <trkpt lat="44.34436" lon="4.49864">
        <ele>255.4</ele>
        <time>2022-06-11T11:28:55Z</time>
      </trkpt>
      <trkpt lat="44.34441" lon="4.49869">
        <ele>255</ele>
        <time>2022-06-11T11:28:56Z</time>
      </trkpt>
      <trkpt lat="44.34446" lon="4.49875">
        <ele>254.7</ele>
        <time>2022-06-11T11:28:57Z</time>
      </trkpt>
      <trkpt lat="44.34452" lon="4.49881">
        <ele>254.3</ele>
        <time>2022-06-11T11:28:58Z</time>
      </trkpt>
      <trkpt lat="44.34457" lon="4.49887">
        <ele>254</ele>
        <time>2022-06-11T11:28:59Z</time>
      </trkpt>
      <trkpt lat="44.34463" lon="4.49893">
        <ele>253.6</ele>
        <time>2022-06-11T11:29:00Z</time>
      </trkpt>
      <trkpt lat="44.34469" lon="4.49899">
        <ele>253.2</ele>
        <time>2022-06-11T11:29:01Z</time>
      </trkpt>
      <trkpt lat="44.34475" lon="4.49905">
        <ele>252.8</ele>
        <time>2022-06-11T11:29:02Z</time>
      </trkpt>
      <trkpt lat="44.34481" lon="4.49912">
        <ele>252.4</ele>
        <time>2022-06-11T11:29:03Z</time>
      </trkpt>
      <trkpt lat="44.34487" lon="4.49919">
        <ele>252.1</ele>
        <time>2022-06-11T11:29:04Z</time>
      </trkpt>
      <trkpt lat="44.34493" lon="4.49926">
        <ele>251.9</ele>
        <time>2022-06-11T11:29:05Z</time>
      </trkpt>
      <trkpt lat="44.34499" lon="4.49934">
        <ele>251.8</ele>
        <time>2022-06-11T11:29:06Z</time>
      </trkpt>
      <trkpt lat="44.34505" lon="4.49941">
        <ele>251.6</ele>
        <time>2022-06-11T11:29:07Z</time>
      </trkpt>
      <trkpt lat="44.3451" lon="4.49948">
        <ele>251.6</ele>
        <time>2022-06-11T11:29:08Z</time>
      </trkpt>
      <trkpt lat="44.34515" lon="4.49955">
        <ele>251.5</ele>
        <time>2022-06-11T11:29:09Z</time>
      </trkpt>
      <trkpt lat="44.34519" lon="4.49961">
        <ele>251.5</ele>
        <time>2022-06-11T11:29:10Z</time>
      </trkpt>
      <trkpt lat="44.34524" lon="4.49968">
        <ele>251.5</ele>
        <time>2022-06-11T11:29:11Z</time>
      </trkpt>
      <trkpt lat="44.34529" lon="4.49975">
        <ele>251.6</ele>
        <time>2022-06-11T11:29:12Z</time>
      </trkpt>
      <trkpt lat="44.34534" lon="4.49982">
        <ele>251.6</ele>
        <time>2022-06-11T11:29:13Z</time>
      </trkpt>
      <trkpt lat="44.34538" lon="4.49988">
        <ele>251.7</ele>
        <time>2022-06-11T11:29:14Z</time>
      </trkpt>
      <trkpt lat="44.34542" lon="4.49993">
        <ele>251.8</ele>
        <time>2022-06-11T11:29:15Z</time>
      </trkpt>
      <trkpt lat="44.34546" lon="4.49998">
        <ele>252</ele>
        <time>2022-06-11T11:29:16Z</time>
      </trkpt>
      <trkpt lat="44.3455" lon="4.50003">
        <ele>252.1</ele>
        <time>2022-06-11T11:29:17Z</time>
      </trkpt>
      <trkpt lat="44.34553" lon="4.50007">
        <ele>252.2</ele>
        <time>2022-06-11T11:29:18Z</time>
      </trkpt>
      <trkpt lat="44.34557" lon="4.50012">
        <ele>252.4</ele>
        <time>2022-06-11T11:29:19Z</time>
      </trkpt>
      <trkpt lat="44.3456" lon="4.50015">
        <ele>252.5</ele>
        <time>2022-06-11T11:29:20Z</time>
      </trkpt>
      <trkpt lat="44.34564" lon="4.50018">
        <ele>252.7</ele>
        <time>2022-06-11T11:29:21Z</time>
      </trkpt>
      <trkpt lat="44.34567" lon="4.50021">
        <ele>252.8</ele>
        <time>2022-06-11T11:29:22Z</time>
      </trkpt>
      <trkpt lat="44.34569" lon="4.50024">
        <ele>252.9</ele>
        <time>2022-06-11T11:29:23Z</time>
      </trkpt>
      <trkpt lat="44.34571" lon="4.50026">
        <ele>253</ele>
        <time>2022-06-11T11:29:24Z</time>
      </trkpt>
      <trkpt lat="44.34575" lon="4.5003">
        <ele>253.2</ele>
        <time>2022-06-11T11:29:25Z</time>
      </trkpt>
      <trkpt lat="44.34578" lon="4.50033">
        <ele>253.4</ele>
        <time>2022-06-11T11:29:26Z</time>
      </trkpt>
      <trkpt lat="44.3458" lon="4.50034">
        <ele>253.5</ele>
        <time>2022-06-11T11:29:27Z</time>
      </trkpt>
      <trkpt lat="44.34582" lon="4.50033">
        <ele>253.6</ele>
        <time>2022-06-11T11:29:28Z</time>
      </trkpt>
      <trkpt lat="44.34589" lon="4.50046">
        <ele>253.6</ele>
        <time>2022-06-11T11:29:30Z</time>
      </trkpt>
      <trkpt lat="44.34593" lon="4.5005">
        <ele>253.7</ele>
        <time>2022-06-11T11:29:32Z</time>
      </trkpt>
      <trkpt lat="44.34594" lon="4.5005">
        <ele>253.7</ele>
        <time>2022-06-11T11:29:33Z</time>
      </trkpt>
      <trkpt lat="44.34595" lon="4.50051">
        <ele>253.7</ele>
        <time>2022-06-11T11:29:34Z</time>
      </trkpt>
      <trkpt lat="44.34597" lon="4.50052">
        <ele>253.7</ele>
        <time>2022-06-11T11:29:35Z</time>
      </trkpt>
      <trkpt lat="44.34598" lon="4.50053">
        <ele>253.7</ele>
        <time>2022-06-11T11:29:37Z</time>
      </trkpt>
      <trkpt lat="44.34598" lon="4.50054">
        <ele>253.7</ele>
        <time>2022-06-11T11:29:38Z</time>
      </trkpt>
      <trkpt lat="44.34598" lon="4.50051">
        <ele>253.7</ele>
        <time>2022-06-11T11:29:39Z</time>
      </trkpt>
      <trkpt lat="44.34596" lon="4.50048">
        <ele>253.8</ele>
        <time>2022-06-11T11:29:41Z</time>
      </trkpt>
      <trkpt lat="44.34594" lon="4.50046">
        <ele>253.8</ele>
        <time>2022-06-11T11:29:42Z</time>
      </trkpt>
      <trkpt lat="44.34591" lon="4.50042">
        <ele>253.8</ele>
        <time>2022-06-11T11:29:44Z</time>
      </trkpt>
      <trkpt lat="44.34589" lon="4.50038">
        <ele>253.8</ele>
        <time>2022-06-11T11:29:45Z</time>
      </trkpt>
      <trkpt lat="44.34587" lon="4.50034">
        <ele>253.9</ele>
        <time>2022-06-11T11:29:46Z</time>
      </trkpt>
      <trkpt lat="44.34584" lon="4.50036">
        <ele>253.9</ele>
        <time>2022-06-11T11:29:47Z</time>
      </trkpt>
      <trkpt lat="44.34582" lon="4.5004">
        <ele>253.9</ele>
        <time>2022-06-11T11:29:48Z</time>
      </trkpt>
      <trkpt lat="44.34584" lon="4.50044">
        <ele>253.9</ele>
        <time>2022-06-11T11:29:49Z</time>
      </trkpt>
      <trkpt lat="44.34586" lon="4.50048">
        <ele>253.9</ele>
        <time>2022-06-11T11:29:50Z</time>
      </trkpt>
      <trkpt lat="44.34586" lon="4.50056">
        <ele>254.2</ele>
        <time>2022-06-11T11:29:51Z</time>
      </trkpt>
      <trkpt lat="44.34587" lon="4.50063">
        <ele>254.1</ele>
        <time>2022-06-11T11:29:52Z</time>
      </trkpt>
      <trkpt lat="44.34588" lon="4.50068">
        <ele>254.1</ele>
        <time>2022-06-11T11:29:53Z</time>
      </trkpt>
      <trkpt lat="44.34588" lon="4.50073">
        <ele>254.1</ele>
        <time>2022-06-11T11:29:54Z</time>
      </trkpt>
      <trkpt lat="44.34589" lon="4.50077">
        <ele>254.1</ele>
        <time>2022-06-11T11:29:55Z</time>
      </trkpt>
      <trkpt lat="44.34591" lon="4.50081">
        <ele>254.1</ele>
        <time>2022-06-11T11:29:57Z</time>
      </trkpt>
      <trkpt lat="44.34591" lon="4.50086">
        <ele>254.1</ele>
        <time>2022-06-11T11:29:58Z</time>
      </trkpt>
      <trkpt lat="44.34592" lon="4.5009">
        <ele>254</ele>
        <time>2022-06-11T11:29:59Z</time>
      </trkpt>
      <trkpt lat="44.34593" lon="4.50093">
        <ele>254</ele>
        <time>2022-06-11T11:30:00Z</time>
      </trkpt>
      <trkpt lat="44.34594" lon="4.50098">
        <ele>254</ele>
        <time>2022-06-11T11:30:01Z</time>
      </trkpt>
      <trkpt lat="44.34595" lon="4.50103">
        <ele>254</ele>
        <time>2022-06-11T11:30:02Z</time>
      </trkpt>
      <trkpt lat="44.34596" lon="4.50104">
        <ele>254</ele>
        <time>2022-06-11T11:30:03Z</time>
      </trkpt>
      <trkpt lat="44.34597" lon="4.50108">
        <ele>254</ele>
        <time>2022-06-11T11:30:05Z</time>
      </trkpt>
      <trkpt lat="44.34598" lon="4.50109">
        <ele>254</ele>
        <time>2022-06-11T11:30:06Z</time>
      </trkpt>
      <trkpt lat="44.34599" lon="4.50111">
        <ele>254</ele>
        <time>2022-06-11T11:30:07Z</time>
      </trkpt>
      <trkpt lat="44.34599" lon="4.50111">
        <ele>254</ele>
        <time>2022-06-11T11:30:08Z</time>
      </trkpt>
      <trkpt lat="44.34599" lon="4.5011">
        <ele>254</ele>
        <time>2022-06-11T11:30:09Z</time>
      </trkpt>
      <trkpt lat="44.34599" lon="4.5011">
        <ele>254</ele>
        <time>2022-06-11T11:30:10Z</time>
      </trkpt>
      <trkpt lat="44.34599" lon="4.50109">
        <ele>253.9</ele>
        <time>2022-06-11T11:30:11Z</time>
      </trkpt>
      <trkpt lat="44.34599" lon="4.50109">
        <ele>253.9</ele>
        <time>2022-06-11T11:30:12Z</time>
      </trkpt>
      <trkpt lat="44.34599" lon="4.50109">
        <ele>253.9</ele>
        <time>2022-06-11T11:30:13Z</time>
      </trkpt>
      <trkpt lat="44.34598" lon="4.50109">
        <ele>253.9</ele>
        <time>2022-06-11T11:30:14Z</time>
      </trkpt>
      <trkpt lat="44.34598" lon="4.50108">
        <ele>253.9</ele>
        <time>2022-06-11T11:30:15Z</time>
      </trkpt>
      <trkpt lat="44.34599" lon="4.50109">
        <ele>253.9</ele>
        <time>2022-06-11T11:30:17Z</time>
      </trkpt>
      <trkpt lat="44.34599" lon="4.50109">
        <ele>253.9</ele>
        <time>2022-06-11T11:30:18Z</time>
      </trkpt>
      <trkpt lat="44.34599" lon="4.50109">
        <ele>253.9</ele>
        <time>2022-06-11T11:30:19Z</time>
      </trkpt>
      <trkpt lat="44.34599" lon="4.50109">
        <ele>253.9</ele>
        <time>2022-06-11T11:30:20Z</time>
      </trkpt>
      <trkpt lat="44.34599" lon="4.50109">
        <ele>253.9</ele>
        <time>2022-06-11T11:30:21Z</time>
      </trkpt>
      <trkpt lat="44.34599" lon="4.50109">
        <ele>253.9</ele>
        <time>2022-06-11T11:30:22Z</time>
      </trkpt>
      <trkpt lat="44.34599" lon="4.5011">
        <ele>253.9</ele>
        <time>2022-06-11T11:30:23Z</time>
      </trkpt>
      <trkpt lat="44.34599" lon="4.5011">
        <ele>253.9</ele>
        <time>2022-06-11T11:30:24Z</time>
      </trkpt>
      <trkpt lat="44.34599" lon="4.5011">
        <ele>253.9</ele>
        <time>2022-06-11T11:30:25Z</time>
      </trkpt>
      <trkpt lat="44.34599" lon="4.5011">
        <ele>253.9</ele>
        <time>2022-06-11T11:30:26Z</time>
      </trkpt>
      <trkpt lat="44.34599" lon="4.50111">
        <ele>253.9</ele>
        <time>2022-06-11T11:30:27Z</time>
      </trkpt>
      <trkpt lat="44.34598" lon="4.50111">
        <ele>253.9</ele>
        <time>2022-06-11T11:30:28Z</time>
      </trkpt>
      <trkpt lat="44.34595" lon="4.50107">
        <ele>253.9</ele>
        <time>2022-06-11T11:30:59Z</time>
      </trkpt>
      <trkpt lat="44.34594" lon="4.50105">
        <ele>253.9</ele>
        <time>2022-06-11T11:31:00Z</time>
      </trkpt>
      <trkpt lat="44.34593" lon="4.50104">
        <ele>253.9</ele>
        <time>2022-06-11T11:31:01Z</time>
      </trkpt>
      <trkpt lat="44.34592" lon="4.50103">
        <ele>253.9</ele>
        <time>2022-06-11T11:31:02Z</time>
      </trkpt>
      <trkpt lat="44.34591" lon="4.50102">
        <ele>253.9</ele>
        <time>2022-06-11T11:31:04Z</time>
      </trkpt>
      <trkpt lat="44.3459" lon="4.50101">
        <ele>253.9</ele>
        <time>2022-06-11T11:31:05Z</time>
      </trkpt>
      <trkpt lat="44.3459" lon="4.501">
        <ele>253.7</ele>
        <time>2022-06-11T11:31:06Z</time>
      </trkpt>
      <trkpt lat="44.3459" lon="4.50099">
        <ele>253.4</ele>
        <time>2022-06-11T11:31:07Z</time>
      </trkpt>
      <trkpt lat="44.34589" lon="4.50097">
        <ele>252.9</ele>
        <time>2022-06-11T11:31:08Z</time>
      </trkpt>
      <trkpt lat="44.34589" lon="4.50095">
        <ele>252.6</ele>
        <time>2022-06-11T11:31:10Z</time>
      </trkpt>
      <trkpt lat="44.34589" lon="4.50093">
        <ele>252.3</ele>
        <time>2022-06-11T11:31:11Z</time>
      </trkpt>
      <trkpt lat="44.34588" lon="4.50092">
        <ele>252</ele>
        <time>2022-06-11T11:31:12Z</time>
      </trkpt>
      <trkpt lat="44.34587" lon="4.5009">
        <ele>251.4</ele>
        <time>2022-06-11T11:31:13Z</time>
      </trkpt>
      <trkpt lat="44.34586" lon="4.50089">
        <ele>251.1</ele>
        <time>2022-06-11T11:31:15Z</time>
      </trkpt>
      <trkpt lat="44.34585" lon="4.50088">
        <ele>250.8</ele>
        <time>2022-06-11T11:31:16Z</time>
      </trkpt>
      <trkpt lat="44.34584" lon="4.50087">
        <ele>250.5</ele>
        <time>2022-06-11T11:31:17Z</time>
      </trkpt>
      <trkpt lat="44.34583" lon="4.50087">
        <ele>250.2</ele>
        <time>2022-06-11T11:31:18Z</time>
      </trkpt>
      <trkpt lat="44.34582" lon="4.50086">
        <ele>249.9</ele>
        <time>2022-06-11T11:31:19Z</time>
      </trkpt>
      <trkpt lat="44.34581" lon="4.50085">
        <ele>249.5</ele>
        <time>2022-06-11T11:31:20Z</time>
      </trkpt>
      <trkpt lat="44.3458" lon="4.50084">
        <ele>249.2</ele>
        <time>2022-06-11T11:31:21Z</time>
      </trkpt>
      <trkpt lat="44.34578" lon="4.50083">
        <ele>248.6</ele>
        <time>2022-06-11T11:31:22Z</time>
      </trkpt>
      <trkpt lat="44.34577" lon="4.50083">
        <ele>248.7</ele>
        <time>2022-06-11T11:31:23Z</time>
      </trkpt>
      <trkpt lat="44.34576" lon="4.50082">
        <ele>248.9</ele>
        <time>2022-06-11T11:31:24Z</time>
      </trkpt>
      <trkpt lat="44.34574" lon="4.50082">
        <ele>249.2</ele>
        <time>2022-06-11T11:31:25Z</time>
      </trkpt>
      <trkpt lat="44.34574" lon="4.50082">
        <ele>249.4</ele>
        <time>2022-06-11T11:31:26Z</time>
      </trkpt>
      <trkpt lat="44.34573" lon="4.50082">
        <ele>249.5</ele>
        <time>2022-06-11T11:31:27Z</time>
      </trkpt>
      <trkpt lat="44.34571" lon="4.50082">
        <ele>249.8</ele>
        <time>2022-06-11T11:31:29Z</time>
      </trkpt>
      <trkpt lat="44.34571" lon="4.50083">
        <ele>249.8</ele>
        <time>2022-06-11T11:31:30Z</time>
      </trkpt>
      <trkpt lat="44.34571" lon="4.50083">
        <ele>249.9</ele>
        <time>2022-06-11T11:31:31Z</time>
      </trkpt>
      <trkpt lat="44.34571" lon="4.50083">
        <ele>249.9</ele>
        <time>2022-06-11T11:31:32Z</time>
      </trkpt>
      <trkpt lat="44.34571" lon="4.50083">
        <ele>249.9</ele>
        <time>2022-06-11T11:31:33Z</time>
      </trkpt>
      <trkpt lat="44.34571" lon="4.50083">
        <ele>250</ele>
        <time>2022-06-11T11:31:34Z</time>
      </trkpt>
      <trkpt lat="44.34571" lon="4.50083">
        <ele>250</ele>
        <time>2022-06-11T11:31:35Z</time>
      </trkpt>
      <trkpt lat="44.34571" lon="4.50083">
        <ele>250</ele>
        <time>2022-06-11T11:31:36Z</time>
      </trkpt>
      <trkpt lat="44.34571" lon="4.50083">
        <ele>250</ele>
        <time>2022-06-11T11:31:37Z</time>
      </trkpt>
      <trkpt lat="44.34572" lon="4.50083">
        <ele>250</ele>
        <time>2022-06-11T11:31:38Z</time>
      </trkpt>
      <trkpt lat="44.34572" lon="4.50083">
        <ele>250</ele>
        <time>2022-06-11T11:31:39Z</time>
      </trkpt>
      <trkpt lat="44.34572" lon="4.50083">
        <ele>250</ele>
        <time>2022-06-11T11:31:40Z</time>
      </trkpt>
      <trkpt lat="44.34572" lon="4.50084">
        <ele>250</ele>
        <time>2022-06-11T11:31:41Z</time>
      </trkpt>
      <trkpt lat="44.34572" lon="4.50084">
        <ele>250.1</ele>
        <time>2022-06-11T11:31:42Z</time>
      </trkpt>
      <trkpt lat="44.34572" lon="4.50084">
        <ele>250.1</ele>
        <time>2022-06-11T11:31:43Z</time>
      </trkpt>
      <trkpt lat="44.34575" lon="4.50085">
        <ele>250.7</ele>
        <time>2022-06-11T11:32:24Z</time>
      </trkpt>
      <trkpt lat="44.34576" lon="4.50086">
        <ele>250.8</ele>
        <time>2022-06-11T11:32:25Z</time>
      </trkpt>
      <trkpt lat="44.34577" lon="4.50086">
        <ele>251</ele>
        <time>2022-06-11T11:32:26Z</time>
      </trkpt>
      <trkpt lat="44.34578" lon="4.50086">
        <ele>251.1</ele>
        <time>2022-06-11T11:32:27Z</time>
      </trkpt>
      <trkpt lat="44.34578" lon="4.50086">
        <ele>251.2</ele>
        <time>2022-06-11T11:32:28Z</time>
      </trkpt>
      <trkpt lat="44.34579" lon="4.50087">
        <ele>251.4</ele>
        <time>2022-06-11T11:32:29Z</time>
      </trkpt>
      <trkpt lat="44.3458" lon="4.50088">
        <ele>251.5</ele>
        <time>2022-06-11T11:32:30Z</time>
      </trkpt>
      <trkpt lat="44.34581" lon="4.50089">
        <ele>251.7</ele>
        <time>2022-06-11T11:32:31Z</time>
      </trkpt>
      <trkpt lat="44.34582" lon="4.5009">
        <ele>252</ele>
        <time>2022-06-11T11:32:32Z</time>
      </trkpt>
      <trkpt lat="44.34583" lon="4.50091">
        <ele>252.2</ele>
        <time>2022-06-11T11:32:33Z</time>
      </trkpt>
      <trkpt lat="44.34584" lon="4.50091">
        <ele>252.4</ele>
        <time>2022-06-11T11:32:34Z</time>
      </trkpt>
      <trkpt lat="44.34586" lon="4.50093">
        <ele>252.7</ele>
        <time>2022-06-11T11:32:35Z</time>
      </trkpt>
      <trkpt lat="44.34587" lon="4.50094">
        <ele>252.9</ele>
        <time>2022-06-11T11:32:36Z</time>
      </trkpt>
      <trkpt lat="44.34587" lon="4.50095">
        <ele>253</ele>
        <time>2022-06-11T11:32:37Z</time>
      </trkpt>
      <trkpt lat="44.34588" lon="4.50096">
        <ele>253.3</ele>
        <time>2022-06-11T11:32:38Z</time>
      </trkpt>
      <trkpt lat="44.34589" lon="4.50097">
        <ele>253.5</ele>
        <time>2022-06-11T11:32:39Z</time>
      </trkpt>
      <trkpt lat="44.34591" lon="4.50099">
        <ele>253.9</ele>
        <time>2022-06-11T11:32:41Z</time>
      </trkpt>
      <trkpt lat="44.34592" lon="4.501">
        <ele>253.9</ele>
        <time>2022-06-11T11:32:42Z</time>
      </trkpt>
      <trkpt lat="44.34592" lon="4.50101">
        <ele>253.9</ele>
        <time>2022-06-11T11:32:43Z</time>
      </trkpt>
      <trkpt lat="44.34594" lon="4.50103">
        <ele>253.9</ele>
        <time>2022-06-11T11:32:44Z</time>
      </trkpt>
      <trkpt lat="44.34595" lon="4.50104">
        <ele>253.9</ele>
        <time>2022-06-11T11:32:45Z</time>
      </trkpt>
      <trkpt lat="44.34595" lon="4.50104">
        <ele>253.9</ele>
        <time>2022-06-11T11:32:46Z</time>
      </trkpt>
      <trkpt lat="44.34596" lon="4.50105">
        <ele>253.9</ele>
        <time>2022-06-11T11:32:47Z</time>
      </trkpt>
      <trkpt lat="44.34597" lon="4.50107">
        <ele>253.9</ele>
        <time>2022-06-11T11:32:49Z</time>
      </trkpt>
      <trkpt lat="44.34598" lon="4.50108">
        <ele>253.9</ele>
        <time>2022-06-11T11:32:50Z</time>
      </trkpt>
      <trkpt lat="44.34599" lon="4.50109">
        <ele>253.9</ele>
        <time>2022-06-11T11:32:51Z</time>
      </trkpt>
      <trkpt lat="44.34601" lon="4.5011">
        <ele>253.9</ele>
        <time>2022-06-11T11:32:52Z</time>
      </trkpt>
      <trkpt lat="44.34601" lon="4.50109">
        <ele>253.9</ele>
        <time>2022-06-11T11:32:54Z</time>
      </trkpt>
      <trkpt lat="44.346" lon="4.50109">
        <ele>254</ele>
        <time>2022-06-11T11:32:55Z</time>
      </trkpt>
      <trkpt lat="44.346" lon="4.50108">
        <ele>254</ele>
        <time>2022-06-11T11:32:56Z</time>
      </trkpt>
      <trkpt lat="44.346" lon="4.50108">
        <ele>254</ele>
        <time>2022-06-11T11:32:57Z</time>
      </trkpt>
      <trkpt lat="44.346" lon="4.50108">
        <ele>254</ele>
        <time>2022-06-11T11:32:58Z</time>
      </trkpt>
      <trkpt lat="44.34599" lon="4.50107">
        <ele>254</ele>
        <time>2022-06-11T11:32:59Z</time>
      </trkpt>
      <trkpt lat="44.34599" lon="4.50107">
        <ele>254</ele>
        <time>2022-06-11T11:33:00Z</time>
      </trkpt>
      <trkpt lat="44.34599" lon="4.50106">
        <ele>254</ele>
        <time>2022-06-11T11:33:01Z</time>
      </trkpt>
      <trkpt lat="44.34598" lon="4.50106">
        <ele>254</ele>
        <time>2022-06-11T11:33:02Z</time>
      </trkpt>
      <trkpt lat="44.34598" lon="4.50106">
        <ele>254</ele>
        <time>2022-06-11T11:33:03Z</time>
      </trkpt>
      <trkpt lat="44.34598" lon="4.50105">
        <ele>254</ele>
        <time>2022-06-11T11:33:04Z</time>
      </trkpt>
      <trkpt lat="44.34597" lon="4.50105">
        <ele>254</ele>
        <time>2022-06-11T11:33:05Z</time>
      </trkpt>
      <trkpt lat="44.34597" lon="4.50104">
        <ele>254</ele>
        <time>2022-06-11T11:33:06Z</time>
      </trkpt>
      <trkpt lat="44.34597" lon="4.50104">
        <ele>254</ele>
        <time>2022-06-11T11:33:07Z</time>
      </trkpt>
      <trkpt lat="44.34597" lon="4.50104">
        <ele>254</ele>
        <time>2022-06-11T11:33:08Z</time>
      </trkpt>
      <trkpt lat="44.34596" lon="4.50103">
        <ele>254</ele>
        <time>2022-06-11T11:33:09Z</time>
      </trkpt>
      <trkpt lat="44.34596" lon="4.50103">
        <ele>254</ele>
        <time>2022-06-11T11:33:10Z</time>
      </trkpt>
      <trkpt lat="44.34596" lon="4.50102">
        <ele>254</ele>
        <time>2022-06-11T11:33:11Z</time>
      </trkpt>
      <trkpt lat="44.34595" lon="4.50102">
        <ele>254</ele>
        <time>2022-06-11T11:33:12Z</time>
      </trkpt>
      <trkpt lat="44.34595" lon="4.50102">
        <ele>254</ele>
        <time>2022-06-11T11:33:13Z</time>
      </trkpt>
      <trkpt lat="44.34595" lon="4.50101">
        <ele>254</ele>
        <time>2022-06-11T11:33:14Z</time>
      </trkpt>
      <trkpt lat="44.34594" lon="4.50101">
        <ele>254</ele>
        <time>2022-06-11T11:33:39Z</time>
      </trkpt>
      <trkpt lat="44.34594" lon="4.501">
        <ele>254</ele>
        <time>2022-06-11T11:33:40Z</time>
      </trkpt>
      <trkpt lat="44.34594" lon="4.501">
        <ele>254</ele>
        <time>2022-06-11T11:33:41Z</time>
      </trkpt>
      <trkpt lat="44.34593" lon="4.50096">
        <ele>254</ele>
        <time>2022-06-11T11:33:43Z</time>
      </trkpt>
      <trkpt lat="44.34593" lon="4.50094">
        <ele>254</ele>
        <time>2022-06-11T11:33:44Z</time>
      </trkpt>
      <trkpt lat="44.34592" lon="4.50093">
        <ele>254</ele>
        <time>2022-06-11T11:33:45Z</time>
      </trkpt>
      <trkpt lat="44.34592" lon="4.50092">
        <ele>254</ele>
        <time>2022-06-11T11:33:46Z</time>
      </trkpt>
      <trkpt lat="44.34592" lon="4.5009">
        <ele>254</ele>
        <time>2022-06-11T11:33:47Z</time>
      </trkpt>
      <trkpt lat="44.34592" lon="4.50088">
        <ele>254</ele>
        <time>2022-06-11T11:33:48Z</time>
      </trkpt>
      <trkpt lat="44.34591" lon="4.50087">
        <ele>254.1</ele>
        <time>2022-06-11T11:33:49Z</time>
      </trkpt>
      <trkpt lat="44.34591" lon="4.50085">
        <ele>254.1</ele>
        <time>2022-06-11T11:33:50Z</time>
      </trkpt>
      <trkpt lat="44.34591" lon="4.50084">
        <ele>254.1</ele>
        <time>2022-06-11T11:33:51Z</time>
      </trkpt>
      <trkpt lat="44.3459" lon="4.50083">
        <ele>254.1</ele>
        <time>2022-06-11T11:33:52Z</time>
      </trkpt>
      <trkpt lat="44.3459" lon="4.50081">
        <ele>254.1</ele>
        <time>2022-06-11T11:33:53Z</time>
      </trkpt>
      <trkpt lat="44.3459" lon="4.5008">
        <ele>254.1</ele>
        <time>2022-06-11T11:33:54Z</time>
      </trkpt>
      <trkpt lat="44.34589" lon="4.50078">
        <ele>254.1</ele>
        <time>2022-06-11T11:33:55Z</time>
      </trkpt>
      <trkpt lat="44.34589" lon="4.50075">
        <ele>254.1</ele>
        <time>2022-06-11T11:33:56Z</time>
      </trkpt>
      <trkpt lat="44.34589" lon="4.50074">
        <ele>254.1</ele>
        <time>2022-06-11T11:33:58Z</time>
      </trkpt>
      <trkpt lat="44.34588" lon="4.50071">
        <ele>254.1</ele>
        <time>2022-06-11T11:33:59Z</time>
      </trkpt>
      <trkpt lat="44.34588" lon="4.50069">
        <ele>254.1</ele>
        <time>2022-06-11T11:34:00Z</time>
      </trkpt>
      <trkpt lat="44.34588" lon="4.50067">
        <ele>254.1</ele>
        <time>2022-06-11T11:34:01Z</time>
      </trkpt>
      <trkpt lat="44.34587" lon="4.50066">
        <ele>254.1</ele>
        <time>2022-06-11T11:34:02Z</time>
      </trkpt>
      <trkpt lat="44.34587" lon="4.50064">
        <ele>254.1</ele>
        <time>2022-06-11T11:34:03Z</time>
      </trkpt>
      <trkpt lat="44.34587" lon="4.50062">
        <ele>254.1</ele>
        <time>2022-06-11T11:34:04Z</time>
      </trkpt>
      <trkpt lat="44.34586" lon="4.50061">
        <ele>254.1</ele>
        <time>2022-06-11T11:34:05Z</time>
      </trkpt>
      <trkpt lat="44.34586" lon="4.50058">
        <ele>254.1</ele>
        <time>2022-06-11T11:34:07Z</time>
      </trkpt>
      <trkpt lat="44.34586" lon="4.50056">
        <ele>254.1</ele>
        <time>2022-06-11T11:34:08Z</time>
      </trkpt>
      <trkpt lat="44.34585" lon="4.50054">
        <ele>254.1</ele>
        <time>2022-06-11T11:34:09Z</time>
      </trkpt>
      <trkpt lat="44.34585" lon="4.50052">
        <ele>254.1</ele>
        <time>2022-06-11T11:34:11Z</time>
      </trkpt>
      <trkpt lat="44.34585" lon="4.50051">
        <ele>254</ele>
        <time>2022-06-11T11:34:12Z</time>
      </trkpt>
      <trkpt lat="44.34584" lon="4.50049">
        <ele>254</ele>
        <time>2022-06-11T11:34:13Z</time>
      </trkpt>
      <trkpt lat="44.34584" lon="4.50047">
        <ele>254</ele>
        <time>2022-06-11T11:34:14Z</time>
      </trkpt>
      <trkpt lat="44.34583" lon="4.50045">
        <ele>254</ele>
        <time>2022-06-11T11:34:15Z</time>
      </trkpt>
      <trkpt lat="44.34582" lon="4.50043">
        <ele>253.9</ele>
        <time>2022-06-11T11:34:17Z</time>
      </trkpt>
      <trkpt lat="44.34582" lon="4.50041">
        <ele>253.9</ele>
        <time>2022-06-11T11:34:18Z</time>
      </trkpt>
      <trkpt lat="44.34583" lon="4.50041">
        <ele>253.9</ele>
        <time>2022-06-11T11:34:19Z</time>
      </trkpt>
      <trkpt lat="44.34584" lon="4.5004">
        <ele>253.9</ele>
        <time>2022-06-11T11:34:20Z</time>
      </trkpt>
      <trkpt lat="44.34585" lon="4.5004">
        <ele>253.8</ele>
        <time>2022-06-11T11:34:21Z</time>
      </trkpt>
      <trkpt lat="44.34586" lon="4.50041">
        <ele>253.8</ele>
        <time>2022-06-11T11:34:22Z</time>
      </trkpt>
      <trkpt lat="44.34587" lon="4.50042">
        <ele>253.8</ele>
        <time>2022-06-11T11:34:23Z</time>
      </trkpt>
      <trkpt lat="44.34587" lon="4.50042">
        <ele>253.8</ele>
        <time>2022-06-11T11:34:24Z</time>
      </trkpt>
      <trkpt lat="44.34587" lon="4.50042">
        <ele>253.8</ele>
        <time>2022-06-11T11:34:25Z</time>
      </trkpt>
      <trkpt lat="44.34588" lon="4.50041">
        <ele>253.8</ele>
        <time>2022-06-11T11:34:26Z</time>
      </trkpt>
      <trkpt lat="44.34588" lon="4.50041">
        <ele>253.8</ele>
        <time>2022-06-11T11:34:27Z</time>
      </trkpt>
      <trkpt lat="44.34588" lon="4.50042">
        <ele>253.8</ele>
        <time>2022-06-11T11:34:28Z</time>
      </trkpt>
      <trkpt lat="44.34588" lon="4.50042">
        <ele>253.8</ele>
        <time>2022-06-11T11:34:29Z</time>
      </trkpt>
      <trkpt lat="44.34588" lon="4.50042">
        <ele>253.8</ele>
        <time>2022-06-11T11:34:30Z</time>
      </trkpt>
      <trkpt lat="44.34588" lon="4.50042">
        <ele>253.9</ele>
        <time>2022-06-11T11:34:31Z</time>
      </trkpt>
      <trkpt lat="44.34588" lon="4.50042">
        <ele>253.9</ele>
        <time>2022-06-11T11:34:32Z</time>
      </trkpt>
      <trkpt lat="44.34589" lon="4.50043">
        <ele>253.9</ele>
        <time>2022-06-11T11:34:33Z</time>
      </trkpt>
      <trkpt lat="44.3459" lon="4.50043">
        <ele>253.9</ele>
        <time>2022-06-11T11:34:34Z</time>
      </trkpt>
      <trkpt lat="44.34591" lon="4.50044">
        <ele>254</ele>
        <time>2022-06-11T11:34:35Z</time>
      </trkpt>
      <trkpt lat="44.34593" lon="4.50045">
        <ele>254.1</ele>
        <time>2022-06-11T11:34:36Z</time>
      </trkpt>
      <trkpt lat="44.34595" lon="4.50048">
        <ele>254.2</ele>
        <time>2022-06-11T11:34:37Z</time>
      </trkpt>
      <trkpt lat="44.34596" lon="4.50049">
        <ele>254.3</ele>
        <time>2022-06-11T11:34:38Z</time>
      </trkpt>
      <trkpt lat="44.34599" lon="4.50051">
        <ele>254.4</ele>
        <time>2022-06-11T11:34:39Z</time>
      </trkpt>
      <trkpt lat="44.346" lon="4.50053">
        <ele>254.5</ele>
        <time>2022-06-11T11:34:40Z</time>
      </trkpt>
      <trkpt lat="44.34602" lon="4.50056">
        <ele>254.6</ele>
        <time>2022-06-11T11:34:41Z</time>
      </trkpt>
      <trkpt lat="44.34603" lon="4.50058">
        <ele>254.7</ele>
        <time>2022-06-11T11:34:42Z</time>
      </trkpt>
      <trkpt lat="44.34606" lon="4.50062">
        <ele>254.9</ele>
        <time>2022-06-11T11:34:43Z</time>
      </trkpt>
      <trkpt lat="44.34608" lon="4.50066">
        <ele>255.1</ele>
        <time>2022-06-11T11:34:45Z</time>
      </trkpt>
      <trkpt lat="44.34609" lon="4.50067">
        <ele>255.1</ele>
        <time>2022-06-11T11:34:46Z</time>
      </trkpt>
      <trkpt lat="44.34611" lon="4.50069">
        <ele>255.2</ele>
        <time>2022-06-11T11:34:47Z</time>
      </trkpt>
      <trkpt lat="44.34614" lon="4.50071">
        <ele>255.4</ele>
        <time>2022-06-11T11:34:49Z</time>
      </trkpt>
      <trkpt lat="44.34617" lon="4.50075">
        <ele>255.6</ele>
        <time>2022-06-11T11:34:50Z</time>
      </trkpt>
      <trkpt lat="44.3462" lon="4.50078">
        <ele>255.8</ele>
        <time>2022-06-11T11:34:52Z</time>
      </trkpt>
      <trkpt lat="44.34622" lon="4.50081">
        <ele>256.1</ele>
        <time>2022-06-11T11:34:53Z</time>
      </trkpt>
      <trkpt lat="44.34625" lon="4.50083">
        <ele>256.2</ele>
        <time>2022-06-11T11:34:55Z</time>
      </trkpt>
      <trkpt lat="44.34627" lon="4.50085">
        <ele>256.4</ele>
        <time>2022-06-11T11:34:56Z</time>
      </trkpt>
      <trkpt lat="44.3463" lon="4.50088">
        <ele>256.6</ele>
        <time>2022-06-11T11:34:58Z</time>
      </trkpt>
      <trkpt lat="44.34633" lon="4.5009">
        <ele>256.8</ele>
        <time>2022-06-11T11:34:59Z</time>
      </trkpt>
      <trkpt lat="44.34634" lon="4.50091">
        <ele>256.9</ele>
        <time>2022-06-11T11:35:00Z</time>
      </trkpt>
      <trkpt lat="44.34636" lon="4.50093">
        <ele>257.1</ele>
        <time>2022-06-11T11:35:01Z</time>
      </trkpt>
      <trkpt lat="44.34637" lon="4.50094">
        <ele>257.1</ele>
        <time>2022-06-11T11:35:02Z</time>
      </trkpt>
      <trkpt lat="44.34639" lon="4.50097">
        <ele>257.4</ele>
        <time>2022-06-11T11:35:03Z</time>
      </trkpt>
      <trkpt lat="44.34642" lon="4.50101">
        <ele>257.6</ele>
        <time>2022-06-11T11:35:05Z</time>
      </trkpt>
      <trkpt lat="44.34645" lon="4.50105">
        <ele>257.8</ele>
        <time>2022-06-11T11:35:07Z</time>
      </trkpt>
      <trkpt lat="44.34646" lon="4.50106">
        <ele>257.9</ele>
        <time>2022-06-11T11:35:08Z</time>
      </trkpt>
      <trkpt lat="44.34648" lon="4.50108">
        <ele>258.1</ele>
        <time>2022-06-11T11:35:09Z</time>
      </trkpt>
      <trkpt lat="44.34649" lon="4.50109">
        <ele>258.2</ele>
        <time>2022-06-11T11:35:10Z</time>
      </trkpt>
      <trkpt lat="44.34651" lon="4.50111">
        <ele>258.4</ele>
        <time>2022-06-11T11:35:11Z</time>
      </trkpt>
      <trkpt lat="44.34652" lon="4.50112">
        <ele>258.4</ele>
        <time>2022-06-11T11:35:12Z</time>
      </trkpt>
      <trkpt lat="44.34656" lon="4.50114">
        <ele>258.7</ele>
        <time>2022-06-11T11:35:13Z</time>
      </trkpt>
      <trkpt lat="44.34657" lon="4.50115">
        <ele>258.7</ele>
        <time>2022-06-11T11:35:14Z</time>
      </trkpt>
      <trkpt lat="44.34659" lon="4.50117">
        <ele>258.9</ele>
        <time>2022-06-11T11:35:16Z</time>
      </trkpt>
      <trkpt lat="44.34662" lon="4.50119">
        <ele>259</ele>
        <time>2022-06-11T11:35:17Z</time>
      </trkpt>
      <trkpt lat="44.34666" lon="4.50121">
        <ele>259.2</ele>
        <time>2022-06-11T11:35:19Z</time>
      </trkpt>
      <trkpt lat="44.34667" lon="4.50122">
        <ele>259.2</ele>
        <time>2022-06-11T11:35:20Z</time>
      </trkpt>
      <trkpt lat="44.3467" lon="4.50123">
        <ele>259.4</ele>
        <time>2022-06-11T11:35:21Z</time>
      </trkpt>
      <trkpt lat="44.34671" lon="4.50124">
        <ele>259.4</ele>
        <time>2022-06-11T11:35:22Z</time>
      </trkpt>
      <trkpt lat="44.34674" lon="4.50126">
        <ele>259.6</ele>
        <time>2022-06-11T11:35:23Z</time>
      </trkpt>
      <trkpt lat="44.34675" lon="4.50127">
        <ele>259.6</ele>
        <time>2022-06-11T11:35:24Z</time>
      </trkpt>
      <trkpt lat="44.34678" lon="4.5013">
        <ele>259.7</ele>
        <time>2022-06-11T11:35:25Z</time>
      </trkpt>
      <trkpt lat="44.34679" lon="4.50131">
        <ele>259.8</ele>
        <time>2022-06-11T11:35:26Z</time>
      </trkpt>
      <trkpt lat="44.34683" lon="4.50133">
        <ele>259.9</ele>
        <time>2022-06-11T11:35:27Z</time>
      </trkpt>
      <trkpt lat="44.34685" lon="4.50135">
        <ele>260</ele>
        <time>2022-06-11T11:35:28Z</time>
      </trkpt>
      <trkpt lat="44.34687" lon="4.50136">
        <ele>260</ele>
        <time>2022-06-11T11:35:30Z</time>
      </trkpt>
      <trkpt lat="44.34691" lon="4.50138">
        <ele>260.2</ele>
        <time>2022-06-11T11:35:31Z</time>
      </trkpt>
      <trkpt lat="44.34692" lon="4.50138">
        <ele>260.2</ele>
        <time>2022-06-11T11:35:32Z</time>
      </trkpt>
      <trkpt lat="44.34696" lon="4.50141">
        <ele>260.3</ele>
        <time>2022-06-11T11:35:33Z</time>
      </trkpt>
      <trkpt lat="44.34699" lon="4.50143">
        <ele>260.4</ele>
        <time>2022-06-11T11:35:35Z</time>
      </trkpt>
      <trkpt lat="44.34701" lon="4.50144">
        <ele>260.5</ele>
        <time>2022-06-11T11:35:36Z</time>
      </trkpt>
      <trkpt lat="44.34705" lon="4.50146">
        <ele>260.6</ele>
        <time>2022-06-11T11:35:37Z</time>
      </trkpt>
      <trkpt lat="44.34706" lon="4.50147">
        <ele>260.6</ele>
        <time>2022-06-11T11:35:38Z</time>
      </trkpt>
      <trkpt lat="44.34709" lon="4.50148">
        <ele>260.7</ele>
        <time>2022-06-11T11:35:39Z</time>
      </trkpt>
      <trkpt lat="44.3471" lon="4.50148">
        <ele>260.7</ele>
        <time>2022-06-11T11:35:40Z</time>
      </trkpt>
      <trkpt lat="44.34714" lon="4.5015">
        <ele>260.8</ele>
        <time>2022-06-11T11:35:41Z</time>
      </trkpt>
      <trkpt lat="44.34715" lon="4.50151">
        <ele>260.9</ele>
        <time>2022-06-11T11:35:42Z</time>
      </trkpt>
      <trkpt lat="44.34719" lon="4.50153">
        <ele>261</ele>
        <time>2022-06-11T11:35:43Z</time>
      </trkpt>
      <trkpt lat="44.3472" lon="4.50153">
        <ele>261</ele>
        <time>2022-06-11T11:35:44Z</time>
      </trkpt>
      <trkpt lat="44.34725" lon="4.50155">
        <ele>261.1</ele>
        <time>2022-06-11T11:35:45Z</time>
      </trkpt>
      <trkpt lat="44.34729" lon="4.50157">
        <ele>261.2</ele>
        <time>2022-06-11T11:35:47Z</time>
      </trkpt>
      <trkpt lat="44.3473" lon="4.50158">
        <ele>261.3</ele>
        <time>2022-06-11T11:35:48Z</time>
      </trkpt>
      <trkpt lat="44.34734" lon="4.50159">
        <ele>261.4</ele>
        <time>2022-06-11T11:35:49Z</time>
      </trkpt>
      <trkpt lat="44.34735" lon="4.5016">
        <ele>261.4</ele>
        <time>2022-06-11T11:35:50Z</time>
      </trkpt>
      <trkpt lat="44.34739" lon="4.50161">
        <ele>261.5</ele>
        <time>2022-06-11T11:35:51Z</time>
      </trkpt>
      <trkpt lat="44.3474" lon="4.50162">
        <ele>261.5</ele>
        <time>2022-06-11T11:35:52Z</time>
      </trkpt>
      <trkpt lat="44.34745" lon="4.50163">
        <ele>261.7</ele>
        <time>2022-06-11T11:35:53Z</time>
      </trkpt>
      <trkpt lat="44.34749" lon="4.50165">
        <ele>261.8</ele>
        <time>2022-06-11T11:35:55Z</time>
      </trkpt>
      <trkpt lat="44.34753" lon="4.50166">
        <ele>261.9</ele>
        <time>2022-06-11T11:35:57Z</time>
      </trkpt>
      <trkpt lat="44.34754" lon="4.50167">
        <ele>261.9</ele>
        <time>2022-06-11T11:35:58Z</time>
      </trkpt>
      <trkpt lat="44.34761" lon="4.5017">
        <ele>262.1</ele>
        <time>2022-06-11T11:36:00Z</time>
      </trkpt>
      <trkpt lat="44.34764" lon="4.50172">
        <ele>262.2</ele>
        <time>2022-06-11T11:36:02Z</time>
      </trkpt>
      <trkpt lat="44.34767" lon="4.50173">
        <ele>262.3</ele>
        <time>2022-06-11T11:36:03Z</time>
      </trkpt>
      <trkpt lat="44.34768" lon="4.50174">
        <ele>262.3</ele>
        <time>2022-06-11T11:36:04Z</time>
      </trkpt>
      <trkpt lat="44.34771" lon="4.50175">
        <ele>262.4</ele>
        <time>2022-06-11T11:36:05Z</time>
      </trkpt>
      <trkpt lat="44.34774" lon="4.50177">
        <ele>262.5</ele>
        <time>2022-06-11T11:36:06Z</time>
      </trkpt>
      <trkpt lat="44.34776" lon="4.50178">
        <ele>262.6</ele>
        <time>2022-06-11T11:36:07Z</time>
      </trkpt>
      <trkpt lat="44.34781" lon="4.50182">
        <ele>262.8</ele>
        <time>2022-06-11T11:36:08Z</time>
      </trkpt>
      <trkpt lat="44.34784" lon="4.50184">
        <ele>262.8</ele>
        <time>2022-06-11T11:36:10Z</time>
      </trkpt>
      <trkpt lat="44.34785" lon="4.50185">
        <ele>262.9</ele>
        <time>2022-06-11T11:36:11Z</time>
      </trkpt>
      <trkpt lat="44.34788" lon="4.50187">
        <ele>262.9</ele>
        <time>2022-06-11T11:36:12Z</time>
      </trkpt>
      <trkpt lat="44.3479" lon="4.50189">
        <ele>263</ele>
        <time>2022-06-11T11:36:13Z</time>
      </trkpt>
      <trkpt lat="44.34794" lon="4.50192">
        <ele>263.1</ele>
        <time>2022-06-11T11:36:14Z</time>
      </trkpt>
      <trkpt lat="44.34795" lon="4.50194">
        <ele>263.2</ele>
        <time>2022-06-11T11:36:15Z</time>
      </trkpt>
      <trkpt lat="44.34799" lon="4.50198">
        <ele>263.3</ele>
        <time>2022-06-11T11:36:16Z</time>
      </trkpt>
      <trkpt lat="44.34801" lon="4.50201">
        <ele>263.4</ele>
        <time>2022-06-11T11:36:17Z</time>
      </trkpt>
      <trkpt lat="44.34803" lon="4.50204">
        <ele>263.4</ele>
        <time>2022-06-11T11:36:19Z</time>
      </trkpt>
      <trkpt lat="44.34805" lon="4.50206">
        <ele>263.5</ele>
        <time>2022-06-11T11:36:20Z</time>
      </trkpt>
      <trkpt lat="44.34806" lon="4.50208">
        <ele>263.6</ele>
        <time>2022-06-11T11:36:21Z</time>
      </trkpt>
      <trkpt lat="44.34809" lon="4.50213">
        <ele>263.7</ele>
        <time>2022-06-11T11:36:23Z</time>
      </trkpt>
      <trkpt lat="44.34811" lon="4.50216">
        <ele>263.7</ele>
        <time>2022-06-11T11:36:24Z</time>
      </trkpt>
      <trkpt lat="44.34813" lon="4.50222">
        <ele>263.8</ele>
        <time>2022-06-11T11:36:25Z</time>
      </trkpt>
      <trkpt lat="44.34813" lon="4.50224">
        <ele>263.9</ele>
        <time>2022-06-11T11:36:26Z</time>
      </trkpt>
      <trkpt lat="44.34815" lon="4.5023">
        <ele>264</ele>
        <time>2022-06-11T11:36:27Z</time>
      </trkpt>
      <trkpt lat="44.34815" lon="4.50233">
        <ele>264</ele>
        <time>2022-06-11T11:36:28Z</time>
      </trkpt>
      <trkpt lat="44.34817" lon="4.50239">
        <ele>264.1</ele>
        <time>2022-06-11T11:36:30Z</time>
      </trkpt>
      <trkpt lat="44.34817" lon="4.50243">
        <ele>264.2</ele>
        <time>2022-06-11T11:36:31Z</time>
      </trkpt>
      <trkpt lat="44.34817" lon="4.50248">
        <ele>264.3</ele>
        <time>2022-06-11T11:36:32Z</time>
      </trkpt>
      <trkpt lat="44.34818" lon="4.50252">
        <ele>264.4</ele>
        <time>2022-06-11T11:36:33Z</time>
      </trkpt>
      <trkpt lat="44.34818" lon="4.50258">
        <ele>264.5</ele>
        <time>2022-06-11T11:36:34Z</time>
      </trkpt>
      <trkpt lat="44.34817" lon="4.50264">
        <ele>264.6</ele>
        <time>2022-06-11T11:36:36Z</time>
      </trkpt>
      <trkpt lat="44.34817" lon="4.50267">
        <ele>264.6</ele>
        <time>2022-06-11T11:36:37Z</time>
      </trkpt>
      <trkpt lat="44.34816" lon="4.5027">
        <ele>264.7</ele>
        <time>2022-06-11T11:36:38Z</time>
      </trkpt>
      <trkpt lat="44.34816" lon="4.50274">
        <ele>264.8</ele>
        <time>2022-06-11T11:36:39Z</time>
      </trkpt>
      <trkpt lat="44.34815" lon="4.50281">
        <ele>264.9</ele>
        <time>2022-06-11T11:36:41Z</time>
      </trkpt>
      <trkpt lat="44.34814" lon="4.50287">
        <ele>265</ele>
        <time>2022-06-11T11:36:43Z</time>
      </trkpt>
      <trkpt lat="44.34813" lon="4.5029">
        <ele>265.1</ele>
        <time>2022-06-11T11:36:44Z</time>
      </trkpt>
      <trkpt lat="44.34813" lon="4.50293">
        <ele>265.1</ele>
        <time>2022-06-11T11:36:45Z</time>
      </trkpt>
      <trkpt lat="44.34812" lon="4.50296">
        <ele>265.2</ele>
        <time>2022-06-11T11:36:46Z</time>
      </trkpt>
      <trkpt lat="44.3481" lon="4.50301">
        <ele>265.3</ele>
        <time>2022-06-11T11:36:48Z</time>
      </trkpt>
      <trkpt lat="44.34808" lon="4.50306">
        <ele>265.4</ele>
        <time>2022-06-11T11:36:49Z</time>
      </trkpt>
      <trkpt lat="44.34808" lon="4.50308">
        <ele>265.4</ele>
        <time>2022-06-11T11:36:50Z</time>
      </trkpt>
      <trkpt lat="44.34806" lon="4.50311">
        <ele>265.5</ele>
        <time>2022-06-11T11:36:51Z</time>
      </trkpt>
      <trkpt lat="44.34804" lon="4.50315">
        <ele>265.6</ele>
        <time>2022-06-11T11:36:52Z</time>
      </trkpt>
      <trkpt lat="44.34803" lon="4.50317">
        <ele>265.6</ele>
        <time>2022-06-11T11:36:53Z</time>
      </trkpt>
      <trkpt lat="44.34802" lon="4.5032">
        <ele>265.7</ele>
        <time>2022-06-11T11:36:54Z</time>
      </trkpt>
      <trkpt lat="44.34799" lon="4.50324">
        <ele>265.8</ele>
        <time>2022-06-11T11:36:55Z</time>
      </trkpt>
      <trkpt lat="44.34798" lon="4.50325">
        <ele>265.8</ele>
        <time>2022-06-11T11:36:56Z</time>
      </trkpt>
      <trkpt lat="44.34796" lon="4.50328">
        <ele>265.9</ele>
        <time>2022-06-11T11:36:57Z</time>
      </trkpt>
      <trkpt lat="44.34793" lon="4.5033">
        <ele>265.9</ele>
        <time>2022-06-11T11:36:58Z</time>
      </trkpt>
      <trkpt lat="44.34791" lon="4.50332">
        <ele>266</ele>
        <time>2022-06-11T11:36:59Z</time>
      </trkpt>
      <trkpt lat="44.34787" lon="4.50335">
        <ele>266.1</ele>
        <time>2022-06-11T11:37:00Z</time>
      </trkpt>
      <trkpt lat="44.34786" lon="4.50336">
        <ele>266.1</ele>
        <time>2022-06-11T11:37:01Z</time>
      </trkpt>
      <trkpt lat="44.34784" lon="4.50338">
        <ele>266.2</ele>
        <time>2022-06-11T11:37:02Z</time>
      </trkpt>
      <trkpt lat="44.3478" lon="4.50339">
        <ele>266.3</ele>
        <time>2022-06-11T11:37:03Z</time>
      </trkpt>
      <trkpt lat="44.34776" lon="4.50341">
        <ele>266.4</ele>
        <time>2022-06-11T11:37:04Z</time>
      </trkpt>
      <trkpt lat="44.34775" lon="4.50341">
        <ele>266.5</ele>
        <time>2022-06-11T11:37:05Z</time>
      </trkpt>
      <trkpt lat="44.34772" lon="4.50342">
        <ele>266.5</ele>
        <time>2022-06-11T11:37:06Z</time>
      </trkpt>
      <trkpt lat="44.34768" lon="4.50343">
        <ele>266.6</ele>
        <time>2022-06-11T11:37:08Z</time>
      </trkpt>
      <trkpt lat="44.34764" lon="4.50344">
        <ele>266.8</ele>
        <time>2022-06-11T11:37:09Z</time>
      </trkpt>
      <trkpt lat="44.3476" lon="4.50346">
        <ele>266.9</ele>
        <time>2022-06-11T11:37:11Z</time>
      </trkpt>
      <trkpt lat="44.34755" lon="4.50347">
        <ele>267</ele>
        <time>2022-06-11T11:37:12Z</time>
      </trkpt>
      <trkpt lat="44.34751" lon="4.50348">
        <ele>267.1</ele>
        <time>2022-06-11T11:37:13Z</time>
      </trkpt>
      <trkpt lat="44.34747" lon="4.50349">
        <ele>267.3</ele>
        <time>2022-06-11T11:37:15Z</time>
      </trkpt>
      <trkpt lat="44.34745" lon="4.5035">
        <ele>267.3</ele>
        <time>2022-06-11T11:37:16Z</time>
      </trkpt>
      <trkpt lat="44.34743" lon="4.5035">
        <ele>267.4</ele>
        <time>2022-06-11T11:37:17Z</time>
      </trkpt>
      <trkpt lat="44.34739" lon="4.50352">
        <ele>267.5</ele>
        <time>2022-06-11T11:37:18Z</time>
      </trkpt>
      <trkpt lat="44.34738" lon="4.50352">
        <ele>267.6</ele>
        <time>2022-06-11T11:37:19Z</time>
      </trkpt>
      <trkpt lat="44.34734" lon="4.50354">
        <ele>267.8</ele>
        <time>2022-06-11T11:37:20Z</time>
      </trkpt>
      <trkpt lat="44.34729" lon="4.50354">
        <ele>268</ele>
        <time>2022-06-11T11:37:22Z</time>
      </trkpt>
      <trkpt lat="44.34726" lon="4.50354">
        <ele>268.1</ele>
        <time>2022-06-11T11:37:24Z</time>
      </trkpt>
      <trkpt lat="44.34723" lon="4.50356">
        <ele>268.2</ele>
        <time>2022-06-11T11:37:25Z</time>
      </trkpt>
      <trkpt lat="44.34722" lon="4.50357">
        <ele>268.3</ele>
        <time>2022-06-11T11:37:26Z</time>
      </trkpt>
      <trkpt lat="44.34719" lon="4.50357">
        <ele>268.5</ele>
        <time>2022-06-11T11:37:27Z</time>
      </trkpt>
      <trkpt lat="44.34718" lon="4.50357">
        <ele>268.5</ele>
        <time>2022-06-11T11:37:28Z</time>
      </trkpt>
      <trkpt lat="44.34714" lon="4.50359">
        <ele>268.7</ele>
        <time>2022-06-11T11:37:29Z</time>
      </trkpt>
      <trkpt lat="44.34713" lon="4.5036">
        <ele>268.7</ele>
        <time>2022-06-11T11:37:30Z</time>
      </trkpt>
      <trkpt lat="44.34708" lon="4.50361">
        <ele>268.9</ele>
        <time>2022-06-11T11:37:31Z</time>
      </trkpt>
      <trkpt lat="44.34706" lon="4.50362">
        <ele>269</ele>
        <time>2022-06-11T11:37:32Z</time>
      </trkpt>
      <trkpt lat="44.34704" lon="4.50362">
        <ele>269.1</ele>
        <time>2022-06-11T11:37:34Z</time>
      </trkpt>
      <trkpt lat="44.34701" lon="4.50364">
        <ele>269.3</ele>
        <time>2022-06-11T11:37:35Z</time>
      </trkpt>
      <trkpt lat="44.347" lon="4.50365">
        <ele>269.3</ele>
        <time>2022-06-11T11:37:36Z</time>
      </trkpt>
      <trkpt lat="44.34697" lon="4.50367">
        <ele>269.5</ele>
        <time>2022-06-11T11:37:37Z</time>
      </trkpt>
      <trkpt lat="44.34696" lon="4.50367">
        <ele>269.5</ele>
        <time>2022-06-11T11:37:38Z</time>
      </trkpt>
      <trkpt lat="44.34693" lon="4.5037">
        <ele>269.7</ele>
        <time>2022-06-11T11:37:39Z</time>
      </trkpt>
      <trkpt lat="44.34692" lon="4.50371">
        <ele>269.7</ele>
        <time>2022-06-11T11:37:40Z</time>
      </trkpt>
      <trkpt lat="44.34689" lon="4.50374">
        <ele>269.9</ele>
        <time>2022-06-11T11:37:41Z</time>
      </trkpt>
      <trkpt lat="44.34688" lon="4.50375">
        <ele>269.9</ele>
        <time>2022-06-11T11:37:42Z</time>
      </trkpt>
      <trkpt lat="44.34686" lon="4.50378">
        <ele>270.1</ele>
        <time>2022-06-11T11:37:43Z</time>
      </trkpt>
      <trkpt lat="44.34685" lon="4.50379">
        <ele>270.1</ele>
        <time>2022-06-11T11:37:44Z</time>
      </trkpt>
      <trkpt lat="44.34683" lon="4.50382">
        <ele>270.3</ele>
        <time>2022-06-11T11:37:45Z</time>
      </trkpt>
      <trkpt lat="44.34681" lon="4.50387">
        <ele>270.5</ele>
        <time>2022-06-11T11:37:46Z</time>
      </trkpt>
      <trkpt lat="44.3468" lon="4.50389">
        <ele>270.6</ele>
        <time>2022-06-11T11:37:47Z</time>
      </trkpt>
      <trkpt lat="44.34679" lon="4.50393">
        <ele>270.8</ele>
        <time>2022-06-11T11:37:49Z</time>
      </trkpt>
      <trkpt lat="44.34679" lon="4.50395">
        <ele>270.9</ele>
        <time>2022-06-11T11:37:50Z</time>
      </trkpt>
      <trkpt lat="44.34678" lon="4.504">
        <ele>271.1</ele>
        <time>2022-06-11T11:37:51Z</time>
      </trkpt>
      <trkpt lat="44.34678" lon="4.50402">
        <ele>271.2</ele>
        <time>2022-06-11T11:37:52Z</time>
      </trkpt>
      <trkpt lat="44.34677" lon="4.50405">
        <ele>271.3</ele>
        <time>2022-06-11T11:37:53Z</time>
      </trkpt>
      <trkpt lat="44.34677" lon="4.50407">
        <ele>271.4</ele>
        <time>2022-06-11T11:37:55Z</time>
      </trkpt>
      <trkpt lat="44.34677" lon="4.50409">
        <ele>271.5</ele>
        <time>2022-06-11T11:37:56Z</time>
      </trkpt>
      <trkpt lat="44.34677" lon="4.50412">
        <ele>271.6</ele>
        <time>2022-06-11T11:37:57Z</time>
      </trkpt>
      <trkpt lat="44.34678" lon="4.50414">
        <ele>271.7</ele>
        <time>2022-06-11T11:37:58Z</time>
      </trkpt>
      <trkpt lat="44.34678" lon="4.50419">
        <ele>271.9</ele>
        <time>2022-06-11T11:37:59Z</time>
      </trkpt>
      <trkpt lat="44.34678" lon="4.50421">
        <ele>272</ele>
        <time>2022-06-11T11:38:00Z</time>
      </trkpt>
      <trkpt lat="44.34679" lon="4.50424">
        <ele>272.2</ele>
        <time>2022-06-11T11:38:01Z</time>
      </trkpt>
      <trkpt lat="44.3468" lon="4.50426">
        <ele>272.3</ele>
        <time>2022-06-11T11:38:03Z</time>
      </trkpt>
      <trkpt lat="44.34681" lon="4.50428">
        <ele>272.4</ele>
        <time>2022-06-11T11:38:04Z</time>
      </trkpt>
      <trkpt lat="44.34681" lon="4.50432">
        <ele>272.5</ele>
        <time>2022-06-11T11:38:05Z</time>
      </trkpt>
      <trkpt lat="44.34682" lon="4.50433">
        <ele>272.6</ele>
        <time>2022-06-11T11:38:06Z</time>
      </trkpt>
      <trkpt lat="44.34683" lon="4.50437">
        <ele>272.8</ele>
        <time>2022-06-11T11:38:07Z</time>
      </trkpt>
      <trkpt lat="44.34684" lon="4.50438">
        <ele>272.8</ele>
        <time>2022-06-11T11:38:08Z</time>
      </trkpt>
      <trkpt lat="44.34685" lon="4.5044">
        <ele>273</ele>
        <time>2022-06-11T11:38:10Z</time>
      </trkpt>
      <trkpt lat="44.34686" lon="4.50442">
        <ele>273.1</ele>
        <time>2022-06-11T11:38:11Z</time>
      </trkpt>
      <trkpt lat="44.34689" lon="4.50448">
        <ele>273.4</ele>
        <time>2022-06-11T11:38:13Z</time>
      </trkpt>
      <trkpt lat="44.3469" lon="4.5045">
        <ele>273.5</ele>
        <time>2022-06-11T11:38:14Z</time>
      </trkpt>
      <trkpt lat="44.34691" lon="4.50453">
        <ele>273.7</ele>
        <time>2022-06-11T11:38:15Z</time>
      </trkpt>
      <trkpt lat="44.34692" lon="4.50455">
        <ele>273.8</ele>
        <time>2022-06-11T11:38:17Z</time>
      </trkpt>
      <trkpt lat="44.34693" lon="4.50457">
        <ele>274</ele>
        <time>2022-06-11T11:38:18Z</time>
      </trkpt>
      <trkpt lat="44.34695" lon="4.50458">
        <ele>274.1</ele>
        <time>2022-06-11T11:38:19Z</time>
      </trkpt>
      <trkpt lat="44.34697" lon="4.50461">
        <ele>274.3</ele>
        <time>2022-06-11T11:38:20Z</time>
      </trkpt>
      <trkpt lat="44.34697" lon="4.50462">
        <ele>274.4</ele>
        <time>2022-06-11T11:38:21Z</time>
      </trkpt>
      <trkpt lat="44.34699" lon="4.50465">
        <ele>274.6</ele>
        <time>2022-06-11T11:38:22Z</time>
      </trkpt>
      <trkpt lat="44.34699" lon="4.50466">
        <ele>274.7</ele>
        <time>2022-06-11T11:38:23Z</time>
      </trkpt>
      <trkpt lat="44.34701" lon="4.5047">
        <ele>275</ele>
        <time>2022-06-11T11:38:24Z</time>
      </trkpt>
      <trkpt lat="44.34703" lon="4.50471">
        <ele>275.1</ele>
        <time>2022-06-11T11:38:25Z</time>
      </trkpt>
      <trkpt lat="44.34704" lon="4.50475">
        <ele>275.4</ele>
        <time>2022-06-11T11:38:27Z</time>
      </trkpt>
      <trkpt lat="44.34705" lon="4.50476">
        <ele>275.5</ele>
        <time>2022-06-11T11:38:28Z</time>
      </trkpt>
      <trkpt lat="44.34706" lon="4.50478">
        <ele>275.6</ele>
        <time>2022-06-11T11:38:29Z</time>
      </trkpt>
      <trkpt lat="44.34707" lon="4.50479">
        <ele>275.7</ele>
        <time>2022-06-11T11:38:30Z</time>
      </trkpt>
      <trkpt lat="44.34708" lon="4.50481">
        <ele>275.8</ele>
        <time>2022-06-11T11:38:31Z</time>
      </trkpt>
      <trkpt lat="44.34709" lon="4.50482">
        <ele>276</ele>
        <time>2022-06-11T11:38:32Z</time>
      </trkpt>
      <trkpt lat="44.3471" lon="4.50484">
        <ele>276.1</ele>
        <time>2022-06-11T11:38:33Z</time>
      </trkpt>
      <trkpt lat="44.34711" lon="4.50488">
        <ele>276.3</ele>
        <time>2022-06-11T11:38:34Z</time>
      </trkpt>
      <trkpt lat="44.34711" lon="4.50491">
        <ele>276.6</ele>
        <time>2022-06-11T11:38:36Z</time>
      </trkpt>
      <trkpt lat="44.34712" lon="4.50493">
        <ele>276.6</ele>
        <time>2022-06-11T11:38:37Z</time>
      </trkpt>
      <trkpt lat="44.34713" lon="4.50494">
        <ele>276.8</ele>
        <time>2022-06-11T11:38:38Z</time>
      </trkpt>
      <trkpt lat="44.34713" lon="4.50496">
        <ele>276.9</ele>
        <time>2022-06-11T11:38:39Z</time>
      </trkpt>
      <trkpt lat="44.34714" lon="4.50498">
        <ele>277.1</ele>
        <time>2022-06-11T11:38:40Z</time>
      </trkpt>
      <trkpt lat="44.34715" lon="4.50501">
        <ele>277.2</ele>
        <time>2022-06-11T11:38:41Z</time>
      </trkpt>
      <trkpt lat="44.34715" lon="4.50503">
        <ele>277.3</ele>
        <time>2022-06-11T11:38:42Z</time>
      </trkpt>
      <trkpt lat="44.34716" lon="4.50505">
        <ele>277.5</ele>
        <time>2022-06-11T11:38:43Z</time>
      </trkpt>
      <trkpt lat="44.34716" lon="4.50507">
        <ele>277.6</ele>
        <time>2022-06-11T11:38:44Z</time>
      </trkpt>
      <trkpt lat="44.34716" lon="4.50509">
        <ele>277.7</ele>
        <time>2022-06-11T11:38:45Z</time>
      </trkpt>
      <trkpt lat="44.34716" lon="4.50511">
        <ele>277.9</ele>
        <time>2022-06-11T11:38:46Z</time>
      </trkpt>
      <trkpt lat="44.34716" lon="4.50514">
        <ele>278</ele>
        <time>2022-06-11T11:38:47Z</time>
      </trkpt>
      <trkpt lat="44.34716" lon="4.50516">
        <ele>278.1</ele>
        <time>2022-06-11T11:38:48Z</time>
      </trkpt>
      <trkpt lat="44.34716" lon="4.50518">
        <ele>278.3</ele>
        <time>2022-06-11T11:38:49Z</time>
      </trkpt>
      <trkpt lat="44.34715" lon="4.5052">
        <ele>278.4</ele>
        <time>2022-06-11T11:38:50Z</time>
      </trkpt>
      <trkpt lat="44.34715" lon="4.50522">
        <ele>278.5</ele>
        <time>2022-06-11T11:38:51Z</time>
      </trkpt>
      <trkpt lat="44.34714" lon="4.50523">
        <ele>278.6</ele>
        <time>2022-06-11T11:38:52Z</time>
      </trkpt>
      <trkpt lat="44.34713" lon="4.50525">
        <ele>278.8</ele>
        <time>2022-06-11T11:38:53Z</time>
      </trkpt>
      <trkpt lat="44.34711" lon="4.50528">
        <ele>279</ele>
        <time>2022-06-11T11:38:54Z</time>
      </trkpt>
      <trkpt lat="44.34711" lon="4.50529">
        <ele>279.1</ele>
        <time>2022-06-11T11:38:55Z</time>
      </trkpt>
      <trkpt lat="44.3471" lon="4.5053">
        <ele>279.1</ele>
        <time>2022-06-11T11:38:56Z</time>
      </trkpt>
      <trkpt lat="44.34709" lon="4.50533">
        <ele>279.3</ele>
        <time>2022-06-11T11:38:57Z</time>
      </trkpt>
      <trkpt lat="44.34708" lon="4.50534">
        <ele>279.4</ele>
        <time>2022-06-11T11:38:58Z</time>
      </trkpt>
      <trkpt lat="44.34707" lon="4.50536">
        <ele>279.5</ele>
        <time>2022-06-11T11:38:59Z</time>
      </trkpt>
      <trkpt lat="44.34706" lon="4.50538">
        <ele>279.7</ele>
        <time>2022-06-11T11:39:00Z</time>
      </trkpt>
      <trkpt lat="44.34705" lon="4.5054">
        <ele>279.8</ele>
        <time>2022-06-11T11:39:01Z</time>
      </trkpt>
      <trkpt lat="44.34704" lon="4.50541">
        <ele>279.9</ele>
        <time>2022-06-11T11:39:02Z</time>
      </trkpt>
      <trkpt lat="44.34703" lon="4.50543">
        <ele>280.1</ele>
        <time>2022-06-11T11:39:03Z</time>
      </trkpt>
      <trkpt lat="44.34702" lon="4.50545">
        <ele>280.2</ele>
        <time>2022-06-11T11:39:04Z</time>
      </trkpt>
      <trkpt lat="44.34701" lon="4.50547">
        <ele>280.3</ele>
        <time>2022-06-11T11:39:05Z</time>
      </trkpt>
      <trkpt lat="44.347" lon="4.50548">
        <ele>280.5</ele>
        <time>2022-06-11T11:39:06Z</time>
      </trkpt>
      <trkpt lat="44.34699" lon="4.5055">
        <ele>280.6</ele>
        <time>2022-06-11T11:39:07Z</time>
      </trkpt>
      <trkpt lat="44.34698" lon="4.50552">
        <ele>280.8</ele>
        <time>2022-06-11T11:39:08Z</time>
      </trkpt>
      <trkpt lat="44.34697" lon="4.50554">
        <ele>280.9</ele>
        <time>2022-06-11T11:39:09Z</time>
      </trkpt>
      <trkpt lat="44.34696" lon="4.50556">
        <ele>281</ele>
        <time>2022-06-11T11:39:10Z</time>
      </trkpt>
      <trkpt lat="44.34694" lon="4.50559">
        <ele>281.2</ele>
        <time>2022-06-11T11:39:11Z</time>
      </trkpt>
      <trkpt lat="44.34693" lon="4.5056">
        <ele>281.3</ele>
        <time>2022-06-11T11:39:12Z</time>
      </trkpt>
      <trkpt lat="44.34692" lon="4.50562">
        <ele>281.5</ele>
        <time>2022-06-11T11:39:13Z</time>
      </trkpt>
      <trkpt lat="44.34691" lon="4.50564">
        <ele>281.6</ele>
        <time>2022-06-11T11:39:14Z</time>
      </trkpt>
      <trkpt lat="44.3469" lon="4.50567">
        <ele>281.8</ele>
        <time>2022-06-11T11:39:15Z</time>
      </trkpt>
      <trkpt lat="44.34689" lon="4.50569">
        <ele>281.9</ele>
        <time>2022-06-11T11:39:16Z</time>
      </trkpt>
      <trkpt lat="44.34688" lon="4.50572">
        <ele>282.1</ele>
        <time>2022-06-11T11:39:17Z</time>
      </trkpt>
      <trkpt lat="44.34687" lon="4.50574">
        <ele>282.2</ele>
        <time>2022-06-11T11:39:18Z</time>
      </trkpt>
      <trkpt lat="44.34686" lon="4.50576">
        <ele>282.3</ele>
        <time>2022-06-11T11:39:19Z</time>
      </trkpt>
      <trkpt lat="44.34685" lon="4.50577">
        <ele>282.4</ele>
        <time>2022-06-11T11:39:20Z</time>
      </trkpt>
      <trkpt lat="44.34684" lon="4.50579">
        <ele>282.5</ele>
        <time>2022-06-11T11:39:21Z</time>
      </trkpt>
      <trkpt lat="44.34683" lon="4.50581">
        <ele>282.6</ele>
        <time>2022-06-11T11:39:22Z</time>
      </trkpt>
      <trkpt lat="44.34681" lon="4.50584">
        <ele>282.8</ele>
        <time>2022-06-11T11:39:23Z</time>
      </trkpt>
      <trkpt lat="44.34678" lon="4.50589">
        <ele>283.1</ele>
        <time>2022-06-11T11:39:26Z</time>
      </trkpt>
      <trkpt lat="44.34677" lon="4.5059">
        <ele>283.2</ele>
        <time>2022-06-11T11:39:27Z</time>
      </trkpt>
      <trkpt lat="44.34677" lon="4.50592">
        <ele>283.3</ele>
        <time>2022-06-11T11:39:28Z</time>
      </trkpt>
      <trkpt lat="44.34674" lon="4.50595">
        <ele>283.5</ele>
        <time>2022-06-11T11:39:29Z</time>
      </trkpt>
      <trkpt lat="44.34673" lon="4.50598">
        <ele>283.6</ele>
        <time>2022-06-11T11:39:31Z</time>
      </trkpt>
      <trkpt lat="44.34671" lon="4.50601">
        <ele>283.8</ele>
        <time>2022-06-11T11:39:32Z</time>
      </trkpt>
      <trkpt lat="44.34669" lon="4.50604">
        <ele>284</ele>
        <time>2022-06-11T11:39:34Z</time>
      </trkpt>
      <trkpt lat="44.34669" lon="4.50606">
        <ele>284</ele>
        <time>2022-06-11T11:39:35Z</time>
      </trkpt>
      <trkpt lat="44.34668" lon="4.50607">
        <ele>284.1</ele>
        <time>2022-06-11T11:39:36Z</time>
      </trkpt>
      <trkpt lat="44.34666" lon="4.5061">
        <ele>284.3</ele>
        <time>2022-06-11T11:39:37Z</time>
      </trkpt>
      <trkpt lat="44.34665" lon="4.50611">
        <ele>284.4</ele>
        <time>2022-06-11T11:39:38Z</time>
      </trkpt>
      <trkpt lat="44.34664" lon="4.50613">
        <ele>284.5</ele>
        <time>2022-06-11T11:39:39Z</time>
      </trkpt>
      <trkpt lat="44.34663" lon="4.50614">
        <ele>284.6</ele>
        <time>2022-06-11T11:39:40Z</time>
      </trkpt>
      <trkpt lat="44.34662" lon="4.50616">
        <ele>284.7</ele>
        <time>2022-06-11T11:39:41Z</time>
      </trkpt>
      <trkpt lat="44.34661" lon="4.50618">
        <ele>284.8</ele>
        <time>2022-06-11T11:39:42Z</time>
      </trkpt>
      <trkpt lat="44.34659" lon="4.50619">
        <ele>284.9</ele>
        <time>2022-06-11T11:39:43Z</time>
      </trkpt>
      <trkpt lat="44.34659" lon="4.50621">
        <ele>285</ele>
        <time>2022-06-11T11:39:44Z</time>
      </trkpt>
      <trkpt lat="44.34657" lon="4.50623">
        <ele>285.1</ele>
        <time>2022-06-11T11:39:45Z</time>
      </trkpt>
      <trkpt lat="44.34656" lon="4.50625">
        <ele>285.2</ele>
        <time>2022-06-11T11:39:46Z</time>
      </trkpt>
      <trkpt lat="44.34656" lon="4.50627">
        <ele>285.3</ele>
        <time>2022-06-11T11:39:47Z</time>
      </trkpt>
      <trkpt lat="44.34655" lon="4.50629">
        <ele>285.4</ele>
        <time>2022-06-11T11:39:48Z</time>
      </trkpt>
      <trkpt lat="44.34653" lon="4.50632">
        <ele>285.5</ele>
        <time>2022-06-11T11:39:49Z</time>
      </trkpt>
      <trkpt lat="44.34652" lon="4.50633">
        <ele>285.6</ele>
        <time>2022-06-11T11:39:50Z</time>
      </trkpt>
      <trkpt lat="44.3465" lon="4.50636">
        <ele>285.7</ele>
        <time>2022-06-11T11:39:51Z</time>
      </trkpt>
      <trkpt lat="44.3465" lon="4.50637">
        <ele>285.8</ele>
        <time>2022-06-11T11:39:52Z</time>
      </trkpt>
      <trkpt lat="44.34649" lon="4.50639">
        <ele>285.9</ele>
        <time>2022-06-11T11:39:53Z</time>
      </trkpt>
      <trkpt lat="44.34648" lon="4.50641">
        <ele>286</ele>
        <time>2022-06-11T11:39:54Z</time>
      </trkpt>
      <trkpt lat="44.34647" lon="4.50643">
        <ele>286.1</ele>
        <time>2022-06-11T11:39:55Z</time>
      </trkpt>
      <trkpt lat="44.34645" lon="4.50644">
        <ele>286.1</ele>
        <time>2022-06-11T11:39:56Z</time>
      </trkpt>
      <trkpt lat="44.34644" lon="4.50645">
        <ele>286.2</ele>
        <time>2022-06-11T11:39:57Z</time>
      </trkpt>
      <trkpt lat="44.34643" lon="4.50647">
        <ele>286.3</ele>
        <time>2022-06-11T11:39:58Z</time>
      </trkpt>
      <trkpt lat="44.34641" lon="4.50649">
        <ele>286.5</ele>
        <time>2022-06-11T11:39:59Z</time>
      </trkpt>
      <trkpt lat="44.3464" lon="4.50649">
        <ele>286.5</ele>
        <time>2022-06-11T11:40:00Z</time>
      </trkpt>
      <trkpt lat="44.34639" lon="4.50649">
        <ele>286.5</ele>
        <time>2022-06-11T11:40:01Z</time>
      </trkpt>
      <trkpt lat="44.34638" lon="4.5065">
        <ele>286.5</ele>
        <time>2022-06-11T11:40:02Z</time>
      </trkpt>
      <trkpt lat="44.34638" lon="4.50649">
        <ele>286.6</ele>
        <time>2022-06-11T11:40:03Z</time>
      </trkpt>
      <trkpt lat="44.34637" lon="4.50649">
        <ele>286.6</ele>
        <time>2022-06-11T11:40:04Z</time>
      </trkpt>
      <trkpt lat="44.34638" lon="4.50649">
        <ele>286.6</ele>
        <time>2022-06-11T11:40:05Z</time>
      </trkpt>
      <trkpt lat="44.34638" lon="4.50649">
        <ele>286.6</ele>
        <time>2022-06-11T11:40:06Z</time>
      </trkpt>
      <trkpt lat="44.34638" lon="4.50649">
        <ele>286.6</ele>
        <time>2022-06-11T11:40:07Z</time>
      </trkpt>
      <trkpt lat="44.34638" lon="4.50648">
        <ele>286.6</ele>
        <time>2022-06-11T11:40:08Z</time>
      </trkpt>
      <trkpt lat="44.34638" lon="4.50648">
        <ele>286.6</ele>
        <time>2022-06-11T11:40:09Z</time>
      </trkpt>
      <trkpt lat="44.34638" lon="4.50648">
        <ele>286.6</ele>
        <time>2022-06-11T11:40:10Z</time>
      </trkpt>
      <trkpt lat="44.34638" lon="4.50648">
        <ele>286.6</ele>
        <time>2022-06-11T11:40:11Z</time>
      </trkpt>
      <trkpt lat="44.34638" lon="4.50649">
        <ele>286.6</ele>
        <time>2022-06-11T11:40:12Z</time>
      </trkpt>
      <trkpt lat="44.34638" lon="4.50649">
        <ele>286.6</ele>
        <time>2022-06-11T11:40:13Z</time>
      </trkpt>
      <trkpt lat="44.34637" lon="4.50649">
        <ele>286.6</ele>
        <time>2022-06-11T11:40:40Z</time>
      </trkpt>
      <trkpt lat="44.34637" lon="4.5065">
        <ele>286.7</ele>
        <time>2022-06-11T11:40:41Z</time>
      </trkpt>
      <trkpt lat="44.34636" lon="4.50651">
        <ele>286.7</ele>
        <time>2022-06-11T11:40:42Z</time>
      </trkpt>
      <trkpt lat="44.34635" lon="4.50652">
        <ele>286.7</ele>
        <time>2022-06-11T11:40:43Z</time>
      </trkpt>
      <trkpt lat="44.34633" lon="4.50656">
        <ele>286.8</ele>
        <time>2022-06-11T11:40:44Z</time>
      </trkpt>
      <trkpt lat="44.34633" lon="4.50657">
        <ele>286.8</ele>
        <time>2022-06-11T11:40:45Z</time>
      </trkpt>
      <trkpt lat="44.3463" lon="4.50662">
        <ele>287</ele>
        <time>2022-06-11T11:40:46Z</time>
      </trkpt>
      <trkpt lat="44.34629" lon="4.50664">
        <ele>287</ele>
        <time>2022-06-11T11:40:47Z</time>
      </trkpt>
      <trkpt lat="44.34628" lon="4.50669">
        <ele>287.1</ele>
        <time>2022-06-11T11:40:49Z</time>
      </trkpt>
      <trkpt lat="44.34626" lon="4.50675">
        <ele>287.1</ele>
        <time>2022-06-11T11:40:51Z</time>
      </trkpt>
      <trkpt lat="44.34625" lon="4.5068">
        <ele>287.1</ele>
        <time>2022-06-11T11:40:52Z</time>
      </trkpt>
      <trkpt lat="44.34624" lon="4.50683">
        <ele>287.2</ele>
        <time>2022-06-11T11:40:53Z</time>
      </trkpt>
      <trkpt lat="44.34622" lon="4.50687">
        <ele>287.1</ele>
        <time>2022-06-11T11:40:55Z</time>
      </trkpt>
      <trkpt lat="44.34621" lon="4.5069">
        <ele>287.1</ele>
        <time>2022-06-11T11:40:56Z</time>
      </trkpt>
      <trkpt lat="44.34618" lon="4.50696">
        <ele>287.1</ele>
        <time>2022-06-11T11:40:57Z</time>
      </trkpt>
      <trkpt lat="44.34616" lon="4.50701">
        <ele>287</ele>
        <time>2022-06-11T11:40:58Z</time>
      </trkpt>
      <trkpt lat="44.34611" lon="4.50709">
        <ele>286.8</ele>
        <time>2022-06-11T11:41:00Z</time>
      </trkpt>
      <trkpt lat="44.34606" lon="4.50719">
        <ele>286.5</ele>
        <time>2022-06-11T11:41:02Z</time>
      </trkpt>
      <trkpt lat="44.34601" lon="4.50726">
        <ele>286.2</ele>
        <time>2022-06-11T11:41:04Z</time>
      </trkpt>
      <trkpt lat="44.34597" lon="4.50732">
        <ele>286</ele>
        <time>2022-06-11T11:41:05Z</time>
      </trkpt>
      <trkpt lat="44.34594" lon="4.50738">
        <ele>285.7</ele>
        <time>2022-06-11T11:41:06Z</time>
      </trkpt>
      <trkpt lat="44.3459" lon="4.50745">
        <ele>285.4</ele>
        <time>2022-06-11T11:41:07Z</time>
      </trkpt>
      <trkpt lat="44.34587" lon="4.50751">
        <ele>285.1</ele>
        <time>2022-06-11T11:41:08Z</time>
      </trkpt>
      <trkpt lat="44.34582" lon="4.50758">
        <ele>284.7</ele>
        <time>2022-06-11T11:41:09Z</time>
      </trkpt>
      <trkpt lat="44.34578" lon="4.50765">
        <ele>284.3</ele>
        <time>2022-06-11T11:41:10Z</time>
      </trkpt>
      <trkpt lat="44.34573" lon="4.50772">
        <ele>283.9</ele>
        <time>2022-06-11T11:41:11Z</time>
      </trkpt>
      <trkpt lat="44.34568" lon="4.50779">
        <ele>283.5</ele>
        <time>2022-06-11T11:41:12Z</time>
      </trkpt>
      <trkpt lat="44.34562" lon="4.50786">
        <ele>283.1</ele>
        <time>2022-06-11T11:41:13Z</time>
      </trkpt>
      <trkpt lat="44.34556" lon="4.50793">
        <ele>282.6</ele>
        <time>2022-06-11T11:41:14Z</time>
      </trkpt>
      <trkpt lat="44.34549" lon="4.50799">
        <ele>282.1</ele>
        <time>2022-06-11T11:41:15Z</time>
      </trkpt>
      <trkpt lat="44.34543" lon="4.50805">
        <ele>281.6</ele>
        <time>2022-06-11T11:41:16Z</time>
      </trkpt>
      <trkpt lat="44.34535" lon="4.50811">
        <ele>281.1</ele>
        <time>2022-06-11T11:41:17Z</time>
      </trkpt>
      <trkpt lat="44.34528" lon="4.50816">
        <ele>280.6</ele>
        <time>2022-06-11T11:41:18Z</time>
      </trkpt>
      <trkpt lat="44.3452" lon="4.50822">
        <ele>280.1</ele>
        <time>2022-06-11T11:41:19Z</time>
      </trkpt>
      <trkpt lat="44.34512" lon="4.50828">
        <ele>279.5</ele>
        <time>2022-06-11T11:41:20Z</time>
      </trkpt>
      <trkpt lat="44.34504" lon="4.50833">
        <ele>279</ele>
        <time>2022-06-11T11:41:21Z</time>
      </trkpt>
      <trkpt lat="44.34496" lon="4.50839">
        <ele>278.5</ele>
        <time>2022-06-11T11:41:22Z</time>
      </trkpt>
      <trkpt lat="44.34487" lon="4.50845">
        <ele>278.1</ele>
        <time>2022-06-11T11:41:23Z</time>
      </trkpt>
      <trkpt lat="44.34479" lon="4.5085">
        <ele>277.6</ele>
        <time>2022-06-11T11:41:24Z</time>
      </trkpt>
      <trkpt lat="44.3447" lon="4.50855">
        <ele>277.2</ele>
        <time>2022-06-11T11:41:25Z</time>
      </trkpt>
      <trkpt lat="44.34462" lon="4.50861">
        <ele>276.9</ele>
        <time>2022-06-11T11:41:26Z</time>
      </trkpt>
      <trkpt lat="44.34454" lon="4.50867">
        <ele>276.5</ele>
        <time>2022-06-11T11:41:27Z</time>
      </trkpt>
      <trkpt lat="44.34446" lon="4.50873">
        <ele>276.2</ele>
        <time>2022-06-11T11:41:28Z</time>
      </trkpt>
      <trkpt lat="44.34438" lon="4.50878">
        <ele>275.9</ele>
        <time>2022-06-11T11:41:29Z</time>
      </trkpt>
      <trkpt lat="44.3443" lon="4.50884">
        <ele>275.7</ele>
        <time>2022-06-11T11:41:30Z</time>
      </trkpt>
      <trkpt lat="44.34422" lon="4.50889">
        <ele>275.4</ele>
        <time>2022-06-11T11:41:31Z</time>
      </trkpt>
      <trkpt lat="44.34414" lon="4.50894">
        <ele>275.2</ele>
        <time>2022-06-11T11:41:32Z</time>
      </trkpt>
      <trkpt lat="44.34407" lon="4.50899">
        <ele>275</ele>
        <time>2022-06-11T11:41:33Z</time>
      </trkpt>
      <trkpt lat="44.34399" lon="4.50904">
        <ele>274.8</ele>
        <time>2022-06-11T11:41:34Z</time>
      </trkpt>
      <trkpt lat="44.34391" lon="4.5091">
        <ele>274.6</ele>
        <time>2022-06-11T11:41:35Z</time>
      </trkpt>
      <trkpt lat="44.34384" lon="4.50915">
        <ele>274.4</ele>
        <time>2022-06-11T11:41:36Z</time>
      </trkpt>
      <trkpt lat="44.34376" lon="4.50921">
        <ele>274.3</ele>
        <time>2022-06-11T11:41:37Z</time>
      </trkpt>
      <trkpt lat="44.34368" lon="4.50926">
        <ele>274.1</ele>
        <time>2022-06-11T11:41:38Z</time>
      </trkpt>
      <trkpt lat="44.3436" lon="4.50931">
        <ele>273.9</ele>
        <time>2022-06-11T11:41:39Z</time>
      </trkpt>
      <trkpt lat="44.34353" lon="4.50936">
        <ele>273.7</ele>
        <time>2022-06-11T11:41:40Z</time>
      </trkpt>
      <trkpt lat="44.34345" lon="4.50941">
        <ele>273.5</ele>
        <time>2022-06-11T11:41:41Z</time>
      </trkpt>
      <trkpt lat="44.34337" lon="4.50946">
        <ele>273.3</ele>
        <time>2022-06-11T11:41:42Z</time>
      </trkpt>
      <trkpt lat="44.34329" lon="4.50949">
        <ele>273.2</ele>
        <time>2022-06-11T11:41:43Z</time>
      </trkpt>
      <trkpt lat="44.34321" lon="4.50952">
        <ele>273</ele>
        <time>2022-06-11T11:41:44Z</time>
      </trkpt>
      <trkpt lat="44.34313" lon="4.50955">
        <ele>272.8</ele>
        <time>2022-06-11T11:41:45Z</time>
      </trkpt>
      <trkpt lat="44.34304" lon="4.50956">
        <ele>272.7</ele>
        <time>2022-06-11T11:41:46Z</time>
      </trkpt>
      <trkpt lat="44.34296" lon="4.50958">
        <ele>272.5</ele>
        <time>2022-06-11T11:41:47Z</time>
      </trkpt>
      <trkpt lat="44.34288" lon="4.50958">
        <ele>272.4</ele>
        <time>2022-06-11T11:41:48Z</time>
      </trkpt>
      <trkpt lat="44.3428" lon="4.50959">
        <ele>272.2</ele>
        <time>2022-06-11T11:41:49Z</time>
      </trkpt>
      <trkpt lat="44.34272" lon="4.5096">
        <ele>272</ele>
        <time>2022-06-11T11:41:50Z</time>
      </trkpt>
      <trkpt lat="44.34264" lon="4.50961">
        <ele>271.8</ele>
        <time>2022-06-11T11:41:51Z</time>
      </trkpt>
      <trkpt lat="44.34255" lon="4.50962">
        <ele>271.6</ele>
        <time>2022-06-11T11:41:52Z</time>
      </trkpt>
      <trkpt lat="44.34247" lon="4.50962">
        <ele>271.4</ele>
        <time>2022-06-11T11:41:53Z</time>
      </trkpt>
      <trkpt lat="44.34239" lon="4.50962">
        <ele>271.2</ele>
        <time>2022-06-11T11:41:54Z</time>
      </trkpt>
      <trkpt lat="44.3423" lon="4.50962">
        <ele>271</ele>
        <time>2022-06-11T11:41:55Z</time>
      </trkpt>
      <trkpt lat="44.34222" lon="4.50962">
        <ele>270.7</ele>
        <time>2022-06-11T11:41:56Z</time>
      </trkpt>
      <trkpt lat="44.34214" lon="4.50963">
        <ele>270.4</ele>
        <time>2022-06-11T11:41:57Z</time>
      </trkpt>
      <trkpt lat="44.34205" lon="4.50963">
        <ele>270.1</ele>
        <time>2022-06-11T11:41:58Z</time>
      </trkpt>
      <trkpt lat="44.34197" lon="4.50963">
        <ele>269.8</ele>
        <time>2022-06-11T11:41:59Z</time>
      </trkpt>
      <trkpt lat="44.34188" lon="4.50963">
        <ele>269.4</ele>
        <time>2022-06-11T11:42:00Z</time>
      </trkpt>
      <trkpt lat="44.34179" lon="4.50964">
        <ele>269.1</ele>
        <time>2022-06-11T11:42:01Z</time>
      </trkpt>
      <trkpt lat="44.3417" lon="4.50964">
        <ele>268.6</ele>
        <time>2022-06-11T11:42:02Z</time>
      </trkpt>
      <trkpt lat="44.34161" lon="4.50965">
        <ele>268.2</ele>
        <time>2022-06-11T11:42:03Z</time>
      </trkpt>
      <trkpt lat="44.34152" lon="4.50965">
        <ele>267.8</ele>
        <time>2022-06-11T11:42:04Z</time>
      </trkpt>
      <trkpt lat="44.34143" lon="4.50964">
        <ele>267.4</ele>
        <time>2022-06-11T11:42:05Z</time>
      </trkpt>
      <trkpt lat="44.34133" lon="4.50964">
        <ele>266.9</ele>
        <time>2022-06-11T11:42:06Z</time>
      </trkpt>
      <trkpt lat="44.34123" lon="4.50966">
        <ele>266.4</ele>
        <time>2022-06-11T11:42:07Z</time>
      </trkpt>
      <trkpt lat="44.34113" lon="4.50966">
        <ele>265.8</ele>
        <time>2022-06-11T11:42:08Z</time>
      </trkpt>
      <trkpt lat="44.34104" lon="4.50966">
        <ele>265.3</ele>
        <time>2022-06-11T11:42:09Z</time>
      </trkpt>
      <trkpt lat="44.34094" lon="4.50966">
        <ele>264.7</ele>
        <time>2022-06-11T11:42:10Z</time>
      </trkpt>
      <trkpt lat="44.34084" lon="4.50966">
        <ele>264</ele>
        <time>2022-06-11T11:42:11Z</time>
      </trkpt>
      <trkpt lat="44.34073" lon="4.50966">
        <ele>263.2</ele>
        <time>2022-06-11T11:42:12Z</time>
      </trkpt>
      <trkpt lat="44.34062" lon="4.50966">
        <ele>262.4</ele>
        <time>2022-06-11T11:42:13Z</time>
      </trkpt>
      <trkpt lat="44.34051" lon="4.50967">
        <ele>261.6</ele>
        <time>2022-06-11T11:42:14Z</time>
      </trkpt>
      <trkpt lat="44.34039" lon="4.50967">
        <ele>260.8</ele>
        <time>2022-06-11T11:42:15Z</time>
      </trkpt>
      <trkpt lat="44.34028" lon="4.50968">
        <ele>259.9</ele>
        <time>2022-06-11T11:42:16Z</time>
      </trkpt>
      <trkpt lat="44.34017" lon="4.50968">
        <ele>258.9</ele>
        <time>2022-06-11T11:42:17Z</time>
      </trkpt>
      <trkpt lat="44.34005" lon="4.50968">
        <ele>257.8</ele>
        <time>2022-06-11T11:42:18Z</time>
      </trkpt>
      <trkpt lat="44.33994" lon="4.50969">
        <ele>256.8</ele>
        <time>2022-06-11T11:42:19Z</time>
      </trkpt>
      <trkpt lat="44.33982" lon="4.50969">
        <ele>255.8</ele>
        <time>2022-06-11T11:42:20Z</time>
      </trkpt>
      <trkpt lat="44.3397" lon="4.50971">
        <ele>254.9</ele>
        <time>2022-06-11T11:42:21Z</time>
      </trkpt>
      <trkpt lat="44.33959" lon="4.50973">
        <ele>254.1</ele>
        <time>2022-06-11T11:42:22Z</time>
      </trkpt>
      <trkpt lat="44.33947" lon="4.50977">
        <ele>253.6</ele>
        <time>2022-06-11T11:42:23Z</time>
      </trkpt>
      <trkpt lat="44.33936" lon="4.50982">
        <ele>253.4</ele>
        <time>2022-06-11T11:42:24Z</time>
      </trkpt>
      <trkpt lat="44.33926" lon="4.50989">
        <ele>253.4</ele>
        <time>2022-06-11T11:42:25Z</time>
      </trkpt>
      <trkpt lat="44.33916" lon="4.50995">
        <ele>253.5</ele>
        <time>2022-06-11T11:42:26Z</time>
      </trkpt>
      <trkpt lat="44.33907" lon="4.51002">
        <ele>253.9</ele>
        <time>2022-06-11T11:42:27Z</time>
      </trkpt>
      <trkpt lat="44.33899" lon="4.51011">
        <ele>254.2</ele>
        <time>2022-06-11T11:42:28Z</time>
      </trkpt>
      <trkpt lat="44.33892" lon="4.51019">
        <ele>254.7</ele>
        <time>2022-06-11T11:42:29Z</time>
      </trkpt>
      <trkpt lat="44.33886" lon="4.51028">
        <ele>255.1</ele>
        <time>2022-06-11T11:42:30Z</time>
      </trkpt>
      <trkpt lat="44.3388" lon="4.51036">
        <ele>255.6</ele>
        <time>2022-06-11T11:42:31Z</time>
      </trkpt>
      <trkpt lat="44.33875" lon="4.51044">
        <ele>256</ele>
        <time>2022-06-11T11:42:32Z</time>
      </trkpt>
      <trkpt lat="44.3387" lon="4.51052">
        <ele>256.5</ele>
        <time>2022-06-11T11:42:33Z</time>
      </trkpt>
      <trkpt lat="44.33866" lon="4.5106">
        <ele>256.9</ele>
        <time>2022-06-11T11:42:34Z</time>
      </trkpt>
      <trkpt lat="44.33863" lon="4.51067">
        <ele>257.4</ele>
        <time>2022-06-11T11:42:35Z</time>
      </trkpt>
      <trkpt lat="44.33859" lon="4.51074">
        <ele>257.7</ele>
        <time>2022-06-11T11:42:36Z</time>
      </trkpt>
      <trkpt lat="44.33855" lon="4.5108">
        <ele>258.1</ele>
        <time>2022-06-11T11:42:37Z</time>
      </trkpt>
      <trkpt lat="44.33852" lon="4.51086">
        <ele>258.4</ele>
        <time>2022-06-11T11:42:38Z</time>
      </trkpt>
      <trkpt lat="44.33849" lon="4.51092">
        <ele>258.8</ele>
        <time>2022-06-11T11:42:39Z</time>
      </trkpt>
      <trkpt lat="44.33847" lon="4.51097">
        <ele>259.1</ele>
        <time>2022-06-11T11:42:40Z</time>
      </trkpt>
      <trkpt lat="44.33844" lon="4.51103">
        <ele>259.4</ele>
        <time>2022-06-11T11:42:41Z</time>
      </trkpt>
      <trkpt lat="44.33841" lon="4.51108">
        <ele>259.7</ele>
        <time>2022-06-11T11:42:42Z</time>
      </trkpt>
      <trkpt lat="44.33839" lon="4.51111">
        <ele>259.8</ele>
        <time>2022-06-11T11:42:43Z</time>
      </trkpt>
      <trkpt lat="44.33837" lon="4.51115">
        <ele>260</ele>
        <time>2022-06-11T11:42:44Z</time>
      </trkpt>
      <trkpt lat="44.33835" lon="4.5112">
        <ele>260.3</ele>
        <time>2022-06-11T11:42:45Z</time>
      </trkpt>
      <trkpt lat="44.33832" lon="4.51124">
        <ele>260.5</ele>
        <time>2022-06-11T11:42:46Z</time>
      </trkpt>
      <trkpt lat="44.33831" lon="4.51128">
        <ele>260.7</ele>
        <time>2022-06-11T11:42:47Z</time>
      </trkpt>
      <trkpt lat="44.33829" lon="4.51132">
        <ele>260.8</ele>
        <time>2022-06-11T11:42:48Z</time>
      </trkpt>
      <trkpt lat="44.33828" lon="4.51136">
        <ele>261</ele>
        <time>2022-06-11T11:42:49Z</time>
      </trkpt>
      <trkpt lat="44.33827" lon="4.51138">
        <ele>261.1</ele>
        <time>2022-06-11T11:42:50Z</time>
      </trkpt>
      <trkpt lat="44.33826" lon="4.51143">
        <ele>261.3</ele>
        <time>2022-06-11T11:42:51Z</time>
      </trkpt>
      <trkpt lat="44.33823" lon="4.51149">
        <ele>261.5</ele>
        <time>2022-06-11T11:42:53Z</time>
      </trkpt>
      <trkpt lat="44.3382" lon="4.51153">
        <ele>261.6</ele>
        <time>2022-06-11T11:42:54Z</time>
      </trkpt>
      <trkpt lat="44.33817" lon="4.51158">
        <ele>261.7</ele>
        <time>2022-06-11T11:42:55Z</time>
      </trkpt>
      <trkpt lat="44.33815" lon="4.51165">
        <ele>261.9</ele>
        <time>2022-06-11T11:42:56Z</time>
      </trkpt>
      <trkpt lat="44.33813" lon="4.5117">
        <ele>261.9</ele>
        <time>2022-06-11T11:42:57Z</time>
      </trkpt>
      <trkpt lat="44.33812" lon="4.51175">
        <ele>261.9</ele>
        <time>2022-06-11T11:42:58Z</time>
      </trkpt>
      <trkpt lat="44.33811" lon="4.51181">
        <ele>262</ele>
        <time>2022-06-11T11:43:00Z</time>
      </trkpt>
      <trkpt lat="44.33811" lon="4.51186">
        <ele>262</ele>
        <time>2022-06-11T11:43:01Z</time>
      </trkpt>
      <trkpt lat="44.33808" lon="4.51197">
        <ele>261.9</ele>
        <time>2022-06-11T11:43:02Z</time>
      </trkpt>
      <trkpt lat="44.33808" lon="4.51203">
        <ele>261.9</ele>
        <time>2022-06-11T11:43:03Z</time>
      </trkpt>
      <trkpt lat="44.33808" lon="4.51211">
        <ele>261.8</ele>
        <time>2022-06-11T11:43:05Z</time>
      </trkpt>
      <trkpt lat="44.33809" lon="4.51218">
        <ele>261.6</ele>
        <time>2022-06-11T11:43:06Z</time>
      </trkpt>
      <trkpt lat="44.33809" lon="4.51225">
        <ele>261.4</ele>
        <time>2022-06-11T11:43:07Z</time>
      </trkpt>
      <trkpt lat="44.3381" lon="4.51233">
        <ele>261.2</ele>
        <time>2022-06-11T11:43:08Z</time>
      </trkpt>
      <trkpt lat="44.33811" lon="4.51241">
        <ele>260.9</ele>
        <time>2022-06-11T11:43:09Z</time>
      </trkpt>
      <trkpt lat="44.33812" lon="4.51248">
        <ele>260.7</ele>
        <time>2022-06-11T11:43:10Z</time>
      </trkpt>
      <trkpt lat="44.33813" lon="4.51256">
        <ele>260.4</ele>
        <time>2022-06-11T11:43:11Z</time>
      </trkpt>
      <trkpt lat="44.33815" lon="4.51263">
        <ele>260.1</ele>
        <time>2022-06-11T11:43:12Z</time>
      </trkpt>
      <trkpt lat="44.33818" lon="4.5127">
        <ele>259.8</ele>
        <time>2022-06-11T11:43:13Z</time>
      </trkpt>
      <trkpt lat="44.33822" lon="4.51277">
        <ele>259.5</ele>
        <time>2022-06-11T11:43:14Z</time>
      </trkpt>
      <trkpt lat="44.33824" lon="4.51284">
        <ele>259.2</ele>
        <time>2022-06-11T11:43:15Z</time>
      </trkpt>
      <trkpt lat="44.33826" lon="4.51292">
        <ele>258.9</ele>
        <time>2022-06-11T11:43:16Z</time>
      </trkpt>
      <trkpt lat="44.3383" lon="4.513">
        <ele>258.5</ele>
        <time>2022-06-11T11:43:17Z</time>
      </trkpt>
      <trkpt lat="44.33834" lon="4.51307">
        <ele>258.2</ele>
        <time>2022-06-11T11:43:18Z</time>
      </trkpt>
      <trkpt lat="44.33838" lon="4.51314">
        <ele>257.9</ele>
        <time>2022-06-11T11:43:19Z</time>
      </trkpt>
      <trkpt lat="44.33842" lon="4.51322">
        <ele>257.5</ele>
        <time>2022-06-11T11:43:20Z</time>
      </trkpt>
      <trkpt lat="44.33847" lon="4.5133">
        <ele>257.2</ele>
        <time>2022-06-11T11:43:21Z</time>
      </trkpt>
      <trkpt lat="44.33851" lon="4.51337">
        <ele>256.9</ele>
        <time>2022-06-11T11:43:22Z</time>
      </trkpt>
      <trkpt lat="44.33855" lon="4.51346">
        <ele>256.5</ele>
        <time>2022-06-11T11:43:23Z</time>
      </trkpt>
      <trkpt lat="44.33859" lon="4.51355">
        <ele>256.1</ele>
        <time>2022-06-11T11:43:24Z</time>
      </trkpt>
      <trkpt lat="44.33862" lon="4.51365">
        <ele>255.7</ele>
        <time>2022-06-11T11:43:25Z</time>
      </trkpt>
      <trkpt lat="44.33864" lon="4.51375">
        <ele>255.3</ele>
        <time>2022-06-11T11:43:26Z</time>
      </trkpt>
      <trkpt lat="44.33866" lon="4.51386">
        <ele>254.8</ele>
        <time>2022-06-11T11:43:27Z</time>
      </trkpt>
      <trkpt lat="44.33868" lon="4.51397">
        <ele>254.4</ele>
        <time>2022-06-11T11:43:28Z</time>
      </trkpt>
      <trkpt lat="44.3387" lon="4.51407">
        <ele>253.9</ele>
        <time>2022-06-11T11:43:29Z</time>
      </trkpt>
      <trkpt lat="44.33872" lon="4.51418">
        <ele>253.4</ele>
        <time>2022-06-11T11:43:30Z</time>
      </trkpt>
      <trkpt lat="44.33874" lon="4.51429">
        <ele>252.9</ele>
        <time>2022-06-11T11:43:31Z</time>
      </trkpt>
      <trkpt lat="44.33876" lon="4.5144">
        <ele>252.5</ele>
        <time>2022-06-11T11:43:32Z</time>
      </trkpt>
      <trkpt lat="44.33879" lon="4.51451">
        <ele>252</ele>
        <time>2022-06-11T11:43:33Z</time>
      </trkpt>
      <trkpt lat="44.33881" lon="4.51462">
        <ele>251.4</ele>
        <time>2022-06-11T11:43:34Z</time>
      </trkpt>
      <trkpt lat="44.33885" lon="4.51472">
        <ele>250.9</ele>
        <time>2022-06-11T11:43:35Z</time>
      </trkpt>
      <trkpt lat="44.33889" lon="4.51483">
        <ele>250.3</ele>
        <time>2022-06-11T11:43:36Z</time>
      </trkpt>
      <trkpt lat="44.33895" lon="4.51492">
        <ele>249.7</ele>
        <time>2022-06-11T11:43:37Z</time>
      </trkpt>
      <trkpt lat="44.33903" lon="4.51499">
        <ele>249.1</ele>
        <time>2022-06-11T11:43:38Z</time>
      </trkpt>
      <trkpt lat="44.33911" lon="4.51506">
        <ele>248.5</ele>
        <time>2022-06-11T11:43:39Z</time>
      </trkpt>
      <trkpt lat="44.33919" lon="4.51511">
        <ele>248.1</ele>
        <time>2022-06-11T11:43:40Z</time>
      </trkpt>
      <trkpt lat="44.33927" lon="4.51518">
        <ele>247.6</ele>
        <time>2022-06-11T11:43:41Z</time>
      </trkpt>
      <trkpt lat="44.33935" lon="4.51525">
        <ele>247.3</ele>
        <time>2022-06-11T11:43:42Z</time>
      </trkpt>
      <trkpt lat="44.33941" lon="4.51534">
        <ele>247.2</ele>
        <time>2022-06-11T11:43:43Z</time>
      </trkpt>
      <trkpt lat="44.33945" lon="4.51544">
        <ele>247.2</ele>
        <time>2022-06-11T11:43:44Z</time>
      </trkpt>
      <trkpt lat="44.33947" lon="4.51557">
        <ele>247.3</ele>
        <time>2022-06-11T11:43:45Z</time>
      </trkpt>
      <trkpt lat="44.33946" lon="4.51569">
        <ele>247.5</ele>
        <time>2022-06-11T11:43:46Z</time>
      </trkpt>
      <trkpt lat="44.33944" lon="4.5158">
        <ele>247.7</ele>
        <time>2022-06-11T11:43:47Z</time>
      </trkpt>
      <trkpt lat="44.3394" lon="4.51589">
        <ele>248</ele>
        <time>2022-06-11T11:43:48Z</time>
      </trkpt>
      <trkpt lat="44.33936" lon="4.51596">
        <ele>248.3</ele>
        <time>2022-06-11T11:43:49Z</time>
      </trkpt>
      <trkpt lat="44.3393" lon="4.51601">
        <ele>248.6</ele>
        <time>2022-06-11T11:43:50Z</time>
      </trkpt>
      <trkpt lat="44.33925" lon="4.51605">
        <ele>248.9</ele>
        <time>2022-06-11T11:43:51Z</time>
      </trkpt>
      <trkpt lat="44.3392" lon="4.51607">
        <ele>249.2</ele>
        <time>2022-06-11T11:43:52Z</time>
      </trkpt>
      <trkpt lat="44.33915" lon="4.51609">
        <ele>249.4</ele>
        <time>2022-06-11T11:43:53Z</time>
      </trkpt>
      <trkpt lat="44.33911" lon="4.51609">
        <ele>249.6</ele>
        <time>2022-06-11T11:43:54Z</time>
      </trkpt>
      <trkpt lat="44.33907" lon="4.5161">
        <ele>249.8</ele>
        <time>2022-06-11T11:43:55Z</time>
      </trkpt>
      <trkpt lat="44.33904" lon="4.5161">
        <ele>250</ele>
        <time>2022-06-11T11:43:56Z</time>
      </trkpt>
      <trkpt lat="44.33901" lon="4.5161">
        <ele>250.2</ele>
        <time>2022-06-11T11:43:57Z</time>
      </trkpt>
      <trkpt lat="44.33896" lon="4.5161">
        <ele>250.4</ele>
        <time>2022-06-11T11:43:58Z</time>
      </trkpt>
      <trkpt lat="44.33894" lon="4.5161">
        <ele>250.5</ele>
        <time>2022-06-11T11:43:59Z</time>
      </trkpt>
      <trkpt lat="44.33892" lon="4.5161">
        <ele>250.7</ele>
        <time>2022-06-11T11:44:00Z</time>
      </trkpt>
      <trkpt lat="44.33888" lon="4.51611">
        <ele>250.9</ele>
        <time>2022-06-11T11:44:01Z</time>
      </trkpt>
      <trkpt lat="44.33886" lon="4.51611">
        <ele>251</ele>
        <time>2022-06-11T11:44:02Z</time>
      </trkpt>
      <trkpt lat="44.33881" lon="4.51612">
        <ele>251.3</ele>
        <time>2022-06-11T11:44:03Z</time>
      </trkpt>
      <trkpt lat="44.33877" lon="4.51613">
        <ele>251.5</ele>
        <time>2022-06-11T11:44:05Z</time>
      </trkpt>
      <trkpt lat="44.33875" lon="4.51613">
        <ele>251.7</ele>
        <time>2022-06-11T11:44:06Z</time>
      </trkpt>
      <trkpt lat="44.3387" lon="4.51614">
        <ele>251.9</ele>
        <time>2022-06-11T11:44:07Z</time>
      </trkpt>
      <trkpt lat="44.33867" lon="4.51614">
        <ele>252.1</ele>
        <time>2022-06-11T11:44:08Z</time>
      </trkpt>
      <trkpt lat="44.33864" lon="4.51615">
        <ele>252.2</ele>
        <time>2022-06-11T11:44:10Z</time>
      </trkpt>
      <trkpt lat="44.3386" lon="4.51617">
        <ele>252.5</ele>
        <time>2022-06-11T11:44:11Z</time>
      </trkpt>
      <trkpt lat="44.33857" lon="4.51617">
        <ele>252.6</ele>
        <time>2022-06-11T11:44:12Z</time>
      </trkpt>
      <trkpt lat="44.33853" lon="4.51618">
        <ele>252.9</ele>
        <time>2022-06-11T11:44:14Z</time>
      </trkpt>
      <trkpt lat="44.3385" lon="4.51619">
        <ele>253</ele>
        <time>2022-06-11T11:44:16Z</time>
      </trkpt>
      <trkpt lat="44.33847" lon="4.51619">
        <ele>253.2</ele>
        <time>2022-06-11T11:44:17Z</time>
      </trkpt>
      <trkpt lat="44.33843" lon="4.51619">
        <ele>253.5</ele>
        <time>2022-06-11T11:44:18Z</time>
      </trkpt>
      <trkpt lat="44.33841" lon="4.5162">
        <ele>253.6</ele>
        <time>2022-06-11T11:44:19Z</time>
      </trkpt>
      <trkpt lat="44.33838" lon="4.51619">
        <ele>253.7</ele>
        <time>2022-06-11T11:44:21Z</time>
      </trkpt>
      <trkpt lat="44.33837" lon="4.51619">
        <ele>253.8</ele>
        <time>2022-06-11T11:44:22Z</time>
      </trkpt>
      <trkpt lat="44.33833" lon="4.51619">
        <ele>254</ele>
        <time>2022-06-11T11:44:23Z</time>
      </trkpt>
      <trkpt lat="44.33831" lon="4.51619">
        <ele>254.1</ele>
        <time>2022-06-11T11:44:24Z</time>
      </trkpt>
      <trkpt lat="44.33828" lon="4.51619">
        <ele>254.3</ele>
        <time>2022-06-11T11:44:26Z</time>
      </trkpt>
      <trkpt lat="44.33825" lon="4.51618">
        <ele>254.5</ele>
        <time>2022-06-11T11:44:27Z</time>
      </trkpt>
      <trkpt lat="44.33824" lon="4.51618">
        <ele>254.5</ele>
        <time>2022-06-11T11:44:28Z</time>
      </trkpt>
      <trkpt lat="44.33821" lon="4.51618">
        <ele>254.7</ele>
        <time>2022-06-11T11:44:29Z</time>
      </trkpt>
      <trkpt lat="44.3382" lon="4.51617">
        <ele>254.8</ele>
        <time>2022-06-11T11:44:30Z</time>
      </trkpt>
      <trkpt lat="44.33817" lon="4.51616">
        <ele>254.9</ele>
        <time>2022-06-11T11:44:31Z</time>
      </trkpt>
      <trkpt lat="44.33815" lon="4.51615">
        <ele>255</ele>
        <time>2022-06-11T11:44:32Z</time>
      </trkpt>
      <trkpt lat="44.33812" lon="4.51614">
        <ele>255.2</ele>
        <time>2022-06-11T11:44:33Z</time>
      </trkpt>
      <trkpt lat="44.33811" lon="4.51613">
        <ele>255.3</ele>
        <time>2022-06-11T11:44:34Z</time>
      </trkpt>
      <trkpt lat="44.33809" lon="4.51612">
        <ele>255.4</ele>
        <time>2022-06-11T11:44:35Z</time>
      </trkpt>
      <trkpt lat="44.33806" lon="4.5161">
        <ele>255.6</ele>
        <time>2022-06-11T11:44:37Z</time>
      </trkpt>
      <trkpt lat="44.33803" lon="4.51608">
        <ele>255.8</ele>
        <time>2022-06-11T11:44:38Z</time>
      </trkpt>
      <trkpt lat="44.33801" lon="4.51607">
        <ele>255.9</ele>
        <time>2022-06-11T11:44:39Z</time>
      </trkpt>
      <trkpt lat="44.33799" lon="4.51606">
        <ele>256</ele>
        <time>2022-06-11T11:44:40Z</time>
      </trkpt>
      <trkpt lat="44.33793" lon="4.51605">
        <ele>256.3</ele>
        <time>2022-06-11T11:44:42Z</time>
      </trkpt>
      <trkpt lat="44.3379" lon="4.51603">
        <ele>256.5</ele>
        <time>2022-06-11T11:44:44Z</time>
      </trkpt>
      <trkpt lat="44.33786" lon="4.51602">
        <ele>256.7</ele>
        <time>2022-06-11T11:44:46Z</time>
      </trkpt>
      <trkpt lat="44.33785" lon="4.51602">
        <ele>256.7</ele>
        <time>2022-06-11T11:44:47Z</time>
      </trkpt>
      <trkpt lat="44.33783" lon="4.516">
        <ele>256.9</ele>
        <time>2022-06-11T11:44:48Z</time>
      </trkpt>
      <trkpt lat="44.33782" lon="4.516">
        <ele>256.9</ele>
        <time>2022-06-11T11:44:49Z</time>
      </trkpt>
      <trkpt lat="44.33779" lon="4.51598">
        <ele>257.1</ele>
        <time>2022-06-11T11:44:50Z</time>
      </trkpt>
      <trkpt lat="44.33778" lon="4.51598">
        <ele>257.1</ele>
        <time>2022-06-11T11:44:51Z</time>
      </trkpt>
      <trkpt lat="44.33776" lon="4.51596">
        <ele>257.3</ele>
        <time>2022-06-11T11:44:52Z</time>
      </trkpt>
      <trkpt lat="44.33775" lon="4.51595">
        <ele>257.3</ele>
        <time>2022-06-11T11:44:53Z</time>
      </trkpt>
      <trkpt lat="44.33772" lon="4.51594">
        <ele>257.4</ele>
        <time>2022-06-11T11:44:54Z</time>
      </trkpt>
      <trkpt lat="44.33771" lon="4.51593">
        <ele>257.5</ele>
        <time>2022-06-11T11:44:55Z</time>
      </trkpt>
      <trkpt lat="44.33768" lon="4.51592">
        <ele>257.6</ele>
        <time>2022-06-11T11:44:56Z</time>
      </trkpt>
      <trkpt lat="44.33767" lon="4.51591">
        <ele>257.7</ele>
        <time>2022-06-11T11:44:57Z</time>
      </trkpt>
      <trkpt lat="44.33765" lon="4.5159">
        <ele>257.8</ele>
        <time>2022-06-11T11:44:58Z</time>
      </trkpt>
      <trkpt lat="44.33764" lon="4.51589">
        <ele>257.9</ele>
        <time>2022-06-11T11:44:59Z</time>
      </trkpt>
      <trkpt lat="44.3376" lon="4.51587">
        <ele>258.1</ele>
        <time>2022-06-11T11:45:00Z</time>
      </trkpt>
      <trkpt lat="44.33758" lon="4.51586">
        <ele>258.1</ele>
        <time>2022-06-11T11:45:01Z</time>
      </trkpt>
      <trkpt lat="44.33756" lon="4.51584">
        <ele>258.3</ele>
        <time>2022-06-11T11:45:02Z</time>
      </trkpt>
      <trkpt lat="44.33754" lon="4.51583">
        <ele>258.3</ele>
        <time>2022-06-11T11:45:03Z</time>
      </trkpt>
      <trkpt lat="44.33752" lon="4.51582">
        <ele>258.4</ele>
        <time>2022-06-11T11:45:05Z</time>
      </trkpt>
      <trkpt lat="44.33749" lon="4.5158">
        <ele>258.6</ele>
        <time>2022-06-11T11:45:06Z</time>
      </trkpt>
      <trkpt lat="44.33748" lon="4.5158">
        <ele>258.6</ele>
        <time>2022-06-11T11:45:07Z</time>
      </trkpt>
      <trkpt lat="44.33743" lon="4.51577">
        <ele>258.8</ele>
        <time>2022-06-11T11:45:09Z</time>
      </trkpt>
      <trkpt lat="44.3374" lon="4.51575">
        <ele>258.9</ele>
        <time>2022-06-11T11:45:10Z</time>
      </trkpt>
      <trkpt lat="44.33738" lon="4.51574">
        <ele>258.9</ele>
        <time>2022-06-11T11:45:11Z</time>
      </trkpt>
      <trkpt lat="44.33734" lon="4.51572">
        <ele>259.1</ele>
        <time>2022-06-11T11:45:12Z</time>
      </trkpt>
      <trkpt lat="44.3373" lon="4.5157">
        <ele>259.2</ele>
        <time>2022-06-11T11:45:14Z</time>
      </trkpt>
      <trkpt lat="44.33727" lon="4.51569">
        <ele>259.3</ele>
        <time>2022-06-11T11:45:15Z</time>
      </trkpt>
      <trkpt lat="44.33724" lon="4.51568">
        <ele>259.3</ele>
        <time>2022-06-11T11:45:16Z</time>
      </trkpt>
      <trkpt lat="44.3372" lon="4.51566">
        <ele>259.4</ele>
        <time>2022-06-11T11:45:17Z</time>
      </trkpt>
      <trkpt lat="44.33719" lon="4.51565">
        <ele>259.5</ele>
        <time>2022-06-11T11:45:18Z</time>
      </trkpt>
      <trkpt lat="44.33715" lon="4.51563">
        <ele>259.5</ele>
        <time>2022-06-11T11:45:19Z</time>
      </trkpt>
      <trkpt lat="44.33714" lon="4.51563">
        <ele>259.6</ele>
        <time>2022-06-11T11:45:20Z</time>
      </trkpt>
      <trkpt lat="44.33712" lon="4.51561">
        <ele>259.6</ele>
        <time>2022-06-11T11:45:21Z</time>
      </trkpt>
      <trkpt lat="44.33709" lon="4.51559">
        <ele>259.7</ele>
        <time>2022-06-11T11:45:22Z</time>
      </trkpt>
      <trkpt lat="44.33706" lon="4.51558">
        <ele>259.7</ele>
        <time>2022-06-11T11:45:23Z</time>
      </trkpt>
      <trkpt lat="44.33703" lon="4.51556">
        <ele>259.8</ele>
        <time>2022-06-11T11:45:24Z</time>
      </trkpt>
      <trkpt lat="44.337" lon="4.51555">
        <ele>259.8</ele>
        <time>2022-06-11T11:45:25Z</time>
      </trkpt>
      <trkpt lat="44.33697" lon="4.51553">
        <ele>259.9</ele>
        <time>2022-06-11T11:45:26Z</time>
      </trkpt>
      <trkpt lat="44.33695" lon="4.51552">
        <ele>259.9</ele>
        <time>2022-06-11T11:45:27Z</time>
      </trkpt>
      <trkpt lat="44.33691" lon="4.51551">
        <ele>260</ele>
        <time>2022-06-11T11:45:28Z</time>
      </trkpt>
      <trkpt lat="44.3369" lon="4.5155">
        <ele>260</ele>
        <time>2022-06-11T11:45:29Z</time>
      </trkpt>
      <trkpt lat="44.33686" lon="4.51549">
        <ele>260.1</ele>
        <time>2022-06-11T11:45:30Z</time>
      </trkpt>
      <trkpt lat="44.33682" lon="4.51546">
        <ele>260.2</ele>
        <time>2022-06-11T11:45:31Z</time>
      </trkpt>
      <trkpt lat="44.3368" lon="4.51545">
        <ele>260.2</ele>
        <time>2022-06-11T11:45:32Z</time>
      </trkpt>
      <trkpt lat="44.33677" lon="4.51544">
        <ele>260.3</ele>
        <time>2022-06-11T11:45:33Z</time>
      </trkpt>
      <trkpt lat="44.33673" lon="4.51542">
        <ele>260.3</ele>
        <time>2022-06-11T11:45:34Z</time>
      </trkpt>
      <trkpt lat="44.33669" lon="4.5154">
        <ele>260.4</ele>
        <time>2022-06-11T11:45:36Z</time>
      </trkpt>
      <trkpt lat="44.33667" lon="4.51539">
        <ele>260.4</ele>
        <time>2022-06-11T11:45:37Z</time>
      </trkpt>
      <trkpt lat="44.33663" lon="4.51537">
        <ele>260.5</ele>
        <time>2022-06-11T11:45:38Z</time>
      </trkpt>
      <trkpt lat="44.33659" lon="4.51536">
        <ele>260.6</ele>
        <time>2022-06-11T11:45:40Z</time>
      </trkpt>
      <trkpt lat="44.33656" lon="4.51534">
        <ele>260.7</ele>
        <time>2022-06-11T11:45:41Z</time>
      </trkpt>
      <trkpt lat="44.33653" lon="4.51533">
        <ele>260.8</ele>
        <time>2022-06-11T11:45:42Z</time>
      </trkpt>
      <trkpt lat="44.33651" lon="4.51532">
        <ele>260.9</ele>
        <time>2022-06-11T11:45:43Z</time>
      </trkpt>
      <trkpt lat="44.33648" lon="4.5153">
        <ele>261</ele>
        <time>2022-06-11T11:45:44Z</time>
      </trkpt>
      <trkpt lat="44.33646" lon="4.51529">
        <ele>261</ele>
        <time>2022-06-11T11:45:45Z</time>
      </trkpt>
      <trkpt lat="44.33641" lon="4.51527">
        <ele>261.2</ele>
        <time>2022-06-11T11:45:46Z</time>
      </trkpt>
      <trkpt lat="44.33636" lon="4.51524">
        <ele>261.5</ele>
        <time>2022-06-11T11:45:48Z</time>
      </trkpt>
      <trkpt lat="44.33634" lon="4.51524">
        <ele>261.6</ele>
        <time>2022-06-11T11:45:50Z</time>
      </trkpt>
      <trkpt lat="44.33631" lon="4.51522">
        <ele>261.8</ele>
        <time>2022-06-11T11:45:51Z</time>
      </trkpt>
      <trkpt lat="44.33629" lon="4.51521">
        <ele>261.8</ele>
        <time>2022-06-11T11:45:52Z</time>
      </trkpt>
      <trkpt lat="44.33625" lon="4.51519">
        <ele>262.1</ele>
        <time>2022-06-11T11:45:54Z</time>
      </trkpt>
      <trkpt lat="44.33621" lon="4.51517">
        <ele>262.3</ele>
        <time>2022-06-11T11:45:55Z</time>
      </trkpt>
      <trkpt lat="44.3362" lon="4.51516">
        <ele>262.3</ele>
        <time>2022-06-11T11:45:56Z</time>
      </trkpt>
      <trkpt lat="44.33616" lon="4.51515">
        <ele>262.5</ele>
        <time>2022-06-11T11:45:57Z</time>
      </trkpt>
      <trkpt lat="44.33615" lon="4.51514">
        <ele>262.6</ele>
        <time>2022-06-11T11:45:58Z</time>
      </trkpt>
      <trkpt lat="44.33612" lon="4.51512">
        <ele>262.7</ele>
        <time>2022-06-11T11:45:59Z</time>
      </trkpt>
      <trkpt lat="44.33611" lon="4.51512">
        <ele>262.8</ele>
        <time>2022-06-11T11:46:00Z</time>
      </trkpt>
      <trkpt lat="44.33607" lon="4.5151">
        <ele>263</ele>
        <time>2022-06-11T11:46:01Z</time>
      </trkpt>
      <trkpt lat="44.33605" lon="4.51509">
        <ele>263.2</ele>
        <time>2022-06-11T11:46:02Z</time>
      </trkpt>
      <trkpt lat="44.336" lon="4.51506">
        <ele>263.4</ele>
        <time>2022-06-11T11:46:04Z</time>
      </trkpt>
      <trkpt lat="44.33595" lon="4.51504">
        <ele>263.7</ele>
        <time>2022-06-11T11:46:06Z</time>
      </trkpt>
      <trkpt lat="44.33591" lon="4.51502">
        <ele>263.9</ele>
        <time>2022-06-11T11:46:08Z</time>
      </trkpt>
      <trkpt lat="44.33589" lon="4.51501">
        <ele>264</ele>
        <time>2022-06-11T11:46:09Z</time>
      </trkpt>
      <trkpt lat="44.33587" lon="4.515">
        <ele>264.1</ele>
        <time>2022-06-11T11:46:10Z</time>
      </trkpt>
      <trkpt lat="44.33584" lon="4.51498">
        <ele>264.3</ele>
        <time>2022-06-11T11:46:11Z</time>
      </trkpt>
      <trkpt lat="44.33583" lon="4.51498">
        <ele>264.4</ele>
        <time>2022-06-11T11:46:12Z</time>
      </trkpt>
      <trkpt lat="44.3358" lon="4.51497">
        <ele>264.6</ele>
        <time>2022-06-11T11:46:13Z</time>
      </trkpt>
      <trkpt lat="44.33579" lon="4.51497">
        <ele>264.7</ele>
        <time>2022-06-11T11:46:14Z</time>
      </trkpt>
      <trkpt lat="44.33574" lon="4.51496">
        <ele>264.9</ele>
        <time>2022-06-11T11:46:15Z</time>
      </trkpt>
      <trkpt lat="44.33573" lon="4.51496">
        <ele>265</ele>
        <time>2022-06-11T11:46:16Z</time>
      </trkpt>
      <trkpt lat="44.33569" lon="4.51495">
        <ele>265.2</ele>
        <time>2022-06-11T11:46:17Z</time>
      </trkpt>
      <trkpt lat="44.33568" lon="4.51495">
        <ele>265.3</ele>
        <time>2022-06-11T11:46:18Z</time>
      </trkpt>
      <trkpt lat="44.33565" lon="4.51494">
        <ele>265.4</ele>
        <time>2022-06-11T11:46:19Z</time>
      </trkpt>
      <trkpt lat="44.33561" lon="4.51493">
        <ele>265.7</ele>
        <time>2022-06-11T11:46:20Z</time>
      </trkpt>
      <trkpt lat="44.3356" lon="4.51493">
        <ele>265.8</ele>
        <time>2022-06-11T11:46:21Z</time>
      </trkpt>
      <trkpt lat="44.33556" lon="4.51492">
        <ele>266</ele>
        <time>2022-06-11T11:46:22Z</time>
      </trkpt>
      <trkpt lat="44.33552" lon="4.51492">
        <ele>266.2</ele>
        <time>2022-06-11T11:46:24Z</time>
      </trkpt>
      <trkpt lat="44.33549" lon="4.51492">
        <ele>266.4</ele>
        <time>2022-06-11T11:46:25Z</time>
      </trkpt>
      <trkpt lat="44.33545" lon="4.51492">
        <ele>266.6</ele>
        <time>2022-06-11T11:46:27Z</time>
      </trkpt>
      <trkpt lat="44.33544" lon="4.51492">
        <ele>266.7</ele>
        <time>2022-06-11T11:46:28Z</time>
      </trkpt>
      <trkpt lat="44.33539" lon="4.51493">
        <ele>266.9</ele>
        <time>2022-06-11T11:46:29Z</time>
      </trkpt>
      <trkpt lat="44.33536" lon="4.51493">
        <ele>267.1</ele>
        <time>2022-06-11T11:46:30Z</time>
      </trkpt>
      <trkpt lat="44.33534" lon="4.51493">
        <ele>267.2</ele>
        <time>2022-06-11T11:46:32Z</time>
      </trkpt>
      <trkpt lat="44.33529" lon="4.51493">
        <ele>267.5</ele>
        <time>2022-06-11T11:46:33Z</time>
      </trkpt>
      <trkpt lat="44.33524" lon="4.51493">
        <ele>267.8</ele>
        <time>2022-06-11T11:46:35Z</time>
      </trkpt>
      <trkpt lat="44.33521" lon="4.51493">
        <ele>267.9</ele>
        <time>2022-06-11T11:46:36Z</time>
      </trkpt>
      <trkpt lat="44.33518" lon="4.51494">
        <ele>268</ele>
        <time>2022-06-11T11:46:38Z</time>
      </trkpt>
      <trkpt lat="44.33516" lon="4.51495">
        <ele>268.2</ele>
        <time>2022-06-11T11:46:39Z</time>
      </trkpt>
      <trkpt lat="44.33511" lon="4.51495">
        <ele>268.4</ele>
        <time>2022-06-11T11:46:40Z</time>
      </trkpt>
      <trkpt lat="44.33506" lon="4.51495">
        <ele>268.7</ele>
        <time>2022-06-11T11:46:42Z</time>
      </trkpt>
      <trkpt lat="44.33504" lon="4.51495">
        <ele>268.8</ele>
        <time>2022-06-11T11:46:43Z</time>
      </trkpt>
      <trkpt lat="44.33502" lon="4.51495">
        <ele>268.8</ele>
        <time>2022-06-11T11:46:44Z</time>
      </trkpt>
      <trkpt lat="44.33499" lon="4.51495">
        <ele>269</ele>
        <time>2022-06-11T11:46:45Z</time>
      </trkpt>
      <trkpt lat="44.33494" lon="4.51495">
        <ele>269.2</ele>
        <time>2022-06-11T11:46:46Z</time>
      </trkpt>
      <trkpt lat="44.33491" lon="4.51495">
        <ele>269.3</ele>
        <time>2022-06-11T11:46:48Z</time>
      </trkpt>
      <trkpt lat="44.33488" lon="4.51496">
        <ele>269.4</ele>
        <time>2022-06-11T11:46:49Z</time>
      </trkpt>
      <trkpt lat="44.33484" lon="4.51496">
        <ele>269.5</ele>
        <time>2022-06-11T11:46:50Z</time>
      </trkpt>
      <trkpt lat="44.33483" lon="4.51496">
        <ele>269.6</ele>
        <time>2022-06-11T11:46:51Z</time>
      </trkpt>
      <trkpt lat="44.3348" lon="4.51496">
        <ele>269.7</ele>
        <time>2022-06-11T11:46:52Z</time>
      </trkpt>
      <trkpt lat="44.33477" lon="4.51496">
        <ele>269.8</ele>
        <time>2022-06-11T11:46:53Z</time>
      </trkpt>
      <trkpt lat="44.33473" lon="4.51497">
        <ele>269.8</ele>
        <time>2022-06-11T11:46:54Z</time>
      </trkpt>
      <trkpt lat="44.3347" lon="4.51498">
        <ele>269.9</ele>
        <time>2022-06-11T11:46:55Z</time>
      </trkpt>
      <trkpt lat="44.33464" lon="4.51498">
        <ele>270</ele>
        <time>2022-06-11T11:46:56Z</time>
      </trkpt>
      <trkpt lat="44.33461" lon="4.51498">
        <ele>270.1</ele>
        <time>2022-06-11T11:46:57Z</time>
      </trkpt>
      <trkpt lat="44.33457" lon="4.51498">
        <ele>270.1</ele>
        <time>2022-06-11T11:46:59Z</time>
      </trkpt>
      <trkpt lat="44.33454" lon="4.51498">
        <ele>270.2</ele>
        <time>2022-06-11T11:47:00Z</time>
      </trkpt>
      <trkpt lat="44.3345" lon="4.51498">
        <ele>270.2</ele>
        <time>2022-06-11T11:47:01Z</time>
      </trkpt>
      <trkpt lat="44.33446" lon="4.51499">
        <ele>270.2</ele>
        <time>2022-06-11T11:47:02Z</time>
      </trkpt>
      <trkpt lat="44.33441" lon="4.51499">
        <ele>270.2</ele>
        <time>2022-06-11T11:47:03Z</time>
      </trkpt>
      <trkpt lat="44.33436" lon="4.51499">
        <ele>270.2</ele>
        <time>2022-06-11T11:47:04Z</time>
      </trkpt>
      <trkpt lat="44.33432" lon="4.515">
        <ele>270.2</ele>
        <time>2022-06-11T11:47:06Z</time>
      </trkpt>
      <trkpt lat="44.33426" lon="4.515">
        <ele>270.2</ele>
        <time>2022-06-11T11:47:07Z</time>
      </trkpt>
      <trkpt lat="44.33422" lon="4.515">
        <ele>270.2</ele>
        <time>2022-06-11T11:47:08Z</time>
      </trkpt>
      <trkpt lat="44.33418" lon="4.51499">
        <ele>270.2</ele>
        <time>2022-06-11T11:47:09Z</time>
      </trkpt>
      <trkpt lat="44.33412" lon="4.51499">
        <ele>270.2</ele>
        <time>2022-06-11T11:47:10Z</time>
      </trkpt>
      <trkpt lat="44.33405" lon="4.51497">
        <ele>270.1</ele>
        <time>2022-06-11T11:47:12Z</time>
      </trkpt>
      <trkpt lat="44.33401" lon="4.51495">
        <ele>270</ele>
        <time>2022-06-11T11:47:13Z</time>
      </trkpt>
      <trkpt lat="44.33396" lon="4.51493">
        <ele>270</ele>
        <time>2022-06-11T11:47:14Z</time>
      </trkpt>
      <trkpt lat="44.33392" lon="4.51491">
        <ele>269.9</ele>
        <time>2022-06-11T11:47:15Z</time>
      </trkpt>
      <trkpt lat="44.33387" lon="4.51489">
        <ele>269.9</ele>
        <time>2022-06-11T11:47:16Z</time>
      </trkpt>
      <trkpt lat="44.33382" lon="4.51487">
        <ele>269.8</ele>
        <time>2022-06-11T11:47:17Z</time>
      </trkpt>
      <trkpt lat="44.33377" lon="4.51485">
        <ele>269.8</ele>
        <time>2022-06-11T11:47:18Z</time>
      </trkpt>
      <trkpt lat="44.33372" lon="4.51484">
        <ele>269.7</ele>
        <time>2022-06-11T11:47:19Z</time>
      </trkpt>
      <trkpt lat="44.33367" lon="4.51482">
        <ele>269.6</ele>
        <time>2022-06-11T11:47:20Z</time>
      </trkpt>
      <trkpt lat="44.33362" lon="4.5148">
        <ele>269.5</ele>
        <time>2022-06-11T11:47:21Z</time>
      </trkpt>
      <trkpt lat="44.33357" lon="4.51478">
        <ele>269.4</ele>
        <time>2022-06-11T11:47:22Z</time>
      </trkpt>
      <trkpt lat="44.33353" lon="4.51476">
        <ele>269.3</ele>
        <time>2022-06-11T11:47:23Z</time>
      </trkpt>
      <trkpt lat="44.33348" lon="4.51474">
        <ele>269.2</ele>
        <time>2022-06-11T11:47:24Z</time>
      </trkpt>
      <trkpt lat="44.33342" lon="4.51472">
        <ele>269</ele>
        <time>2022-06-11T11:47:25Z</time>
      </trkpt>
      <trkpt lat="44.33337" lon="4.51469">
        <ele>268.9</ele>
        <time>2022-06-11T11:47:26Z</time>
      </trkpt>
      <trkpt lat="44.33332" lon="4.51466">
        <ele>268.8</ele>
        <time>2022-06-11T11:47:27Z</time>
      </trkpt>
      <trkpt lat="44.33327" lon="4.51462">
        <ele>268.6</ele>
        <time>2022-06-11T11:47:28Z</time>
      </trkpt>
      <trkpt lat="44.33321" lon="4.5146">
        <ele>268.5</ele>
        <time>2022-06-11T11:47:29Z</time>
      </trkpt>
      <trkpt lat="44.33315" lon="4.51457">
        <ele>268.3</ele>
        <time>2022-06-11T11:47:30Z</time>
      </trkpt>
      <trkpt lat="44.3331" lon="4.51455">
        <ele>268.1</ele>
        <time>2022-06-11T11:47:31Z</time>
      </trkpt>
      <trkpt lat="44.33304" lon="4.51453">
        <ele>267.9</ele>
        <time>2022-06-11T11:47:32Z</time>
      </trkpt>
      <trkpt lat="44.33299" lon="4.51453">
        <ele>267.7</ele>
        <time>2022-06-11T11:47:33Z</time>
      </trkpt>
      <trkpt lat="44.33293" lon="4.51453">
        <ele>267.4</ele>
        <time>2022-06-11T11:47:34Z</time>
      </trkpt>
      <trkpt lat="44.33286" lon="4.51454">
        <ele>267.1</ele>
        <time>2022-06-11T11:47:35Z</time>
      </trkpt>
      <trkpt lat="44.33279" lon="4.51457">
        <ele>266.6</ele>
        <time>2022-06-11T11:47:36Z</time>
      </trkpt>
      <trkpt lat="44.33273" lon="4.51461">
        <ele>266.1</ele>
        <time>2022-06-11T11:47:37Z</time>
      </trkpt>
      <trkpt lat="44.33267" lon="4.51467">
        <ele>265.6</ele>
        <time>2022-06-11T11:47:38Z</time>
      </trkpt>
      <trkpt lat="44.33261" lon="4.51475">
        <ele>265</ele>
        <time>2022-06-11T11:47:39Z</time>
      </trkpt>
      <trkpt lat="44.33256" lon="4.51484">
        <ele>264.3</ele>
        <time>2022-06-11T11:47:40Z</time>
      </trkpt>
      <trkpt lat="44.33253" lon="4.51494">
        <ele>263.7</ele>
        <time>2022-06-11T11:47:41Z</time>
      </trkpt>
      <trkpt lat="44.3325" lon="4.51506">
        <ele>262.9</ele>
        <time>2022-06-11T11:47:42Z</time>
      </trkpt>
      <trkpt lat="44.33249" lon="4.51519">
        <ele>262.2</ele>
        <time>2022-06-11T11:47:43Z</time>
      </trkpt>
      <trkpt lat="44.33249" lon="4.51532">
        <ele>261.4</ele>
        <time>2022-06-11T11:47:44Z</time>
      </trkpt>
      <trkpt lat="44.33249" lon="4.51545">
        <ele>260.8</ele>
        <time>2022-06-11T11:47:45Z</time>
      </trkpt>
      <trkpt lat="44.33248" lon="4.51557">
        <ele>260.3</ele>
        <time>2022-06-11T11:47:46Z</time>
      </trkpt>
      <trkpt lat="44.33248" lon="4.5157">
        <ele>259.8</ele>
        <time>2022-06-11T11:47:47Z</time>
      </trkpt>
      <trkpt lat="44.33248" lon="4.51582">
        <ele>259.6</ele>
        <time>2022-06-11T11:47:48Z</time>
      </trkpt>
      <trkpt lat="44.33248" lon="4.51595">
        <ele>259.4</ele>
        <time>2022-06-11T11:47:49Z</time>
      </trkpt>
      <trkpt lat="44.33248" lon="4.51607">
        <ele>259.4</ele>
        <time>2022-06-11T11:47:50Z</time>
      </trkpt>
      <trkpt lat="44.33249" lon="4.5162">
        <ele>259.5</ele>
        <time>2022-06-11T11:47:51Z</time>
      </trkpt>
      <trkpt lat="44.33249" lon="4.51631">
        <ele>259.6</ele>
        <time>2022-06-11T11:47:52Z</time>
      </trkpt>
      <trkpt lat="44.33248" lon="4.51643">
        <ele>259.9</ele>
        <time>2022-06-11T11:47:53Z</time>
      </trkpt>
      <trkpt lat="44.33249" lon="4.51652">
        <ele>260.2</ele>
        <time>2022-06-11T11:47:54Z</time>
      </trkpt>
      <trkpt lat="44.33248" lon="4.51661">
        <ele>260.4</ele>
        <time>2022-06-11T11:47:55Z</time>
      </trkpt>
      <trkpt lat="44.33249" lon="4.5167">
        <ele>260.7</ele>
        <time>2022-06-11T11:47:56Z</time>
      </trkpt>
      <trkpt lat="44.3325" lon="4.51678">
        <ele>261</ele>
        <time>2022-06-11T11:47:57Z</time>
      </trkpt>
      <trkpt lat="44.33252" lon="4.51686">
        <ele>261.2</ele>
        <time>2022-06-11T11:47:58Z</time>
      </trkpt>
      <trkpt lat="44.33253" lon="4.51693">
        <ele>261.5</ele>
        <time>2022-06-11T11:47:59Z</time>
      </trkpt>
      <trkpt lat="44.33256" lon="4.51699">
        <ele>261.7</ele>
        <time>2022-06-11T11:48:00Z</time>
      </trkpt>
      <trkpt lat="44.33257" lon="4.51704">
        <ele>261.8</ele>
        <time>2022-06-11T11:48:01Z</time>
      </trkpt>
      <trkpt lat="44.3326" lon="4.5171">
        <ele>262</ele>
        <time>2022-06-11T11:48:02Z</time>
      </trkpt>
      <trkpt lat="44.33261" lon="4.51713">
        <ele>262.1</ele>
        <time>2022-06-11T11:48:03Z</time>
      </trkpt>
      <trkpt lat="44.33264" lon="4.51718">
        <ele>262.2</ele>
        <time>2022-06-11T11:48:04Z</time>
      </trkpt>
      <trkpt lat="44.33267" lon="4.51723">
        <ele>262.2</ele>
        <time>2022-06-11T11:48:05Z</time>
      </trkpt>
      <trkpt lat="44.33269" lon="4.51728">
        <ele>262.3</ele>
        <time>2022-06-11T11:48:06Z</time>
      </trkpt>
      <trkpt lat="44.33271" lon="4.51731">
        <ele>262.4</ele>
        <time>2022-06-11T11:48:07Z</time>
      </trkpt>
      <trkpt lat="44.33274" lon="4.51735">
        <ele>262.4</ele>
        <time>2022-06-11T11:48:08Z</time>
      </trkpt>
      <trkpt lat="44.33277" lon="4.5174">
        <ele>262.5</ele>
        <time>2022-06-11T11:48:09Z</time>
      </trkpt>
      <trkpt lat="44.33279" lon="4.51742">
        <ele>262.5</ele>
        <time>2022-06-11T11:48:10Z</time>
      </trkpt>
      <trkpt lat="44.33284" lon="4.51747">
        <ele>262.5</ele>
        <time>2022-06-11T11:48:11Z</time>
      </trkpt>
      <trkpt lat="44.33289" lon="4.51751">
        <ele>262.5</ele>
        <time>2022-06-11T11:48:12Z</time>
      </trkpt>
      <trkpt lat="44.33293" lon="4.51754">
        <ele>262.5</ele>
        <time>2022-06-11T11:48:13Z</time>
      </trkpt>
      <trkpt lat="44.33297" lon="4.51756">
        <ele>262.5</ele>
        <time>2022-06-11T11:48:15Z</time>
      </trkpt>
      <trkpt lat="44.33303" lon="4.5176">
        <ele>262.5</ele>
        <time>2022-06-11T11:48:16Z</time>
      </trkpt>
      <trkpt lat="44.33308" lon="4.51762">
        <ele>262.5</ele>
        <time>2022-06-11T11:48:18Z</time>
      </trkpt>
      <trkpt lat="44.33311" lon="4.51765">
        <ele>262.5</ele>
        <time>2022-06-11T11:48:19Z</time>
      </trkpt>
      <trkpt lat="44.33314" lon="4.51767">
        <ele>262.4</ele>
        <time>2022-06-11T11:48:20Z</time>
      </trkpt>
      <trkpt lat="44.33317" lon="4.51771">
        <ele>262.4</ele>
        <time>2022-06-11T11:48:21Z</time>
      </trkpt>
      <trkpt lat="44.33324" lon="4.51776">
        <ele>262.3</ele>
        <time>2022-06-11T11:48:22Z</time>
      </trkpt>
      <trkpt lat="44.33329" lon="4.51779">
        <ele>262.3</ele>
        <time>2022-06-11T11:48:23Z</time>
      </trkpt>
      <trkpt lat="44.33333" lon="4.51783">
        <ele>262.2</ele>
        <time>2022-06-11T11:48:25Z</time>
      </trkpt>
      <trkpt lat="44.33336" lon="4.51786">
        <ele>262.2</ele>
        <time>2022-06-11T11:48:26Z</time>
      </trkpt>
      <trkpt lat="44.33341" lon="4.51789">
        <ele>262.2</ele>
        <time>2022-06-11T11:48:27Z</time>
      </trkpt>
      <trkpt lat="44.33345" lon="4.51792">
        <ele>262.1</ele>
        <time>2022-06-11T11:48:28Z</time>
      </trkpt>
      <trkpt lat="44.3335" lon="4.51795">
        <ele>262.1</ele>
        <time>2022-06-11T11:48:29Z</time>
      </trkpt>
      <trkpt lat="44.33354" lon="4.51798">
        <ele>262.1</ele>
        <time>2022-06-11T11:48:30Z</time>
      </trkpt>
      <trkpt lat="44.33358" lon="4.51802">
        <ele>262</ele>
        <time>2022-06-11T11:48:31Z</time>
      </trkpt>
      <trkpt lat="44.33363" lon="4.51805">
        <ele>262</ele>
        <time>2022-06-11T11:48:32Z</time>
      </trkpt>
      <trkpt lat="44.33367" lon="4.51809">
        <ele>261.9</ele>
        <time>2022-06-11T11:48:33Z</time>
      </trkpt>
      <trkpt lat="44.33371" lon="4.51813">
        <ele>261.9</ele>
        <time>2022-06-11T11:48:34Z</time>
      </trkpt>
      <trkpt lat="44.33375" lon="4.51816">
        <ele>261.9</ele>
        <time>2022-06-11T11:48:35Z</time>
      </trkpt>
      <trkpt lat="44.33379" lon="4.51821">
        <ele>261.9</ele>
        <time>2022-06-11T11:48:36Z</time>
      </trkpt>
      <trkpt lat="44.33383" lon="4.51825">
        <ele>261.8</ele>
        <time>2022-06-11T11:48:37Z</time>
      </trkpt>
      <trkpt lat="44.33386" lon="4.5183">
        <ele>261.8</ele>
        <time>2022-06-11T11:48:38Z</time>
      </trkpt>
      <trkpt lat="44.33389" lon="4.51835">
        <ele>261.8</ele>
        <time>2022-06-11T11:48:39Z</time>
      </trkpt>
      <trkpt lat="44.33391" lon="4.51841">
        <ele>261.8</ele>
        <time>2022-06-11T11:48:40Z</time>
      </trkpt>
      <trkpt lat="44.33393" lon="4.51847">
        <ele>261.8</ele>
        <time>2022-06-11T11:48:41Z</time>
      </trkpt>
      <trkpt lat="44.33395" lon="4.51854">
        <ele>261.8</ele>
        <time>2022-06-11T11:48:42Z</time>
      </trkpt>
      <trkpt lat="44.33395" lon="4.51861">
        <ele>261.8</ele>
        <time>2022-06-11T11:48:43Z</time>
      </trkpt>
      <trkpt lat="44.33395" lon="4.51868">
        <ele>261.8</ele>
        <time>2022-06-11T11:48:44Z</time>
      </trkpt>
      <trkpt lat="44.33394" lon="4.51874">
        <ele>261.9</ele>
        <time>2022-06-11T11:48:45Z</time>
      </trkpt>
      <trkpt lat="44.33392" lon="4.5188">
        <ele>261.9</ele>
        <time>2022-06-11T11:48:46Z</time>
      </trkpt>
      <trkpt lat="44.3339" lon="4.51885">
        <ele>261.9</ele>
        <time>2022-06-11T11:48:47Z</time>
      </trkpt>
      <trkpt lat="44.33387" lon="4.51891">
        <ele>261.9</ele>
        <time>2022-06-11T11:48:48Z</time>
      </trkpt>
      <trkpt lat="44.33383" lon="4.51895">
        <ele>262</ele>
        <time>2022-06-11T11:48:49Z</time>
      </trkpt>
      <trkpt lat="44.3338" lon="4.51899">
        <ele>262</ele>
        <time>2022-06-11T11:48:50Z</time>
      </trkpt>
      <trkpt lat="44.33377" lon="4.51904">
        <ele>262.1</ele>
        <time>2022-06-11T11:48:51Z</time>
      </trkpt>
      <trkpt lat="44.33374" lon="4.51908">
        <ele>262.2</ele>
        <time>2022-06-11T11:48:52Z</time>
      </trkpt>
      <trkpt lat="44.33371" lon="4.51912">
        <ele>262.3</ele>
        <time>2022-06-11T11:48:53Z</time>
      </trkpt>
      <trkpt lat="44.33367" lon="4.51917">
        <ele>262.4</ele>
        <time>2022-06-11T11:48:54Z</time>
      </trkpt>
      <trkpt lat="44.33365" lon="4.51919">
        <ele>262.5</ele>
        <time>2022-06-11T11:48:55Z</time>
      </trkpt>
      <trkpt lat="44.33363" lon="4.51924">
        <ele>262.6</ele>
        <time>2022-06-11T11:48:56Z</time>
      </trkpt>
      <trkpt lat="44.3336" lon="4.51928">
        <ele>262.8</ele>
        <time>2022-06-11T11:48:57Z</time>
      </trkpt>
      <trkpt lat="44.33357" lon="4.51933">
        <ele>262.9</ele>
        <time>2022-06-11T11:48:58Z</time>
      </trkpt>
      <trkpt lat="44.33353" lon="4.51938">
        <ele>263.2</ele>
        <time>2022-06-11T11:48:59Z</time>
      </trkpt>
      <trkpt lat="44.33351" lon="4.5194">
        <ele>263.3</ele>
        <time>2022-06-11T11:49:00Z</time>
      </trkpt>
      <trkpt lat="44.33349" lon="4.51946">
        <ele>263.5</ele>
        <time>2022-06-11T11:49:01Z</time>
      </trkpt>
      <trkpt lat="44.33347" lon="4.51952">
        <ele>263.7</ele>
        <time>2022-06-11T11:49:02Z</time>
      </trkpt>
      <trkpt lat="44.33345" lon="4.51957">
        <ele>263.9</ele>
        <time>2022-06-11T11:49:03Z</time>
      </trkpt>
      <trkpt lat="44.33344" lon="4.51961">
        <ele>264</ele>
        <time>2022-06-11T11:49:04Z</time>
      </trkpt>
      <trkpt lat="44.33342" lon="4.51965">
        <ele>264.2</ele>
        <time>2022-06-11T11:49:06Z</time>
      </trkpt>
      <trkpt lat="44.33339" lon="4.51972">
        <ele>264.4</ele>
        <time>2022-06-11T11:49:07Z</time>
      </trkpt>
      <trkpt lat="44.33337" lon="4.51981">
        <ele>264.8</ele>
        <time>2022-06-11T11:49:09Z</time>
      </trkpt>
      <trkpt lat="44.33334" lon="4.5199">
        <ele>265.1</ele>
        <time>2022-06-11T11:49:11Z</time>
      </trkpt>
      <trkpt lat="44.33333" lon="4.51994">
        <ele>265.2</ele>
        <time>2022-06-11T11:49:13Z</time>
      </trkpt>
      <trkpt lat="44.33332" lon="4.51998">
        <ele>265.4</ele>
        <time>2022-06-11T11:49:14Z</time>
      </trkpt>
      <trkpt lat="44.33331" lon="4.52002">
        <ele>265.5</ele>
        <time>2022-06-11T11:49:15Z</time>
      </trkpt>
      <trkpt lat="44.33331" lon="4.52006">
        <ele>265.7</ele>
        <time>2022-06-11T11:49:16Z</time>
      </trkpt>
      <trkpt lat="44.3333" lon="4.5201">
        <ele>265.8</ele>
        <time>2022-06-11T11:49:17Z</time>
      </trkpt>
      <trkpt lat="44.33329" lon="4.52016">
        <ele>266</ele>
        <time>2022-06-11T11:49:18Z</time>
      </trkpt>
      <trkpt lat="44.33328" lon="4.5202">
        <ele>266.1</ele>
        <time>2022-06-11T11:49:19Z</time>
      </trkpt>
      <trkpt lat="44.33327" lon="4.52027">
        <ele>266.4</ele>
        <time>2022-06-11T11:49:21Z</time>
      </trkpt>
      <trkpt lat="44.33326" lon="4.52034">
        <ele>266.6</ele>
        <time>2022-06-11T11:49:22Z</time>
      </trkpt>
      <trkpt lat="44.33326" lon="4.5204">
        <ele>266.7</ele>
        <time>2022-06-11T11:49:24Z</time>
      </trkpt>
      <trkpt lat="44.33325" lon="4.52049">
        <ele>266.9</ele>
        <time>2022-06-11T11:49:25Z</time>
      </trkpt>
      <trkpt lat="44.33323" lon="4.52057">
        <ele>267.1</ele>
        <time>2022-06-11T11:49:27Z</time>
      </trkpt>
      <trkpt lat="44.33323" lon="4.52061">
        <ele>267.2</ele>
        <time>2022-06-11T11:49:28Z</time>
      </trkpt>
      <trkpt lat="44.33322" lon="4.52065">
        <ele>267.4</ele>
        <time>2022-06-11T11:49:29Z</time>
      </trkpt>
      <trkpt lat="44.33321" lon="4.52071">
        <ele>267.5</ele>
        <time>2022-06-11T11:49:31Z</time>
      </trkpt>
      <trkpt lat="44.33321" lon="4.52075">
        <ele>267.6</ele>
        <time>2022-06-11T11:49:32Z</time>
      </trkpt>
      <trkpt lat="44.33319" lon="4.52085">
        <ele>267.9</ele>
        <time>2022-06-11T11:49:34Z</time>
      </trkpt>
      <trkpt lat="44.33317" lon="4.52094">
        <ele>268.1</ele>
        <time>2022-06-11T11:49:36Z</time>
      </trkpt>
      <trkpt lat="44.33317" lon="4.52099">
        <ele>268.2</ele>
        <time>2022-06-11T11:49:38Z</time>
      </trkpt>
      <trkpt lat="44.33316" lon="4.52107">
        <ele>268.4</ele>
        <time>2022-06-11T11:49:40Z</time>
      </trkpt>
      <trkpt lat="44.33316" lon="4.52111">
        <ele>268.5</ele>
        <time>2022-06-11T11:49:41Z</time>
      </trkpt>
      <trkpt lat="44.33315" lon="4.52115">
        <ele>268.5</ele>
        <time>2022-06-11T11:49:42Z</time>
      </trkpt>
      <trkpt lat="44.33313" lon="4.52123">
        <ele>268.7</ele>
        <time>2022-06-11T11:49:43Z</time>
      </trkpt>
      <trkpt lat="44.33312" lon="4.5213">
        <ele>268.8</ele>
        <time>2022-06-11T11:49:45Z</time>
      </trkpt>
      <trkpt lat="44.33311" lon="4.52134">
        <ele>268.8</ele>
        <time>2022-06-11T11:49:46Z</time>
      </trkpt>
      <trkpt lat="44.3331" lon="4.5214">
        <ele>268.9</ele>
        <time>2022-06-11T11:49:47Z</time>
      </trkpt>
      <trkpt lat="44.3331" lon="4.52146">
        <ele>268.9</ele>
        <time>2022-06-11T11:49:49Z</time>
      </trkpt>
      <trkpt lat="44.33309" lon="4.5215">
        <ele>269</ele>
        <time>2022-06-11T11:49:50Z</time>
      </trkpt>
      <trkpt lat="44.33309" lon="4.52154">
        <ele>269</ele>
        <time>2022-06-11T11:49:51Z</time>
      </trkpt>
      <trkpt lat="44.33308" lon="4.52158">
        <ele>269</ele>
        <time>2022-06-11T11:49:52Z</time>
      </trkpt>
      <trkpt lat="44.33308" lon="4.52162">
        <ele>269</ele>
        <time>2022-06-11T11:49:53Z</time>
      </trkpt>
      <trkpt lat="44.33307" lon="4.52167">
        <ele>269</ele>
        <time>2022-06-11T11:49:54Z</time>
      </trkpt>
      <trkpt lat="44.33307" lon="4.52172">
        <ele>269</ele>
        <time>2022-06-11T11:49:55Z</time>
      </trkpt>
      <trkpt lat="44.33308" lon="4.52177">
        <ele>268.9</ele>
        <time>2022-06-11T11:49:56Z</time>
      </trkpt>
      <trkpt lat="44.3331" lon="4.52188">
        <ele>268.8</ele>
        <time>2022-06-11T11:49:57Z</time>
      </trkpt>
      <trkpt lat="44.33312" lon="4.52195">
        <ele>268.7</ele>
        <time>2022-06-11T11:49:59Z</time>
      </trkpt>
      <trkpt lat="44.33314" lon="4.522">
        <ele>268.6</ele>
        <time>2022-06-11T11:50:00Z</time>
      </trkpt>
      <trkpt lat="44.33317" lon="4.52205">
        <ele>268.4</ele>
        <time>2022-06-11T11:50:01Z</time>
      </trkpt>
      <trkpt lat="44.3332" lon="4.5221">
        <ele>268.3</ele>
        <time>2022-06-11T11:50:02Z</time>
      </trkpt>
      <trkpt lat="44.33324" lon="4.52215">
        <ele>268</ele>
        <time>2022-06-11T11:50:03Z</time>
      </trkpt>
      <trkpt lat="44.33328" lon="4.52219">
        <ele>267.8</ele>
        <time>2022-06-11T11:50:04Z</time>
      </trkpt>
      <trkpt lat="44.33332" lon="4.52223">
        <ele>267.6</ele>
        <time>2022-06-11T11:50:05Z</time>
      </trkpt>
      <trkpt lat="44.33337" lon="4.52226">
        <ele>267.4</ele>
        <time>2022-06-11T11:50:06Z</time>
      </trkpt>
      <trkpt lat="44.33342" lon="4.52228">
        <ele>267.1</ele>
        <time>2022-06-11T11:50:07Z</time>
      </trkpt>
      <trkpt lat="44.33347" lon="4.5223">
        <ele>266.9</ele>
        <time>2022-06-11T11:50:08Z</time>
      </trkpt>
      <trkpt lat="44.33352" lon="4.52231">
        <ele>266.6</ele>
        <time>2022-06-11T11:50:09Z</time>
      </trkpt>
      <trkpt lat="44.33358" lon="4.52232">
        <ele>266.4</ele>
        <time>2022-06-11T11:50:10Z</time>
      </trkpt>
      <trkpt lat="44.33363" lon="4.52232">
        <ele>266.1</ele>
        <time>2022-06-11T11:50:11Z</time>
      </trkpt>
      <trkpt lat="44.33369" lon="4.52231">
        <ele>265.8</ele>
        <time>2022-06-11T11:50:12Z</time>
      </trkpt>
      <trkpt lat="44.33376" lon="4.5223">
        <ele>265.5</ele>
        <time>2022-06-11T11:50:13Z</time>
      </trkpt>
      <trkpt lat="44.33382" lon="4.52229">
        <ele>265.2</ele>
        <time>2022-06-11T11:50:14Z</time>
      </trkpt>
      <trkpt lat="44.33388" lon="4.52228">
        <ele>265</ele>
        <time>2022-06-11T11:50:15Z</time>
      </trkpt>
      <trkpt lat="44.33395" lon="4.52227">
        <ele>264.7</ele>
        <time>2022-06-11T11:50:16Z</time>
      </trkpt>
      <trkpt lat="44.33401" lon="4.52225">
        <ele>264.5</ele>
        <time>2022-06-11T11:50:17Z</time>
      </trkpt>
      <trkpt lat="44.33407" lon="4.52224">
        <ele>264.3</ele>
        <time>2022-06-11T11:50:18Z</time>
      </trkpt>
      <trkpt lat="44.33413" lon="4.52223">
        <ele>264.1</ele>
        <time>2022-06-11T11:50:19Z</time>
      </trkpt>
      <trkpt lat="44.3342" lon="4.52222">
        <ele>264</ele>
        <time>2022-06-11T11:50:20Z</time>
      </trkpt>
      <trkpt lat="44.33426" lon="4.5222">
        <ele>263.8</ele>
        <time>2022-06-11T11:50:21Z</time>
      </trkpt>
      <trkpt lat="44.33432" lon="4.52219">
        <ele>263.7</ele>
        <time>2022-06-11T11:50:22Z</time>
      </trkpt>
      <trkpt lat="44.33438" lon="4.52219">
        <ele>263.5</ele>
        <time>2022-06-11T11:50:23Z</time>
      </trkpt>
      <trkpt lat="44.33443" lon="4.52218">
        <ele>263.4</ele>
        <time>2022-06-11T11:50:24Z</time>
      </trkpt>
      <trkpt lat="44.33449" lon="4.52217">
        <ele>263.3</ele>
        <time>2022-06-11T11:50:25Z</time>
      </trkpt>
      <trkpt lat="44.33454" lon="4.52216">
        <ele>263.2</ele>
        <time>2022-06-11T11:50:26Z</time>
      </trkpt>
      <trkpt lat="44.3346" lon="4.52215">
        <ele>263</ele>
        <time>2022-06-11T11:50:27Z</time>
      </trkpt>
      <trkpt lat="44.33466" lon="4.52214">
        <ele>262.9</ele>
        <time>2022-06-11T11:50:28Z</time>
      </trkpt>
      <trkpt lat="44.33472" lon="4.52213">
        <ele>262.8</ele>
        <time>2022-06-11T11:50:29Z</time>
      </trkpt>
      <trkpt lat="44.33478" lon="4.52212">
        <ele>262.6</ele>
        <time>2022-06-11T11:50:30Z</time>
      </trkpt>
      <trkpt lat="44.33484" lon="4.52211">
        <ele>262.5</ele>
        <time>2022-06-11T11:50:31Z</time>
      </trkpt>
      <trkpt lat="44.33489" lon="4.5221">
        <ele>262.4</ele>
        <time>2022-06-11T11:50:32Z</time>
      </trkpt>
      <trkpt lat="44.33495" lon="4.52209">
        <ele>262.2</ele>
        <time>2022-06-11T11:50:33Z</time>
      </trkpt>
      <trkpt lat="44.33501" lon="4.52209">
        <ele>262.1</ele>
        <time>2022-06-11T11:50:34Z</time>
      </trkpt>
      <trkpt lat="44.33507" lon="4.52209">
        <ele>262</ele>
        <time>2022-06-11T11:50:35Z</time>
      </trkpt>
      <trkpt lat="44.33513" lon="4.52209">
        <ele>261.9</ele>
        <time>2022-06-11T11:50:36Z</time>
      </trkpt>
      <trkpt lat="44.33519" lon="4.5221">
        <ele>261.8</ele>
        <time>2022-06-11T11:50:37Z</time>
      </trkpt>
      <trkpt lat="44.33525" lon="4.52211">
        <ele>261.7</ele>
        <time>2022-06-11T11:50:38Z</time>
      </trkpt>
      <trkpt lat="44.33532" lon="4.52212">
        <ele>261.5</ele>
        <time>2022-06-11T11:50:39Z</time>
      </trkpt>
      <trkpt lat="44.33538" lon="4.52213">
        <ele>261.4</ele>
        <time>2022-06-11T11:50:40Z</time>
      </trkpt>
      <trkpt lat="44.33545" lon="4.52214">
        <ele>261.3</ele>
        <time>2022-06-11T11:50:41Z</time>
      </trkpt>
      <trkpt lat="44.33549" lon="4.52216">
        <ele>261.2</ele>
        <time>2022-06-11T11:50:42Z</time>
      </trkpt>
      <trkpt lat="44.33551" lon="4.52218">
        <ele>261.2</ele>
        <time>2022-06-11T11:50:43Z</time>
      </trkpt>
      <trkpt lat="44.33552" lon="4.52218">
        <ele>261.2</ele>
        <time>2022-06-11T11:50:44Z</time>
      </trkpt>
      <trkpt lat="44.33552" lon="4.52218">
        <ele>261.2</ele>
        <time>2022-06-11T11:50:45Z</time>
      </trkpt>
      <trkpt lat="44.33553" lon="4.52218">
        <ele>261.2</ele>
        <time>2022-06-11T11:50:46Z</time>
      </trkpt>
      <trkpt lat="44.33553" lon="4.52217">
        <ele>261.2</ele>
        <time>2022-06-11T11:50:47Z</time>
      </trkpt>
      <trkpt lat="44.33553" lon="4.52217">
        <ele>261.1</ele>
        <time>2022-06-11T11:50:48Z</time>
      </trkpt>
      <trkpt lat="44.33553" lon="4.52216">
        <ele>261.1</ele>
        <time>2022-06-11T11:50:49Z</time>
      </trkpt>
      <trkpt lat="44.33553" lon="4.52217">
        <ele>261.1</ele>
        <time>2022-06-11T11:50:50Z</time>
      </trkpt>
      <trkpt lat="44.33553" lon="4.52216">
        <ele>261.1</ele>
        <time>2022-06-11T11:50:51Z</time>
      </trkpt>
      <trkpt lat="44.33553" lon="4.52216">
        <ele>261.1</ele>
        <time>2022-06-11T11:50:52Z</time>
      </trkpt>
      <trkpt lat="44.33554" lon="4.52214">
        <ele>261.1</ele>
        <time>2022-06-11T11:50:53Z</time>
      </trkpt>
      <trkpt lat="44.33555" lon="4.52211">
        <ele>261.1</ele>
        <time>2022-06-11T11:50:54Z</time>
      </trkpt>
      <trkpt lat="44.33556" lon="4.52209">
        <ele>261.1</ele>
        <time>2022-06-11T11:50:55Z</time>
      </trkpt>
      <trkpt lat="44.33556" lon="4.52208">
        <ele>261.1</ele>
        <time>2022-06-11T11:50:56Z</time>
      </trkpt>
      <trkpt lat="44.33556" lon="4.52207">
        <ele>261.1</ele>
        <time>2022-06-11T11:50:58Z</time>
      </trkpt>
      <trkpt lat="44.33555" lon="4.52206">
        <ele>261.1</ele>
        <time>2022-06-11T11:50:59Z</time>
      </trkpt>
      <trkpt lat="44.33555" lon="4.52206">
        <ele>261.1</ele>
        <time>2022-06-11T11:51:00Z</time>
      </trkpt>
      <trkpt lat="44.33555" lon="4.52206">
        <ele>261.1</ele>
        <time>2022-06-11T11:51:01Z</time>
      </trkpt>
      <trkpt lat="44.33555" lon="4.52206">
        <ele>261.1</ele>
        <time>2022-06-11T11:51:02Z</time>
      </trkpt>
      <trkpt lat="44.33555" lon="4.52206">
        <ele>261.1</ele>
        <time>2022-06-11T11:51:03Z</time>
      </trkpt>
      <trkpt lat="44.33555" lon="4.52206">
        <ele>261.1</ele>
        <time>2022-06-11T11:51:04Z</time>
      </trkpt>
      <trkpt lat="44.33555" lon="4.52206">
        <ele>261.1</ele>
        <time>2022-06-11T11:51:05Z</time>
      </trkpt>
      <trkpt lat="44.33554" lon="4.52207">
        <ele>261.1</ele>
        <time>2022-06-11T11:51:06Z</time>
      </trkpt>
      <trkpt lat="44.33554" lon="4.52208">
        <ele>261.1</ele>
        <time>2022-06-11T11:51:07Z</time>
      </trkpt>
      <trkpt lat="44.33553" lon="4.5221">
        <ele>261.1</ele>
        <time>2022-06-11T11:51:08Z</time>
      </trkpt>
      <trkpt lat="44.33553" lon="4.52211">
        <ele>261.1</ele>
        <time>2022-06-11T11:58:10Z</time>
      </trkpt>
      <trkpt lat="44.33552" lon="4.52212">
        <ele>261.1</ele>
        <time>2022-06-11T11:58:11Z</time>
      </trkpt>
      <trkpt lat="44.33552" lon="4.52213">
        <ele>261.1</ele>
        <time>2022-06-11T11:58:12Z</time>
      </trkpt>
      <trkpt lat="44.33551" lon="4.52215">
        <ele>261.1</ele>
        <time>2022-06-11T11:58:13Z</time>
      </trkpt>
      <trkpt lat="44.33552" lon="4.52216">
        <ele>261.1</ele>
        <time>2022-06-11T11:58:14Z</time>
      </trkpt>
      <trkpt lat="44.33553" lon="4.52218">
        <ele>261.1</ele>
        <time>2022-06-11T11:58:15Z</time>
      </trkpt>
      <trkpt lat="44.33554" lon="4.52219">
        <ele>261.1</ele>
        <time>2022-06-11T11:58:16Z</time>
      </trkpt>
      <trkpt lat="44.33555" lon="4.52219">
        <ele>261.1</ele>
        <time>2022-06-11T11:58:17Z</time>
      </trkpt>
      <trkpt lat="44.33556" lon="4.52219">
        <ele>261.1</ele>
        <time>2022-06-11T11:58:18Z</time>
      </trkpt>
      <trkpt lat="44.33556" lon="4.52219">
        <ele>261.1</ele>
        <time>2022-06-11T11:58:19Z</time>
      </trkpt>
      <trkpt lat="44.33557" lon="4.52219">
        <ele>261.1</ele>
        <time>2022-06-11T11:58:20Z</time>
      </trkpt>
      <trkpt lat="44.33557" lon="4.52219">
        <ele>261.1</ele>
        <time>2022-06-11T11:58:21Z</time>
      </trkpt>
      <trkpt lat="44.33557" lon="4.52219">
        <ele>261.1</ele>
        <time>2022-06-11T11:58:22Z</time>
      </trkpt>
      <trkpt lat="44.33557" lon="4.52219">
        <ele>261.1</ele>
        <time>2022-06-11T11:58:23Z</time>
      </trkpt>
      <trkpt lat="44.33558" lon="4.52219">
        <ele>261.1</ele>
        <time>2022-06-11T11:58:24Z</time>
      </trkpt>
      <trkpt lat="44.33559" lon="4.52219">
        <ele>261.1</ele>
        <time>2022-06-11T11:58:25Z</time>
      </trkpt>
      <trkpt lat="44.33561" lon="4.52219">
        <ele>261.1</ele>
        <time>2022-06-11T11:58:26Z</time>
      </trkpt>
      <trkpt lat="44.33563" lon="4.5222">
        <ele>261.2</ele>
        <time>2022-06-11T11:58:27Z</time>
      </trkpt>
      <trkpt lat="44.33566" lon="4.52222">
        <ele>261.2</ele>
        <time>2022-06-11T11:58:28Z</time>
      </trkpt>
      <trkpt lat="44.33567" lon="4.52223">
        <ele>261.2</ele>
        <time>2022-06-11T11:58:29Z</time>
      </trkpt>
      <trkpt lat="44.3357" lon="4.52224">
        <ele>261.3</ele>
        <time>2022-06-11T11:58:30Z</time>
      </trkpt>
      <trkpt lat="44.33571" lon="4.52224">
        <ele>261.3</ele>
        <time>2022-06-11T11:58:31Z</time>
      </trkpt>
      <trkpt lat="44.33574" lon="4.52225">
        <ele>261.3</ele>
        <time>2022-06-11T11:58:32Z</time>
      </trkpt>
      <trkpt lat="44.33576" lon="4.52227">
        <ele>261.4</ele>
        <time>2022-06-11T11:58:33Z</time>
      </trkpt>
      <trkpt lat="44.33579" lon="4.52228">
        <ele>261.4</ele>
        <time>2022-06-11T11:58:34Z</time>
      </trkpt>
      <trkpt lat="44.33583" lon="4.5223">
        <ele>261.5</ele>
        <time>2022-06-11T11:58:35Z</time>
      </trkpt>
      <trkpt lat="44.33585" lon="4.52231">
        <ele>261.6</ele>
        <time>2022-06-11T11:58:36Z</time>
      </trkpt>
      <trkpt lat="44.33588" lon="4.52232">
        <ele>261.7</ele>
        <time>2022-06-11T11:58:37Z</time>
      </trkpt>
      <trkpt lat="44.33592" lon="4.52234">
        <ele>261.8</ele>
        <time>2022-06-11T11:58:38Z</time>
      </trkpt>
      <trkpt lat="44.33594" lon="4.52235">
        <ele>261.8</ele>
        <time>2022-06-11T11:58:39Z</time>
      </trkpt>
      <trkpt lat="44.33596" lon="4.52237">
        <ele>261.9</ele>
        <time>2022-06-11T11:58:40Z</time>
      </trkpt>
      <trkpt lat="44.336" lon="4.52239">
        <ele>262.1</ele>
        <time>2022-06-11T11:58:41Z</time>
      </trkpt>
      <trkpt lat="44.33603" lon="4.52241">
        <ele>262.2</ele>
        <time>2022-06-11T11:58:42Z</time>
      </trkpt>
      <trkpt lat="44.33608" lon="4.52244">
        <ele>262.4</ele>
        <time>2022-06-11T11:58:43Z</time>
      </trkpt>
      <trkpt lat="44.3361" lon="4.52245">
        <ele>262.5</ele>
        <time>2022-06-11T11:58:44Z</time>
      </trkpt>
      <trkpt lat="44.33613" lon="4.52248">
        <ele>262.8</ele>
        <time>2022-06-11T11:58:45Z</time>
      </trkpt>
      <trkpt lat="44.33616" lon="4.5225">
        <ele>262.9</ele>
        <time>2022-06-11T11:58:46Z</time>
      </trkpt>
      <trkpt lat="44.33619" lon="4.52251">
        <ele>263.1</ele>
        <time>2022-06-11T11:58:48Z</time>
      </trkpt>
      <trkpt lat="44.33625" lon="4.52258">
        <ele>263.6</ele>
        <time>2022-06-11T11:58:50Z</time>
      </trkpt>
      <trkpt lat="44.33628" lon="4.52259">
        <ele>263.7</ele>
        <time>2022-06-11T11:58:52Z</time>
      </trkpt>
      <trkpt lat="44.3363" lon="4.52262">
        <ele>263.9</ele>
        <time>2022-06-11T11:58:53Z</time>
      </trkpt>
      <trkpt lat="44.33631" lon="4.52263">
        <ele>264</ele>
        <time>2022-06-11T11:58:54Z</time>
      </trkpt>
      <trkpt lat="44.33634" lon="4.52266">
        <ele>264.2</ele>
        <time>2022-06-11T11:58:55Z</time>
      </trkpt>
      <trkpt lat="44.33635" lon="4.52266">
        <ele>264.3</ele>
        <time>2022-06-11T11:58:56Z</time>
      </trkpt>
      <trkpt lat="44.33638" lon="4.52269">
        <ele>264.5</ele>
        <time>2022-06-11T11:58:57Z</time>
      </trkpt>
      <trkpt lat="44.33639" lon="4.5227">
        <ele>264.6</ele>
        <time>2022-06-11T11:58:58Z</time>
      </trkpt>
      <trkpt lat="44.33641" lon="4.52273">
        <ele>264.8</ele>
        <time>2022-06-11T11:58:59Z</time>
      </trkpt>
      <trkpt lat="44.33642" lon="4.52274">
        <ele>264.9</ele>
        <time>2022-06-11T11:59:00Z</time>
      </trkpt>
      <trkpt lat="44.33645" lon="4.52276">
        <ele>265.1</ele>
        <time>2022-06-11T11:59:01Z</time>
      </trkpt>
      <trkpt lat="44.33645" lon="4.52277">
        <ele>265.1</ele>
        <time>2022-06-11T11:59:02Z</time>
      </trkpt>
      <trkpt lat="44.33648" lon="4.52279">
        <ele>265.4</ele>
        <time>2022-06-11T11:59:03Z</time>
      </trkpt>
      <trkpt lat="44.33649" lon="4.5228">
        <ele>265.4</ele>
        <time>2022-06-11T11:59:04Z</time>
      </trkpt>
      <trkpt lat="44.33652" lon="4.52283">
        <ele>265.7</ele>
        <time>2022-06-11T11:59:05Z</time>
      </trkpt>
      <trkpt lat="44.33653" lon="4.52284">
        <ele>265.7</ele>
        <time>2022-06-11T11:59:06Z</time>
      </trkpt>
      <trkpt lat="44.33656" lon="4.52286">
        <ele>266</ele>
        <time>2022-06-11T11:59:07Z</time>
      </trkpt>
      <trkpt lat="44.33656" lon="4.52287">
        <ele>266</ele>
        <time>2022-06-11T11:59:08Z</time>
      </trkpt>
      <trkpt lat="44.33659" lon="4.5229">
        <ele>266.3</ele>
        <time>2022-06-11T11:59:09Z</time>
      </trkpt>
      <trkpt lat="44.3366" lon="4.5229">
        <ele>266.3</ele>
        <time>2022-06-11T11:59:10Z</time>
      </trkpt>
      <trkpt lat="44.33663" lon="4.52293">
        <ele>266.6</ele>
        <time>2022-06-11T11:59:11Z</time>
      </trkpt>
      <trkpt lat="44.33664" lon="4.52294">
        <ele>266.6</ele>
        <time>2022-06-11T11:59:12Z</time>
      </trkpt>
      <trkpt lat="44.33667" lon="4.52296">
        <ele>266.9</ele>
        <time>2022-06-11T11:59:13Z</time>
      </trkpt>
      <trkpt lat="44.33667" lon="4.52297">
        <ele>267</ele>
        <time>2022-06-11T11:59:14Z</time>
      </trkpt>
      <trkpt lat="44.3367" lon="4.523">
        <ele>267.2</ele>
        <time>2022-06-11T11:59:15Z</time>
      </trkpt>
      <trkpt lat="44.33671" lon="4.52301">
        <ele>267.2</ele>
        <time>2022-06-11T11:59:16Z</time>
      </trkpt>
      <trkpt lat="44.33674" lon="4.52303">
        <ele>267.5</ele>
        <time>2022-06-11T11:59:17Z</time>
      </trkpt>
      <trkpt lat="44.33675" lon="4.52304">
        <ele>267.6</ele>
        <time>2022-06-11T11:59:19Z</time>
      </trkpt>
      <trkpt lat="44.33678" lon="4.52307">
        <ele>267.8</ele>
        <time>2022-06-11T11:59:21Z</time>
      </trkpt>
      <trkpt lat="44.3368" lon="4.52311">
        <ele>268.1</ele>
        <time>2022-06-11T11:59:22Z</time>
      </trkpt>
      <trkpt lat="44.33683" lon="4.52313">
        <ele>268.3</ele>
        <time>2022-06-11T11:59:24Z</time>
      </trkpt>
      <trkpt lat="44.33684" lon="4.52313">
        <ele>268.3</ele>
        <time>2022-06-11T11:59:25Z</time>
      </trkpt>
      <trkpt lat="44.33686" lon="4.52315">
        <ele>268.5</ele>
        <time>2022-06-11T11:59:26Z</time>
      </trkpt>
      <trkpt lat="44.3369" lon="4.52318">
        <ele>268.8</ele>
        <time>2022-06-11T11:59:28Z</time>
      </trkpt>
      <trkpt lat="44.33691" lon="4.52319">
        <ele>268.9</ele>
        <time>2022-06-11T11:59:29Z</time>
      </trkpt>
      <trkpt lat="44.33693" lon="4.52321">
        <ele>269.1</ele>
        <time>2022-06-11T11:59:30Z</time>
      </trkpt>
      <trkpt lat="44.33694" lon="4.52322">
        <ele>269.2</ele>
        <time>2022-06-11T11:59:31Z</time>
      </trkpt>
      <trkpt lat="44.33697" lon="4.52324">
        <ele>269.4</ele>
        <time>2022-06-11T11:59:33Z</time>
      </trkpt>
      <trkpt lat="44.33697" lon="4.52325">
        <ele>269.4</ele>
        <time>2022-06-11T11:59:34Z</time>
      </trkpt>
      <trkpt lat="44.337" lon="4.52327">
        <ele>269.6</ele>
        <time>2022-06-11T11:59:35Z</time>
      </trkpt>
      <trkpt lat="44.33701" lon="4.52328">
        <ele>269.7</ele>
        <time>2022-06-11T11:59:36Z</time>
      </trkpt>
      <trkpt lat="44.33704" lon="4.5233">
        <ele>269.9</ele>
        <time>2022-06-11T11:59:38Z</time>
      </trkpt>
      <trkpt lat="44.33707" lon="4.52333">
        <ele>270.2</ele>
        <time>2022-06-11T11:59:40Z</time>
      </trkpt>
      <trkpt lat="44.33709" lon="4.52336">
        <ele>270.4</ele>
        <time>2022-06-11T11:59:41Z</time>
      </trkpt>
      <trkpt lat="44.3371" lon="4.52337">
        <ele>270.4</ele>
        <time>2022-06-11T11:59:42Z</time>
      </trkpt>
      <trkpt lat="44.33713" lon="4.52339">
        <ele>270.6</ele>
        <time>2022-06-11T11:59:43Z</time>
      </trkpt>
      <trkpt lat="44.33713" lon="4.5234">
        <ele>270.7</ele>
        <time>2022-06-11T11:59:44Z</time>
      </trkpt>
      <trkpt lat="44.33716" lon="4.52342">
        <ele>270.8</ele>
        <time>2022-06-11T11:59:45Z</time>
      </trkpt>
      <trkpt lat="44.33717" lon="4.52343">
        <ele>270.9</ele>
        <time>2022-06-11T11:59:46Z</time>
      </trkpt>
      <trkpt lat="44.33721" lon="4.52346">
        <ele>271.2</ele>
        <time>2022-06-11T11:59:48Z</time>
      </trkpt>
      <trkpt lat="44.33722" lon="4.52347">
        <ele>271.2</ele>
        <time>2022-06-11T11:59:49Z</time>
      </trkpt>
      <trkpt lat="44.33723" lon="4.52348">
        <ele>271.3</ele>
        <time>2022-06-11T11:59:50Z</time>
      </trkpt>
      <trkpt lat="44.33725" lon="4.52351">
        <ele>271.5</ele>
        <time>2022-06-11T11:59:51Z</time>
      </trkpt>
      <trkpt lat="44.33726" lon="4.52352">
        <ele>271.6</ele>
        <time>2022-06-11T11:59:52Z</time>
      </trkpt>
      <trkpt lat="44.33728" lon="4.52354">
        <ele>271.8</ele>
        <time>2022-06-11T11:59:53Z</time>
      </trkpt>
      <trkpt lat="44.33729" lon="4.52355">
        <ele>271.8</ele>
        <time>2022-06-11T11:59:54Z</time>
      </trkpt>
      <trkpt lat="44.33731" lon="4.52356">
        <ele>271.9</ele>
        <time>2022-06-11T11:59:55Z</time>
      </trkpt>
      <trkpt lat="44.33732" lon="4.52356">
        <ele>272</ele>
        <time>2022-06-11T11:59:56Z</time>
      </trkpt>
      <trkpt lat="44.33734" lon="4.52358">
        <ele>272.1</ele>
        <time>2022-06-11T11:59:57Z</time>
      </trkpt>
      <trkpt lat="44.33734" lon="4.5236">
        <ele>272.2</ele>
        <time>2022-06-11T11:59:58Z</time>
      </trkpt>
      <trkpt lat="44.33737" lon="4.52362">
        <ele>272.4</ele>
        <time>2022-06-11T11:59:59Z</time>
      </trkpt>
      <trkpt lat="44.33738" lon="4.52362">
        <ele>272.4</ele>
        <time>2022-06-11T12:00:00Z</time>
      </trkpt>
      <trkpt lat="44.3374" lon="4.52362">
        <ele>272.5</ele>
        <time>2022-06-11T12:00:01Z</time>
      </trkpt>
      <trkpt lat="44.33741" lon="4.52364">
        <ele>272.6</ele>
        <time>2022-06-11T12:00:02Z</time>
      </trkpt>
      <trkpt lat="44.33743" lon="4.52365">
        <ele>272.7</ele>
        <time>2022-06-11T12:00:03Z</time>
      </trkpt>
      <trkpt lat="44.33746" lon="4.52368">
        <ele>272.9</ele>
        <time>2022-06-11T12:00:05Z</time>
      </trkpt>
      <trkpt lat="44.33748" lon="4.52369">
        <ele>273.1</ele>
        <time>2022-06-11T12:00:06Z</time>
      </trkpt>
      <trkpt lat="44.33751" lon="4.52372">
        <ele>273.3</ele>
        <time>2022-06-11T12:00:08Z</time>
      </trkpt>
      <trkpt lat="44.33753" lon="4.52373">
        <ele>273.4</ele>
        <time>2022-06-11T12:00:09Z</time>
      </trkpt>
      <trkpt lat="44.33754" lon="4.52374">
        <ele>273.5</ele>
        <time>2022-06-11T12:00:10Z</time>
      </trkpt>
      <trkpt lat="44.33757" lon="4.52376">
        <ele>273.7</ele>
        <time>2022-06-11T12:00:11Z</time>
      </trkpt>
      <trkpt lat="44.33757" lon="4.52377">
        <ele>273.7</ele>
        <time>2022-06-11T12:00:12Z</time>
      </trkpt>
      <trkpt lat="44.33759" lon="4.52379">
        <ele>273.8</ele>
        <time>2022-06-11T12:00:13Z</time>
      </trkpt>
      <trkpt lat="44.3376" lon="4.5238">
        <ele>273.9</ele>
        <time>2022-06-11T12:00:14Z</time>
      </trkpt>
      <trkpt lat="44.33762" lon="4.52382">
        <ele>274.1</ele>
        <time>2022-06-11T12:00:15Z</time>
      </trkpt>
      <trkpt lat="44.33763" lon="4.52383">
        <ele>274.1</ele>
        <time>2022-06-11T12:00:16Z</time>
      </trkpt>
      <trkpt lat="44.33764" lon="4.52384">
        <ele>274.2</ele>
        <time>2022-06-11T12:00:17Z</time>
      </trkpt>
      <trkpt lat="44.33766" lon="4.52386">
        <ele>274.3</ele>
        <time>2022-06-11T12:00:18Z</time>
      </trkpt>
      <trkpt lat="44.33769" lon="4.52389">
        <ele>274.5</ele>
        <time>2022-06-11T12:00:19Z</time>
      </trkpt>
      <trkpt lat="44.33771" lon="4.52391">
        <ele>274.7</ele>
        <time>2022-06-11T12:00:21Z</time>
      </trkpt>
      <trkpt lat="44.33772" lon="4.52392">
        <ele>274.8</ele>
        <time>2022-06-11T12:00:22Z</time>
      </trkpt>
      <trkpt lat="44.33774" lon="4.52394">
        <ele>274.9</ele>
        <time>2022-06-11T12:00:23Z</time>
      </trkpt>
      <trkpt lat="44.33775" lon="4.52394">
        <ele>275</ele>
        <time>2022-06-11T12:00:24Z</time>
      </trkpt>
      <trkpt lat="44.33777" lon="4.52396">
        <ele>275.1</ele>
        <time>2022-06-11T12:00:25Z</time>
      </trkpt>
      <trkpt lat="44.33778" lon="4.52397">
        <ele>275.2</ele>
        <time>2022-06-11T12:00:26Z</time>
      </trkpt>
      <trkpt lat="44.3378" lon="4.524">
        <ele>275.4</ele>
        <time>2022-06-11T12:00:27Z</time>
      </trkpt>
      <trkpt lat="44.33781" lon="4.524">
        <ele>275.4</ele>
        <time>2022-06-11T12:00:28Z</time>
      </trkpt>
      <trkpt lat="44.33784" lon="4.52403">
        <ele>275.6</ele>
        <time>2022-06-11T12:00:29Z</time>
      </trkpt>
      <trkpt lat="44.33786" lon="4.52405">
        <ele>275.7</ele>
        <time>2022-06-11T12:00:30Z</time>
      </trkpt>
      <trkpt lat="44.33789" lon="4.52406">
        <ele>275.9</ele>
        <time>2022-06-11T12:00:32Z</time>
      </trkpt>
      <trkpt lat="44.3379" lon="4.52407">
        <ele>276</ele>
        <time>2022-06-11T12:00:33Z</time>
      </trkpt>
      <trkpt lat="44.33791" lon="4.52408">
        <ele>276</ele>
        <time>2022-06-11T12:00:34Z</time>
      </trkpt>
      <trkpt lat="44.33793" lon="4.5241">
        <ele>276.2</ele>
        <time>2022-06-11T12:00:35Z</time>
      </trkpt>
      <trkpt lat="44.33794" lon="4.5241">
        <ele>276.3</ele>
        <time>2022-06-11T12:00:36Z</time>
      </trkpt>
      <trkpt lat="44.33797" lon="4.52412">
        <ele>276.4</ele>
        <time>2022-06-11T12:00:37Z</time>
      </trkpt>
      <trkpt lat="44.33798" lon="4.52413">
        <ele>276.5</ele>
        <time>2022-06-11T12:00:38Z</time>
      </trkpt>
      <trkpt lat="44.33803" lon="4.52417">
        <ele>276.8</ele>
        <time>2022-06-11T12:00:40Z</time>
      </trkpt>
      <trkpt lat="44.33804" lon="4.52419">
        <ele>276.9</ele>
        <time>2022-06-11T12:00:43Z</time>
      </trkpt>
      <trkpt lat="44.33806" lon="4.5242">
        <ele>277.1</ele>
        <time>2022-06-11T12:00:44Z</time>
      </trkpt>
      <trkpt lat="44.33808" lon="4.52422">
        <ele>277.2</ele>
        <time>2022-06-11T12:00:45Z</time>
      </trkpt>
      <trkpt lat="44.33811" lon="4.52424">
        <ele>277.4</ele>
        <time>2022-06-11T12:00:46Z</time>
      </trkpt>
      <trkpt lat="44.33813" lon="4.52427">
        <ele>277.5</ele>
        <time>2022-06-11T12:00:48Z</time>
      </trkpt>
      <trkpt lat="44.33814" lon="4.52428">
        <ele>277.6</ele>
        <time>2022-06-11T12:00:49Z</time>
      </trkpt>
      <trkpt lat="44.33816" lon="4.5243">
        <ele>277.8</ele>
        <time>2022-06-11T12:00:50Z</time>
      </trkpt>
      <trkpt lat="44.33817" lon="4.52431">
        <ele>277.8</ele>
        <time>2022-06-11T12:00:51Z</time>
      </trkpt>
      <trkpt lat="44.33818" lon="4.52432">
        <ele>277.9</ele>
        <time>2022-06-11T12:00:52Z</time>
      </trkpt>
      <trkpt lat="44.3382" lon="4.52433">
        <ele>278</ele>
        <time>2022-06-11T12:00:53Z</time>
      </trkpt>
      <trkpt lat="44.33822" lon="4.52435">
        <ele>278.2</ele>
        <time>2022-06-11T12:00:54Z</time>
      </trkpt>
      <trkpt lat="44.33823" lon="4.52436">
        <ele>278.3</ele>
        <time>2022-06-11T12:00:55Z</time>
      </trkpt>
      <trkpt lat="44.33825" lon="4.52438">
        <ele>278.4</ele>
        <time>2022-06-11T12:00:56Z</time>
      </trkpt>
      <trkpt lat="44.33828" lon="4.5244">
        <ele>278.6</ele>
        <time>2022-06-11T12:00:57Z</time>
      </trkpt>
      <trkpt lat="44.33829" lon="4.52441">
        <ele>278.7</ele>
        <time>2022-06-11T12:00:58Z</time>
      </trkpt>
      <trkpt lat="44.33832" lon="4.52444">
        <ele>278.9</ele>
        <time>2022-06-11T12:01:00Z</time>
      </trkpt>
      <trkpt lat="44.33833" lon="4.52444">
        <ele>279</ele>
        <time>2022-06-11T12:01:01Z</time>
      </trkpt>
      <trkpt lat="44.33835" lon="4.52447">
        <ele>279.1</ele>
        <time>2022-06-11T12:01:02Z</time>
      </trkpt>
      <trkpt lat="44.33836" lon="4.52448">
        <ele>279.2</ele>
        <time>2022-06-11T12:01:03Z</time>
      </trkpt>
      <trkpt lat="44.33838" lon="4.5245">
        <ele>279.4</ele>
        <time>2022-06-11T12:01:04Z</time>
      </trkpt>
      <trkpt lat="44.33839" lon="4.52451">
        <ele>279.5</ele>
        <time>2022-06-11T12:01:05Z</time>
      </trkpt>
      <trkpt lat="44.33841" lon="4.52453">
        <ele>279.6</ele>
        <time>2022-06-11T12:01:06Z</time>
      </trkpt>
      <trkpt lat="44.33842" lon="4.52454">
        <ele>279.7</ele>
        <time>2022-06-11T12:01:07Z</time>
      </trkpt>
      <trkpt lat="44.33844" lon="4.52457">
        <ele>279.9</ele>
        <time>2022-06-11T12:01:08Z</time>
      </trkpt>
      <trkpt lat="44.33845" lon="4.52458">
        <ele>279.9</ele>
        <time>2022-06-11T12:01:09Z</time>
      </trkpt>
      <trkpt lat="44.33847" lon="4.5246">
        <ele>280.1</ele>
        <time>2022-06-11T12:01:10Z</time>
      </trkpt>
      <trkpt lat="44.33848" lon="4.5246">
        <ele>280.2</ele>
        <time>2022-06-11T12:01:11Z</time>
      </trkpt>
      <trkpt lat="44.3385" lon="4.52462">
        <ele>280.3</ele>
        <time>2022-06-11T12:01:12Z</time>
      </trkpt>
      <trkpt lat="44.33851" lon="4.52463">
        <ele>280.4</ele>
        <time>2022-06-11T12:01:13Z</time>
      </trkpt>
      <trkpt lat="44.33852" lon="4.52465">
        <ele>280.5</ele>
        <time>2022-06-11T12:01:14Z</time>
      </trkpt>
      <trkpt lat="44.33855" lon="4.52467">
        <ele>280.7</ele>
        <time>2022-06-11T12:01:15Z</time>
      </trkpt>
      <trkpt lat="44.33857" lon="4.5247">
        <ele>280.9</ele>
        <time>2022-06-11T12:01:17Z</time>
      </trkpt>
      <trkpt lat="44.33858" lon="4.52471">
        <ele>280.9</ele>
        <time>2022-06-11T12:01:18Z</time>
      </trkpt>
      <trkpt lat="44.33859" lon="4.52472">
        <ele>281</ele>
        <time>2022-06-11T12:01:19Z</time>
      </trkpt>
      <trkpt lat="44.33861" lon="4.52475">
        <ele>281.2</ele>
        <time>2022-06-11T12:01:20Z</time>
      </trkpt>
      <trkpt lat="44.33862" lon="4.52476">
        <ele>281.3</ele>
        <time>2022-06-11T12:01:21Z</time>
      </trkpt>
      <trkpt lat="44.33864" lon="4.52479">
        <ele>281.4</ele>
        <time>2022-06-11T12:01:22Z</time>
      </trkpt>
      <trkpt lat="44.33865" lon="4.5248">
        <ele>281.5</ele>
        <time>2022-06-11T12:01:23Z</time>
      </trkpt>
      <trkpt lat="44.33867" lon="4.52483">
        <ele>281.7</ele>
        <time>2022-06-11T12:01:24Z</time>
      </trkpt>
      <trkpt lat="44.33868" lon="4.52484">
        <ele>281.7</ele>
        <time>2022-06-11T12:01:25Z</time>
      </trkpt>
      <trkpt lat="44.33869" lon="4.52485">
        <ele>281.9</ele>
        <time>2022-06-11T12:01:26Z</time>
      </trkpt>
      <trkpt lat="44.3387" lon="4.52487">
        <ele>282</ele>
        <time>2022-06-11T12:01:27Z</time>
      </trkpt>
      <trkpt lat="44.33872" lon="4.52488">
        <ele>282.1</ele>
        <time>2022-06-11T12:01:28Z</time>
      </trkpt>
      <trkpt lat="44.33873" lon="4.5249">
        <ele>282.2</ele>
        <time>2022-06-11T12:01:29Z</time>
      </trkpt>
      <trkpt lat="44.33875" lon="4.52493">
        <ele>282.4</ele>
        <time>2022-06-11T12:01:30Z</time>
      </trkpt>
      <trkpt lat="44.33876" lon="4.52494">
        <ele>282.5</ele>
        <time>2022-06-11T12:01:31Z</time>
      </trkpt>
      <trkpt lat="44.33877" lon="4.52495">
        <ele>282.6</ele>
        <time>2022-06-11T12:01:32Z</time>
      </trkpt>
      <trkpt lat="44.33878" lon="4.52497">
        <ele>282.7</ele>
        <time>2022-06-11T12:01:33Z</time>
      </trkpt>
      <trkpt lat="44.3388" lon="4.525">
        <ele>282.9</ele>
        <time>2022-06-11T12:01:34Z</time>
      </trkpt>
      <trkpt lat="44.33881" lon="4.52501">
        <ele>282.9</ele>
        <time>2022-06-11T12:01:35Z</time>
      </trkpt>
      <trkpt lat="44.33882" lon="4.52502">
        <ele>283</ele>
        <time>2022-06-11T12:01:36Z</time>
      </trkpt>
      <trkpt lat="44.33883" lon="4.52504">
        <ele>283.2</ele>
        <time>2022-06-11T12:01:37Z</time>
      </trkpt>
      <trkpt lat="44.33886" lon="4.52507">
        <ele>283.4</ele>
        <time>2022-06-11T12:01:38Z</time>
      </trkpt>
      <trkpt lat="44.33887" lon="4.52509">
        <ele>283.5</ele>
        <time>2022-06-11T12:01:39Z</time>
      </trkpt>
      <trkpt lat="44.33889" lon="4.52511">
        <ele>283.6</ele>
        <time>2022-06-11T12:01:41Z</time>
      </trkpt>
      <trkpt lat="44.3389" lon="4.52515">
        <ele>283.9</ele>
        <time>2022-06-11T12:01:43Z</time>
      </trkpt>
      <trkpt lat="44.33891" lon="4.52517">
        <ele>283.9</ele>
        <time>2022-06-11T12:01:44Z</time>
      </trkpt>
      <trkpt lat="44.33892" lon="4.52519">
        <ele>284.1</ele>
        <time>2022-06-11T12:01:45Z</time>
      </trkpt>
      <trkpt lat="44.33894" lon="4.52522">
        <ele>284.2</ele>
        <time>2022-06-11T12:01:46Z</time>
      </trkpt>
      <trkpt lat="44.33895" lon="4.52523">
        <ele>284.3</ele>
        <time>2022-06-11T12:01:47Z</time>
      </trkpt>
      <trkpt lat="44.33896" lon="4.52526">
        <ele>284.5</ele>
        <time>2022-06-11T12:01:48Z</time>
      </trkpt>
      <trkpt lat="44.33897" lon="4.52528">
        <ele>284.6</ele>
        <time>2022-06-11T12:01:49Z</time>
      </trkpt>
      <trkpt lat="44.33898" lon="4.5253">
        <ele>284.7</ele>
        <time>2022-06-11T12:01:50Z</time>
      </trkpt>
      <trkpt lat="44.339" lon="4.52535">
        <ele>285</ele>
        <time>2022-06-11T12:01:52Z</time>
      </trkpt>
      <trkpt lat="44.33901" lon="4.52538">
        <ele>285.1</ele>
        <time>2022-06-11T12:01:54Z</time>
      </trkpt>
      <trkpt lat="44.33903" lon="4.52542">
        <ele>285.3</ele>
        <time>2022-06-11T12:01:55Z</time>
      </trkpt>
      <trkpt lat="44.33904" lon="4.52544">
        <ele>285.4</ele>
        <time>2022-06-11T12:01:56Z</time>
      </trkpt>
      <trkpt lat="44.33905" lon="4.52547">
        <ele>285.6</ele>
        <time>2022-06-11T12:01:58Z</time>
      </trkpt>
      <trkpt lat="44.33906" lon="4.52548">
        <ele>285.6</ele>
        <time>2022-06-11T12:01:59Z</time>
      </trkpt>
      <trkpt lat="44.33908" lon="4.52552">
        <ele>285.7</ele>
        <time>2022-06-11T12:02:00Z</time>
      </trkpt>
      <trkpt lat="44.3391" lon="4.52555">
        <ele>285.8</ele>
        <time>2022-06-11T12:02:02Z</time>
      </trkpt>
      <trkpt lat="44.33911" lon="4.52557">
        <ele>285.9</ele>
        <time>2022-06-11T12:02:03Z</time>
      </trkpt>
      <trkpt lat="44.33911" lon="4.52559">
        <ele>285.9</ele>
        <time>2022-06-11T12:02:04Z</time>
      </trkpt>
      <trkpt lat="44.33912" lon="4.52561">
        <ele>286</ele>
        <time>2022-06-11T12:02:05Z</time>
      </trkpt>
      <trkpt lat="44.33913" lon="4.52563">
        <ele>286</ele>
        <time>2022-06-11T12:02:06Z</time>
      </trkpt>
      <trkpt lat="44.33914" lon="4.52565">
        <ele>286.1</ele>
        <time>2022-06-11T12:02:07Z</time>
      </trkpt>
      <trkpt lat="44.33914" lon="4.52568">
        <ele>286.1</ele>
        <time>2022-06-11T12:02:08Z</time>
      </trkpt>
      <trkpt lat="44.33915" lon="4.5257">
        <ele>286.2</ele>
        <time>2022-06-11T12:02:09Z</time>
      </trkpt>
      <trkpt lat="44.33917" lon="4.52575">
        <ele>286.4</ele>
        <time>2022-06-11T12:02:11Z</time>
      </trkpt>
      <trkpt lat="44.33918" lon="4.52577">
        <ele>286.4</ele>
        <time>2022-06-11T12:02:12Z</time>
      </trkpt>
      <trkpt lat="44.33919" lon="4.52579">
        <ele>286.5</ele>
        <time>2022-06-11T12:02:13Z</time>
      </trkpt>
      <trkpt lat="44.3392" lon="4.52583">
        <ele>286.6</ele>
        <time>2022-06-11T12:02:14Z</time>
      </trkpt>
      <trkpt lat="44.33921" lon="4.52584">
        <ele>286.6</ele>
        <time>2022-06-11T12:02:15Z</time>
      </trkpt>
      <trkpt lat="44.33922" lon="4.52589">
        <ele>286.7</ele>
        <time>2022-06-11T12:02:16Z</time>
      </trkpt>
      <trkpt lat="44.33922" lon="4.5259">
        <ele>286.8</ele>
        <time>2022-06-11T12:02:17Z</time>
      </trkpt>
      <trkpt lat="44.33924" lon="4.52594">
        <ele>286.9</ele>
        <time>2022-06-11T12:02:18Z</time>
      </trkpt>
      <trkpt lat="44.33925" lon="4.52595">
        <ele>286.9</ele>
        <time>2022-06-11T12:02:19Z</time>
      </trkpt>
      <trkpt lat="44.33926" lon="4.52599">
        <ele>287</ele>
        <time>2022-06-11T12:02:20Z</time>
      </trkpt>
      <trkpt lat="44.33927" lon="4.526">
        <ele>287</ele>
        <time>2022-06-11T12:02:21Z</time>
      </trkpt>
      <trkpt lat="44.33928" lon="4.52605">
        <ele>287.1</ele>
        <time>2022-06-11T12:02:22Z</time>
      </trkpt>
      <trkpt lat="44.33928" lon="4.52607">
        <ele>287.1</ele>
        <time>2022-06-11T12:02:23Z</time>
      </trkpt>
      <trkpt lat="44.33929" lon="4.52611">
        <ele>287.1</ele>
        <time>2022-06-11T12:02:24Z</time>
      </trkpt>
      <trkpt lat="44.3393" lon="4.52613">
        <ele>287.1</ele>
        <time>2022-06-11T12:02:25Z</time>
      </trkpt>
      <trkpt lat="44.33931" lon="4.52619">
        <ele>287.2</ele>
        <time>2022-06-11T12:02:27Z</time>
      </trkpt>
      <trkpt lat="44.33933" lon="4.52624">
        <ele>287.2</ele>
        <time>2022-06-11T12:02:28Z</time>
      </trkpt>
      <trkpt lat="44.33934" lon="4.52629">
        <ele>287.2</ele>
        <time>2022-06-11T12:02:30Z</time>
      </trkpt>
      <trkpt lat="44.33936" lon="4.52633">
        <ele>287.2</ele>
        <time>2022-06-11T12:02:31Z</time>
      </trkpt>
      <trkpt lat="44.33937" lon="4.52639">
        <ele>287.2</ele>
        <time>2022-06-11T12:02:32Z</time>
      </trkpt>
      <trkpt lat="44.33939" lon="4.52642">
        <ele>287.2</ele>
        <time>2022-06-11T12:02:34Z</time>
      </trkpt>
      <trkpt lat="44.33941" lon="4.52647">
        <ele>287.1</ele>
        <time>2022-06-11T12:02:35Z</time>
      </trkpt>
      <trkpt lat="44.33942" lon="4.52651">
        <ele>287.1</ele>
        <time>2022-06-11T12:02:36Z</time>
      </trkpt>
      <trkpt lat="44.33944" lon="4.52656">
        <ele>287.1</ele>
        <time>2022-06-11T12:02:38Z</time>
      </trkpt>
      <trkpt lat="44.33945" lon="4.52661">
        <ele>287</ele>
        <time>2022-06-11T12:02:39Z</time>
      </trkpt>
      <trkpt lat="44.33947" lon="4.52665">
        <ele>287</ele>
        <time>2022-06-11T12:02:40Z</time>
      </trkpt>
      <trkpt lat="44.33949" lon="4.52671">
        <ele>286.9</ele>
        <time>2022-06-11T12:02:41Z</time>
      </trkpt>
      <trkpt lat="44.3395" lon="4.52676">
        <ele>286.9</ele>
        <time>2022-06-11T12:02:42Z</time>
      </trkpt>
      <trkpt lat="44.33952" lon="4.52683">
        <ele>286.8</ele>
        <time>2022-06-11T12:02:43Z</time>
      </trkpt>
      <trkpt lat="44.33954" lon="4.52688">
        <ele>286.7</ele>
        <time>2022-06-11T12:02:45Z</time>
      </trkpt>
      <trkpt lat="44.33956" lon="4.52693">
        <ele>286.6</ele>
        <time>2022-06-11T12:02:46Z</time>
      </trkpt>
      <trkpt lat="44.33957" lon="4.52699">
        <ele>286.5</ele>
        <time>2022-06-11T12:02:47Z</time>
      </trkpt>
      <trkpt lat="44.33959" lon="4.52704">
        <ele>286.4</ele>
        <time>2022-06-11T12:02:48Z</time>
      </trkpt>
      <trkpt lat="44.3396" lon="4.5271">
        <ele>286.3</ele>
        <time>2022-06-11T12:02:49Z</time>
      </trkpt>
      <trkpt lat="44.33962" lon="4.52715">
        <ele>286.2</ele>
        <time>2022-06-11T12:02:50Z</time>
      </trkpt>
      <trkpt lat="44.33964" lon="4.52721">
        <ele>286.1</ele>
        <time>2022-06-11T12:02:51Z</time>
      </trkpt>
      <trkpt lat="44.33966" lon="4.52728">
        <ele>285.9</ele>
        <time>2022-06-11T12:02:52Z</time>
      </trkpt>
      <trkpt lat="44.33968" lon="4.52734">
        <ele>285.8</ele>
        <time>2022-06-11T12:02:53Z</time>
      </trkpt>
      <trkpt lat="44.3397" lon="4.52739">
        <ele>285.6</ele>
        <time>2022-06-11T12:02:54Z</time>
      </trkpt>
      <trkpt lat="44.33972" lon="4.52745">
        <ele>285.5</ele>
        <time>2022-06-11T12:02:55Z</time>
      </trkpt>
      <trkpt lat="44.33975" lon="4.52751">
        <ele>285.4</ele>
        <time>2022-06-11T12:02:56Z</time>
      </trkpt>
      <trkpt lat="44.33977" lon="4.52757">
        <ele>285.2</ele>
        <time>2022-06-11T12:02:57Z</time>
      </trkpt>
      <trkpt lat="44.33979" lon="4.52763">
        <ele>285.1</ele>
        <time>2022-06-11T12:02:58Z</time>
      </trkpt>
      <trkpt lat="44.33981" lon="4.52769">
        <ele>285</ele>
        <time>2022-06-11T12:02:59Z</time>
      </trkpt>
      <trkpt lat="44.33983" lon="4.52776">
        <ele>284.9</ele>
        <time>2022-06-11T12:03:00Z</time>
      </trkpt>
      <trkpt lat="44.33985" lon="4.52783">
        <ele>284.8</ele>
        <time>2022-06-11T12:03:01Z</time>
      </trkpt>
      <trkpt lat="44.33987" lon="4.5279">
        <ele>284.5</ele>
        <time>2022-06-11T12:03:02Z</time>
      </trkpt>
      <trkpt lat="44.33988" lon="4.52797">
        <ele>284.2</ele>
        <time>2022-06-11T12:03:03Z</time>
      </trkpt>
      <trkpt lat="44.3399" lon="4.52804">
        <ele>283.9</ele>
        <time>2022-06-11T12:03:04Z</time>
      </trkpt>
      <trkpt lat="44.33992" lon="4.52811">
        <ele>283.6</ele>
        <time>2022-06-11T12:03:05Z</time>
      </trkpt>
      <trkpt lat="44.33995" lon="4.52819">
        <ele>283.2</ele>
        <time>2022-06-11T12:03:06Z</time>
      </trkpt>
      <trkpt lat="44.33997" lon="4.52827">
        <ele>282.9</ele>
        <time>2022-06-11T12:03:07Z</time>
      </trkpt>
      <trkpt lat="44.33999" lon="4.52835">
        <ele>282.5</ele>
        <time>2022-06-11T12:03:08Z</time>
      </trkpt>
      <trkpt lat="44.34001" lon="4.52843">
        <ele>282.2</ele>
        <time>2022-06-11T12:03:09Z</time>
      </trkpt>
      <trkpt lat="44.34003" lon="4.52852">
        <ele>281.8</ele>
        <time>2022-06-11T12:03:10Z</time>
      </trkpt>
      <trkpt lat="44.34004" lon="4.52861">
        <ele>281.3</ele>
        <time>2022-06-11T12:03:11Z</time>
      </trkpt>
      <trkpt lat="44.34006" lon="4.5287">
        <ele>280.9</ele>
        <time>2022-06-11T12:03:12Z</time>
      </trkpt>
      <trkpt lat="44.34007" lon="4.52879">
        <ele>280.4</ele>
        <time>2022-06-11T12:03:13Z</time>
      </trkpt>
      <trkpt lat="44.34009" lon="4.52889">
        <ele>279.9</ele>
        <time>2022-06-11T12:03:14Z</time>
      </trkpt>
      <trkpt lat="44.34011" lon="4.52899">
        <ele>279.4</ele>
        <time>2022-06-11T12:03:15Z</time>
      </trkpt>
      <trkpt lat="44.34012" lon="4.5291">
        <ele>278.9</ele>
        <time>2022-06-11T12:03:16Z</time>
      </trkpt>
      <trkpt lat="44.34013" lon="4.5292">
        <ele>278.3</ele>
        <time>2022-06-11T12:03:17Z</time>
      </trkpt>
      <trkpt lat="44.34015" lon="4.52931">
        <ele>277.8</ele>
        <time>2022-06-11T12:03:18Z</time>
      </trkpt>
      <trkpt lat="44.34017" lon="4.52942">
        <ele>277.2</ele>
        <time>2022-06-11T12:03:19Z</time>
      </trkpt>
      <trkpt lat="44.34019" lon="4.52953">
        <ele>276.6</ele>
        <time>2022-06-11T12:03:20Z</time>
      </trkpt>
      <trkpt lat="44.34021" lon="4.52965">
        <ele>275.9</ele>
        <time>2022-06-11T12:03:21Z</time>
      </trkpt>
      <trkpt lat="44.34023" lon="4.52977">
        <ele>275.3</ele>
        <time>2022-06-11T12:03:22Z</time>
      </trkpt>
      <trkpt lat="44.34025" lon="4.52989">
        <ele>274.7</ele>
        <time>2022-06-11T12:03:23Z</time>
      </trkpt>
      <trkpt lat="44.34028" lon="4.53001">
        <ele>274</ele>
        <time>2022-06-11T12:03:24Z</time>
      </trkpt>
      <trkpt lat="44.3403" lon="4.53014">
        <ele>273.3</ele>
        <time>2022-06-11T12:03:25Z</time>
      </trkpt>
      <trkpt lat="44.34033" lon="4.53026">
        <ele>272.6</ele>
        <time>2022-06-11T12:03:26Z</time>
      </trkpt>
      <trkpt lat="44.34035" lon="4.53039">
        <ele>271.8</ele>
        <time>2022-06-11T12:03:27Z</time>
      </trkpt>
      <trkpt lat="44.34037" lon="4.53052">
        <ele>271.1</ele>
        <time>2022-06-11T12:03:28Z</time>
      </trkpt>
      <trkpt lat="44.34039" lon="4.53066">
        <ele>270.3</ele>
        <time>2022-06-11T12:03:29Z</time>
      </trkpt>
      <trkpt lat="44.34041" lon="4.53079">
        <ele>269.6</ele>
        <time>2022-06-11T12:03:30Z</time>
      </trkpt>
      <trkpt lat="44.34044" lon="4.53092">
        <ele>268.9</ele>
        <time>2022-06-11T12:03:31Z</time>
      </trkpt>
      <trkpt lat="44.34047" lon="4.53106">
        <ele>268.2</ele>
        <time>2022-06-11T12:03:32Z</time>
      </trkpt>
      <trkpt lat="44.34049" lon="4.53119">
        <ele>267.5</ele>
        <time>2022-06-11T12:03:33Z</time>
      </trkpt>
      <trkpt lat="44.34051" lon="4.53134">
        <ele>266.9</ele>
        <time>2022-06-11T12:03:34Z</time>
      </trkpt>
      <trkpt lat="44.34054" lon="4.53148">
        <ele>266.3</ele>
        <time>2022-06-11T12:03:35Z</time>
      </trkpt>
      <trkpt lat="44.34056" lon="4.53162">
        <ele>265.7</ele>
        <time>2022-06-11T12:03:36Z</time>
      </trkpt>
      <trkpt lat="44.34058" lon="4.53176">
        <ele>265.2</ele>
        <time>2022-06-11T12:03:37Z</time>
      </trkpt>
      <trkpt lat="44.34061" lon="4.5319">
        <ele>264.8</ele>
        <time>2022-06-11T12:03:38Z</time>
      </trkpt>
      <trkpt lat="44.34063" lon="4.53204">
        <ele>264.5</ele>
        <time>2022-06-11T12:03:39Z</time>
      </trkpt>
      <trkpt lat="44.34065" lon="4.53217">
        <ele>264.2</ele>
        <time>2022-06-11T12:03:40Z</time>
      </trkpt>
      <trkpt lat="44.34067" lon="4.53229">
        <ele>263.9</ele>
        <time>2022-06-11T12:03:41Z</time>
      </trkpt>
      <trkpt lat="44.3407" lon="4.5324">
        <ele>263.8</ele>
        <time>2022-06-11T12:03:42Z</time>
      </trkpt>
      <trkpt lat="44.34071" lon="4.53252">
        <ele>263.6</ele>
        <time>2022-06-11T12:03:43Z</time>
      </trkpt>
      <trkpt lat="44.34073" lon="4.53264">
        <ele>263.4</ele>
        <time>2022-06-11T12:03:44Z</time>
      </trkpt>
      <trkpt lat="44.34075" lon="4.53275">
        <ele>263.3</ele>
        <time>2022-06-11T12:03:45Z</time>
      </trkpt>
      <trkpt lat="44.34077" lon="4.53286">
        <ele>263.1</ele>
        <time>2022-06-11T12:03:46Z</time>
      </trkpt>
      <trkpt lat="44.34078" lon="4.53296">
        <ele>263</ele>
        <time>2022-06-11T12:03:47Z</time>
      </trkpt>
      <trkpt lat="44.3408" lon="4.53306">
        <ele>263</ele>
        <time>2022-06-11T12:03:48Z</time>
      </trkpt>
      <trkpt lat="44.34082" lon="4.53317">
        <ele>262.9</ele>
        <time>2022-06-11T12:03:49Z</time>
      </trkpt>
      <trkpt lat="44.34084" lon="4.53327">
        <ele>262.8</ele>
        <time>2022-06-11T12:03:50Z</time>
      </trkpt>
      <trkpt lat="44.34086" lon="4.53337">
        <ele>262.8</ele>
        <time>2022-06-11T12:03:51Z</time>
      </trkpt>
      <trkpt lat="44.34088" lon="4.53347">
        <ele>262.8</ele>
        <time>2022-06-11T12:03:52Z</time>
      </trkpt>
      <trkpt lat="44.3409" lon="4.53357">
        <ele>262.8</ele>
        <time>2022-06-11T12:03:53Z</time>
      </trkpt>
      <trkpt lat="44.34092" lon="4.53366">
        <ele>262.7</ele>
        <time>2022-06-11T12:03:54Z</time>
      </trkpt>
      <trkpt lat="44.34094" lon="4.53375">
        <ele>262.7</ele>
        <time>2022-06-11T12:03:55Z</time>
      </trkpt>
      <trkpt lat="44.34096" lon="4.53384">
        <ele>262.7</ele>
        <time>2022-06-11T12:03:56Z</time>
      </trkpt>
      <trkpt lat="44.34098" lon="4.53393">
        <ele>262.6</ele>
        <time>2022-06-11T12:03:57Z</time>
      </trkpt>
      <trkpt lat="44.341" lon="4.53401">
        <ele>262.6</ele>
        <time>2022-06-11T12:03:58Z</time>
      </trkpt>
      <trkpt lat="44.34102" lon="4.5341">
        <ele>262.5</ele>
        <time>2022-06-11T12:03:59Z</time>
      </trkpt>
      <trkpt lat="44.34105" lon="4.53418">
        <ele>262.3</ele>
        <time>2022-06-11T12:04:00Z</time>
      </trkpt>
      <trkpt lat="44.34106" lon="4.53426">
        <ele>262.2</ele>
        <time>2022-06-11T12:04:01Z</time>
      </trkpt>
      <trkpt lat="44.34108" lon="4.53435">
        <ele>261.9</ele>
        <time>2022-06-11T12:04:02Z</time>
      </trkpt>
      <trkpt lat="44.3411" lon="4.53444">
        <ele>261.7</ele>
        <time>2022-06-11T12:04:03Z</time>
      </trkpt>
      <trkpt lat="44.34112" lon="4.53452">
        <ele>261.4</ele>
        <time>2022-06-11T12:04:04Z</time>
      </trkpt>
      <trkpt lat="44.34114" lon="4.53461">
        <ele>261</ele>
        <time>2022-06-11T12:04:05Z</time>
      </trkpt>
      <trkpt lat="44.34116" lon="4.53471">
        <ele>260.6</ele>
        <time>2022-06-11T12:04:06Z</time>
      </trkpt>
      <trkpt lat="44.34119" lon="4.5348">
        <ele>260.2</ele>
        <time>2022-06-11T12:04:07Z</time>
      </trkpt>
      <trkpt lat="44.34121" lon="4.5349">
        <ele>259.6</ele>
        <time>2022-06-11T12:04:08Z</time>
      </trkpt>
      <trkpt lat="44.34123" lon="4.53501">
        <ele>259</ele>
        <time>2022-06-11T12:04:09Z</time>
      </trkpt>
      <trkpt lat="44.34126" lon="4.53512">
        <ele>258.3</ele>
        <time>2022-06-11T12:04:10Z</time>
      </trkpt>
      <trkpt lat="44.34129" lon="4.53523">
        <ele>257.5</ele>
        <time>2022-06-11T12:04:11Z</time>
      </trkpt>
      <trkpt lat="44.34131" lon="4.53535">
        <ele>256.7</ele>
        <time>2022-06-11T12:04:12Z</time>
      </trkpt>
      <trkpt lat="44.34134" lon="4.53548">
        <ele>255.9</ele>
        <time>2022-06-11T12:04:13Z</time>
      </trkpt>
      <trkpt lat="44.34137" lon="4.53561">
        <ele>255.1</ele>
        <time>2022-06-11T12:04:14Z</time>
      </trkpt>
      <trkpt lat="44.3414" lon="4.53574">
        <ele>254.4</ele>
        <time>2022-06-11T12:04:15Z</time>
      </trkpt>
      <trkpt lat="44.34143" lon="4.53588">
        <ele>253.7</ele>
        <time>2022-06-11T12:04:16Z</time>
      </trkpt>
      <trkpt lat="44.34145" lon="4.53602">
        <ele>253.1</ele>
        <time>2022-06-11T12:04:17Z</time>
      </trkpt>
      <trkpt lat="44.34146" lon="4.53614">
        <ele>252.7</ele>
        <time>2022-06-11T12:04:18Z</time>
      </trkpt>
      <trkpt lat="44.34147" lon="4.53622">
        <ele>252.5</ele>
        <time>2022-06-11T12:04:19Z</time>
      </trkpt>
      <trkpt lat="44.34149" lon="4.53626">
        <ele>252.3</ele>
        <time>2022-06-11T12:04:20Z</time>
      </trkpt>
      <trkpt lat="44.34149" lon="4.5363">
        <ele>252.2</ele>
        <time>2022-06-11T12:04:21Z</time>
      </trkpt>
      <trkpt lat="44.34149" lon="4.53632">
        <ele>252.1</ele>
        <time>2022-06-11T12:04:22Z</time>
      </trkpt>
      <trkpt lat="44.34152" lon="4.53633">
        <ele>252</ele>
        <time>2022-06-11T12:04:23Z</time>
      </trkpt>
      <trkpt lat="44.34153" lon="4.53633">
        <ele>253.4</ele>
        <time>2022-06-11T12:04:24Z</time>
      </trkpt>
      <trkpt lat="44.34156" lon="4.53634">
        <ele>253.7</ele>
        <time>2022-06-11T12:04:25Z</time>
      </trkpt>
      <trkpt lat="44.34159" lon="4.53633">
        <ele>254.1</ele>
        <time>2022-06-11T12:04:26Z</time>
      </trkpt>
      <trkpt lat="44.3416" lon="4.53633">
        <ele>254.2</ele>
        <time>2022-06-11T12:04:27Z</time>
      </trkpt>
      <trkpt lat="44.34162" lon="4.53631">
        <ele>254.4</ele>
        <time>2022-06-11T12:04:28Z</time>
      </trkpt>
      <trkpt lat="44.34164" lon="4.5363">
        <ele>254.7</ele>
        <time>2022-06-11T12:04:29Z</time>
      </trkpt>
      <trkpt lat="44.34168" lon="4.53629">
        <ele>255.1</ele>
        <time>2022-06-11T12:04:30Z</time>
      </trkpt>
      <trkpt lat="44.34172" lon="4.53626">
        <ele>255.7</ele>
        <time>2022-06-11T12:04:31Z</time>
      </trkpt>
      <trkpt lat="44.34177" lon="4.53623">
        <ele>255.6</ele>
        <time>2022-06-11T12:04:32Z</time>
      </trkpt>
      <trkpt lat="44.3418" lon="4.53619">
        <ele>255.6</ele>
        <time>2022-06-11T12:04:33Z</time>
      </trkpt>
      <trkpt lat="44.34184" lon="4.53615">
        <ele>255.6</ele>
        <time>2022-06-11T12:04:35Z</time>
      </trkpt>
      <trkpt lat="44.34188" lon="4.53612">
        <ele>255.7</ele>
        <time>2022-06-11T12:04:36Z</time>
      </trkpt>
      <trkpt lat="44.34192" lon="4.5361">
        <ele>255.7</ele>
        <time>2022-06-11T12:04:37Z</time>
      </trkpt>
      <trkpt lat="44.34195" lon="4.53608">
        <ele>255.8</ele>
        <time>2022-06-11T12:04:38Z</time>
      </trkpt>
      <trkpt lat="44.34199" lon="4.53605">
        <ele>255.9</ele>
        <time>2022-06-11T12:04:39Z</time>
      </trkpt>
      <trkpt lat="44.34203" lon="4.53604">
        <ele>256.1</ele>
        <time>2022-06-11T12:04:40Z</time>
      </trkpt>
      <trkpt lat="44.34206" lon="4.53604">
        <ele>256.1</ele>
        <time>2022-06-11T12:04:41Z</time>
      </trkpt>
      <trkpt lat="44.3421" lon="4.53605">
        <ele>256</ele>
        <time>2022-06-11T12:04:43Z</time>
      </trkpt>
      <trkpt lat="44.34213" lon="4.53606">
        <ele>256</ele>
        <time>2022-06-11T12:04:44Z</time>
      </trkpt>
      <trkpt lat="44.34214" lon="4.53607">
        <ele>256</ele>
        <time>2022-06-11T12:04:46Z</time>
      </trkpt>
      <trkpt lat="44.34214" lon="4.53607">
        <ele>256</ele>
        <time>2022-06-11T12:04:47Z</time>
      </trkpt>
      <trkpt lat="44.34214" lon="4.53607">
        <ele>256</ele>
        <time>2022-06-11T12:04:48Z</time>
      </trkpt>
      <trkpt lat="44.34214" lon="4.53607">
        <ele>256</ele>
        <time>2022-06-11T12:04:49Z</time>
      </trkpt>
      <trkpt lat="44.34213" lon="4.53607">
        <ele>256</ele>
        <time>2022-06-11T12:04:50Z</time>
      </trkpt>
      <trkpt lat="44.34213" lon="4.53607">
        <ele>256</ele>
        <time>2022-06-11T12:04:51Z</time>
      </trkpt>
      <trkpt lat="44.34213" lon="4.53607">
        <ele>256</ele>
        <time>2022-06-11T12:04:52Z</time>
      </trkpt>
      <trkpt lat="44.34213" lon="4.53606">
        <ele>256</ele>
        <time>2022-06-11T12:04:53Z</time>
      </trkpt>
      <trkpt lat="44.34213" lon="4.53606">
        <ele>256</ele>
        <time>2022-06-11T12:04:54Z</time>
      </trkpt>
      <trkpt lat="44.34213" lon="4.53606">
        <ele>256</ele>
        <time>2022-06-11T12:04:55Z</time>
      </trkpt>
      <trkpt lat="44.34213" lon="4.53606">
        <ele>256</ele>
        <time>2022-06-11T12:04:56Z</time>
      </trkpt>
      <trkpt lat="44.34213" lon="4.53606">
        <ele>256</ele>
        <time>2022-06-11T12:04:57Z</time>
      </trkpt>
      <trkpt lat="44.34211" lon="4.53607">
        <ele>256</ele>
        <time>2022-06-11T12:05:57Z</time>
      </trkpt>
      <trkpt lat="44.34211" lon="4.53607">
        <ele>256</ele>
        <time>2022-06-11T12:05:58Z</time>
      </trkpt>
      <trkpt lat="44.34211" lon="4.53606">
        <ele>256</ele>
        <time>2022-06-11T12:05:59Z</time>
      </trkpt>
      <trkpt lat="44.34212" lon="4.53605">
        <ele>256</ele>
        <time>2022-06-11T12:06:00Z</time>
      </trkpt>
      <trkpt lat="44.34214" lon="4.53605">
        <ele>255.9</ele>
        <time>2022-06-11T12:06:01Z</time>
      </trkpt>
      <trkpt lat="44.34215" lon="4.53604">
        <ele>255.9</ele>
        <time>2022-06-11T12:06:02Z</time>
      </trkpt>
      <trkpt lat="44.34216" lon="4.53604">
        <ele>255.9</ele>
        <time>2022-06-11T12:06:03Z</time>
      </trkpt>
      <trkpt lat="44.34217" lon="4.53604">
        <ele>255.9</ele>
        <time>2022-06-11T12:06:04Z</time>
      </trkpt>
      <trkpt lat="44.34219" lon="4.53602">
        <ele>255.9</ele>
        <time>2022-06-11T12:06:05Z</time>
      </trkpt>
      <trkpt lat="44.34221" lon="4.53601">
        <ele>255.9</ele>
        <time>2022-06-11T12:06:07Z</time>
      </trkpt>
      <trkpt lat="44.34224" lon="4.53601">
        <ele>255.9</ele>
        <time>2022-06-11T12:06:08Z</time>
      </trkpt>
      <trkpt lat="44.34225" lon="4.53601">
        <ele>255.9</ele>
        <time>2022-06-11T12:06:09Z</time>
      </trkpt>
      <trkpt lat="44.34226" lon="4.536">
        <ele>255.9</ele>
        <time>2022-06-11T12:06:10Z</time>
      </trkpt>
      <trkpt lat="44.34226" lon="4.536">
        <ele>255.9</ele>
        <time>2022-06-11T12:06:11Z</time>
      </trkpt>
      <trkpt lat="44.34226" lon="4.536">
        <ele>255.9</ele>
        <time>2022-06-11T12:06:12Z</time>
      </trkpt>
      <trkpt lat="44.34227" lon="4.53599">
        <ele>255.9</ele>
        <time>2022-06-11T12:06:13Z</time>
      </trkpt>
      <trkpt lat="44.34227" lon="4.53599">
        <ele>255.9</ele>
        <time>2022-06-11T12:06:14Z</time>
      </trkpt>
      <trkpt lat="44.34226" lon="4.53599">
        <ele>255.9</ele>
        <time>2022-06-11T12:06:15Z</time>
      </trkpt>
      <trkpt lat="44.34225" lon="4.53599">
        <ele>255.9</ele>
        <time>2022-06-11T12:06:16Z</time>
      </trkpt>
      <trkpt lat="44.34224" lon="4.53599">
        <ele>255.8</ele>
        <time>2022-06-11T12:06:17Z</time>
      </trkpt>
      <trkpt lat="44.34222" lon="4.53599">
        <ele>255.8</ele>
        <time>2022-06-11T12:06:18Z</time>
      </trkpt>
      <trkpt lat="44.34221" lon="4.53598">
        <ele>255.8</ele>
        <time>2022-06-11T12:06:19Z</time>
      </trkpt>
      <trkpt lat="44.34219" lon="4.53597">
        <ele>255.8</ele>
        <time>2022-06-11T12:06:20Z</time>
      </trkpt>
      <trkpt lat="44.34218" lon="4.53596">
        <ele>255.8</ele>
        <time>2022-06-11T12:06:21Z</time>
      </trkpt>
      <trkpt lat="44.34216" lon="4.53595">
        <ele>255.8</ele>
        <time>2022-06-11T12:06:22Z</time>
      </trkpt>
      <trkpt lat="44.34216" lon="4.53593">
        <ele>255.8</ele>
        <time>2022-06-11T12:06:23Z</time>
      </trkpt>
      <trkpt lat="44.34215" lon="4.53591">
        <ele>255.8</ele>
        <time>2022-06-11T12:06:24Z</time>
      </trkpt>
      <trkpt lat="44.34215" lon="4.53589">
        <ele>255.8</ele>
        <time>2022-06-11T12:06:25Z</time>
      </trkpt>
      <trkpt lat="44.34216" lon="4.53586">
        <ele>255.8</ele>
        <time>2022-06-11T12:06:27Z</time>
      </trkpt>
      <trkpt lat="44.34216" lon="4.53584">
        <ele>255.8</ele>
        <time>2022-06-11T12:06:28Z</time>
      </trkpt>
      <trkpt lat="44.34218" lon="4.53584">
        <ele>255.8</ele>
        <time>2022-06-11T12:06:29Z</time>
      </trkpt>
      <trkpt lat="44.34219" lon="4.53584">
        <ele>255.7</ele>
        <time>2022-06-11T12:06:31Z</time>
      </trkpt>
      <trkpt lat="44.3422" lon="4.53585">
        <ele>255.7</ele>
        <time>2022-06-11T12:06:32Z</time>
      </trkpt>
      <trkpt lat="44.34221" lon="4.53585">
        <ele>255.7</ele>
        <time>2022-06-11T12:06:33Z</time>
      </trkpt>
      <trkpt lat="44.34222" lon="4.53585">
        <ele>255.7</ele>
        <time>2022-06-11T12:06:34Z</time>
      </trkpt>
      <trkpt lat="44.34222" lon="4.53585">
        <ele>255.7</ele>
        <time>2022-06-11T12:06:35Z</time>
      </trkpt>
      <trkpt lat="44.34223" lon="4.53586">
        <ele>255.7</ele>
        <time>2022-06-11T12:06:37Z</time>
      </trkpt>
      <trkpt lat="44.34222" lon="4.53587">
        <ele>255.7</ele>
        <time>2022-06-11T12:06:38Z</time>
      </trkpt>
      <trkpt lat="44.34222" lon="4.53588">
        <ele>255.7</ele>
        <time>2022-06-11T12:06:39Z</time>
      </trkpt>
      <trkpt lat="44.34222" lon="4.53589">
        <ele>255.7</ele>
        <time>2022-06-11T12:06:40Z</time>
      </trkpt>
      <trkpt lat="44.34222" lon="4.53589">
        <ele>255.7</ele>
        <time>2022-06-11T12:06:41Z</time>
      </trkpt>
      <trkpt lat="44.34222" lon="4.5359">
        <ele>255.7</ele>
        <time>2022-06-11T12:06:43Z</time>
      </trkpt>
      <trkpt lat="44.34222" lon="4.5359">
        <ele>255.7</ele>
        <time>2022-06-11T12:06:44Z</time>
      </trkpt>
      <trkpt lat="44.34222" lon="4.53591">
        <ele>255.7</ele>
        <time>2022-06-11T12:06:45Z</time>
      </trkpt>
      <trkpt lat="44.34222" lon="4.53591">
        <ele>255.7</ele>
        <time>2022-06-11T12:06:46Z</time>
      </trkpt>
      <trkpt lat="44.34223" lon="4.53592">
        <ele>255.7</ele>
        <time>2022-06-11T12:06:47Z</time>
      </trkpt>
      <trkpt lat="44.34224" lon="4.53592">
        <ele>255.7</ele>
        <time>2022-06-11T12:06:48Z</time>
      </trkpt>
      <trkpt lat="44.34224" lon="4.53592">
        <ele>255.7</ele>
        <time>2022-06-11T12:06:49Z</time>
      </trkpt>
      <trkpt lat="44.34224" lon="4.53592">
        <ele>255.7</ele>
        <time>2022-06-11T12:06:50Z</time>
      </trkpt>
      <trkpt lat="44.34224" lon="4.53592">
        <ele>255.7</ele>
        <time>2022-06-11T12:06:51Z</time>
      </trkpt>
      <trkpt lat="44.34225" lon="4.53592">
        <ele>255.7</ele>
        <time>2022-06-11T12:06:52Z</time>
      </trkpt>
      <trkpt lat="44.34225" lon="4.53592">
        <ele>255.7</ele>
        <time>2022-06-11T12:06:53Z</time>
      </trkpt>
      <trkpt lat="44.34225" lon="4.53587">
        <ele>255.7</ele>
        <time>2022-06-11T12:23:36Z</time>
      </trkpt>
      <trkpt lat="44.34224" lon="4.53586">
        <ele>255.7</ele>
        <time>2022-06-11T12:23:37Z</time>
      </trkpt>
      <trkpt lat="44.34223" lon="4.53586">
        <ele>255.7</ele>
        <time>2022-06-11T12:23:38Z</time>
      </trkpt>
      <trkpt lat="44.34222" lon="4.53586">
        <ele>255.7</ele>
        <time>2022-06-11T12:23:39Z</time>
      </trkpt>
      <trkpt lat="44.34221" lon="4.53586">
        <ele>255.7</ele>
        <time>2022-06-11T12:23:40Z</time>
      </trkpt>
      <trkpt lat="44.34219" lon="4.53587">
        <ele>255.7</ele>
        <time>2022-06-11T12:23:41Z</time>
      </trkpt>
      <trkpt lat="44.34218" lon="4.53589">
        <ele>255.7</ele>
        <time>2022-06-11T12:23:42Z</time>
      </trkpt>
      <trkpt lat="44.34217" lon="4.53591">
        <ele>255.7</ele>
        <time>2022-06-11T12:23:43Z</time>
      </trkpt>
      <trkpt lat="44.34216" lon="4.53592">
        <ele>255.7</ele>
        <time>2022-06-11T12:23:44Z</time>
      </trkpt>
      <trkpt lat="44.34215" lon="4.53594">
        <ele>255.7</ele>
        <time>2022-06-11T12:23:45Z</time>
      </trkpt>
      <trkpt lat="44.34214" lon="4.53596">
        <ele>255.7</ele>
        <time>2022-06-11T12:23:46Z</time>
      </trkpt>
      <trkpt lat="44.34213" lon="4.53597">
        <ele>255.7</ele>
        <time>2022-06-11T12:23:48Z</time>
      </trkpt>
      <trkpt lat="44.34212" lon="4.53601">
        <ele>255.6</ele>
        <time>2022-06-11T12:23:49Z</time>
      </trkpt>
      <trkpt lat="44.34212" lon="4.53604">
        <ele>255.6</ele>
        <time>2022-06-11T12:23:50Z</time>
      </trkpt>
      <trkpt lat="44.34212" lon="4.53605">
        <ele>255.6</ele>
        <time>2022-06-11T12:23:52Z</time>
      </trkpt>
      <trkpt lat="44.34212" lon="4.53607">
        <ele>255.6</ele>
        <time>2022-06-11T12:23:53Z</time>
      </trkpt>
      <trkpt lat="44.34212" lon="4.53609">
        <ele>255.6</ele>
        <time>2022-06-11T12:23:54Z</time>
      </trkpt>
      <trkpt lat="44.34212" lon="4.53611">
        <ele>255.6</ele>
        <time>2022-06-11T12:23:56Z</time>
      </trkpt>
      <trkpt lat="44.34212" lon="4.53611">
        <ele>255.6</ele>
        <time>2022-06-11T12:23:57Z</time>
      </trkpt>
      <trkpt lat="44.34212" lon="4.53611">
        <ele>255.6</ele>
        <time>2022-06-11T12:23:58Z</time>
      </trkpt>
      <trkpt lat="44.34212" lon="4.5361">
        <ele>255.6</ele>
        <time>2022-06-11T12:23:59Z</time>
      </trkpt>
      <trkpt lat="44.34213" lon="4.5361">
        <ele>255.6</ele>
        <time>2022-06-11T12:24:00Z</time>
      </trkpt>
      <trkpt lat="44.34213" lon="4.5361">
        <ele>255.6</ele>
        <time>2022-06-11T12:24:01Z</time>
      </trkpt>
      <trkpt lat="44.34213" lon="4.53609">
        <ele>255.6</ele>
        <time>2022-06-11T12:24:02Z</time>
      </trkpt>
      <trkpt lat="44.34213" lon="4.53609">
        <ele>255.6</ele>
        <time>2022-06-11T12:24:04Z</time>
      </trkpt>
      <trkpt lat="44.34213" lon="4.53609">
        <ele>255.6</ele>
        <time>2022-06-11T12:24:05Z</time>
      </trkpt>
      <trkpt lat="44.34213" lon="4.53609">
        <ele>255.6</ele>
        <time>2022-06-11T12:24:06Z</time>
      </trkpt>
      <trkpt lat="44.34213" lon="4.53609">
        <ele>255.6</ele>
        <time>2022-06-11T12:24:07Z</time>
      </trkpt>
      <trkpt lat="44.34213" lon="4.53609">
        <ele>255.6</ele>
        <time>2022-06-11T12:24:08Z</time>
      </trkpt>
      <trkpt lat="44.34213" lon="4.53609">
        <ele>255.6</ele>
        <time>2022-06-11T12:24:09Z</time>
      </trkpt>
      <trkpt lat="44.34211" lon="4.53604">
        <ele>255.6</ele>
        <time>2022-06-11T12:25:09Z</time>
      </trkpt>
      <trkpt lat="44.34208" lon="4.53605">
        <ele>255.6</ele>
        <time>2022-06-11T12:25:11Z</time>
      </trkpt>
      <trkpt lat="44.34205" lon="4.53606">
        <ele>255.6</ele>
        <time>2022-06-11T12:25:12Z</time>
      </trkpt>
      <trkpt lat="44.34199" lon="4.53608">
        <ele>255.6</ele>
        <time>2022-06-11T12:25:13Z</time>
      </trkpt>
      <trkpt lat="44.34195" lon="4.5361">
        <ele>255.6</ele>
        <time>2022-06-11T12:25:14Z</time>
      </trkpt>
      <trkpt lat="44.34191" lon="4.53612">
        <ele>255.6</ele>
        <time>2022-06-11T12:25:15Z</time>
      </trkpt>
      <trkpt lat="44.34186" lon="4.53613">
        <ele>255.6</ele>
        <time>2022-06-11T12:25:16Z</time>
      </trkpt>
      <trkpt lat="44.34183" lon="4.53614">
        <ele>255.6</ele>
        <time>2022-06-11T12:25:18Z</time>
      </trkpt>
      <trkpt lat="44.34178" lon="4.53617">
        <ele>255.6</ele>
        <time>2022-06-11T12:25:19Z</time>
      </trkpt>
      <trkpt lat="44.34173" lon="4.53621">
        <ele>255.7</ele>
        <time>2022-06-11T12:25:20Z</time>
      </trkpt>
      <trkpt lat="44.34169" lon="4.53625">
        <ele>255.3</ele>
        <time>2022-06-11T12:25:22Z</time>
      </trkpt>
      <trkpt lat="44.34166" lon="4.53628">
        <ele>255</ele>
        <time>2022-06-11T12:25:23Z</time>
      </trkpt>
      <trkpt lat="44.34164" lon="4.53631">
        <ele>254.6</ele>
        <time>2022-06-11T12:25:24Z</time>
      </trkpt>
      <trkpt lat="44.34163" lon="4.53632">
        <ele>254.5</ele>
        <time>2022-06-11T12:25:25Z</time>
      </trkpt>
      <trkpt lat="44.3416" lon="4.53632">
        <ele>254.2</ele>
        <time>2022-06-11T12:25:26Z</time>
      </trkpt>
      <trkpt lat="44.34159" lon="4.53632">
        <ele>254.1</ele>
        <time>2022-06-11T12:25:27Z</time>
      </trkpt>
      <trkpt lat="44.34157" lon="4.53635">
        <ele>253.8</ele>
        <time>2022-06-11T12:25:29Z</time>
      </trkpt>
      <trkpt lat="44.34153" lon="4.53636">
        <ele>253.3</ele>
        <time>2022-06-11T12:25:31Z</time>
      </trkpt>
      <trkpt lat="44.34152" lon="4.53637">
        <ele>253.1</ele>
        <time>2022-06-11T12:25:32Z</time>
      </trkpt>
      <trkpt lat="44.3415" lon="4.53638">
        <ele>252.9</ele>
        <time>2022-06-11T12:25:34Z</time>
      </trkpt>
      <trkpt lat="44.34146" lon="4.5364">
        <ele>252.4</ele>
        <time>2022-06-11T12:25:35Z</time>
      </trkpt>
      <trkpt lat="44.34145" lon="4.5364">
        <ele>252.2</ele>
        <time>2022-06-11T12:25:36Z</time>
      </trkpt>
      <trkpt lat="44.34142" lon="4.53642">
        <ele>251.8</ele>
        <time>2022-06-11T12:25:37Z</time>
      </trkpt>
      <trkpt lat="44.34137" lon="4.53648">
        <ele>251.4</ele>
        <time>2022-06-11T12:25:38Z</time>
      </trkpt>
      <trkpt lat="44.34133" lon="4.53653">
        <ele>251.3</ele>
        <time>2022-06-11T12:25:40Z</time>
      </trkpt>
      <trkpt lat="44.3413" lon="4.53659">
        <ele>251.1</ele>
        <time>2022-06-11T12:25:41Z</time>
      </trkpt>
      <trkpt lat="44.34126" lon="4.53664">
        <ele>250.9</ele>
        <time>2022-06-11T12:25:42Z</time>
      </trkpt>
      <trkpt lat="44.34122" lon="4.53667">
        <ele>250.8</ele>
        <time>2022-06-11T12:25:43Z</time>
      </trkpt>
      <trkpt lat="44.34117" lon="4.5367">
        <ele>250.7</ele>
        <time>2022-06-11T12:25:44Z</time>
      </trkpt>
      <trkpt lat="44.34112" lon="4.53672">
        <ele>250.5</ele>
        <time>2022-06-11T12:25:45Z</time>
      </trkpt>
      <trkpt lat="44.34107" lon="4.53675">
        <ele>250.4</ele>
        <time>2022-06-11T12:25:46Z</time>
      </trkpt>
      <trkpt lat="44.34102" lon="4.53678">
        <ele>250.2</ele>
        <time>2022-06-11T12:25:47Z</time>
      </trkpt>
      <trkpt lat="44.34097" lon="4.5368">
        <ele>250.1</ele>
        <time>2022-06-11T12:25:48Z</time>
      </trkpt>
      <trkpt lat="44.34092" lon="4.53683">
        <ele>250</ele>
        <time>2022-06-11T12:25:49Z</time>
      </trkpt>
      <trkpt lat="44.34086" lon="4.53685">
        <ele>249.8</ele>
        <time>2022-06-11T12:25:50Z</time>
      </trkpt>
      <trkpt lat="44.34081" lon="4.53689">
        <ele>249.7</ele>
        <time>2022-06-11T12:25:51Z</time>
      </trkpt>
      <trkpt lat="44.34075" lon="4.53691">
        <ele>249.6</ele>
        <time>2022-06-11T12:25:52Z</time>
      </trkpt>
      <trkpt lat="44.3407" lon="4.53694">
        <ele>249.5</ele>
        <time>2022-06-11T12:25:53Z</time>
      </trkpt>
      <trkpt lat="44.34064" lon="4.53697">
        <ele>249.4</ele>
        <time>2022-06-11T12:25:54Z</time>
      </trkpt>
      <trkpt lat="44.34059" lon="4.537">
        <ele>249.2</ele>
        <time>2022-06-11T12:25:55Z</time>
      </trkpt>
      <trkpt lat="44.34053" lon="4.53702">
        <ele>249.1</ele>
        <time>2022-06-11T12:25:56Z</time>
      </trkpt>
      <trkpt lat="44.34047" lon="4.53705">
        <ele>249</ele>
        <time>2022-06-11T12:25:57Z</time>
      </trkpt>
      <trkpt lat="44.34041" lon="4.53708">
        <ele>248.9</ele>
        <time>2022-06-11T12:25:58Z</time>
      </trkpt>
      <trkpt lat="44.34035" lon="4.53712">
        <ele>248.7</ele>
        <time>2022-06-11T12:25:59Z</time>
      </trkpt>
      <trkpt lat="44.34029" lon="4.53715">
        <ele>248.6</ele>
        <time>2022-06-11T12:26:00Z</time>
      </trkpt>
      <trkpt lat="44.34023" lon="4.53718">
        <ele>248.5</ele>
        <time>2022-06-11T12:26:01Z</time>
      </trkpt>
      <trkpt lat="44.34016" lon="4.53721">
        <ele>248.4</ele>
        <time>2022-06-11T12:26:02Z</time>
      </trkpt>
      <trkpt lat="44.3401" lon="4.53723">
        <ele>248.3</ele>
        <time>2022-06-11T12:26:03Z</time>
      </trkpt>
      <trkpt lat="44.34004" lon="4.53726">
        <ele>248.2</ele>
        <time>2022-06-11T12:26:04Z</time>
      </trkpt>
      <trkpt lat="44.33998" lon="4.53729">
        <ele>248.1</ele>
        <time>2022-06-11T12:26:05Z</time>
      </trkpt>
      <trkpt lat="44.33992" lon="4.53731">
        <ele>248</ele>
        <time>2022-06-11T12:26:06Z</time>
      </trkpt>
      <trkpt lat="44.33985" lon="4.53734">
        <ele>247.9</ele>
        <time>2022-06-11T12:26:07Z</time>
      </trkpt>
      <trkpt lat="44.33979" lon="4.53736">
        <ele>247.8</ele>
        <time>2022-06-11T12:26:08Z</time>
      </trkpt>
      <trkpt lat="44.33973" lon="4.53737">
        <ele>247.7</ele>
        <time>2022-06-11T12:26:09Z</time>
      </trkpt>
      <trkpt lat="44.33967" lon="4.53739">
        <ele>247.7</ele>
        <time>2022-06-11T12:26:10Z</time>
      </trkpt>
      <trkpt lat="44.3396" lon="4.5374">
        <ele>247.6</ele>
        <time>2022-06-11T12:26:11Z</time>
      </trkpt>
      <trkpt lat="44.33954" lon="4.53741">
        <ele>247.6</ele>
        <time>2022-06-11T12:26:12Z</time>
      </trkpt>
      <trkpt lat="44.33948" lon="4.53742">
        <ele>247.5</ele>
        <time>2022-06-11T12:26:13Z</time>
      </trkpt>
      <trkpt lat="44.33941" lon="4.53742">
        <ele>247.5</ele>
        <time>2022-06-11T12:26:14Z</time>
      </trkpt>
      <trkpt lat="44.33935" lon="4.53742">
        <ele>247.5</ele>
        <time>2022-06-11T12:26:15Z</time>
      </trkpt>
      <trkpt lat="44.33928" lon="4.53743">
        <ele>247.5</ele>
        <time>2022-06-11T12:26:16Z</time>
      </trkpt>
      <trkpt lat="44.33922" lon="4.53744">
        <ele>247.4</ele>
        <time>2022-06-11T12:26:17Z</time>
      </trkpt>
      <trkpt lat="44.33916" lon="4.53745">
        <ele>247.4</ele>
        <time>2022-06-11T12:26:18Z</time>
      </trkpt>
      <trkpt lat="44.3391" lon="4.53745">
        <ele>247.4</ele>
        <time>2022-06-11T12:26:19Z</time>
      </trkpt>
      <trkpt lat="44.33903" lon="4.53746">
        <ele>247.4</ele>
        <time>2022-06-11T12:26:20Z</time>
      </trkpt>
      <trkpt lat="44.33897" lon="4.53746">
        <ele>247.4</ele>
        <time>2022-06-11T12:26:21Z</time>
      </trkpt>
      <trkpt lat="44.33891" lon="4.53746">
        <ele>247.4</ele>
        <time>2022-06-11T12:26:22Z</time>
      </trkpt>
      <trkpt lat="44.33884" lon="4.53747">
        <ele>247.4</ele>
        <time>2022-06-11T12:26:23Z</time>
      </trkpt>
      <trkpt lat="44.33878" lon="4.53747">
        <ele>247.4</ele>
        <time>2022-06-11T12:26:24Z</time>
      </trkpt>
      <trkpt lat="44.33872" lon="4.53748">
        <ele>247.4</ele>
        <time>2022-06-11T12:26:25Z</time>
      </trkpt>
      <trkpt lat="44.33865" lon="4.53748">
        <ele>247.3</ele>
        <time>2022-06-11T12:26:26Z</time>
      </trkpt>
      <trkpt lat="44.33858" lon="4.53748">
        <ele>247.3</ele>
        <time>2022-06-11T12:26:27Z</time>
      </trkpt>
      <trkpt lat="44.33852" lon="4.53749">
        <ele>247.2</ele>
        <time>2022-06-11T12:26:28Z</time>
      </trkpt>
      <trkpt lat="44.33845" lon="4.53749">
        <ele>247.2</ele>
        <time>2022-06-11T12:26:29Z</time>
      </trkpt>
      <trkpt lat="44.33839" lon="4.5375">
        <ele>247.2</ele>
        <time>2022-06-11T12:26:30Z</time>
      </trkpt>
      <trkpt lat="44.33832" lon="4.5375">
        <ele>247.1</ele>
        <time>2022-06-11T12:26:31Z</time>
      </trkpt>
      <trkpt lat="44.33826" lon="4.53751">
        <ele>247.1</ele>
        <time>2022-06-11T12:26:32Z</time>
      </trkpt>
      <trkpt lat="44.33819" lon="4.53751">
        <ele>247</ele>
        <time>2022-06-11T12:26:33Z</time>
      </trkpt>
      <trkpt lat="44.33813" lon="4.53751">
        <ele>247</ele>
        <time>2022-06-11T12:26:34Z</time>
      </trkpt>
      <trkpt lat="44.33807" lon="4.53752">
        <ele>246.9</ele>
        <time>2022-06-11T12:26:35Z</time>
      </trkpt>
      <trkpt lat="44.338" lon="4.53752">
        <ele>246.8</ele>
        <time>2022-06-11T12:26:36Z</time>
      </trkpt>
      <trkpt lat="44.33794" lon="4.53753">
        <ele>246.8</ele>
        <time>2022-06-11T12:26:37Z</time>
      </trkpt>
      <trkpt lat="44.33787" lon="4.53753">
        <ele>246.7</ele>
        <time>2022-06-11T12:26:38Z</time>
      </trkpt>
      <trkpt lat="44.33781" lon="4.53754">
        <ele>246.7</ele>
        <time>2022-06-11T12:26:39Z</time>
      </trkpt>
      <trkpt lat="44.33774" lon="4.53754">
        <ele>246.6</ele>
        <time>2022-06-11T12:26:40Z</time>
      </trkpt>
      <trkpt lat="44.33768" lon="4.53755">
        <ele>246.6</ele>
        <time>2022-06-11T12:26:41Z</time>
      </trkpt>
      <trkpt lat="44.33762" lon="4.53755">
        <ele>246.5</ele>
        <time>2022-06-11T12:26:42Z</time>
      </trkpt>
      <trkpt lat="44.33756" lon="4.53756">
        <ele>246.5</ele>
        <time>2022-06-11T12:26:43Z</time>
      </trkpt>
      <trkpt lat="44.33749" lon="4.53757">
        <ele>246.4</ele>
        <time>2022-06-11T12:26:44Z</time>
      </trkpt>
      <trkpt lat="44.33743" lon="4.53757">
        <ele>246.4</ele>
        <time>2022-06-11T12:26:45Z</time>
      </trkpt>
      <trkpt lat="44.33737" lon="4.53757">
        <ele>246.3</ele>
        <time>2022-06-11T12:26:46Z</time>
      </trkpt>
      <trkpt lat="44.33731" lon="4.53758">
        <ele>246.3</ele>
        <time>2022-06-11T12:26:47Z</time>
      </trkpt>
      <trkpt lat="44.33724" lon="4.53759">
        <ele>246.2</ele>
        <time>2022-06-11T12:26:48Z</time>
      </trkpt>
      <trkpt lat="44.33718" lon="4.53759">
        <ele>246.2</ele>
        <time>2022-06-11T12:26:49Z</time>
      </trkpt>
      <trkpt lat="44.33712" lon="4.5376">
        <ele>246.2</ele>
        <time>2022-06-11T12:26:50Z</time>
      </trkpt>
      <trkpt lat="44.33706" lon="4.5376">
        <ele>246.1</ele>
        <time>2022-06-11T12:26:51Z</time>
      </trkpt>
      <trkpt lat="44.337" lon="4.53761">
        <ele>246.1</ele>
        <time>2022-06-11T12:26:52Z</time>
      </trkpt>
      <trkpt lat="44.33693" lon="4.53761">
        <ele>246.1</ele>
        <time>2022-06-11T12:26:53Z</time>
      </trkpt>
      <trkpt lat="44.33687" lon="4.53761">
        <ele>246</ele>
        <time>2022-06-11T12:26:54Z</time>
      </trkpt>
      <trkpt lat="44.33681" lon="4.53762">
        <ele>246</ele>
        <time>2022-06-11T12:26:55Z</time>
      </trkpt>
      <trkpt lat="44.33675" lon="4.53762">
        <ele>245.9</ele>
        <time>2022-06-11T12:26:56Z</time>
      </trkpt>
      <trkpt lat="44.33669" lon="4.53763">
        <ele>245.9</ele>
        <time>2022-06-11T12:26:57Z</time>
      </trkpt>
      <trkpt lat="44.33662" lon="4.53763">
        <ele>245.8</ele>
        <time>2022-06-11T12:26:58Z</time>
      </trkpt>
      <trkpt lat="44.33656" lon="4.53764">
        <ele>245.8</ele>
        <time>2022-06-11T12:26:59Z</time>
      </trkpt>
      <trkpt lat="44.3365" lon="4.53764">
        <ele>245.7</ele>
        <time>2022-06-11T12:27:00Z</time>
      </trkpt>
      <trkpt lat="44.33644" lon="4.53765">
        <ele>245.7</ele>
        <time>2022-06-11T12:27:01Z</time>
      </trkpt>
      <trkpt lat="44.33638" lon="4.53765">
        <ele>245.6</ele>
        <time>2022-06-11T12:27:02Z</time>
      </trkpt>
      <trkpt lat="44.33631" lon="4.53766">
        <ele>245.6</ele>
        <time>2022-06-11T12:27:03Z</time>
      </trkpt>
      <trkpt lat="44.33625" lon="4.53766">
        <ele>245.6</ele>
        <time>2022-06-11T12:27:04Z</time>
      </trkpt>
      <trkpt lat="44.33619" lon="4.53767">
        <ele>245.6</ele>
        <time>2022-06-11T12:27:05Z</time>
      </trkpt>
      <trkpt lat="44.33612" lon="4.53767">
        <ele>245.6</ele>
        <time>2022-06-11T12:27:06Z</time>
      </trkpt>
      <trkpt lat="44.33606" lon="4.53768">
        <ele>245.5</ele>
        <time>2022-06-11T12:27:07Z</time>
      </trkpt>
      <trkpt lat="44.336" lon="4.53768">
        <ele>245.5</ele>
        <time>2022-06-11T12:27:08Z</time>
      </trkpt>
      <trkpt lat="44.33593" lon="4.53769">
        <ele>245.5</ele>
        <time>2022-06-11T12:27:09Z</time>
      </trkpt>
      <trkpt lat="44.33587" lon="4.53769">
        <ele>245.4</ele>
        <time>2022-06-11T12:27:10Z</time>
      </trkpt>
      <trkpt lat="44.33581" lon="4.53769">
        <ele>245.4</ele>
        <time>2022-06-11T12:27:11Z</time>
      </trkpt>
      <trkpt lat="44.33575" lon="4.5377">
        <ele>245.4</ele>
        <time>2022-06-11T12:27:12Z</time>
      </trkpt>
      <trkpt lat="44.33569" lon="4.5377">
        <ele>245.3</ele>
        <time>2022-06-11T12:27:13Z</time>
      </trkpt>
      <trkpt lat="44.33563" lon="4.53771">
        <ele>245.3</ele>
        <time>2022-06-11T12:27:14Z</time>
      </trkpt>
      <trkpt lat="44.33557" lon="4.53771">
        <ele>245.2</ele>
        <time>2022-06-11T12:27:15Z</time>
      </trkpt>
      <trkpt lat="44.3355" lon="4.53772">
        <ele>245.2</ele>
        <time>2022-06-11T12:27:16Z</time>
      </trkpt>
      <trkpt lat="44.33544" lon="4.53772">
        <ele>245.1</ele>
        <time>2022-06-11T12:27:17Z</time>
      </trkpt>
      <trkpt lat="44.33538" lon="4.53772">
        <ele>245.1</ele>
        <time>2022-06-11T12:27:18Z</time>
      </trkpt>
      <trkpt lat="44.33531" lon="4.53772">
        <ele>245</ele>
        <time>2022-06-11T12:27:19Z</time>
      </trkpt>
      <trkpt lat="44.33525" lon="4.53773">
        <ele>245</ele>
        <time>2022-06-11T12:27:20Z</time>
      </trkpt>
      <trkpt lat="44.33519" lon="4.53773">
        <ele>244.9</ele>
        <time>2022-06-11T12:27:21Z</time>
      </trkpt>
      <trkpt lat="44.33512" lon="4.53774">
        <ele>244.9</ele>
        <time>2022-06-11T12:27:22Z</time>
      </trkpt>
      <trkpt lat="44.33506" lon="4.53775">
        <ele>244.8</ele>
        <time>2022-06-11T12:27:23Z</time>
      </trkpt>
      <trkpt lat="44.335" lon="4.53775">
        <ele>244.8</ele>
        <time>2022-06-11T12:27:24Z</time>
      </trkpt>
      <trkpt lat="44.33494" lon="4.53776">
        <ele>244.7</ele>
        <time>2022-06-11T12:27:25Z</time>
      </trkpt>
      <trkpt lat="44.33487" lon="4.53778">
        <ele>244.6</ele>
        <time>2022-06-11T12:27:26Z</time>
      </trkpt>
      <trkpt lat="44.33481" lon="4.53779">
        <ele>244.5</ele>
        <time>2022-06-11T12:27:27Z</time>
      </trkpt>
      <trkpt lat="44.33475" lon="4.5378">
        <ele>244.3</ele>
        <time>2022-06-11T12:27:28Z</time>
      </trkpt>
      <trkpt lat="44.33469" lon="4.53782">
        <ele>244.2</ele>
        <time>2022-06-11T12:27:29Z</time>
      </trkpt>
      <trkpt lat="44.33463" lon="4.53783">
        <ele>244.1</ele>
        <time>2022-06-11T12:27:30Z</time>
      </trkpt>
      <trkpt lat="44.33457" lon="4.53785">
        <ele>243.9</ele>
        <time>2022-06-11T12:27:31Z</time>
      </trkpt>
      <trkpt lat="44.33451" lon="4.53787">
        <ele>243.8</ele>
        <time>2022-06-11T12:27:32Z</time>
      </trkpt>
      <trkpt lat="44.33444" lon="4.53789">
        <ele>243.6</ele>
        <time>2022-06-11T12:27:33Z</time>
      </trkpt>
      <trkpt lat="44.33437" lon="4.53791">
        <ele>243.4</ele>
        <time>2022-06-11T12:27:34Z</time>
      </trkpt>
      <trkpt lat="44.33431" lon="4.53793">
        <ele>243.2</ele>
        <time>2022-06-11T12:27:35Z</time>
      </trkpt>
      <trkpt lat="44.33424" lon="4.53796">
        <ele>243</ele>
        <time>2022-06-11T12:27:36Z</time>
      </trkpt>
      <trkpt lat="44.33418" lon="4.53799">
        <ele>242.7</ele>
        <time>2022-06-11T12:27:37Z</time>
      </trkpt>
      <trkpt lat="44.33411" lon="4.53802">
        <ele>242.5</ele>
        <time>2022-06-11T12:27:38Z</time>
      </trkpt>
      <trkpt lat="44.33404" lon="4.53805">
        <ele>242.2</ele>
        <time>2022-06-11T12:27:39Z</time>
      </trkpt>
      <trkpt lat="44.33397" lon="4.53809">
        <ele>241.9</ele>
        <time>2022-06-11T12:27:40Z</time>
      </trkpt>
      <trkpt lat="44.3339" lon="4.53812">
        <ele>241.6</ele>
        <time>2022-06-11T12:27:41Z</time>
      </trkpt>
      <trkpt lat="44.33382" lon="4.53816">
        <ele>241.3</ele>
        <time>2022-06-11T12:27:42Z</time>
      </trkpt>
      <trkpt lat="44.33375" lon="4.53819">
        <ele>241</ele>
        <time>2022-06-11T12:27:43Z</time>
      </trkpt>
      <trkpt lat="44.33367" lon="4.53823">
        <ele>240.7</ele>
        <time>2022-06-11T12:27:44Z</time>
      </trkpt>
      <trkpt lat="44.3336" lon="4.53826">
        <ele>240.4</ele>
        <time>2022-06-11T12:27:45Z</time>
      </trkpt>
      <trkpt lat="44.33352" lon="4.5383">
        <ele>240.3</ele>
        <time>2022-06-11T12:27:46Z</time>
      </trkpt>
      <trkpt lat="44.33345" lon="4.53834">
        <ele>240.1</ele>
        <time>2022-06-11T12:27:47Z</time>
      </trkpt>
      <trkpt lat="44.33337" lon="4.53837">
        <ele>239.7</ele>
        <time>2022-06-11T12:27:48Z</time>
      </trkpt>
      <trkpt lat="44.33329" lon="4.53841">
        <ele>239.4</ele>
        <time>2022-06-11T12:27:49Z</time>
      </trkpt>
      <trkpt lat="44.33321" lon="4.53844">
        <ele>239.1</ele>
        <time>2022-06-11T12:27:50Z</time>
      </trkpt>
      <trkpt lat="44.33313" lon="4.53848">
        <ele>238.8</ele>
        <time>2022-06-11T12:27:51Z</time>
      </trkpt>
      <trkpt lat="44.33305" lon="4.53852">
        <ele>238.4</ele>
        <time>2022-06-11T12:27:52Z</time>
      </trkpt>
      <trkpt lat="44.33298" lon="4.53855">
        <ele>238.1</ele>
        <time>2022-06-11T12:27:53Z</time>
      </trkpt>
      <trkpt lat="44.3329" lon="4.53859">
        <ele>237.7</ele>
        <time>2022-06-11T12:27:54Z</time>
      </trkpt>
      <trkpt lat="44.33282" lon="4.53862">
        <ele>237.4</ele>
        <time>2022-06-11T12:27:55Z</time>
      </trkpt>
      <trkpt lat="44.33274" lon="4.53866">
        <ele>237</ele>
        <time>2022-06-11T12:27:56Z</time>
      </trkpt>
      <trkpt lat="44.33266" lon="4.5387">
        <ele>236.5</ele>
        <time>2022-06-11T12:27:57Z</time>
      </trkpt>
      <trkpt lat="44.33258" lon="4.53874">
        <ele>236.1</ele>
        <time>2022-06-11T12:27:58Z</time>
      </trkpt>
      <trkpt lat="44.3325" lon="4.53877">
        <ele>235.6</ele>
        <time>2022-06-11T12:27:59Z</time>
      </trkpt>
      <trkpt lat="44.33241" lon="4.53881">
        <ele>235.1</ele>
        <time>2022-06-11T12:28:00Z</time>
      </trkpt>
      <trkpt lat="44.33233" lon="4.53884">
        <ele>234.5</ele>
        <time>2022-06-11T12:28:01Z</time>
      </trkpt>
      <trkpt lat="44.33225" lon="4.53888">
        <ele>234</ele>
        <time>2022-06-11T12:28:02Z</time>
      </trkpt>
      <trkpt lat="44.33216" lon="4.53892">
        <ele>233.4</ele>
        <time>2022-06-11T12:28:03Z</time>
      </trkpt>
      <trkpt lat="44.33207" lon="4.53896">
        <ele>232.8</ele>
        <time>2022-06-11T12:28:04Z</time>
      </trkpt>
      <trkpt lat="44.33198" lon="4.539">
        <ele>232.2</ele>
        <time>2022-06-11T12:28:05Z</time>
      </trkpt>
      <trkpt lat="44.33189" lon="4.53904">
        <ele>231.5</ele>
        <time>2022-06-11T12:28:06Z</time>
      </trkpt>
      <trkpt lat="44.33179" lon="4.53908">
        <ele>230.8</ele>
        <time>2022-06-11T12:28:07Z</time>
      </trkpt>
      <trkpt lat="44.33169" lon="4.53912">
        <ele>230.1</ele>
        <time>2022-06-11T12:28:08Z</time>
      </trkpt>
      <trkpt lat="44.3316" lon="4.53917">
        <ele>229.5</ele>
        <time>2022-06-11T12:28:09Z</time>
      </trkpt>
      <trkpt lat="44.3315" lon="4.53921">
        <ele>228.8</ele>
        <time>2022-06-11T12:28:10Z</time>
      </trkpt>
      <trkpt lat="44.3314" lon="4.53925">
        <ele>228.1</ele>
        <time>2022-06-11T12:28:11Z</time>
      </trkpt>
      <trkpt lat="44.3313" lon="4.5393">
        <ele>227.4</ele>
        <time>2022-06-11T12:28:12Z</time>
      </trkpt>
      <trkpt lat="44.33119" lon="4.53934">
        <ele>226.7</ele>
        <time>2022-06-11T12:28:13Z</time>
      </trkpt>
      <trkpt lat="44.33109" lon="4.53939">
        <ele>226</ele>
        <time>2022-06-11T12:28:14Z</time>
      </trkpt>
      <trkpt lat="44.33098" lon="4.53943">
        <ele>225.3</ele>
        <time>2022-06-11T12:28:15Z</time>
      </trkpt>
      <trkpt lat="44.33088" lon="4.53948">
        <ele>224.6</ele>
        <time>2022-06-11T12:28:16Z</time>
      </trkpt>
      <trkpt lat="44.33078" lon="4.53953">
        <ele>223.8</ele>
        <time>2022-06-11T12:28:17Z</time>
      </trkpt>
      <trkpt lat="44.33067" lon="4.53957">
        <ele>223.1</ele>
        <time>2022-06-11T12:28:18Z</time>
      </trkpt>
      <trkpt lat="44.33057" lon="4.53962">
        <ele>222.4</ele>
        <time>2022-06-11T12:28:19Z</time>
      </trkpt>
      <trkpt lat="44.33047" lon="4.53967">
        <ele>221.6</ele>
        <time>2022-06-11T12:28:20Z</time>
      </trkpt>
      <trkpt lat="44.33036" lon="4.53971">
        <ele>220.9</ele>
        <time>2022-06-11T12:28:21Z</time>
      </trkpt>
      <trkpt lat="44.33026" lon="4.53975">
        <ele>220.2</ele>
        <time>2022-06-11T12:28:22Z</time>
      </trkpt>
      <trkpt lat="44.33015" lon="4.5398">
        <ele>219.4</ele>
        <time>2022-06-11T12:28:23Z</time>
      </trkpt>
      <trkpt lat="44.33005" lon="4.53984">
        <ele>218.8</ele>
        <time>2022-06-11T12:28:24Z</time>
      </trkpt>
      <trkpt lat="44.32994" lon="4.53988">
        <ele>218.1</ele>
        <time>2022-06-11T12:28:25Z</time>
      </trkpt>
      <trkpt lat="44.32983" lon="4.53991">
        <ele>217.5</ele>
        <time>2022-06-11T12:28:26Z</time>
      </trkpt>
      <trkpt lat="44.32973" lon="4.53995">
        <ele>216.9</ele>
        <time>2022-06-11T12:28:27Z</time>
      </trkpt>
      <trkpt lat="44.32963" lon="4.53999">
        <ele>216.3</ele>
        <time>2022-06-11T12:28:28Z</time>
      </trkpt>
      <trkpt lat="44.32954" lon="4.54003">
        <ele>215.8</ele>
        <time>2022-06-11T12:28:29Z</time>
      </trkpt>
      <trkpt lat="44.32945" lon="4.54007">
        <ele>215.3</ele>
        <time>2022-06-11T12:28:30Z</time>
      </trkpt>
      <trkpt lat="44.32937" lon="4.54012">
        <ele>214.8</ele>
        <time>2022-06-11T12:28:31Z</time>
      </trkpt>
      <trkpt lat="44.32929" lon="4.54016">
        <ele>214.4</ele>
        <time>2022-06-11T12:28:32Z</time>
      </trkpt>
      <trkpt lat="44.32922" lon="4.54022">
        <ele>214.1</ele>
        <time>2022-06-11T12:28:33Z</time>
      </trkpt>
      <trkpt lat="44.32915" lon="4.54029">
        <ele>213.7</ele>
        <time>2022-06-11T12:28:34Z</time>
      </trkpt>
      <trkpt lat="44.3291" lon="4.54037">
        <ele>213.4</ele>
        <time>2022-06-11T12:28:35Z</time>
      </trkpt>
      <trkpt lat="44.32906" lon="4.54045">
        <ele>213.2</ele>
        <time>2022-06-11T12:28:36Z</time>
      </trkpt>
      <trkpt lat="44.32904" lon="4.54052">
        <ele>213</ele>
        <time>2022-06-11T12:28:37Z</time>
      </trkpt>
      <trkpt lat="44.32901" lon="4.54056">
        <ele>212.8</ele>
        <time>2022-06-11T12:28:38Z</time>
      </trkpt>
      <trkpt lat="44.32898" lon="4.54057">
        <ele>212.7</ele>
        <time>2022-06-11T12:28:39Z</time>
      </trkpt>
      <trkpt lat="44.32896" lon="4.54057">
        <ele>212.7</ele>
        <time>2022-06-11T12:28:40Z</time>
      </trkpt>
      <trkpt lat="44.32895" lon="4.54055">
        <ele>212.6</ele>
        <time>2022-06-11T12:28:41Z</time>
      </trkpt>
      <trkpt lat="44.32893" lon="4.54054">
        <ele>212.5</ele>
        <time>2022-06-11T12:28:42Z</time>
      </trkpt>
      <trkpt lat="44.32892" lon="4.54054">
        <ele>212.5</ele>
        <time>2022-06-11T12:28:43Z</time>
      </trkpt>
      <trkpt lat="44.32892" lon="4.54054">
        <ele>212.4</ele>
        <time>2022-06-11T12:28:44Z</time>
      </trkpt>
      <trkpt lat="44.32892" lon="4.54054">
        <ele>212.4</ele>
        <time>2022-06-11T12:28:45Z</time>
      </trkpt>
      <trkpt lat="44.32892" lon="4.54054">
        <ele>212.4</ele>
        <time>2022-06-11T12:28:46Z</time>
      </trkpt>
      <trkpt lat="44.32892" lon="4.54054">
        <ele>212.4</ele>
        <time>2022-06-11T12:28:47Z</time>
      </trkpt>
      <trkpt lat="44.32892" lon="4.54054">
        <ele>212.4</ele>
        <time>2022-06-11T12:28:48Z</time>
      </trkpt>
      <trkpt lat="44.32893" lon="4.54054">
        <ele>212.4</ele>
        <time>2022-06-11T12:28:49Z</time>
      </trkpt>
      <trkpt lat="44.32893" lon="4.54054">
        <ele>212.3</ele>
        <time>2022-06-11T12:28:50Z</time>
      </trkpt>
      <trkpt lat="44.32893" lon="4.54054">
        <ele>212.3</ele>
        <time>2022-06-11T12:28:51Z</time>
      </trkpt>
      <trkpt lat="44.32893" lon="4.54054">
        <ele>212.3</ele>
        <time>2022-06-11T12:28:52Z</time>
      </trkpt>
      <trkpt lat="44.32893" lon="4.54054">
        <ele>212.3</ele>
        <time>2022-06-11T12:28:53Z</time>
      </trkpt>
      <trkpt lat="44.32893" lon="4.54054">
        <ele>212.3</ele>
        <time>2022-06-11T12:28:54Z</time>
      </trkpt>
      <trkpt lat="44.32893" lon="4.54054">
        <ele>212.3</ele>
        <time>2022-06-11T12:28:55Z</time>
      </trkpt>
      <trkpt lat="44.32896" lon="4.54056">
        <ele>212.2</ele>
        <time>2022-06-11T12:29:36Z</time>
      </trkpt>
      <trkpt lat="44.32897" lon="4.54057">
        <ele>212.1</ele>
        <time>2022-06-11T12:29:37Z</time>
      </trkpt>
      <trkpt lat="44.32898" lon="4.54058">
        <ele>212</ele>
        <time>2022-06-11T12:29:38Z</time>
      </trkpt>
      <trkpt lat="44.32901" lon="4.5406">
        <ele>211.9</ele>
        <time>2022-06-11T12:29:39Z</time>
      </trkpt>
      <trkpt lat="44.32902" lon="4.5406">
        <ele>211.8</ele>
        <time>2022-06-11T12:29:40Z</time>
      </trkpt>
      <trkpt lat="44.32903" lon="4.54064">
        <ele>211.6</ele>
        <time>2022-06-11T12:29:41Z</time>
      </trkpt>
      <trkpt lat="44.32903" lon="4.54069">
        <ele>211.4</ele>
        <time>2022-06-11T12:29:42Z</time>
      </trkpt>
      <trkpt lat="44.32904" lon="4.54075">
        <ele>211.1</ele>
        <time>2022-06-11T12:29:43Z</time>
      </trkpt>
      <trkpt lat="44.32904" lon="4.54077">
        <ele>211</ele>
        <time>2022-06-11T12:29:44Z</time>
      </trkpt>
      <trkpt lat="44.32903" lon="4.54082">
        <ele>210.8</ele>
        <time>2022-06-11T12:29:45Z</time>
      </trkpt>
      <trkpt lat="44.32904" lon="4.54086">
        <ele>210.5</ele>
        <time>2022-06-11T12:29:46Z</time>
      </trkpt>
      <trkpt lat="44.32905" lon="4.54092">
        <ele>210.2</ele>
        <time>2022-06-11T12:29:47Z</time>
      </trkpt>
      <trkpt lat="44.32907" lon="4.54097">
        <ele>209.9</ele>
        <time>2022-06-11T12:29:48Z</time>
      </trkpt>
      <trkpt lat="44.32909" lon="4.54102">
        <ele>209.6</ele>
        <time>2022-06-11T12:29:49Z</time>
      </trkpt>
      <trkpt lat="44.32912" lon="4.54106">
        <ele>209.3</ele>
        <time>2022-06-11T12:29:50Z</time>
      </trkpt>
      <trkpt lat="44.32915" lon="4.5411">
        <ele>208.9</ele>
        <time>2022-06-11T12:29:51Z</time>
      </trkpt>
      <trkpt lat="44.32919" lon="4.54114">
        <ele>208.5</ele>
        <time>2022-06-11T12:29:52Z</time>
      </trkpt>
      <trkpt lat="44.32924" lon="4.54118">
        <ele>208</ele>
        <time>2022-06-11T12:29:53Z</time>
      </trkpt>
      <trkpt lat="44.32929" lon="4.54122">
        <ele>207.6</ele>
        <time>2022-06-11T12:29:54Z</time>
      </trkpt>
      <trkpt lat="44.32934" lon="4.54124">
        <ele>207.1</ele>
        <time>2022-06-11T12:29:55Z</time>
      </trkpt>
      <trkpt lat="44.32939" lon="4.54127">
        <ele>206.7</ele>
        <time>2022-06-11T12:29:56Z</time>
      </trkpt>
      <trkpt lat="44.32944" lon="4.54129">
        <ele>206.3</ele>
        <time>2022-06-11T12:29:57Z</time>
      </trkpt>
      <trkpt lat="44.32949" lon="4.54131">
        <ele>205.8</ele>
        <time>2022-06-11T12:29:58Z</time>
      </trkpt>
      <trkpt lat="44.32955" lon="4.54132">
        <ele>205.4</ele>
        <time>2022-06-11T12:29:59Z</time>
      </trkpt>
      <trkpt lat="44.32961" lon="4.54132">
        <ele>205</ele>
        <time>2022-06-11T12:30:00Z</time>
      </trkpt>
      <trkpt lat="44.32967" lon="4.54132">
        <ele>204.6</ele>
        <time>2022-06-11T12:30:01Z</time>
      </trkpt>
      <trkpt lat="44.32973" lon="4.54132">
        <ele>204.1</ele>
        <time>2022-06-11T12:30:02Z</time>
      </trkpt>
      <trkpt lat="44.3298" lon="4.54133">
        <ele>203.7</ele>
        <time>2022-06-11T12:30:03Z</time>
      </trkpt>
      <trkpt lat="44.32987" lon="4.54134">
        <ele>203.2</ele>
        <time>2022-06-11T12:30:04Z</time>
      </trkpt>
      <trkpt lat="44.32995" lon="4.54134">
        <ele>202.6</ele>
        <time>2022-06-11T12:30:05Z</time>
      </trkpt>
      <trkpt lat="44.33002" lon="4.54134">
        <ele>202.1</ele>
        <time>2022-06-11T12:30:06Z</time>
      </trkpt>
      <trkpt lat="44.3301" lon="4.54135">
        <ele>201.6</ele>
        <time>2022-06-11T12:30:07Z</time>
      </trkpt>
      <trkpt lat="44.33018" lon="4.54135">
        <ele>201.1</ele>
        <time>2022-06-11T12:30:08Z</time>
      </trkpt>
      <trkpt lat="44.33026" lon="4.54134">
        <ele>200.6</ele>
        <time>2022-06-11T12:30:09Z</time>
      </trkpt>
      <trkpt lat="44.33034" lon="4.54132">
        <ele>200.2</ele>
        <time>2022-06-11T12:30:10Z</time>
      </trkpt>
      <trkpt lat="44.33042" lon="4.5413">
        <ele>199.9</ele>
        <time>2022-06-11T12:30:11Z</time>
      </trkpt>
      <trkpt lat="44.33049" lon="4.54128">
        <ele>199.6</ele>
        <time>2022-06-11T12:30:12Z</time>
      </trkpt>
      <trkpt lat="44.33056" lon="4.54125">
        <ele>199.3</ele>
        <time>2022-06-11T12:30:13Z</time>
      </trkpt>
      <trkpt lat="44.33063" lon="4.54123">
        <ele>199.1</ele>
        <time>2022-06-11T12:30:14Z</time>
      </trkpt>
      <trkpt lat="44.3307" lon="4.54119">
        <ele>198.8</ele>
        <time>2022-06-11T12:30:15Z</time>
      </trkpt>
      <trkpt lat="44.33077" lon="4.54116">
        <ele>198.6</ele>
        <time>2022-06-11T12:30:16Z</time>
      </trkpt>
      <trkpt lat="44.33084" lon="4.54114">
        <ele>198.5</ele>
        <time>2022-06-11T12:30:17Z</time>
      </trkpt>
      <trkpt lat="44.33091" lon="4.54111">
        <ele>198.3</ele>
        <time>2022-06-11T12:30:18Z</time>
      </trkpt>
      <trkpt lat="44.33099" lon="4.54108">
        <ele>198.2</ele>
        <time>2022-06-11T12:30:19Z</time>
      </trkpt>
      <trkpt lat="44.33106" lon="4.54105">
        <ele>198</ele>
        <time>2022-06-11T12:30:20Z</time>
      </trkpt>
      <trkpt lat="44.33112" lon="4.54103">
        <ele>197.9</ele>
        <time>2022-06-11T12:30:21Z</time>
      </trkpt>
      <trkpt lat="44.33119" lon="4.541">
        <ele>197.7</ele>
        <time>2022-06-11T12:30:22Z</time>
      </trkpt>
      <trkpt lat="44.33126" lon="4.54097">
        <ele>197.6</ele>
        <time>2022-06-11T12:30:23Z</time>
      </trkpt>
      <trkpt lat="44.33133" lon="4.54094">
        <ele>197.4</ele>
        <time>2022-06-11T12:30:24Z</time>
      </trkpt>
      <trkpt lat="44.33139" lon="4.54091">
        <ele>197.3</ele>
        <time>2022-06-11T12:30:25Z</time>
      </trkpt>
      <trkpt lat="44.33146" lon="4.54088">
        <ele>197.1</ele>
        <time>2022-06-11T12:30:26Z</time>
      </trkpt>
      <trkpt lat="44.33153" lon="4.54085">
        <ele>197</ele>
        <time>2022-06-11T12:30:27Z</time>
      </trkpt>
      <trkpt lat="44.33159" lon="4.54083">
        <ele>196.8</ele>
        <time>2022-06-11T12:30:28Z</time>
      </trkpt>
      <trkpt lat="44.33166" lon="4.54081">
        <ele>196.6</ele>
        <time>2022-06-11T12:30:29Z</time>
      </trkpt>
      <trkpt lat="44.33174" lon="4.54082">
        <ele>196.4</ele>
        <time>2022-06-11T12:30:30Z</time>
      </trkpt>
      <trkpt lat="44.33181" lon="4.54085">
        <ele>196.1</ele>
        <time>2022-06-11T12:30:31Z</time>
      </trkpt>
      <trkpt lat="44.33188" lon="4.54091">
        <ele>195.8</ele>
        <time>2022-06-11T12:30:32Z</time>
      </trkpt>
      <trkpt lat="44.33194" lon="4.54099">
        <ele>195.6</ele>
        <time>2022-06-11T12:30:33Z</time>
      </trkpt>
      <trkpt lat="44.33198" lon="4.54109">
        <ele>195.5</ele>
        <time>2022-06-11T12:30:34Z</time>
      </trkpt>
      <trkpt lat="44.332" lon="4.5412">
        <ele>195</ele>
        <time>2022-06-11T12:30:35Z</time>
      </trkpt>
      <trkpt lat="44.33199" lon="4.54132">
        <ele>194.5</ele>
        <time>2022-06-11T12:30:36Z</time>
      </trkpt>
      <trkpt lat="44.33194" lon="4.54142">
        <ele>194</ele>
        <time>2022-06-11T12:30:37Z</time>
      </trkpt>
      <trkpt lat="44.33187" lon="4.54149">
        <ele>193.5</ele>
        <time>2022-06-11T12:30:38Z</time>
      </trkpt>
      <trkpt lat="44.33179" lon="4.54153">
        <ele>192.9</ele>
        <time>2022-06-11T12:30:39Z</time>
      </trkpt>
      <trkpt lat="44.3317" lon="4.54155">
        <ele>192.4</ele>
        <time>2022-06-11T12:30:40Z</time>
      </trkpt>
      <trkpt lat="44.33162" lon="4.54159">
        <ele>191.9</ele>
        <time>2022-06-11T12:30:41Z</time>
      </trkpt>
      <trkpt lat="44.33154" lon="4.54162">
        <ele>191.4</ele>
        <time>2022-06-11T12:30:42Z</time>
      </trkpt>
      <trkpt lat="44.33145" lon="4.54165">
        <ele>190.9</ele>
        <time>2022-06-11T12:30:43Z</time>
      </trkpt>
      <trkpt lat="44.33137" lon="4.54168">
        <ele>190.5</ele>
        <time>2022-06-11T12:30:44Z</time>
      </trkpt>
      <trkpt lat="44.33128" lon="4.5417">
        <ele>190.1</ele>
        <time>2022-06-11T12:30:45Z</time>
      </trkpt>
      <trkpt lat="44.3312" lon="4.54173">
        <ele>189.7</ele>
        <time>2022-06-11T12:30:46Z</time>
      </trkpt>
      <trkpt lat="44.33111" lon="4.54177">
        <ele>189.3</ele>
        <time>2022-06-11T12:30:47Z</time>
      </trkpt>
      <trkpt lat="44.33103" lon="4.54181">
        <ele>188.9</ele>
        <time>2022-06-11T12:30:48Z</time>
      </trkpt>
      <trkpt lat="44.33095" lon="4.54186">
        <ele>188.6</ele>
        <time>2022-06-11T12:30:49Z</time>
      </trkpt>
      <trkpt lat="44.33088" lon="4.54192">
        <ele>188.4</ele>
        <time>2022-06-11T12:30:50Z</time>
      </trkpt>
      <trkpt lat="44.33081" lon="4.54198">
        <ele>188.2</ele>
        <time>2022-06-11T12:30:51Z</time>
      </trkpt>
      <trkpt lat="44.33073" lon="4.54205">
        <ele>188.1</ele>
        <time>2022-06-11T12:30:52Z</time>
      </trkpt>
      <trkpt lat="44.33066" lon="4.54211">
        <ele>188</ele>
        <time>2022-06-11T12:30:53Z</time>
      </trkpt>
      <trkpt lat="44.33059" lon="4.54216">
        <ele>187.9</ele>
        <time>2022-06-11T12:30:54Z</time>
      </trkpt>
      <trkpt lat="44.33053" lon="4.54222">
        <ele>187.9</ele>
        <time>2022-06-11T12:30:55Z</time>
      </trkpt>
      <trkpt lat="44.33046" lon="4.54227">
        <ele>187.9</ele>
        <time>2022-06-11T12:30:56Z</time>
      </trkpt>
      <trkpt lat="44.3304" lon="4.54233">
        <ele>188.1</ele>
        <time>2022-06-11T12:30:57Z</time>
      </trkpt>
      <trkpt lat="44.33035" lon="4.54238">
        <ele>188.2</ele>
        <time>2022-06-11T12:30:58Z</time>
      </trkpt>
      <trkpt lat="44.33029" lon="4.54243">
        <ele>188.4</ele>
        <time>2022-06-11T12:30:59Z</time>
      </trkpt>
      <trkpt lat="44.33025" lon="4.54248">
        <ele>188.7</ele>
        <time>2022-06-11T12:31:00Z</time>
      </trkpt>
      <trkpt lat="44.3302" lon="4.54252">
        <ele>188.9</ele>
        <time>2022-06-11T12:31:01Z</time>
      </trkpt>
      <trkpt lat="44.33016" lon="4.54257">
        <ele>189.1</ele>
        <time>2022-06-11T12:31:02Z</time>
      </trkpt>
      <trkpt lat="44.33012" lon="4.54261">
        <ele>189.3</ele>
        <time>2022-06-11T12:31:03Z</time>
      </trkpt>
      <trkpt lat="44.33009" lon="4.54266">
        <ele>189.4</ele>
        <time>2022-06-11T12:31:04Z</time>
      </trkpt>
      <trkpt lat="44.33007" lon="4.54272">
        <ele>189.5</ele>
        <time>2022-06-11T12:31:05Z</time>
      </trkpt>
      <trkpt lat="44.33006" lon="4.54278">
        <ele>189.6</ele>
        <time>2022-06-11T12:31:06Z</time>
      </trkpt>
      <trkpt lat="44.33005" lon="4.54284">
        <ele>189.7</ele>
        <time>2022-06-11T12:31:07Z</time>
      </trkpt>
      <trkpt lat="44.33005" lon="4.54292">
        <ele>189.7</ele>
        <time>2022-06-11T12:31:08Z</time>
      </trkpt>
      <trkpt lat="44.33006" lon="4.54299">
        <ele>189.7</ele>
        <time>2022-06-11T12:31:09Z</time>
      </trkpt>
      <trkpt lat="44.33008" lon="4.54306">
        <ele>189.6</ele>
        <time>2022-06-11T12:31:10Z</time>
      </trkpt>
      <trkpt lat="44.33011" lon="4.54314">
        <ele>189.6</ele>
        <time>2022-06-11T12:31:11Z</time>
      </trkpt>
      <trkpt lat="44.33013" lon="4.54321">
        <ele>189.4</ele>
        <time>2022-06-11T12:31:12Z</time>
      </trkpt>
      <trkpt lat="44.33016" lon="4.5433">
        <ele>189.3</ele>
        <time>2022-06-11T12:31:13Z</time>
      </trkpt>
      <trkpt lat="44.33018" lon="4.54339">
        <ele>189.1</ele>
        <time>2022-06-11T12:31:14Z</time>
      </trkpt>
      <trkpt lat="44.33018" lon="4.54349">
        <ele>188.7</ele>
        <time>2022-06-11T12:31:15Z</time>
      </trkpt>
      <trkpt lat="44.33013" lon="4.54358">
        <ele>188.3</ele>
        <time>2022-06-11T12:31:16Z</time>
      </trkpt>
      <trkpt lat="44.33006" lon="4.54365">
        <ele>187.8</ele>
        <time>2022-06-11T12:31:17Z</time>
      </trkpt>
      <trkpt lat="44.32998" lon="4.54369">
        <ele>187.2</ele>
        <time>2022-06-11T12:31:18Z</time>
      </trkpt>
      <trkpt lat="44.32989" lon="4.54372">
        <ele>186.6</ele>
        <time>2022-06-11T12:31:19Z</time>
      </trkpt>
      <trkpt lat="44.3298" lon="4.54375">
        <ele>186.1</ele>
        <time>2022-06-11T12:31:20Z</time>
      </trkpt>
      <trkpt lat="44.32972" lon="4.5438">
        <ele>185.6</ele>
        <time>2022-06-11T12:31:21Z</time>
      </trkpt>
      <trkpt lat="44.32963" lon="4.54385">
        <ele>185.1</ele>
        <time>2022-06-11T12:31:22Z</time>
      </trkpt>
      <trkpt lat="44.32954" lon="4.5439">
        <ele>184.5</ele>
        <time>2022-06-11T12:31:23Z</time>
      </trkpt>
      <trkpt lat="44.32945" lon="4.54395">
        <ele>183.9</ele>
        <time>2022-06-11T12:31:24Z</time>
      </trkpt>
      <trkpt lat="44.32937" lon="4.54401">
        <ele>183.3</ele>
        <time>2022-06-11T12:31:25Z</time>
      </trkpt>
      <trkpt lat="44.32928" lon="4.54408">
        <ele>182.7</ele>
        <time>2022-06-11T12:31:26Z</time>
      </trkpt>
      <trkpt lat="44.3292" lon="4.54417">
        <ele>182</ele>
        <time>2022-06-11T12:31:27Z</time>
      </trkpt>
      <trkpt lat="44.32913" lon="4.54427">
        <ele>181.4</ele>
        <time>2022-06-11T12:31:28Z</time>
      </trkpt>
      <trkpt lat="44.32907" lon="4.5444">
        <ele>180.9</ele>
        <time>2022-06-11T12:31:29Z</time>
      </trkpt>
      <trkpt lat="44.32904" lon="4.54455">
        <ele>180.3</ele>
        <time>2022-06-11T12:31:30Z</time>
      </trkpt>
      <trkpt lat="44.329" lon="4.54468">
        <ele>179.8</ele>
        <time>2022-06-11T12:31:31Z</time>
      </trkpt>
      <trkpt lat="44.32893" lon="4.54477">
        <ele>179.2</ele>
        <time>2022-06-11T12:31:32Z</time>
      </trkpt>
      <trkpt lat="44.32885" lon="4.54481">
        <ele>178.4</ele>
        <time>2022-06-11T12:31:33Z</time>
      </trkpt>
      <trkpt lat="44.32875" lon="4.54479">
        <ele>177.6</ele>
        <time>2022-06-11T12:31:34Z</time>
      </trkpt>
      <trkpt lat="44.32866" lon="4.54474">
        <ele>176.8</ele>
        <time>2022-06-11T12:31:35Z</time>
      </trkpt>
      <trkpt lat="44.32856" lon="4.54468">
        <ele>176.1</ele>
        <time>2022-06-11T12:31:36Z</time>
      </trkpt>
      <trkpt lat="44.32847" lon="4.54463">
        <ele>175.5</ele>
        <time>2022-06-11T12:31:37Z</time>
      </trkpt>
      <trkpt lat="44.32837" lon="4.5446">
        <ele>175</ele>
        <time>2022-06-11T12:31:38Z</time>
      </trkpt>
      <trkpt lat="44.32827" lon="4.54461">
        <ele>174.5</ele>
        <time>2022-06-11T12:31:39Z</time>
      </trkpt>
      <trkpt lat="44.32818" lon="4.54468">
        <ele>174</ele>
        <time>2022-06-11T12:31:40Z</time>
      </trkpt>
      <trkpt lat="44.32812" lon="4.54479">
        <ele>173.3</ele>
        <time>2022-06-11T12:31:41Z</time>
      </trkpt>
      <trkpt lat="44.32811" lon="4.54493">
        <ele>172.3</ele>
        <time>2022-06-11T12:31:42Z</time>
      </trkpt>
      <trkpt lat="44.32814" lon="4.54507">
        <ele>171.2</ele>
        <time>2022-06-11T12:31:43Z</time>
      </trkpt>
      <trkpt lat="44.32821" lon="4.54518">
        <ele>170</ele>
        <time>2022-06-11T12:31:44Z</time>
      </trkpt>
      <trkpt lat="44.32829" lon="4.54528">
        <ele>168.9</ele>
        <time>2022-06-11T12:31:45Z</time>
      </trkpt>
      <trkpt lat="44.32837" lon="4.54537">
        <ele>167.9</ele>
        <time>2022-06-11T12:31:46Z</time>
      </trkpt>
      <trkpt lat="44.32845" lon="4.54548">
        <ele>167.1</ele>
        <time>2022-06-11T12:31:47Z</time>
      </trkpt>
      <trkpt lat="44.32853" lon="4.54558">
        <ele>166.3</ele>
        <time>2022-06-11T12:31:48Z</time>
      </trkpt>
      <trkpt lat="44.32862" lon="4.54568">
        <ele>165.6</ele>
        <time>2022-06-11T12:31:49Z</time>
      </trkpt>
      <trkpt lat="44.3287" lon="4.54579">
        <ele>164.8</ele>
        <time>2022-06-11T12:31:50Z</time>
      </trkpt>
      <trkpt lat="44.32875" lon="4.54591">
        <ele>164</ele>
        <time>2022-06-11T12:31:51Z</time>
      </trkpt>
      <trkpt lat="44.32877" lon="4.54607">
        <ele>163</ele>
        <time>2022-06-11T12:31:52Z</time>
      </trkpt>
      <trkpt lat="44.32874" lon="4.54622">
        <ele>161.9</ele>
        <time>2022-06-11T12:31:53Z</time>
      </trkpt>
      <trkpt lat="44.32868" lon="4.54636">
        <ele>160.7</ele>
        <time>2022-06-11T12:31:54Z</time>
      </trkpt>
      <trkpt lat="44.3286" lon="4.54648">
        <ele>159.5</ele>
        <time>2022-06-11T12:31:55Z</time>
      </trkpt>
      <trkpt lat="44.3285" lon="4.54658">
        <ele>158.5</ele>
        <time>2022-06-11T12:31:56Z</time>
      </trkpt>
      <trkpt lat="44.32841" lon="4.54667">
        <ele>157.5</ele>
        <time>2022-06-11T12:31:57Z</time>
      </trkpt>
      <trkpt lat="44.32831" lon="4.54676">
        <ele>156.6</ele>
        <time>2022-06-11T12:31:58Z</time>
      </trkpt>
      <trkpt lat="44.32822" lon="4.54686">
        <ele>155.7</ele>
        <time>2022-06-11T12:31:59Z</time>
      </trkpt>
      <trkpt lat="44.32812" lon="4.54695">
        <ele>154.8</ele>
        <time>2022-06-11T12:32:00Z</time>
      </trkpt>
      <trkpt lat="44.32802" lon="4.54704">
        <ele>153.8</ele>
        <time>2022-06-11T12:32:01Z</time>
      </trkpt>
      <trkpt lat="44.32794" lon="4.54717">
        <ele>152.7</ele>
        <time>2022-06-11T12:32:02Z</time>
      </trkpt>
      <trkpt lat="44.32788" lon="4.54732">
        <ele>151.6</ele>
        <time>2022-06-11T12:32:03Z</time>
      </trkpt>
      <trkpt lat="44.32782" lon="4.54748">
        <ele>150.5</ele>
        <time>2022-06-11T12:32:04Z</time>
      </trkpt>
      <trkpt lat="44.32776" lon="4.54764">
        <ele>149.5</ele>
        <time>2022-06-11T12:32:05Z</time>
      </trkpt>
      <trkpt lat="44.3277" lon="4.54779">
        <ele>148.6</ele>
        <time>2022-06-11T12:32:06Z</time>
      </trkpt>
      <trkpt lat="44.32764" lon="4.54795">
        <ele>147.7</ele>
        <time>2022-06-11T12:32:07Z</time>
      </trkpt>
      <trkpt lat="44.32757" lon="4.5481">
        <ele>146.9</ele>
        <time>2022-06-11T12:32:08Z</time>
      </trkpt>
      <trkpt lat="44.32751" lon="4.54826">
        <ele>146</ele>
        <time>2022-06-11T12:32:09Z</time>
      </trkpt>
      <trkpt lat="44.32746" lon="4.54842">
        <ele>145.1</ele>
        <time>2022-06-11T12:32:10Z</time>
      </trkpt>
      <trkpt lat="44.32742" lon="4.54858">
        <ele>144.1</ele>
        <time>2022-06-11T12:32:11Z</time>
      </trkpt>
      <trkpt lat="44.32741" lon="4.54875">
        <ele>143.1</ele>
        <time>2022-06-11T12:32:12Z</time>
      </trkpt>
      <trkpt lat="44.32742" lon="4.54892">
        <ele>142.2</ele>
        <time>2022-06-11T12:32:13Z</time>
      </trkpt>
      <trkpt lat="44.32743" lon="4.54908">
        <ele>141.3</ele>
        <time>2022-06-11T12:32:14Z</time>
      </trkpt>
      <trkpt lat="44.32745" lon="4.54924">
        <ele>140.5</ele>
        <time>2022-06-11T12:32:15Z</time>
      </trkpt>
      <trkpt lat="44.32745" lon="4.54941">
        <ele>139.6</ele>
        <time>2022-06-11T12:32:16Z</time>
      </trkpt>
      <trkpt lat="44.32746" lon="4.54957">
        <ele>138.8</ele>
        <time>2022-06-11T12:32:17Z</time>
      </trkpt>
      <trkpt lat="44.32747" lon="4.54974">
        <ele>137.9</ele>
        <time>2022-06-11T12:32:18Z</time>
      </trkpt>
      <trkpt lat="44.32748" lon="4.5499">
        <ele>137.1</ele>
        <time>2022-06-11T12:32:19Z</time>
      </trkpt>
      <trkpt lat="44.32749" lon="4.55007">
        <ele>136.4</ele>
        <time>2022-06-11T12:32:20Z</time>
      </trkpt>
      <trkpt lat="44.3275" lon="4.55023">
        <ele>135.7</ele>
        <time>2022-06-11T12:32:21Z</time>
      </trkpt>
      <trkpt lat="44.32751" lon="4.55039">
        <ele>135.1</ele>
        <time>2022-06-11T12:32:22Z</time>
      </trkpt>
      <trkpt lat="44.32753" lon="4.55055">
        <ele>134.5</ele>
        <time>2022-06-11T12:32:23Z</time>
      </trkpt>
      <trkpt lat="44.32758" lon="4.55068">
        <ele>133.9</ele>
        <time>2022-06-11T12:32:24Z</time>
      </trkpt>
      <trkpt lat="44.32766" lon="4.55079">
        <ele>133.2</ele>
        <time>2022-06-11T12:32:25Z</time>
      </trkpt>
      <trkpt lat="44.32776" lon="4.55085">
        <ele>132.5</ele>
        <time>2022-06-11T12:32:26Z</time>
      </trkpt>
      <trkpt lat="44.32787" lon="4.5509">
        <ele>131.9</ele>
        <time>2022-06-11T12:32:27Z</time>
      </trkpt>
      <trkpt lat="44.32797" lon="4.55094">
        <ele>131.3</ele>
        <time>2022-06-11T12:32:28Z</time>
      </trkpt>
      <trkpt lat="44.32808" lon="4.55099">
        <ele>130.8</ele>
        <time>2022-06-11T12:32:29Z</time>
      </trkpt>
      <trkpt lat="44.32817" lon="4.55105">
        <ele>130.3</ele>
        <time>2022-06-11T12:32:30Z</time>
      </trkpt>
      <trkpt lat="44.32824" lon="4.55113">
        <ele>129.8</ele>
        <time>2022-06-11T12:32:31Z</time>
      </trkpt>
      <trkpt lat="44.32828" lon="4.55125">
        <ele>129.3</ele>
        <time>2022-06-11T12:32:32Z</time>
      </trkpt>
      <trkpt lat="44.32827" lon="4.55138">
        <ele>128.7</ele>
        <time>2022-06-11T12:32:33Z</time>
      </trkpt>
      <trkpt lat="44.32822" lon="4.55149">
        <ele>128</ele>
        <time>2022-06-11T12:32:34Z</time>
      </trkpt>
      <trkpt lat="44.32814" lon="4.55156">
        <ele>127.4</ele>
        <time>2022-06-11T12:32:35Z</time>
      </trkpt>
      <trkpt lat="44.32805" lon="4.5516">
        <ele>126.7</ele>
        <time>2022-06-11T12:32:36Z</time>
      </trkpt>
      <trkpt lat="44.32795" lon="4.55162">
        <ele>126.1</ele>
        <time>2022-06-11T12:32:37Z</time>
      </trkpt>
      <trkpt lat="44.32786" lon="4.55165">
        <ele>125.5</ele>
        <time>2022-06-11T12:32:38Z</time>
      </trkpt>
      <trkpt lat="44.32777" lon="4.55168">
        <ele>125</ele>
        <time>2022-06-11T12:32:39Z</time>
      </trkpt>
      <trkpt lat="44.32768" lon="4.55172">
        <ele>124.4</ele>
        <time>2022-06-11T12:32:40Z</time>
      </trkpt>
      <trkpt lat="44.32759" lon="4.55177">
        <ele>123.8</ele>
        <time>2022-06-11T12:32:41Z</time>
      </trkpt>
      <trkpt lat="44.32751" lon="4.55184">
        <ele>123.2</ele>
        <time>2022-06-11T12:32:42Z</time>
      </trkpt>
      <trkpt lat="44.32744" lon="4.55195">
        <ele>122.6</ele>
        <time>2022-06-11T12:32:43Z</time>
      </trkpt>
      <trkpt lat="44.3274" lon="4.55206">
        <ele>121.9</ele>
        <time>2022-06-11T12:32:44Z</time>
      </trkpt>
      <trkpt lat="44.32737" lon="4.5522">
        <ele>121.3</ele>
        <time>2022-06-11T12:32:45Z</time>
      </trkpt>
      <trkpt lat="44.32735" lon="4.55233">
        <ele>120.6</ele>
        <time>2022-06-11T12:32:46Z</time>
      </trkpt>
      <trkpt lat="44.32734" lon="4.55247">
        <ele>120</ele>
        <time>2022-06-11T12:32:47Z</time>
      </trkpt>
      <trkpt lat="44.32733" lon="4.55262">
        <ele>119.3</ele>
        <time>2022-06-11T12:32:48Z</time>
      </trkpt>
      <trkpt lat="44.32732" lon="4.55276">
        <ele>118.7</ele>
        <time>2022-06-11T12:32:49Z</time>
      </trkpt>
      <trkpt lat="44.3273" lon="4.5529">
        <ele>118.1</ele>
        <time>2022-06-11T12:32:50Z</time>
      </trkpt>
      <trkpt lat="44.32729" lon="4.55304">
        <ele>117.5</ele>
        <time>2022-06-11T12:32:51Z</time>
      </trkpt>
      <trkpt lat="44.32728" lon="4.55318">
        <ele>117</ele>
        <time>2022-06-11T12:32:52Z</time>
      </trkpt>
      <trkpt lat="44.32726" lon="4.55333">
        <ele>116.6</ele>
        <time>2022-06-11T12:32:53Z</time>
      </trkpt>
      <trkpt lat="44.32725" lon="4.55347">
        <ele>116.2</ele>
        <time>2022-06-11T12:32:54Z</time>
      </trkpt>
      <trkpt lat="44.32724" lon="4.55361">
        <ele>115.8</ele>
        <time>2022-06-11T12:32:55Z</time>
      </trkpt>
      <trkpt lat="44.32722" lon="4.55375">
        <ele>115.4</ele>
        <time>2022-06-11T12:32:56Z</time>
      </trkpt>
      <trkpt lat="44.32721" lon="4.5539">
        <ele>115.1</ele>
        <time>2022-06-11T12:32:57Z</time>
      </trkpt>
      <trkpt lat="44.3272" lon="4.55403">
        <ele>114.8</ele>
        <time>2022-06-11T12:32:58Z</time>
      </trkpt>
      <trkpt lat="44.32718" lon="4.55417">
        <ele>114.6</ele>
        <time>2022-06-11T12:32:59Z</time>
      </trkpt>
      <trkpt lat="44.32717" lon="4.55429">
        <ele>114.4</ele>
        <time>2022-06-11T12:33:00Z</time>
      </trkpt>
      <trkpt lat="44.32715" lon="4.55442">
        <ele>114.2</ele>
        <time>2022-06-11T12:33:01Z</time>
      </trkpt>
      <trkpt lat="44.32713" lon="4.55455">
        <ele>114</ele>
        <time>2022-06-11T12:33:02Z</time>
      </trkpt>
      <trkpt lat="44.32711" lon="4.55467">
        <ele>113.9</ele>
        <time>2022-06-11T12:33:03Z</time>
      </trkpt>
      <trkpt lat="44.32709" lon="4.55479">
        <ele>113.8</ele>
        <time>2022-06-11T12:33:04Z</time>
      </trkpt>
      <trkpt lat="44.32707" lon="4.55491">
        <ele>113.7</ele>
        <time>2022-06-11T12:33:05Z</time>
      </trkpt>
      <trkpt lat="44.32706" lon="4.55502">
        <ele>113.7</ele>
        <time>2022-06-11T12:33:06Z</time>
      </trkpt>
      <trkpt lat="44.32704" lon="4.55514">
        <ele>113.6</ele>
        <time>2022-06-11T12:33:07Z</time>
      </trkpt>
      <trkpt lat="44.32702" lon="4.55525">
        <ele>113.5</ele>
        <time>2022-06-11T12:33:08Z</time>
      </trkpt>
      <trkpt lat="44.327" lon="4.55536">
        <ele>113.5</ele>
        <time>2022-06-11T12:33:09Z</time>
      </trkpt>
      <trkpt lat="44.32699" lon="4.55547">
        <ele>113.4</ele>
        <time>2022-06-11T12:33:10Z</time>
      </trkpt>
      <trkpt lat="44.32698" lon="4.55557">
        <ele>113.3</ele>
        <time>2022-06-11T12:33:11Z</time>
      </trkpt>
      <trkpt lat="44.32697" lon="4.55568">
        <ele>113.3</ele>
        <time>2022-06-11T12:33:12Z</time>
      </trkpt>
      <trkpt lat="44.32696" lon="4.55578">
        <ele>113.3</ele>
        <time>2022-06-11T12:33:13Z</time>
      </trkpt>
      <trkpt lat="44.32696" lon="4.55589">
        <ele>113.4</ele>
        <time>2022-06-11T12:33:14Z</time>
      </trkpt>
      <trkpt lat="44.32695" lon="4.55599">
        <ele>113.4</ele>
        <time>2022-06-11T12:33:15Z</time>
      </trkpt>
      <trkpt lat="44.32693" lon="4.55609">
        <ele>113.5</ele>
        <time>2022-06-11T12:33:16Z</time>
      </trkpt>
      <trkpt lat="44.32691" lon="4.55618">
        <ele>113.5</ele>
        <time>2022-06-11T12:33:17Z</time>
      </trkpt>
      <trkpt lat="44.32687" lon="4.55627">
        <ele>113.6</ele>
        <time>2022-06-11T12:33:18Z</time>
      </trkpt>
      <trkpt lat="44.32682" lon="4.55634">
        <ele>113.7</ele>
        <time>2022-06-11T12:33:19Z</time>
      </trkpt>
      <trkpt lat="44.32676" lon="4.55639">
        <ele>113.7</ele>
        <time>2022-06-11T12:33:20Z</time>
      </trkpt>
      <trkpt lat="44.32669" lon="4.55642">
        <ele>113.8</ele>
        <time>2022-06-11T12:33:21Z</time>
      </trkpt>
      <trkpt lat="44.32662" lon="4.55642">
        <ele>114</ele>
        <time>2022-06-11T12:33:22Z</time>
      </trkpt>
      <trkpt lat="44.32655" lon="4.5564">
        <ele>114.2</ele>
        <time>2022-06-11T12:33:23Z</time>
      </trkpt>
      <trkpt lat="44.32649" lon="4.55637">
        <ele>114.4</ele>
        <time>2022-06-11T12:33:24Z</time>
      </trkpt>
      <trkpt lat="44.32644" lon="4.55633">
        <ele>114.6</ele>
        <time>2022-06-11T12:33:25Z</time>
      </trkpt>
      <trkpt lat="44.3264" lon="4.55628">
        <ele>114.8</ele>
        <time>2022-06-11T12:33:26Z</time>
      </trkpt>
      <trkpt lat="44.32636" lon="4.55623">
        <ele>114.9</ele>
        <time>2022-06-11T12:33:27Z</time>
      </trkpt>
      <trkpt lat="44.32634" lon="4.55618">
        <ele>115.1</ele>
        <time>2022-06-11T12:33:28Z</time>
      </trkpt>
      <trkpt lat="44.32632" lon="4.55613">
        <ele>115.2</ele>
        <time>2022-06-11T12:33:29Z</time>
      </trkpt>
      <trkpt lat="44.3263" lon="4.55606">
        <ele>115.4</ele>
        <time>2022-06-11T12:33:30Z</time>
      </trkpt>
      <trkpt lat="44.3263" lon="4.55604">
        <ele>115.5</ele>
        <time>2022-06-11T12:33:31Z</time>
      </trkpt>
      <trkpt lat="44.3263" lon="4.55599">
        <ele>115.6</ele>
        <time>2022-06-11T12:33:32Z</time>
      </trkpt>
      <trkpt lat="44.32629" lon="4.55594">
        <ele>115.8</ele>
        <time>2022-06-11T12:33:33Z</time>
      </trkpt>
      <trkpt lat="44.32629" lon="4.55592">
        <ele>115.8</ele>
        <time>2022-06-11T12:33:34Z</time>
      </trkpt>
      <trkpt lat="44.32628" lon="4.55587">
        <ele>116</ele>
        <time>2022-06-11T12:33:35Z</time>
      </trkpt>
      <trkpt lat="44.32628" lon="4.55585">
        <ele>116</ele>
        <time>2022-06-11T12:33:36Z</time>
      </trkpt>
      <trkpt lat="44.32627" lon="4.55581">
        <ele>116.2</ele>
        <time>2022-06-11T12:33:37Z</time>
      </trkpt>
      <trkpt lat="44.32627" lon="4.55579">
        <ele>116.3</ele>
        <time>2022-06-11T12:33:38Z</time>
      </trkpt>
      <trkpt lat="44.32627" lon="4.55575">
        <ele>116.4</ele>
        <time>2022-06-11T12:33:39Z</time>
      </trkpt>
      <trkpt lat="44.32627" lon="4.55574">
        <ele>116.5</ele>
        <time>2022-06-11T12:33:40Z</time>
      </trkpt>
      <trkpt lat="44.32626" lon="4.55569">
        <ele>116.7</ele>
        <time>2022-06-11T12:33:41Z</time>
      </trkpt>
      <trkpt lat="44.32626" lon="4.55568">
        <ele>116.7</ele>
        <time>2022-06-11T12:33:42Z</time>
      </trkpt>
      <trkpt lat="44.32626" lon="4.55565">
        <ele>116.8</ele>
        <time>2022-06-11T12:33:43Z</time>
      </trkpt>
      <trkpt lat="44.32626" lon="4.55564">
        <ele>116.9</ele>
        <time>2022-06-11T12:33:44Z</time>
      </trkpt>
      <trkpt lat="44.32624" lon="4.55559">
        <ele>117.1</ele>
        <time>2022-06-11T12:33:45Z</time>
      </trkpt>
      <trkpt lat="44.32624" lon="4.55558">
        <ele>117.2</ele>
        <time>2022-06-11T12:33:46Z</time>
      </trkpt>
      <trkpt lat="44.32624" lon="4.55554">
        <ele>117.4</ele>
        <time>2022-06-11T12:33:47Z</time>
      </trkpt>
      <trkpt lat="44.32623" lon="4.55553">
        <ele>117.4</ele>
        <time>2022-06-11T12:33:48Z</time>
      </trkpt>
      <trkpt lat="44.32624" lon="4.55549">
        <ele>117.6</ele>
        <time>2022-06-11T12:33:49Z</time>
      </trkpt>
      <trkpt lat="44.32624" lon="4.55548">
        <ele>117.7</ele>
        <time>2022-06-11T12:33:50Z</time>
      </trkpt>
      <trkpt lat="44.32623" lon="4.55545">
        <ele>117.8</ele>
        <time>2022-06-11T12:33:51Z</time>
      </trkpt>
      <trkpt lat="44.32623" lon="4.55543">
        <ele>118</ele>
        <time>2022-06-11T12:33:52Z</time>
      </trkpt>
      <trkpt lat="44.32623" lon="4.5554">
        <ele>118.1</ele>
        <time>2022-06-11T12:33:53Z</time>
      </trkpt>
      <trkpt lat="44.32623" lon="4.55538">
        <ele>118.2</ele>
        <time>2022-06-11T12:33:54Z</time>
      </trkpt>
      <trkpt lat="44.32623" lon="4.55536">
        <ele>118.3</ele>
        <time>2022-06-11T12:33:55Z</time>
      </trkpt>
      <trkpt lat="44.32623" lon="4.55533">
        <ele>118.5</ele>
        <time>2022-06-11T12:33:56Z</time>
      </trkpt>
      <trkpt lat="44.32622" lon="4.55531">
        <ele>118.6</ele>
        <time>2022-06-11T12:33:57Z</time>
      </trkpt>
      <trkpt lat="44.32622" lon="4.55529">
        <ele>118.7</ele>
        <time>2022-06-11T12:33:58Z</time>
      </trkpt>
      <trkpt lat="44.32622" lon="4.55527">
        <ele>118.8</ele>
        <time>2022-06-11T12:33:59Z</time>
      </trkpt>
      <trkpt lat="44.32622" lon="4.55524">
        <ele>119</ele>
        <time>2022-06-11T12:34:00Z</time>
      </trkpt>
      <trkpt lat="44.32622" lon="4.5552">
        <ele>119.2</ele>
        <time>2022-06-11T12:34:02Z</time>
      </trkpt>
      <trkpt lat="44.32621" lon="4.55517">
        <ele>119.3</ele>
        <time>2022-06-11T12:34:03Z</time>
      </trkpt>
      <trkpt lat="44.32621" lon="4.55515">
        <ele>119.5</ele>
        <time>2022-06-11T12:34:04Z</time>
      </trkpt>
      <trkpt lat="44.32621" lon="4.55513">
        <ele>119.6</ele>
        <time>2022-06-11T12:34:05Z</time>
      </trkpt>
      <trkpt lat="44.3262" lon="4.55511">
        <ele>119.7</ele>
        <time>2022-06-11T12:34:06Z</time>
      </trkpt>
      <trkpt lat="44.32619" lon="4.55508">
        <ele>119.9</ele>
        <time>2022-06-11T12:34:07Z</time>
      </trkpt>
      <trkpt lat="44.32619" lon="4.55506">
        <ele>120</ele>
        <time>2022-06-11T12:34:08Z</time>
      </trkpt>
      <trkpt lat="44.32619" lon="4.55504">
        <ele>120.1</ele>
        <time>2022-06-11T12:34:09Z</time>
      </trkpt>
      <trkpt lat="44.32618" lon="4.55502">
        <ele>120.2</ele>
        <time>2022-06-11T12:34:10Z</time>
      </trkpt>
      <trkpt lat="44.32618" lon="4.55499">
        <ele>120.3</ele>
        <time>2022-06-11T12:34:11Z</time>
      </trkpt>
      <trkpt lat="44.32618" lon="4.55497">
        <ele>120.5</ele>
        <time>2022-06-11T12:34:12Z</time>
      </trkpt>
      <trkpt lat="44.32617" lon="4.55495">
        <ele>120.6</ele>
        <time>2022-06-11T12:34:13Z</time>
      </trkpt>
      <trkpt lat="44.32617" lon="4.55492">
        <ele>120.7</ele>
        <time>2022-06-11T12:34:14Z</time>
      </trkpt>
      <trkpt lat="44.32617" lon="4.5549">
        <ele>120.8</ele>
        <time>2022-06-11T12:34:15Z</time>
      </trkpt>
      <trkpt lat="44.32616" lon="4.55488">
        <ele>120.9</ele>
        <time>2022-06-11T12:34:16Z</time>
      </trkpt>
      <trkpt lat="44.32615" lon="4.55484">
        <ele>121.1</ele>
        <time>2022-06-11T12:34:17Z</time>
      </trkpt>
      <trkpt lat="44.32615" lon="4.55483">
        <ele>121.2</ele>
        <time>2022-06-11T12:34:18Z</time>
      </trkpt>
      <trkpt lat="44.32614" lon="4.5548">
        <ele>121.3</ele>
        <time>2022-06-11T12:34:19Z</time>
      </trkpt>
      <trkpt lat="44.32614" lon="4.55478">
        <ele>121.4</ele>
        <time>2022-06-11T12:34:20Z</time>
      </trkpt>
      <trkpt lat="44.32613" lon="4.55474">
        <ele>121.6</ele>
        <time>2022-06-11T12:34:21Z</time>
      </trkpt>
      <trkpt lat="44.32613" lon="4.55473">
        <ele>121.6</ele>
        <time>2022-06-11T12:34:22Z</time>
      </trkpt>
      <trkpt lat="44.32612" lon="4.55469">
        <ele>121.8</ele>
        <time>2022-06-11T12:34:23Z</time>
      </trkpt>
      <trkpt lat="44.32612" lon="4.55468">
        <ele>121.9</ele>
        <time>2022-06-11T12:34:24Z</time>
      </trkpt>
      <trkpt lat="44.3261" lon="4.55463">
        <ele>122.1</ele>
        <time>2022-06-11T12:34:25Z</time>
      </trkpt>
      <trkpt lat="44.3261" lon="4.55462">
        <ele>122.2</ele>
        <time>2022-06-11T12:34:26Z</time>
      </trkpt>
      <trkpt lat="44.32609" lon="4.55458">
        <ele>122.3</ele>
        <time>2022-06-11T12:34:27Z</time>
      </trkpt>
      <trkpt lat="44.32608" lon="4.55457">
        <ele>122.4</ele>
        <time>2022-06-11T12:34:28Z</time>
      </trkpt>
      <trkpt lat="44.32607" lon="4.55453">
        <ele>122.6</ele>
        <time>2022-06-11T12:34:29Z</time>
      </trkpt>
      <trkpt lat="44.32607" lon="4.55451">
        <ele>122.7</ele>
        <time>2022-06-11T12:34:30Z</time>
      </trkpt>
      <trkpt lat="44.32606" lon="4.55447">
        <ele>122.8</ele>
        <time>2022-06-11T12:34:31Z</time>
      </trkpt>
      <trkpt lat="44.32605" lon="4.55446">
        <ele>122.9</ele>
        <time>2022-06-11T12:34:32Z</time>
      </trkpt>
      <trkpt lat="44.32604" lon="4.55442">
        <ele>123.1</ele>
        <time>2022-06-11T12:34:33Z</time>
      </trkpt>
      <trkpt lat="44.32604" lon="4.55441">
        <ele>123.1</ele>
        <time>2022-06-11T12:34:34Z</time>
      </trkpt>
      <trkpt lat="44.32602" lon="4.55437">
        <ele>123.3</ele>
        <time>2022-06-11T12:34:35Z</time>
      </trkpt>
      <trkpt lat="44.32602" lon="4.55436">
        <ele>123.3</ele>
        <time>2022-06-11T12:34:36Z</time>
      </trkpt>
      <trkpt lat="44.32601" lon="4.55432">
        <ele>123.5</ele>
        <time>2022-06-11T12:34:37Z</time>
      </trkpt>
      <trkpt lat="44.326" lon="4.55431">
        <ele>123.6</ele>
        <time>2022-06-11T12:34:38Z</time>
      </trkpt>
      <trkpt lat="44.32598" lon="4.55427">
        <ele>123.8</ele>
        <time>2022-06-11T12:34:39Z</time>
      </trkpt>
      <trkpt lat="44.32597" lon="4.55426">
        <ele>123.8</ele>
        <time>2022-06-11T12:34:40Z</time>
      </trkpt>
      <trkpt lat="44.32595" lon="4.55422">
        <ele>124</ele>
        <time>2022-06-11T12:34:41Z</time>
      </trkpt>
      <trkpt lat="44.32595" lon="4.55421">
        <ele>124.1</ele>
        <time>2022-06-11T12:34:42Z</time>
      </trkpt>
      <trkpt lat="44.32594" lon="4.55417">
        <ele>124.3</ele>
        <time>2022-06-11T12:34:43Z</time>
      </trkpt>
      <trkpt lat="44.32593" lon="4.55416">
        <ele>124.3</ele>
        <time>2022-06-11T12:34:44Z</time>
      </trkpt>
      <trkpt lat="44.32592" lon="4.55412">
        <ele>124.5</ele>
        <time>2022-06-11T12:34:45Z</time>
      </trkpt>
      <trkpt lat="44.32591" lon="4.55411">
        <ele>124.6</ele>
        <time>2022-06-11T12:34:46Z</time>
      </trkpt>
      <trkpt lat="44.3259" lon="4.55407">
        <ele>124.8</ele>
        <time>2022-06-11T12:34:47Z</time>
      </trkpt>
      <trkpt lat="44.32589" lon="4.55406">
        <ele>124.8</ele>
        <time>2022-06-11T12:34:48Z</time>
      </trkpt>
      <trkpt lat="44.32588" lon="4.55402">
        <ele>125</ele>
        <time>2022-06-11T12:34:49Z</time>
      </trkpt>
      <trkpt lat="44.32588" lon="4.554">
        <ele>125</ele>
        <time>2022-06-11T12:34:50Z</time>
      </trkpt>
      <trkpt lat="44.32587" lon="4.55396">
        <ele>125.2</ele>
        <time>2022-06-11T12:34:51Z</time>
      </trkpt>
      <trkpt lat="44.32586" lon="4.55395">
        <ele>125.3</ele>
        <time>2022-06-11T12:34:52Z</time>
      </trkpt>
      <trkpt lat="44.32585" lon="4.55391">
        <ele>125.4</ele>
        <time>2022-06-11T12:34:53Z</time>
      </trkpt>
      <trkpt lat="44.32585" lon="4.55389">
        <ele>125.5</ele>
        <time>2022-06-11T12:34:54Z</time>
      </trkpt>
      <trkpt lat="44.32584" lon="4.55385">
        <ele>125.7</ele>
        <time>2022-06-11T12:34:55Z</time>
      </trkpt>
      <trkpt lat="44.32584" lon="4.55384">
        <ele>125.7</ele>
        <time>2022-06-11T12:34:56Z</time>
      </trkpt>
      <trkpt lat="44.32583" lon="4.5538">
        <ele>125.9</ele>
        <time>2022-06-11T12:34:57Z</time>
      </trkpt>
      <trkpt lat="44.32583" lon="4.55378">
        <ele>126</ele>
        <time>2022-06-11T12:34:58Z</time>
      </trkpt>
      <trkpt lat="44.32582" lon="4.55374">
        <ele>126.1</ele>
        <time>2022-06-11T12:34:59Z</time>
      </trkpt>
      <trkpt lat="44.32582" lon="4.55373">
        <ele>126.2</ele>
        <time>2022-06-11T12:35:00Z</time>
      </trkpt>
      <trkpt lat="44.32582" lon="4.55368">
        <ele>126.3</ele>
        <time>2022-06-11T12:35:01Z</time>
      </trkpt>
      <trkpt lat="44.32582" lon="4.55367">
        <ele>126.4</ele>
        <time>2022-06-11T12:35:02Z</time>
      </trkpt>
      <trkpt lat="44.32581" lon="4.55363">
        <ele>126.6</ele>
        <time>2022-06-11T12:35:03Z</time>
      </trkpt>
      <trkpt lat="44.32581" lon="4.55362">
        <ele>126.6</ele>
        <time>2022-06-11T12:35:04Z</time>
      </trkpt>
      <trkpt lat="44.32581" lon="4.5536">
        <ele>126.7</ele>
        <time>2022-06-11T12:35:05Z</time>
      </trkpt>
      <trkpt lat="44.3258" lon="4.55358">
        <ele>126.8</ele>
        <time>2022-06-11T12:35:06Z</time>
      </trkpt>
      <trkpt lat="44.3258" lon="4.55353">
        <ele>127</ele>
        <time>2022-06-11T12:35:07Z</time>
      </trkpt>
      <trkpt lat="44.3258" lon="4.55351">
        <ele>127.1</ele>
        <time>2022-06-11T12:35:08Z</time>
      </trkpt>
      <trkpt lat="44.3258" lon="4.55347">
        <ele>127.3</ele>
        <time>2022-06-11T12:35:09Z</time>
      </trkpt>
      <trkpt lat="44.3258" lon="4.55346">
        <ele>127.4</ele>
        <time>2022-06-11T12:35:10Z</time>
      </trkpt>
      <trkpt lat="44.3258" lon="4.55342">
        <ele>127.6</ele>
        <time>2022-06-11T12:35:11Z</time>
      </trkpt>
      <trkpt lat="44.3258" lon="4.55341">
        <ele>127.6</ele>
        <time>2022-06-11T12:35:12Z</time>
      </trkpt>
      <trkpt lat="44.3258" lon="4.55338">
        <ele>127.8</ele>
        <time>2022-06-11T12:35:13Z</time>
      </trkpt>
      <trkpt lat="44.32579" lon="4.55336">
        <ele>127.9</ele>
        <time>2022-06-11T12:35:14Z</time>
      </trkpt>
      <trkpt lat="44.32579" lon="4.55332">
        <ele>128.1</ele>
        <time>2022-06-11T12:35:15Z</time>
      </trkpt>
      <trkpt lat="44.32579" lon="4.5533">
        <ele>128.2</ele>
        <time>2022-06-11T12:35:16Z</time>
      </trkpt>
      <trkpt lat="44.32579" lon="4.55326">
        <ele>128.4</ele>
        <time>2022-06-11T12:35:17Z</time>
      </trkpt>
      <trkpt lat="44.32579" lon="4.55325">
        <ele>128.4</ele>
        <time>2022-06-11T12:35:18Z</time>
      </trkpt>
      <trkpt lat="44.32579" lon="4.55321">
        <ele>128.6</ele>
        <time>2022-06-11T12:35:19Z</time>
      </trkpt>
      <trkpt lat="44.32579" lon="4.5532">
        <ele>128.7</ele>
        <time>2022-06-11T12:35:20Z</time>
      </trkpt>
      <trkpt lat="44.32579" lon="4.55315">
        <ele>128.9</ele>
        <time>2022-06-11T12:35:21Z</time>
      </trkpt>
      <trkpt lat="44.32579" lon="4.55314">
        <ele>129</ele>
        <time>2022-06-11T12:35:22Z</time>
      </trkpt>
      <trkpt lat="44.32578" lon="4.5531">
        <ele>129.2</ele>
        <time>2022-06-11T12:35:23Z</time>
      </trkpt>
      <trkpt lat="44.32578" lon="4.55309">
        <ele>129.2</ele>
        <time>2022-06-11T12:35:24Z</time>
      </trkpt>
      <trkpt lat="44.32578" lon="4.55305">
        <ele>129.5</ele>
        <time>2022-06-11T12:35:25Z</time>
      </trkpt>
      <trkpt lat="44.32578" lon="4.55303">
        <ele>129.5</ele>
        <time>2022-06-11T12:35:26Z</time>
      </trkpt>
      <trkpt lat="44.32578" lon="4.55299">
        <ele>129.7</ele>
        <time>2022-06-11T12:35:27Z</time>
      </trkpt>
      <trkpt lat="44.32578" lon="4.55298">
        <ele>129.8</ele>
        <time>2022-06-11T12:35:28Z</time>
      </trkpt>
      <trkpt lat="44.32578" lon="4.55295">
        <ele>129.9</ele>
        <time>2022-06-11T12:35:29Z</time>
      </trkpt>
      <trkpt lat="44.32578" lon="4.55293">
        <ele>130</ele>
        <time>2022-06-11T12:35:30Z</time>
      </trkpt>
      <trkpt lat="44.32578" lon="4.55288">
        <ele>130.3</ele>
        <time>2022-06-11T12:35:31Z</time>
      </trkpt>
      <trkpt lat="44.32578" lon="4.55287">
        <ele>130.3</ele>
        <time>2022-06-11T12:35:32Z</time>
      </trkpt>
      <trkpt lat="44.32578" lon="4.55283">
        <ele>130.5</ele>
        <time>2022-06-11T12:35:33Z</time>
      </trkpt>
      <trkpt lat="44.32578" lon="4.55281">
        <ele>130.6</ele>
        <time>2022-06-11T12:35:34Z</time>
      </trkpt>
      <trkpt lat="44.32578" lon="4.55277">
        <ele>130.8</ele>
        <time>2022-06-11T12:35:35Z</time>
      </trkpt>
      <trkpt lat="44.32578" lon="4.55276">
        <ele>130.9</ele>
        <time>2022-06-11T12:35:36Z</time>
      </trkpt>
      <trkpt lat="44.32578" lon="4.55272">
        <ele>131.1</ele>
        <time>2022-06-11T12:35:37Z</time>
      </trkpt>
      <trkpt lat="44.32578" lon="4.55271">
        <ele>131.2</ele>
        <time>2022-06-11T12:35:38Z</time>
      </trkpt>
      <trkpt lat="44.32578" lon="4.55267">
        <ele>131.4</ele>
        <time>2022-06-11T12:35:39Z</time>
      </trkpt>
      <trkpt lat="44.32578" lon="4.55266">
        <ele>131.4</ele>
        <time>2022-06-11T12:35:40Z</time>
      </trkpt>
      <trkpt lat="44.32578" lon="4.55262">
        <ele>131.7</ele>
        <time>2022-06-11T12:35:41Z</time>
      </trkpt>
      <trkpt lat="44.32578" lon="4.5526">
        <ele>131.7</ele>
        <time>2022-06-11T12:35:42Z</time>
      </trkpt>
      <trkpt lat="44.32578" lon="4.55258">
        <ele>131.9</ele>
        <time>2022-06-11T12:35:43Z</time>
      </trkpt>
      <trkpt lat="44.32579" lon="4.55255">
        <ele>132</ele>
        <time>2022-06-11T12:35:44Z</time>
      </trkpt>
      <trkpt lat="44.32579" lon="4.55252">
        <ele>132.2</ele>
        <time>2022-06-11T12:35:45Z</time>
      </trkpt>
      <trkpt lat="44.32579" lon="4.5525">
        <ele>132.3</ele>
        <time>2022-06-11T12:35:46Z</time>
      </trkpt>
      <trkpt lat="44.3258" lon="4.55245">
        <ele>132.6</ele>
        <time>2022-06-11T12:35:48Z</time>
      </trkpt>
      <trkpt lat="44.3258" lon="4.55243">
        <ele>132.7</ele>
        <time>2022-06-11T12:35:49Z</time>
      </trkpt>
      <trkpt lat="44.3258" lon="4.5524">
        <ele>132.8</ele>
        <time>2022-06-11T12:35:50Z</time>
      </trkpt>
      <trkpt lat="44.3258" lon="4.55237">
        <ele>133.1</ele>
        <time>2022-06-11T12:35:51Z</time>
      </trkpt>
      <trkpt lat="44.3258" lon="4.55235">
        <ele>133.1</ele>
        <time>2022-06-11T12:35:52Z</time>
      </trkpt>
      <trkpt lat="44.32581" lon="4.55231">
        <ele>133.4</ele>
        <time>2022-06-11T12:35:53Z</time>
      </trkpt>
      <trkpt lat="44.32581" lon="4.5523">
        <ele>133.4</ele>
        <time>2022-06-11T12:35:54Z</time>
      </trkpt>
      <trkpt lat="44.32582" lon="4.55226">
        <ele>133.6</ele>
        <time>2022-06-11T12:35:55Z</time>
      </trkpt>
      <trkpt lat="44.32582" lon="4.55225">
        <ele>133.7</ele>
        <time>2022-06-11T12:35:56Z</time>
      </trkpt>
      <trkpt lat="44.32582" lon="4.55221">
        <ele>133.9</ele>
        <time>2022-06-11T12:35:57Z</time>
      </trkpt>
      <trkpt lat="44.32582" lon="4.5522">
        <ele>134</ele>
        <time>2022-06-11T12:35:58Z</time>
      </trkpt>
      <trkpt lat="44.32583" lon="4.55217">
        <ele>134.1</ele>
        <time>2022-06-11T12:35:59Z</time>
      </trkpt>
      <trkpt lat="44.32583" lon="4.55215">
        <ele>134.3</ele>
        <time>2022-06-11T12:36:00Z</time>
      </trkpt>
      <trkpt lat="44.32583" lon="4.55213">
        <ele>134.4</ele>
        <time>2022-06-11T12:36:01Z</time>
      </trkpt>
      <trkpt lat="44.32583" lon="4.55211">
        <ele>134.5</ele>
        <time>2022-06-11T12:36:02Z</time>
      </trkpt>
      <trkpt lat="44.32584" lon="4.55208">
        <ele>134.6</ele>
        <time>2022-06-11T12:36:03Z</time>
      </trkpt>
      <trkpt lat="44.32584" lon="4.55206">
        <ele>134.8</ele>
        <time>2022-06-11T12:36:04Z</time>
      </trkpt>
      <trkpt lat="44.32584" lon="4.55204">
        <ele>134.9</ele>
        <time>2022-06-11T12:36:05Z</time>
      </trkpt>
      <trkpt lat="44.32584" lon="4.55201">
        <ele>135</ele>
        <time>2022-06-11T12:36:06Z</time>
      </trkpt>
      <trkpt lat="44.32584" lon="4.55199">
        <ele>135.2</ele>
        <time>2022-06-11T12:36:07Z</time>
      </trkpt>
      <trkpt lat="44.32585" lon="4.55197">
        <ele>135.3</ele>
        <time>2022-06-11T12:36:08Z</time>
      </trkpt>
      <trkpt lat="44.32585" lon="4.55195">
        <ele>135.4</ele>
        <time>2022-06-11T12:36:09Z</time>
      </trkpt>
      <trkpt lat="44.32586" lon="4.55192">
        <ele>135.6</ele>
        <time>2022-06-11T12:36:10Z</time>
      </trkpt>
      <trkpt lat="44.32586" lon="4.5519">
        <ele>135.7</ele>
        <time>2022-06-11T12:36:11Z</time>
      </trkpt>
      <trkpt lat="44.32587" lon="4.55187">
        <ele>135.8</ele>
        <time>2022-06-11T12:36:12Z</time>
      </trkpt>
      <trkpt lat="44.32587" lon="4.55185">
        <ele>135.9</ele>
        <time>2022-06-11T12:36:13Z</time>
      </trkpt>
      <trkpt lat="44.32587" lon="4.55183">
        <ele>136.1</ele>
        <time>2022-06-11T12:36:14Z</time>
      </trkpt>
      <trkpt lat="44.32587" lon="4.55181">
        <ele>136.2</ele>
        <time>2022-06-11T12:36:15Z</time>
      </trkpt>
      <trkpt lat="44.32587" lon="4.55178">
        <ele>136.3</ele>
        <time>2022-06-11T12:36:16Z</time>
      </trkpt>
      <trkpt lat="44.32587" lon="4.55176">
        <ele>136.4</ele>
        <time>2022-06-11T12:36:17Z</time>
      </trkpt>
      <trkpt lat="44.32587" lon="4.55173">
        <ele>136.6</ele>
        <time>2022-06-11T12:36:18Z</time>
      </trkpt>
      <trkpt lat="44.32586" lon="4.5517">
        <ele>136.8</ele>
        <time>2022-06-11T12:36:19Z</time>
      </trkpt>
      <trkpt lat="44.32586" lon="4.55168">
        <ele>136.8</ele>
        <time>2022-06-11T12:36:20Z</time>
      </trkpt>
      <trkpt lat="44.32586" lon="4.55166">
        <ele>136.9</ele>
        <time>2022-06-11T12:36:21Z</time>
      </trkpt>
      <trkpt lat="44.32585" lon="4.55164">
        <ele>137.1</ele>
        <time>2022-06-11T12:36:22Z</time>
      </trkpt>
      <trkpt lat="44.32585" lon="4.5516">
        <ele>137.3</ele>
        <time>2022-06-11T12:36:23Z</time>
      </trkpt>
      <trkpt lat="44.32584" lon="4.55159">
        <ele>137.3</ele>
        <time>2022-06-11T12:36:24Z</time>
      </trkpt>
      <trkpt lat="44.32583" lon="4.55155">
        <ele>137.5</ele>
        <time>2022-06-11T12:36:25Z</time>
      </trkpt>
      <trkpt lat="44.32583" lon="4.55154">
        <ele>137.6</ele>
        <time>2022-06-11T12:36:26Z</time>
      </trkpt>
      <trkpt lat="44.32582" lon="4.5515">
        <ele>137.8</ele>
        <time>2022-06-11T12:36:27Z</time>
      </trkpt>
      <trkpt lat="44.32582" lon="4.55149">
        <ele>137.8</ele>
        <time>2022-06-11T12:36:28Z</time>
      </trkpt>
      <trkpt lat="44.3258" lon="4.55145">
        <ele>138</ele>
        <time>2022-06-11T12:36:29Z</time>
      </trkpt>
      <trkpt lat="44.32579" lon="4.55144">
        <ele>138.1</ele>
        <time>2022-06-11T12:36:30Z</time>
      </trkpt>
      <trkpt lat="44.32577" lon="4.5514">
        <ele>138.2</ele>
        <time>2022-06-11T12:36:31Z</time>
      </trkpt>
      <trkpt lat="44.32576" lon="4.55139">
        <ele>138.3</ele>
        <time>2022-06-11T12:36:32Z</time>
      </trkpt>
      <trkpt lat="44.32573" lon="4.55136">
        <ele>138.4</ele>
        <time>2022-06-11T12:36:33Z</time>
      </trkpt>
      <trkpt lat="44.32572" lon="4.55135">
        <ele>138.5</ele>
        <time>2022-06-11T12:36:34Z</time>
      </trkpt>
      <trkpt lat="44.32569" lon="4.55132">
        <ele>138.6</ele>
        <time>2022-06-11T12:36:35Z</time>
      </trkpt>
      <trkpt lat="44.32568" lon="4.55131">
        <ele>138.6</ele>
        <time>2022-06-11T12:36:36Z</time>
      </trkpt>
      <trkpt lat="44.32565" lon="4.5513">
        <ele>138.6</ele>
        <time>2022-06-11T12:36:37Z</time>
      </trkpt>
      <trkpt lat="44.32561" lon="4.55129">
        <ele>138.6</ele>
        <time>2022-06-11T12:36:38Z</time>
      </trkpt>
      <trkpt lat="44.32558" lon="4.55129">
        <ele>138.5</ele>
        <time>2022-06-11T12:36:39Z</time>
      </trkpt>
      <trkpt lat="44.32553" lon="4.55129">
        <ele>138.4</ele>
        <time>2022-06-11T12:36:40Z</time>
      </trkpt>
      <trkpt lat="44.32548" lon="4.5513">
        <ele>138.1</ele>
        <time>2022-06-11T12:36:41Z</time>
      </trkpt>
      <trkpt lat="44.32543" lon="4.55134">
        <ele>137.8</ele>
        <time>2022-06-11T12:36:42Z</time>
      </trkpt>
      <trkpt lat="44.32537" lon="4.55138">
        <ele>137.4</ele>
        <time>2022-06-11T12:36:43Z</time>
      </trkpt>
      <trkpt lat="44.32532" lon="4.55144">
        <ele>136.9</ele>
        <time>2022-06-11T12:36:44Z</time>
      </trkpt>
      <trkpt lat="44.32527" lon="4.5515">
        <ele>136.4</ele>
        <time>2022-06-11T12:36:45Z</time>
      </trkpt>
      <trkpt lat="44.32522" lon="4.55158">
        <ele>135.9</ele>
        <time>2022-06-11T12:36:46Z</time>
      </trkpt>
      <trkpt lat="44.32517" lon="4.55166">
        <ele>135.3</ele>
        <time>2022-06-11T12:36:47Z</time>
      </trkpt>
      <trkpt lat="44.32511" lon="4.55174">
        <ele>134.6</ele>
        <time>2022-06-11T12:36:48Z</time>
      </trkpt>
      <trkpt lat="44.32505" lon="4.55182">
        <ele>133.8</ele>
        <time>2022-06-11T12:36:49Z</time>
      </trkpt>
      <trkpt lat="44.32498" lon="4.5519">
        <ele>133</ele>
        <time>2022-06-11T12:36:50Z</time>
      </trkpt>
      <trkpt lat="44.32491" lon="4.55198">
        <ele>132.2</ele>
        <time>2022-06-11T12:36:51Z</time>
      </trkpt>
      <trkpt lat="44.32484" lon="4.55206">
        <ele>131.3</ele>
        <time>2022-06-11T12:36:52Z</time>
      </trkpt>
      <trkpt lat="44.32477" lon="4.55214">
        <ele>130.4</ele>
        <time>2022-06-11T12:36:53Z</time>
      </trkpt>
      <trkpt lat="44.32469" lon="4.55221">
        <ele>129.6</ele>
        <time>2022-06-11T12:36:54Z</time>
      </trkpt>
      <trkpt lat="44.32461" lon="4.55228">
        <ele>128.7</ele>
        <time>2022-06-11T12:36:55Z</time>
      </trkpt>
      <trkpt lat="44.32452" lon="4.55235">
        <ele>127.8</ele>
        <time>2022-06-11T12:36:56Z</time>
      </trkpt>
      <trkpt lat="44.32443" lon="4.55241">
        <ele>126.9</ele>
        <time>2022-06-11T12:36:57Z</time>
      </trkpt>
      <trkpt lat="44.32435" lon="4.55248">
        <ele>125.9</ele>
        <time>2022-06-11T12:36:58Z</time>
      </trkpt>
      <trkpt lat="44.32426" lon="4.55256">
        <ele>125</ele>
        <time>2022-06-11T12:36:59Z</time>
      </trkpt>
      <trkpt lat="44.32417" lon="4.55263">
        <ele>124.1</ele>
        <time>2022-06-11T12:37:00Z</time>
      </trkpt>
      <trkpt lat="44.32408" lon="4.5527">
        <ele>123.2</ele>
        <time>2022-06-11T12:37:01Z</time>
      </trkpt>
      <trkpt lat="44.324" lon="4.55279">
        <ele>122.3</ele>
        <time>2022-06-11T12:37:02Z</time>
      </trkpt>
      <trkpt lat="44.32392" lon="4.55287">
        <ele>121.5</ele>
        <time>2022-06-11T12:37:03Z</time>
      </trkpt>
      <trkpt lat="44.32384" lon="4.55298">
        <ele>120.6</ele>
        <time>2022-06-11T12:37:04Z</time>
      </trkpt>
      <trkpt lat="44.32377" lon="4.5531">
        <ele>119.6</ele>
        <time>2022-06-11T12:37:05Z</time>
      </trkpt>
      <trkpt lat="44.32371" lon="4.55321">
        <ele>118.7</ele>
        <time>2022-06-11T12:37:06Z</time>
      </trkpt>
      <trkpt lat="44.32363" lon="4.55332">
        <ele>117.7</ele>
        <time>2022-06-11T12:37:07Z</time>
      </trkpt>
      <trkpt lat="44.32355" lon="4.55341">
        <ele>116.8</ele>
        <time>2022-06-11T12:37:08Z</time>
      </trkpt>
      <trkpt lat="44.32346" lon="4.5535">
        <ele>115.8</ele>
        <time>2022-06-11T12:37:09Z</time>
      </trkpt>
      <trkpt lat="44.32336" lon="4.55359">
        <ele>114.8</ele>
        <time>2022-06-11T12:37:10Z</time>
      </trkpt>
      <trkpt lat="44.32326" lon="4.55366">
        <ele>113.9</ele>
        <time>2022-06-11T12:37:11Z</time>
      </trkpt>
      <trkpt lat="44.32316" lon="4.55374">
        <ele>113</ele>
        <time>2022-06-11T12:37:12Z</time>
      </trkpt>
      <trkpt lat="44.32306" lon="4.55382">
        <ele>112.2</ele>
        <time>2022-06-11T12:37:13Z</time>
      </trkpt>
      <trkpt lat="44.32297" lon="4.55389">
        <ele>111.5</ele>
        <time>2022-06-11T12:37:14Z</time>
      </trkpt>
      <trkpt lat="44.32287" lon="4.55397">
        <ele>110.8</ele>
        <time>2022-06-11T12:37:15Z</time>
      </trkpt>
      <trkpt lat="44.32277" lon="4.55405">
        <ele>110.1</ele>
        <time>2022-06-11T12:37:16Z</time>
      </trkpt>
      <trkpt lat="44.32268" lon="4.55413">
        <ele>109.5</ele>
        <time>2022-06-11T12:37:17Z</time>
      </trkpt>
      <trkpt lat="44.32259" lon="4.55421">
        <ele>108.9</ele>
        <time>2022-06-11T12:37:18Z</time>
      </trkpt>
      <trkpt lat="44.32252" lon="4.55432">
        <ele>108.3</ele>
        <time>2022-06-11T12:37:19Z</time>
      </trkpt>
      <trkpt lat="44.32246" lon="4.55445">
        <ele>107.7</ele>
        <time>2022-06-11T12:37:20Z</time>
      </trkpt>
      <trkpt lat="44.32243" lon="4.55459">
        <ele>107.1</ele>
        <time>2022-06-11T12:37:21Z</time>
      </trkpt>
      <trkpt lat="44.32241" lon="4.55473">
        <ele>106.6</ele>
        <time>2022-06-11T12:37:22Z</time>
      </trkpt>
      <trkpt lat="44.32242" lon="4.55487">
        <ele>106</ele>
        <time>2022-06-11T12:37:23Z</time>
      </trkpt>
      <trkpt lat="44.32243" lon="4.55501">
        <ele>105.5</ele>
        <time>2022-06-11T12:37:24Z</time>
      </trkpt>
      <trkpt lat="44.32243" lon="4.55514">
        <ele>105</ele>
        <time>2022-06-11T12:37:25Z</time>
      </trkpt>
      <trkpt lat="44.32244" lon="4.55527">
        <ele>104.7</ele>
        <time>2022-06-11T12:37:26Z</time>
      </trkpt>
      <trkpt lat="44.32245" lon="4.5554">
        <ele>104.3</ele>
        <time>2022-06-11T12:37:27Z</time>
      </trkpt>
      <trkpt lat="44.32246" lon="4.55553">
        <ele>104.1</ele>
        <time>2022-06-11T12:37:28Z</time>
      </trkpt>
      <trkpt lat="44.32247" lon="4.55566">
        <ele>103.8</ele>
        <time>2022-06-11T12:37:29Z</time>
      </trkpt>
      <trkpt lat="44.32247" lon="4.55578">
        <ele>103.5</ele>
        <time>2022-06-11T12:37:30Z</time>
      </trkpt>
      <trkpt lat="44.32248" lon="4.55591">
        <ele>103.2</ele>
        <time>2022-06-11T12:37:31Z</time>
      </trkpt>
      <trkpt lat="44.3225" lon="4.55604">
        <ele>102.9</ele>
        <time>2022-06-11T12:37:32Z</time>
      </trkpt>
      <trkpt lat="44.32251" lon="4.55617">
        <ele>102.7</ele>
        <time>2022-06-11T12:37:33Z</time>
      </trkpt>
      <trkpt lat="44.32253" lon="4.5563">
        <ele>102.4</ele>
        <time>2022-06-11T12:37:34Z</time>
      </trkpt>
      <trkpt lat="44.32254" lon="4.55642">
        <ele>102.1</ele>
        <time>2022-06-11T12:37:35Z</time>
      </trkpt>
      <trkpt lat="44.32256" lon="4.55655">
        <ele>101.9</ele>
        <time>2022-06-11T12:37:36Z</time>
      </trkpt>
      <trkpt lat="44.32257" lon="4.55668">
        <ele>101.7</ele>
        <time>2022-06-11T12:37:37Z</time>
      </trkpt>
      <trkpt lat="44.32257" lon="4.55681">
        <ele>101.5</ele>
        <time>2022-06-11T12:37:38Z</time>
      </trkpt>
      <trkpt lat="44.32258" lon="4.55694">
        <ele>101.3</ele>
        <time>2022-06-11T12:37:39Z</time>
      </trkpt>
      <trkpt lat="44.32259" lon="4.55708">
        <ele>100.9</ele>
        <time>2022-06-11T12:37:40Z</time>
      </trkpt>
      <trkpt lat="44.32259" lon="4.55721">
        <ele>100.5</ele>
        <time>2022-06-11T12:37:41Z</time>
      </trkpt>
      <trkpt lat="44.3226" lon="4.55734">
        <ele>100.2</ele>
        <time>2022-06-11T12:37:42Z</time>
      </trkpt>
      <trkpt lat="44.32258" lon="4.55747">
        <ele>99.9</ele>
        <time>2022-06-11T12:37:43Z</time>
      </trkpt>
      <trkpt lat="44.32255" lon="4.55759">
        <ele>99.7</ele>
        <time>2022-06-11T12:37:44Z</time>
      </trkpt>
      <trkpt lat="44.32249" lon="4.55769">
        <ele>99.3</ele>
        <time>2022-06-11T12:37:45Z</time>
      </trkpt>
      <trkpt lat="44.32241" lon="4.55776">
        <ele>99</ele>
        <time>2022-06-11T12:37:46Z</time>
      </trkpt>
      <trkpt lat="44.32231" lon="4.55779">
        <ele>98.6</ele>
        <time>2022-06-11T12:37:47Z</time>
      </trkpt>
      <trkpt lat="44.32222" lon="4.55779">
        <ele>98.4</ele>
        <time>2022-06-11T12:37:48Z</time>
      </trkpt>
      <trkpt lat="44.32213" lon="4.55776">
        <ele>98.4</ele>
        <time>2022-06-11T12:37:49Z</time>
      </trkpt>
      <trkpt lat="44.32205" lon="4.5577">
        <ele>98.4</ele>
        <time>2022-06-11T12:37:50Z</time>
      </trkpt>
      <trkpt lat="44.32199" lon="4.55762">
        <ele>98.5</ele>
        <time>2022-06-11T12:37:51Z</time>
      </trkpt>
      <trkpt lat="44.32194" lon="4.55752">
        <ele>98.6</ele>
        <time>2022-06-11T12:37:52Z</time>
      </trkpt>
      <trkpt lat="44.32191" lon="4.55742">
        <ele>98.8</ele>
        <time>2022-06-11T12:37:53Z</time>
      </trkpt>
      <trkpt lat="44.3219" lon="4.55732">
        <ele>99.1</ele>
        <time>2022-06-11T12:37:54Z</time>
      </trkpt>
      <trkpt lat="44.32191" lon="4.55723">
        <ele>99.5</ele>
        <time>2022-06-11T12:37:55Z</time>
      </trkpt>
      <trkpt lat="44.32192" lon="4.55715">
        <ele>99.8</ele>
        <time>2022-06-11T12:37:56Z</time>
      </trkpt>
      <trkpt lat="44.32193" lon="4.55708">
        <ele>100.1</ele>
        <time>2022-06-11T12:37:57Z</time>
      </trkpt>
      <trkpt lat="44.32193" lon="4.55702">
        <ele>100.5</ele>
        <time>2022-06-11T12:37:58Z</time>
      </trkpt>
      <trkpt lat="44.32193" lon="4.55696">
        <ele>100.8</ele>
        <time>2022-06-11T12:37:59Z</time>
      </trkpt>
      <trkpt lat="44.32193" lon="4.55691">
        <ele>101.1</ele>
        <time>2022-06-11T12:38:00Z</time>
      </trkpt>
      <trkpt lat="44.32193" lon="4.55686">
        <ele>101.4</ele>
        <time>2022-06-11T12:38:01Z</time>
      </trkpt>
      <trkpt lat="44.32192" lon="4.55682">
        <ele>101.6</ele>
        <time>2022-06-11T12:38:02Z</time>
      </trkpt>
      <trkpt lat="44.32192" lon="4.55678">
        <ele>101.9</ele>
        <time>2022-06-11T12:38:03Z</time>
      </trkpt>
      <trkpt lat="44.32192" lon="4.55675">
        <ele>102.1</ele>
        <time>2022-06-11T12:38:04Z</time>
      </trkpt>
      <trkpt lat="44.3219" lon="4.5567">
        <ele>102.4</ele>
        <time>2022-06-11T12:38:05Z</time>
      </trkpt>
      <trkpt lat="44.3219" lon="4.55669">
        <ele>102.5</ele>
        <time>2022-06-11T12:38:06Z</time>
      </trkpt>
      <trkpt lat="44.32188" lon="4.55664">
        <ele>102.9</ele>
        <time>2022-06-11T12:38:07Z</time>
      </trkpt>
      <trkpt lat="44.32188" lon="4.55662">
        <ele>103</ele>
        <time>2022-06-11T12:38:08Z</time>
      </trkpt>
      <trkpt lat="44.32187" lon="4.55657">
        <ele>103.3</ele>
        <time>2022-06-11T12:38:09Z</time>
      </trkpt>
      <trkpt lat="44.32186" lon="4.55656">
        <ele>103.5</ele>
        <time>2022-06-11T12:38:10Z</time>
      </trkpt>
      <trkpt lat="44.32184" lon="4.55652">
        <ele>103.8</ele>
        <time>2022-06-11T12:38:11Z</time>
      </trkpt>
      <trkpt lat="44.32183" lon="4.55651">
        <ele>103.9</ele>
        <time>2022-06-11T12:38:12Z</time>
      </trkpt>
      <trkpt lat="44.32182" lon="4.55646">
        <ele>104.2</ele>
        <time>2022-06-11T12:38:13Z</time>
      </trkpt>
      <trkpt lat="44.32181" lon="4.55644">
        <ele>104.3</ele>
        <time>2022-06-11T12:38:14Z</time>
      </trkpt>
      <trkpt lat="44.3218" lon="4.55641">
        <ele>104.6</ele>
        <time>2022-06-11T12:38:15Z</time>
      </trkpt>
      <trkpt lat="44.32179" lon="4.5564">
        <ele>104.7</ele>
        <time>2022-06-11T12:38:16Z</time>
      </trkpt>
      <trkpt lat="44.32177" lon="4.55636">
        <ele>105</ele>
        <time>2022-06-11T12:38:17Z</time>
      </trkpt>
      <trkpt lat="44.32177" lon="4.55634">
        <ele>105.1</ele>
        <time>2022-06-11T12:38:18Z</time>
      </trkpt>
      <trkpt lat="44.32176" lon="4.5563">
        <ele>105.4</ele>
        <time>2022-06-11T12:38:19Z</time>
      </trkpt>
      <trkpt lat="44.32175" lon="4.55628">
        <ele>105.5</ele>
        <time>2022-06-11T12:38:20Z</time>
      </trkpt>
      <trkpt lat="44.32174" lon="4.55625">
        <ele>105.7</ele>
        <time>2022-06-11T12:38:21Z</time>
      </trkpt>
      <trkpt lat="44.32173" lon="4.55624">
        <ele>105.8</ele>
        <time>2022-06-11T12:38:22Z</time>
      </trkpt>
      <trkpt lat="44.32172" lon="4.55621">
        <ele>106.1</ele>
        <time>2022-06-11T12:38:23Z</time>
      </trkpt>
      <trkpt lat="44.32171" lon="4.55619">
        <ele>106.2</ele>
        <time>2022-06-11T12:38:24Z</time>
      </trkpt>
      <trkpt lat="44.3217" lon="4.55618">
        <ele>106.3</ele>
        <time>2022-06-11T12:38:25Z</time>
      </trkpt>
      <trkpt lat="44.32169" lon="4.55615">
        <ele>106.5</ele>
        <time>2022-06-11T12:38:26Z</time>
      </trkpt>
      <trkpt lat="44.32168" lon="4.55612">
        <ele>106.7</ele>
        <time>2022-06-11T12:38:27Z</time>
      </trkpt>
      <trkpt lat="44.32168" lon="4.55611">
        <ele>106.8</ele>
        <time>2022-06-11T12:38:28Z</time>
      </trkpt>
      <trkpt lat="44.32167" lon="4.55608">
        <ele>107</ele>
        <time>2022-06-11T12:38:29Z</time>
      </trkpt>
      <trkpt lat="44.32166" lon="4.55606">
        <ele>107.1</ele>
        <time>2022-06-11T12:38:30Z</time>
      </trkpt>
      <trkpt lat="44.32165" lon="4.55604">
        <ele>107.3</ele>
        <time>2022-06-11T12:38:31Z</time>
      </trkpt>
      <trkpt lat="44.32164" lon="4.55602">
        <ele>107.4</ele>
        <time>2022-06-11T12:38:32Z</time>
      </trkpt>
      <trkpt lat="44.32164" lon="4.556">
        <ele>107.6</ele>
        <time>2022-06-11T12:38:33Z</time>
      </trkpt>
      <trkpt lat="44.32163" lon="4.55598">
        <ele>107.8</ele>
        <time>2022-06-11T12:38:34Z</time>
      </trkpt>
      <trkpt lat="44.32162" lon="4.55596">
        <ele>107.9</ele>
        <time>2022-06-11T12:38:35Z</time>
      </trkpt>
      <trkpt lat="44.32161" lon="4.55591">
        <ele>108.2</ele>
        <time>2022-06-11T12:38:37Z</time>
      </trkpt>
      <trkpt lat="44.3216" lon="4.55589">
        <ele>108.4</ele>
        <time>2022-06-11T12:38:38Z</time>
      </trkpt>
      <trkpt lat="44.32159" lon="4.55587">
        <ele>108.6</ele>
        <time>2022-06-11T12:38:39Z</time>
      </trkpt>
      <trkpt lat="44.32158" lon="4.55585">
        <ele>108.7</ele>
        <time>2022-06-11T12:38:40Z</time>
      </trkpt>
      <trkpt lat="44.32158" lon="4.55583">
        <ele>108.9</ele>
        <time>2022-06-11T12:38:41Z</time>
      </trkpt>
      <trkpt lat="44.32157" lon="4.5558">
        <ele>109</ele>
        <time>2022-06-11T12:38:42Z</time>
      </trkpt>
      <trkpt lat="44.32157" lon="4.55578">
        <ele>109.2</ele>
        <time>2022-06-11T12:38:43Z</time>
      </trkpt>
      <trkpt lat="44.32156" lon="4.55576">
        <ele>109.3</ele>
        <time>2022-06-11T12:38:44Z</time>
      </trkpt>
      <trkpt lat="44.32156" lon="4.55574">
        <ele>109.5</ele>
        <time>2022-06-11T12:38:45Z</time>
      </trkpt>
      <trkpt lat="44.32155" lon="4.55572">
        <ele>109.6</ele>
        <time>2022-06-11T12:38:46Z</time>
      </trkpt>
      <trkpt lat="44.32155" lon="4.5557">
        <ele>109.8</ele>
        <time>2022-06-11T12:38:47Z</time>
      </trkpt>
      <trkpt lat="44.32154" lon="4.55568">
        <ele>109.9</ele>
        <time>2022-06-11T12:38:48Z</time>
      </trkpt>
      <trkpt lat="44.32154" lon="4.55566">
        <ele>110.1</ele>
        <time>2022-06-11T12:38:49Z</time>
      </trkpt>
      <trkpt lat="44.32153" lon="4.55564">
        <ele>110.2</ele>
        <time>2022-06-11T12:38:50Z</time>
      </trkpt>
      <trkpt lat="44.32152" lon="4.55562">
        <ele>110.4</ele>
        <time>2022-06-11T12:38:51Z</time>
      </trkpt>
      <trkpt lat="44.32152" lon="4.55559">
        <ele>110.5</ele>
        <time>2022-06-11T12:38:52Z</time>
      </trkpt>
      <trkpt lat="44.32151" lon="4.55557">
        <ele>110.7</ele>
        <time>2022-06-11T12:38:53Z</time>
      </trkpt>
      <trkpt lat="44.32151" lon="4.55555">
        <ele>110.8</ele>
        <time>2022-06-11T12:38:54Z</time>
      </trkpt>
      <trkpt lat="44.32151" lon="4.55553">
        <ele>111</ele>
        <time>2022-06-11T12:38:55Z</time>
      </trkpt>
      <trkpt lat="44.32151" lon="4.55551">
        <ele>111.1</ele>
        <time>2022-06-11T12:38:56Z</time>
      </trkpt>
      <trkpt lat="44.3215" lon="4.55549">
        <ele>111.3</ele>
        <time>2022-06-11T12:38:57Z</time>
      </trkpt>
      <trkpt lat="44.3215" lon="4.55547">
        <ele>111.4</ele>
        <time>2022-06-11T12:38:58Z</time>
      </trkpt>
      <trkpt lat="44.32149" lon="4.55544">
        <ele>111.6</ele>
        <time>2022-06-11T12:38:59Z</time>
      </trkpt>
      <trkpt lat="44.32149" lon="4.55542">
        <ele>111.7</ele>
        <time>2022-06-11T12:39:00Z</time>
      </trkpt>
      <trkpt lat="44.32148" lon="4.5554">
        <ele>111.9</ele>
        <time>2022-06-11T12:39:01Z</time>
      </trkpt>
      <trkpt lat="44.32148" lon="4.55538">
        <ele>112</ele>
        <time>2022-06-11T12:39:02Z</time>
      </trkpt>
      <trkpt lat="44.32147" lon="4.55535">
        <ele>112.2</ele>
        <time>2022-06-11T12:39:03Z</time>
      </trkpt>
      <trkpt lat="44.32147" lon="4.55533">
        <ele>112.3</ele>
        <time>2022-06-11T12:39:04Z</time>
      </trkpt>
      <trkpt lat="44.32147" lon="4.55531">
        <ele>112.5</ele>
        <time>2022-06-11T12:39:05Z</time>
      </trkpt>
      <trkpt lat="44.32146" lon="4.55527">
        <ele>112.7</ele>
        <time>2022-06-11T12:39:06Z</time>
      </trkpt>
      <trkpt lat="44.32146" lon="4.55526">
        <ele>112.8</ele>
        <time>2022-06-11T12:39:07Z</time>
      </trkpt>
      <trkpt lat="44.32145" lon="4.55524">
        <ele>113</ele>
        <time>2022-06-11T12:39:08Z</time>
      </trkpt>
      <trkpt lat="44.32145" lon="4.55521">
        <ele>113.1</ele>
        <time>2022-06-11T12:39:09Z</time>
      </trkpt>
      <trkpt lat="44.32145" lon="4.55519">
        <ele>113.3</ele>
        <time>2022-06-11T12:39:10Z</time>
      </trkpt>
      <trkpt lat="44.32144" lon="4.55517">
        <ele>113.4</ele>
        <time>2022-06-11T12:39:11Z</time>
      </trkpt>
      <trkpt lat="44.32144" lon="4.55515">
        <ele>113.6</ele>
        <time>2022-06-11T12:39:12Z</time>
      </trkpt>
      <trkpt lat="44.32143" lon="4.55513">
        <ele>113.7</ele>
        <time>2022-06-11T12:39:13Z</time>
      </trkpt>
      <trkpt lat="44.32143" lon="4.5551">
        <ele>113.9</ele>
        <time>2022-06-11T12:39:14Z</time>
      </trkpt>
      <trkpt lat="44.32143" lon="4.55508">
        <ele>114</ele>
        <time>2022-06-11T12:39:15Z</time>
      </trkpt>
      <trkpt lat="44.32142" lon="4.55506">
        <ele>114.2</ele>
        <time>2022-06-11T12:39:16Z</time>
      </trkpt>
      <trkpt lat="44.32142" lon="4.55504">
        <ele>114.3</ele>
        <time>2022-06-11T12:39:17Z</time>
      </trkpt>
      <trkpt lat="44.32142" lon="4.55501">
        <ele>114.5</ele>
        <time>2022-06-11T12:39:18Z</time>
      </trkpt>
      <trkpt lat="44.32142" lon="4.55499">
        <ele>114.6</ele>
        <time>2022-06-11T12:39:19Z</time>
      </trkpt>
      <trkpt lat="44.32141" lon="4.55495">
        <ele>114.9</ele>
        <time>2022-06-11T12:39:21Z</time>
      </trkpt>
      <trkpt lat="44.32141" lon="4.55492">
        <ele>115.1</ele>
        <time>2022-06-11T12:39:22Z</time>
      </trkpt>
      <trkpt lat="44.3214" lon="4.55491">
        <ele>115.2</ele>
        <time>2022-06-11T12:39:23Z</time>
      </trkpt>
      <trkpt lat="44.3214" lon="4.55488">
        <ele>115.3</ele>
        <time>2022-06-11T12:39:24Z</time>
      </trkpt>
      <trkpt lat="44.3214" lon="4.55486">
        <ele>115.5</ele>
        <time>2022-06-11T12:39:25Z</time>
      </trkpt>
      <trkpt lat="44.32139" lon="4.55484">
        <ele>115.6</ele>
        <time>2022-06-11T12:39:26Z</time>
      </trkpt>
      <trkpt lat="44.32139" lon="4.5548">
        <ele>115.9</ele>
        <time>2022-06-11T12:39:27Z</time>
      </trkpt>
      <trkpt lat="44.32138" lon="4.55476">
        <ele>116.1</ele>
        <time>2022-06-11T12:39:29Z</time>
      </trkpt>
      <trkpt lat="44.32137" lon="4.55474">
        <ele>116.2</ele>
        <time>2022-06-11T12:39:30Z</time>
      </trkpt>
      <trkpt lat="44.32137" lon="4.55472">
        <ele>116.3</ele>
        <time>2022-06-11T12:39:31Z</time>
      </trkpt>
      <trkpt lat="44.32135" lon="4.55469">
        <ele>116.6</ele>
        <time>2022-06-11T12:39:32Z</time>
      </trkpt>
      <trkpt lat="44.32135" lon="4.55467">
        <ele>116.7</ele>
        <time>2022-06-11T12:39:33Z</time>
      </trkpt>
      <trkpt lat="44.32134" lon="4.55463">
        <ele>116.9</ele>
        <time>2022-06-11T12:39:34Z</time>
      </trkpt>
      <trkpt lat="44.32134" lon="4.55462">
        <ele>117</ele>
        <time>2022-06-11T12:39:35Z</time>
      </trkpt>
      <trkpt lat="44.32132" lon="4.55458">
        <ele>117.2</ele>
        <time>2022-06-11T12:39:36Z</time>
      </trkpt>
      <trkpt lat="44.32132" lon="4.55457">
        <ele>117.3</ele>
        <time>2022-06-11T12:39:37Z</time>
      </trkpt>
      <trkpt lat="44.32131" lon="4.55453">
        <ele>117.5</ele>
        <time>2022-06-11T12:39:38Z</time>
      </trkpt>
      <trkpt lat="44.3213" lon="4.55452">
        <ele>117.6</ele>
        <time>2022-06-11T12:39:39Z</time>
      </trkpt>
      <trkpt lat="44.32128" lon="4.55448">
        <ele>117.8</ele>
        <time>2022-06-11T12:39:40Z</time>
      </trkpt>
      <trkpt lat="44.32128" lon="4.55447">
        <ele>117.9</ele>
        <time>2022-06-11T12:39:41Z</time>
      </trkpt>
      <trkpt lat="44.32125" lon="4.55443">
        <ele>118.1</ele>
        <time>2022-06-11T12:39:42Z</time>
      </trkpt>
      <trkpt lat="44.32125" lon="4.55442">
        <ele>118.2</ele>
        <time>2022-06-11T12:39:43Z</time>
      </trkpt>
      <trkpt lat="44.32124" lon="4.55439">
        <ele>118.3</ele>
        <time>2022-06-11T12:39:44Z</time>
      </trkpt>
      <trkpt lat="44.32123" lon="4.55438">
        <ele>118.4</ele>
        <time>2022-06-11T12:39:45Z</time>
      </trkpt>
      <trkpt lat="44.32121" lon="4.55435">
        <ele>118.6</ele>
        <time>2022-06-11T12:39:46Z</time>
      </trkpt>
      <trkpt lat="44.32118" lon="4.55431">
        <ele>118.8</ele>
        <time>2022-06-11T12:39:47Z</time>
      </trkpt>
      <trkpt lat="44.32117" lon="4.5543">
        <ele>118.8</ele>
        <time>2022-06-11T12:39:48Z</time>
      </trkpt>
      <trkpt lat="44.32115" lon="4.55428">
        <ele>119</ele>
        <time>2022-06-11T12:39:49Z</time>
      </trkpt>
      <trkpt lat="44.32114" lon="4.55427">
        <ele>119.1</ele>
        <time>2022-06-11T12:39:50Z</time>
      </trkpt>
      <trkpt lat="44.32111" lon="4.55424">
        <ele>119.3</ele>
        <time>2022-06-11T12:39:51Z</time>
      </trkpt>
      <trkpt lat="44.3211" lon="4.55423">
        <ele>119.3</ele>
        <time>2022-06-11T12:39:52Z</time>
      </trkpt>
      <trkpt lat="44.32107" lon="4.5542">
        <ele>119.5</ele>
        <time>2022-06-11T12:39:53Z</time>
      </trkpt>
      <trkpt lat="44.32103" lon="4.55417">
        <ele>119.7</ele>
        <time>2022-06-11T12:39:55Z</time>
      </trkpt>
      <trkpt lat="44.32101" lon="4.55415">
        <ele>119.8</ele>
        <time>2022-06-11T12:39:56Z</time>
      </trkpt>
      <trkpt lat="44.321" lon="4.55414">
        <ele>119.9</ele>
        <time>2022-06-11T12:39:57Z</time>
      </trkpt>
      <trkpt lat="44.32096" lon="4.55411">
        <ele>120</ele>
        <time>2022-06-11T12:39:58Z</time>
      </trkpt>
      <trkpt lat="44.32095" lon="4.5541">
        <ele>120.1</ele>
        <time>2022-06-11T12:39:59Z</time>
      </trkpt>
      <trkpt lat="44.32093" lon="4.55409">
        <ele>120.2</ele>
        <time>2022-06-11T12:40:00Z</time>
      </trkpt>
      <trkpt lat="44.3209" lon="4.55407">
        <ele>120.4</ele>
        <time>2022-06-11T12:40:01Z</time>
      </trkpt>
      <trkpt lat="44.32089" lon="4.55406">
        <ele>120.4</ele>
        <time>2022-06-11T12:40:02Z</time>
      </trkpt>
      <trkpt lat="44.32086" lon="4.55403">
        <ele>120.6</ele>
        <time>2022-06-11T12:40:03Z</time>
      </trkpt>
      <trkpt lat="44.32085" lon="4.55402">
        <ele>120.6</ele>
        <time>2022-06-11T12:40:04Z</time>
      </trkpt>
      <trkpt lat="44.32082" lon="4.55399">
        <ele>120.8</ele>
        <time>2022-06-11T12:40:05Z</time>
      </trkpt>
      <trkpt lat="44.32081" lon="4.55398">
        <ele>120.8</ele>
        <time>2022-06-11T12:40:06Z</time>
      </trkpt>
      <trkpt lat="44.32078" lon="4.55395">
        <ele>121</ele>
        <time>2022-06-11T12:40:07Z</time>
      </trkpt>
      <trkpt lat="44.32077" lon="4.55394">
        <ele>121</ele>
        <time>2022-06-11T12:40:08Z</time>
      </trkpt>
      <trkpt lat="44.32074" lon="4.5539">
        <ele>121.2</ele>
        <time>2022-06-11T12:40:09Z</time>
      </trkpt>
      <trkpt lat="44.32073" lon="4.55388">
        <ele>121.2</ele>
        <time>2022-06-11T12:40:10Z</time>
      </trkpt>
      <trkpt lat="44.32071" lon="4.55383">
        <ele>121.3</ele>
        <time>2022-06-11T12:40:11Z</time>
      </trkpt>
      <trkpt lat="44.32071" lon="4.55381">
        <ele>121.4</ele>
        <time>2022-06-11T12:40:12Z</time>
      </trkpt>
      <trkpt lat="44.3207" lon="4.55378">
        <ele>121.4</ele>
        <time>2022-06-11T12:40:13Z</time>
      </trkpt>
      <trkpt lat="44.32071" lon="4.55373">
        <ele>121.5</ele>
        <time>2022-06-11T12:40:14Z</time>
      </trkpt>
      <trkpt lat="44.32071" lon="4.55369">
        <ele>121.6</ele>
        <time>2022-06-11T12:40:15Z</time>
      </trkpt>
      <trkpt lat="44.32072" lon="4.55365">
        <ele>121.7</ele>
        <time>2022-06-11T12:40:16Z</time>
      </trkpt>
      <trkpt lat="44.32074" lon="4.55362">
        <ele>121.8</ele>
        <time>2022-06-11T12:40:17Z</time>
      </trkpt>
      <trkpt lat="44.32077" lon="4.55359">
        <ele>121.8</ele>
        <time>2022-06-11T12:40:18Z</time>
      </trkpt>
      <trkpt lat="44.32082" lon="4.55354">
        <ele>122</ele>
        <time>2022-06-11T12:40:20Z</time>
      </trkpt>
      <trkpt lat="44.32084" lon="4.55351">
        <ele>122</ele>
        <time>2022-06-11T12:40:21Z</time>
      </trkpt>
      <trkpt lat="44.32088" lon="4.55349">
        <ele>122.1</ele>
        <time>2022-06-11T12:40:22Z</time>
      </trkpt>
      <trkpt lat="44.32091" lon="4.55347">
        <ele>122.2</ele>
        <time>2022-06-11T12:40:24Z</time>
      </trkpt>
      <trkpt lat="44.32095" lon="4.55345">
        <ele>122.3</ele>
        <time>2022-06-11T12:40:25Z</time>
      </trkpt>
      <trkpt lat="44.32099" lon="4.55343">
        <ele>122.4</ele>
        <time>2022-06-11T12:40:27Z</time>
      </trkpt>
      <trkpt lat="44.32101" lon="4.55342">
        <ele>122.4</ele>
        <time>2022-06-11T12:40:28Z</time>
      </trkpt>
      <trkpt lat="44.32102" lon="4.55341">
        <ele>122.5</ele>
        <time>2022-06-11T12:40:29Z</time>
      </trkpt>
      <trkpt lat="44.32104" lon="4.55339">
        <ele>122.5</ele>
        <time>2022-06-11T12:40:30Z</time>
      </trkpt>
      <trkpt lat="44.32105" lon="4.55338">
        <ele>122.6</ele>
        <time>2022-06-11T12:40:31Z</time>
      </trkpt>
      <trkpt lat="44.32108" lon="4.55336">
        <ele>122.7</ele>
        <time>2022-06-11T12:40:32Z</time>
      </trkpt>
      <trkpt lat="44.32109" lon="4.55335">
        <ele>122.7</ele>
        <time>2022-06-11T12:40:33Z</time>
      </trkpt>
      <trkpt lat="44.32112" lon="4.55333">
        <ele>122.8</ele>
        <time>2022-06-11T12:40:34Z</time>
      </trkpt>
      <trkpt lat="44.32113" lon="4.55332">
        <ele>122.8</ele>
        <time>2022-06-11T12:40:35Z</time>
      </trkpt>
      <trkpt lat="44.32116" lon="4.5533">
        <ele>122.9</ele>
        <time>2022-06-11T12:40:36Z</time>
      </trkpt>
      <trkpt lat="44.32117" lon="4.55329">
        <ele>123</ele>
        <time>2022-06-11T12:40:37Z</time>
      </trkpt>
      <trkpt lat="44.3212" lon="4.55327">
        <ele>123.1</ele>
        <time>2022-06-11T12:40:38Z</time>
      </trkpt>
      <trkpt lat="44.32121" lon="4.55326">
        <ele>123.1</ele>
        <time>2022-06-11T12:40:39Z</time>
      </trkpt>
      <trkpt lat="44.32124" lon="4.55322">
        <ele>123.2</ele>
        <time>2022-06-11T12:40:40Z</time>
      </trkpt>
      <trkpt lat="44.32125" lon="4.55321">
        <ele>123.3</ele>
        <time>2022-06-11T12:40:41Z</time>
      </trkpt>
      <trkpt lat="44.32127" lon="4.55319">
        <ele>123.3</ele>
        <time>2022-06-11T12:40:42Z</time>
      </trkpt>
      <trkpt lat="44.32131" lon="4.55315">
        <ele>123.5</ele>
        <time>2022-06-11T12:40:43Z</time>
      </trkpt>
      <trkpt lat="44.32132" lon="4.55314">
        <ele>123.5</ele>
        <time>2022-06-11T12:40:44Z</time>
      </trkpt>
      <trkpt lat="44.32134" lon="4.55312">
        <ele>123.6</ele>
        <time>2022-06-11T12:40:45Z</time>
      </trkpt>
      <trkpt lat="44.32138" lon="4.55308">
        <ele>123.7</ele>
        <time>2022-06-11T12:40:46Z</time>
      </trkpt>
      <trkpt lat="44.3214" lon="4.55304">
        <ele>123.8</ele>
        <time>2022-06-11T12:40:48Z</time>
      </trkpt>
      <trkpt lat="44.32141" lon="4.55301">
        <ele>123.9</ele>
        <time>2022-06-11T12:40:49Z</time>
      </trkpt>
      <trkpt lat="44.32143" lon="4.55298">
        <ele>124</ele>
        <time>2022-06-11T12:40:50Z</time>
      </trkpt>
      <trkpt lat="44.32146" lon="4.55294">
        <ele>124.1</ele>
        <time>2022-06-11T12:40:51Z</time>
      </trkpt>
      <trkpt lat="44.32147" lon="4.55293">
        <ele>124.1</ele>
        <time>2022-06-11T12:40:52Z</time>
      </trkpt>
      <trkpt lat="44.32149" lon="4.5529">
        <ele>124.2</ele>
        <time>2022-06-11T12:40:53Z</time>
      </trkpt>
      <trkpt lat="44.32151" lon="4.55287">
        <ele>124.3</ele>
        <time>2022-06-11T12:40:54Z</time>
      </trkpt>
      <trkpt lat="44.32153" lon="4.55284">
        <ele>124.3</ele>
        <time>2022-06-11T12:40:55Z</time>
      </trkpt>
      <trkpt lat="44.32157" lon="4.55278">
        <ele>124.5</ele>
        <time>2022-06-11T12:40:56Z</time>
      </trkpt>
      <trkpt lat="44.32159" lon="4.55275">
        <ele>124.6</ele>
        <time>2022-06-11T12:40:57Z</time>
      </trkpt>
      <trkpt lat="44.32161" lon="4.55272">
        <ele>124.6</ele>
        <time>2022-06-11T12:40:59Z</time>
      </trkpt>
      <trkpt lat="44.32163" lon="4.55269">
        <ele>124.7</ele>
        <time>2022-06-11T12:41:00Z</time>
      </trkpt>
      <trkpt lat="44.32166" lon="4.55265">
        <ele>124.8</ele>
        <time>2022-06-11T12:41:01Z</time>
      </trkpt>
      <trkpt lat="44.3217" lon="4.5526">
        <ele>125</ele>
        <time>2022-06-11T12:41:03Z</time>
      </trkpt>
      <trkpt lat="44.32172" lon="4.55257">
        <ele>125</ele>
        <time>2022-06-11T12:41:04Z</time>
      </trkpt>
      <trkpt lat="44.32174" lon="4.55253">
        <ele>125.1</ele>
        <time>2022-06-11T12:41:05Z</time>
      </trkpt>
      <trkpt lat="44.32175" lon="4.55252">
        <ele>125.2</ele>
        <time>2022-06-11T12:41:06Z</time>
      </trkpt>
      <trkpt lat="44.32178" lon="4.55248">
        <ele>125.3</ele>
        <time>2022-06-11T12:41:07Z</time>
      </trkpt>
      <trkpt lat="44.32179" lon="4.55247">
        <ele>125.3</ele>
        <time>2022-06-11T12:41:08Z</time>
      </trkpt>
      <trkpt lat="44.32182" lon="4.55243">
        <ele>125.4</ele>
        <time>2022-06-11T12:41:09Z</time>
      </trkpt>
      <trkpt lat="44.32183" lon="4.55242">
        <ele>125.4</ele>
        <time>2022-06-11T12:41:10Z</time>
      </trkpt>
      <trkpt lat="44.32186" lon="4.55238">
        <ele>125.5</ele>
        <time>2022-06-11T12:41:11Z</time>
      </trkpt>
      <trkpt lat="44.32187" lon="4.55236">
        <ele>125.6</ele>
        <time>2022-06-11T12:41:12Z</time>
      </trkpt>
      <trkpt lat="44.32188" lon="4.55233">
        <ele>125.7</ele>
        <time>2022-06-11T12:41:13Z</time>
      </trkpt>
      <trkpt lat="44.3219" lon="4.5523">
        <ele>125.7</ele>
        <time>2022-06-11T12:41:14Z</time>
      </trkpt>
      <trkpt lat="44.32193" lon="4.55226">
        <ele>125.8</ele>
        <time>2022-06-11T12:41:15Z</time>
      </trkpt>
      <trkpt lat="44.32194" lon="4.55225">
        <ele>125.9</ele>
        <time>2022-06-11T12:41:16Z</time>
      </trkpt>
      <trkpt lat="44.32196" lon="4.55222">
        <ele>126</ele>
        <time>2022-06-11T12:41:17Z</time>
      </trkpt>
      <trkpt lat="44.32199" lon="4.55218">
        <ele>126.1</ele>
        <time>2022-06-11T12:41:18Z</time>
      </trkpt>
      <trkpt lat="44.322" lon="4.55216">
        <ele>126.1</ele>
        <time>2022-06-11T12:41:19Z</time>
      </trkpt>
      <trkpt lat="44.32202" lon="4.55213">
        <ele>126.2</ele>
        <time>2022-06-11T12:41:20Z</time>
      </trkpt>
      <trkpt lat="44.32203" lon="4.55211">
        <ele>126.3</ele>
        <time>2022-06-11T12:41:21Z</time>
      </trkpt>
      <trkpt lat="44.32205" lon="4.55208">
        <ele>126.4</ele>
        <time>2022-06-11T12:41:22Z</time>
      </trkpt>
      <trkpt lat="44.32207" lon="4.55205">
        <ele>126.4</ele>
        <time>2022-06-11T12:41:23Z</time>
      </trkpt>
      <trkpt lat="44.32209" lon="4.55201">
        <ele>126.6</ele>
        <time>2022-06-11T12:41:24Z</time>
      </trkpt>
      <trkpt lat="44.3221" lon="4.55199">
        <ele>126.6</ele>
        <time>2022-06-11T12:41:25Z</time>
      </trkpt>
      <trkpt lat="44.32211" lon="4.55195">
        <ele>126.8</ele>
        <time>2022-06-11T12:41:26Z</time>
      </trkpt>
      <trkpt lat="44.32212" lon="4.55193">
        <ele>126.8</ele>
        <time>2022-06-11T12:41:27Z</time>
      </trkpt>
      <trkpt lat="44.32213" lon="4.55188">
        <ele>126.9</ele>
        <time>2022-06-11T12:41:28Z</time>
      </trkpt>
      <trkpt lat="44.32214" lon="4.55187">
        <ele>127</ele>
        <time>2022-06-11T12:41:29Z</time>
      </trkpt>
      <trkpt lat="44.32214" lon="4.5518">
        <ele>127.1</ele>
        <time>2022-06-11T12:41:31Z</time>
      </trkpt>
      <trkpt lat="44.32214" lon="4.55175">
        <ele>127.2</ele>
        <time>2022-06-11T12:41:32Z</time>
      </trkpt>
      <trkpt lat="44.32214" lon="4.55173">
        <ele>127.3</ele>
        <time>2022-06-11T12:41:33Z</time>
      </trkpt>
      <trkpt lat="44.32213" lon="4.55169">
        <ele>127.4</ele>
        <time>2022-06-11T12:41:34Z</time>
      </trkpt>
      <trkpt lat="44.32212" lon="4.55164">
        <ele>127.5</ele>
        <time>2022-06-11T12:41:35Z</time>
      </trkpt>
      <trkpt lat="44.32211" lon="4.55162">
        <ele>127.6</ele>
        <time>2022-06-11T12:41:36Z</time>
      </trkpt>
      <trkpt lat="44.3221" lon="4.55159">
        <ele>127.7</ele>
        <time>2022-06-11T12:41:37Z</time>
      </trkpt>
      <trkpt lat="44.32208" lon="4.55155">
        <ele>127.7</ele>
        <time>2022-06-11T12:41:38Z</time>
      </trkpt>
      <trkpt lat="44.32207" lon="4.55152">
        <ele>127.8</ele>
        <time>2022-06-11T12:41:39Z</time>
      </trkpt>
      <trkpt lat="44.32204" lon="4.55148">
        <ele>127.9</ele>
        <time>2022-06-11T12:41:40Z</time>
      </trkpt>
      <trkpt lat="44.32203" lon="4.55147">
        <ele>128</ele>
        <time>2022-06-11T12:41:41Z</time>
      </trkpt>
      <trkpt lat="44.32201" lon="4.55143">
        <ele>128.1</ele>
        <time>2022-06-11T12:41:42Z</time>
      </trkpt>
      <trkpt lat="44.32198" lon="4.5514">
        <ele>128.1</ele>
        <time>2022-06-11T12:41:43Z</time>
      </trkpt>
      <trkpt lat="44.32196" lon="4.55137">
        <ele>128.2</ele>
        <time>2022-06-11T12:41:44Z</time>
      </trkpt>
      <trkpt lat="44.32194" lon="4.55134">
        <ele>128.3</ele>
        <time>2022-06-11T12:41:45Z</time>
      </trkpt>
      <trkpt lat="44.32191" lon="4.5513">
        <ele>128.3</ele>
        <time>2022-06-11T12:41:46Z</time>
      </trkpt>
      <trkpt lat="44.32188" lon="4.55127">
        <ele>128.4</ele>
        <time>2022-06-11T12:41:47Z</time>
      </trkpt>
      <trkpt lat="44.32186" lon="4.55123">
        <ele>128.4</ele>
        <time>2022-06-11T12:41:48Z</time>
      </trkpt>
      <trkpt lat="44.32183" lon="4.5512">
        <ele>128.5</ele>
        <time>2022-06-11T12:41:49Z</time>
      </trkpt>
      <trkpt lat="44.32181" lon="4.55116">
        <ele>128.5</ele>
        <time>2022-06-11T12:41:50Z</time>
      </trkpt>
      <trkpt lat="44.32178" lon="4.55113">
        <ele>128.5</ele>
        <time>2022-06-11T12:41:51Z</time>
      </trkpt>
      <trkpt lat="44.32175" lon="4.55109">
        <ele>128.6</ele>
        <time>2022-06-11T12:41:52Z</time>
      </trkpt>
      <trkpt lat="44.32173" lon="4.55104">
        <ele>128.6</ele>
        <time>2022-06-11T12:41:53Z</time>
      </trkpt>
      <trkpt lat="44.3217" lon="4.551">
        <ele>128.6</ele>
        <time>2022-06-11T12:41:54Z</time>
      </trkpt>
      <trkpt lat="44.32169" lon="4.55094">
        <ele>128.7</ele>
        <time>2022-06-11T12:41:55Z</time>
      </trkpt>
      <trkpt lat="44.32168" lon="4.55089">
        <ele>128.8</ele>
        <time>2022-06-11T12:41:56Z</time>
      </trkpt>
      <trkpt lat="44.32168" lon="4.55083">
        <ele>128.9</ele>
        <time>2022-06-11T12:41:57Z</time>
      </trkpt>
      <trkpt lat="44.32169" lon="4.55078">
        <ele>129</ele>
        <time>2022-06-11T12:41:58Z</time>
      </trkpt>
      <trkpt lat="44.32171" lon="4.55073">
        <ele>129.1</ele>
        <time>2022-06-11T12:41:59Z</time>
      </trkpt>
      <trkpt lat="44.32173" lon="4.55069">
        <ele>129.2</ele>
        <time>2022-06-11T12:42:00Z</time>
      </trkpt>
      <trkpt lat="44.32176" lon="4.55066">
        <ele>129.3</ele>
        <time>2022-06-11T12:42:01Z</time>
      </trkpt>
      <trkpt lat="44.3218" lon="4.55064">
        <ele>129.4</ele>
        <time>2022-06-11T12:42:02Z</time>
      </trkpt>
      <trkpt lat="44.32183" lon="4.55061">
        <ele>129.4</ele>
        <time>2022-06-11T12:42:03Z</time>
      </trkpt>
      <trkpt lat="44.32186" lon="4.5506">
        <ele>129.5</ele>
        <time>2022-06-11T12:42:04Z</time>
      </trkpt>
      <trkpt lat="44.32189" lon="4.55059">
        <ele>129.6</ele>
        <time>2022-06-11T12:42:05Z</time>
      </trkpt>
      <trkpt lat="44.32193" lon="4.55058">
        <ele>129.6</ele>
        <time>2022-06-11T12:42:06Z</time>
      </trkpt>
      <trkpt lat="44.32198" lon="4.55057">
        <ele>129.7</ele>
        <time>2022-06-11T12:42:07Z</time>
      </trkpt>
      <trkpt lat="44.32203" lon="4.55055">
        <ele>129.9</ele>
        <time>2022-06-11T12:42:09Z</time>
      </trkpt>
      <trkpt lat="44.32208" lon="4.55053">
        <ele>130</ele>
        <time>2022-06-11T12:42:10Z</time>
      </trkpt>
      <trkpt lat="44.32211" lon="4.55052">
        <ele>130.1</ele>
        <time>2022-06-11T12:42:11Z</time>
      </trkpt>
      <trkpt lat="44.32216" lon="4.5505">
        <ele>130.2</ele>
        <time>2022-06-11T12:42:13Z</time>
      </trkpt>
      <trkpt lat="44.32221" lon="4.55047">
        <ele>130.4</ele>
        <time>2022-06-11T12:42:14Z</time>
      </trkpt>
      <trkpt lat="44.32224" lon="4.55046">
        <ele>130.5</ele>
        <time>2022-06-11T12:42:16Z</time>
      </trkpt>
      <trkpt lat="44.32227" lon="4.55044">
        <ele>130.6</ele>
        <time>2022-06-11T12:42:17Z</time>
      </trkpt>
      <trkpt lat="44.3223" lon="4.55042">
        <ele>130.6</ele>
        <time>2022-06-11T12:42:18Z</time>
      </trkpt>
      <trkpt lat="44.32232" lon="4.55041">
        <ele>130.7</ele>
        <time>2022-06-11T12:42:19Z</time>
      </trkpt>
      <trkpt lat="44.32235" lon="4.5504">
        <ele>130.8</ele>
        <time>2022-06-11T12:42:20Z</time>
      </trkpt>
      <trkpt lat="44.3224" lon="4.55036">
        <ele>130.9</ele>
        <time>2022-06-11T12:42:22Z</time>
      </trkpt>
      <trkpt lat="44.32243" lon="4.55033">
        <ele>131</ele>
        <time>2022-06-11T12:42:23Z</time>
      </trkpt>
      <trkpt lat="44.32244" lon="4.55031">
        <ele>131.1</ele>
        <time>2022-06-11T12:42:24Z</time>
      </trkpt>
      <trkpt lat="44.32246" lon="4.55028">
        <ele>131.1</ele>
        <time>2022-06-11T12:42:25Z</time>
      </trkpt>
      <trkpt lat="44.32247" lon="4.55025">
        <ele>131.2</ele>
        <time>2022-06-11T12:42:26Z</time>
      </trkpt>
      <trkpt lat="44.32248" lon="4.55021">
        <ele>131.2</ele>
        <time>2022-06-11T12:42:27Z</time>
      </trkpt>
      <trkpt lat="44.3225" lon="4.55017">
        <ele>131.3</ele>
        <time>2022-06-11T12:42:28Z</time>
      </trkpt>
      <trkpt lat="44.32251" lon="4.55013">
        <ele>131.3</ele>
        <time>2022-06-11T12:42:29Z</time>
      </trkpt>
      <trkpt lat="44.32251" lon="4.55009">
        <ele>131.4</ele>
        <time>2022-06-11T12:42:30Z</time>
      </trkpt>
      <trkpt lat="44.32251" lon="4.55">
        <ele>131.5</ele>
        <time>2022-06-11T12:42:31Z</time>
      </trkpt>
      <trkpt lat="44.3225" lon="4.54994">
        <ele>131.5</ele>
        <time>2022-06-11T12:42:33Z</time>
      </trkpt>
      <trkpt lat="44.3225" lon="4.5499">
        <ele>131.6</ele>
        <time>2022-06-11T12:42:34Z</time>
      </trkpt>
      <trkpt lat="44.32249" lon="4.54985">
        <ele>131.6</ele>
        <time>2022-06-11T12:42:35Z</time>
      </trkpt>
      <trkpt lat="44.32249" lon="4.5498">
        <ele>131.7</ele>
        <time>2022-06-11T12:42:36Z</time>
      </trkpt>
      <trkpt lat="44.32248" lon="4.54976">
        <ele>131.7</ele>
        <time>2022-06-11T12:42:37Z</time>
      </trkpt>
      <trkpt lat="44.32246" lon="4.54967">
        <ele>131.8</ele>
        <time>2022-06-11T12:42:39Z</time>
      </trkpt>
      <trkpt lat="44.32245" lon="4.54962">
        <ele>131.9</ele>
        <time>2022-06-11T12:42:40Z</time>
      </trkpt>
      <trkpt lat="44.32242" lon="4.54953">
        <ele>131.9</ele>
        <time>2022-06-11T12:42:41Z</time>
      </trkpt>
      <trkpt lat="44.3224" lon="4.54948">
        <ele>131.9</ele>
        <time>2022-06-11T12:42:43Z</time>
      </trkpt>
      <trkpt lat="44.32238" lon="4.54943">
        <ele>131.9</ele>
        <time>2022-06-11T12:42:44Z</time>
      </trkpt>
      <trkpt lat="44.32236" lon="4.54938">
        <ele>132</ele>
        <time>2022-06-11T12:42:45Z</time>
      </trkpt>
      <trkpt lat="44.32234" lon="4.54927">
        <ele>132</ele>
        <time>2022-06-11T12:42:46Z</time>
      </trkpt>
      <trkpt lat="44.32232" lon="4.54921">
        <ele>132</ele>
        <time>2022-06-11T12:42:48Z</time>
      </trkpt>
      <trkpt lat="44.3223" lon="4.54915">
        <ele>132</ele>
        <time>2022-06-11T12:42:49Z</time>
      </trkpt>
      <trkpt lat="44.32228" lon="4.54909">
        <ele>132</ele>
        <time>2022-06-11T12:42:50Z</time>
      </trkpt>
      <trkpt lat="44.32225" lon="4.54898">
        <ele>131.9</ele>
        <time>2022-06-11T12:42:51Z</time>
      </trkpt>
      <trkpt lat="44.32223" lon="4.54885">
        <ele>131.9</ele>
        <time>2022-06-11T12:42:53Z</time>
      </trkpt>
      <trkpt lat="44.32223" lon="4.54877">
        <ele>131.9</ele>
        <time>2022-06-11T12:42:55Z</time>
      </trkpt>
      <trkpt lat="44.32223" lon="4.5487">
        <ele>131.8</ele>
        <time>2022-06-11T12:42:56Z</time>
      </trkpt>
      <trkpt lat="44.32224" lon="4.54864">
        <ele>131.8</ele>
        <time>2022-06-11T12:42:57Z</time>
      </trkpt>
      <trkpt lat="44.32224" lon="4.54857">
        <ele>131.8</ele>
        <time>2022-06-11T12:42:58Z</time>
      </trkpt>
      <trkpt lat="44.32225" lon="4.54851">
        <ele>131.7</ele>
        <time>2022-06-11T12:42:59Z</time>
      </trkpt>
      <trkpt lat="44.32225" lon="4.54844">
        <ele>131.6</ele>
        <time>2022-06-11T12:43:00Z</time>
      </trkpt>
      <trkpt lat="44.32225" lon="4.54837">
        <ele>131.6</ele>
        <time>2022-06-11T12:43:01Z</time>
      </trkpt>
      <trkpt lat="44.32225" lon="4.54829">
        <ele>131.5</ele>
        <time>2022-06-11T12:43:02Z</time>
      </trkpt>
      <trkpt lat="44.32224" lon="4.54822">
        <ele>131.4</ele>
        <time>2022-06-11T12:43:03Z</time>
      </trkpt>
      <trkpt lat="44.32222" lon="4.54815">
        <ele>131.3</ele>
        <time>2022-06-11T12:43:04Z</time>
      </trkpt>
      <trkpt lat="44.3222" lon="4.54808">
        <ele>131.3</ele>
        <time>2022-06-11T12:43:05Z</time>
      </trkpt>
      <trkpt lat="44.32216" lon="4.54801">
        <ele>131.1</ele>
        <time>2022-06-11T12:43:06Z</time>
      </trkpt>
      <trkpt lat="44.32211" lon="4.54796">
        <ele>130.9</ele>
        <time>2022-06-11T12:43:07Z</time>
      </trkpt>
      <trkpt lat="44.32205" lon="4.54792">
        <ele>130.7</ele>
        <time>2022-06-11T12:43:08Z</time>
      </trkpt>
      <trkpt lat="44.32199" lon="4.54789">
        <ele>130.4</ele>
        <time>2022-06-11T12:43:09Z</time>
      </trkpt>
      <trkpt lat="44.32193" lon="4.54787">
        <ele>130.1</ele>
        <time>2022-06-11T12:43:10Z</time>
      </trkpt>
      <trkpt lat="44.32186" lon="4.54785">
        <ele>129.9</ele>
        <time>2022-06-11T12:43:11Z</time>
      </trkpt>
      <trkpt lat="44.32179" lon="4.54783">
        <ele>129.6</ele>
        <time>2022-06-11T12:43:12Z</time>
      </trkpt>
      <trkpt lat="44.32172" lon="4.54781">
        <ele>129.3</ele>
        <time>2022-06-11T12:43:13Z</time>
      </trkpt>
      <trkpt lat="44.32165" lon="4.54779">
        <ele>129.1</ele>
        <time>2022-06-11T12:43:14Z</time>
      </trkpt>
      <trkpt lat="44.32158" lon="4.54778">
        <ele>128.9</ele>
        <time>2022-06-11T12:43:15Z</time>
      </trkpt>
      <trkpt lat="44.32151" lon="4.54776">
        <ele>128.7</ele>
        <time>2022-06-11T12:43:16Z</time>
      </trkpt>
      <trkpt lat="44.32144" lon="4.54774">
        <ele>128.5</ele>
        <time>2022-06-11T12:43:17Z</time>
      </trkpt>
      <trkpt lat="44.32136" lon="4.54773">
        <ele>128.2</ele>
        <time>2022-06-11T12:43:18Z</time>
      </trkpt>
      <trkpt lat="44.32128" lon="4.54771">
        <ele>128</ele>
        <time>2022-06-11T12:43:19Z</time>
      </trkpt>
      <trkpt lat="44.3212" lon="4.54768">
        <ele>127.8</ele>
        <time>2022-06-11T12:43:20Z</time>
      </trkpt>
      <trkpt lat="44.32111" lon="4.54766">
        <ele>127.6</ele>
        <time>2022-06-11T12:43:21Z</time>
      </trkpt>
      <trkpt lat="44.32103" lon="4.54764">
        <ele>127.4</ele>
        <time>2022-06-11T12:43:22Z</time>
      </trkpt>
      <trkpt lat="44.32095" lon="4.54761">
        <ele>127.3</ele>
        <time>2022-06-11T12:43:23Z</time>
      </trkpt>
      <trkpt lat="44.32087" lon="4.54759">
        <ele>127.1</ele>
        <time>2022-06-11T12:43:24Z</time>
      </trkpt>
      <trkpt lat="44.32079" lon="4.54757">
        <ele>127</ele>
        <time>2022-06-11T12:43:25Z</time>
      </trkpt>
      <trkpt lat="44.32071" lon="4.54755">
        <ele>126.9</ele>
        <time>2022-06-11T12:43:26Z</time>
      </trkpt>
      <trkpt lat="44.32063" lon="4.54754">
        <ele>126.9</ele>
        <time>2022-06-11T12:43:27Z</time>
      </trkpt>
      <trkpt lat="44.32055" lon="4.54754">
        <ele>127</ele>
        <time>2022-06-11T12:43:28Z</time>
      </trkpt>
      <trkpt lat="44.32047" lon="4.54754">
        <ele>127.1</ele>
        <time>2022-06-11T12:43:29Z</time>
      </trkpt>
      <trkpt lat="44.32039" lon="4.54755">
        <ele>127.2</ele>
        <time>2022-06-11T12:43:30Z</time>
      </trkpt>
      <trkpt lat="44.32032" lon="4.54756">
        <ele>127.3</ele>
        <time>2022-06-11T12:43:31Z</time>
      </trkpt>
      <trkpt lat="44.32024" lon="4.54758">
        <ele>127.5</ele>
        <time>2022-06-11T12:43:32Z</time>
      </trkpt>
      <trkpt lat="44.32018" lon="4.54761">
        <ele>127.7</ele>
        <time>2022-06-11T12:43:33Z</time>
      </trkpt>
      <trkpt lat="44.32011" lon="4.54764">
        <ele>127.8</ele>
        <time>2022-06-11T12:43:34Z</time>
      </trkpt>
      <trkpt lat="44.32004" lon="4.54767">
        <ele>128</ele>
        <time>2022-06-11T12:43:35Z</time>
      </trkpt>
      <trkpt lat="44.31997" lon="4.54769">
        <ele>128.2</ele>
        <time>2022-06-11T12:43:36Z</time>
      </trkpt>
      <trkpt lat="44.31991" lon="4.54771">
        <ele>128.4</ele>
        <time>2022-06-11T12:43:37Z</time>
      </trkpt>
      <trkpt lat="44.31985" lon="4.54774">
        <ele>128.5</ele>
        <time>2022-06-11T12:43:38Z</time>
      </trkpt>
      <trkpt lat="44.31979" lon="4.54776">
        <ele>128.7</ele>
        <time>2022-06-11T12:43:39Z</time>
      </trkpt>
      <trkpt lat="44.31973" lon="4.54779">
        <ele>128.8</ele>
        <time>2022-06-11T12:43:40Z</time>
      </trkpt>
      <trkpt lat="44.31967" lon="4.54782">
        <ele>129</ele>
        <time>2022-06-11T12:43:41Z</time>
      </trkpt>
      <trkpt lat="44.31962" lon="4.54786">
        <ele>129.1</ele>
        <time>2022-06-11T12:43:42Z</time>
      </trkpt>
      <trkpt lat="44.31958" lon="4.5479">
        <ele>129.3</ele>
        <time>2022-06-11T12:43:43Z</time>
      </trkpt>
      <trkpt lat="44.31953" lon="4.54795">
        <ele>129.4</ele>
        <time>2022-06-11T12:43:44Z</time>
      </trkpt>
      <trkpt lat="44.3195" lon="4.548">
        <ele>129.6</ele>
        <time>2022-06-11T12:43:45Z</time>
      </trkpt>
      <trkpt lat="44.31946" lon="4.54806">
        <ele>129.7</ele>
        <time>2022-06-11T12:43:46Z</time>
      </trkpt>
      <trkpt lat="44.31943" lon="4.54812">
        <ele>129.8</ele>
        <time>2022-06-11T12:43:47Z</time>
      </trkpt>
      <trkpt lat="44.31941" lon="4.54818">
        <ele>129.8</ele>
        <time>2022-06-11T12:43:48Z</time>
      </trkpt>
      <trkpt lat="44.31939" lon="4.54826">
        <ele>129.9</ele>
        <time>2022-06-11T12:43:49Z</time>
      </trkpt>
      <trkpt lat="44.31938" lon="4.54833">
        <ele>130</ele>
        <time>2022-06-11T12:43:50Z</time>
      </trkpt>
      <trkpt lat="44.31938" lon="4.54841">
        <ele>130</ele>
        <time>2022-06-11T12:43:51Z</time>
      </trkpt>
      <trkpt lat="44.31938" lon="4.54849">
        <ele>130</ele>
        <time>2022-06-11T12:43:52Z</time>
      </trkpt>
      <trkpt lat="44.31939" lon="4.54856">
        <ele>130</ele>
        <time>2022-06-11T12:43:53Z</time>
      </trkpt>
      <trkpt lat="44.3194" lon="4.54864">
        <ele>129.9</ele>
        <time>2022-06-11T12:43:54Z</time>
      </trkpt>
      <trkpt lat="44.31941" lon="4.54872">
        <ele>129.9</ele>
        <time>2022-06-11T12:43:55Z</time>
      </trkpt>
      <trkpt lat="44.31941" lon="4.5488">
        <ele>129.9</ele>
        <time>2022-06-11T12:43:56Z</time>
      </trkpt>
      <trkpt lat="44.31939" lon="4.54889">
        <ele>129.8</ele>
        <time>2022-06-11T12:43:57Z</time>
      </trkpt>
      <trkpt lat="44.31935" lon="4.54896">
        <ele>129.6</ele>
        <time>2022-06-11T12:43:58Z</time>
      </trkpt>
      <trkpt lat="44.3193" lon="4.54902">
        <ele>129.5</ele>
        <time>2022-06-11T12:43:59Z</time>
      </trkpt>
      <trkpt lat="44.31924" lon="4.54905">
        <ele>129.3</ele>
        <time>2022-06-11T12:44:00Z</time>
      </trkpt>
      <trkpt lat="44.31917" lon="4.54907">
        <ele>129.1</ele>
        <time>2022-06-11T12:44:01Z</time>
      </trkpt>
      <trkpt lat="44.3191" lon="4.54908">
        <ele>128.9</ele>
        <time>2022-06-11T12:44:02Z</time>
      </trkpt>
      <trkpt lat="44.31903" lon="4.5491">
        <ele>128.7</ele>
        <time>2022-06-11T12:44:03Z</time>
      </trkpt>
      <trkpt lat="44.31896" lon="4.54912">
        <ele>128.5</ele>
        <time>2022-06-11T12:44:04Z</time>
      </trkpt>
      <trkpt lat="44.31889" lon="4.54915">
        <ele>128.3</ele>
        <time>2022-06-11T12:44:05Z</time>
      </trkpt>
      <trkpt lat="44.31882" lon="4.54918">
        <ele>128.1</ele>
        <time>2022-06-11T12:44:06Z</time>
      </trkpt>
      <trkpt lat="44.31875" lon="4.54922">
        <ele>127.8</ele>
        <time>2022-06-11T12:44:07Z</time>
      </trkpt>
      <trkpt lat="44.31869" lon="4.54927">
        <ele>127.5</ele>
        <time>2022-06-11T12:44:08Z</time>
      </trkpt>
      <trkpt lat="44.31863" lon="4.54934">
        <ele>127.2</ele>
        <time>2022-06-11T12:44:09Z</time>
      </trkpt>
      <trkpt lat="44.31858" lon="4.54942">
        <ele>126.9</ele>
        <time>2022-06-11T12:44:10Z</time>
      </trkpt>
      <trkpt lat="44.31853" lon="4.54951">
        <ele>126.5</ele>
        <time>2022-06-11T12:44:11Z</time>
      </trkpt>
      <trkpt lat="44.31849" lon="4.5496">
        <ele>126.2</ele>
        <time>2022-06-11T12:44:12Z</time>
      </trkpt>
      <trkpt lat="44.31844" lon="4.54969">
        <ele>125.8</ele>
        <time>2022-06-11T12:44:13Z</time>
      </trkpt>
      <trkpt lat="44.3184" lon="4.54979">
        <ele>125.4</ele>
        <time>2022-06-11T12:44:14Z</time>
      </trkpt>
      <trkpt lat="44.31835" lon="4.54989">
        <ele>125</ele>
        <time>2022-06-11T12:44:15Z</time>
      </trkpt>
      <trkpt lat="44.3183" lon="4.54997">
        <ele>124.6</ele>
        <time>2022-06-11T12:44:16Z</time>
      </trkpt>
      <trkpt lat="44.31822" lon="4.55004">
        <ele>124.2</ele>
        <time>2022-06-11T12:44:17Z</time>
      </trkpt>
      <trkpt lat="44.31814" lon="4.55008">
        <ele>123.8</ele>
        <time>2022-06-11T12:44:18Z</time>
      </trkpt>
      <trkpt lat="44.31805" lon="4.5501">
        <ele>123.5</ele>
        <time>2022-06-11T12:44:19Z</time>
      </trkpt>
      <trkpt lat="44.31797" lon="4.55012">
        <ele>123.2</ele>
        <time>2022-06-11T12:44:20Z</time>
      </trkpt>
      <trkpt lat="44.31789" lon="4.55015">
        <ele>122.9</ele>
        <time>2022-06-11T12:44:21Z</time>
      </trkpt>
      <trkpt lat="44.31781" lon="4.5502">
        <ele>122.6</ele>
        <time>2022-06-11T12:44:22Z</time>
      </trkpt>
      <trkpt lat="44.31774" lon="4.55026">
        <ele>122.2</ele>
        <time>2022-06-11T12:44:23Z</time>
      </trkpt>
      <trkpt lat="44.31767" lon="4.55033">
        <ele>121.9</ele>
        <time>2022-06-11T12:44:24Z</time>
      </trkpt>
      <trkpt lat="44.31761" lon="4.55041">
        <ele>121.5</ele>
        <time>2022-06-11T12:44:25Z</time>
      </trkpt>
      <trkpt lat="44.31756" lon="4.5505">
        <ele>121.2</ele>
        <time>2022-06-11T12:44:26Z</time>
      </trkpt>
      <trkpt lat="44.31751" lon="4.55059">
        <ele>120.9</ele>
        <time>2022-06-11T12:44:27Z</time>
      </trkpt>
      <trkpt lat="44.31746" lon="4.55069">
        <ele>120.6</ele>
        <time>2022-06-11T12:44:28Z</time>
      </trkpt>
      <trkpt lat="44.31741" lon="4.55078">
        <ele>120.2</ele>
        <time>2022-06-11T12:44:29Z</time>
      </trkpt>
      <trkpt lat="44.31736" lon="4.55088">
        <ele>119.9</ele>
        <time>2022-06-11T12:44:30Z</time>
      </trkpt>
      <trkpt lat="44.31731" lon="4.55098">
        <ele>119.6</ele>
        <time>2022-06-11T12:44:31Z</time>
      </trkpt>
      <trkpt lat="44.31727" lon="4.55109">
        <ele>119.2</ele>
        <time>2022-06-11T12:44:32Z</time>
      </trkpt>
      <trkpt lat="44.31726" lon="4.55122">
        <ele>118.9</ele>
        <time>2022-06-11T12:44:33Z</time>
      </trkpt>
      <trkpt lat="44.31724" lon="4.55134">
        <ele>118.5</ele>
        <time>2022-06-11T12:44:34Z</time>
      </trkpt>
      <trkpt lat="44.31721" lon="4.55147">
        <ele>118.1</ele>
        <time>2022-06-11T12:44:35Z</time>
      </trkpt>
      <trkpt lat="44.31717" lon="4.55158">
        <ele>117.7</ele>
        <time>2022-06-11T12:44:36Z</time>
      </trkpt>
      <trkpt lat="44.31711" lon="4.55168">
        <ele>117.3</ele>
        <time>2022-06-11T12:44:37Z</time>
      </trkpt>
      <trkpt lat="44.31704" lon="4.55177">
        <ele>116.9</ele>
        <time>2022-06-11T12:44:38Z</time>
      </trkpt>
      <trkpt lat="44.31698" lon="4.55185">
        <ele>116.4</ele>
        <time>2022-06-11T12:44:39Z</time>
      </trkpt>
      <trkpt lat="44.31691" lon="4.55194">
        <ele>116</ele>
        <time>2022-06-11T12:44:40Z</time>
      </trkpt>
      <trkpt lat="44.31685" lon="4.55203">
        <ele>115.7</ele>
        <time>2022-06-11T12:44:41Z</time>
      </trkpt>
      <trkpt lat="44.31678" lon="4.55212">
        <ele>115.3</ele>
        <time>2022-06-11T12:44:42Z</time>
      </trkpt>
      <trkpt lat="44.31672" lon="4.55221">
        <ele>114.9</ele>
        <time>2022-06-11T12:44:43Z</time>
      </trkpt>
      <trkpt lat="44.31666" lon="4.55231">
        <ele>114.5</ele>
        <time>2022-06-11T12:44:44Z</time>
      </trkpt>
      <trkpt lat="44.31661" lon="4.55241">
        <ele>114.2</ele>
        <time>2022-06-11T12:44:45Z</time>
      </trkpt>
      <trkpt lat="44.31657" lon="4.55253">
        <ele>113.8</ele>
        <time>2022-06-11T12:44:46Z</time>
      </trkpt>
      <trkpt lat="44.31653" lon="4.55264">
        <ele>113.4</ele>
        <time>2022-06-11T12:44:47Z</time>
      </trkpt>
      <trkpt lat="44.31651" lon="4.55276">
        <ele>113</ele>
        <time>2022-06-11T12:44:48Z</time>
      </trkpt>
      <trkpt lat="44.31649" lon="4.55288">
        <ele>112.7</ele>
        <time>2022-06-11T12:44:49Z</time>
      </trkpt>
      <trkpt lat="44.31649" lon="4.55301">
        <ele>112.4</ele>
        <time>2022-06-11T12:44:50Z</time>
      </trkpt>
      <trkpt lat="44.3165" lon="4.55313">
        <ele>112.1</ele>
        <time>2022-06-11T12:44:51Z</time>
      </trkpt>
      <trkpt lat="44.31651" lon="4.55326">
        <ele>111.8</ele>
        <time>2022-06-11T12:44:52Z</time>
      </trkpt>
      <trkpt lat="44.31652" lon="4.55339">
        <ele>111.5</ele>
        <time>2022-06-11T12:44:53Z</time>
      </trkpt>
      <trkpt lat="44.31651" lon="4.55352">
        <ele>111.2</ele>
        <time>2022-06-11T12:44:54Z</time>
      </trkpt>
      <trkpt lat="44.31647" lon="4.55363">
        <ele>110.9</ele>
        <time>2022-06-11T12:44:55Z</time>
      </trkpt>
      <trkpt lat="44.31639" lon="4.55371">
        <ele>110.5</ele>
        <time>2022-06-11T12:44:56Z</time>
      </trkpt>
      <trkpt lat="44.31629" lon="4.55374">
        <ele>110.1</ele>
        <time>2022-06-11T12:44:57Z</time>
      </trkpt>
      <trkpt lat="44.31619" lon="4.55373">
        <ele>109.7</ele>
        <time>2022-06-11T12:44:58Z</time>
      </trkpt>
      <trkpt lat="44.3161" lon="4.55371">
        <ele>109.3</ele>
        <time>2022-06-11T12:44:59Z</time>
      </trkpt>
      <trkpt lat="44.31601" lon="4.55368">
        <ele>108.9</ele>
        <time>2022-06-11T12:45:00Z</time>
      </trkpt>
      <trkpt lat="44.31592" lon="4.55367">
        <ele>108.5</ele>
        <time>2022-06-11T12:45:01Z</time>
      </trkpt>
      <trkpt lat="44.31583" lon="4.55369">
        <ele>108</ele>
        <time>2022-06-11T12:45:02Z</time>
      </trkpt>
      <trkpt lat="44.31575" lon="4.55372">
        <ele>107.5</ele>
        <time>2022-06-11T12:45:03Z</time>
      </trkpt>
      <trkpt lat="44.31567" lon="4.55378">
        <ele>107</ele>
        <time>2022-06-11T12:45:04Z</time>
      </trkpt>
      <trkpt lat="44.31559" lon="4.55383">
        <ele>106.4</ele>
        <time>2022-06-11T12:45:05Z</time>
      </trkpt>
      <trkpt lat="44.31551" lon="4.5539">
        <ele>105.7</ele>
        <time>2022-06-11T12:45:06Z</time>
      </trkpt>
      <trkpt lat="44.31543" lon="4.55397">
        <ele>105.1</ele>
        <time>2022-06-11T12:45:07Z</time>
      </trkpt>
      <trkpt lat="44.31535" lon="4.55404">
        <ele>104.4</ele>
        <time>2022-06-11T12:45:08Z</time>
      </trkpt>
      <trkpt lat="44.31526" lon="4.55411">
        <ele>103.7</ele>
        <time>2022-06-11T12:45:09Z</time>
      </trkpt>
      <trkpt lat="44.31517" lon="4.55419">
        <ele>102.9</ele>
        <time>2022-06-11T12:45:10Z</time>
      </trkpt>
      <trkpt lat="44.31507" lon="4.55426">
        <ele>102.1</ele>
        <time>2022-06-11T12:45:11Z</time>
      </trkpt>
      <trkpt lat="44.31498" lon="4.55434">
        <ele>101.2</ele>
        <time>2022-06-11T12:45:12Z</time>
      </trkpt>
      <trkpt lat="44.31487" lon="4.55441">
        <ele>100.2</ele>
        <time>2022-06-11T12:45:13Z</time>
      </trkpt>
      <trkpt lat="44.31477" lon="4.55448">
        <ele>99.3</ele>
        <time>2022-06-11T12:45:14Z</time>
      </trkpt>
      <trkpt lat="44.31467" lon="4.55455">
        <ele>98.3</ele>
        <time>2022-06-11T12:45:15Z</time>
      </trkpt>
      <trkpt lat="44.31457" lon="4.55463">
        <ele>97.2</ele>
        <time>2022-06-11T12:45:16Z</time>
      </trkpt>
      <trkpt lat="44.31446" lon="4.55471">
        <ele>96.2</ele>
        <time>2022-06-11T12:45:17Z</time>
      </trkpt>
      <trkpt lat="44.31435" lon="4.55479">
        <ele>95</ele>
        <time>2022-06-11T12:45:18Z</time>
      </trkpt>
      <trkpt lat="44.31424" lon="4.55487">
        <ele>93.9</ele>
        <time>2022-06-11T12:45:19Z</time>
      </trkpt>
      <trkpt lat="44.31413" lon="4.55495">
        <ele>92.8</ele>
        <time>2022-06-11T12:45:20Z</time>
      </trkpt>
      <trkpt lat="44.31401" lon="4.55504">
        <ele>91.6</ele>
        <time>2022-06-11T12:45:21Z</time>
      </trkpt>
      <trkpt lat="44.3139" lon="4.55513">
        <ele>90.5</ele>
        <time>2022-06-11T12:45:22Z</time>
      </trkpt>
      <trkpt lat="44.31378" lon="4.55522">
        <ele>89.4</ele>
        <time>2022-06-11T12:45:23Z</time>
      </trkpt>
      <trkpt lat="44.31367" lon="4.55531">
        <ele>88.4</ele>
        <time>2022-06-11T12:45:24Z</time>
      </trkpt>
      <trkpt lat="44.31355" lon="4.5554">
        <ele>87.5</ele>
        <time>2022-06-11T12:45:25Z</time>
      </trkpt>
      <trkpt lat="44.31343" lon="4.55547">
        <ele>86.7</ele>
        <time>2022-06-11T12:45:26Z</time>
      </trkpt>
      <trkpt lat="44.31331" lon="4.55555">
        <ele>86</ele>
        <time>2022-06-11T12:45:27Z</time>
      </trkpt>
      <trkpt lat="44.31319" lon="4.55562">
        <ele>85.4</ele>
        <time>2022-06-11T12:45:28Z</time>
      </trkpt>
      <trkpt lat="44.31307" lon="4.55569">
        <ele>84.9</ele>
        <time>2022-06-11T12:45:29Z</time>
      </trkpt>
      <trkpt lat="44.31294" lon="4.55575">
        <ele>84.4</ele>
        <time>2022-06-11T12:45:30Z</time>
      </trkpt>
      <trkpt lat="44.31283" lon="4.55581">
        <ele>84.1</ele>
        <time>2022-06-11T12:45:31Z</time>
      </trkpt>
      <trkpt lat="44.31272" lon="4.55588">
        <ele>83.7</ele>
        <time>2022-06-11T12:45:32Z</time>
      </trkpt>
      <trkpt lat="44.31262" lon="4.55597">
        <ele>83.5</ele>
        <time>2022-06-11T12:45:33Z</time>
      </trkpt>
      <trkpt lat="44.31253" lon="4.55606">
        <ele>83.3</ele>
        <time>2022-06-11T12:45:34Z</time>
      </trkpt>
      <trkpt lat="44.31245" lon="4.55615">
        <ele>83.1</ele>
        <time>2022-06-11T12:45:35Z</time>
      </trkpt>
      <trkpt lat="44.31238" lon="4.55625">
        <ele>83</ele>
        <time>2022-06-11T12:45:36Z</time>
      </trkpt>
      <trkpt lat="44.3123" lon="4.55635">
        <ele>82.9</ele>
        <time>2022-06-11T12:45:37Z</time>
      </trkpt>
      <trkpt lat="44.31223" lon="4.55644">
        <ele>82.8</ele>
        <time>2022-06-11T12:45:38Z</time>
      </trkpt>
      <trkpt lat="44.31215" lon="4.55653">
        <ele>82.7</ele>
        <time>2022-06-11T12:45:39Z</time>
      </trkpt>
      <trkpt lat="44.31209" lon="4.55663">
        <ele>82.5</ele>
        <time>2022-06-11T12:45:40Z</time>
      </trkpt>
      <trkpt lat="44.31202" lon="4.55673">
        <ele>82.4</ele>
        <time>2022-06-11T12:45:41Z</time>
      </trkpt>
      <trkpt lat="44.31195" lon="4.55683">
        <ele>82.2</ele>
        <time>2022-06-11T12:45:42Z</time>
      </trkpt>
      <trkpt lat="44.31188" lon="4.55692">
        <ele>82</ele>
        <time>2022-06-11T12:45:43Z</time>
      </trkpt>
      <trkpt lat="44.3118" lon="4.55702">
        <ele>81.7</ele>
        <time>2022-06-11T12:45:44Z</time>
      </trkpt>
      <trkpt lat="44.31173" lon="4.5571">
        <ele>81.4</ele>
        <time>2022-06-11T12:45:45Z</time>
      </trkpt>
      <trkpt lat="44.31165" lon="4.55718">
        <ele>81</ele>
        <time>2022-06-11T12:45:46Z</time>
      </trkpt>
      <trkpt lat="44.31157" lon="4.55725">
        <ele>80.7</ele>
        <time>2022-06-11T12:45:47Z</time>
      </trkpt>
      <trkpt lat="44.31148" lon="4.55729">
        <ele>80.3</ele>
        <time>2022-06-11T12:45:48Z</time>
      </trkpt>
      <trkpt lat="44.31139" lon="4.55732">
        <ele>79.9</ele>
        <time>2022-06-11T12:45:49Z</time>
      </trkpt>
      <trkpt lat="44.31129" lon="4.55733">
        <ele>79.4</ele>
        <time>2022-06-11T12:45:50Z</time>
      </trkpt>
      <trkpt lat="44.31119" lon="4.55732">
        <ele>78.9</ele>
        <time>2022-06-11T12:45:51Z</time>
      </trkpt>
      <trkpt lat="44.3111" lon="4.55729">
        <ele>78.3</ele>
        <time>2022-06-11T12:45:52Z</time>
      </trkpt>
      <trkpt lat="44.311" lon="4.55726">
        <ele>77.6</ele>
        <time>2022-06-11T12:45:53Z</time>
      </trkpt>
      <trkpt lat="44.3109" lon="4.55722">
        <ele>76.9</ele>
        <time>2022-06-11T12:45:54Z</time>
      </trkpt>
      <trkpt lat="44.3108" lon="4.55718">
        <ele>76.2</ele>
        <time>2022-06-11T12:45:55Z</time>
      </trkpt>
      <trkpt lat="44.31071" lon="4.55715">
        <ele>75.6</ele>
        <time>2022-06-11T12:45:56Z</time>
      </trkpt>
      <trkpt lat="44.3106" lon="4.55713">
        <ele>74.8</ele>
        <time>2022-06-11T12:45:57Z</time>
      </trkpt>
      <trkpt lat="44.3105" lon="4.55713">
        <ele>74.1</ele>
        <time>2022-06-11T12:45:58Z</time>
      </trkpt>
      <trkpt lat="44.31041" lon="4.55716">
        <ele>73.5</ele>
        <time>2022-06-11T12:45:59Z</time>
      </trkpt>
      <trkpt lat="44.31034" lon="4.5572">
        <ele>72.9</ele>
        <time>2022-06-11T12:46:00Z</time>
      </trkpt>
      <trkpt lat="44.31029" lon="4.55724">
        <ele>72.5</ele>
        <time>2022-06-11T12:46:01Z</time>
      </trkpt>
      <trkpt lat="44.31025" lon="4.55729">
        <ele>72.2</ele>
        <time>2022-06-11T12:46:02Z</time>
      </trkpt>
      <trkpt lat="44.31021" lon="4.55734">
        <ele>71.8</ele>
        <time>2022-06-11T12:46:03Z</time>
      </trkpt>
      <trkpt lat="44.31016" lon="4.55739">
        <ele>71.4</ele>
        <time>2022-06-11T12:46:04Z</time>
      </trkpt>
      <trkpt lat="44.3101" lon="4.55744">
        <ele>71</ele>
        <time>2022-06-11T12:46:05Z</time>
      </trkpt>
      <trkpt lat="44.31004" lon="4.55749">
        <ele>70.7</ele>
        <time>2022-06-11T12:46:06Z</time>
      </trkpt>
      <trkpt lat="44.30998" lon="4.55755">
        <ele>70.4</ele>
        <time>2022-06-11T12:46:07Z</time>
      </trkpt>
      <trkpt lat="44.30992" lon="4.5576">
        <ele>70.1</ele>
        <time>2022-06-11T12:46:08Z</time>
      </trkpt>
      <trkpt lat="44.30985" lon="4.55765">
        <ele>69.9</ele>
        <time>2022-06-11T12:46:09Z</time>
      </trkpt>
      <trkpt lat="44.30978" lon="4.5577">
        <ele>69.8</ele>
        <time>2022-06-11T12:46:10Z</time>
      </trkpt>
      <trkpt lat="44.30971" lon="4.55774">
        <ele>69.7</ele>
        <time>2022-06-11T12:46:11Z</time>
      </trkpt>
      <trkpt lat="44.30964" lon="4.55777">
        <ele>69.7</ele>
        <time>2022-06-11T12:46:12Z</time>
      </trkpt>
      <trkpt lat="44.30957" lon="4.55781">
        <ele>69.6</ele>
        <time>2022-06-11T12:46:13Z</time>
      </trkpt>
      <trkpt lat="44.3095" lon="4.55785">
        <ele>69.6</ele>
        <time>2022-06-11T12:46:14Z</time>
      </trkpt>
      <trkpt lat="44.30944" lon="4.55788">
        <ele>69.6</ele>
        <time>2022-06-11T12:46:15Z</time>
      </trkpt>
      <trkpt lat="44.30937" lon="4.55792">
        <ele>69.5</ele>
        <time>2022-06-11T12:46:16Z</time>
      </trkpt>
      <trkpt lat="44.30931" lon="4.55795">
        <ele>69.6</ele>
        <time>2022-06-11T12:46:17Z</time>
      </trkpt>
      <trkpt lat="44.30924" lon="4.55799">
        <ele>69.6</ele>
        <time>2022-06-11T12:46:18Z</time>
      </trkpt>
      <trkpt lat="44.30918" lon="4.55802">
        <ele>69.6</ele>
        <time>2022-06-11T12:46:19Z</time>
      </trkpt>
      <trkpt lat="44.30912" lon="4.55805">
        <ele>69.7</ele>
        <time>2022-06-11T12:46:20Z</time>
      </trkpt>
      <trkpt lat="44.30908" lon="4.55807">
        <ele>69.7</ele>
        <time>2022-06-11T12:46:21Z</time>
      </trkpt>
      <trkpt lat="44.30904" lon="4.55809">
        <ele>69.7</ele>
        <time>2022-06-11T12:46:22Z</time>
      </trkpt>
      <trkpt lat="44.30903" lon="4.55809">
        <ele>69.7</ele>
        <time>2022-06-11T12:46:23Z</time>
      </trkpt>
      <trkpt lat="44.30902" lon="4.55809">
        <ele>69.7</ele>
        <time>2022-06-11T12:46:24Z</time>
      </trkpt>
      <trkpt lat="44.30901" lon="4.55809">
        <ele>69.7</ele>
        <time>2022-06-11T12:46:25Z</time>
      </trkpt>
      <trkpt lat="44.309" lon="4.55809">
        <ele>69.7</ele>
        <time>2022-06-11T12:46:26Z</time>
      </trkpt>
      <trkpt lat="44.309" lon="4.55808">
        <ele>69.7</ele>
        <time>2022-06-11T12:46:27Z</time>
      </trkpt>
      <trkpt lat="44.309" lon="4.55808">
        <ele>69.7</ele>
        <time>2022-06-11T12:46:28Z</time>
      </trkpt>
      <trkpt lat="44.309" lon="4.55808">
        <ele>69.7</ele>
        <time>2022-06-11T12:46:29Z</time>
      </trkpt>
      <trkpt lat="44.309" lon="4.55808">
        <ele>69.7</ele>
        <time>2022-06-11T12:46:30Z</time>
      </trkpt>
      <trkpt lat="44.30901" lon="4.55809">
        <ele>69.7</ele>
        <time>2022-06-11T12:46:31Z</time>
      </trkpt>
      <trkpt lat="44.30901" lon="4.55809">
        <ele>69.7</ele>
        <time>2022-06-11T12:46:32Z</time>
      </trkpt>
      <trkpt lat="44.30901" lon="4.55809">
        <ele>69.7</ele>
        <time>2022-06-11T12:46:33Z</time>
      </trkpt>
      <trkpt lat="44.30902" lon="4.5581">
        <ele>69.7</ele>
        <time>2022-06-11T12:46:35Z</time>
      </trkpt>
      <trkpt lat="44.30902" lon="4.5581">
        <ele>69.7</ele>
        <time>2022-06-11T12:46:36Z</time>
      </trkpt>
      <trkpt lat="44.30902" lon="4.5581">
        <ele>69.7</ele>
        <time>2022-06-11T12:46:37Z</time>
      </trkpt>
      <trkpt lat="44.30902" lon="4.5581">
        <ele>69.7</ele>
        <time>2022-06-11T12:46:38Z</time>
      </trkpt>
      <trkpt lat="44.30902" lon="4.55809">
        <ele>69.7</ele>
        <time>2022-06-11T12:46:39Z</time>
      </trkpt>
      <trkpt lat="44.30898" lon="4.55811">
        <ele>69.7</ele>
        <time>2022-06-11T12:47:23Z</time>
      </trkpt>
      <trkpt lat="44.30897" lon="4.55811">
        <ele>69.7</ele>
        <time>2022-06-11T12:47:24Z</time>
      </trkpt>
      <trkpt lat="44.30895" lon="4.55812">
        <ele>69.7</ele>
        <time>2022-06-11T12:47:25Z</time>
      </trkpt>
      <trkpt lat="44.30891" lon="4.55816">
        <ele>69.7</ele>
        <time>2022-06-11T12:47:26Z</time>
      </trkpt>
      <trkpt lat="44.30889" lon="4.55818">
        <ele>69.7</ele>
        <time>2022-06-11T12:47:27Z</time>
      </trkpt>
      <trkpt lat="44.30886" lon="4.55821">
        <ele>69.7</ele>
        <time>2022-06-11T12:47:28Z</time>
      </trkpt>
      <trkpt lat="44.30883" lon="4.55823">
        <ele>69.7</ele>
        <time>2022-06-11T12:47:29Z</time>
      </trkpt>
      <trkpt lat="44.3088" lon="4.55825">
        <ele>69.7</ele>
        <time>2022-06-11T12:47:30Z</time>
      </trkpt>
      <trkpt lat="44.30877" lon="4.55826">
        <ele>69.7</ele>
        <time>2022-06-11T12:47:32Z</time>
      </trkpt>
      <trkpt lat="44.30873" lon="4.55829">
        <ele>69.7</ele>
        <time>2022-06-11T12:47:33Z</time>
      </trkpt>
      <trkpt lat="44.30869" lon="4.55831">
        <ele>69.7</ele>
        <time>2022-06-11T12:47:34Z</time>
      </trkpt>
      <trkpt lat="44.30862" lon="4.55835">
        <ele>69.8</ele>
        <time>2022-06-11T12:47:36Z</time>
      </trkpt>
      <trkpt lat="44.30861" lon="4.55836">
        <ele>69.8</ele>
        <time>2022-06-11T12:47:37Z</time>
      </trkpt>
      <trkpt lat="44.30855" lon="4.55839">
        <ele>69.8</ele>
        <time>2022-06-11T12:47:39Z</time>
      </trkpt>
      <trkpt lat="44.30849" lon="4.55843">
        <ele>69.9</ele>
        <time>2022-06-11T12:47:41Z</time>
      </trkpt>
      <trkpt lat="44.30843" lon="4.5585">
        <ele>69.9</ele>
        <time>2022-06-11T12:47:43Z</time>
      </trkpt>
      <trkpt lat="44.3084" lon="4.55853">
        <ele>69.9</ele>
        <time>2022-06-11T12:47:45Z</time>
      </trkpt>
      <trkpt lat="44.30836" lon="4.55859">
        <ele>70</ele>
        <time>2022-06-11T12:47:46Z</time>
      </trkpt>
      <trkpt lat="44.30834" lon="4.55864">
        <ele>70</ele>
        <time>2022-06-11T12:47:47Z</time>
      </trkpt>
      <trkpt lat="44.30832" lon="4.55869">
        <ele>70.1</ele>
        <time>2022-06-11T12:47:48Z</time>
      </trkpt>
      <trkpt lat="44.30831" lon="4.55874">
        <ele>70.1</ele>
        <time>2022-06-11T12:47:49Z</time>
      </trkpt>
      <trkpt lat="44.30829" lon="4.5588">
        <ele>70.2</ele>
        <time>2022-06-11T12:47:50Z</time>
      </trkpt>
      <trkpt lat="44.30828" lon="4.55886">
        <ele>70.3</ele>
        <time>2022-06-11T12:47:51Z</time>
      </trkpt>
      <trkpt lat="44.30827" lon="4.55892">
        <ele>70.3</ele>
        <time>2022-06-11T12:47:53Z</time>
      </trkpt>
      <trkpt lat="44.30826" lon="4.55897">
        <ele>70.4</ele>
        <time>2022-06-11T12:47:54Z</time>
      </trkpt>
      <trkpt lat="44.30825" lon="4.55901">
        <ele>70.5</ele>
        <time>2022-06-11T12:47:55Z</time>
      </trkpt>
      <trkpt lat="44.30823" lon="4.5591">
        <ele>70.6</ele>
        <time>2022-06-11T12:47:56Z</time>
      </trkpt>
      <trkpt lat="44.30821" lon="4.55918">
        <ele>70.7</ele>
        <time>2022-06-11T12:47:58Z</time>
      </trkpt>
      <trkpt lat="44.3082" lon="4.55922">
        <ele>70.8</ele>
        <time>2022-06-11T12:47:59Z</time>
      </trkpt>
      <trkpt lat="44.30818" lon="4.55927">
        <ele>70.9</ele>
        <time>2022-06-11T12:48:01Z</time>
      </trkpt>
      <trkpt lat="44.30816" lon="4.55936">
        <ele>71</ele>
        <time>2022-06-11T12:48:02Z</time>
      </trkpt>
      <trkpt lat="44.30815" lon="4.5594">
        <ele>71.1</ele>
        <time>2022-06-11T12:48:04Z</time>
      </trkpt>
      <trkpt lat="44.30815" lon="4.55945">
        <ele>71.2</ele>
        <time>2022-06-11T12:48:05Z</time>
      </trkpt>
      <trkpt lat="44.30814" lon="4.55949">
        <ele>71.2</ele>
        <time>2022-06-11T12:48:06Z</time>
      </trkpt>
      <trkpt lat="44.30813" lon="4.55954">
        <ele>71.3</ele>
        <time>2022-06-11T12:48:07Z</time>
      </trkpt>
      <trkpt lat="44.30812" lon="4.55958">
        <ele>71.4</ele>
        <time>2022-06-11T12:48:08Z</time>
      </trkpt>
      <trkpt lat="44.30811" lon="4.55962">
        <ele>71.5</ele>
        <time>2022-06-11T12:48:09Z</time>
      </trkpt>
      <trkpt lat="44.30811" lon="4.55966">
        <ele>71.5</ele>
        <time>2022-06-11T12:48:10Z</time>
      </trkpt>
      <trkpt lat="44.30809" lon="4.55974">
        <ele>71.7</ele>
        <time>2022-06-11T12:48:11Z</time>
      </trkpt>
      <trkpt lat="44.30809" lon="4.55978">
        <ele>71.8</ele>
        <time>2022-06-11T12:48:13Z</time>
      </trkpt>
      <trkpt lat="44.30808" lon="4.55982">
        <ele>71.8</ele>
        <time>2022-06-11T12:48:14Z</time>
      </trkpt>
      <trkpt lat="44.30807" lon="4.55986">
        <ele>71.9</ele>
        <time>2022-06-11T12:48:15Z</time>
      </trkpt>
      <trkpt lat="44.30805" lon="4.55992">
        <ele>72</ele>
        <time>2022-06-11T12:48:16Z</time>
      </trkpt>
      <trkpt lat="44.30804" lon="4.55996">
        <ele>72.1</ele>
        <time>2022-06-11T12:48:18Z</time>
      </trkpt>
      <trkpt lat="44.30802" lon="4.56">
        <ele>72.1</ele>
        <time>2022-06-11T12:48:19Z</time>
      </trkpt>
      <trkpt lat="44.30801" lon="4.56004">
        <ele>72.2</ele>
        <time>2022-06-11T12:48:20Z</time>
      </trkpt>
      <trkpt lat="44.30799" lon="4.56007">
        <ele>72.2</ele>
        <time>2022-06-11T12:48:21Z</time>
      </trkpt>
      <trkpt lat="44.30798" lon="4.5601">
        <ele>72.3</ele>
        <time>2022-06-11T12:48:22Z</time>
      </trkpt>
      <trkpt lat="44.30795" lon="4.56015">
        <ele>72.3</ele>
        <time>2022-06-11T12:48:23Z</time>
      </trkpt>
      <trkpt lat="44.30793" lon="4.56019">
        <ele>72.4</ele>
        <time>2022-06-11T12:48:24Z</time>
      </trkpt>
      <trkpt lat="44.30791" lon="4.56023">
        <ele>72.4</ele>
        <time>2022-06-11T12:48:25Z</time>
      </trkpt>
      <trkpt lat="44.30789" lon="4.56027">
        <ele>72.4</ele>
        <time>2022-06-11T12:48:27Z</time>
      </trkpt>
      <trkpt lat="44.30787" lon="4.56031">
        <ele>72.5</ele>
        <time>2022-06-11T12:48:28Z</time>
      </trkpt>
      <trkpt lat="44.30784" lon="4.56036">
        <ele>72.5</ele>
        <time>2022-06-11T12:48:29Z</time>
      </trkpt>
      <trkpt lat="44.30781" lon="4.56042">
        <ele>72.5</ele>
        <time>2022-06-11T12:48:30Z</time>
      </trkpt>
      <trkpt lat="44.30776" lon="4.56049">
        <ele>72.5</ele>
        <time>2022-06-11T12:48:32Z</time>
      </trkpt>
      <trkpt lat="44.30773" lon="4.56052">
        <ele>72.4</ele>
        <time>2022-06-11T12:48:34Z</time>
      </trkpt>
      <trkpt lat="44.30771" lon="4.56056">
        <ele>72.4</ele>
        <time>2022-06-11T12:48:35Z</time>
      </trkpt>
      <trkpt lat="44.30768" lon="4.56059">
        <ele>72.4</ele>
        <time>2022-06-11T12:48:36Z</time>
      </trkpt>
      <trkpt lat="44.30765" lon="4.56064">
        <ele>72.3</ele>
        <time>2022-06-11T12:48:37Z</time>
      </trkpt>
      <trkpt lat="44.30761" lon="4.5607">
        <ele>72.3</ele>
        <time>2022-06-11T12:48:38Z</time>
      </trkpt>
      <trkpt lat="44.30757" lon="4.56076">
        <ele>72.2</ele>
        <time>2022-06-11T12:48:40Z</time>
      </trkpt>
      <trkpt lat="44.30753" lon="4.5608">
        <ele>72.1</ele>
        <time>2022-06-11T12:48:41Z</time>
      </trkpt>
      <trkpt lat="44.30748" lon="4.56086">
        <ele>72.1</ele>
        <time>2022-06-11T12:48:42Z</time>
      </trkpt>
      <trkpt lat="44.30744" lon="4.56091">
        <ele>72.1</ele>
        <time>2022-06-11T12:48:43Z</time>
      </trkpt>
      <trkpt lat="44.30738" lon="4.56097">
        <ele>72</ele>
        <time>2022-06-11T12:48:45Z</time>
      </trkpt>
      <trkpt lat="44.30735" lon="4.56102">
        <ele>72</ele>
        <time>2022-06-11T12:48:46Z</time>
      </trkpt>
      <trkpt lat="44.30731" lon="4.56107">
        <ele>72</ele>
        <time>2022-06-11T12:48:47Z</time>
      </trkpt>
      <trkpt lat="44.30728" lon="4.56111">
        <ele>71.9</ele>
        <time>2022-06-11T12:48:48Z</time>
      </trkpt>
      <trkpt lat="44.30724" lon="4.56116">
        <ele>71.8</ele>
        <time>2022-06-11T12:48:49Z</time>
      </trkpt>
      <trkpt lat="44.30721" lon="4.56121">
        <ele>71.7</ele>
        <time>2022-06-11T12:48:50Z</time>
      </trkpt>
      <trkpt lat="44.30717" lon="4.56125">
        <ele>71.5</ele>
        <time>2022-06-11T12:48:51Z</time>
      </trkpt>
      <trkpt lat="44.30713" lon="4.56129">
        <ele>71.4</ele>
        <time>2022-06-11T12:48:52Z</time>
      </trkpt>
      <trkpt lat="44.30709" lon="4.56133">
        <ele>71.3</ele>
        <time>2022-06-11T12:48:53Z</time>
      </trkpt>
      <trkpt lat="44.30705" lon="4.56137">
        <ele>71.1</ele>
        <time>2022-06-11T12:48:54Z</time>
      </trkpt>
      <trkpt lat="44.30701" lon="4.56141">
        <ele>71</ele>
        <time>2022-06-11T12:48:55Z</time>
      </trkpt>
      <trkpt lat="44.30696" lon="4.56145">
        <ele>70.8</ele>
        <time>2022-06-11T12:48:56Z</time>
      </trkpt>
      <trkpt lat="44.30692" lon="4.56149">
        <ele>70.6</ele>
        <time>2022-06-11T12:48:57Z</time>
      </trkpt>
      <trkpt lat="44.30687" lon="4.56154">
        <ele>70.5</ele>
        <time>2022-06-11T12:48:58Z</time>
      </trkpt>
      <trkpt lat="44.30682" lon="4.56158">
        <ele>70.3</ele>
        <time>2022-06-11T12:48:59Z</time>
      </trkpt>
      <trkpt lat="44.30678" lon="4.56163">
        <ele>70.1</ele>
        <time>2022-06-11T12:49:00Z</time>
      </trkpt>
      <trkpt lat="44.30673" lon="4.56168">
        <ele>69.9</ele>
        <time>2022-06-11T12:49:01Z</time>
      </trkpt>
      <trkpt lat="44.30668" lon="4.56172">
        <ele>69.7</ele>
        <time>2022-06-11T12:49:02Z</time>
      </trkpt>
      <trkpt lat="44.30663" lon="4.56178">
        <ele>69.5</ele>
        <time>2022-06-11T12:49:03Z</time>
      </trkpt>
      <trkpt lat="44.30658" lon="4.56182">
        <ele>69.4</ele>
        <time>2022-06-11T12:49:04Z</time>
      </trkpt>
      <trkpt lat="44.30653" lon="4.56187">
        <ele>69.2</ele>
        <time>2022-06-11T12:49:05Z</time>
      </trkpt>
      <trkpt lat="44.30648" lon="4.56192">
        <ele>69</ele>
        <time>2022-06-11T12:49:06Z</time>
      </trkpt>
      <trkpt lat="44.30643" lon="4.56197">
        <ele>68.9</ele>
        <time>2022-06-11T12:49:07Z</time>
      </trkpt>
      <trkpt lat="44.30639" lon="4.56201">
        <ele>68.8</ele>
        <time>2022-06-11T12:49:08Z</time>
      </trkpt>
      <trkpt lat="44.30635" lon="4.56205">
        <ele>68.7</ele>
        <time>2022-06-11T12:49:09Z</time>
      </trkpt>
      <trkpt lat="44.30631" lon="4.56208">
        <ele>68.6</ele>
        <time>2022-06-11T12:49:10Z</time>
      </trkpt>
      <trkpt lat="44.30629" lon="4.5621">
        <ele>68.6</ele>
        <time>2022-06-11T12:49:11Z</time>
      </trkpt>
      <trkpt lat="44.30625" lon="4.56214">
        <ele>68.4</ele>
        <time>2022-06-11T12:49:12Z</time>
      </trkpt>
      <trkpt lat="44.30621" lon="4.56218">
        <ele>68.3</ele>
        <time>2022-06-11T12:49:13Z</time>
      </trkpt>
      <trkpt lat="44.30617" lon="4.56222">
        <ele>68.1</ele>
        <time>2022-06-11T12:49:14Z</time>
      </trkpt>
      <trkpt lat="44.30613" lon="4.56225">
        <ele>68</ele>
        <time>2022-06-11T12:49:15Z</time>
      </trkpt>
      <trkpt lat="44.30609" lon="4.56229">
        <ele>67.8</ele>
        <time>2022-06-11T12:49:16Z</time>
      </trkpt>
      <trkpt lat="44.30604" lon="4.56233">
        <ele>67.7</ele>
        <time>2022-06-11T12:49:17Z</time>
      </trkpt>
      <trkpt lat="44.306" lon="4.56237">
        <ele>67.5</ele>
        <time>2022-06-11T12:49:18Z</time>
      </trkpt>
      <trkpt lat="44.30595" lon="4.56241">
        <ele>67.3</ele>
        <time>2022-06-11T12:49:19Z</time>
      </trkpt>
      <trkpt lat="44.30591" lon="4.56245">
        <ele>67.1</ele>
        <time>2022-06-11T12:49:20Z</time>
      </trkpt>
      <trkpt lat="44.30586" lon="4.56249">
        <ele>66.9</ele>
        <time>2022-06-11T12:49:21Z</time>
      </trkpt>
      <trkpt lat="44.30581" lon="4.56254">
        <ele>66.6</ele>
        <time>2022-06-11T12:49:22Z</time>
      </trkpt>
      <trkpt lat="44.30577" lon="4.56258">
        <ele>66.4</ele>
        <time>2022-06-11T12:49:23Z</time>
      </trkpt>
      <trkpt lat="44.30572" lon="4.56263">
        <ele>66.2</ele>
        <time>2022-06-11T12:49:24Z</time>
      </trkpt>
      <trkpt lat="44.30568" lon="4.56268">
        <ele>66</ele>
        <time>2022-06-11T12:49:25Z</time>
      </trkpt>
      <trkpt lat="44.30563" lon="4.56273">
        <ele>65.9</ele>
        <time>2022-06-11T12:49:26Z</time>
      </trkpt>
      <trkpt lat="44.30558" lon="4.56278">
        <ele>65.7</ele>
        <time>2022-06-11T12:49:27Z</time>
      </trkpt>
      <trkpt lat="44.30554" lon="4.56282">
        <ele>65.5</ele>
        <time>2022-06-11T12:49:28Z</time>
      </trkpt>
      <trkpt lat="44.30551" lon="4.56286">
        <ele>65.4</ele>
        <time>2022-06-11T12:49:29Z</time>
      </trkpt>
      <trkpt lat="44.30548" lon="4.56289">
        <ele>65.3</ele>
        <time>2022-06-11T12:49:30Z</time>
      </trkpt>
      <trkpt lat="44.30546" lon="4.56292">
        <ele>65.2</ele>
        <time>2022-06-11T12:49:31Z</time>
      </trkpt>
      <trkpt lat="44.30543" lon="4.56296">
        <ele>65.1</ele>
        <time>2022-06-11T12:49:32Z</time>
      </trkpt>
      <trkpt lat="44.30539" lon="4.563">
        <ele>64.9</ele>
        <time>2022-06-11T12:49:33Z</time>
      </trkpt>
      <trkpt lat="44.30536" lon="4.56305">
        <ele>64.8</ele>
        <time>2022-06-11T12:49:34Z</time>
      </trkpt>
      <trkpt lat="44.30532" lon="4.5631">
        <ele>64.7</ele>
        <time>2022-06-11T12:49:35Z</time>
      </trkpt>
      <trkpt lat="44.30529" lon="4.56315">
        <ele>64.6</ele>
        <time>2022-06-11T12:49:36Z</time>
      </trkpt>
      <trkpt lat="44.30525" lon="4.5632">
        <ele>64.5</ele>
        <time>2022-06-11T12:49:37Z</time>
      </trkpt>
      <trkpt lat="44.30522" lon="4.56325">
        <ele>64.5</ele>
        <time>2022-06-11T12:49:38Z</time>
      </trkpt>
      <trkpt lat="44.30519" lon="4.56331">
        <ele>64.4</ele>
        <time>2022-06-11T12:49:39Z</time>
      </trkpt>
      <trkpt lat="44.30516" lon="4.56337">
        <ele>64.3</ele>
        <time>2022-06-11T12:49:40Z</time>
      </trkpt>
      <trkpt lat="44.30513" lon="4.56341">
        <ele>64.3</ele>
        <time>2022-06-11T12:49:41Z</time>
      </trkpt>
      <trkpt lat="44.30508" lon="4.56343">
        <ele>64.2</ele>
        <time>2022-06-11T12:49:42Z</time>
      </trkpt>
      <trkpt lat="44.30503" lon="4.56343">
        <ele>62.8</ele>
        <time>2022-06-11T12:49:43Z</time>
      </trkpt>
      <trkpt lat="44.30498" lon="4.56342">
        <ele>62.5</ele>
        <time>2022-06-11T12:49:44Z</time>
      </trkpt>
      <trkpt lat="44.30492" lon="4.56342">
        <ele>62.3</ele>
        <time>2022-06-11T12:49:45Z</time>
      </trkpt>
      <trkpt lat="44.30487" lon="4.5634">
        <ele>62.1</ele>
        <time>2022-06-11T12:49:46Z</time>
      </trkpt>
      <trkpt lat="44.30482" lon="4.56338">
        <ele>62</ele>
        <time>2022-06-11T12:49:47Z</time>
      </trkpt>
      <trkpt lat="44.30478" lon="4.56335">
        <ele>61.8</ele>
        <time>2022-06-11T12:49:48Z</time>
      </trkpt>
      <trkpt lat="44.30473" lon="4.56331">
        <ele>61.6</ele>
        <time>2022-06-11T12:49:49Z</time>
      </trkpt>
      <trkpt lat="44.30468" lon="4.56327">
        <ele>61.4</ele>
        <time>2022-06-11T12:49:50Z</time>
      </trkpt>
      <trkpt lat="44.30463" lon="4.56323">
        <ele>61.3</ele>
        <time>2022-06-11T12:49:51Z</time>
      </trkpt>
      <trkpt lat="44.30459" lon="4.56319">
        <ele>61.1</ele>
        <time>2022-06-11T12:49:52Z</time>
      </trkpt>
      <trkpt lat="44.30454" lon="4.56314">
        <ele>60.9</ele>
        <time>2022-06-11T12:49:53Z</time>
      </trkpt>
      <trkpt lat="44.30449" lon="4.56308">
        <ele>60.7</ele>
        <time>2022-06-11T12:49:54Z</time>
      </trkpt>
      <trkpt lat="44.30444" lon="4.56304">
        <ele>60.5</ele>
        <time>2022-06-11T12:49:55Z</time>
      </trkpt>
      <trkpt lat="44.3044" lon="4.56299">
        <ele>60.3</ele>
        <time>2022-06-11T12:49:56Z</time>
      </trkpt>
      <trkpt lat="44.30435" lon="4.56295">
        <ele>60.1</ele>
        <time>2022-06-11T12:49:57Z</time>
      </trkpt>
      <trkpt lat="44.3043" lon="4.5629">
        <ele>59.9</ele>
        <time>2022-06-11T12:49:58Z</time>
      </trkpt>
      <trkpt lat="44.30425" lon="4.56285">
        <ele>59.8</ele>
        <time>2022-06-11T12:49:59Z</time>
      </trkpt>
      <trkpt lat="44.30421" lon="4.56279">
        <ele>59.5</ele>
        <time>2022-06-11T12:50:00Z</time>
      </trkpt>
      <trkpt lat="44.30416" lon="4.56273">
        <ele>59.3</ele>
        <time>2022-06-11T12:50:01Z</time>
      </trkpt>
      <trkpt lat="44.30411" lon="4.56268">
        <ele>59.1</ele>
        <time>2022-06-11T12:50:02Z</time>
      </trkpt>
      <trkpt lat="44.30405" lon="4.56263">
        <ele>58.8</ele>
        <time>2022-06-11T12:50:03Z</time>
      </trkpt>
      <trkpt lat="44.304" lon="4.56257">
        <ele>58.6</ele>
        <time>2022-06-11T12:50:04Z</time>
      </trkpt>
      <trkpt lat="44.30395" lon="4.56252">
        <ele>58.4</ele>
        <time>2022-06-11T12:50:05Z</time>
      </trkpt>
      <trkpt lat="44.30391" lon="4.56247">
        <ele>58.2</ele>
        <time>2022-06-11T12:50:06Z</time>
      </trkpt>
      <trkpt lat="44.30386" lon="4.56243">
        <ele>58</ele>
        <time>2022-06-11T12:50:07Z</time>
      </trkpt>
      <trkpt lat="44.30382" lon="4.56238">
        <ele>57.8</ele>
        <time>2022-06-11T12:50:08Z</time>
      </trkpt>
      <trkpt lat="44.30377" lon="4.56233">
        <ele>57.7</ele>
        <time>2022-06-11T12:50:09Z</time>
      </trkpt>
      <trkpt lat="44.30373" lon="4.56229">
        <ele>57.5</ele>
        <time>2022-06-11T12:50:10Z</time>
      </trkpt>
      <trkpt lat="44.30369" lon="4.56224">
        <ele>57.3</ele>
        <time>2022-06-11T12:50:11Z</time>
      </trkpt>
      <trkpt lat="44.30366" lon="4.56221">
        <ele>57.2</ele>
        <time>2022-06-11T12:50:12Z</time>
      </trkpt>
      <trkpt lat="44.30363" lon="4.56218">
        <ele>57.1</ele>
        <time>2022-06-11T12:50:13Z</time>
      </trkpt>
      <trkpt lat="44.30362" lon="4.56217">
        <ele>57.1</ele>
        <time>2022-06-11T12:50:14Z</time>
      </trkpt>
      <trkpt lat="44.3036" lon="4.56214">
        <ele>57</ele>
        <time>2022-06-11T12:50:15Z</time>
      </trkpt>
      <trkpt lat="44.3036" lon="4.56212">
        <ele>56.7</ele>
        <time>2022-06-11T12:50:16Z</time>
      </trkpt>
      <trkpt lat="44.30359" lon="4.56211">
        <ele>56.7</ele>
        <time>2022-06-11T12:50:17Z</time>
      </trkpt>
      <trkpt lat="44.3036" lon="4.56209">
        <ele>56.7</ele>
        <time>2022-06-11T12:50:18Z</time>
      </trkpt>
      <trkpt lat="44.30361" lon="4.56208">
        <ele>56.7</ele>
        <time>2022-06-11T12:50:19Z</time>
      </trkpt>
      <trkpt lat="44.30362" lon="4.56207">
        <ele>56.6</ele>
        <time>2022-06-11T12:50:20Z</time>
      </trkpt>
      <trkpt lat="44.30362" lon="4.56206">
        <ele>56.6</ele>
        <time>2022-06-11T12:50:21Z</time>
      </trkpt>
      <trkpt lat="44.30363" lon="4.56206">
        <ele>56.6</ele>
        <time>2022-06-11T12:50:22Z</time>
      </trkpt>
      <trkpt lat="44.30363" lon="4.56206">
        <ele>56.6</ele>
        <time>2022-06-11T12:50:23Z</time>
      </trkpt>
      <trkpt lat="44.30363" lon="4.56206">
        <ele>56.6</ele>
        <time>2022-06-11T12:50:24Z</time>
      </trkpt>
      <trkpt lat="44.30363" lon="4.56206">
        <ele>56.6</ele>
        <time>2022-06-11T12:50:25Z</time>
      </trkpt>
      <trkpt lat="44.30363" lon="4.56206">
        <ele>56.6</ele>
        <time>2022-06-11T12:50:26Z</time>
      </trkpt>
      <trkpt lat="44.30364" lon="4.56206">
        <ele>56.6</ele>
        <time>2022-06-11T12:50:27Z</time>
      </trkpt>
      <trkpt lat="44.30364" lon="4.56205">
        <ele>56.6</ele>
        <time>2022-06-11T12:50:28Z</time>
      </trkpt>
      <trkpt lat="44.30364" lon="4.56205">
        <ele>56.6</ele>
        <time>2022-06-11T12:50:29Z</time>
      </trkpt>
      <trkpt lat="44.30364" lon="4.56205">
        <ele>56.6</ele>
        <time>2022-06-11T12:50:30Z</time>
      </trkpt>
      <trkpt lat="44.30364" lon="4.56204">
        <ele>56.6</ele>
        <time>2022-06-11T12:50:31Z</time>
      </trkpt>
      <trkpt lat="44.30365" lon="4.56203">
        <ele>56.6</ele>
        <time>2022-06-11T12:50:32Z</time>
      </trkpt>
      <trkpt lat="44.30366" lon="4.56201">
        <ele>56.6</ele>
        <time>2022-06-11T12:50:33Z</time>
      </trkpt>
      <trkpt lat="44.30367" lon="4.562">
        <ele>56.6</ele>
        <time>2022-06-11T12:50:34Z</time>
      </trkpt>
      <trkpt lat="44.30368" lon="4.56198">
        <ele>56.6</ele>
        <time>2022-06-11T12:50:35Z</time>
      </trkpt>
      <trkpt lat="44.30369" lon="4.56196">
        <ele>56.6</ele>
        <time>2022-06-11T12:50:36Z</time>
      </trkpt>
      <trkpt lat="44.30371" lon="4.56193">
        <ele>56.5</ele>
        <time>2022-06-11T12:50:37Z</time>
      </trkpt>
      <trkpt lat="44.30373" lon="4.56189">
        <ele>56.5</ele>
        <time>2022-06-11T12:50:38Z</time>
      </trkpt>
      <trkpt lat="44.30374" lon="4.56187">
        <ele>56.5</ele>
        <time>2022-06-11T12:50:39Z</time>
      </trkpt>
      <trkpt lat="44.30376" lon="4.56184">
        <ele>56.5</ele>
        <time>2022-06-11T12:50:40Z</time>
      </trkpt>
      <trkpt lat="44.30379" lon="4.56181">
        <ele>56.5</ele>
        <time>2022-06-11T12:50:41Z</time>
      </trkpt>
      <trkpt lat="44.30381" lon="4.56178">
        <ele>56.4</ele>
        <time>2022-06-11T12:50:42Z</time>
      </trkpt>
      <trkpt lat="44.30383" lon="4.56174">
        <ele>56.4</ele>
        <time>2022-06-11T12:50:43Z</time>
      </trkpt>
      <trkpt lat="44.30385" lon="4.5617">
        <ele>56.4</ele>
        <time>2022-06-11T12:50:44Z</time>
      </trkpt>
      <trkpt lat="44.30387" lon="4.56167">
        <ele>56.4</ele>
        <time>2022-06-11T12:50:45Z</time>
      </trkpt>
      <trkpt lat="44.3039" lon="4.56163">
        <ele>56.4</ele>
        <time>2022-06-11T12:50:46Z</time>
      </trkpt>
      <trkpt lat="44.30392" lon="4.5616">
        <ele>56.4</ele>
        <time>2022-06-11T12:50:47Z</time>
      </trkpt>
      <trkpt lat="44.30394" lon="4.56157">
        <ele>56.4</ele>
        <time>2022-06-11T12:50:48Z</time>
      </trkpt>
      <trkpt lat="44.30397" lon="4.56153">
        <ele>56.4</ele>
        <time>2022-06-11T12:50:49Z</time>
      </trkpt>
      <trkpt lat="44.30399" lon="4.5615">
        <ele>56.3</ele>
        <time>2022-06-11T12:50:50Z</time>
      </trkpt>
      <trkpt lat="44.30402" lon="4.56147">
        <ele>56.3</ele>
        <time>2022-06-11T12:50:51Z</time>
      </trkpt>
      <trkpt lat="44.30404" lon="4.56144">
        <ele>56.3</ele>
        <time>2022-06-11T12:50:52Z</time>
      </trkpt>
      <trkpt lat="44.30406" lon="4.56141">
        <ele>56.3</ele>
        <time>2022-06-11T12:50:53Z</time>
      </trkpt>
      <trkpt lat="44.30408" lon="4.56137">
        <ele>56.3</ele>
        <time>2022-06-11T12:50:54Z</time>
      </trkpt>
      <trkpt lat="44.3041" lon="4.56133">
        <ele>56.3</ele>
        <time>2022-06-11T12:50:55Z</time>
      </trkpt>
      <trkpt lat="44.30411" lon="4.56132">
        <ele>56.3</ele>
        <time>2022-06-11T12:50:56Z</time>
      </trkpt>
      <trkpt lat="44.30413" lon="4.56129">
        <ele>56.3</ele>
        <time>2022-06-11T12:50:57Z</time>
      </trkpt>
      <trkpt lat="44.30415" lon="4.56126">
        <ele>56.3</ele>
        <time>2022-06-11T12:50:58Z</time>
      </trkpt>
      <trkpt lat="44.30416" lon="4.56124">
        <ele>56.3</ele>
        <time>2022-06-11T12:50:59Z</time>
      </trkpt>
      <trkpt lat="44.30419" lon="4.56121">
        <ele>56.3</ele>
        <time>2022-06-11T12:51:00Z</time>
      </trkpt>
      <trkpt lat="44.30421" lon="4.56116">
        <ele>56.3</ele>
        <time>2022-06-11T12:51:01Z</time>
      </trkpt>
      <trkpt lat="44.30422" lon="4.56114">
        <ele>56.4</ele>
        <time>2022-06-11T12:51:02Z</time>
      </trkpt>
      <trkpt lat="44.30424" lon="4.56111">
        <ele>56.4</ele>
        <time>2022-06-11T12:51:03Z</time>
      </trkpt>
      <trkpt lat="44.30426" lon="4.56108">
        <ele>56.4</ele>
        <time>2022-06-11T12:51:04Z</time>
      </trkpt>
      <trkpt lat="44.30428" lon="4.56105">
        <ele>56.4</ele>
        <time>2022-06-11T12:51:05Z</time>
      </trkpt>
      <trkpt lat="44.30431" lon="4.56101">
        <ele>56.4</ele>
        <time>2022-06-11T12:51:06Z</time>
      </trkpt>
      <trkpt lat="44.30434" lon="4.56098">
        <ele>56.4</ele>
        <time>2022-06-11T12:51:07Z</time>
      </trkpt>
      <trkpt lat="44.30436" lon="4.56095">
        <ele>56.4</ele>
        <time>2022-06-11T12:51:08Z</time>
      </trkpt>
      <trkpt lat="44.30439" lon="4.5609">
        <ele>56.4</ele>
        <time>2022-06-11T12:51:09Z</time>
      </trkpt>
      <trkpt lat="44.30441" lon="4.56085">
        <ele>56.3</ele>
        <time>2022-06-11T12:51:10Z</time>
      </trkpt>
      <trkpt lat="44.30443" lon="4.56081">
        <ele>56.3</ele>
        <time>2022-06-11T12:51:11Z</time>
      </trkpt>
      <trkpt lat="44.30445" lon="4.56078">
        <ele>56.3</ele>
        <time>2022-06-11T12:51:12Z</time>
      </trkpt>
      <trkpt lat="44.30448" lon="4.56074">
        <ele>56.3</ele>
        <time>2022-06-11T12:51:13Z</time>
      </trkpt>
      <trkpt lat="44.30452" lon="4.56071">
        <ele>56.3</ele>
        <time>2022-06-11T12:51:14Z</time>
      </trkpt>
      <trkpt lat="44.30455" lon="4.56068">
        <ele>56.2</ele>
        <time>2022-06-11T12:51:15Z</time>
      </trkpt>
      <trkpt lat="44.30458" lon="4.56065">
        <ele>56.2</ele>
        <time>2022-06-11T12:51:16Z</time>
      </trkpt>
      <trkpt lat="44.30461" lon="4.56063">
        <ele>56.2</ele>
        <time>2022-06-11T12:51:17Z</time>
      </trkpt>
      <trkpt lat="44.30464" lon="4.5606">
        <ele>56.2</ele>
        <time>2022-06-11T12:51:18Z</time>
      </trkpt>
      <trkpt lat="44.30468" lon="4.5606">
        <ele>56.3</ele>
        <time>2022-06-11T12:51:19Z</time>
      </trkpt>
      <trkpt lat="44.30472" lon="4.5606">
        <ele>56.3</ele>
        <time>2022-06-11T12:51:20Z</time>
      </trkpt>
      <trkpt lat="44.30475" lon="4.5606">
        <ele>56.3</ele>
        <time>2022-06-11T12:51:21Z</time>
      </trkpt>
      <trkpt lat="44.30479" lon="4.5606">
        <ele>56.4</ele>
        <time>2022-06-11T12:51:22Z</time>
      </trkpt>
      <trkpt lat="44.30483" lon="4.56058">
        <ele>56.4</ele>
        <time>2022-06-11T12:51:23Z</time>
      </trkpt>
      <trkpt lat="44.30486" lon="4.56056">
        <ele>56.4</ele>
        <time>2022-06-11T12:51:24Z</time>
      </trkpt>
      <trkpt lat="44.30489" lon="4.56053">
        <ele>56.5</ele>
        <time>2022-06-11T12:51:25Z</time>
      </trkpt>
      <trkpt lat="44.30492" lon="4.5605">
        <ele>56.5</ele>
        <time>2022-06-11T12:51:26Z</time>
      </trkpt>
      <trkpt lat="44.30496" lon="4.56046">
        <ele>56.6</ele>
        <time>2022-06-11T12:51:27Z</time>
      </trkpt>
      <trkpt lat="44.30498" lon="4.56044">
        <ele>56.6</ele>
        <time>2022-06-11T12:51:28Z</time>
      </trkpt>
      <trkpt lat="44.305" lon="4.5604">
        <ele>56.6</ele>
        <time>2022-06-11T12:51:29Z</time>
      </trkpt>
      <trkpt lat="44.30503" lon="4.56037">
        <ele>56.7</ele>
        <time>2022-06-11T12:51:30Z</time>
      </trkpt>
      <trkpt lat="44.30505" lon="4.56034">
        <ele>56.7</ele>
        <time>2022-06-11T12:51:31Z</time>
      </trkpt>
      <trkpt lat="44.30508" lon="4.56031">
        <ele>56.7</ele>
        <time>2022-06-11T12:51:32Z</time>
      </trkpt>
      <trkpt lat="44.30511" lon="4.56028">
        <ele>56.8</ele>
        <time>2022-06-11T12:51:33Z</time>
      </trkpt>
      <trkpt lat="44.30513" lon="4.56025">
        <ele>56.8</ele>
        <time>2022-06-11T12:51:34Z</time>
      </trkpt>
      <trkpt lat="44.30516" lon="4.56021">
        <ele>56.8</ele>
        <time>2022-06-11T12:51:35Z</time>
      </trkpt>
      <trkpt lat="44.30519" lon="4.56018">
        <ele>56.9</ele>
        <time>2022-06-11T12:51:36Z</time>
      </trkpt>
      <trkpt lat="44.30523" lon="4.56014">
        <ele>56.9</ele>
        <time>2022-06-11T12:51:37Z</time>
      </trkpt>
      <trkpt lat="44.30524" lon="4.56012">
        <ele>56.9</ele>
        <time>2022-06-11T12:51:38Z</time>
      </trkpt>
      <trkpt lat="44.30527" lon="4.56009">
        <ele>57</ele>
        <time>2022-06-11T12:51:39Z</time>
      </trkpt>
      <trkpt lat="44.30529" lon="4.56006">
        <ele>57</ele>
        <time>2022-06-11T12:51:40Z</time>
      </trkpt>
      <trkpt lat="44.30532" lon="4.56001">
        <ele>57</ele>
        <time>2022-06-11T12:51:41Z</time>
      </trkpt>
      <trkpt lat="44.30535" lon="4.55997">
        <ele>57</ele>
        <time>2022-06-11T12:51:42Z</time>
      </trkpt>
      <trkpt lat="44.30538" lon="4.55993">
        <ele>57</ele>
        <time>2022-06-11T12:51:43Z</time>
      </trkpt>
      <trkpt lat="44.30541" lon="4.55989">
        <ele>57.1</ele>
        <time>2022-06-11T12:51:44Z</time>
      </trkpt>
      <trkpt lat="44.30542" lon="4.55987">
        <ele>57.1</ele>
        <time>2022-06-11T12:51:45Z</time>
      </trkpt>
      <trkpt lat="44.30545" lon="4.55983">
        <ele>57.1</ele>
        <time>2022-06-11T12:51:46Z</time>
      </trkpt>
      <trkpt lat="44.30548" lon="4.55979">
        <ele>57.1</ele>
        <time>2022-06-11T12:51:47Z</time>
      </trkpt>
      <trkpt lat="44.30551" lon="4.55976">
        <ele>57.1</ele>
        <time>2022-06-11T12:51:48Z</time>
      </trkpt>
      <trkpt lat="44.30553" lon="4.55974">
        <ele>57.1</ele>
        <time>2022-06-11T12:51:49Z</time>
      </trkpt>
      <trkpt lat="44.30555" lon="4.55971">
        <ele>57.2</ele>
        <time>2022-06-11T12:51:50Z</time>
      </trkpt>
      <trkpt lat="44.30558" lon="4.55969">
        <ele>57.2</ele>
        <time>2022-06-11T12:51:51Z</time>
      </trkpt>
      <trkpt lat="44.3056" lon="4.55966">
        <ele>57.2</ele>
        <time>2022-06-11T12:51:52Z</time>
      </trkpt>
      <trkpt lat="44.30561" lon="4.55966">
        <ele>57.2</ele>
        <time>2022-06-11T12:51:53Z</time>
      </trkpt>
      <trkpt lat="44.30562" lon="4.55965">
        <ele>57.2</ele>
        <time>2022-06-11T12:51:54Z</time>
      </trkpt>
      <trkpt lat="44.30562" lon="4.55965">
        <ele>57.2</ele>
        <time>2022-06-11T12:51:55Z</time>
      </trkpt>
      <trkpt lat="44.30562" lon="4.55965">
        <ele>57.2</ele>
        <time>2022-06-11T12:51:56Z</time>
      </trkpt>
      <trkpt lat="44.30563" lon="4.55964">
        <ele>57.2</ele>
        <time>2022-06-11T12:51:57Z</time>
      </trkpt>
      <trkpt lat="44.30563" lon="4.55964">
        <ele>57.2</ele>
        <time>2022-06-11T12:51:58Z</time>
      </trkpt>
      <trkpt lat="44.30563" lon="4.55964">
        <ele>57.2</ele>
        <time>2022-06-11T12:51:59Z</time>
      </trkpt>
      <trkpt lat="44.30564" lon="4.55964">
        <ele>57.2</ele>
        <time>2022-06-11T12:52:00Z</time>
      </trkpt>
      <trkpt lat="44.30564" lon="4.55964">
        <ele>57.2</ele>
        <time>2022-06-11T12:52:01Z</time>
      </trkpt>
      <trkpt lat="44.30564" lon="4.55963">
        <ele>57.2</ele>
        <time>2022-06-11T12:52:02Z</time>
      </trkpt>
      <trkpt lat="44.30565" lon="4.55963">
        <ele>57.2</ele>
        <time>2022-06-11T12:52:03Z</time>
      </trkpt>
      <trkpt lat="44.30565" lon="4.55963">
        <ele>57.2</ele>
        <time>2022-06-11T12:52:04Z</time>
      </trkpt>
      <trkpt lat="44.30565" lon="4.55963">
        <ele>57.2</ele>
        <time>2022-06-11T12:52:05Z</time>
      </trkpt>
      <trkpt lat="44.30566" lon="4.55963">
        <ele>57.2</ele>
        <time>2022-06-11T12:52:07Z</time>
      </trkpt>
      <trkpt lat="44.30566" lon="4.55962">
        <ele>57.2</ele>
        <time>2022-06-11T12:52:15Z</time>
      </trkpt>
      <trkpt lat="44.30566" lon="4.55962">
        <ele>57.2</ele>
        <time>2022-06-11T12:52:17Z</time>
      </trkpt>
      <trkpt lat="44.30567" lon="4.55962">
        <ele>57.2</ele>
        <time>2022-06-11T12:52:18Z</time>
      </trkpt>
      <trkpt lat="44.30567" lon="4.55962">
        <ele>57.2</ele>
        <time>2022-06-11T12:52:19Z</time>
      </trkpt>
      <trkpt lat="44.30567" lon="4.55961">
        <ele>57.2</ele>
        <time>2022-06-11T12:52:20Z</time>
      </trkpt>
      <trkpt lat="44.30569" lon="4.55961">
        <ele>57.3</ele>
        <time>2022-06-11T12:52:21Z</time>
      </trkpt>
      <trkpt lat="44.3057" lon="4.5596">
        <ele>57.3</ele>
        <time>2022-06-11T12:52:23Z</time>
      </trkpt>
      <trkpt lat="44.30571" lon="4.5596">
        <ele>57.3</ele>
        <time>2022-06-11T12:52:24Z</time>
      </trkpt>
      <trkpt lat="44.30572" lon="4.5596">
        <ele>57.3</ele>
        <time>2022-06-11T12:52:25Z</time>
      </trkpt>
      <trkpt lat="44.30574" lon="4.5596">
        <ele>57.3</ele>
        <time>2022-06-11T12:52:26Z</time>
      </trkpt>
      <trkpt lat="44.30576" lon="4.5596">
        <ele>57.3</ele>
        <time>2022-06-11T12:52:27Z</time>
      </trkpt>
      <trkpt lat="44.30577" lon="4.5596">
        <ele>57.3</ele>
        <time>2022-06-11T12:52:28Z</time>
      </trkpt>
      <trkpt lat="44.30579" lon="4.5596">
        <ele>57.3</ele>
        <time>2022-06-11T12:52:30Z</time>
      </trkpt>
      <trkpt lat="44.3058" lon="4.5596">
        <ele>57.3</ele>
        <time>2022-06-11T12:52:31Z</time>
      </trkpt>
      <trkpt lat="44.30582" lon="4.55961">
        <ele>57.3</ele>
        <time>2022-06-11T12:52:32Z</time>
      </trkpt>
      <trkpt lat="44.30583" lon="4.55961">
        <ele>57.3</ele>
        <time>2022-06-11T12:52:33Z</time>
      </trkpt>
      <trkpt lat="44.30584" lon="4.55961">
        <ele>57.3</ele>
        <time>2022-06-11T12:52:34Z</time>
      </trkpt>
      <trkpt lat="44.30585" lon="4.55961">
        <ele>57.3</ele>
        <time>2022-06-11T12:52:36Z</time>
      </trkpt>
      <trkpt lat="44.30585" lon="4.55962">
        <ele>57.3</ele>
        <time>2022-06-11T12:52:37Z</time>
      </trkpt>
      <trkpt lat="44.30585" lon="4.55962">
        <ele>57.3</ele>
        <time>2022-06-11T12:52:38Z</time>
      </trkpt>
      <trkpt lat="44.30585" lon="4.55962">
        <ele>57.3</ele>
        <time>2022-06-11T12:52:39Z</time>
      </trkpt>
      <trkpt lat="44.30585" lon="4.55962">
        <ele>57.3</ele>
        <time>2022-06-11T12:52:40Z</time>
      </trkpt>
      <trkpt lat="44.30586" lon="4.55963">
        <ele>57.3</ele>
        <time>2022-06-11T12:52:41Z</time>
      </trkpt>
      <trkpt lat="44.30586" lon="4.55963">
        <ele>57.3</ele>
        <time>2022-06-11T12:52:42Z</time>
      </trkpt>
      <trkpt lat="44.30586" lon="4.55963">
        <ele>57.3</ele>
        <time>2022-06-11T12:52:43Z</time>
      </trkpt>
      <trkpt lat="44.30586" lon="4.55963">
        <ele>57.3</ele>
        <time>2022-06-11T12:52:44Z</time>
      </trkpt>
      <trkpt lat="44.30586" lon="4.55964">
        <ele>57.3</ele>
        <time>2022-06-11T12:52:45Z</time>
      </trkpt>
      <trkpt lat="44.30586" lon="4.55964">
        <ele>57.3</ele>
        <time>2022-06-11T12:52:46Z</time>
      </trkpt>
      <trkpt lat="44.30587" lon="4.55964">
        <ele>57.3</ele>
        <time>2022-06-11T12:52:47Z</time>
      </trkpt>
      <trkpt lat="44.30589" lon="4.55966">
        <ele>57.4</ele>
        <time>2022-06-11T12:52:52Z</time>
      </trkpt>
      <trkpt lat="44.30589" lon="4.55967">
        <ele>57.4</ele>
        <time>2022-06-11T12:52:53Z</time>
      </trkpt>
      <trkpt lat="44.3059" lon="4.55969">
        <ele>57.4</ele>
        <time>2022-06-11T12:52:54Z</time>
      </trkpt>
      <trkpt lat="44.3059" lon="4.55971">
        <ele>57.4</ele>
        <time>2022-06-11T12:52:56Z</time>
      </trkpt>
      <trkpt lat="44.3059" lon="4.55971">
        <ele>57.4</ele>
        <time>2022-06-11T12:52:57Z</time>
      </trkpt>
      <trkpt lat="44.3059" lon="4.55971">
        <ele>57.4</ele>
        <time>2022-06-11T12:52:58Z</time>
      </trkpt>
      <trkpt lat="44.3059" lon="4.55972">
        <ele>57.4</ele>
        <time>2022-06-11T12:53:00Z</time>
      </trkpt>
      <trkpt lat="44.3059" lon="4.55972">
        <ele>57.4</ele>
        <time>2022-06-11T12:53:01Z</time>
      </trkpt>
      <trkpt lat="44.30589" lon="4.55971">
        <ele>57.4</ele>
        <time>2022-06-11T12:53:02Z</time>
      </trkpt>
      <trkpt lat="44.30588" lon="4.55971">
        <ele>57.4</ele>
        <time>2022-06-11T12:53:03Z</time>
      </trkpt>
      <trkpt lat="44.30588" lon="4.5597">
        <ele>57.4</ele>
        <time>2022-06-11T12:53:04Z</time>
      </trkpt>
      <trkpt lat="44.30588" lon="4.55969">
        <ele>57.4</ele>
        <time>2022-06-11T12:53:05Z</time>
      </trkpt>
      <trkpt lat="44.30587" lon="4.55968">
        <ele>57.5</ele>
        <time>2022-06-11T12:53:06Z</time>
      </trkpt>
      <trkpt lat="44.30586" lon="4.55968">
        <ele>57.5</ele>
        <time>2022-06-11T12:53:07Z</time>
      </trkpt>
      <trkpt lat="44.30584" lon="4.55969">
        <ele>57.5</ele>
        <time>2022-06-11T12:53:08Z</time>
      </trkpt>
      <trkpt lat="44.30583" lon="4.55969">
        <ele>57.5</ele>
        <time>2022-06-11T12:53:10Z</time>
      </trkpt>
      <trkpt lat="44.30582" lon="4.5597">
        <ele>57.5</ele>
        <time>2022-06-11T12:53:12Z</time>
      </trkpt>
      <trkpt lat="44.30581" lon="4.5597">
        <ele>57.5</ele>
        <time>2022-06-11T12:53:13Z</time>
      </trkpt>
      <trkpt lat="44.30581" lon="4.5597">
        <ele>57.5</ele>
        <time>2022-06-11T12:53:14Z</time>
      </trkpt>
      <trkpt lat="44.30582" lon="4.5597">
        <ele>57.5</ele>
        <time>2022-06-11T12:53:15Z</time>
      </trkpt>
      <trkpt lat="44.30582" lon="4.5597">
        <ele>57.5</ele>
        <time>2022-06-11T12:53:16Z</time>
      </trkpt>
      <trkpt lat="44.30582" lon="4.5597">
        <ele>57.5</ele>
        <time>2022-06-11T12:53:17Z</time>
      </trkpt>
      <trkpt lat="44.30581" lon="4.5597">
        <ele>57.5</ele>
        <time>2022-06-11T12:53:18Z</time>
      </trkpt>
      <trkpt lat="44.30581" lon="4.55969">
        <ele>57.5</ele>
        <time>2022-06-11T12:53:19Z</time>
      </trkpt>
      <trkpt lat="44.30582" lon="4.55969">
        <ele>57.5</ele>
        <time>2022-06-11T12:53:20Z</time>
      </trkpt>
      <trkpt lat="44.30582" lon="4.55968">
        <ele>57.5</ele>
        <time>2022-06-11T12:53:21Z</time>
      </trkpt>
      <trkpt lat="44.30582" lon="4.55968">
        <ele>57.5</ele>
        <time>2022-06-11T12:53:22Z</time>
      </trkpt>
      <trkpt lat="44.30582" lon="4.55967">
        <ele>57.5</ele>
        <time>2022-06-11T12:53:23Z</time>
      </trkpt>
      <trkpt lat="44.30582" lon="4.55967">
        <ele>57.5</ele>
        <time>2022-06-11T12:53:24Z</time>
      </trkpt>
      <trkpt lat="44.30582" lon="4.55966">
        <ele>57.5</ele>
        <time>2022-06-11T12:53:25Z</time>
      </trkpt>
      <trkpt lat="44.30583" lon="4.55966">
        <ele>57.5</ele>
        <time>2022-06-11T12:53:26Z</time>
      </trkpt>
      <trkpt lat="44.30583" lon="4.55966">
        <ele>57.5</ele>
        <time>2022-06-11T12:53:27Z</time>
      </trkpt>
      <trkpt lat="44.30584" lon="4.55967">
        <ele>57.6</ele>
        <time>2022-06-11T12:53:28Z</time>
      </trkpt>
      <trkpt lat="44.30585" lon="4.55967">
        <ele>57.6</ele>
        <time>2022-06-11T12:59:27Z</time>
      </trkpt>
      <trkpt lat="44.30585" lon="4.55968">
        <ele>57.6</ele>
        <time>2022-06-11T12:59:28Z</time>
      </trkpt>
      <trkpt lat="44.30586" lon="4.55969">
        <ele>57.6</ele>
        <time>2022-06-11T12:59:29Z</time>
      </trkpt>
      <trkpt lat="44.30587" lon="4.55969">
        <ele>57.6</ele>
        <time>2022-06-11T12:59:31Z</time>
      </trkpt>
      <trkpt lat="44.30588" lon="4.5597">
        <ele>57.6</ele>
        <time>2022-06-11T12:59:32Z</time>
      </trkpt>
      <trkpt lat="44.30589" lon="4.55971">
        <ele>57.6</ele>
        <time>2022-06-11T12:59:33Z</time>
      </trkpt>
      <trkpt lat="44.3059" lon="4.55971">
        <ele>57.6</ele>
        <time>2022-06-11T12:59:34Z</time>
      </trkpt>
      <trkpt lat="44.3059" lon="4.55972">
        <ele>57.6</ele>
        <time>2022-06-11T12:59:35Z</time>
      </trkpt>
      <trkpt lat="44.30591" lon="4.55972">
        <ele>57.6</ele>
        <time>2022-06-11T12:59:36Z</time>
      </trkpt>
      <trkpt lat="44.30592" lon="4.55973">
        <ele>57.6</ele>
        <time>2022-06-11T12:59:37Z</time>
      </trkpt>
      <trkpt lat="44.30593" lon="4.55974">
        <ele>57.7</ele>
        <time>2022-06-11T12:59:39Z</time>
      </trkpt>
      <trkpt lat="44.30593" lon="4.55975">
        <ele>57.7</ele>
        <time>2022-06-11T12:59:40Z</time>
      </trkpt>
      <trkpt lat="44.30594" lon="4.55975">
        <ele>58.3</ele>
        <time>2022-06-11T12:59:41Z</time>
      </trkpt>
      <trkpt lat="44.30594" lon="4.55976">
        <ele>58.4</ele>
        <time>2022-06-11T12:59:42Z</time>
      </trkpt>
      <trkpt lat="44.30594" lon="4.55977">
        <ele>58.4</ele>
        <time>2022-06-11T12:59:43Z</time>
      </trkpt>
      <trkpt lat="44.30593" lon="4.5598">
        <ele>58.4</ele>
        <time>2022-06-11T12:59:44Z</time>
      </trkpt>
      <trkpt lat="44.30591" lon="4.55982">
        <ele>58.5</ele>
        <time>2022-06-11T12:59:46Z</time>
      </trkpt>
      <trkpt lat="44.30591" lon="4.55984">
        <ele>58.5</ele>
        <time>2022-06-11T12:59:48Z</time>
      </trkpt>
      <trkpt lat="44.3059" lon="4.55987">
        <ele>58.6</ele>
        <time>2022-06-11T12:59:50Z</time>
      </trkpt>
      <trkpt lat="44.3059" lon="4.55988">
        <ele>58.6</ele>
        <time>2022-06-11T12:59:51Z</time>
      </trkpt>
      <trkpt lat="44.3059" lon="4.55991">
        <ele>58.7</ele>
        <time>2022-06-11T12:59:52Z</time>
      </trkpt>
      <trkpt lat="44.30591" lon="4.55994">
        <ele>58.8</ele>
        <time>2022-06-11T12:59:54Z</time>
      </trkpt>
      <trkpt lat="44.30593" lon="4.55995">
        <ele>58.8</ele>
        <time>2022-06-11T12:59:56Z</time>
      </trkpt>
      <trkpt lat="44.30593" lon="4.55996">
        <ele>58.8</ele>
        <time>2022-06-11T12:59:57Z</time>
      </trkpt>
      <trkpt lat="44.30594" lon="4.55996">
        <ele>58.9</ele>
        <time>2022-06-11T12:59:58Z</time>
      </trkpt>
      <trkpt lat="44.30595" lon="4.55998">
        <ele>58.9</ele>
        <time>2022-06-11T12:59:59Z</time>
      </trkpt>
      <trkpt lat="44.30596" lon="4.55999">
        <ele>59</ele>
        <time>2022-06-11T13:00:01Z</time>
      </trkpt>
      <trkpt lat="44.30598" lon="4.55999">
        <ele>59.1</ele>
        <time>2022-06-11T13:00:02Z</time>
      </trkpt>
      <trkpt lat="44.306" lon="4.56002">
        <ele>59.2</ele>
        <time>2022-06-11T13:00:04Z</time>
      </trkpt>
      <trkpt lat="44.306" lon="4.56003">
        <ele>59.3</ele>
        <time>2022-06-11T13:00:05Z</time>
      </trkpt>
      <trkpt lat="44.306" lon="4.56004">
        <ele>59.3</ele>
        <time>2022-06-11T13:00:06Z</time>
      </trkpt>
      <trkpt lat="44.30602" lon="4.56006">
        <ele>59.4</ele>
        <time>2022-06-11T13:00:07Z</time>
      </trkpt>
      <trkpt lat="44.30603" lon="4.56009">
        <ele>59.6</ele>
        <time>2022-06-11T13:00:08Z</time>
      </trkpt>
      <trkpt lat="44.30604" lon="4.5601">
        <ele>59.6</ele>
        <time>2022-06-11T13:00:09Z</time>
      </trkpt>
      <trkpt lat="44.30605" lon="4.56011">
        <ele>59.7</ele>
        <time>2022-06-11T13:00:11Z</time>
      </trkpt>
      <trkpt lat="44.30607" lon="4.56013">
        <ele>59.8</ele>
        <time>2022-06-11T13:00:12Z</time>
      </trkpt>
      <trkpt lat="44.30608" lon="4.56014">
        <ele>59.9</ele>
        <time>2022-06-11T13:00:14Z</time>
      </trkpt>
      <trkpt lat="44.30609" lon="4.56016">
        <ele>60</ele>
        <time>2022-06-11T13:00:15Z</time>
      </trkpt>
      <trkpt lat="44.3061" lon="4.56017">
        <ele>60.1</ele>
        <time>2022-06-11T13:00:17Z</time>
      </trkpt>
      <trkpt lat="44.3061" lon="4.56018">
        <ele>60.1</ele>
        <time>2022-06-11T13:00:18Z</time>
      </trkpt>
      <trkpt lat="44.3061" lon="4.56019">
        <ele>60.2</ele>
        <time>2022-06-11T13:00:19Z</time>
      </trkpt>
      <trkpt lat="44.3061" lon="4.5602">
        <ele>60.2</ele>
        <time>2022-06-11T13:00:20Z</time>
      </trkpt>
      <trkpt lat="44.30611" lon="4.56021">
        <ele>60.3</ele>
        <time>2022-06-11T13:00:21Z</time>
      </trkpt>
      <trkpt lat="44.30612" lon="4.56022">
        <ele>60.3</ele>
        <time>2022-06-11T13:00:23Z</time>
      </trkpt>
      <trkpt lat="44.30614" lon="4.56024">
        <ele>60.5</ele>
        <time>2022-06-11T13:00:24Z</time>
      </trkpt>
      <trkpt lat="44.30615" lon="4.56024">
        <ele>60.5</ele>
        <time>2022-06-11T13:00:26Z</time>
      </trkpt>
      <trkpt lat="44.30616" lon="4.56024">
        <ele>60.6</ele>
        <time>2022-06-11T13:00:27Z</time>
      </trkpt>
      <trkpt lat="44.30616" lon="4.56023">
        <ele>60.6</ele>
        <time>2022-06-11T13:00:28Z</time>
      </trkpt>
      <trkpt lat="44.30616" lon="4.56022">
        <ele>60.6</ele>
        <time>2022-06-11T13:00:29Z</time>
      </trkpt>
      <trkpt lat="44.30616" lon="4.56022">
        <ele>60.6</ele>
        <time>2022-06-11T13:00:30Z</time>
      </trkpt>
      <trkpt lat="44.30616" lon="4.56022">
        <ele>60.6</ele>
        <time>2022-06-11T13:00:31Z</time>
      </trkpt>
      <trkpt lat="44.30616" lon="4.56022">
        <ele>60.6</ele>
        <time>2022-06-11T13:00:32Z</time>
      </trkpt>
      <trkpt lat="44.30616" lon="4.56022">
        <ele>60.6</ele>
        <time>2022-06-11T13:00:33Z</time>
      </trkpt>
      <trkpt lat="44.30616" lon="4.56022">
        <ele>60.6</ele>
        <time>2022-06-11T13:00:34Z</time>
      </trkpt>
      <trkpt lat="44.30616" lon="4.56022">
        <ele>60.6</ele>
        <time>2022-06-11T13:00:35Z</time>
      </trkpt>
      <trkpt lat="44.30616" lon="4.56022">
        <ele>60.6</ele>
        <time>2022-06-11T13:00:36Z</time>
      </trkpt>
      <trkpt lat="44.30616" lon="4.56022">
        <ele>60.7</ele>
        <time>2022-06-11T13:00:38Z</time>
      </trkpt>
      <trkpt lat="44.30616" lon="4.56022">
        <ele>60.7</ele>
        <time>2022-06-11T13:00:39Z</time>
      </trkpt>
    </trkseg>
  </trk>
</gpx>